<?xml version="1.0" encoding="UTF-8" standalone="no" ?>
<gpx xmlns="http://www.topografix.com/GPX/1/1" xmlns:xsi="http://www.w3.org/2001/XMLSchema-instance" xsi:schemaLocation="http://www.topografix.com/GPX/1/1 http://www.topografix.com/GPX/1/1/gpx.xsd" version="1.1" creator="VisuGPX - https://www.visugpx.com">
  <metadata>
    <name>Retour au Bèlvédère</name>
    <desc><![CDATA[Retour au Bèlvédère ce samedi entre deux averses]]></desc>
  </metadata>
  <wpt lat="47.50525" lon="6.79486">
    <ele>316</ele>
    <name><![CDATA[Point de cheminement 1]]></name>
    <desc><![CDATA[]]></desc>
  </wpt>
  <wpt lat="47.49816" lon="6.7899">
    <ele>348</ele>
    <name><![CDATA[Point de cheminement 2]]></name>
    <desc><![CDATA[]]></desc>
  </wpt>
  <wpt lat="47.48966" lon="6.78108">
    <ele>333</ele>
    <name><![CDATA[Point de cheminement 3]]></name>
    <desc><![CDATA[]]></desc>
  </wpt>
  <wpt lat="47.47518" lon="6.78702">
    <ele>360</ele>
    <name><![CDATA[Point de cheminement 4]]></name>
    <desc><![CDATA[]]></desc>
  </wpt>
  <wpt lat="47.45407" lon="6.7854">
    <ele>340</ele>
    <name><![CDATA[Point de cheminement 5]]></name>
    <desc><![CDATA[]]></desc>
  </wpt>
  <wpt lat="47.44192" lon="6.79848">
    <ele>427</ele>
    <name><![CDATA[Point de cheminement 6]]></name>
    <desc><![CDATA[]]></desc>
  </wpt>
  <wpt lat="47.4296" lon="6.79688">
    <ele>492</ele>
    <name><![CDATA[Point de cheminement 7]]></name>
    <desc><![CDATA[]]></desc>
  </wpt>
  <wpt lat="47.44044" lon="6.80402">
    <ele>396</ele>
    <name><![CDATA[Point de cheminement 8]]></name>
    <desc><![CDATA[]]></desc>
  </wpt>
  <wpt lat="47.45978" lon="6.78426">
    <ele>396</ele>
    <name><![CDATA[Point de cheminement 9]]></name>
    <desc><![CDATA[]]></desc>
  </wpt>
  <wpt lat="47.48524" lon="6.77426">
    <ele>327</ele>
    <name><![CDATA[Point de cheminement 10]]></name>
    <desc><![CDATA[]]></desc>
  </wpt>
  <wpt lat="47.50562" lon="6.79471">
    <ele>316</ele>
    <name><![CDATA[Point de cheminement 11]]></name>
    <desc><![CDATA[]]></desc>
  </wpt>
  <wpt lat="47.51805" lon="6.77482">
    <ele>388</ele>
    <name><![CDATA[Point de cheminement 12]]></name>
    <desc><![CDATA[]]></desc>
  </wpt>
  <trk>
    <name><![CDATA[Rue Antoine Coysevox]]></name>
    <desc><![CDATA[]]></desc>
    <trkseg>
      <trkpt lat="47.51817" lon="6.77459">
        <ele>387</ele>
        <time>2016-10-01T13:39:40.538Z</time>
      </trkpt>
      <trkpt lat="47.5182" lon="6.77453">
        <ele>387</ele>
        <time>2016-10-01T13:39:41.999Z</time>
      </trkpt>
      <trkpt lat="47.51809" lon="6.77446">
        <ele>387</ele>
        <time>2016-10-01T13:39:43.000Z</time>
      </trkpt>
      <trkpt lat="47.51811" lon="6.77452">
        <ele>387</ele>
        <time>2016-10-01T13:40:10.000Z</time>
      </trkpt>
      <trkpt lat="47.51812" lon="6.77453">
        <ele>387</ele>
        <time>2016-10-01T13:40:11.000Z</time>
      </trkpt>
      <trkpt lat="47.51813" lon="6.77458">
        <ele>387</ele>
        <time>2016-10-01T13:40:13.000Z</time>
      </trkpt>
      <trkpt lat="47.51814" lon="6.7746">
        <ele>387</ele>
        <time>2016-10-01T13:40:14.000Z</time>
      </trkpt>
      <trkpt lat="47.51817" lon="6.77465">
        <ele>387</ele>
        <time>2016-10-01T13:40:16.000Z</time>
      </trkpt>
      <trkpt lat="47.51817" lon="6.77465">
        <ele>387</ele>
        <time>2016-10-01T13:40:17.000Z</time>
      </trkpt>
      <trkpt lat="47.51818" lon="6.77471">
        <ele>387</ele>
        <time>2016-10-01T13:40:24.000Z</time>
      </trkpt>
      <trkpt lat="47.51818" lon="6.77472">
        <ele>387</ele>
        <time>2016-10-01T13:40:25.000Z</time>
      </trkpt>
      <trkpt lat="47.51815" lon="6.77476">
        <ele>388</ele>
        <time>2016-10-01T13:45:01.000Z</time>
      </trkpt>
      <trkpt lat="47.51815" lon="6.77476">
        <ele>388</ele>
        <time>2016-10-01T13:45:02.000Z</time>
      </trkpt>
      <trkpt lat="47.51815" lon="6.77479">
        <ele>388</ele>
        <time>2016-10-01T13:47:18.000Z</time>
      </trkpt>
      <trkpt lat="47.51816" lon="6.77482">
        <ele>387</ele>
        <time>2016-10-01T13:47:19.000Z</time>
      </trkpt>
      <trkpt lat="47.51812" lon="6.77486">
        <ele>388</ele>
        <time>2016-10-01T13:47:22.000Z</time>
      </trkpt>
      <trkpt lat="47.51808" lon="6.77486">
        <ele>388</ele>
        <time>2016-10-01T13:47:23.000Z</time>
      </trkpt>
      <trkpt lat="47.51803" lon="6.77485">
        <ele>388</ele>
        <time>2016-10-01T13:47:24.000Z</time>
      </trkpt>
      <trkpt lat="47.51799" lon="6.77483">
        <ele>388</ele>
        <time>2016-10-01T13:47:25.000Z</time>
      </trkpt>
      <trkpt lat="47.51794" lon="6.77481">
        <ele>388</ele>
        <time>2016-10-01T13:47:26.000Z</time>
      </trkpt>
      <trkpt lat="47.51789" lon="6.77479">
        <ele>388</ele>
        <time>2016-10-01T13:47:27.000Z</time>
      </trkpt>
      <trkpt lat="47.51784" lon="6.77476">
        <ele>388</ele>
        <time>2016-10-01T13:47:28.000Z</time>
      </trkpt>
      <trkpt lat="47.5178" lon="6.77475">
        <ele>388</ele>
        <time>2016-10-01T13:47:29.000Z</time>
      </trkpt>
      <trkpt lat="47.51773" lon="6.77475">
        <ele>388</ele>
        <time>2016-10-01T13:47:30.000Z</time>
      </trkpt>
      <trkpt lat="47.51768" lon="6.77474">
        <ele>388</ele>
        <time>2016-10-01T13:47:31.000Z</time>
      </trkpt>
      <trkpt lat="47.51763" lon="6.77474">
        <ele>388</ele>
        <time>2016-10-01T13:47:32.000Z</time>
      </trkpt>
      <trkpt lat="47.51759" lon="6.77473">
        <ele>388</ele>
        <time>2016-10-01T13:47:33.000Z</time>
      </trkpt>
      <trkpt lat="47.51755" lon="6.77472">
        <ele>388</ele>
        <time>2016-10-01T13:47:34.000Z</time>
      </trkpt>
      <trkpt lat="47.51751" lon="6.77471">
        <ele>388</ele>
        <time>2016-10-01T13:47:34.999Z</time>
      </trkpt>
      <trkpt lat="47.51747" lon="6.7747">
        <ele>389</ele>
        <time>2016-10-01T13:47:36.000Z</time>
      </trkpt>
      <trkpt lat="47.51742" lon="6.77472">
        <ele>389</ele>
        <time>2016-10-01T13:47:37.000Z</time>
      </trkpt>
      <trkpt lat="47.5174" lon="6.77478">
        <ele>389</ele>
        <time>2016-10-01T13:47:38.000Z</time>
      </trkpt>
      <trkpt lat="47.51738" lon="6.77485">
        <ele>389</ele>
        <time>2016-10-01T13:47:39.000Z</time>
      </trkpt>
      <trkpt lat="47.51736" lon="6.77492">
        <ele>389</ele>
        <time>2016-10-01T13:47:40.000Z</time>
      </trkpt>
      <trkpt lat="47.51732" lon="6.77497">
        <ele>389</ele>
        <time>2016-10-01T13:47:41.000Z</time>
      </trkpt>
      <trkpt lat="47.5173" lon="6.77503">
        <ele>390</ele>
        <time>2016-10-01T13:47:42.000Z</time>
      </trkpt>
      <trkpt lat="47.51727" lon="6.7751">
        <ele>390</ele>
        <time>2016-10-01T13:47:43.000Z</time>
      </trkpt>
      <trkpt lat="47.51727" lon="6.77518">
        <ele>390</ele>
        <time>2016-10-01T13:47:44.000Z</time>
      </trkpt>
      <trkpt lat="47.51726" lon="6.77526">
        <ele>390</ele>
        <time>2016-10-01T13:47:45.000Z</time>
      </trkpt>
      <trkpt lat="47.51726" lon="6.77533">
        <ele>390</ele>
        <time>2016-10-01T13:47:46.000Z</time>
      </trkpt>
      <trkpt lat="47.51725" lon="6.77539">
        <ele>390</ele>
        <time>2016-10-01T13:47:46.999Z</time>
      </trkpt>
      <trkpt lat="47.51723" lon="6.77544">
        <ele>390</ele>
        <time>2016-10-01T13:47:48.000Z</time>
      </trkpt>
      <trkpt lat="47.51722" lon="6.77546">
        <ele>390</ele>
        <time>2016-10-01T13:47:49.000Z</time>
      </trkpt>
      <trkpt lat="47.51717" lon="6.77548">
        <ele>390</ele>
        <time>2016-10-01T13:47:50.000Z</time>
      </trkpt>
      <trkpt lat="47.51714" lon="6.77547">
        <ele>390</ele>
        <time>2016-10-01T13:47:52.999Z</time>
      </trkpt>
      <trkpt lat="47.51712" lon="6.77547">
        <ele>390</ele>
        <time>2016-10-01T13:47:54.000Z</time>
      </trkpt>
      <trkpt lat="47.5171" lon="6.77548">
        <ele>390</ele>
        <time>2016-10-01T13:47:56.001Z</time>
      </trkpt>
      <trkpt lat="47.51707" lon="6.77553">
        <ele>390</ele>
        <time>2016-10-01T13:47:57.000Z</time>
      </trkpt>
      <trkpt lat="47.51705" lon="6.77555">
        <ele>390</ele>
        <time>2016-10-01T13:47:58.000Z</time>
      </trkpt>
      <trkpt lat="47.51706" lon="6.7756">
        <ele>390</ele>
        <time>2016-10-01T13:47:59.000Z</time>
      </trkpt>
      <trkpt lat="47.5171" lon="6.7757">
        <ele>390</ele>
        <time>2016-10-01T13:48:00.000Z</time>
      </trkpt>
      <trkpt lat="47.51712" lon="6.77577">
        <ele>390</ele>
        <time>2016-10-01T13:48:01.000Z</time>
      </trkpt>
      <trkpt lat="47.5171" lon="6.77583">
        <ele>390</ele>
        <time>2016-10-01T13:48:02.000Z</time>
      </trkpt>
      <trkpt lat="47.51711" lon="6.77593">
        <ele>390</ele>
        <time>2016-10-01T13:48:03.000Z</time>
      </trkpt>
      <trkpt lat="47.5171" lon="6.77601">
        <ele>390</ele>
        <time>2016-10-01T13:48:04.000Z</time>
      </trkpt>
      <trkpt lat="47.5171" lon="6.77609">
        <ele>390</ele>
        <time>2016-10-01T13:48:05.000Z</time>
      </trkpt>
      <trkpt lat="47.5171" lon="6.77619">
        <ele>390</ele>
        <time>2016-10-01T13:48:06.000Z</time>
      </trkpt>
      <trkpt lat="47.5171" lon="6.77628">
        <ele>390</ele>
        <time>2016-10-01T13:48:07.000Z</time>
      </trkpt>
      <trkpt lat="47.51708" lon="6.77635">
        <ele>390</ele>
        <time>2016-10-01T13:48:08.000Z</time>
      </trkpt>
      <trkpt lat="47.51706" lon="6.77644">
        <ele>390</ele>
        <time>2016-10-01T13:48:09.000Z</time>
      </trkpt>
      <trkpt lat="47.51706" lon="6.77654">
        <ele>389</ele>
        <time>2016-10-01T13:48:10.000Z</time>
      </trkpt>
      <trkpt lat="47.51705" lon="6.77666">
        <ele>389</ele>
        <time>2016-10-01T13:48:11.000Z</time>
      </trkpt>
      <trkpt lat="47.51704" lon="6.77678">
        <ele>388</ele>
        <time>2016-10-01T13:48:12.000Z</time>
      </trkpt>
      <trkpt lat="47.51704" lon="6.77689">
        <ele>388</ele>
        <time>2016-10-01T13:48:13.000Z</time>
      </trkpt>
      <trkpt lat="47.51704" lon="6.77701">
        <ele>388</ele>
        <time>2016-10-01T13:48:14.000Z</time>
      </trkpt>
      <trkpt lat="47.51704" lon="6.7771">
        <ele>387</ele>
        <time>2016-10-01T13:48:15.000Z</time>
      </trkpt>
      <trkpt lat="47.51703" lon="6.7772">
        <ele>387</ele>
        <time>2016-10-01T13:48:16.001Z</time>
      </trkpt>
      <trkpt lat="47.51702" lon="6.77722">
        <ele>387</ele>
        <time>2016-10-01T13:48:17.000Z</time>
      </trkpt>
      <trkpt lat="47.51698" lon="6.77731">
        <ele>387</ele>
        <time>2016-10-01T13:48:18.000Z</time>
      </trkpt>
      <trkpt lat="47.51694" lon="6.77737">
        <ele>386</ele>
        <time>2016-10-01T13:48:19.000Z</time>
      </trkpt>
      <trkpt lat="47.51687" lon="6.77738">
        <ele>386</ele>
        <time>2016-10-01T13:48:20.000Z</time>
      </trkpt>
      <trkpt lat="47.51684" lon="6.77738">
        <ele>386</ele>
        <time>2016-10-01T13:48:21.000Z</time>
      </trkpt>
      <trkpt lat="47.51678" lon="6.77738">
        <ele>385</ele>
        <time>2016-10-01T13:48:22.000Z</time>
      </trkpt>
      <trkpt lat="47.51671" lon="6.77739">
        <ele>385</ele>
        <time>2016-10-01T13:48:23.000Z</time>
      </trkpt>
      <trkpt lat="47.51663" lon="6.77738">
        <ele>383</ele>
        <time>2016-10-01T13:48:24.000Z</time>
      </trkpt>
      <trkpt lat="47.51654" lon="6.77737">
        <ele>382</ele>
        <time>2016-10-01T13:48:25.000Z</time>
      </trkpt>
      <trkpt lat="47.51648" lon="6.77736">
        <ele>382</ele>
        <time>2016-10-01T13:48:26.000Z</time>
      </trkpt>
      <trkpt lat="47.51638" lon="6.77735">
        <ele>382</ele>
        <time>2016-10-01T13:48:27.000Z</time>
      </trkpt>
      <trkpt lat="47.5163" lon="6.77732">
        <ele>381</ele>
        <time>2016-10-01T13:48:28.000Z</time>
      </trkpt>
      <trkpt lat="47.51618" lon="6.7773">
        <ele>381</ele>
        <time>2016-10-01T13:48:29.000Z</time>
      </trkpt>
      <trkpt lat="47.5161" lon="6.77728">
        <ele>380</ele>
        <time>2016-10-01T13:48:30.000Z</time>
      </trkpt>
      <trkpt lat="47.51603" lon="6.77724">
        <ele>380</ele>
        <time>2016-10-01T13:48:31.000Z</time>
      </trkpt>
      <trkpt lat="47.51597" lon="6.77721">
        <ele>380</ele>
        <time>2016-10-01T13:48:32.000Z</time>
      </trkpt>
      <trkpt lat="47.5159" lon="6.77715">
        <ele>380</ele>
        <time>2016-10-01T13:48:33.000Z</time>
      </trkpt>
      <trkpt lat="47.51582" lon="6.77711">
        <ele>375</ele>
        <time>2016-10-01T13:48:34.000Z</time>
      </trkpt>
      <trkpt lat="47.51574" lon="6.77706">
        <ele>375</ele>
        <time>2016-10-01T13:48:35.000Z</time>
      </trkpt>
      <trkpt lat="47.51566" lon="6.77703">
        <ele>375</ele>
        <time>2016-10-01T13:48:36.000Z</time>
      </trkpt>
      <trkpt lat="47.51554" lon="6.77702">
        <ele>375</ele>
        <time>2016-10-01T13:48:37.000Z</time>
      </trkpt>
      <trkpt lat="47.51544" lon="6.777">
        <ele>374</ele>
        <time>2016-10-01T13:48:38.000Z</time>
      </trkpt>
      <trkpt lat="47.51535" lon="6.77699">
        <ele>374</ele>
        <time>2016-10-01T13:48:39.000Z</time>
      </trkpt>
      <trkpt lat="47.51528" lon="6.77697">
        <ele>373</ele>
        <time>2016-10-01T13:48:40.000Z</time>
      </trkpt>
      <trkpt lat="47.51519" lon="6.77698">
        <ele>373</ele>
        <time>2016-10-01T13:48:41.000Z</time>
      </trkpt>
      <trkpt lat="47.51511" lon="6.77699">
        <ele>373</ele>
        <time>2016-10-01T13:48:42.000Z</time>
      </trkpt>
      <trkpt lat="47.51502" lon="6.777">
        <ele>372</ele>
        <time>2016-10-01T13:48:43.000Z</time>
      </trkpt>
      <trkpt lat="47.5149" lon="6.777">
        <ele>368</ele>
        <time>2016-10-01T13:48:44.000Z</time>
      </trkpt>
      <trkpt lat="47.51478" lon="6.77701">
        <ele>368</ele>
        <time>2016-10-01T13:48:45.000Z</time>
      </trkpt>
      <trkpt lat="47.51466" lon="6.77706">
        <ele>367</ele>
        <time>2016-10-01T13:48:46.000Z</time>
      </trkpt>
      <trkpt lat="47.51456" lon="6.7771">
        <ele>366</ele>
        <time>2016-10-01T13:48:47.000Z</time>
      </trkpt>
      <trkpt lat="47.51444" lon="6.77715">
        <ele>365</ele>
        <time>2016-10-01T13:48:48.000Z</time>
      </trkpt>
      <trkpt lat="47.5143" lon="6.77717">
        <ele>365</ele>
        <time>2016-10-01T13:48:49.000Z</time>
      </trkpt>
      <trkpt lat="47.51421" lon="6.77719">
        <ele>364</ele>
        <time>2016-10-01T13:48:50.000Z</time>
      </trkpt>
      <trkpt lat="47.5141" lon="6.77723">
        <ele>357</ele>
        <time>2016-10-01T13:48:51.000Z</time>
      </trkpt>
      <trkpt lat="47.514" lon="6.77727">
        <ele>356</ele>
        <time>2016-10-01T13:48:52.000Z</time>
      </trkpt>
      <trkpt lat="47.51392" lon="6.7773">
        <ele>356</ele>
        <time>2016-10-01T13:48:53.000Z</time>
      </trkpt>
      <trkpt lat="47.5138" lon="6.77737">
        <ele>354</ele>
        <time>2016-10-01T13:48:54.000Z</time>
      </trkpt>
      <trkpt lat="47.51371" lon="6.77741">
        <ele>353</ele>
        <time>2016-10-01T13:48:55.000Z</time>
      </trkpt>
      <trkpt lat="47.51365" lon="6.77746">
        <ele>352</ele>
        <time>2016-10-01T13:48:56.000Z</time>
      </trkpt>
      <trkpt lat="47.51357" lon="6.77752">
        <ele>348</ele>
        <time>2016-10-01T13:48:57.000Z</time>
      </trkpt>
      <trkpt lat="47.5135" lon="6.77755">
        <ele>347</ele>
        <time>2016-10-01T13:48:58.000Z</time>
      </trkpt>
      <trkpt lat="47.51344" lon="6.77759">
        <ele>347</ele>
        <time>2016-10-01T13:48:59.000Z</time>
      </trkpt>
      <trkpt lat="47.51339" lon="6.7776">
        <ele>346</ele>
        <time>2016-10-01T13:49:00.000Z</time>
      </trkpt>
      <trkpt lat="47.51337" lon="6.77755">
        <ele>345</ele>
        <time>2016-10-01T13:49:02.000Z</time>
      </trkpt>
      <trkpt lat="47.51333" lon="6.77753">
        <ele>342</ele>
        <time>2016-10-01T13:49:03.000Z</time>
      </trkpt>
      <trkpt lat="47.51327" lon="6.77756">
        <ele>341</ele>
        <time>2016-10-01T13:49:04.000Z</time>
      </trkpt>
      <trkpt lat="47.51315" lon="6.7776">
        <ele>339</ele>
        <time>2016-10-01T13:49:05.000Z</time>
      </trkpt>
      <trkpt lat="47.51308" lon="6.77762">
        <ele>338</ele>
        <time>2016-10-01T13:49:06.000Z</time>
      </trkpt>
      <trkpt lat="47.51299" lon="6.77763">
        <ele>337</ele>
        <time>2016-10-01T13:49:07.000Z</time>
      </trkpt>
      <trkpt lat="47.5129" lon="6.77763">
        <ele>336</ele>
        <time>2016-10-01T13:49:08.000Z</time>
      </trkpt>
      <trkpt lat="47.5128" lon="6.77764">
        <ele>335</ele>
        <time>2016-10-01T13:49:09.000Z</time>
      </trkpt>
      <trkpt lat="47.51272" lon="6.77765">
        <ele>334</ele>
        <time>2016-10-01T13:49:10.000Z</time>
      </trkpt>
      <trkpt lat="47.51266" lon="6.77763">
        <ele>333</ele>
        <time>2016-10-01T13:49:11.000Z</time>
      </trkpt>
      <trkpt lat="47.5126" lon="6.77763">
        <ele>332</ele>
        <time>2016-10-01T13:49:12.000Z</time>
      </trkpt>
      <trkpt lat="47.51255" lon="6.77764">
        <ele>332</ele>
        <time>2016-10-01T13:49:13.000Z</time>
      </trkpt>
      <trkpt lat="47.51249" lon="6.77762">
        <ele>328</ele>
        <time>2016-10-01T13:49:14.000Z</time>
      </trkpt>
      <trkpt lat="47.51239" lon="6.77766">
        <ele>328</ele>
        <time>2016-10-01T13:49:15.000Z</time>
      </trkpt>
      <trkpt lat="47.51232" lon="6.77767">
        <ele>328</ele>
        <time>2016-10-01T13:49:16.000Z</time>
      </trkpt>
      <trkpt lat="47.51224" lon="6.77767">
        <ele>327</ele>
        <time>2016-10-01T13:49:17.000Z</time>
      </trkpt>
      <trkpt lat="47.51216" lon="6.77769">
        <ele>327</ele>
        <time>2016-10-01T13:49:18.000Z</time>
      </trkpt>
      <trkpt lat="47.51207" lon="6.7777">
        <ele>327</ele>
        <time>2016-10-01T13:49:19.000Z</time>
      </trkpt>
      <trkpt lat="47.51199" lon="6.77771">
        <ele>327</ele>
        <time>2016-10-01T13:49:20.000Z</time>
      </trkpt>
      <trkpt lat="47.5119" lon="6.77771">
        <ele>326</ele>
        <time>2016-10-01T13:49:21.000Z</time>
      </trkpt>
      <trkpt lat="47.51181" lon="6.77772">
        <ele>326</ele>
        <time>2016-10-01T13:49:22.000Z</time>
      </trkpt>
      <trkpt lat="47.51172" lon="6.77772">
        <ele>326</ele>
        <time>2016-10-01T13:49:23.000Z</time>
      </trkpt>
      <trkpt lat="47.51164" lon="6.77772">
        <ele>323</ele>
        <time>2016-10-01T13:49:24.000Z</time>
      </trkpt>
      <trkpt lat="47.51154" lon="6.7777">
        <ele>323</ele>
        <time>2016-10-01T13:49:25.000Z</time>
      </trkpt>
      <trkpt lat="47.51142" lon="6.7777">
        <ele>323</ele>
        <time>2016-10-01T13:49:26.000Z</time>
      </trkpt>
      <trkpt lat="47.51133" lon="6.77769">
        <ele>322</ele>
        <time>2016-10-01T13:49:27.000Z</time>
      </trkpt>
      <trkpt lat="47.51124" lon="6.77769">
        <ele>322</ele>
        <time>2016-10-01T13:49:28.000Z</time>
      </trkpt>
      <trkpt lat="47.51114" lon="6.77767">
        <ele>322</ele>
        <time>2016-10-01T13:49:29.000Z</time>
      </trkpt>
      <trkpt lat="47.51106" lon="6.77765">
        <ele>322</ele>
        <time>2016-10-01T13:49:30.000Z</time>
      </trkpt>
      <trkpt lat="47.51097" lon="6.77764">
        <ele>321</ele>
        <time>2016-10-01T13:49:31.000Z</time>
      </trkpt>
      <trkpt lat="47.5109" lon="6.77761">
        <ele>321</ele>
        <time>2016-10-01T13:49:32.000Z</time>
      </trkpt>
      <trkpt lat="47.51084" lon="6.77759">
        <ele>321</ele>
        <time>2016-10-01T13:49:33.000Z</time>
      </trkpt>
      <trkpt lat="47.51077" lon="6.77757">
        <ele>319</ele>
        <time>2016-10-01T13:49:34.000Z</time>
      </trkpt>
      <trkpt lat="47.51072" lon="6.77754">
        <ele>319</ele>
        <time>2016-10-01T13:49:35.000Z</time>
      </trkpt>
      <trkpt lat="47.51068" lon="6.77756">
        <ele>319</ele>
        <time>2016-10-01T13:49:37.000Z</time>
      </trkpt>
      <trkpt lat="47.51066" lon="6.77758">
        <ele>319</ele>
        <time>2016-10-01T13:49:38.000Z</time>
      </trkpt>
      <trkpt lat="47.51064" lon="6.7776">
        <ele>319</ele>
        <time>2016-10-01T13:49:39.000Z</time>
      </trkpt>
      <trkpt lat="47.51058" lon="6.77767">
        <ele>318</ele>
        <time>2016-10-01T13:49:40.000Z</time>
      </trkpt>
      <trkpt lat="47.51053" lon="6.77776">
        <ele>318</ele>
        <time>2016-10-01T13:49:41.000Z</time>
      </trkpt>
      <trkpt lat="47.51052" lon="6.77784">
        <ele>318</ele>
        <time>2016-10-01T13:49:42.000Z</time>
      </trkpt>
      <trkpt lat="47.5105" lon="6.77787">
        <ele>318</ele>
        <time>2016-10-01T13:49:43.000Z</time>
      </trkpt>
      <trkpt lat="47.51049" lon="6.77793">
        <ele>318</ele>
        <time>2016-10-01T13:49:44.000Z</time>
      </trkpt>
      <trkpt lat="47.51047" lon="6.77799">
        <ele>318</ele>
        <time>2016-10-01T13:49:45.000Z</time>
      </trkpt>
      <trkpt lat="47.51043" lon="6.77811">
        <ele>318</ele>
        <time>2016-10-01T13:49:46.000Z</time>
      </trkpt>
      <trkpt lat="47.5104" lon="6.7782">
        <ele>318</ele>
        <time>2016-10-01T13:49:47.000Z</time>
      </trkpt>
      <trkpt lat="47.5104" lon="6.77832">
        <ele>318</ele>
        <time>2016-10-01T13:49:48.000Z</time>
      </trkpt>
      <trkpt lat="47.51039" lon="6.7784">
        <ele>317</ele>
        <time>2016-10-01T13:49:49.000Z</time>
      </trkpt>
      <trkpt lat="47.51038" lon="6.7785">
        <ele>317</ele>
        <time>2016-10-01T13:49:50.000Z</time>
      </trkpt>
      <trkpt lat="47.51035" lon="6.77861">
        <ele>317</ele>
        <time>2016-10-01T13:49:51.000Z</time>
      </trkpt>
      <trkpt lat="47.51034" lon="6.7787">
        <ele>317</ele>
        <time>2016-10-01T13:49:52.000Z</time>
      </trkpt>
      <trkpt lat="47.51031" lon="6.77879">
        <ele>317</ele>
        <time>2016-10-01T13:49:53.000Z</time>
      </trkpt>
      <trkpt lat="47.5103" lon="6.7789">
        <ele>317</ele>
        <time>2016-10-01T13:49:54.000Z</time>
      </trkpt>
      <trkpt lat="47.51028" lon="6.77901">
        <ele>317</ele>
        <time>2016-10-01T13:49:54.999Z</time>
      </trkpt>
      <trkpt lat="47.51026" lon="6.7791">
        <ele>317</ele>
        <time>2016-10-01T13:49:56.000Z</time>
      </trkpt>
      <trkpt lat="47.51024" lon="6.77918">
        <ele>317</ele>
        <time>2016-10-01T13:49:57.000Z</time>
      </trkpt>
      <trkpt lat="47.51022" lon="6.7793">
        <ele>317</ele>
        <time>2016-10-01T13:49:58.000Z</time>
      </trkpt>
      <trkpt lat="47.51021" lon="6.7794">
        <ele>317</ele>
        <time>2016-10-01T13:49:58.999Z</time>
      </trkpt>
      <trkpt lat="47.51018" lon="6.77952">
        <ele>317</ele>
        <time>2016-10-01T13:50:00.000Z</time>
      </trkpt>
      <trkpt lat="47.51016" lon="6.77963">
        <ele>317</ele>
        <time>2016-10-01T13:50:00.999Z</time>
      </trkpt>
      <trkpt lat="47.51015" lon="6.77974">
        <ele>317</ele>
        <time>2016-10-01T13:50:02.000Z</time>
      </trkpt>
      <trkpt lat="47.51014" lon="6.77983">
        <ele>317</ele>
        <time>2016-10-01T13:50:03.000Z</time>
      </trkpt>
      <trkpt lat="47.51013" lon="6.77994">
        <ele>317</ele>
        <time>2016-10-01T13:50:03.999Z</time>
      </trkpt>
      <trkpt lat="47.5101" lon="6.78005">
        <ele>317</ele>
        <time>2016-10-01T13:50:05.000Z</time>
      </trkpt>
      <trkpt lat="47.51008" lon="6.78016">
        <ele>317</ele>
        <time>2016-10-01T13:50:06.000Z</time>
      </trkpt>
      <trkpt lat="47.51007" lon="6.78029">
        <ele>318</ele>
        <time>2016-10-01T13:50:07.000Z</time>
      </trkpt>
      <trkpt lat="47.51004" lon="6.78036">
        <ele>318</ele>
        <time>2016-10-01T13:50:08.000Z</time>
      </trkpt>
      <trkpt lat="47.51001" lon="6.78044">
        <ele>318</ele>
        <time>2016-10-01T13:50:09.000Z</time>
      </trkpt>
      <trkpt lat="47.50997" lon="6.78051">
        <ele>316</ele>
        <time>2016-10-01T13:50:10.000Z</time>
      </trkpt>
      <trkpt lat="47.50994" lon="6.78055">
        <ele>316</ele>
        <time>2016-10-01T13:50:11.000Z</time>
      </trkpt>
      <trkpt lat="47.50992" lon="6.78058">
        <ele>316</ele>
        <time>2016-10-01T13:50:12.000Z</time>
      </trkpt>
      <trkpt lat="47.50989" lon="6.78063">
        <ele>316</ele>
        <time>2016-10-01T13:50:13.000Z</time>
      </trkpt>
      <trkpt lat="47.50986" lon="6.78068">
        <ele>316</ele>
        <time>2016-10-01T13:50:14.000Z</time>
      </trkpt>
      <trkpt lat="47.50985" lon="6.78075">
        <ele>317</ele>
        <time>2016-10-01T13:50:15.000Z</time>
      </trkpt>
      <trkpt lat="47.50987" lon="6.7809">
        <ele>317</ele>
        <time>2016-10-01T13:50:16.000Z</time>
      </trkpt>
      <trkpt lat="47.50987" lon="6.78098">
        <ele>316</ele>
        <time>2016-10-01T13:50:17.000Z</time>
      </trkpt>
      <trkpt lat="47.50987" lon="6.78107">
        <ele>316</ele>
        <time>2016-10-01T13:50:18.000Z</time>
      </trkpt>
      <trkpt lat="47.50988" lon="6.78121">
        <ele>316</ele>
        <time>2016-10-01T13:50:19.000Z</time>
      </trkpt>
      <trkpt lat="47.50987" lon="6.78133">
        <ele>316</ele>
        <time>2016-10-01T13:50:20.000Z</time>
      </trkpt>
      <trkpt lat="47.50987" lon="6.78144">
        <ele>316</ele>
        <time>2016-10-01T13:50:21.000Z</time>
      </trkpt>
      <trkpt lat="47.50985" lon="6.78153">
        <ele>316</ele>
        <time>2016-10-01T13:50:22.000Z</time>
      </trkpt>
      <trkpt lat="47.50984" lon="6.78161">
        <ele>316</ele>
        <time>2016-10-01T13:50:22.999Z</time>
      </trkpt>
      <trkpt lat="47.50982" lon="6.78174">
        <ele>316</ele>
        <time>2016-10-01T13:50:24.000Z</time>
      </trkpt>
      <trkpt lat="47.5098" lon="6.78186">
        <ele>316</ele>
        <time>2016-10-01T13:50:25.001Z</time>
      </trkpt>
      <trkpt lat="47.5098" lon="6.78193">
        <ele>316</ele>
        <time>2016-10-01T13:50:26.000Z</time>
      </trkpt>
      <trkpt lat="47.5098" lon="6.78203">
        <ele>316</ele>
        <time>2016-10-01T13:50:27.000Z</time>
      </trkpt>
      <trkpt lat="47.5098" lon="6.78214">
        <ele>316</ele>
        <time>2016-10-01T13:50:28.000Z</time>
      </trkpt>
      <trkpt lat="47.50978" lon="6.78224">
        <ele>316</ele>
        <time>2016-10-01T13:50:29.000Z</time>
      </trkpt>
      <trkpt lat="47.50978" lon="6.78236">
        <ele>316</ele>
        <time>2016-10-01T13:50:30.000Z</time>
      </trkpt>
      <trkpt lat="47.50977" lon="6.78246">
        <ele>316</ele>
        <time>2016-10-01T13:50:31.000Z</time>
      </trkpt>
      <trkpt lat="47.50977" lon="6.78254">
        <ele>316</ele>
        <time>2016-10-01T13:50:31.999Z</time>
      </trkpt>
      <trkpt lat="47.50976" lon="6.78261">
        <ele>316</ele>
        <time>2016-10-01T13:50:33.000Z</time>
      </trkpt>
      <trkpt lat="47.50977" lon="6.78263">
        <ele>316</ele>
        <time>2016-10-01T13:50:34.000Z</time>
      </trkpt>
      <trkpt lat="47.50976" lon="6.78268">
        <ele>316</ele>
        <time>2016-10-01T13:50:35.000Z</time>
      </trkpt>
      <trkpt lat="47.50975" lon="6.78276">
        <ele>316</ele>
        <time>2016-10-01T13:50:36.000Z</time>
      </trkpt>
      <trkpt lat="47.50976" lon="6.78281">
        <ele>316</ele>
        <time>2016-10-01T13:50:37.000Z</time>
      </trkpt>
      <trkpt lat="47.50977" lon="6.78284">
        <ele>316</ele>
        <time>2016-10-01T13:50:38.000Z</time>
      </trkpt>
      <trkpt lat="47.50978" lon="6.7829">
        <ele>316</ele>
        <time>2016-10-01T13:50:39.000Z</time>
      </trkpt>
      <trkpt lat="47.50979" lon="6.78296">
        <ele>316</ele>
        <time>2016-10-01T13:50:40.000Z</time>
      </trkpt>
      <trkpt lat="47.50978" lon="6.78302">
        <ele>316</ele>
        <time>2016-10-01T13:50:41.000Z</time>
      </trkpt>
      <trkpt lat="47.50978" lon="6.78309">
        <ele>316</ele>
        <time>2016-10-01T13:50:42.000Z</time>
      </trkpt>
      <trkpt lat="47.50978" lon="6.78313">
        <ele>316</ele>
        <time>2016-10-01T13:50:43.000Z</time>
      </trkpt>
      <trkpt lat="47.50978" lon="6.78317">
        <ele>316</ele>
        <time>2016-10-01T13:50:44.000Z</time>
      </trkpt>
      <trkpt lat="47.50977" lon="6.78321">
        <ele>316</ele>
        <time>2016-10-01T13:50:44.999Z</time>
      </trkpt>
      <trkpt lat="47.50977" lon="6.78328">
        <ele>316</ele>
        <time>2016-10-01T13:50:46.000Z</time>
      </trkpt>
      <trkpt lat="47.50977" lon="6.78338">
        <ele>316</ele>
        <time>2016-10-01T13:50:47.000Z</time>
      </trkpt>
      <trkpt lat="47.50976" lon="6.78345">
        <ele>316</ele>
        <time>2016-10-01T13:50:48.000Z</time>
      </trkpt>
      <trkpt lat="47.50966" lon="6.78356">
        <ele>316</ele>
        <time>2016-10-01T13:50:49.000Z</time>
      </trkpt>
      <trkpt lat="47.50962" lon="6.78361">
        <ele>316</ele>
        <time>2016-10-01T13:50:50.000Z</time>
      </trkpt>
      <trkpt lat="47.50962" lon="6.78369">
        <ele>316</ele>
        <time>2016-10-01T13:50:51.000Z</time>
      </trkpt>
      <trkpt lat="47.5096" lon="6.78379">
        <ele>316</ele>
        <time>2016-10-01T13:50:52.000Z</time>
      </trkpt>
      <trkpt lat="47.50957" lon="6.78388">
        <ele>316</ele>
        <time>2016-10-01T13:50:52.999Z</time>
      </trkpt>
      <trkpt lat="47.50957" lon="6.78398">
        <ele>316</ele>
        <time>2016-10-01T13:50:54.000Z</time>
      </trkpt>
      <trkpt lat="47.50955" lon="6.78407">
        <ele>316</ele>
        <time>2016-10-01T13:50:55.000Z</time>
      </trkpt>
      <trkpt lat="47.50954" lon="6.78415">
        <ele>316</ele>
        <time>2016-10-01T13:50:56.000Z</time>
      </trkpt>
      <trkpt lat="47.50954" lon="6.78426">
        <ele>316</ele>
        <time>2016-10-01T13:50:57.000Z</time>
      </trkpt>
      <trkpt lat="47.50953" lon="6.78435">
        <ele>316</ele>
        <time>2016-10-01T13:50:58.000Z</time>
      </trkpt>
      <trkpt lat="47.50952" lon="6.78444">
        <ele>316</ele>
        <time>2016-10-01T13:50:59.000Z</time>
      </trkpt>
      <trkpt lat="47.50951" lon="6.78454">
        <ele>316</ele>
        <time>2016-10-01T13:51:00.000Z</time>
      </trkpt>
      <trkpt lat="47.50951" lon="6.78466">
        <ele>316</ele>
        <time>2016-10-01T13:51:01.000Z</time>
      </trkpt>
      <trkpt lat="47.50951" lon="6.78474">
        <ele>316</ele>
        <time>2016-10-01T13:51:02.000Z</time>
      </trkpt>
      <trkpt lat="47.50948" lon="6.78483">
        <ele>316</ele>
        <time>2016-10-01T13:51:03.000Z</time>
      </trkpt>
      <trkpt lat="47.50947" lon="6.78491">
        <ele>316</ele>
        <time>2016-10-01T13:51:04.000Z</time>
      </trkpt>
      <trkpt lat="47.50947" lon="6.78503">
        <ele>316</ele>
        <time>2016-10-01T13:51:05.000Z</time>
      </trkpt>
      <trkpt lat="47.50945" lon="6.78512">
        <ele>316</ele>
        <time>2016-10-01T13:51:06.000Z</time>
      </trkpt>
      <trkpt lat="47.50944" lon="6.78524">
        <ele>317</ele>
        <time>2016-10-01T13:51:07.000Z</time>
      </trkpt>
      <trkpt lat="47.50943" lon="6.78537">
        <ele>317</ele>
        <time>2016-10-01T13:51:08.000Z</time>
      </trkpt>
      <trkpt lat="47.50941" lon="6.78546">
        <ele>317</ele>
        <time>2016-10-01T13:51:09.000Z</time>
      </trkpt>
      <trkpt lat="47.5094" lon="6.78557">
        <ele>317</ele>
        <time>2016-10-01T13:51:10.000Z</time>
      </trkpt>
      <trkpt lat="47.50937" lon="6.78568">
        <ele>317</ele>
        <time>2016-10-01T13:51:11.000Z</time>
      </trkpt>
      <trkpt lat="47.50935" lon="6.78579">
        <ele>317</ele>
        <time>2016-10-01T13:51:12.000Z</time>
      </trkpt>
      <trkpt lat="47.50932" lon="6.7859">
        <ele>317</ele>
        <time>2016-10-01T13:51:13.000Z</time>
      </trkpt>
      <trkpt lat="47.5093" lon="6.78599">
        <ele>318</ele>
        <time>2016-10-01T13:51:14.000Z</time>
      </trkpt>
      <trkpt lat="47.50929" lon="6.7861">
        <ele>318</ele>
        <time>2016-10-01T13:51:15.000Z</time>
      </trkpt>
      <trkpt lat="47.50927" lon="6.78619">
        <ele>318</ele>
        <time>2016-10-01T13:51:16.000Z</time>
      </trkpt>
      <trkpt lat="47.50925" lon="6.78627">
        <ele>318</ele>
        <time>2016-10-01T13:51:17.000Z</time>
      </trkpt>
      <trkpt lat="47.50923" lon="6.78636">
        <ele>318</ele>
        <time>2016-10-01T13:51:18.000Z</time>
      </trkpt>
      <trkpt lat="47.50922" lon="6.78647">
        <ele>318</ele>
        <time>2016-10-01T13:51:19.000Z</time>
      </trkpt>
      <trkpt lat="47.5092" lon="6.78657">
        <ele>318</ele>
        <time>2016-10-01T13:51:20.000Z</time>
      </trkpt>
      <trkpt lat="47.5092" lon="6.78667">
        <ele>318</ele>
        <time>2016-10-01T13:51:21.000Z</time>
      </trkpt>
      <trkpt lat="47.5092" lon="6.78678">
        <ele>319</ele>
        <time>2016-10-01T13:51:22.000Z</time>
      </trkpt>
      <trkpt lat="47.50917" lon="6.78687">
        <ele>319</ele>
        <time>2016-10-01T13:51:23.000Z</time>
      </trkpt>
      <trkpt lat="47.50915" lon="6.78696">
        <ele>317</ele>
        <time>2016-10-01T13:51:24.000Z</time>
      </trkpt>
      <trkpt lat="47.50916" lon="6.78706">
        <ele>317</ele>
        <time>2016-10-01T13:51:25.000Z</time>
      </trkpt>
      <trkpt lat="47.50917" lon="6.78714">
        <ele>317</ele>
        <time>2016-10-01T13:51:26.000Z</time>
      </trkpt>
      <trkpt lat="47.50914" lon="6.78717">
        <ele>317</ele>
        <time>2016-10-01T13:51:28.001Z</time>
      </trkpt>
      <trkpt lat="47.50914" lon="6.78721">
        <ele>317</ele>
        <time>2016-10-01T13:51:29.000Z</time>
      </trkpt>
      <trkpt lat="47.50911" lon="6.78721">
        <ele>317</ele>
        <time>2016-10-01T13:51:31.000Z</time>
      </trkpt>
      <trkpt lat="47.50909" lon="6.78719">
        <ele>317</ele>
        <time>2016-10-01T13:51:32.000Z</time>
      </trkpt>
      <trkpt lat="47.50899" lon="6.78718">
        <ele>317</ele>
        <time>2016-10-01T13:51:33.000Z</time>
      </trkpt>
      <trkpt lat="47.50892" lon="6.78716">
        <ele>317</ele>
        <time>2016-10-01T13:51:34.000Z</time>
      </trkpt>
      <trkpt lat="47.50889" lon="6.78712">
        <ele>317</ele>
        <time>2016-10-01T13:51:35.000Z</time>
      </trkpt>
      <trkpt lat="47.50886" lon="6.78708">
        <ele>317</ele>
        <time>2016-10-01T13:51:36.000Z</time>
      </trkpt>
      <trkpt lat="47.50878" lon="6.78704">
        <ele>317</ele>
        <time>2016-10-01T13:51:37.000Z</time>
      </trkpt>
      <trkpt lat="47.50873" lon="6.787">
        <ele>316</ele>
        <time>2016-10-01T13:51:38.000Z</time>
      </trkpt>
      <trkpt lat="47.50867" lon="6.78698">
        <ele>316</ele>
        <time>2016-10-01T13:51:39.000Z</time>
      </trkpt>
      <trkpt lat="47.50861" lon="6.78696">
        <ele>316</ele>
        <time>2016-10-01T13:51:40.000Z</time>
      </trkpt>
      <trkpt lat="47.50856" lon="6.78696">
        <ele>316</ele>
        <time>2016-10-01T13:51:41.000Z</time>
      </trkpt>
      <trkpt lat="47.5085" lon="6.78695">
        <ele>316</ele>
        <time>2016-10-01T13:51:42.000Z</time>
      </trkpt>
      <trkpt lat="47.50844" lon="6.78694">
        <ele>316</ele>
        <time>2016-10-01T13:51:43.000Z</time>
      </trkpt>
      <trkpt lat="47.5084" lon="6.78694">
        <ele>316</ele>
        <time>2016-10-01T13:51:44.000Z</time>
      </trkpt>
      <trkpt lat="47.50837" lon="6.78691">
        <ele>316</ele>
        <time>2016-10-01T13:51:45.000Z</time>
      </trkpt>
      <trkpt lat="47.50832" lon="6.78691">
        <ele>315</ele>
        <time>2016-10-01T13:51:46.000Z</time>
      </trkpt>
      <trkpt lat="47.50825" lon="6.7869">
        <ele>316</ele>
        <time>2016-10-01T13:51:47.000Z</time>
      </trkpt>
      <trkpt lat="47.50819" lon="6.78687">
        <ele>316</ele>
        <time>2016-10-01T13:51:48.000Z</time>
      </trkpt>
      <trkpt lat="47.50814" lon="6.78688">
        <ele>316</ele>
        <time>2016-10-01T13:51:49.000Z</time>
      </trkpt>
      <trkpt lat="47.5081" lon="6.78691">
        <ele>316</ele>
        <time>2016-10-01T13:51:50.000Z</time>
      </trkpt>
      <trkpt lat="47.50807" lon="6.78697">
        <ele>316</ele>
        <time>2016-10-01T13:51:51.000Z</time>
      </trkpt>
      <trkpt lat="47.50805" lon="6.78702">
        <ele>316</ele>
        <time>2016-10-01T13:51:52.000Z</time>
      </trkpt>
      <trkpt lat="47.50801" lon="6.78706">
        <ele>316</ele>
        <time>2016-10-01T13:51:53.000Z</time>
      </trkpt>
      <trkpt lat="47.50799" lon="6.7872">
        <ele>316</ele>
        <time>2016-10-01T13:51:54.000Z</time>
      </trkpt>
      <trkpt lat="47.50797" lon="6.7873">
        <ele>316</ele>
        <time>2016-10-01T13:51:55.000Z</time>
      </trkpt>
      <trkpt lat="47.50795" lon="6.78742">
        <ele>316</ele>
        <time>2016-10-01T13:51:56.000Z</time>
      </trkpt>
      <trkpt lat="47.50793" lon="6.78753">
        <ele>315</ele>
        <time>2016-10-01T13:51:57.000Z</time>
      </trkpt>
      <trkpt lat="47.5079" lon="6.78763">
        <ele>315</ele>
        <time>2016-10-01T13:51:58.000Z</time>
      </trkpt>
      <trkpt lat="47.50787" lon="6.78774">
        <ele>315</ele>
        <time>2016-10-01T13:51:59.000Z</time>
      </trkpt>
      <trkpt lat="47.50786" lon="6.78782">
        <ele>315</ele>
        <time>2016-10-01T13:52:00.000Z</time>
      </trkpt>
      <trkpt lat="47.50786" lon="6.7879">
        <ele>315</ele>
        <time>2016-10-01T13:52:01.000Z</time>
      </trkpt>
      <trkpt lat="47.50787" lon="6.78804">
        <ele>315</ele>
        <time>2016-10-01T13:52:02.000Z</time>
      </trkpt>
      <trkpt lat="47.50787" lon="6.78815">
        <ele>315</ele>
        <time>2016-10-01T13:52:02.999Z</time>
      </trkpt>
      <trkpt lat="47.50789" lon="6.78825">
        <ele>315</ele>
        <time>2016-10-01T13:52:04.000Z</time>
      </trkpt>
      <trkpt lat="47.5079" lon="6.78834">
        <ele>315</ele>
        <time>2016-10-01T13:52:05.000Z</time>
      </trkpt>
      <trkpt lat="47.50788" lon="6.78841">
        <ele>315</ele>
        <time>2016-10-01T13:52:06.000Z</time>
      </trkpt>
      <trkpt lat="47.50787" lon="6.78847">
        <ele>315</ele>
        <time>2016-10-01T13:52:07.000Z</time>
      </trkpt>
      <trkpt lat="47.50789" lon="6.78861">
        <ele>315</ele>
        <time>2016-10-01T13:52:08.000Z</time>
      </trkpt>
      <trkpt lat="47.5079" lon="6.78872">
        <ele>315</ele>
        <time>2016-10-01T13:52:09.000Z</time>
      </trkpt>
      <trkpt lat="47.50785" lon="6.78881">
        <ele>316</ele>
        <time>2016-10-01T13:52:10.000Z</time>
      </trkpt>
      <trkpt lat="47.50785" lon="6.78892">
        <ele>316</ele>
        <time>2016-10-01T13:52:11.000Z</time>
      </trkpt>
      <trkpt lat="47.50783" lon="6.78904">
        <ele>316</ele>
        <time>2016-10-01T13:52:12.000Z</time>
      </trkpt>
      <trkpt lat="47.50786" lon="6.78915">
        <ele>316</ele>
        <time>2016-10-01T13:52:13.000Z</time>
      </trkpt>
      <trkpt lat="47.50788" lon="6.78926">
        <ele>316</ele>
        <time>2016-10-01T13:52:14.000Z</time>
      </trkpt>
      <trkpt lat="47.50786" lon="6.78935">
        <ele>316</ele>
        <time>2016-10-01T13:52:15.000Z</time>
      </trkpt>
      <trkpt lat="47.50786" lon="6.78943">
        <ele>316</ele>
        <time>2016-10-01T13:52:16.000Z</time>
      </trkpt>
      <trkpt lat="47.50782" lon="6.78955">
        <ele>316</ele>
        <time>2016-10-01T13:52:17.001Z</time>
      </trkpt>
      <trkpt lat="47.50781" lon="6.78964">
        <ele>316</ele>
        <time>2016-10-01T13:52:18.000Z</time>
      </trkpt>
      <trkpt lat="47.50777" lon="6.78969">
        <ele>316</ele>
        <time>2016-10-01T13:52:19.000Z</time>
      </trkpt>
      <trkpt lat="47.50777" lon="6.78978">
        <ele>316</ele>
        <time>2016-10-01T13:52:20.000Z</time>
      </trkpt>
      <trkpt lat="47.50777" lon="6.78988">
        <ele>316</ele>
        <time>2016-10-01T13:52:21.000Z</time>
      </trkpt>
      <trkpt lat="47.50776" lon="6.78999">
        <ele>316</ele>
        <time>2016-10-01T13:52:22.000Z</time>
      </trkpt>
      <trkpt lat="47.50776" lon="6.79009">
        <ele>315</ele>
        <time>2016-10-01T13:52:22.999Z</time>
      </trkpt>
      <trkpt lat="47.50774" lon="6.7902">
        <ele>315</ele>
        <time>2016-10-01T13:52:24.000Z</time>
      </trkpt>
      <trkpt lat="47.50773" lon="6.7903">
        <ele>315</ele>
        <time>2016-10-01T13:52:25.000Z</time>
      </trkpt>
      <trkpt lat="47.5077" lon="6.79034">
        <ele>315</ele>
        <time>2016-10-01T13:52:26.000Z</time>
      </trkpt>
      <trkpt lat="47.50769" lon="6.79043">
        <ele>315</ele>
        <time>2016-10-01T13:52:27.000Z</time>
      </trkpt>
      <trkpt lat="47.50768" lon="6.79052">
        <ele>315</ele>
        <time>2016-10-01T13:52:28.001Z</time>
      </trkpt>
      <trkpt lat="47.50772" lon="6.79067">
        <ele>314</ele>
        <time>2016-10-01T13:52:29.000Z</time>
      </trkpt>
      <trkpt lat="47.50771" lon="6.79076">
        <ele>314</ele>
        <time>2016-10-01T13:52:30.000Z</time>
      </trkpt>
      <trkpt lat="47.50772" lon="6.79084">
        <ele>314</ele>
        <time>2016-10-01T13:52:31.000Z</time>
      </trkpt>
      <trkpt lat="47.50773" lon="6.79095">
        <ele>314</ele>
        <time>2016-10-01T13:52:32.000Z</time>
      </trkpt>
      <trkpt lat="47.50774" lon="6.79105">
        <ele>314</ele>
        <time>2016-10-01T13:52:33.001Z</time>
      </trkpt>
      <trkpt lat="47.50775" lon="6.7912">
        <ele>314</ele>
        <time>2016-10-01T13:52:34.000Z</time>
      </trkpt>
      <trkpt lat="47.50775" lon="6.7913">
        <ele>314</ele>
        <time>2016-10-01T13:52:35.000Z</time>
      </trkpt>
      <trkpt lat="47.50775" lon="6.79137">
        <ele>314</ele>
        <time>2016-10-01T13:52:36.000Z</time>
      </trkpt>
      <trkpt lat="47.50771" lon="6.7914">
        <ele>314</ele>
        <time>2016-10-01T13:52:37.000Z</time>
      </trkpt>
      <trkpt lat="47.50767" lon="6.79144">
        <ele>314</ele>
        <time>2016-10-01T13:52:38.000Z</time>
      </trkpt>
      <trkpt lat="47.50764" lon="6.79147">
        <ele>314</ele>
        <time>2016-10-01T13:52:39.000Z</time>
      </trkpt>
      <trkpt lat="47.50761" lon="6.79149">
        <ele>314</ele>
        <time>2016-10-01T13:52:40.000Z</time>
      </trkpt>
      <trkpt lat="47.50756" lon="6.79152">
        <ele>314</ele>
        <time>2016-10-01T13:52:41.000Z</time>
      </trkpt>
      <trkpt lat="47.50752" lon="6.79154">
        <ele>314</ele>
        <time>2016-10-01T13:52:42.001Z</time>
      </trkpt>
      <trkpt lat="47.50752" lon="6.79176">
        <ele>313</ele>
        <time>2016-10-01T13:52:43.000Z</time>
      </trkpt>
      <trkpt lat="47.5075" lon="6.79185">
        <ele>313</ele>
        <time>2016-10-01T13:52:44.000Z</time>
      </trkpt>
      <trkpt lat="47.50747" lon="6.79192">
        <ele>313</ele>
        <time>2016-10-01T13:52:45.001Z</time>
      </trkpt>
      <trkpt lat="47.50744" lon="6.792">
        <ele>313</ele>
        <time>2016-10-01T13:52:46.000Z</time>
      </trkpt>
      <trkpt lat="47.50743" lon="6.79211">
        <ele>313</ele>
        <time>2016-10-01T13:52:47.000Z</time>
      </trkpt>
      <trkpt lat="47.50742" lon="6.7922">
        <ele>313</ele>
        <time>2016-10-01T13:52:48.000Z</time>
      </trkpt>
      <trkpt lat="47.50739" lon="6.79228">
        <ele>313</ele>
        <time>2016-10-01T13:52:49.000Z</time>
      </trkpt>
      <trkpt lat="47.50738" lon="6.79236">
        <ele>313</ele>
        <time>2016-10-01T13:52:50.000Z</time>
      </trkpt>
      <trkpt lat="47.50734" lon="6.79242">
        <ele>313</ele>
        <time>2016-10-01T13:52:51.000Z</time>
      </trkpt>
      <trkpt lat="47.50731" lon="6.7925">
        <ele>313</ele>
        <time>2016-10-01T13:52:52.000Z</time>
      </trkpt>
      <trkpt lat="47.50729" lon="6.79259">
        <ele>313</ele>
        <time>2016-10-01T13:52:53.000Z</time>
      </trkpt>
      <trkpt lat="47.50726" lon="6.79268">
        <ele>313</ele>
        <time>2016-10-01T13:52:54.000Z</time>
      </trkpt>
      <trkpt lat="47.50721" lon="6.79269">
        <ele>313</ele>
        <time>2016-10-01T13:52:55.000Z</time>
      </trkpt>
      <trkpt lat="47.50717" lon="6.79272">
        <ele>313</ele>
        <time>2016-10-01T13:52:56.000Z</time>
      </trkpt>
      <trkpt lat="47.50713" lon="6.79276">
        <ele>314</ele>
        <time>2016-10-01T13:52:57.000Z</time>
      </trkpt>
      <trkpt lat="47.50706" lon="6.79277">
        <ele>314</ele>
        <time>2016-10-01T13:52:58.000Z</time>
      </trkpt>
      <trkpt lat="47.50704" lon="6.79279">
        <ele>314</ele>
        <time>2016-10-01T13:52:59.000Z</time>
      </trkpt>
      <trkpt lat="47.507" lon="6.79282">
        <ele>314</ele>
        <time>2016-10-01T13:53:00.000Z</time>
      </trkpt>
      <trkpt lat="47.50697" lon="6.79281">
        <ele>314</ele>
        <time>2016-10-01T13:53:01.000Z</time>
      </trkpt>
      <trkpt lat="47.50694" lon="6.79283">
        <ele>314</ele>
        <time>2016-10-01T13:53:02.000Z</time>
      </trkpt>
      <trkpt lat="47.50694" lon="6.79286">
        <ele>314</ele>
        <time>2016-10-01T13:53:03.000Z</time>
      </trkpt>
      <trkpt lat="47.50693" lon="6.7929">
        <ele>314</ele>
        <time>2016-10-01T13:53:04.000Z</time>
      </trkpt>
      <trkpt lat="47.5069" lon="6.79294">
        <ele>314</ele>
        <time>2016-10-01T13:53:05.000Z</time>
      </trkpt>
      <trkpt lat="47.5069" lon="6.79299">
        <ele>314</ele>
        <time>2016-10-01T13:53:06.000Z</time>
      </trkpt>
      <trkpt lat="47.5069" lon="6.79307">
        <ele>314</ele>
        <time>2016-10-01T13:53:07.000Z</time>
      </trkpt>
      <trkpt lat="47.5069" lon="6.79314">
        <ele>314</ele>
        <time>2016-10-01T13:53:08.000Z</time>
      </trkpt>
      <trkpt lat="47.50691" lon="6.79319">
        <ele>314</ele>
        <time>2016-10-01T13:53:08.998Z</time>
      </trkpt>
      <trkpt lat="47.50689" lon="6.79326">
        <ele>314</ele>
        <time>2016-10-01T13:53:10.000Z</time>
      </trkpt>
      <trkpt lat="47.50688" lon="6.7933">
        <ele>314</ele>
        <time>2016-10-01T13:53:11.000Z</time>
      </trkpt>
      <trkpt lat="47.50685" lon="6.79331">
        <ele>314</ele>
        <time>2016-10-01T13:53:12.000Z</time>
      </trkpt>
      <trkpt lat="47.50682" lon="6.79333">
        <ele>314</ele>
        <time>2016-10-01T13:53:13.000Z</time>
      </trkpt>
      <trkpt lat="47.5068" lon="6.79335">
        <ele>314</ele>
        <time>2016-10-01T13:53:13.998Z</time>
      </trkpt>
      <trkpt lat="47.50671" lon="6.79339">
        <ele>314</ele>
        <time>2016-10-01T13:53:15.000Z</time>
      </trkpt>
      <trkpt lat="47.50666" lon="6.79344">
        <ele>314</ele>
        <time>2016-10-01T13:53:16.000Z</time>
      </trkpt>
      <trkpt lat="47.50662" lon="6.79347">
        <ele>314</ele>
        <time>2016-10-01T13:53:17.000Z</time>
      </trkpt>
      <trkpt lat="47.50657" lon="6.7935">
        <ele>314</ele>
        <time>2016-10-01T13:53:17.999Z</time>
      </trkpt>
      <trkpt lat="47.50652" lon="6.79364">
        <ele>314</ele>
        <time>2016-10-01T13:53:19.000Z</time>
      </trkpt>
      <trkpt lat="47.50648" lon="6.7937">
        <ele>314</ele>
        <time>2016-10-01T13:53:19.999Z</time>
      </trkpt>
      <trkpt lat="47.50634" lon="6.79375">
        <ele>314</ele>
        <time>2016-10-01T13:53:21.000Z</time>
      </trkpt>
      <trkpt lat="47.50629" lon="6.79379">
        <ele>314</ele>
        <time>2016-10-01T13:53:22.001Z</time>
      </trkpt>
      <trkpt lat="47.50625" lon="6.79383">
        <ele>314</ele>
        <time>2016-10-01T13:53:23.000Z</time>
      </trkpt>
      <trkpt lat="47.5062" lon="6.79386">
        <ele>314</ele>
        <time>2016-10-01T13:53:24.000Z</time>
      </trkpt>
      <trkpt lat="47.50615" lon="6.79389">
        <ele>314</ele>
        <time>2016-10-01T13:53:25.000Z</time>
      </trkpt>
      <trkpt lat="47.5061" lon="6.79394">
        <ele>314</ele>
        <time>2016-10-01T13:53:26.000Z</time>
      </trkpt>
      <trkpt lat="47.50605" lon="6.79399">
        <ele>314</ele>
        <time>2016-10-01T13:53:27.000Z</time>
      </trkpt>
      <trkpt lat="47.50601" lon="6.79404">
        <ele>315</ele>
        <time>2016-10-01T13:53:28.000Z</time>
      </trkpt>
      <trkpt lat="47.50597" lon="6.79409">
        <ele>315</ele>
        <time>2016-10-01T13:53:29.000Z</time>
      </trkpt>
      <trkpt lat="47.50593" lon="6.79417">
        <ele>315</ele>
        <time>2016-10-01T13:53:30.000Z</time>
      </trkpt>
      <trkpt lat="47.50587" lon="6.79426">
        <ele>315</ele>
        <time>2016-10-01T13:53:31.000Z</time>
      </trkpt>
      <trkpt lat="47.50581" lon="6.79432">
        <ele>315</ele>
        <time>2016-10-01T13:53:31.999Z</time>
      </trkpt>
      <trkpt lat="47.50575" lon="6.79439">
        <ele>315</ele>
        <time>2016-10-01T13:53:33.000Z</time>
      </trkpt>
      <trkpt lat="47.50571" lon="6.79444">
        <ele>315</ele>
        <time>2016-10-01T13:53:33.999Z</time>
      </trkpt>
      <trkpt lat="47.50566" lon="6.79448">
        <ele>315</ele>
        <time>2016-10-01T13:53:35.000Z</time>
      </trkpt>
      <trkpt lat="47.50563" lon="6.79454">
        <ele>315</ele>
        <time>2016-10-01T13:53:36.000Z</time>
      </trkpt>
      <trkpt lat="47.50559" lon="6.79458">
        <ele>315</ele>
        <time>2016-10-01T13:53:37.000Z</time>
      </trkpt>
      <trkpt lat="47.50555" lon="6.79464">
        <ele>316</ele>
        <time>2016-10-01T13:53:38.000Z</time>
      </trkpt>
      <trkpt lat="47.5055" lon="6.79469">
        <ele>316</ele>
        <time>2016-10-01T13:53:39.000Z</time>
      </trkpt>
      <trkpt lat="47.50545" lon="6.79474">
        <ele>316</ele>
        <time>2016-10-01T13:53:40.000Z</time>
      </trkpt>
      <trkpt lat="47.50542" lon="6.79478">
        <ele>316</ele>
        <time>2016-10-01T13:53:41.000Z</time>
      </trkpt>
      <trkpt lat="47.50537" lon="6.79482">
        <ele>316</ele>
        <time>2016-10-01T13:53:42.000Z</time>
      </trkpt>
      <trkpt lat="47.50531" lon="6.79484">
        <ele>316</ele>
        <time>2016-10-01T13:53:43.000Z</time>
      </trkpt>
      <trkpt lat="47.50525" lon="6.79486">
        <ele>316</ele>
        <time>2016-10-01T13:53:44.000Z</time>
      </trkpt>
      <trkpt lat="47.50519" lon="6.79488">
        <ele>316</ele>
        <time>2016-10-01T13:53:45.000Z</time>
      </trkpt>
      <trkpt lat="47.50515" lon="6.79488">
        <ele>316</ele>
        <time>2016-10-01T13:53:46.000Z</time>
      </trkpt>
      <trkpt lat="47.50511" lon="6.79488">
        <ele>316</ele>
        <time>2016-10-01T13:53:47.000Z</time>
      </trkpt>
      <trkpt lat="47.50506" lon="6.79488">
        <ele>316</ele>
        <time>2016-10-01T13:53:48.000Z</time>
      </trkpt>
      <trkpt lat="47.50501" lon="6.79488">
        <ele>316</ele>
        <time>2016-10-01T13:53:49.000Z</time>
      </trkpt>
      <trkpt lat="47.50496" lon="6.79487">
        <ele>317</ele>
        <time>2016-10-01T13:53:50.000Z</time>
      </trkpt>
      <trkpt lat="47.50491" lon="6.79487">
        <ele>317</ele>
        <time>2016-10-01T13:53:51.000Z</time>
      </trkpt>
      <trkpt lat="47.50487" lon="6.79486">
        <ele>317</ele>
        <time>2016-10-01T13:53:52.000Z</time>
      </trkpt>
      <trkpt lat="47.50482" lon="6.79486">
        <ele>317</ele>
        <time>2016-10-01T13:53:53.000Z</time>
      </trkpt>
      <trkpt lat="47.50478" lon="6.79486">
        <ele>317</ele>
        <time>2016-10-01T13:53:53.999Z</time>
      </trkpt>
      <trkpt lat="47.50473" lon="6.79486">
        <ele>317</ele>
        <time>2016-10-01T13:53:55.000Z</time>
      </trkpt>
      <trkpt lat="47.50468" lon="6.79485">
        <ele>317</ele>
        <time>2016-10-01T13:53:56.000Z</time>
      </trkpt>
      <trkpt lat="47.50463" lon="6.79484">
        <ele>317</ele>
        <time>2016-10-01T13:53:57.000Z</time>
      </trkpt>
      <trkpt lat="47.50458" lon="6.79485">
        <ele>318</ele>
        <time>2016-10-01T13:53:58.000Z</time>
      </trkpt>
      <trkpt lat="47.50453" lon="6.79484">
        <ele>318</ele>
        <time>2016-10-01T13:53:59.000Z</time>
      </trkpt>
      <trkpt lat="47.50447" lon="6.79484">
        <ele>318</ele>
        <time>2016-10-01T13:54:00.000Z</time>
      </trkpt>
      <trkpt lat="47.50442" lon="6.79484">
        <ele>318</ele>
        <time>2016-10-01T13:54:00.999Z</time>
      </trkpt>
      <trkpt lat="47.50438" lon="6.79485">
        <ele>318</ele>
        <time>2016-10-01T13:54:02.000Z</time>
      </trkpt>
      <trkpt lat="47.50433" lon="6.79482">
        <ele>319</ele>
        <time>2016-10-01T13:54:03.000Z</time>
      </trkpt>
      <trkpt lat="47.50428" lon="6.79482">
        <ele>319</ele>
        <time>2016-10-01T13:54:04.000Z</time>
      </trkpt>
      <trkpt lat="47.50423" lon="6.79482">
        <ele>319</ele>
        <time>2016-10-01T13:54:05.000Z</time>
      </trkpt>
      <trkpt lat="47.50419" lon="6.79479">
        <ele>319</ele>
        <time>2016-10-01T13:54:06.001Z</time>
      </trkpt>
      <trkpt lat="47.50416" lon="6.79476">
        <ele>325</ele>
        <time>2016-10-01T13:54:07.000Z</time>
      </trkpt>
      <trkpt lat="47.50412" lon="6.79473">
        <ele>325</ele>
        <time>2016-10-01T13:54:08.000Z</time>
      </trkpt>
      <trkpt lat="47.50408" lon="6.79469">
        <ele>325</ele>
        <time>2016-10-01T13:54:09.000Z</time>
      </trkpt>
      <trkpt lat="47.50403" lon="6.79466">
        <ele>326</ele>
        <time>2016-10-01T13:54:09.999Z</time>
      </trkpt>
      <trkpt lat="47.504" lon="6.79464">
        <ele>326</ele>
        <time>2016-10-01T13:54:11.000Z</time>
      </trkpt>
      <trkpt lat="47.50396" lon="6.7946">
        <ele>326</ele>
        <time>2016-10-01T13:54:12.000Z</time>
      </trkpt>
      <trkpt lat="47.50394" lon="6.79458">
        <ele>326</ele>
        <time>2016-10-01T13:54:13.000Z</time>
      </trkpt>
      <trkpt lat="47.5039" lon="6.79453">
        <ele>326</ele>
        <time>2016-10-01T13:54:14.000Z</time>
      </trkpt>
      <trkpt lat="47.50387" lon="6.7945">
        <ele>327</ele>
        <time>2016-10-01T13:54:15.000Z</time>
      </trkpt>
      <trkpt lat="47.50386" lon="6.79445">
        <ele>327</ele>
        <time>2016-10-01T13:54:16.000Z</time>
      </trkpt>
      <trkpt lat="47.50384" lon="6.79439">
        <ele>327</ele>
        <time>2016-10-01T13:54:17.000Z</time>
      </trkpt>
      <trkpt lat="47.50382" lon="6.79434">
        <ele>327</ele>
        <time>2016-10-01T13:54:18.000Z</time>
      </trkpt>
      <trkpt lat="47.5038" lon="6.79429">
        <ele>327</ele>
        <time>2016-10-01T13:54:18.999Z</time>
      </trkpt>
      <trkpt lat="47.5038" lon="6.79424">
        <ele>327</ele>
        <time>2016-10-01T13:54:20.000Z</time>
      </trkpt>
      <trkpt lat="47.50378" lon="6.79419">
        <ele>327</ele>
        <time>2016-10-01T13:54:21.000Z</time>
      </trkpt>
      <trkpt lat="47.50376" lon="6.79413">
        <ele>324</ele>
        <time>2016-10-01T13:54:21.999Z</time>
      </trkpt>
      <trkpt lat="47.50376" lon="6.79408">
        <ele>324</ele>
        <time>2016-10-01T13:54:23.000Z</time>
      </trkpt>
      <trkpt lat="47.50375" lon="6.79404">
        <ele>324</ele>
        <time>2016-10-01T13:54:24.000Z</time>
      </trkpt>
      <trkpt lat="47.50374" lon="6.79398">
        <ele>324</ele>
        <time>2016-10-01T13:54:24.999Z</time>
      </trkpt>
      <trkpt lat="47.50373" lon="6.79394">
        <ele>325</ele>
        <time>2016-10-01T13:54:26.000Z</time>
      </trkpt>
      <trkpt lat="47.50371" lon="6.79389">
        <ele>325</ele>
        <time>2016-10-01T13:54:27.000Z</time>
      </trkpt>
      <trkpt lat="47.5037" lon="6.79383">
        <ele>325</ele>
        <time>2016-10-01T13:54:28.000Z</time>
      </trkpt>
      <trkpt lat="47.50369" lon="6.79379">
        <ele>325</ele>
        <time>2016-10-01T13:54:29.000Z</time>
      </trkpt>
      <trkpt lat="47.50367" lon="6.79374">
        <ele>324</ele>
        <time>2016-10-01T13:54:30.001Z</time>
      </trkpt>
      <trkpt lat="47.50365" lon="6.79369">
        <ele>325</ele>
        <time>2016-10-01T13:54:31.000Z</time>
      </trkpt>
      <trkpt lat="47.50363" lon="6.79364">
        <ele>325</ele>
        <time>2016-10-01T13:54:32.000Z</time>
      </trkpt>
      <trkpt lat="47.50362" lon="6.79359">
        <ele>325</ele>
        <time>2016-10-01T13:54:33.000Z</time>
      </trkpt>
      <trkpt lat="47.5036" lon="6.79356">
        <ele>325</ele>
        <time>2016-10-01T13:54:34.000Z</time>
      </trkpt>
      <trkpt lat="47.50359" lon="6.79352">
        <ele>325</ele>
        <time>2016-10-01T13:54:35.000Z</time>
      </trkpt>
      <trkpt lat="47.50358" lon="6.79347">
        <ele>325</ele>
        <time>2016-10-01T13:54:37.000Z</time>
      </trkpt>
      <trkpt lat="47.50357" lon="6.79343">
        <ele>325</ele>
        <time>2016-10-01T13:54:38.000Z</time>
      </trkpt>
      <trkpt lat="47.50356" lon="6.79338">
        <ele>325</ele>
        <time>2016-10-01T13:54:40.000Z</time>
      </trkpt>
      <trkpt lat="47.50355" lon="6.79335">
        <ele>326</ele>
        <time>2016-10-01T13:54:41.000Z</time>
      </trkpt>
      <trkpt lat="47.50354" lon="6.79328">
        <ele>324</ele>
        <time>2016-10-01T13:54:43.000Z</time>
      </trkpt>
      <trkpt lat="47.50354" lon="6.79325">
        <ele>324</ele>
        <time>2016-10-01T13:54:44.000Z</time>
      </trkpt>
      <trkpt lat="47.50353" lon="6.79322">
        <ele>324</ele>
        <time>2016-10-01T13:54:45.000Z</time>
      </trkpt>
      <trkpt lat="47.50352" lon="6.79319">
        <ele>324</ele>
        <time>2016-10-01T13:54:46.000Z</time>
      </trkpt>
      <trkpt lat="47.5035" lon="6.79316">
        <ele>324</ele>
        <time>2016-10-01T13:54:47.000Z</time>
      </trkpt>
      <trkpt lat="47.50349" lon="6.79312">
        <ele>324</ele>
        <time>2016-10-01T13:54:48.000Z</time>
      </trkpt>
      <trkpt lat="47.50348" lon="6.79308">
        <ele>324</ele>
        <time>2016-10-01T13:54:49.000Z</time>
      </trkpt>
      <trkpt lat="47.50346" lon="6.79304">
        <ele>324</ele>
        <time>2016-10-01T13:54:50.000Z</time>
      </trkpt>
      <trkpt lat="47.50344" lon="6.79299">
        <ele>324</ele>
        <time>2016-10-01T13:54:51.000Z</time>
      </trkpt>
      <trkpt lat="47.50342" lon="6.79293">
        <ele>324</ele>
        <time>2016-10-01T13:54:52.000Z</time>
      </trkpt>
      <trkpt lat="47.50341" lon="6.79287">
        <ele>324</ele>
        <time>2016-10-01T13:54:53.000Z</time>
      </trkpt>
      <trkpt lat="47.5034" lon="6.79281">
        <ele>324</ele>
        <time>2016-10-01T13:54:54.000Z</time>
      </trkpt>
      <trkpt lat="47.50339" lon="6.79274">
        <ele>324</ele>
        <time>2016-10-01T13:54:55.000Z</time>
      </trkpt>
      <trkpt lat="47.50339" lon="6.79267">
        <ele>325</ele>
        <time>2016-10-01T13:54:56.000Z</time>
      </trkpt>
      <trkpt lat="47.50339" lon="6.79261">
        <ele>325</ele>
        <time>2016-10-01T13:54:57.000Z</time>
      </trkpt>
      <trkpt lat="47.50337" lon="6.79257">
        <ele>326</ele>
        <time>2016-10-01T13:54:58.000Z</time>
      </trkpt>
      <trkpt lat="47.50335" lon="6.79252">
        <ele>327</ele>
        <time>2016-10-01T13:54:59.000Z</time>
      </trkpt>
      <trkpt lat="47.50332" lon="6.79248">
        <ele>329</ele>
        <time>2016-10-01T13:55:00.000Z</time>
      </trkpt>
      <trkpt lat="47.50329" lon="6.79245">
        <ele>330</ele>
        <time>2016-10-01T13:55:01.000Z</time>
      </trkpt>
      <trkpt lat="47.50325" lon="6.79241">
        <ele>331</ele>
        <time>2016-10-01T13:55:02.000Z</time>
      </trkpt>
      <trkpt lat="47.50321" lon="6.79238">
        <ele>331</ele>
        <time>2016-10-01T13:55:03.000Z</time>
      </trkpt>
      <trkpt lat="47.50318" lon="6.79235">
        <ele>332</ele>
        <time>2016-10-01T13:55:04.000Z</time>
      </trkpt>
      <trkpt lat="47.50315" lon="6.79231">
        <ele>332</ele>
        <time>2016-10-01T13:55:05.000Z</time>
      </trkpt>
      <trkpt lat="47.50313" lon="6.79228">
        <ele>333</ele>
        <time>2016-10-01T13:55:06.000Z</time>
      </trkpt>
      <trkpt lat="47.50311" lon="6.79224">
        <ele>333</ele>
        <time>2016-10-01T13:55:07.000Z</time>
      </trkpt>
      <trkpt lat="47.50308" lon="6.79219">
        <ele>333</ele>
        <time>2016-10-01T13:55:08.000Z</time>
      </trkpt>
      <trkpt lat="47.50305" lon="6.79215">
        <ele>333</ele>
        <time>2016-10-01T13:55:09.000Z</time>
      </trkpt>
      <trkpt lat="47.50303" lon="6.79209">
        <ele>334</ele>
        <time>2016-10-01T13:55:10.000Z</time>
      </trkpt>
      <trkpt lat="47.503" lon="6.79203">
        <ele>334</ele>
        <time>2016-10-01T13:55:11.000Z</time>
      </trkpt>
      <trkpt lat="47.50296" lon="6.79197">
        <ele>334</ele>
        <time>2016-10-01T13:55:12.000Z</time>
      </trkpt>
      <trkpt lat="47.50292" lon="6.79191">
        <ele>334</ele>
        <time>2016-10-01T13:55:13.000Z</time>
      </trkpt>
      <trkpt lat="47.50288" lon="6.79186">
        <ele>335</ele>
        <time>2016-10-01T13:55:14.000Z</time>
      </trkpt>
      <trkpt lat="47.50283" lon="6.79181">
        <ele>335</ele>
        <time>2016-10-01T13:55:15.000Z</time>
      </trkpt>
      <trkpt lat="47.50278" lon="6.79176">
        <ele>336</ele>
        <time>2016-10-01T13:55:16.000Z</time>
      </trkpt>
      <trkpt lat="47.50274" lon="6.79172">
        <ele>337</ele>
        <time>2016-10-01T13:55:17.000Z</time>
      </trkpt>
      <trkpt lat="47.50269" lon="6.79168">
        <ele>337</ele>
        <time>2016-10-01T13:55:18.000Z</time>
      </trkpt>
      <trkpt lat="47.50265" lon="6.79165">
        <ele>337</ele>
        <time>2016-10-01T13:55:19.000Z</time>
      </trkpt>
      <trkpt lat="47.50261" lon="6.79161">
        <ele>338</ele>
        <time>2016-10-01T13:55:20.000Z</time>
      </trkpt>
      <trkpt lat="47.50256" lon="6.79158">
        <ele>338</ele>
        <time>2016-10-01T13:55:21.000Z</time>
      </trkpt>
      <trkpt lat="47.50252" lon="6.79155">
        <ele>338</ele>
        <time>2016-10-01T13:55:22.000Z</time>
      </trkpt>
      <trkpt lat="47.50248" lon="6.79152">
        <ele>341</ele>
        <time>2016-10-01T13:55:23.000Z</time>
      </trkpt>
      <trkpt lat="47.50244" lon="6.79149">
        <ele>341</ele>
        <time>2016-10-01T13:55:24.000Z</time>
      </trkpt>
      <trkpt lat="47.50241" lon="6.79146">
        <ele>341</ele>
        <time>2016-10-01T13:55:25.000Z</time>
      </trkpt>
      <trkpt lat="47.50238" lon="6.79143">
        <ele>341</ele>
        <time>2016-10-01T13:55:26.000Z</time>
      </trkpt>
      <trkpt lat="47.50235" lon="6.79141">
        <ele>341</ele>
        <time>2016-10-01T13:55:27.000Z</time>
      </trkpt>
      <trkpt lat="47.50231" lon="6.79138">
        <ele>341</ele>
        <time>2016-10-01T13:55:28.000Z</time>
      </trkpt>
      <trkpt lat="47.50228" lon="6.79135">
        <ele>341</ele>
        <time>2016-10-01T13:55:29.000Z</time>
      </trkpt>
      <trkpt lat="47.50225" lon="6.79132">
        <ele>341</ele>
        <time>2016-10-01T13:55:30.000Z</time>
      </trkpt>
      <trkpt lat="47.50223" lon="6.7913">
        <ele>341</ele>
        <time>2016-10-01T13:55:31.000Z</time>
      </trkpt>
      <trkpt lat="47.5022" lon="6.79128">
        <ele>341</ele>
        <time>2016-10-01T13:55:32.000Z</time>
      </trkpt>
      <trkpt lat="47.50217" lon="6.79127">
        <ele>341</ele>
        <time>2016-10-01T13:55:33.000Z</time>
      </trkpt>
      <trkpt lat="47.50213" lon="6.79125">
        <ele>341</ele>
        <time>2016-10-01T13:55:34.000Z</time>
      </trkpt>
      <trkpt lat="47.50208" lon="6.79122">
        <ele>341</ele>
        <time>2016-10-01T13:55:35.000Z</time>
      </trkpt>
      <trkpt lat="47.50203" lon="6.7912">
        <ele>341</ele>
        <time>2016-10-01T13:55:36.000Z</time>
      </trkpt>
      <trkpt lat="47.50198" lon="6.79117">
        <ele>341</ele>
        <time>2016-10-01T13:55:37.000Z</time>
      </trkpt>
      <trkpt lat="47.50194" lon="6.79115">
        <ele>341</ele>
        <time>2016-10-01T13:55:38.000Z</time>
      </trkpt>
      <trkpt lat="47.50189" lon="6.79113">
        <ele>341</ele>
        <time>2016-10-01T13:55:39.000Z</time>
      </trkpt>
      <trkpt lat="47.50185" lon="6.7911">
        <ele>342</ele>
        <time>2016-10-01T13:55:40.000Z</time>
      </trkpt>
      <trkpt lat="47.50181" lon="6.79108">
        <ele>342</ele>
        <time>2016-10-01T13:55:41.000Z</time>
      </trkpt>
      <trkpt lat="47.50177" lon="6.79104">
        <ele>342</ele>
        <time>2016-10-01T13:55:42.000Z</time>
      </trkpt>
      <trkpt lat="47.50174" lon="6.79099">
        <ele>342</ele>
        <time>2016-10-01T13:55:43.000Z</time>
      </trkpt>
      <trkpt lat="47.50173" lon="6.79093">
        <ele>342</ele>
        <time>2016-10-01T13:55:44.000Z</time>
      </trkpt>
      <trkpt lat="47.50172" lon="6.79086">
        <ele>342</ele>
        <time>2016-10-01T13:55:45.000Z</time>
      </trkpt>
      <trkpt lat="47.50172" lon="6.79079">
        <ele>341</ele>
        <time>2016-10-01T13:55:46.000Z</time>
      </trkpt>
      <trkpt lat="47.50172" lon="6.79073">
        <ele>341</ele>
        <time>2016-10-01T13:55:47.000Z</time>
      </trkpt>
      <trkpt lat="47.50173" lon="6.79068">
        <ele>341</ele>
        <time>2016-10-01T13:55:48.000Z</time>
      </trkpt>
      <trkpt lat="47.50173" lon="6.79065">
        <ele>341</ele>
        <time>2016-10-01T13:55:49.000Z</time>
      </trkpt>
      <trkpt lat="47.50172" lon="6.7906">
        <ele>341</ele>
        <time>2016-10-01T13:55:51.000Z</time>
      </trkpt>
      <trkpt lat="47.5017" lon="6.79059">
        <ele>341</ele>
        <time>2016-10-01T13:55:52.000Z</time>
      </trkpt>
      <trkpt lat="47.50167" lon="6.79058">
        <ele>341</ele>
        <time>2016-10-01T13:55:53.000Z</time>
      </trkpt>
      <trkpt lat="47.50166" lon="6.79052">
        <ele>342</ele>
        <time>2016-10-01T13:55:54.000Z</time>
      </trkpt>
      <trkpt lat="47.50171" lon="6.79021">
        <ele>340</ele>
        <time>2016-10-01T13:55:55.000Z</time>
      </trkpt>
      <trkpt lat="47.50169" lon="6.78999">
        <ele>341</ele>
        <time>2016-10-01T13:55:56.000Z</time>
      </trkpt>
      <trkpt lat="47.5017" lon="6.78991">
        <ele>341</ele>
        <time>2016-10-01T13:55:57.000Z</time>
      </trkpt>
      <trkpt lat="47.5017" lon="6.78981">
        <ele>340</ele>
        <time>2016-10-01T13:55:58.000Z</time>
      </trkpt>
      <trkpt lat="47.50168" lon="6.78973">
        <ele>340</ele>
        <time>2016-10-01T13:55:59.000Z</time>
      </trkpt>
      <trkpt lat="47.50167" lon="6.78964">
        <ele>340</ele>
        <time>2016-10-01T13:56:00.000Z</time>
      </trkpt>
      <trkpt lat="47.50166" lon="6.78954">
        <ele>341</ele>
        <time>2016-10-01T13:56:01.000Z</time>
      </trkpt>
      <trkpt lat="47.50166" lon="6.78944">
        <ele>341</ele>
        <time>2016-10-01T13:56:02.000Z</time>
      </trkpt>
      <trkpt lat="47.50166" lon="6.78934">
        <ele>341</ele>
        <time>2016-10-01T13:56:03.000Z</time>
      </trkpt>
      <trkpt lat="47.50168" lon="6.78924">
        <ele>341</ele>
        <time>2016-10-01T13:56:04.000Z</time>
      </trkpt>
      <trkpt lat="47.50165" lon="6.78916">
        <ele>341</ele>
        <time>2016-10-01T13:56:05.000Z</time>
      </trkpt>
      <trkpt lat="47.50163" lon="6.78908">
        <ele>341</ele>
        <time>2016-10-01T13:56:06.000Z</time>
      </trkpt>
      <trkpt lat="47.50158" lon="6.789">
        <ele>341</ele>
        <time>2016-10-01T13:56:07.000Z</time>
      </trkpt>
      <trkpt lat="47.50155" lon="6.78893">
        <ele>342</ele>
        <time>2016-10-01T13:56:08.000Z</time>
      </trkpt>
      <trkpt lat="47.50146" lon="6.78893">
        <ele>342</ele>
        <time>2016-10-01T13:56:09.000Z</time>
      </trkpt>
      <trkpt lat="47.50142" lon="6.7889">
        <ele>342</ele>
        <time>2016-10-01T13:56:10.000Z</time>
      </trkpt>
      <trkpt lat="47.50137" lon="6.78888">
        <ele>342</ele>
        <time>2016-10-01T13:56:11.000Z</time>
      </trkpt>
      <trkpt lat="47.50132" lon="6.78886">
        <ele>342</ele>
        <time>2016-10-01T13:56:12.000Z</time>
      </trkpt>
      <trkpt lat="47.50125" lon="6.78885">
        <ele>342</ele>
        <time>2016-10-01T13:56:13.000Z</time>
      </trkpt>
      <trkpt lat="47.50119" lon="6.78884">
        <ele>342</ele>
        <time>2016-10-01T13:56:14.000Z</time>
      </trkpt>
      <trkpt lat="47.50113" lon="6.78881">
        <ele>342</ele>
        <time>2016-10-01T13:56:15.001Z</time>
      </trkpt>
      <trkpt lat="47.50107" lon="6.7888">
        <ele>342</ele>
        <time>2016-10-01T13:56:16.000Z</time>
      </trkpt>
      <trkpt lat="47.50101" lon="6.78881">
        <ele>342</ele>
        <time>2016-10-01T13:56:17.000Z</time>
      </trkpt>
      <trkpt lat="47.50093" lon="6.78881">
        <ele>342</ele>
        <time>2016-10-01T13:56:18.000Z</time>
      </trkpt>
      <trkpt lat="47.50084" lon="6.78881">
        <ele>342</ele>
        <time>2016-10-01T13:56:19.000Z</time>
      </trkpt>
      <trkpt lat="47.50075" lon="6.78881">
        <ele>341</ele>
        <time>2016-10-01T13:56:20.000Z</time>
      </trkpt>
      <trkpt lat="47.50068" lon="6.78881">
        <ele>341</ele>
        <time>2016-10-01T13:56:21.000Z</time>
      </trkpt>
      <trkpt lat="47.5006" lon="6.78881">
        <ele>341</ele>
        <time>2016-10-01T13:56:22.000Z</time>
      </trkpt>
      <trkpt lat="47.50053" lon="6.78882">
        <ele>341</ele>
        <time>2016-10-01T13:56:23.000Z</time>
      </trkpt>
      <trkpt lat="47.50047" lon="6.78883">
        <ele>341</ele>
        <time>2016-10-01T13:56:24.000Z</time>
      </trkpt>
      <trkpt lat="47.5004" lon="6.78885">
        <ele>341</ele>
        <time>2016-10-01T13:56:25.000Z</time>
      </trkpt>
      <trkpt lat="47.50034" lon="6.78887">
        <ele>341</ele>
        <time>2016-10-01T13:56:26.000Z</time>
      </trkpt>
      <trkpt lat="47.50027" lon="6.7889">
        <ele>341</ele>
        <time>2016-10-01T13:56:27.000Z</time>
      </trkpt>
      <trkpt lat="47.50021" lon="6.78892">
        <ele>341</ele>
        <time>2016-10-01T13:56:28.000Z</time>
      </trkpt>
      <trkpt lat="47.50015" lon="6.78894">
        <ele>341</ele>
        <time>2016-10-01T13:56:29.000Z</time>
      </trkpt>
      <trkpt lat="47.50008" lon="6.78894">
        <ele>341</ele>
        <time>2016-10-01T13:56:30.000Z</time>
      </trkpt>
      <trkpt lat="47.50001" lon="6.78894">
        <ele>341</ele>
        <time>2016-10-01T13:56:31.000Z</time>
      </trkpt>
      <trkpt lat="47.49996" lon="6.78894">
        <ele>340</ele>
        <time>2016-10-01T13:56:32.000Z</time>
      </trkpt>
      <trkpt lat="47.4999" lon="6.78896">
        <ele>340</ele>
        <time>2016-10-01T13:56:33.000Z</time>
      </trkpt>
      <trkpt lat="47.49986" lon="6.78898">
        <ele>340</ele>
        <time>2016-10-01T13:56:34.000Z</time>
      </trkpt>
      <trkpt lat="47.4998" lon="6.78898">
        <ele>341</ele>
        <time>2016-10-01T13:56:35.000Z</time>
      </trkpt>
      <trkpt lat="47.49974" lon="6.789">
        <ele>341</ele>
        <time>2016-10-01T13:56:36.000Z</time>
      </trkpt>
      <trkpt lat="47.49969" lon="6.78901">
        <ele>341</ele>
        <time>2016-10-01T13:56:37.000Z</time>
      </trkpt>
      <trkpt lat="47.49965" lon="6.78903">
        <ele>341</ele>
        <time>2016-10-01T13:56:38.000Z</time>
      </trkpt>
      <trkpt lat="47.49961" lon="6.78903">
        <ele>341</ele>
        <time>2016-10-01T13:56:39.000Z</time>
      </trkpt>
      <trkpt lat="47.49957" lon="6.78902">
        <ele>341</ele>
        <time>2016-10-01T13:56:40.000Z</time>
      </trkpt>
      <trkpt lat="47.49954" lon="6.78903">
        <ele>341</ele>
        <time>2016-10-01T13:56:41.000Z</time>
      </trkpt>
      <trkpt lat="47.49949" lon="6.78905">
        <ele>341</ele>
        <time>2016-10-01T13:56:42.000Z</time>
      </trkpt>
      <trkpt lat="47.49945" lon="6.78907">
        <ele>341</ele>
        <time>2016-10-01T13:56:43.000Z</time>
      </trkpt>
      <trkpt lat="47.49942" lon="6.78908">
        <ele>341</ele>
        <time>2016-10-01T13:56:44.000Z</time>
      </trkpt>
      <trkpt lat="47.49939" lon="6.78909">
        <ele>341</ele>
        <time>2016-10-01T13:56:45.000Z</time>
      </trkpt>
      <trkpt lat="47.49935" lon="6.7891">
        <ele>341</ele>
        <time>2016-10-01T13:56:46.000Z</time>
      </trkpt>
      <trkpt lat="47.49932" lon="6.78911">
        <ele>341</ele>
        <time>2016-10-01T13:56:47.000Z</time>
      </trkpt>
      <trkpt lat="47.49929" lon="6.78912">
        <ele>341</ele>
        <time>2016-10-01T13:56:48.000Z</time>
      </trkpt>
      <trkpt lat="47.49926" lon="6.78913">
        <ele>342</ele>
        <time>2016-10-01T13:56:49.001Z</time>
      </trkpt>
      <trkpt lat="47.49925" lon="6.78918">
        <ele>342</ele>
        <time>2016-10-01T13:56:50.000Z</time>
      </trkpt>
      <trkpt lat="47.49923" lon="6.78921">
        <ele>342</ele>
        <time>2016-10-01T13:56:51.000Z</time>
      </trkpt>
      <trkpt lat="47.4992" lon="6.78925">
        <ele>342</ele>
        <time>2016-10-01T13:56:52.000Z</time>
      </trkpt>
      <trkpt lat="47.49919" lon="6.78933">
        <ele>342</ele>
        <time>2016-10-01T13:56:53.000Z</time>
      </trkpt>
      <trkpt lat="47.49916" lon="6.78939">
        <ele>344</ele>
        <time>2016-10-01T13:56:54.000Z</time>
      </trkpt>
      <trkpt lat="47.49913" lon="6.78945">
        <ele>344</ele>
        <time>2016-10-01T13:56:55.000Z</time>
      </trkpt>
      <trkpt lat="47.49908" lon="6.78949">
        <ele>344</ele>
        <time>2016-10-01T13:56:56.000Z</time>
      </trkpt>
      <trkpt lat="47.49904" lon="6.78954">
        <ele>345</ele>
        <time>2016-10-01T13:56:57.000Z</time>
      </trkpt>
      <trkpt lat="47.49899" lon="6.78959">
        <ele>345</ele>
        <time>2016-10-01T13:56:58.000Z</time>
      </trkpt>
      <trkpt lat="47.49895" lon="6.78962">
        <ele>345</ele>
        <time>2016-10-01T13:56:59.000Z</time>
      </trkpt>
      <trkpt lat="47.4989" lon="6.78966">
        <ele>345</ele>
        <time>2016-10-01T13:57:00.000Z</time>
      </trkpt>
      <trkpt lat="47.49885" lon="6.78969">
        <ele>345</ele>
        <time>2016-10-01T13:57:00.999Z</time>
      </trkpt>
      <trkpt lat="47.4988" lon="6.78974">
        <ele>345</ele>
        <time>2016-10-01T13:57:02.000Z</time>
      </trkpt>
      <trkpt lat="47.49876" lon="6.78978">
        <ele>345</ele>
        <time>2016-10-01T13:57:03.000Z</time>
      </trkpt>
      <trkpt lat="47.49871" lon="6.78983">
        <ele>346</ele>
        <time>2016-10-01T13:57:04.000Z</time>
      </trkpt>
      <trkpt lat="47.49867" lon="6.78986">
        <ele>346</ele>
        <time>2016-10-01T13:57:05.001Z</time>
      </trkpt>
      <trkpt lat="47.49862" lon="6.78989">
        <ele>346</ele>
        <time>2016-10-01T13:57:06.000Z</time>
      </trkpt>
      <trkpt lat="47.49857" lon="6.78991">
        <ele>346</ele>
        <time>2016-10-01T13:57:07.000Z</time>
      </trkpt>
      <trkpt lat="47.49853" lon="6.78997">
        <ele>346</ele>
        <time>2016-10-01T13:57:08.000Z</time>
      </trkpt>
      <trkpt lat="47.49848" lon="6.79">
        <ele>346</ele>
        <time>2016-10-01T13:57:09.000Z</time>
      </trkpt>
      <trkpt lat="47.49844" lon="6.79004">
        <ele>347</ele>
        <time>2016-10-01T13:57:10.000Z</time>
      </trkpt>
      <trkpt lat="47.4984" lon="6.79005">
        <ele>347</ele>
        <time>2016-10-01T13:57:11.000Z</time>
      </trkpt>
      <trkpt lat="47.49837" lon="6.79005">
        <ele>347</ele>
        <time>2016-10-01T13:57:12.000Z</time>
      </trkpt>
      <trkpt lat="47.49833" lon="6.79003">
        <ele>347</ele>
        <time>2016-10-01T13:57:18.000Z</time>
      </trkpt>
      <trkpt lat="47.49832" lon="6.79002">
        <ele>347</ele>
        <time>2016-10-01T13:57:19.000Z</time>
      </trkpt>
      <trkpt lat="47.49828" lon="6.78998">
        <ele>347</ele>
        <time>2016-10-01T13:57:27.000Z</time>
      </trkpt>
      <trkpt lat="47.49829" lon="6.78997">
        <ele>347</ele>
        <time>2016-10-01T13:57:28.000Z</time>
      </trkpt>
      <trkpt lat="47.49829" lon="6.78991">
        <ele>348</ele>
        <time>2016-10-01T13:57:36.000Z</time>
      </trkpt>
      <trkpt lat="47.49829" lon="6.7899">
        <ele>348</ele>
        <time>2016-10-01T13:57:37.000Z</time>
      </trkpt>
      <trkpt lat="47.49829" lon="6.78985">
        <ele>348</ele>
        <time>2016-10-01T13:58:11.000Z</time>
      </trkpt>
      <trkpt lat="47.49829" lon="6.78984">
        <ele>348</ele>
        <time>2016-10-01T13:58:12.000Z</time>
      </trkpt>
      <trkpt lat="47.49824" lon="6.78984">
        <ele>348</ele>
        <time>2016-10-01T13:58:30.000Z</time>
      </trkpt>
      <trkpt lat="47.49824" lon="6.78984">
        <ele>348</ele>
        <time>2016-10-01T13:58:31.000Z</time>
      </trkpt>
      <trkpt lat="47.49822" lon="6.7899">
        <ele>348</ele>
        <time>2016-10-01T13:59:55.000Z</time>
      </trkpt>
      <trkpt lat="47.49821" lon="6.78991">
        <ele>348</ele>
        <time>2016-10-01T13:59:56.000Z</time>
      </trkpt>
      <trkpt lat="47.49824" lon="6.78986">
        <ele>348</ele>
        <time>2016-10-01T14:01:12.000Z</time>
      </trkpt>
      <trkpt lat="47.49824" lon="6.78985">
        <ele>348</ele>
        <time>2016-10-01T14:01:13.000Z</time>
      </trkpt>
      <trkpt lat="47.49826" lon="6.7899">
        <ele>348</ele>
        <time>2016-10-01T14:04:44.000Z</time>
      </trkpt>
      <trkpt lat="47.49826" lon="6.78992">
        <ele>348</ele>
        <time>2016-10-01T14:04:45.000Z</time>
      </trkpt>
      <trkpt lat="47.49825" lon="6.78995">
        <ele>348</ele>
        <time>2016-10-01T14:04:46.000Z</time>
      </trkpt>
      <trkpt lat="47.49822" lon="6.78998">
        <ele>348</ele>
        <time>2016-10-01T14:04:47.000Z</time>
      </trkpt>
      <trkpt lat="47.49818" lon="6.78999">
        <ele>348</ele>
        <time>2016-10-01T14:04:49.000Z</time>
      </trkpt>
      <trkpt lat="47.49817" lon="6.78996">
        <ele>348</ele>
        <time>2016-10-01T14:04:50.000Z</time>
      </trkpt>
      <trkpt lat="47.49817" lon="6.7899">
        <ele>348</ele>
        <time>2016-10-01T14:05:23.000Z</time>
      </trkpt>
      <trkpt lat="47.49816" lon="6.7899">
        <ele>348</ele>
        <time>2016-10-01T14:05:24.000Z</time>
      </trkpt>
      <trkpt lat="47.49817" lon="6.78995">
        <ele>348</ele>
        <time>2016-10-01T14:16:58.000Z</time>
      </trkpt>
      <trkpt lat="47.49819" lon="6.78995">
        <ele>348</ele>
        <time>2016-10-01T14:16:59.000Z</time>
      </trkpt>
      <trkpt lat="47.49822" lon="6.78997">
        <ele>348</ele>
        <time>2016-10-01T14:17:01.000Z</time>
      </trkpt>
      <trkpt lat="47.49823" lon="6.78999">
        <ele>348</ele>
        <time>2016-10-01T14:17:02.000Z</time>
      </trkpt>
      <trkpt lat="47.49823" lon="6.79004">
        <ele>347</ele>
        <time>2016-10-01T14:17:04.000Z</time>
      </trkpt>
      <trkpt lat="47.49823" lon="6.79006">
        <ele>347</ele>
        <time>2016-10-01T14:17:05.000Z</time>
      </trkpt>
      <trkpt lat="47.49822" lon="6.79012">
        <ele>347</ele>
        <time>2016-10-01T14:17:08.000Z</time>
      </trkpt>
      <trkpt lat="47.49822" lon="6.79013">
        <ele>347</ele>
        <time>2016-10-01T14:17:09.000Z</time>
      </trkpt>
      <trkpt lat="47.49821" lon="6.79017">
        <ele>347</ele>
        <time>2016-10-01T14:17:12.000Z</time>
      </trkpt>
      <trkpt lat="47.49819" lon="6.79019">
        <ele>347</ele>
        <time>2016-10-01T14:17:13.000Z</time>
      </trkpt>
      <trkpt lat="47.49817" lon="6.79021">
        <ele>347</ele>
        <time>2016-10-01T14:17:14.000Z</time>
      </trkpt>
      <trkpt lat="47.49815" lon="6.79022">
        <ele>347</ele>
        <time>2016-10-01T14:17:15.000Z</time>
      </trkpt>
      <trkpt lat="47.49811" lon="6.79023">
        <ele>347</ele>
        <time>2016-10-01T14:17:17.000Z</time>
      </trkpt>
      <trkpt lat="47.49809" lon="6.79023">
        <ele>347</ele>
        <time>2016-10-01T14:17:18.000Z</time>
      </trkpt>
      <trkpt lat="47.49807" lon="6.79024">
        <ele>347</ele>
        <time>2016-10-01T14:17:19.000Z</time>
      </trkpt>
      <trkpt lat="47.49805" lon="6.79025">
        <ele>347</ele>
        <time>2016-10-01T14:17:20.000Z</time>
      </trkpt>
      <trkpt lat="47.49802" lon="6.79027">
        <ele>347</ele>
        <time>2016-10-01T14:17:21.000Z</time>
      </trkpt>
      <trkpt lat="47.49798" lon="6.79028">
        <ele>347</ele>
        <time>2016-10-01T14:17:22.000Z</time>
      </trkpt>
      <trkpt lat="47.49795" lon="6.7903">
        <ele>347</ele>
        <time>2016-10-01T14:17:23.000Z</time>
      </trkpt>
      <trkpt lat="47.49791" lon="6.79033">
        <ele>347</ele>
        <time>2016-10-01T14:17:24.000Z</time>
      </trkpt>
      <trkpt lat="47.49787" lon="6.79036">
        <ele>347</ele>
        <time>2016-10-01T14:17:25.000Z</time>
      </trkpt>
      <trkpt lat="47.49783" lon="6.79038">
        <ele>347</ele>
        <time>2016-10-01T14:17:26.000Z</time>
      </trkpt>
      <trkpt lat="47.4978" lon="6.79041">
        <ele>347</ele>
        <time>2016-10-01T14:17:27.000Z</time>
      </trkpt>
      <trkpt lat="47.49776" lon="6.79044">
        <ele>347</ele>
        <time>2016-10-01T14:17:28.000Z</time>
      </trkpt>
      <trkpt lat="47.49773" lon="6.79047">
        <ele>347</ele>
        <time>2016-10-01T14:17:29.000Z</time>
      </trkpt>
      <trkpt lat="47.4977" lon="6.79051">
        <ele>347</ele>
        <time>2016-10-01T14:17:30.000Z</time>
      </trkpt>
      <trkpt lat="47.49766" lon="6.79055">
        <ele>347</ele>
        <time>2016-10-01T14:17:31.000Z</time>
      </trkpt>
      <trkpt lat="47.49763" lon="6.79059">
        <ele>347</ele>
        <time>2016-10-01T14:17:32.000Z</time>
      </trkpt>
      <trkpt lat="47.49758" lon="6.79064">
        <ele>346</ele>
        <time>2016-10-01T14:17:33.000Z</time>
      </trkpt>
      <trkpt lat="47.49753" lon="6.79065">
        <ele>346</ele>
        <time>2016-10-01T14:17:34.000Z</time>
      </trkpt>
      <trkpt lat="47.49749" lon="6.79067">
        <ele>346</ele>
        <time>2016-10-01T14:17:35.000Z</time>
      </trkpt>
      <trkpt lat="47.49745" lon="6.79074">
        <ele>346</ele>
        <time>2016-10-01T14:17:36.000Z</time>
      </trkpt>
      <trkpt lat="47.49742" lon="6.79078">
        <ele>346</ele>
        <time>2016-10-01T14:17:37.000Z</time>
      </trkpt>
      <trkpt lat="47.4974" lon="6.79082">
        <ele>346</ele>
        <time>2016-10-01T14:17:38.001Z</time>
      </trkpt>
      <trkpt lat="47.49735" lon="6.79088">
        <ele>344</ele>
        <time>2016-10-01T14:17:39.000Z</time>
      </trkpt>
      <trkpt lat="47.4973" lon="6.79094">
        <ele>344</ele>
        <time>2016-10-01T14:17:40.000Z</time>
      </trkpt>
      <trkpt lat="47.49726" lon="6.791">
        <ele>343</ele>
        <time>2016-10-01T14:17:40.999Z</time>
      </trkpt>
      <trkpt lat="47.4972" lon="6.79112">
        <ele>343</ele>
        <time>2016-10-01T14:17:42.000Z</time>
      </trkpt>
      <trkpt lat="47.49716" lon="6.79124">
        <ele>343</ele>
        <time>2016-10-01T14:17:43.000Z</time>
      </trkpt>
      <trkpt lat="47.49713" lon="6.79135">
        <ele>342</ele>
        <time>2016-10-01T14:17:43.999Z</time>
      </trkpt>
      <trkpt lat="47.4971" lon="6.79134">
        <ele>342</ele>
        <time>2016-10-01T14:17:45.000Z</time>
      </trkpt>
      <trkpt lat="47.49707" lon="6.79137">
        <ele>342</ele>
        <time>2016-10-01T14:17:46.000Z</time>
      </trkpt>
      <trkpt lat="47.49704" lon="6.79143">
        <ele>342</ele>
        <time>2016-10-01T14:17:47.000Z</time>
      </trkpt>
      <trkpt lat="47.49701" lon="6.79145">
        <ele>342</ele>
        <time>2016-10-01T14:17:48.000Z</time>
      </trkpt>
      <trkpt lat="47.49699" lon="6.79146">
        <ele>341</ele>
        <time>2016-10-01T14:17:49.000Z</time>
      </trkpt>
      <trkpt lat="47.49696" lon="6.7914">
        <ele>341</ele>
        <time>2016-10-01T14:17:50.000Z</time>
      </trkpt>
      <trkpt lat="47.49693" lon="6.79139">
        <ele>341</ele>
        <time>2016-10-01T14:17:51.000Z</time>
      </trkpt>
      <trkpt lat="47.49691" lon="6.79134">
        <ele>341</ele>
        <time>2016-10-01T14:17:52.000Z</time>
      </trkpt>
      <trkpt lat="47.49689" lon="6.7913">
        <ele>341</ele>
        <time>2016-10-01T14:17:53.000Z</time>
      </trkpt>
      <trkpt lat="47.49686" lon="6.79125">
        <ele>341</ele>
        <time>2016-10-01T14:17:54.000Z</time>
      </trkpt>
      <trkpt lat="47.49684" lon="6.79121">
        <ele>341</ele>
        <time>2016-10-01T14:17:55.000Z</time>
      </trkpt>
      <trkpt lat="47.49681" lon="6.79117">
        <ele>341</ele>
        <time>2016-10-01T14:17:56.000Z</time>
      </trkpt>
      <trkpt lat="47.49682" lon="6.79112">
        <ele>342</ele>
        <time>2016-10-01T14:17:57.000Z</time>
      </trkpt>
      <trkpt lat="47.49681" lon="6.79108">
        <ele>342</ele>
        <time>2016-10-01T14:17:58.000Z</time>
      </trkpt>
      <trkpt lat="47.49678" lon="6.79104">
        <ele>342</ele>
        <time>2016-10-01T14:17:59.000Z</time>
      </trkpt>
      <trkpt lat="47.49676" lon="6.79099">
        <ele>342</ele>
        <time>2016-10-01T14:18:00.000Z</time>
      </trkpt>
      <trkpt lat="47.49672" lon="6.79095">
        <ele>341</ele>
        <time>2016-10-01T14:18:01.000Z</time>
      </trkpt>
      <trkpt lat="47.49668" lon="6.79089">
        <ele>341</ele>
        <time>2016-10-01T14:18:02.000Z</time>
      </trkpt>
      <trkpt lat="47.49664" lon="6.79085">
        <ele>340</ele>
        <time>2016-10-01T14:18:03.000Z</time>
      </trkpt>
      <trkpt lat="47.49661" lon="6.79079">
        <ele>341</ele>
        <time>2016-10-01T14:18:04.000Z</time>
      </trkpt>
      <trkpt lat="47.49657" lon="6.79074">
        <ele>341</ele>
        <time>2016-10-01T14:18:05.000Z</time>
      </trkpt>
      <trkpt lat="47.49652" lon="6.79069">
        <ele>342</ele>
        <time>2016-10-01T14:18:06.000Z</time>
      </trkpt>
      <trkpt lat="47.4965" lon="6.79064">
        <ele>342</ele>
        <time>2016-10-01T14:18:07.000Z</time>
      </trkpt>
      <trkpt lat="47.49647" lon="6.79062">
        <ele>342</ele>
        <time>2016-10-01T14:18:08.000Z</time>
      </trkpt>
      <trkpt lat="47.49644" lon="6.79059">
        <ele>342</ele>
        <time>2016-10-01T14:18:09.000Z</time>
      </trkpt>
      <trkpt lat="47.49638" lon="6.79056">
        <ele>342</ele>
        <time>2016-10-01T14:18:10.000Z</time>
      </trkpt>
      <trkpt lat="47.49632" lon="6.79053">
        <ele>342</ele>
        <time>2016-10-01T14:18:11.000Z</time>
      </trkpt>
      <trkpt lat="47.49626" lon="6.79052">
        <ele>342</ele>
        <time>2016-10-01T14:18:12.000Z</time>
      </trkpt>
      <trkpt lat="47.49618" lon="6.79066">
        <ele>341</ele>
        <time>2016-10-01T14:18:13.000Z</time>
      </trkpt>
      <trkpt lat="47.49605" lon="6.79073">
        <ele>340</ele>
        <time>2016-10-01T14:18:14.000Z</time>
      </trkpt>
      <trkpt lat="47.49597" lon="6.7908">
        <ele>338</ele>
        <time>2016-10-01T14:18:15.000Z</time>
      </trkpt>
      <trkpt lat="47.49597" lon="6.79088">
        <ele>335</ele>
        <time>2016-10-01T14:18:16.000Z</time>
      </trkpt>
      <trkpt lat="47.49597" lon="6.79097">
        <ele>335</ele>
        <time>2016-10-01T14:18:17.000Z</time>
      </trkpt>
      <trkpt lat="47.496" lon="6.79108">
        <ele>334</ele>
        <time>2016-10-01T14:18:18.000Z</time>
      </trkpt>
      <trkpt lat="47.49604" lon="6.79117">
        <ele>334</ele>
        <time>2016-10-01T14:18:19.000Z</time>
      </trkpt>
      <trkpt lat="47.49611" lon="6.79132">
        <ele>334</ele>
        <time>2016-10-01T14:18:20.000Z</time>
      </trkpt>
      <trkpt lat="47.49619" lon="6.79145">
        <ele>334</ele>
        <time>2016-10-01T14:18:21.000Z</time>
      </trkpt>
      <trkpt lat="47.49625" lon="6.79157">
        <ele>334</ele>
        <time>2016-10-01T14:18:22.000Z</time>
      </trkpt>
      <trkpt lat="47.4963" lon="6.79167">
        <ele>331</ele>
        <time>2016-10-01T14:18:23.000Z</time>
      </trkpt>
      <trkpt lat="47.49636" lon="6.79174">
        <ele>332</ele>
        <time>2016-10-01T14:18:24.000Z</time>
      </trkpt>
      <trkpt lat="47.49636" lon="6.79183">
        <ele>332</ele>
        <time>2016-10-01T14:18:25.000Z</time>
      </trkpt>
      <trkpt lat="47.49637" lon="6.79191">
        <ele>331</ele>
        <time>2016-10-01T14:18:26.000Z</time>
      </trkpt>
      <trkpt lat="47.49636" lon="6.79202">
        <ele>331</ele>
        <time>2016-10-01T14:18:27.000Z</time>
      </trkpt>
      <trkpt lat="47.49629" lon="6.79207">
        <ele>331</ele>
        <time>2016-10-01T14:18:28.000Z</time>
      </trkpt>
      <trkpt lat="47.49624" lon="6.79214">
        <ele>330</ele>
        <time>2016-10-01T14:18:29.000Z</time>
      </trkpt>
      <trkpt lat="47.49617" lon="6.79211">
        <ele>330</ele>
        <time>2016-10-01T14:18:30.000Z</time>
      </trkpt>
      <trkpt lat="47.49613" lon="6.7921">
        <ele>329</ele>
        <time>2016-10-01T14:18:31.000Z</time>
      </trkpt>
      <trkpt lat="47.49606" lon="6.79197">
        <ele>329</ele>
        <time>2016-10-01T14:18:32.000Z</time>
      </trkpt>
      <trkpt lat="47.496" lon="6.79191">
        <ele>329</ele>
        <time>2016-10-01T14:18:33.000Z</time>
      </trkpt>
      <trkpt lat="47.49596" lon="6.79183">
        <ele>328</ele>
        <time>2016-10-01T14:18:34.000Z</time>
      </trkpt>
      <trkpt lat="47.49591" lon="6.79174">
        <ele>327</ele>
        <time>2016-10-01T14:18:35.000Z</time>
      </trkpt>
      <trkpt lat="47.49585" lon="6.79168">
        <ele>326</ele>
        <time>2016-10-01T14:18:36.000Z</time>
      </trkpt>
      <trkpt lat="47.4958" lon="6.79158">
        <ele>326</ele>
        <time>2016-10-01T14:18:37.000Z</time>
      </trkpt>
      <trkpt lat="47.49574" lon="6.79148">
        <ele>327</ele>
        <time>2016-10-01T14:18:38.000Z</time>
      </trkpt>
      <trkpt lat="47.49568" lon="6.79142">
        <ele>327</ele>
        <time>2016-10-01T14:18:39.000Z</time>
      </trkpt>
      <trkpt lat="47.49561" lon="6.79135">
        <ele>327</ele>
        <time>2016-10-01T14:18:40.000Z</time>
      </trkpt>
      <trkpt lat="47.49555" lon="6.7913">
        <ele>327</ele>
        <time>2016-10-01T14:18:41.000Z</time>
      </trkpt>
      <trkpt lat="47.49546" lon="6.79128">
        <ele>327</ele>
        <time>2016-10-01T14:18:42.000Z</time>
      </trkpt>
      <trkpt lat="47.49538" lon="6.79131">
        <ele>327</ele>
        <time>2016-10-01T14:18:43.000Z</time>
      </trkpt>
      <trkpt lat="47.4953" lon="6.79134">
        <ele>326</ele>
        <time>2016-10-01T14:18:44.000Z</time>
      </trkpt>
      <trkpt lat="47.49521" lon="6.7914">
        <ele>325</ele>
        <time>2016-10-01T14:18:45.000Z</time>
      </trkpt>
      <trkpt lat="47.49514" lon="6.79148">
        <ele>325</ele>
        <time>2016-10-01T14:18:46.000Z</time>
      </trkpt>
      <trkpt lat="47.49507" lon="6.79154">
        <ele>324</ele>
        <time>2016-10-01T14:18:47.000Z</time>
      </trkpt>
      <trkpt lat="47.49501" lon="6.7916">
        <ele>322</ele>
        <time>2016-10-01T14:18:48.000Z</time>
      </trkpt>
      <trkpt lat="47.49493" lon="6.79164">
        <ele>322</ele>
        <time>2016-10-01T14:18:49.000Z</time>
      </trkpt>
      <trkpt lat="47.49486" lon="6.79166">
        <ele>322</ele>
        <time>2016-10-01T14:18:50.000Z</time>
      </trkpt>
      <trkpt lat="47.49479" lon="6.79166">
        <ele>322</ele>
        <time>2016-10-01T14:18:51.000Z</time>
      </trkpt>
      <trkpt lat="47.4947" lon="6.79166">
        <ele>322</ele>
        <time>2016-10-01T14:18:52.000Z</time>
      </trkpt>
      <trkpt lat="47.49464" lon="6.79165">
        <ele>322</ele>
        <time>2016-10-01T14:18:53.000Z</time>
      </trkpt>
      <trkpt lat="47.49459" lon="6.79162">
        <ele>322</ele>
        <time>2016-10-01T14:18:54.000Z</time>
      </trkpt>
      <trkpt lat="47.49454" lon="6.79159">
        <ele>322</ele>
        <time>2016-10-01T14:18:55.000Z</time>
      </trkpt>
      <trkpt lat="47.49453" lon="6.79151">
        <ele>323</ele>
        <time>2016-10-01T14:18:56.000Z</time>
      </trkpt>
      <trkpt lat="47.49453" lon="6.79144">
        <ele>323</ele>
        <time>2016-10-01T14:18:57.000Z</time>
      </trkpt>
      <trkpt lat="47.49452" lon="6.7914">
        <ele>323</ele>
        <time>2016-10-01T14:18:58.000Z</time>
      </trkpt>
      <trkpt lat="47.49452" lon="6.79131">
        <ele>323</ele>
        <time>2016-10-01T14:18:59.000Z</time>
      </trkpt>
      <trkpt lat="47.49452" lon="6.79125">
        <ele>323</ele>
        <time>2016-10-01T14:19:00.000Z</time>
      </trkpt>
      <trkpt lat="47.49452" lon="6.79119">
        <ele>323</ele>
        <time>2016-10-01T14:19:01.000Z</time>
      </trkpt>
      <trkpt lat="47.49452" lon="6.79114">
        <ele>324</ele>
        <time>2016-10-01T14:19:02.000Z</time>
      </trkpt>
      <trkpt lat="47.49451" lon="6.7911">
        <ele>324</ele>
        <time>2016-10-01T14:19:03.000Z</time>
      </trkpt>
      <trkpt lat="47.49451" lon="6.79104">
        <ele>324</ele>
        <time>2016-10-01T14:19:04.000Z</time>
      </trkpt>
      <trkpt lat="47.4945" lon="6.79098">
        <ele>324</ele>
        <time>2016-10-01T14:19:05.000Z</time>
      </trkpt>
      <trkpt lat="47.4945" lon="6.79092">
        <ele>324</ele>
        <time>2016-10-01T14:19:06.000Z</time>
      </trkpt>
      <trkpt lat="47.4945" lon="6.79087">
        <ele>324</ele>
        <time>2016-10-01T14:19:07.000Z</time>
      </trkpt>
      <trkpt lat="47.4945" lon="6.79081">
        <ele>329</ele>
        <time>2016-10-01T14:19:07.999Z</time>
      </trkpt>
      <trkpt lat="47.4945" lon="6.79076">
        <ele>329</ele>
        <time>2016-10-01T14:19:09.001Z</time>
      </trkpt>
      <trkpt lat="47.49449" lon="6.79071">
        <ele>329</ele>
        <time>2016-10-01T14:19:10.001Z</time>
      </trkpt>
      <trkpt lat="47.49446" lon="6.79067">
        <ele>329</ele>
        <time>2016-10-01T14:19:11.000Z</time>
      </trkpt>
      <trkpt lat="47.49445" lon="6.79063">
        <ele>330</ele>
        <time>2016-10-01T14:19:12.000Z</time>
      </trkpt>
      <trkpt lat="47.49442" lon="6.7906">
        <ele>330</ele>
        <time>2016-10-01T14:19:13.000Z</time>
      </trkpt>
      <trkpt lat="47.49439" lon="6.79057">
        <ele>330</ele>
        <time>2016-10-01T14:19:14.000Z</time>
      </trkpt>
      <trkpt lat="47.49437" lon="6.79054">
        <ele>330</ele>
        <time>2016-10-01T14:19:15.001Z</time>
      </trkpt>
      <trkpt lat="47.49435" lon="6.79052">
        <ele>330</ele>
        <time>2016-10-01T14:19:16.001Z</time>
      </trkpt>
      <trkpt lat="47.49434" lon="6.79049">
        <ele>330</ele>
        <time>2016-10-01T14:19:17.001Z</time>
      </trkpt>
      <trkpt lat="47.49431" lon="6.79046">
        <ele>330</ele>
        <time>2016-10-01T14:19:20.000Z</time>
      </trkpt>
      <trkpt lat="47.4943" lon="6.79044">
        <ele>331</ele>
        <time>2016-10-01T14:19:21.000Z</time>
      </trkpt>
      <trkpt lat="47.49429" lon="6.79039">
        <ele>331</ele>
        <time>2016-10-01T14:19:23.000Z</time>
      </trkpt>
      <trkpt lat="47.49429" lon="6.79036">
        <ele>331</ele>
        <time>2016-10-01T14:19:24.000Z</time>
      </trkpt>
      <trkpt lat="47.49429" lon="6.79031">
        <ele>332</ele>
        <time>2016-10-01T14:19:27.000Z</time>
      </trkpt>
      <trkpt lat="47.49429" lon="6.79029">
        <ele>332</ele>
        <time>2016-10-01T14:19:28.000Z</time>
      </trkpt>
      <trkpt lat="47.49428" lon="6.79023">
        <ele>332</ele>
        <time>2016-10-01T14:19:30.000Z</time>
      </trkpt>
      <trkpt lat="47.49428" lon="6.7902">
        <ele>332</ele>
        <time>2016-10-01T14:19:31.000Z</time>
      </trkpt>
      <trkpt lat="47.49426" lon="6.79014">
        <ele>333</ele>
        <time>2016-10-01T14:19:33.000Z</time>
      </trkpt>
      <trkpt lat="47.49425" lon="6.79012">
        <ele>333</ele>
        <time>2016-10-01T14:19:34.000Z</time>
      </trkpt>
      <trkpt lat="47.49422" lon="6.79008">
        <ele>333</ele>
        <time>2016-10-01T14:19:36.000Z</time>
      </trkpt>
      <trkpt lat="47.4942" lon="6.79006">
        <ele>333</ele>
        <time>2016-10-01T14:19:37.000Z</time>
      </trkpt>
      <trkpt lat="47.49418" lon="6.79004">
        <ele>334</ele>
        <time>2016-10-01T14:19:38.000Z</time>
      </trkpt>
      <trkpt lat="47.49416" lon="6.79001">
        <ele>334</ele>
        <time>2016-10-01T14:19:39.000Z</time>
      </trkpt>
      <trkpt lat="47.49415" lon="6.78999">
        <ele>334</ele>
        <time>2016-10-01T14:19:40.000Z</time>
      </trkpt>
      <trkpt lat="47.49413" lon="6.78996">
        <ele>334</ele>
        <time>2016-10-01T14:19:41.000Z</time>
      </trkpt>
      <trkpt lat="47.49411" lon="6.78993">
        <ele>334</ele>
        <time>2016-10-01T14:19:42.000Z</time>
      </trkpt>
      <trkpt lat="47.4941" lon="6.7899">
        <ele>334</ele>
        <time>2016-10-01T14:19:43.000Z</time>
      </trkpt>
      <trkpt lat="47.49408" lon="6.78986">
        <ele>334</ele>
        <time>2016-10-01T14:19:44.000Z</time>
      </trkpt>
      <trkpt lat="47.49407" lon="6.78983">
        <ele>334</ele>
        <time>2016-10-01T14:19:45.000Z</time>
      </trkpt>
      <trkpt lat="47.49407" lon="6.78979">
        <ele>334</ele>
        <time>2016-10-01T14:19:46.000Z</time>
      </trkpt>
      <trkpt lat="47.49406" lon="6.78976">
        <ele>334</ele>
        <time>2016-10-01T14:19:47.000Z</time>
      </trkpt>
      <trkpt lat="47.49404" lon="6.78974">
        <ele>334</ele>
        <time>2016-10-01T14:19:48.000Z</time>
      </trkpt>
      <trkpt lat="47.49401" lon="6.78972">
        <ele>334</ele>
        <time>2016-10-01T14:19:49.000Z</time>
      </trkpt>
      <trkpt lat="47.49398" lon="6.78969">
        <ele>334</ele>
        <time>2016-10-01T14:19:50.000Z</time>
      </trkpt>
      <trkpt lat="47.49396" lon="6.78967">
        <ele>334</ele>
        <time>2016-10-01T14:19:51.000Z</time>
      </trkpt>
      <trkpt lat="47.49394" lon="6.78965">
        <ele>334</ele>
        <time>2016-10-01T14:19:52.000Z</time>
      </trkpt>
      <trkpt lat="47.49391" lon="6.78963">
        <ele>334</ele>
        <time>2016-10-01T14:19:53.000Z</time>
      </trkpt>
      <trkpt lat="47.49389" lon="6.78961">
        <ele>334</ele>
        <time>2016-10-01T14:19:54.000Z</time>
      </trkpt>
      <trkpt lat="47.49387" lon="6.78959">
        <ele>334</ele>
        <time>2016-10-01T14:19:55.000Z</time>
      </trkpt>
      <trkpt lat="47.49385" lon="6.78956">
        <ele>334</ele>
        <time>2016-10-01T14:19:56.000Z</time>
      </trkpt>
      <trkpt lat="47.49384" lon="6.78954">
        <ele>334</ele>
        <time>2016-10-01T14:19:57.000Z</time>
      </trkpt>
      <trkpt lat="47.49382" lon="6.78951">
        <ele>334</ele>
        <time>2016-10-01T14:19:58.000Z</time>
      </trkpt>
      <trkpt lat="47.4938" lon="6.78948">
        <ele>334</ele>
        <time>2016-10-01T14:19:59.000Z</time>
      </trkpt>
      <trkpt lat="47.49377" lon="6.78946">
        <ele>334</ele>
        <time>2016-10-01T14:20:00.000Z</time>
      </trkpt>
      <trkpt lat="47.49375" lon="6.78944">
        <ele>334</ele>
        <time>2016-10-01T14:20:01.000Z</time>
      </trkpt>
      <trkpt lat="47.49371" lon="6.78941">
        <ele>333</ele>
        <time>2016-10-01T14:20:03.000Z</time>
      </trkpt>
      <trkpt lat="47.49369" lon="6.78938">
        <ele>333</ele>
        <time>2016-10-01T14:20:04.000Z</time>
      </trkpt>
      <trkpt lat="47.49367" lon="6.78933">
        <ele>333</ele>
        <time>2016-10-01T14:20:06.000Z</time>
      </trkpt>
      <trkpt lat="47.49366" lon="6.7893">
        <ele>333</ele>
        <time>2016-10-01T14:20:07.000Z</time>
      </trkpt>
      <trkpt lat="47.49364" lon="6.78924">
        <ele>333</ele>
        <time>2016-10-01T14:20:09.000Z</time>
      </trkpt>
      <trkpt lat="47.49363" lon="6.7892">
        <ele>333</ele>
        <time>2016-10-01T14:20:10.000Z</time>
      </trkpt>
      <trkpt lat="47.49362" lon="6.78916">
        <ele>338</ele>
        <time>2016-10-01T14:20:11.000Z</time>
      </trkpt>
      <trkpt lat="47.49362" lon="6.78912">
        <ele>338</ele>
        <time>2016-10-01T14:20:12.000Z</time>
      </trkpt>
      <trkpt lat="47.4936" lon="6.78908">
        <ele>337</ele>
        <time>2016-10-01T14:20:13.000Z</time>
      </trkpt>
      <trkpt lat="47.49359" lon="6.78905">
        <ele>338</ele>
        <time>2016-10-01T14:20:14.000Z</time>
      </trkpt>
      <trkpt lat="47.49358" lon="6.78902">
        <ele>338</ele>
        <time>2016-10-01T14:20:15.000Z</time>
      </trkpt>
      <trkpt lat="47.49356" lon="6.78899">
        <ele>338</ele>
        <time>2016-10-01T14:20:16.000Z</time>
      </trkpt>
      <trkpt lat="47.49354" lon="6.78895">
        <ele>338</ele>
        <time>2016-10-01T14:20:17.000Z</time>
      </trkpt>
      <trkpt lat="47.49352" lon="6.78891">
        <ele>338</ele>
        <time>2016-10-01T14:20:18.000Z</time>
      </trkpt>
      <trkpt lat="47.4935" lon="6.78886">
        <ele>338</ele>
        <time>2016-10-01T14:20:19.000Z</time>
      </trkpt>
      <trkpt lat="47.49349" lon="6.78882">
        <ele>338</ele>
        <time>2016-10-01T14:20:20.000Z</time>
      </trkpt>
      <trkpt lat="47.49349" lon="6.78877">
        <ele>339</ele>
        <time>2016-10-01T14:20:21.000Z</time>
      </trkpt>
      <trkpt lat="47.49348" lon="6.78871">
        <ele>339</ele>
        <time>2016-10-01T14:20:22.000Z</time>
      </trkpt>
      <trkpt lat="47.49348" lon="6.78866">
        <ele>339</ele>
        <time>2016-10-01T14:20:23.000Z</time>
      </trkpt>
      <trkpt lat="47.49348" lon="6.78861">
        <ele>340</ele>
        <time>2016-10-01T14:20:24.000Z</time>
      </trkpt>
      <trkpt lat="47.49347" lon="6.78856">
        <ele>340</ele>
        <time>2016-10-01T14:20:25.000Z</time>
      </trkpt>
      <trkpt lat="47.49347" lon="6.78852">
        <ele>340</ele>
        <time>2016-10-01T14:20:26.000Z</time>
      </trkpt>
      <trkpt lat="47.49347" lon="6.78847">
        <ele>340</ele>
        <time>2016-10-01T14:20:27.000Z</time>
      </trkpt>
      <trkpt lat="47.49346" lon="6.78842">
        <ele>340</ele>
        <time>2016-10-01T14:20:28.000Z</time>
      </trkpt>
      <trkpt lat="47.49345" lon="6.78837">
        <ele>340</ele>
        <time>2016-10-01T14:20:29.000Z</time>
      </trkpt>
      <trkpt lat="47.49344" lon="6.78832">
        <ele>342</ele>
        <time>2016-10-01T14:20:30.000Z</time>
      </trkpt>
      <trkpt lat="47.49344" lon="6.78828">
        <ele>342</ele>
        <time>2016-10-01T14:20:31.000Z</time>
      </trkpt>
      <trkpt lat="47.49344" lon="6.78824">
        <ele>342</ele>
        <time>2016-10-01T14:20:32.000Z</time>
      </trkpt>
      <trkpt lat="47.49344" lon="6.78819">
        <ele>343</ele>
        <time>2016-10-01T14:20:33.000Z</time>
      </trkpt>
      <trkpt lat="47.49344" lon="6.78815">
        <ele>343</ele>
        <time>2016-10-01T14:20:34.000Z</time>
      </trkpt>
      <trkpt lat="47.49344" lon="6.7881">
        <ele>343</ele>
        <time>2016-10-01T14:20:35.000Z</time>
      </trkpt>
      <trkpt lat="47.49344" lon="6.78806">
        <ele>344</ele>
        <time>2016-10-01T14:20:36.000Z</time>
      </trkpt>
      <trkpt lat="47.49344" lon="6.78802">
        <ele>344</ele>
        <time>2016-10-01T14:20:37.000Z</time>
      </trkpt>
      <trkpt lat="47.49344" lon="6.78797">
        <ele>344</ele>
        <time>2016-10-01T14:20:38.000Z</time>
      </trkpt>
      <trkpt lat="47.49344" lon="6.78793">
        <ele>344</ele>
        <time>2016-10-01T14:20:39.000Z</time>
      </trkpt>
      <trkpt lat="47.49345" lon="6.78791">
        <ele>344</ele>
        <time>2016-10-01T14:20:40.000Z</time>
      </trkpt>
      <trkpt lat="47.49345" lon="6.78787">
        <ele>345</ele>
        <time>2016-10-01T14:20:41.000Z</time>
      </trkpt>
      <trkpt lat="47.49345" lon="6.78783">
        <ele>345</ele>
        <time>2016-10-01T14:20:42.000Z</time>
      </trkpt>
      <trkpt lat="47.49345" lon="6.7878">
        <ele>345</ele>
        <time>2016-10-01T14:20:43.000Z</time>
      </trkpt>
      <trkpt lat="47.49343" lon="6.78777">
        <ele>345</ele>
        <time>2016-10-01T14:20:44.000Z</time>
      </trkpt>
      <trkpt lat="47.49341" lon="6.78775">
        <ele>345</ele>
        <time>2016-10-01T14:20:45.000Z</time>
      </trkpt>
      <trkpt lat="47.49338" lon="6.78772">
        <ele>345</ele>
        <time>2016-10-01T14:20:46.000Z</time>
      </trkpt>
      <trkpt lat="47.49336" lon="6.7877">
        <ele>345</ele>
        <time>2016-10-01T14:20:47.000Z</time>
      </trkpt>
      <trkpt lat="47.49333" lon="6.78766">
        <ele>345</ele>
        <time>2016-10-01T14:20:48.000Z</time>
      </trkpt>
      <trkpt lat="47.49331" lon="6.78762">
        <ele>341</ele>
        <time>2016-10-01T14:20:49.000Z</time>
      </trkpt>
      <trkpt lat="47.49328" lon="6.78758">
        <ele>342</ele>
        <time>2016-10-01T14:20:50.000Z</time>
      </trkpt>
      <trkpt lat="47.49325" lon="6.78754">
        <ele>342</ele>
        <time>2016-10-01T14:20:51.000Z</time>
      </trkpt>
      <trkpt lat="47.49324" lon="6.78751">
        <ele>341</ele>
        <time>2016-10-01T14:20:52.000Z</time>
      </trkpt>
      <trkpt lat="47.49322" lon="6.78748">
        <ele>343</ele>
        <time>2016-10-01T14:20:53.000Z</time>
      </trkpt>
      <trkpt lat="47.49319" lon="6.78744">
        <ele>342</ele>
        <time>2016-10-01T14:20:54.000Z</time>
      </trkpt>
      <trkpt lat="47.49317" lon="6.78741">
        <ele>342</ele>
        <time>2016-10-01T14:20:55.000Z</time>
      </trkpt>
      <trkpt lat="47.49314" lon="6.78738">
        <ele>341</ele>
        <time>2016-10-01T14:20:56.000Z</time>
      </trkpt>
      <trkpt lat="47.49312" lon="6.78734">
        <ele>341</ele>
        <time>2016-10-01T14:20:57.000Z</time>
      </trkpt>
      <trkpt lat="47.49308" lon="6.7873">
        <ele>340</ele>
        <time>2016-10-01T14:20:58.000Z</time>
      </trkpt>
      <trkpt lat="47.49304" lon="6.78726">
        <ele>340</ele>
        <time>2016-10-01T14:20:59.000Z</time>
      </trkpt>
      <trkpt lat="47.49301" lon="6.78722">
        <ele>340</ele>
        <time>2016-10-01T14:21:00.000Z</time>
      </trkpt>
      <trkpt lat="47.49298" lon="6.78717">
        <ele>339</ele>
        <time>2016-10-01T14:21:01.000Z</time>
      </trkpt>
      <trkpt lat="47.49295" lon="6.78713">
        <ele>339</ele>
        <time>2016-10-01T14:21:02.000Z</time>
      </trkpt>
      <trkpt lat="47.49293" lon="6.78708">
        <ele>339</ele>
        <time>2016-10-01T14:21:03.000Z</time>
      </trkpt>
      <trkpt lat="47.4929" lon="6.78704">
        <ele>339</ele>
        <time>2016-10-01T14:21:04.000Z</time>
      </trkpt>
      <trkpt lat="47.49288" lon="6.787">
        <ele>339</ele>
        <time>2016-10-01T14:21:05.000Z</time>
      </trkpt>
      <trkpt lat="47.49286" lon="6.78697">
        <ele>339</ele>
        <time>2016-10-01T14:21:06.000Z</time>
      </trkpt>
      <trkpt lat="47.49285" lon="6.78693">
        <ele>339</ele>
        <time>2016-10-01T14:21:07.000Z</time>
      </trkpt>
      <trkpt lat="47.49283" lon="6.78689">
        <ele>339</ele>
        <time>2016-10-01T14:21:08.000Z</time>
      </trkpt>
      <trkpt lat="47.49281" lon="6.78685">
        <ele>339</ele>
        <time>2016-10-01T14:21:09.000Z</time>
      </trkpt>
      <trkpt lat="47.49279" lon="6.78681">
        <ele>339</ele>
        <time>2016-10-01T14:21:10.000Z</time>
      </trkpt>
      <trkpt lat="47.49278" lon="6.78677">
        <ele>339</ele>
        <time>2016-10-01T14:21:11.000Z</time>
      </trkpt>
      <trkpt lat="47.49276" lon="6.78674">
        <ele>339</ele>
        <time>2016-10-01T14:21:12.000Z</time>
      </trkpt>
      <trkpt lat="47.49275" lon="6.78671">
        <ele>338</ele>
        <time>2016-10-01T14:21:13.000Z</time>
      </trkpt>
      <trkpt lat="47.49273" lon="6.78669">
        <ele>338</ele>
        <time>2016-10-01T14:21:14.000Z</time>
      </trkpt>
      <trkpt lat="47.49272" lon="6.78666">
        <ele>341</ele>
        <time>2016-10-01T14:21:15.000Z</time>
      </trkpt>
      <trkpt lat="47.49269" lon="6.78662">
        <ele>340</ele>
        <time>2016-10-01T14:21:16.000Z</time>
      </trkpt>
      <trkpt lat="47.49267" lon="6.78659">
        <ele>340</ele>
        <time>2016-10-01T14:21:17.000Z</time>
      </trkpt>
      <trkpt lat="47.49264" lon="6.78655">
        <ele>340</ele>
        <time>2016-10-01T14:21:18.000Z</time>
      </trkpt>
      <trkpt lat="47.49262" lon="6.78651">
        <ele>340</ele>
        <time>2016-10-01T14:21:19.000Z</time>
      </trkpt>
      <trkpt lat="47.49259" lon="6.78645">
        <ele>341</ele>
        <time>2016-10-01T14:21:20.000Z</time>
      </trkpt>
      <trkpt lat="47.49257" lon="6.78638">
        <ele>341</ele>
        <time>2016-10-01T14:21:21.000Z</time>
      </trkpt>
      <trkpt lat="47.49255" lon="6.78632">
        <ele>342</ele>
        <time>2016-10-01T14:21:22.000Z</time>
      </trkpt>
      <trkpt lat="47.49253" lon="6.78625">
        <ele>342</ele>
        <time>2016-10-01T14:21:23.000Z</time>
      </trkpt>
      <trkpt lat="47.49252" lon="6.78619">
        <ele>342</ele>
        <time>2016-10-01T14:21:24.000Z</time>
      </trkpt>
      <trkpt lat="47.49249" lon="6.78614">
        <ele>334</ele>
        <time>2016-10-01T14:21:25.000Z</time>
      </trkpt>
      <trkpt lat="47.49246" lon="6.78608">
        <ele>335</ele>
        <time>2016-10-01T14:21:26.000Z</time>
      </trkpt>
      <trkpt lat="47.49243" lon="6.78603">
        <ele>336</ele>
        <time>2016-10-01T14:21:27.000Z</time>
      </trkpt>
      <trkpt lat="47.4924" lon="6.78598">
        <ele>336</ele>
        <time>2016-10-01T14:21:28.000Z</time>
      </trkpt>
      <trkpt lat="47.49237" lon="6.78591">
        <ele>336</ele>
        <time>2016-10-01T14:21:29.000Z</time>
      </trkpt>
      <trkpt lat="47.49234" lon="6.78585">
        <ele>336</ele>
        <time>2016-10-01T14:21:30.000Z</time>
      </trkpt>
      <trkpt lat="47.49231" lon="6.78578">
        <ele>339</ele>
        <time>2016-10-01T14:21:31.000Z</time>
      </trkpt>
      <trkpt lat="47.49229" lon="6.78571">
        <ele>338</ele>
        <time>2016-10-01T14:21:32.000Z</time>
      </trkpt>
      <trkpt lat="47.49227" lon="6.78566">
        <ele>338</ele>
        <time>2016-10-01T14:21:33.000Z</time>
      </trkpt>
      <trkpt lat="47.49225" lon="6.78561">
        <ele>338</ele>
        <time>2016-10-01T14:21:34.000Z</time>
      </trkpt>
      <trkpt lat="47.49223" lon="6.78557">
        <ele>337</ele>
        <time>2016-10-01T14:21:35.000Z</time>
      </trkpt>
      <trkpt lat="47.49222" lon="6.78553">
        <ele>337</ele>
        <time>2016-10-01T14:21:36.000Z</time>
      </trkpt>
      <trkpt lat="47.4922" lon="6.7855">
        <ele>337</ele>
        <time>2016-10-01T14:21:37.000Z</time>
      </trkpt>
      <trkpt lat="47.4922" lon="6.78546">
        <ele>337</ele>
        <time>2016-10-01T14:21:38.000Z</time>
      </trkpt>
      <trkpt lat="47.49219" lon="6.78542">
        <ele>337</ele>
        <time>2016-10-01T14:21:39.000Z</time>
      </trkpt>
      <trkpt lat="47.49219" lon="6.78539">
        <ele>337</ele>
        <time>2016-10-01T14:21:40.000Z</time>
      </trkpt>
      <trkpt lat="47.49217" lon="6.78535">
        <ele>337</ele>
        <time>2016-10-01T14:21:42.000Z</time>
      </trkpt>
      <trkpt lat="47.49215" lon="6.78533">
        <ele>337</ele>
        <time>2016-10-01T14:21:43.000Z</time>
      </trkpt>
      <trkpt lat="47.49213" lon="6.78531">
        <ele>337</ele>
        <time>2016-10-01T14:21:44.000Z</time>
      </trkpt>
      <trkpt lat="47.4921" lon="6.78528">
        <ele>337</ele>
        <time>2016-10-01T14:21:45.000Z</time>
      </trkpt>
      <trkpt lat="47.49207" lon="6.78525">
        <ele>337</ele>
        <time>2016-10-01T14:21:46.000Z</time>
      </trkpt>
      <trkpt lat="47.49204" lon="6.78523">
        <ele>337</ele>
        <time>2016-10-01T14:21:47.000Z</time>
      </trkpt>
      <trkpt lat="47.49202" lon="6.78521">
        <ele>337</ele>
        <time>2016-10-01T14:21:48.000Z</time>
      </trkpt>
      <trkpt lat="47.492" lon="6.78518">
        <ele>337</ele>
        <time>2016-10-01T14:21:49.000Z</time>
      </trkpt>
      <trkpt lat="47.49198" lon="6.78516">
        <ele>337</ele>
        <time>2016-10-01T14:21:50.000Z</time>
      </trkpt>
      <trkpt lat="47.49195" lon="6.78512">
        <ele>336</ele>
        <time>2016-10-01T14:21:51.000Z</time>
      </trkpt>
      <trkpt lat="47.49193" lon="6.78509">
        <ele>336</ele>
        <time>2016-10-01T14:21:52.000Z</time>
      </trkpt>
      <trkpt lat="47.49191" lon="6.78505">
        <ele>336</ele>
        <time>2016-10-01T14:21:53.000Z</time>
      </trkpt>
      <trkpt lat="47.49189" lon="6.785">
        <ele>340</ele>
        <time>2016-10-01T14:21:54.000Z</time>
      </trkpt>
      <trkpt lat="47.49186" lon="6.78495">
        <ele>339</ele>
        <time>2016-10-01T14:21:55.000Z</time>
      </trkpt>
      <trkpt lat="47.49184" lon="6.78491">
        <ele>339</ele>
        <time>2016-10-01T14:21:56.000Z</time>
      </trkpt>
      <trkpt lat="47.49182" lon="6.78487">
        <ele>339</ele>
        <time>2016-10-01T14:21:57.000Z</time>
      </trkpt>
      <trkpt lat="47.49179" lon="6.78483">
        <ele>339</ele>
        <time>2016-10-01T14:21:58.000Z</time>
      </trkpt>
      <trkpt lat="47.49177" lon="6.7848">
        <ele>340</ele>
        <time>2016-10-01T14:21:59.000Z</time>
      </trkpt>
      <trkpt lat="47.49174" lon="6.78477">
        <ele>340</ele>
        <time>2016-10-01T14:22:00.000Z</time>
      </trkpt>
      <trkpt lat="47.49171" lon="6.78474">
        <ele>340</ele>
        <time>2016-10-01T14:22:01.000Z</time>
      </trkpt>
      <trkpt lat="47.49168" lon="6.78472">
        <ele>340</ele>
        <time>2016-10-01T14:22:02.000Z</time>
      </trkpt>
      <trkpt lat="47.49165" lon="6.78469">
        <ele>333</ele>
        <time>2016-10-01T14:22:03.000Z</time>
      </trkpt>
      <trkpt lat="47.49162" lon="6.78467">
        <ele>333</ele>
        <time>2016-10-01T14:22:04.000Z</time>
      </trkpt>
      <trkpt lat="47.49159" lon="6.78464">
        <ele>333</ele>
        <time>2016-10-01T14:22:05.000Z</time>
      </trkpt>
      <trkpt lat="47.49156" lon="6.78462">
        <ele>333</ele>
        <time>2016-10-01T14:22:06.000Z</time>
      </trkpt>
      <trkpt lat="47.49153" lon="6.78459">
        <ele>333</ele>
        <time>2016-10-01T14:22:07.000Z</time>
      </trkpt>
      <trkpt lat="47.49152" lon="6.78457">
        <ele>333</ele>
        <time>2016-10-01T14:22:08.000Z</time>
      </trkpt>
      <trkpt lat="47.4915" lon="6.78455">
        <ele>333</ele>
        <time>2016-10-01T14:22:09.000Z</time>
      </trkpt>
      <trkpt lat="47.49148" lon="6.78452">
        <ele>333</ele>
        <time>2016-10-01T14:22:10.000Z</time>
      </trkpt>
      <trkpt lat="47.49146" lon="6.78448">
        <ele>334</ele>
        <time>2016-10-01T14:22:11.000Z</time>
      </trkpt>
      <trkpt lat="47.49144" lon="6.78444">
        <ele>334</ele>
        <time>2016-10-01T14:22:12.000Z</time>
      </trkpt>
      <trkpt lat="47.49143" lon="6.78439">
        <ele>334</ele>
        <time>2016-10-01T14:22:13.000Z</time>
      </trkpt>
      <trkpt lat="47.49141" lon="6.78435">
        <ele>334</ele>
        <time>2016-10-01T14:22:14.000Z</time>
      </trkpt>
      <trkpt lat="47.49139" lon="6.78431">
        <ele>334</ele>
        <time>2016-10-01T14:22:15.000Z</time>
      </trkpt>
      <trkpt lat="47.49138" lon="6.78427">
        <ele>334</ele>
        <time>2016-10-01T14:22:17.000Z</time>
      </trkpt>
      <trkpt lat="47.49137" lon="6.78425">
        <ele>334</ele>
        <time>2016-10-01T14:22:18.000Z</time>
      </trkpt>
      <trkpt lat="47.49134" lon="6.7842">
        <ele>334</ele>
        <time>2016-10-01T14:22:20.000Z</time>
      </trkpt>
      <trkpt lat="47.49132" lon="6.78417">
        <ele>333</ele>
        <time>2016-10-01T14:22:21.000Z</time>
      </trkpt>
      <trkpt lat="47.4913" lon="6.78414">
        <ele>336</ele>
        <time>2016-10-01T14:22:22.000Z</time>
      </trkpt>
      <trkpt lat="47.49129" lon="6.78412">
        <ele>336</ele>
        <time>2016-10-01T14:22:23.000Z</time>
      </trkpt>
      <trkpt lat="47.49127" lon="6.78409">
        <ele>336</ele>
        <time>2016-10-01T14:22:24.000Z</time>
      </trkpt>
      <trkpt lat="47.49125" lon="6.78405">
        <ele>335</ele>
        <time>2016-10-01T14:22:25.000Z</time>
      </trkpt>
      <trkpt lat="47.49123" lon="6.78401">
        <ele>335</ele>
        <time>2016-10-01T14:22:26.000Z</time>
      </trkpt>
      <trkpt lat="47.49121" lon="6.78397">
        <ele>335</ele>
        <time>2016-10-01T14:22:27.000Z</time>
      </trkpt>
      <trkpt lat="47.49119" lon="6.78393">
        <ele>335</ele>
        <time>2016-10-01T14:22:28.000Z</time>
      </trkpt>
      <trkpt lat="47.49118" lon="6.78388">
        <ele>335</ele>
        <time>2016-10-01T14:22:29.000Z</time>
      </trkpt>
      <trkpt lat="47.49116" lon="6.78384">
        <ele>335</ele>
        <time>2016-10-01T14:22:30.000Z</time>
      </trkpt>
      <trkpt lat="47.49115" lon="6.78379">
        <ele>335</ele>
        <time>2016-10-01T14:22:31.000Z</time>
      </trkpt>
      <trkpt lat="47.49114" lon="6.78375">
        <ele>335</ele>
        <time>2016-10-01T14:22:32.000Z</time>
      </trkpt>
      <trkpt lat="47.49112" lon="6.7837">
        <ele>335</ele>
        <time>2016-10-01T14:22:33.000Z</time>
      </trkpt>
      <trkpt lat="47.4911" lon="6.78364">
        <ele>335</ele>
        <time>2016-10-01T14:22:34.000Z</time>
      </trkpt>
      <trkpt lat="47.49108" lon="6.78356">
        <ele>335</ele>
        <time>2016-10-01T14:22:35.000Z</time>
      </trkpt>
      <trkpt lat="47.49107" lon="6.78351">
        <ele>335</ele>
        <time>2016-10-01T14:22:36.000Z</time>
      </trkpt>
      <trkpt lat="47.49105" lon="6.78346">
        <ele>334</ele>
        <time>2016-10-01T14:22:37.000Z</time>
      </trkpt>
      <trkpt lat="47.49103" lon="6.78341">
        <ele>334</ele>
        <time>2016-10-01T14:22:38.000Z</time>
      </trkpt>
      <trkpt lat="47.49101" lon="6.78336">
        <ele>334</ele>
        <time>2016-10-01T14:22:39.000Z</time>
      </trkpt>
      <trkpt lat="47.49099" lon="6.78331">
        <ele>335</ele>
        <time>2016-10-01T14:22:40.000Z</time>
      </trkpt>
      <trkpt lat="47.49097" lon="6.78326">
        <ele>335</ele>
        <time>2016-10-01T14:22:41.000Z</time>
      </trkpt>
      <trkpt lat="47.49095" lon="6.78321">
        <ele>335</ele>
        <time>2016-10-01T14:22:42.000Z</time>
      </trkpt>
      <trkpt lat="47.49093" lon="6.78316">
        <ele>336</ele>
        <time>2016-10-01T14:22:43.000Z</time>
      </trkpt>
      <trkpt lat="47.49091" lon="6.78311">
        <ele>336</ele>
        <time>2016-10-01T14:22:44.000Z</time>
      </trkpt>
      <trkpt lat="47.4909" lon="6.78307">
        <ele>337</ele>
        <time>2016-10-01T14:22:45.000Z</time>
      </trkpt>
      <trkpt lat="47.49088" lon="6.78303">
        <ele>337</ele>
        <time>2016-10-01T14:22:46.000Z</time>
      </trkpt>
      <trkpt lat="47.49085" lon="6.78299">
        <ele>337</ele>
        <time>2016-10-01T14:22:47.000Z</time>
      </trkpt>
      <trkpt lat="47.49081" lon="6.78295">
        <ele>332</ele>
        <time>2016-10-01T14:22:48.000Z</time>
      </trkpt>
      <trkpt lat="47.49077" lon="6.78291">
        <ele>332</ele>
        <time>2016-10-01T14:22:49.000Z</time>
      </trkpt>
      <trkpt lat="47.49073" lon="6.78288">
        <ele>332</ele>
        <time>2016-10-01T14:22:50.000Z</time>
      </trkpt>
      <trkpt lat="47.4907" lon="6.78285">
        <ele>332</ele>
        <time>2016-10-01T14:22:51.000Z</time>
      </trkpt>
      <trkpt lat="47.49068" lon="6.78282">
        <ele>332</ele>
        <time>2016-10-01T14:22:52.000Z</time>
      </trkpt>
      <trkpt lat="47.49066" lon="6.7828">
        <ele>332</ele>
        <time>2016-10-01T14:22:53.000Z</time>
      </trkpt>
      <trkpt lat="47.49063" lon="6.78277">
        <ele>332</ele>
        <time>2016-10-01T14:22:55.001Z</time>
      </trkpt>
      <trkpt lat="47.49059" lon="6.78276">
        <ele>332</ele>
        <time>2016-10-01T14:22:56.001Z</time>
      </trkpt>
      <trkpt lat="47.49056" lon="6.78274">
        <ele>332</ele>
        <time>2016-10-01T14:22:57.000Z</time>
      </trkpt>
      <trkpt lat="47.49054" lon="6.78273">
        <ele>331</ele>
        <time>2016-10-01T14:22:57.999Z</time>
      </trkpt>
      <trkpt lat="47.49048" lon="6.78271">
        <ele>331</ele>
        <time>2016-10-01T14:22:59.000Z</time>
      </trkpt>
      <trkpt lat="47.49044" lon="6.78268">
        <ele>331</ele>
        <time>2016-10-01T14:23:00.000Z</time>
      </trkpt>
      <trkpt lat="47.49042" lon="6.78266">
        <ele>331</ele>
        <time>2016-10-01T14:23:01.001Z</time>
      </trkpt>
      <trkpt lat="47.49037" lon="6.78261">
        <ele>330</ele>
        <time>2016-10-01T14:23:02.000Z</time>
      </trkpt>
      <trkpt lat="47.49034" lon="6.78257">
        <ele>330</ele>
        <time>2016-10-01T14:23:03.000Z</time>
      </trkpt>
      <trkpt lat="47.49032" lon="6.78254">
        <ele>330</ele>
        <time>2016-10-01T14:23:04.000Z</time>
      </trkpt>
      <trkpt lat="47.4903" lon="6.78251">
        <ele>330</ele>
        <time>2016-10-01T14:23:05.000Z</time>
      </trkpt>
      <trkpt lat="47.49029" lon="6.78248">
        <ele>334</ele>
        <time>2016-10-01T14:23:06.000Z</time>
      </trkpt>
      <trkpt lat="47.49026" lon="6.78244">
        <ele>334</ele>
        <time>2016-10-01T14:23:08.000Z</time>
      </trkpt>
      <trkpt lat="47.49026" lon="6.78242">
        <ele>334</ele>
        <time>2016-10-01T14:23:09.000Z</time>
      </trkpt>
      <trkpt lat="47.49024" lon="6.78238">
        <ele>334</ele>
        <time>2016-10-01T14:23:11.000Z</time>
      </trkpt>
      <trkpt lat="47.49022" lon="6.78235">
        <ele>334</ele>
        <time>2016-10-01T14:23:12.000Z</time>
      </trkpt>
      <trkpt lat="47.49021" lon="6.78231">
        <ele>334</ele>
        <time>2016-10-01T14:23:13.000Z</time>
      </trkpt>
      <trkpt lat="47.4902" lon="6.78228">
        <ele>334</ele>
        <time>2016-10-01T14:23:14.000Z</time>
      </trkpt>
      <trkpt lat="47.49019" lon="6.78223">
        <ele>334</ele>
        <time>2016-10-01T14:23:15.000Z</time>
      </trkpt>
      <trkpt lat="47.49019" lon="6.78219">
        <ele>335</ele>
        <time>2016-10-01T14:23:16.000Z</time>
      </trkpt>
      <trkpt lat="47.49017" lon="6.78213">
        <ele>335</ele>
        <time>2016-10-01T14:23:18.000Z</time>
      </trkpt>
      <trkpt lat="47.49015" lon="6.7821">
        <ele>335</ele>
        <time>2016-10-01T14:23:19.000Z</time>
      </trkpt>
      <trkpt lat="47.49013" lon="6.78208">
        <ele>335</ele>
        <time>2016-10-01T14:23:20.000Z</time>
      </trkpt>
      <trkpt lat="47.4901" lon="6.78205">
        <ele>335</ele>
        <time>2016-10-01T14:23:21.000Z</time>
      </trkpt>
      <trkpt lat="47.49008" lon="6.78202">
        <ele>335</ele>
        <time>2016-10-01T14:23:22.000Z</time>
      </trkpt>
      <trkpt lat="47.49006" lon="6.78199">
        <ele>336</ele>
        <time>2016-10-01T14:23:23.000Z</time>
      </trkpt>
      <trkpt lat="47.49005" lon="6.78196">
        <ele>336</ele>
        <time>2016-10-01T14:23:24.000Z</time>
      </trkpt>
      <trkpt lat="47.49004" lon="6.78191">
        <ele>336</ele>
        <time>2016-10-01T14:23:25.000Z</time>
      </trkpt>
      <trkpt lat="47.49003" lon="6.78186">
        <ele>336</ele>
        <time>2016-10-01T14:23:26.000Z</time>
      </trkpt>
      <trkpt lat="47.49" lon="6.78181">
        <ele>336</ele>
        <time>2016-10-01T14:23:27.000Z</time>
      </trkpt>
      <trkpt lat="47.48997" lon="6.78177">
        <ele>333</ele>
        <time>2016-10-01T14:23:28.000Z</time>
      </trkpt>
      <trkpt lat="47.48994" lon="6.78173">
        <ele>333</ele>
        <time>2016-10-01T14:23:29.000Z</time>
      </trkpt>
      <trkpt lat="47.4899" lon="6.7817">
        <ele>333</ele>
        <time>2016-10-01T14:23:30.000Z</time>
      </trkpt>
      <trkpt lat="47.48987" lon="6.78166">
        <ele>335</ele>
        <time>2016-10-01T14:23:31.000Z</time>
      </trkpt>
      <trkpt lat="47.48986" lon="6.78162">
        <ele>334</ele>
        <time>2016-10-01T14:23:32.000Z</time>
      </trkpt>
      <trkpt lat="47.48984" lon="6.78158">
        <ele>334</ele>
        <time>2016-10-01T14:23:33.000Z</time>
      </trkpt>
      <trkpt lat="47.48983" lon="6.78154">
        <ele>334</ele>
        <time>2016-10-01T14:23:34.000Z</time>
      </trkpt>
      <trkpt lat="47.48981" lon="6.7815">
        <ele>333</ele>
        <time>2016-10-01T14:23:35.000Z</time>
      </trkpt>
      <trkpt lat="47.48979" lon="6.78146">
        <ele>333</ele>
        <time>2016-10-01T14:23:36.000Z</time>
      </trkpt>
      <trkpt lat="47.48977" lon="6.78141">
        <ele>333</ele>
        <time>2016-10-01T14:23:37.000Z</time>
      </trkpt>
      <trkpt lat="47.48975" lon="6.78137">
        <ele>333</ele>
        <time>2016-10-01T14:23:38.000Z</time>
      </trkpt>
      <trkpt lat="47.48974" lon="6.78133">
        <ele>333</ele>
        <time>2016-10-01T14:23:39.000Z</time>
      </trkpt>
      <trkpt lat="47.48972" lon="6.78128">
        <ele>333</ele>
        <time>2016-10-01T14:23:40.000Z</time>
      </trkpt>
      <trkpt lat="47.48971" lon="6.78124">
        <ele>333</ele>
        <time>2016-10-01T14:23:41.000Z</time>
      </trkpt>
      <trkpt lat="47.48969" lon="6.78119">
        <ele>333</ele>
        <time>2016-10-01T14:23:42.000Z</time>
      </trkpt>
      <trkpt lat="47.48968" lon="6.78115">
        <ele>333</ele>
        <time>2016-10-01T14:23:43.000Z</time>
      </trkpt>
      <trkpt lat="47.48967" lon="6.78112">
        <ele>333</ele>
        <time>2016-10-01T14:23:44.000Z</time>
      </trkpt>
      <trkpt lat="47.48966" lon="6.78108">
        <ele>333</ele>
        <time>2016-10-01T14:23:45.000Z</time>
      </trkpt>
      <trkpt lat="47.48965" lon="6.78104">
        <ele>333</ele>
        <time>2016-10-01T14:23:46.000Z</time>
      </trkpt>
      <trkpt lat="47.48964" lon="6.781">
        <ele>333</ele>
        <time>2016-10-01T14:23:47.000Z</time>
      </trkpt>
      <trkpt lat="47.48963" lon="6.78096">
        <ele>333</ele>
        <time>2016-10-01T14:23:48.000Z</time>
      </trkpt>
      <trkpt lat="47.48963" lon="6.78092">
        <ele>333</ele>
        <time>2016-10-01T14:23:49.000Z</time>
      </trkpt>
      <trkpt lat="47.48962" lon="6.78086">
        <ele>333</ele>
        <time>2016-10-01T14:23:50.000Z</time>
      </trkpt>
      <trkpt lat="47.4896" lon="6.78081">
        <ele>337</ele>
        <time>2016-10-01T14:23:51.000Z</time>
      </trkpt>
      <trkpt lat="47.48958" lon="6.78075">
        <ele>337</ele>
        <time>2016-10-01T14:23:52.000Z</time>
      </trkpt>
      <trkpt lat="47.48957" lon="6.78069">
        <ele>337</ele>
        <time>2016-10-01T14:23:53.000Z</time>
      </trkpt>
      <trkpt lat="47.48955" lon="6.78064">
        <ele>337</ele>
        <time>2016-10-01T14:23:54.000Z</time>
      </trkpt>
      <trkpt lat="47.48954" lon="6.78058">
        <ele>337</ele>
        <time>2016-10-01T14:23:55.000Z</time>
      </trkpt>
      <trkpt lat="47.48952" lon="6.78053">
        <ele>337</ele>
        <time>2016-10-01T14:23:56.000Z</time>
      </trkpt>
      <trkpt lat="47.48951" lon="6.7805">
        <ele>337</ele>
        <time>2016-10-01T14:23:57.000Z</time>
      </trkpt>
      <trkpt lat="47.4895" lon="6.78046">
        <ele>337</ele>
        <time>2016-10-01T14:23:58.000Z</time>
      </trkpt>
      <trkpt lat="47.48949" lon="6.78042">
        <ele>337</ele>
        <time>2016-10-01T14:23:59.000Z</time>
      </trkpt>
      <trkpt lat="47.48947" lon="6.78038">
        <ele>337</ele>
        <time>2016-10-01T14:24:00.000Z</time>
      </trkpt>
      <trkpt lat="47.48945" lon="6.78034">
        <ele>337</ele>
        <time>2016-10-01T14:24:01.000Z</time>
      </trkpt>
      <trkpt lat="47.48942" lon="6.7803">
        <ele>337</ele>
        <time>2016-10-01T14:24:02.000Z</time>
      </trkpt>
      <trkpt lat="47.48941" lon="6.78026">
        <ele>337</ele>
        <time>2016-10-01T14:24:03.000Z</time>
      </trkpt>
      <trkpt lat="47.48939" lon="6.78022">
        <ele>337</ele>
        <time>2016-10-01T14:24:04.000Z</time>
      </trkpt>
      <trkpt lat="47.48937" lon="6.78018">
        <ele>338</ele>
        <time>2016-10-01T14:24:05.000Z</time>
      </trkpt>
      <trkpt lat="47.48936" lon="6.78012">
        <ele>338</ele>
        <time>2016-10-01T14:24:06.000Z</time>
      </trkpt>
      <trkpt lat="47.48934" lon="6.78007">
        <ele>338</ele>
        <time>2016-10-01T14:24:07.000Z</time>
      </trkpt>
      <trkpt lat="47.48933" lon="6.78001">
        <ele>338</ele>
        <time>2016-10-01T14:24:08.000Z</time>
      </trkpt>
      <trkpt lat="47.4893" lon="6.77995">
        <ele>339</ele>
        <time>2016-10-01T14:24:09.000Z</time>
      </trkpt>
      <trkpt lat="47.48928" lon="6.7799">
        <ele>339</ele>
        <time>2016-10-01T14:24:10.000Z</time>
      </trkpt>
      <trkpt lat="47.48926" lon="6.77985">
        <ele>339</ele>
        <time>2016-10-01T14:24:11.000Z</time>
      </trkpt>
      <trkpt lat="47.48923" lon="6.7798">
        <ele>339</ele>
        <time>2016-10-01T14:24:12.000Z</time>
      </trkpt>
      <trkpt lat="47.48922" lon="6.77975">
        <ele>339</ele>
        <time>2016-10-01T14:24:13.000Z</time>
      </trkpt>
      <trkpt lat="47.48919" lon="6.7797">
        <ele>339</ele>
        <time>2016-10-01T14:24:14.000Z</time>
      </trkpt>
      <trkpt lat="47.48916" lon="6.77965">
        <ele>334</ele>
        <time>2016-10-01T14:24:15.000Z</time>
      </trkpt>
      <trkpt lat="47.48911" lon="6.77961">
        <ele>334</ele>
        <time>2016-10-01T14:24:16.000Z</time>
      </trkpt>
      <trkpt lat="47.48906" lon="6.77957">
        <ele>333</ele>
        <time>2016-10-01T14:24:17.000Z</time>
      </trkpt>
      <trkpt lat="47.48902" lon="6.77954">
        <ele>333</ele>
        <time>2016-10-01T14:24:18.000Z</time>
      </trkpt>
      <trkpt lat="47.48899" lon="6.7795">
        <ele>333</ele>
        <time>2016-10-01T14:24:19.000Z</time>
      </trkpt>
      <trkpt lat="47.48896" lon="6.77944">
        <ele>333</ele>
        <time>2016-10-01T14:24:20.000Z</time>
      </trkpt>
      <trkpt lat="47.48894" lon="6.77938">
        <ele>333</ele>
        <time>2016-10-01T14:24:21.000Z</time>
      </trkpt>
      <trkpt lat="47.48891" lon="6.77931">
        <ele>333</ele>
        <time>2016-10-01T14:24:22.000Z</time>
      </trkpt>
      <trkpt lat="47.48889" lon="6.77925">
        <ele>333</ele>
        <time>2016-10-01T14:24:23.000Z</time>
      </trkpt>
      <trkpt lat="47.48887" lon="6.77919">
        <ele>333</ele>
        <time>2016-10-01T14:24:24.000Z</time>
      </trkpt>
      <trkpt lat="47.48873" lon="6.77906">
        <ele>333</ele>
        <time>2016-10-01T14:24:25.000Z</time>
      </trkpt>
      <trkpt lat="47.48867" lon="6.77903">
        <ele>333</ele>
        <time>2016-10-01T14:24:26.000Z</time>
      </trkpt>
      <trkpt lat="47.4887" lon="6.77899">
        <ele>333</ele>
        <time>2016-10-01T14:24:27.000Z</time>
      </trkpt>
      <trkpt lat="47.48867" lon="6.77894">
        <ele>333</ele>
        <time>2016-10-01T14:24:28.000Z</time>
      </trkpt>
      <trkpt lat="47.48864" lon="6.77889">
        <ele>333</ele>
        <time>2016-10-01T14:24:29.000Z</time>
      </trkpt>
      <trkpt lat="47.48865" lon="6.77885">
        <ele>333</ele>
        <time>2016-10-01T14:24:30.000Z</time>
      </trkpt>
      <trkpt lat="47.48864" lon="6.77881">
        <ele>333</ele>
        <time>2016-10-01T14:24:31.000Z</time>
      </trkpt>
      <trkpt lat="47.48862" lon="6.77877">
        <ele>333</ele>
        <time>2016-10-01T14:24:32.000Z</time>
      </trkpt>
      <trkpt lat="47.4886" lon="6.77873">
        <ele>333</ele>
        <time>2016-10-01T14:24:33.000Z</time>
      </trkpt>
      <trkpt lat="47.48859" lon="6.77869">
        <ele>333</ele>
        <time>2016-10-01T14:24:34.000Z</time>
      </trkpt>
      <trkpt lat="47.48858" lon="6.77864">
        <ele>333</ele>
        <time>2016-10-01T14:24:35.000Z</time>
      </trkpt>
      <trkpt lat="47.48857" lon="6.77861">
        <ele>333</ele>
        <time>2016-10-01T14:24:36.000Z</time>
      </trkpt>
      <trkpt lat="47.48855" lon="6.77857">
        <ele>333</ele>
        <time>2016-10-01T14:24:37.000Z</time>
      </trkpt>
      <trkpt lat="47.48854" lon="6.77853">
        <ele>333</ele>
        <time>2016-10-01T14:24:38.000Z</time>
      </trkpt>
      <trkpt lat="47.48852" lon="6.7785">
        <ele>333</ele>
        <time>2016-10-01T14:24:39.000Z</time>
      </trkpt>
      <trkpt lat="47.4885" lon="6.77846">
        <ele>333</ele>
        <time>2016-10-01T14:24:40.000Z</time>
      </trkpt>
      <trkpt lat="47.48849" lon="6.77841">
        <ele>333</ele>
        <time>2016-10-01T14:24:41.000Z</time>
      </trkpt>
      <trkpt lat="47.48847" lon="6.77837">
        <ele>333</ele>
        <time>2016-10-01T14:24:42.000Z</time>
      </trkpt>
      <trkpt lat="47.48845" lon="6.77832">
        <ele>333</ele>
        <time>2016-10-01T14:24:43.000Z</time>
      </trkpt>
      <trkpt lat="47.48844" lon="6.77827">
        <ele>333</ele>
        <time>2016-10-01T14:24:44.000Z</time>
      </trkpt>
      <trkpt lat="47.48843" lon="6.77823">
        <ele>333</ele>
        <time>2016-10-01T14:24:45.000Z</time>
      </trkpt>
      <trkpt lat="47.48842" lon="6.77818">
        <ele>334</ele>
        <time>2016-10-01T14:24:46.000Z</time>
      </trkpt>
      <trkpt lat="47.48841" lon="6.77813">
        <ele>334</ele>
        <time>2016-10-01T14:24:47.000Z</time>
      </trkpt>
      <trkpt lat="47.48839" lon="6.77809">
        <ele>334</ele>
        <time>2016-10-01T14:24:48.000Z</time>
      </trkpt>
      <trkpt lat="47.48838" lon="6.77804">
        <ele>334</ele>
        <time>2016-10-01T14:24:49.000Z</time>
      </trkpt>
      <trkpt lat="47.48836" lon="6.77799">
        <ele>334</ele>
        <time>2016-10-01T14:24:50.000Z</time>
      </trkpt>
      <trkpt lat="47.48826" lon="6.77785">
        <ele>328</ele>
        <time>2016-10-01T14:24:51.000Z</time>
      </trkpt>
      <trkpt lat="47.48821" lon="6.77779">
        <ele>328</ele>
        <time>2016-10-01T14:24:52.000Z</time>
      </trkpt>
      <trkpt lat="47.48816" lon="6.77773">
        <ele>328</ele>
        <time>2016-10-01T14:24:53.000Z</time>
      </trkpt>
      <trkpt lat="47.48812" lon="6.77767">
        <ele>328</ele>
        <time>2016-10-01T14:24:54.000Z</time>
      </trkpt>
      <trkpt lat="47.4881" lon="6.77761">
        <ele>328</ele>
        <time>2016-10-01T14:24:55.000Z</time>
      </trkpt>
      <trkpt lat="47.48808" lon="6.77758">
        <ele>328</ele>
        <time>2016-10-01T14:24:56.000Z</time>
      </trkpt>
      <trkpt lat="47.48806" lon="6.77753">
        <ele>328</ele>
        <time>2016-10-01T14:24:57.000Z</time>
      </trkpt>
      <trkpt lat="47.48804" lon="6.77748">
        <ele>329</ele>
        <time>2016-10-01T14:24:58.000Z</time>
      </trkpt>
      <trkpt lat="47.48797" lon="6.77739">
        <ele>328</ele>
        <time>2016-10-01T14:24:59.000Z</time>
      </trkpt>
      <trkpt lat="47.48794" lon="6.77736">
        <ele>328</ele>
        <time>2016-10-01T14:25:00.000Z</time>
      </trkpt>
      <trkpt lat="47.48792" lon="6.77732">
        <ele>328</ele>
        <time>2016-10-01T14:25:01.000Z</time>
      </trkpt>
      <trkpt lat="47.48789" lon="6.77727">
        <ele>328</ele>
        <time>2016-10-01T14:25:02.000Z</time>
      </trkpt>
      <trkpt lat="47.48787" lon="6.77723">
        <ele>328</ele>
        <time>2016-10-01T14:25:03.000Z</time>
      </trkpt>
      <trkpt lat="47.48785" lon="6.77719">
        <ele>328</ele>
        <time>2016-10-01T14:25:04.000Z</time>
      </trkpt>
      <trkpt lat="47.48782" lon="6.77717">
        <ele>328</ele>
        <time>2016-10-01T14:25:05.000Z</time>
      </trkpt>
      <trkpt lat="47.48783" lon="6.77715">
        <ele>328</ele>
        <time>2016-10-01T14:25:06.000Z</time>
      </trkpt>
      <trkpt lat="47.48779" lon="6.77711">
        <ele>328</ele>
        <time>2016-10-01T14:25:07.000Z</time>
      </trkpt>
      <trkpt lat="47.48778" lon="6.77706">
        <ele>328</ele>
        <time>2016-10-01T14:25:08.000Z</time>
      </trkpt>
      <trkpt lat="47.48778" lon="6.77702">
        <ele>328</ele>
        <time>2016-10-01T14:25:09.000Z</time>
      </trkpt>
      <trkpt lat="47.48776" lon="6.77698">
        <ele>328</ele>
        <time>2016-10-01T14:25:12.000Z</time>
      </trkpt>
      <trkpt lat="47.48775" lon="6.77694">
        <ele>328</ele>
        <time>2016-10-01T14:25:13.000Z</time>
      </trkpt>
      <trkpt lat="47.48772" lon="6.77689">
        <ele>329</ele>
        <time>2016-10-01T14:25:15.000Z</time>
      </trkpt>
      <trkpt lat="47.4877" lon="6.77685">
        <ele>329</ele>
        <time>2016-10-01T14:25:16.000Z</time>
      </trkpt>
      <trkpt lat="47.48767" lon="6.77683">
        <ele>329</ele>
        <time>2016-10-01T14:25:19.000Z</time>
      </trkpt>
      <trkpt lat="47.48766" lon="6.77682">
        <ele>329</ele>
        <time>2016-10-01T14:25:20.000Z</time>
      </trkpt>
      <trkpt lat="47.48763" lon="6.77679">
        <ele>329</ele>
        <time>2016-10-01T14:25:23.000Z</time>
      </trkpt>
      <trkpt lat="47.48761" lon="6.77678">
        <ele>329</ele>
        <time>2016-10-01T14:25:24.000Z</time>
      </trkpt>
      <trkpt lat="47.48759" lon="6.77675">
        <ele>330</ele>
        <time>2016-10-01T14:25:26.000Z</time>
      </trkpt>
      <trkpt lat="47.48758" lon="6.77674">
        <ele>330</ele>
        <time>2016-10-01T14:25:27.000Z</time>
      </trkpt>
      <trkpt lat="47.48753" lon="6.77672">
        <ele>330</ele>
        <time>2016-10-01T14:25:29.000Z</time>
      </trkpt>
      <trkpt lat="47.48752" lon="6.77671">
        <ele>330</ele>
        <time>2016-10-01T14:25:30.000Z</time>
      </trkpt>
      <trkpt lat="47.48748" lon="6.77669">
        <ele>330</ele>
        <time>2016-10-01T14:25:35.000Z</time>
      </trkpt>
      <trkpt lat="47.48747" lon="6.77669">
        <ele>329</ele>
        <time>2016-10-01T14:25:36.000Z</time>
      </trkpt>
      <trkpt lat="47.48744" lon="6.77666">
        <ele>331</ele>
        <time>2016-10-01T14:25:51.000Z</time>
      </trkpt>
      <trkpt lat="47.48743" lon="6.77665">
        <ele>331</ele>
        <time>2016-10-01T14:25:52.000Z</time>
      </trkpt>
      <trkpt lat="47.48741" lon="6.77661">
        <ele>330</ele>
        <time>2016-10-01T14:25:54.000Z</time>
      </trkpt>
      <trkpt lat="47.4874" lon="6.77658">
        <ele>330</ele>
        <time>2016-10-01T14:25:55.000Z</time>
      </trkpt>
      <trkpt lat="47.48739" lon="6.77656">
        <ele>330</ele>
        <time>2016-10-01T14:25:56.000Z</time>
      </trkpt>
      <trkpt lat="47.48737" lon="6.77653">
        <ele>330</ele>
        <time>2016-10-01T14:25:57.000Z</time>
      </trkpt>
      <trkpt lat="47.48736" lon="6.77649">
        <ele>330</ele>
        <time>2016-10-01T14:25:58.000Z</time>
      </trkpt>
      <trkpt lat="47.48734" lon="6.77646">
        <ele>330</ele>
        <time>2016-10-01T14:25:59.000Z</time>
      </trkpt>
      <trkpt lat="47.48732" lon="6.77642">
        <ele>330</ele>
        <time>2016-10-01T14:26:00.000Z</time>
      </trkpt>
      <trkpt lat="47.4873" lon="6.77638">
        <ele>330</ele>
        <time>2016-10-01T14:26:01.000Z</time>
      </trkpt>
      <trkpt lat="47.48728" lon="6.77634">
        <ele>330</ele>
        <time>2016-10-01T14:26:02.000Z</time>
      </trkpt>
      <trkpt lat="47.48726" lon="6.7763">
        <ele>330</ele>
        <time>2016-10-01T14:26:03.000Z</time>
      </trkpt>
      <trkpt lat="47.48724" lon="6.77626">
        <ele>330</ele>
        <time>2016-10-01T14:26:04.000Z</time>
      </trkpt>
      <trkpt lat="47.48722" lon="6.77622">
        <ele>331</ele>
        <time>2016-10-01T14:26:05.000Z</time>
      </trkpt>
      <trkpt lat="47.48719" lon="6.77617">
        <ele>331</ele>
        <time>2016-10-01T14:26:06.000Z</time>
      </trkpt>
      <trkpt lat="47.48717" lon="6.77612">
        <ele>331</ele>
        <time>2016-10-01T14:26:07.000Z</time>
      </trkpt>
      <trkpt lat="47.48715" lon="6.77609">
        <ele>331</ele>
        <time>2016-10-01T14:26:08.000Z</time>
      </trkpt>
      <trkpt lat="47.48713" lon="6.77605">
        <ele>331</ele>
        <time>2016-10-01T14:26:09.000Z</time>
      </trkpt>
      <trkpt lat="47.4871" lon="6.776">
        <ele>331</ele>
        <time>2016-10-01T14:26:11.000Z</time>
      </trkpt>
      <trkpt lat="47.48709" lon="6.77598">
        <ele>331</ele>
        <time>2016-10-01T14:26:12.000Z</time>
      </trkpt>
      <trkpt lat="47.48707" lon="6.77595">
        <ele>331</ele>
        <time>2016-10-01T14:26:13.000Z</time>
      </trkpt>
      <trkpt lat="47.48706" lon="6.77592">
        <ele>331</ele>
        <time>2016-10-01T14:26:14.000Z</time>
      </trkpt>
      <trkpt lat="47.48703" lon="6.77588">
        <ele>331</ele>
        <time>2016-10-01T14:26:15.000Z</time>
      </trkpt>
      <trkpt lat="47.487" lon="6.77584">
        <ele>331</ele>
        <time>2016-10-01T14:26:16.000Z</time>
      </trkpt>
      <trkpt lat="47.48697" lon="6.7758">
        <ele>335</ele>
        <time>2016-10-01T14:26:17.000Z</time>
      </trkpt>
      <trkpt lat="47.48694" lon="6.77576">
        <ele>335</ele>
        <time>2016-10-01T14:26:18.000Z</time>
      </trkpt>
      <trkpt lat="47.48691" lon="6.77572">
        <ele>335</ele>
        <time>2016-10-01T14:26:19.000Z</time>
      </trkpt>
      <trkpt lat="47.48689" lon="6.77568">
        <ele>335</ele>
        <time>2016-10-01T14:26:20.000Z</time>
      </trkpt>
      <trkpt lat="47.48686" lon="6.77564">
        <ele>335</ele>
        <time>2016-10-01T14:26:21.000Z</time>
      </trkpt>
      <trkpt lat="47.48684" lon="6.7756">
        <ele>335</ele>
        <time>2016-10-01T14:26:22.000Z</time>
      </trkpt>
      <trkpt lat="47.48682" lon="6.77556">
        <ele>335</ele>
        <time>2016-10-01T14:26:23.000Z</time>
      </trkpt>
      <trkpt lat="47.4868" lon="6.77552">
        <ele>335</ele>
        <time>2016-10-01T14:26:24.000Z</time>
      </trkpt>
      <trkpt lat="47.48679" lon="6.77548">
        <ele>335</ele>
        <time>2016-10-01T14:26:25.000Z</time>
      </trkpt>
      <trkpt lat="47.48677" lon="6.77545">
        <ele>336</ele>
        <time>2016-10-01T14:26:26.000Z</time>
      </trkpt>
      <trkpt lat="47.48674" lon="6.77542">
        <ele>336</ele>
        <time>2016-10-01T14:26:27.000Z</time>
      </trkpt>
      <trkpt lat="47.48672" lon="6.7754">
        <ele>336</ele>
        <time>2016-10-01T14:26:28.000Z</time>
      </trkpt>
      <trkpt lat="47.48668" lon="6.77536">
        <ele>336</ele>
        <time>2016-10-01T14:26:31.000Z</time>
      </trkpt>
      <trkpt lat="47.48667" lon="6.77535">
        <ele>336</ele>
        <time>2016-10-01T14:26:32.000Z</time>
      </trkpt>
      <trkpt lat="47.48664" lon="6.77533">
        <ele>332</ele>
        <time>2016-10-01T14:26:34.000Z</time>
      </trkpt>
      <trkpt lat="47.48662" lon="6.7753">
        <ele>333</ele>
        <time>2016-10-01T14:26:35.000Z</time>
      </trkpt>
      <trkpt lat="47.4866" lon="6.77527">
        <ele>333</ele>
        <time>2016-10-01T14:26:36.000Z</time>
      </trkpt>
      <trkpt lat="47.48657" lon="6.77524">
        <ele>333</ele>
        <time>2016-10-01T14:26:37.000Z</time>
      </trkpt>
      <trkpt lat="47.48654" lon="6.77519">
        <ele>334</ele>
        <time>2016-10-01T14:26:38.000Z</time>
      </trkpt>
      <trkpt lat="47.48651" lon="6.77513">
        <ele>334</ele>
        <time>2016-10-01T14:26:39.000Z</time>
      </trkpt>
      <trkpt lat="47.48648" lon="6.77508">
        <ele>334</ele>
        <time>2016-10-01T14:26:40.000Z</time>
      </trkpt>
      <trkpt lat="47.48645" lon="6.77503">
        <ele>334</ele>
        <time>2016-10-01T14:26:41.000Z</time>
      </trkpt>
      <trkpt lat="47.48641" lon="6.77498">
        <ele>337</ele>
        <time>2016-10-01T14:26:42.000Z</time>
      </trkpt>
      <trkpt lat="47.48637" lon="6.77494">
        <ele>337</ele>
        <time>2016-10-01T14:26:43.000Z</time>
      </trkpt>
      <trkpt lat="47.48633" lon="6.77489">
        <ele>336</ele>
        <time>2016-10-01T14:26:44.000Z</time>
      </trkpt>
      <trkpt lat="47.4863" lon="6.77484">
        <ele>336</ele>
        <time>2016-10-01T14:26:45.000Z</time>
      </trkpt>
      <trkpt lat="47.48627" lon="6.77479">
        <ele>336</ele>
        <time>2016-10-01T14:26:46.000Z</time>
      </trkpt>
      <trkpt lat="47.48626" lon="6.77474">
        <ele>336</ele>
        <time>2016-10-01T14:26:47.000Z</time>
      </trkpt>
      <trkpt lat="47.48625" lon="6.7747">
        <ele>336</ele>
        <time>2016-10-01T14:26:48.000Z</time>
      </trkpt>
      <trkpt lat="47.48623" lon="6.77466">
        <ele>336</ele>
        <time>2016-10-01T14:26:49.000Z</time>
      </trkpt>
      <trkpt lat="47.48622" lon="6.77463">
        <ele>336</ele>
        <time>2016-10-01T14:26:50.000Z</time>
      </trkpt>
      <trkpt lat="47.48619" lon="6.7746">
        <ele>336</ele>
        <time>2016-10-01T14:26:51.000Z</time>
      </trkpt>
      <trkpt lat="47.48616" lon="6.77457">
        <ele>336</ele>
        <time>2016-10-01T14:26:52.000Z</time>
      </trkpt>
      <trkpt lat="47.48614" lon="6.77455">
        <ele>336</ele>
        <time>2016-10-01T14:26:53.000Z</time>
      </trkpt>
      <trkpt lat="47.48611" lon="6.77453">
        <ele>336</ele>
        <time>2016-10-01T14:26:54.000Z</time>
      </trkpt>
      <trkpt lat="47.48608" lon="6.77451">
        <ele>336</ele>
        <time>2016-10-01T14:26:55.000Z</time>
      </trkpt>
      <trkpt lat="47.48605" lon="6.77449">
        <ele>336</ele>
        <time>2016-10-01T14:26:56.000Z</time>
      </trkpt>
      <trkpt lat="47.48602" lon="6.77447">
        <ele>337</ele>
        <time>2016-10-01T14:26:57.000Z</time>
      </trkpt>
      <trkpt lat="47.48599" lon="6.77445">
        <ele>337</ele>
        <time>2016-10-01T14:26:58.000Z</time>
      </trkpt>
      <trkpt lat="47.48595" lon="6.77443">
        <ele>337</ele>
        <time>2016-10-01T14:26:59.000Z</time>
      </trkpt>
      <trkpt lat="47.48592" lon="6.7744">
        <ele>337</ele>
        <time>2016-10-01T14:27:00.000Z</time>
      </trkpt>
      <trkpt lat="47.48589" lon="6.77438">
        <ele>338</ele>
        <time>2016-10-01T14:27:01.000Z</time>
      </trkpt>
      <trkpt lat="47.48586" lon="6.77436">
        <ele>338</ele>
        <time>2016-10-01T14:27:02.000Z</time>
      </trkpt>
      <trkpt lat="47.48583" lon="6.77433">
        <ele>334</ele>
        <time>2016-10-01T14:27:03.000Z</time>
      </trkpt>
      <trkpt lat="47.4858" lon="6.77431">
        <ele>335</ele>
        <time>2016-10-01T14:27:04.000Z</time>
      </trkpt>
      <trkpt lat="47.48577" lon="6.77428">
        <ele>335</ele>
        <time>2016-10-01T14:27:05.000Z</time>
      </trkpt>
      <trkpt lat="47.48573" lon="6.77425">
        <ele>335</ele>
        <time>2016-10-01T14:27:06.000Z</time>
      </trkpt>
      <trkpt lat="47.4857" lon="6.77422">
        <ele>335</ele>
        <time>2016-10-01T14:27:07.000Z</time>
      </trkpt>
      <trkpt lat="47.48565" lon="6.77418">
        <ele>334</ele>
        <time>2016-10-01T14:27:08.000Z</time>
      </trkpt>
      <trkpt lat="47.48561" lon="6.77414">
        <ele>337</ele>
        <time>2016-10-01T14:27:09.000Z</time>
      </trkpt>
      <trkpt lat="47.48557" lon="6.7741">
        <ele>337</ele>
        <time>2016-10-01T14:27:10.000Z</time>
      </trkpt>
      <trkpt lat="47.48553" lon="6.77406">
        <ele>336</ele>
        <time>2016-10-01T14:27:11.000Z</time>
      </trkpt>
      <trkpt lat="47.4855" lon="6.77401">
        <ele>336</ele>
        <time>2016-10-01T14:27:12.000Z</time>
      </trkpt>
      <trkpt lat="47.48547" lon="6.77396">
        <ele>336</ele>
        <time>2016-10-01T14:27:13.000Z</time>
      </trkpt>
      <trkpt lat="47.48545" lon="6.77392">
        <ele>336</ele>
        <time>2016-10-01T14:27:14.000Z</time>
      </trkpt>
      <trkpt lat="47.48541" lon="6.77388">
        <ele>336</ele>
        <time>2016-10-01T14:27:15.000Z</time>
      </trkpt>
      <trkpt lat="47.48538" lon="6.77384">
        <ele>336</ele>
        <time>2016-10-01T14:27:16.000Z</time>
      </trkpt>
      <trkpt lat="47.48535" lon="6.7738">
        <ele>336</ele>
        <time>2016-10-01T14:27:17.000Z</time>
      </trkpt>
      <trkpt lat="47.48532" lon="6.77375">
        <ele>336</ele>
        <time>2016-10-01T14:27:18.000Z</time>
      </trkpt>
      <trkpt lat="47.48529" lon="6.7737">
        <ele>336</ele>
        <time>2016-10-01T14:27:19.000Z</time>
      </trkpt>
      <trkpt lat="47.48525" lon="6.77366">
        <ele>336</ele>
        <time>2016-10-01T14:27:20.000Z</time>
      </trkpt>
      <trkpt lat="47.48522" lon="6.77362">
        <ele>336</ele>
        <time>2016-10-01T14:27:21.000Z</time>
      </trkpt>
      <trkpt lat="47.48518" lon="6.77359">
        <ele>336</ele>
        <time>2016-10-01T14:27:22.000Z</time>
      </trkpt>
      <trkpt lat="47.48515" lon="6.77355">
        <ele>337</ele>
        <time>2016-10-01T14:27:23.000Z</time>
      </trkpt>
      <trkpt lat="47.48511" lon="6.77351">
        <ele>337</ele>
        <time>2016-10-01T14:27:24.000Z</time>
      </trkpt>
      <trkpt lat="47.48506" lon="6.77347">
        <ele>338</ele>
        <time>2016-10-01T14:27:25.000Z</time>
      </trkpt>
      <trkpt lat="47.48503" lon="6.77343">
        <ele>338</ele>
        <time>2016-10-01T14:27:26.000Z</time>
      </trkpt>
      <trkpt lat="47.48499" lon="6.77339">
        <ele>337</ele>
        <time>2016-10-01T14:27:27.000Z</time>
      </trkpt>
      <trkpt lat="47.48495" lon="6.77335">
        <ele>338</ele>
        <time>2016-10-01T14:27:28.000Z</time>
      </trkpt>
      <trkpt lat="47.48492" lon="6.77331">
        <ele>338</ele>
        <time>2016-10-01T14:27:29.000Z</time>
      </trkpt>
      <trkpt lat="47.48488" lon="6.77327">
        <ele>337</ele>
        <time>2016-10-01T14:27:30.000Z</time>
      </trkpt>
      <trkpt lat="47.48484" lon="6.77322">
        <ele>337</ele>
        <time>2016-10-01T14:27:31.000Z</time>
      </trkpt>
      <trkpt lat="47.4848" lon="6.77317">
        <ele>336</ele>
        <time>2016-10-01T14:27:32.000Z</time>
      </trkpt>
      <trkpt lat="47.48475" lon="6.77313">
        <ele>335</ele>
        <time>2016-10-01T14:27:33.000Z</time>
      </trkpt>
      <trkpt lat="47.4847" lon="6.7731">
        <ele>335</ele>
        <time>2016-10-01T14:27:34.000Z</time>
      </trkpt>
      <trkpt lat="47.48466" lon="6.77307">
        <ele>335</ele>
        <time>2016-10-01T14:27:35.000Z</time>
      </trkpt>
      <trkpt lat="47.48462" lon="6.77306">
        <ele>334</ele>
        <time>2016-10-01T14:27:36.000Z</time>
      </trkpt>
      <trkpt lat="47.48458" lon="6.77304">
        <ele>334</ele>
        <time>2016-10-01T14:27:37.000Z</time>
      </trkpt>
      <trkpt lat="47.48455" lon="6.77302">
        <ele>334</ele>
        <time>2016-10-01T14:27:38.000Z</time>
      </trkpt>
      <trkpt lat="47.48452" lon="6.773">
        <ele>334</ele>
        <time>2016-10-01T14:27:39.000Z</time>
      </trkpt>
      <trkpt lat="47.4845" lon="6.77297">
        <ele>334</ele>
        <time>2016-10-01T14:27:40.000Z</time>
      </trkpt>
      <trkpt lat="47.48447" lon="6.77294">
        <ele>334</ele>
        <time>2016-10-01T14:27:41.000Z</time>
      </trkpt>
      <trkpt lat="47.48444" lon="6.7729">
        <ele>334</ele>
        <time>2016-10-01T14:27:42.000Z</time>
      </trkpt>
      <trkpt lat="47.4844" lon="6.77286">
        <ele>334</ele>
        <time>2016-10-01T14:27:43.000Z</time>
      </trkpt>
      <trkpt lat="47.48437" lon="6.77282">
        <ele>334</ele>
        <time>2016-10-01T14:27:44.000Z</time>
      </trkpt>
      <trkpt lat="47.48433" lon="6.77277">
        <ele>334</ele>
        <time>2016-10-01T14:27:45.000Z</time>
      </trkpt>
      <trkpt lat="47.4843" lon="6.77272">
        <ele>334</ele>
        <time>2016-10-01T14:27:46.000Z</time>
      </trkpt>
      <trkpt lat="47.48426" lon="6.77268">
        <ele>334</ele>
        <time>2016-10-01T14:27:47.000Z</time>
      </trkpt>
      <trkpt lat="47.48421" lon="6.77264">
        <ele>334</ele>
        <time>2016-10-01T14:27:48.000Z</time>
      </trkpt>
      <trkpt lat="47.48399" lon="6.77253">
        <ele>330</ele>
        <time>2016-10-01T14:27:49.000Z</time>
      </trkpt>
      <trkpt lat="47.48394" lon="6.7725">
        <ele>332</ele>
        <time>2016-10-01T14:27:50.000Z</time>
      </trkpt>
      <trkpt lat="47.4839" lon="6.77248">
        <ele>331</ele>
        <time>2016-10-01T14:27:51.000Z</time>
      </trkpt>
      <trkpt lat="47.48387" lon="6.77246">
        <ele>331</ele>
        <time>2016-10-01T14:27:52.000Z</time>
      </trkpt>
      <trkpt lat="47.48383" lon="6.77244">
        <ele>331</ele>
        <time>2016-10-01T14:27:53.000Z</time>
      </trkpt>
      <trkpt lat="47.4838" lon="6.77243">
        <ele>330</ele>
        <time>2016-10-01T14:27:54.000Z</time>
      </trkpt>
      <trkpt lat="47.48378" lon="6.77241">
        <ele>330</ele>
        <time>2016-10-01T14:27:55.000Z</time>
      </trkpt>
      <trkpt lat="47.48376" lon="6.77239">
        <ele>330</ele>
        <time>2016-10-01T14:27:56.000Z</time>
      </trkpt>
      <trkpt lat="47.48374" lon="6.77237">
        <ele>330</ele>
        <time>2016-10-01T14:27:57.000Z</time>
      </trkpt>
      <trkpt lat="47.48373" lon="6.77234">
        <ele>330</ele>
        <time>2016-10-01T14:27:58.000Z</time>
      </trkpt>
      <trkpt lat="47.48371" lon="6.77231">
        <ele>330</ele>
        <time>2016-10-01T14:27:59.000Z</time>
      </trkpt>
      <trkpt lat="47.48368" lon="6.77228">
        <ele>329</ele>
        <time>2016-10-01T14:28:00.000Z</time>
      </trkpt>
      <trkpt lat="47.48364" lon="6.77226">
        <ele>329</ele>
        <time>2016-10-01T14:28:01.000Z</time>
      </trkpt>
      <trkpt lat="47.4836" lon="6.77224">
        <ele>329</ele>
        <time>2016-10-01T14:28:02.000Z</time>
      </trkpt>
      <trkpt lat="47.48356" lon="6.77221">
        <ele>329</ele>
        <time>2016-10-01T14:28:03.000Z</time>
      </trkpt>
      <trkpt lat="47.48352" lon="6.77219">
        <ele>329</ele>
        <time>2016-10-01T14:28:04.000Z</time>
      </trkpt>
      <trkpt lat="47.48348" lon="6.77218">
        <ele>329</ele>
        <time>2016-10-01T14:28:05.000Z</time>
      </trkpt>
      <trkpt lat="47.48344" lon="6.77216">
        <ele>329</ele>
        <time>2016-10-01T14:28:06.000Z</time>
      </trkpt>
      <trkpt lat="47.48338" lon="6.77214">
        <ele>329</ele>
        <time>2016-10-01T14:28:07.000Z</time>
      </trkpt>
      <trkpt lat="47.48334" lon="6.77212">
        <ele>329</ele>
        <time>2016-10-01T14:28:08.000Z</time>
      </trkpt>
      <trkpt lat="47.4833" lon="6.77211">
        <ele>324</ele>
        <time>2016-10-01T14:28:09.000Z</time>
      </trkpt>
      <trkpt lat="47.48326" lon="6.7721">
        <ele>324</ele>
        <time>2016-10-01T14:28:10.000Z</time>
      </trkpt>
      <trkpt lat="47.48323" lon="6.77209">
        <ele>324</ele>
        <time>2016-10-01T14:28:11.000Z</time>
      </trkpt>
      <trkpt lat="47.48319" lon="6.77208">
        <ele>324</ele>
        <time>2016-10-01T14:28:12.000Z</time>
      </trkpt>
      <trkpt lat="47.48316" lon="6.77206">
        <ele>324</ele>
        <time>2016-10-01T14:28:13.000Z</time>
      </trkpt>
      <trkpt lat="47.48314" lon="6.77204">
        <ele>324</ele>
        <time>2016-10-01T14:28:14.000Z</time>
      </trkpt>
      <trkpt lat="47.48312" lon="6.772">
        <ele>325</ele>
        <time>2016-10-01T14:28:15.000Z</time>
      </trkpt>
      <trkpt lat="47.48311" lon="6.77194">
        <ele>325</ele>
        <time>2016-10-01T14:28:16.000Z</time>
      </trkpt>
      <trkpt lat="47.4831" lon="6.77189">
        <ele>325</ele>
        <time>2016-10-01T14:28:17.000Z</time>
      </trkpt>
      <trkpt lat="47.48309" lon="6.77185">
        <ele>325</ele>
        <time>2016-10-01T14:28:18.000Z</time>
      </trkpt>
      <trkpt lat="47.48309" lon="6.7718">
        <ele>325</ele>
        <time>2016-10-01T14:28:19.000Z</time>
      </trkpt>
      <trkpt lat="47.4831" lon="6.77176">
        <ele>326</ele>
        <time>2016-10-01T14:28:20.000Z</time>
      </trkpt>
      <trkpt lat="47.48313" lon="6.77172">
        <ele>326</ele>
        <time>2016-10-01T14:28:22.000Z</time>
      </trkpt>
      <trkpt lat="47.48314" lon="6.7717">
        <ele>327</ele>
        <time>2016-10-01T14:28:23.000Z</time>
      </trkpt>
      <trkpt lat="47.4831" lon="6.77167">
        <ele>326</ele>
        <time>2016-10-01T14:28:26.000Z</time>
      </trkpt>
      <trkpt lat="47.48309" lon="6.77167">
        <ele>326</ele>
        <time>2016-10-01T14:28:27.000Z</time>
      </trkpt>
      <trkpt lat="47.48312" lon="6.77166">
        <ele>326</ele>
        <time>2016-10-01T14:28:32.000Z</time>
      </trkpt>
      <trkpt lat="47.48314" lon="6.77166">
        <ele>327</ele>
        <time>2016-10-01T14:28:33.000Z</time>
      </trkpt>
      <trkpt lat="47.48316" lon="6.77167">
        <ele>327</ele>
        <time>2016-10-01T14:28:34.000Z</time>
      </trkpt>
      <trkpt lat="47.48319" lon="6.77167">
        <ele>327</ele>
        <time>2016-10-01T14:28:35.000Z</time>
      </trkpt>
      <trkpt lat="47.48323" lon="6.77168">
        <ele>328</ele>
        <time>2016-10-01T14:28:37.000Z</time>
      </trkpt>
      <trkpt lat="47.48328" lon="6.77157">
        <ele>328</ele>
        <time>2016-10-01T14:28:38.000Z</time>
      </trkpt>
      <trkpt lat="47.48334" lon="6.77148">
        <ele>328</ele>
        <time>2016-10-01T14:28:39.000Z</time>
      </trkpt>
      <trkpt lat="47.48336" lon="6.77141">
        <ele>327</ele>
        <time>2016-10-01T14:28:40.000Z</time>
      </trkpt>
      <trkpt lat="47.48338" lon="6.77134">
        <ele>326</ele>
        <time>2016-10-01T14:28:41.000Z</time>
      </trkpt>
      <trkpt lat="47.48337" lon="6.77128">
        <ele>326</ele>
        <time>2016-10-01T14:28:42.000Z</time>
      </trkpt>
      <trkpt lat="47.48337" lon="6.77122">
        <ele>326</ele>
        <time>2016-10-01T14:28:43.000Z</time>
      </trkpt>
      <trkpt lat="47.4833" lon="6.77113">
        <ele>324</ele>
        <time>2016-10-01T14:28:44.000Z</time>
      </trkpt>
      <trkpt lat="47.48329" lon="6.77109">
        <ele>324</ele>
        <time>2016-10-01T14:28:45.000Z</time>
      </trkpt>
      <trkpt lat="47.48327" lon="6.77103">
        <ele>324</ele>
        <time>2016-10-01T14:28:46.000Z</time>
      </trkpt>
      <trkpt lat="47.48326" lon="6.77099">
        <ele>324</ele>
        <time>2016-10-01T14:28:47.000Z</time>
      </trkpt>
      <trkpt lat="47.48324" lon="6.77096">
        <ele>324</ele>
        <time>2016-10-01T14:28:48.000Z</time>
      </trkpt>
      <trkpt lat="47.48317" lon="6.77095">
        <ele>323</ele>
        <time>2016-10-01T14:28:49.000Z</time>
      </trkpt>
      <trkpt lat="47.4831" lon="6.77091">
        <ele>323</ele>
        <time>2016-10-01T14:28:50.000Z</time>
      </trkpt>
      <trkpt lat="47.48304" lon="6.77089">
        <ele>323</ele>
        <time>2016-10-01T14:28:51.000Z</time>
      </trkpt>
      <trkpt lat="47.48299" lon="6.77087">
        <ele>323</ele>
        <time>2016-10-01T14:28:52.000Z</time>
      </trkpt>
      <trkpt lat="47.48288" lon="6.77102">
        <ele>322</ele>
        <time>2016-10-01T14:28:53.000Z</time>
      </trkpt>
      <trkpt lat="47.48283" lon="6.77104">
        <ele>322</ele>
        <time>2016-10-01T14:28:54.000Z</time>
      </trkpt>
      <trkpt lat="47.48279" lon="6.77107">
        <ele>322</ele>
        <time>2016-10-01T14:28:55.000Z</time>
      </trkpt>
      <trkpt lat="47.48274" lon="6.77108">
        <ele>321</ele>
        <time>2016-10-01T14:28:56.000Z</time>
      </trkpt>
      <trkpt lat="47.4827" lon="6.77109">
        <ele>321</ele>
        <time>2016-10-01T14:28:57.000Z</time>
      </trkpt>
      <trkpt lat="47.48269" lon="6.77103">
        <ele>321</ele>
        <time>2016-10-01T14:29:02.000Z</time>
      </trkpt>
      <trkpt lat="47.48269" lon="6.77101">
        <ele>321</ele>
        <time>2016-10-01T14:29:03.000Z</time>
      </trkpt>
      <trkpt lat="47.48271" lon="6.77097">
        <ele>321</ele>
        <time>2016-10-01T14:29:05.000Z</time>
      </trkpt>
      <trkpt lat="47.48271" lon="6.77094">
        <ele>321</ele>
        <time>2016-10-01T14:29:06.000Z</time>
      </trkpt>
      <trkpt lat="47.48273" lon="6.77089">
        <ele>321</ele>
        <time>2016-10-01T14:29:07.000Z</time>
      </trkpt>
      <trkpt lat="47.48275" lon="6.77085">
        <ele>321</ele>
        <time>2016-10-01T14:29:08.000Z</time>
      </trkpt>
      <trkpt lat="47.48276" lon="6.7708">
        <ele>317</ele>
        <time>2016-10-01T14:29:09.000Z</time>
      </trkpt>
      <trkpt lat="47.48279" lon="6.77075">
        <ele>317</ele>
        <time>2016-10-01T14:29:10.000Z</time>
      </trkpt>
      <trkpt lat="47.48281" lon="6.7707">
        <ele>317</ele>
        <time>2016-10-01T14:29:11.000Z</time>
      </trkpt>
      <trkpt lat="47.48283" lon="6.77065">
        <ele>317</ele>
        <time>2016-10-01T14:29:12.000Z</time>
      </trkpt>
      <trkpt lat="47.48285" lon="6.77059">
        <ele>317</ele>
        <time>2016-10-01T14:29:13.000Z</time>
      </trkpt>
      <trkpt lat="47.48287" lon="6.77054">
        <ele>317</ele>
        <time>2016-10-01T14:29:14.000Z</time>
      </trkpt>
      <trkpt lat="47.48288" lon="6.77048">
        <ele>317</ele>
        <time>2016-10-01T14:29:15.000Z</time>
      </trkpt>
      <trkpt lat="47.4829" lon="6.77043">
        <ele>316</ele>
        <time>2016-10-01T14:29:16.000Z</time>
      </trkpt>
      <trkpt lat="47.48291" lon="6.77037">
        <ele>316</ele>
        <time>2016-10-01T14:29:17.000Z</time>
      </trkpt>
      <trkpt lat="47.4829" lon="6.77032">
        <ele>316</ele>
        <time>2016-10-01T14:29:20.000Z</time>
      </trkpt>
      <trkpt lat="47.48289" lon="6.7703">
        <ele>316</ele>
        <time>2016-10-01T14:29:21.000Z</time>
      </trkpt>
      <trkpt lat="47.48288" lon="6.77025">
        <ele>316</ele>
        <time>2016-10-01T14:29:24.000Z</time>
      </trkpt>
      <trkpt lat="47.48288" lon="6.77023">
        <ele>316</ele>
        <time>2016-10-01T14:29:25.000Z</time>
      </trkpt>
      <trkpt lat="47.48287" lon="6.7702">
        <ele>315</ele>
        <time>2016-10-01T14:29:26.000Z</time>
      </trkpt>
      <trkpt lat="47.48286" lon="6.77017">
        <ele>315</ele>
        <time>2016-10-01T14:29:27.000Z</time>
      </trkpt>
      <trkpt lat="47.48285" lon="6.77014">
        <ele>315</ele>
        <time>2016-10-01T14:29:28.000Z</time>
      </trkpt>
      <trkpt lat="47.48283" lon="6.7701">
        <ele>315</ele>
        <time>2016-10-01T14:29:29.000Z</time>
      </trkpt>
      <trkpt lat="47.4828" lon="6.77007">
        <ele>315</ele>
        <time>2016-10-01T14:29:30.000Z</time>
      </trkpt>
      <trkpt lat="47.48277" lon="6.77005">
        <ele>315</ele>
        <time>2016-10-01T14:29:31.000Z</time>
      </trkpt>
      <trkpt lat="47.48273" lon="6.77002">
        <ele>314</ele>
        <time>2016-10-01T14:29:32.001Z</time>
      </trkpt>
      <trkpt lat="47.48269" lon="6.77">
        <ele>314</ele>
        <time>2016-10-01T14:29:33.000Z</time>
      </trkpt>
      <trkpt lat="47.48265" lon="6.76998">
        <ele>312</ele>
        <time>2016-10-01T14:29:34.000Z</time>
      </trkpt>
      <trkpt lat="47.4826" lon="6.76995">
        <ele>312</ele>
        <time>2016-10-01T14:29:35.000Z</time>
      </trkpt>
      <trkpt lat="47.48256" lon="6.76993">
        <ele>312</ele>
        <time>2016-10-01T14:29:36.000Z</time>
      </trkpt>
      <trkpt lat="47.48247" lon="6.76988">
        <ele>312</ele>
        <time>2016-10-01T14:29:37.000Z</time>
      </trkpt>
      <trkpt lat="47.48242" lon="6.76985">
        <ele>312</ele>
        <time>2016-10-01T14:29:38.000Z</time>
      </trkpt>
      <trkpt lat="47.48238" lon="6.76984">
        <ele>312</ele>
        <time>2016-10-01T14:29:39.000Z</time>
      </trkpt>
      <trkpt lat="47.48233" lon="6.76979">
        <ele>311</ele>
        <time>2016-10-01T14:29:40.000Z</time>
      </trkpt>
      <trkpt lat="47.48229" lon="6.76977">
        <ele>311</ele>
        <time>2016-10-01T14:29:41.000Z</time>
      </trkpt>
      <trkpt lat="47.48225" lon="6.76974">
        <ele>311</ele>
        <time>2016-10-01T14:29:42.000Z</time>
      </trkpt>
      <trkpt lat="47.4822" lon="6.7697">
        <ele>311</ele>
        <time>2016-10-01T14:29:43.000Z</time>
      </trkpt>
      <trkpt lat="47.48216" lon="6.76966">
        <ele>311</ele>
        <time>2016-10-01T14:29:44.000Z</time>
      </trkpt>
      <trkpt lat="47.48213" lon="6.76962">
        <ele>311</ele>
        <time>2016-10-01T14:29:45.000Z</time>
      </trkpt>
      <trkpt lat="47.48208" lon="6.7696">
        <ele>311</ele>
        <time>2016-10-01T14:29:46.000Z</time>
      </trkpt>
      <trkpt lat="47.48203" lon="6.76956">
        <ele>311</ele>
        <time>2016-10-01T14:29:47.001Z</time>
      </trkpt>
      <trkpt lat="47.48198" lon="6.76954">
        <ele>311</ele>
        <time>2016-10-01T14:29:48.000Z</time>
      </trkpt>
      <trkpt lat="47.48193" lon="6.76951">
        <ele>311</ele>
        <time>2016-10-01T14:29:49.000Z</time>
      </trkpt>
      <trkpt lat="47.48188" lon="6.7695">
        <ele>311</ele>
        <time>2016-10-01T14:29:50.000Z</time>
      </trkpt>
      <trkpt lat="47.48184" lon="6.76947">
        <ele>311</ele>
        <time>2016-10-01T14:29:51.000Z</time>
      </trkpt>
      <trkpt lat="47.4818" lon="6.76944">
        <ele>311</ele>
        <time>2016-10-01T14:29:52.001Z</time>
      </trkpt>
      <trkpt lat="47.48177" lon="6.76941">
        <ele>311</ele>
        <time>2016-10-01T14:29:53.000Z</time>
      </trkpt>
      <trkpt lat="47.48173" lon="6.76938">
        <ele>312</ele>
        <time>2016-10-01T14:29:54.001Z</time>
      </trkpt>
      <trkpt lat="47.48171" lon="6.76938">
        <ele>312</ele>
        <time>2016-10-01T14:29:55.000Z</time>
      </trkpt>
      <trkpt lat="47.48169" lon="6.7694">
        <ele>311</ele>
        <time>2016-10-01T14:29:56.000Z</time>
      </trkpt>
      <trkpt lat="47.48168" lon="6.76943">
        <ele>311</ele>
        <time>2016-10-01T14:29:57.000Z</time>
      </trkpt>
      <trkpt lat="47.48169" lon="6.76947">
        <ele>311</ele>
        <time>2016-10-01T14:29:58.000Z</time>
      </trkpt>
      <trkpt lat="47.48169" lon="6.7695">
        <ele>311</ele>
        <time>2016-10-01T14:29:59.000Z</time>
      </trkpt>
      <trkpt lat="47.4817" lon="6.76955">
        <ele>311</ele>
        <time>2016-10-01T14:30:01.000Z</time>
      </trkpt>
      <trkpt lat="47.4817" lon="6.76958">
        <ele>311</ele>
        <time>2016-10-01T14:30:02.000Z</time>
      </trkpt>
      <trkpt lat="47.48167" lon="6.76957">
        <ele>311</ele>
        <time>2016-10-01T14:30:03.000Z</time>
      </trkpt>
      <trkpt lat="47.48165" lon="6.76957">
        <ele>312</ele>
        <time>2016-10-01T14:30:04.000Z</time>
      </trkpt>
      <trkpt lat="47.48161" lon="6.76955">
        <ele>312</ele>
        <time>2016-10-01T14:30:05.000Z</time>
      </trkpt>
      <trkpt lat="47.48157" lon="6.76953">
        <ele>312</ele>
        <time>2016-10-01T14:30:06.000Z</time>
      </trkpt>
      <trkpt lat="47.48154" lon="6.76951">
        <ele>312</ele>
        <time>2016-10-01T14:30:07.001Z</time>
      </trkpt>
      <trkpt lat="47.48149" lon="6.76948">
        <ele>312</ele>
        <time>2016-10-01T14:30:08.000Z</time>
      </trkpt>
      <trkpt lat="47.48145" lon="6.76946">
        <ele>312</ele>
        <time>2016-10-01T14:30:09.000Z</time>
      </trkpt>
      <trkpt lat="47.48142" lon="6.76944">
        <ele>312</ele>
        <time>2016-10-01T14:30:10.000Z</time>
      </trkpt>
      <trkpt lat="47.48134" lon="6.76943">
        <ele>312</ele>
        <time>2016-10-01T14:30:11.000Z</time>
      </trkpt>
      <trkpt lat="47.48129" lon="6.76942">
        <ele>312</ele>
        <time>2016-10-01T14:30:11.999Z</time>
      </trkpt>
      <trkpt lat="47.48123" lon="6.76941">
        <ele>312</ele>
        <time>2016-10-01T14:30:13.000Z</time>
      </trkpt>
      <trkpt lat="47.48117" lon="6.76939">
        <ele>312</ele>
        <time>2016-10-01T14:30:13.999Z</time>
      </trkpt>
      <trkpt lat="47.48113" lon="6.76938">
        <ele>312</ele>
        <time>2016-10-01T14:30:15.000Z</time>
      </trkpt>
      <trkpt lat="47.48109" lon="6.76936">
        <ele>312</ele>
        <time>2016-10-01T14:30:15.999Z</time>
      </trkpt>
      <trkpt lat="47.48103" lon="6.76933">
        <ele>312</ele>
        <time>2016-10-01T14:30:17.000Z</time>
      </trkpt>
      <trkpt lat="47.48098" lon="6.76932">
        <ele>312</ele>
        <time>2016-10-01T14:30:18.000Z</time>
      </trkpt>
      <trkpt lat="47.48093" lon="6.76931">
        <ele>312</ele>
        <time>2016-10-01T14:30:19.000Z</time>
      </trkpt>
      <trkpt lat="47.48089" lon="6.76929">
        <ele>312</ele>
        <time>2016-10-01T14:30:20.000Z</time>
      </trkpt>
      <trkpt lat="47.48083" lon="6.76927">
        <ele>312</ele>
        <time>2016-10-01T14:30:21.000Z</time>
      </trkpt>
      <trkpt lat="47.48079" lon="6.76925">
        <ele>312</ele>
        <time>2016-10-01T14:30:21.999Z</time>
      </trkpt>
      <trkpt lat="47.48073" lon="6.76924">
        <ele>312</ele>
        <time>2016-10-01T14:30:23.000Z</time>
      </trkpt>
      <trkpt lat="47.48069" lon="6.76922">
        <ele>312</ele>
        <time>2016-10-01T14:30:24.001Z</time>
      </trkpt>
      <trkpt lat="47.48065" lon="6.76921">
        <ele>312</ele>
        <time>2016-10-01T14:30:25.000Z</time>
      </trkpt>
      <trkpt lat="47.4806" lon="6.76918">
        <ele>312</ele>
        <time>2016-10-01T14:30:26.000Z</time>
      </trkpt>
      <trkpt lat="47.48055" lon="6.76916">
        <ele>312</ele>
        <time>2016-10-01T14:30:27.000Z</time>
      </trkpt>
      <trkpt lat="47.48049" lon="6.76912">
        <ele>312</ele>
        <time>2016-10-01T14:30:28.000Z</time>
      </trkpt>
      <trkpt lat="47.48042" lon="6.76909">
        <ele>312</ele>
        <time>2016-10-01T14:30:29.000Z</time>
      </trkpt>
      <trkpt lat="47.48037" lon="6.76907">
        <ele>312</ele>
        <time>2016-10-01T14:30:30.000Z</time>
      </trkpt>
      <trkpt lat="47.48033" lon="6.76907">
        <ele>312</ele>
        <time>2016-10-01T14:30:31.000Z</time>
      </trkpt>
      <trkpt lat="47.48028" lon="6.76905">
        <ele>312</ele>
        <time>2016-10-01T14:30:32.000Z</time>
      </trkpt>
      <trkpt lat="47.48023" lon="6.76903">
        <ele>312</ele>
        <time>2016-10-01T14:30:32.999Z</time>
      </trkpt>
      <trkpt lat="47.48018" lon="6.76901">
        <ele>312</ele>
        <time>2016-10-01T14:30:34.000Z</time>
      </trkpt>
      <trkpt lat="47.48012" lon="6.769">
        <ele>312</ele>
        <time>2016-10-01T14:30:35.000Z</time>
      </trkpt>
      <trkpt lat="47.48007" lon="6.76897">
        <ele>312</ele>
        <time>2016-10-01T14:30:36.000Z</time>
      </trkpt>
      <trkpt lat="47.48002" lon="6.76894">
        <ele>312</ele>
        <time>2016-10-01T14:30:37.000Z</time>
      </trkpt>
      <trkpt lat="47.47994" lon="6.76892">
        <ele>313</ele>
        <time>2016-10-01T14:30:38.000Z</time>
      </trkpt>
      <trkpt lat="47.47992" lon="6.76891">
        <ele>313</ele>
        <time>2016-10-01T14:30:39.000Z</time>
      </trkpt>
      <trkpt lat="47.47989" lon="6.7689">
        <ele>313</ele>
        <time>2016-10-01T14:30:39.999Z</time>
      </trkpt>
      <trkpt lat="47.47984" lon="6.76889">
        <ele>313</ele>
        <time>2016-10-01T14:30:41.000Z</time>
      </trkpt>
      <trkpt lat="47.4798" lon="6.76888">
        <ele>313</ele>
        <time>2016-10-01T14:30:41.998Z</time>
      </trkpt>
      <trkpt lat="47.47974" lon="6.76886">
        <ele>313</ele>
        <time>2016-10-01T14:30:43.000Z</time>
      </trkpt>
      <trkpt lat="47.47968" lon="6.76883">
        <ele>313</ele>
        <time>2016-10-01T14:30:44.000Z</time>
      </trkpt>
      <trkpt lat="47.47965" lon="6.76884">
        <ele>313</ele>
        <time>2016-10-01T14:30:45.000Z</time>
      </trkpt>
      <trkpt lat="47.4796" lon="6.76883">
        <ele>313</ele>
        <time>2016-10-01T14:30:46.000Z</time>
      </trkpt>
      <trkpt lat="47.47956" lon="6.7688">
        <ele>313</ele>
        <time>2016-10-01T14:30:47.000Z</time>
      </trkpt>
      <trkpt lat="47.47953" lon="6.7688">
        <ele>313</ele>
        <time>2016-10-01T14:30:48.000Z</time>
      </trkpt>
      <trkpt lat="47.47952" lon="6.76878">
        <ele>313</ele>
        <time>2016-10-01T14:30:49.000Z</time>
      </trkpt>
      <trkpt lat="47.4795" lon="6.76876">
        <ele>313</ele>
        <time>2016-10-01T14:30:49.999Z</time>
      </trkpt>
      <trkpt lat="47.47947" lon="6.76874">
        <ele>313</ele>
        <time>2016-10-01T14:30:51.000Z</time>
      </trkpt>
      <trkpt lat="47.47941" lon="6.76871">
        <ele>313</ele>
        <time>2016-10-01T14:30:52.000Z</time>
      </trkpt>
      <trkpt lat="47.47936" lon="6.76869">
        <ele>313</ele>
        <time>2016-10-01T14:30:53.000Z</time>
      </trkpt>
      <trkpt lat="47.47931" lon="6.76867">
        <ele>313</ele>
        <time>2016-10-01T14:30:54.000Z</time>
      </trkpt>
      <trkpt lat="47.47925" lon="6.76863">
        <ele>313</ele>
        <time>2016-10-01T14:30:55.000Z</time>
      </trkpt>
      <trkpt lat="47.47921" lon="6.76859">
        <ele>313</ele>
        <time>2016-10-01T14:30:56.000Z</time>
      </trkpt>
      <trkpt lat="47.47917" lon="6.76857">
        <ele>313</ele>
        <time>2016-10-01T14:30:57.000Z</time>
      </trkpt>
      <trkpt lat="47.4791" lon="6.76854">
        <ele>313</ele>
        <time>2016-10-01T14:30:58.000Z</time>
      </trkpt>
      <trkpt lat="47.47905" lon="6.7685">
        <ele>313</ele>
        <time>2016-10-01T14:30:59.000Z</time>
      </trkpt>
      <trkpt lat="47.47901" lon="6.76849">
        <ele>313</ele>
        <time>2016-10-01T14:31:00.000Z</time>
      </trkpt>
      <trkpt lat="47.47899" lon="6.76847">
        <ele>313</ele>
        <time>2016-10-01T14:31:01.000Z</time>
      </trkpt>
      <trkpt lat="47.47892" lon="6.76844">
        <ele>313</ele>
        <time>2016-10-01T14:31:02.000Z</time>
      </trkpt>
      <trkpt lat="47.47885" lon="6.76838">
        <ele>312</ele>
        <time>2016-10-01T14:31:03.000Z</time>
      </trkpt>
      <trkpt lat="47.47879" lon="6.76835">
        <ele>312</ele>
        <time>2016-10-01T14:31:04.000Z</time>
      </trkpt>
      <trkpt lat="47.47874" lon="6.76833">
        <ele>311</ele>
        <time>2016-10-01T14:31:05.000Z</time>
      </trkpt>
      <trkpt lat="47.47869" lon="6.7683">
        <ele>311</ele>
        <time>2016-10-01T14:31:06.001Z</time>
      </trkpt>
      <trkpt lat="47.47867" lon="6.76827">
        <ele>311</ele>
        <time>2016-10-01T14:31:07.000Z</time>
      </trkpt>
      <trkpt lat="47.47864" lon="6.76826">
        <ele>311</ele>
        <time>2016-10-01T14:31:08.000Z</time>
      </trkpt>
      <trkpt lat="47.47861" lon="6.76824">
        <ele>311</ele>
        <time>2016-10-01T14:31:08.999Z</time>
      </trkpt>
      <trkpt lat="47.47857" lon="6.76823">
        <ele>311</ele>
        <time>2016-10-01T14:31:10.000Z</time>
      </trkpt>
      <trkpt lat="47.47849" lon="6.76819">
        <ele>311</ele>
        <time>2016-10-01T14:31:11.000Z</time>
      </trkpt>
      <trkpt lat="47.4785" lon="6.76815">
        <ele>311</ele>
        <time>2016-10-01T14:31:12.000Z</time>
      </trkpt>
      <trkpt lat="47.47849" lon="6.76812">
        <ele>311</ele>
        <time>2016-10-01T14:31:13.000Z</time>
      </trkpt>
      <trkpt lat="47.47847" lon="6.76807">
        <ele>311</ele>
        <time>2016-10-01T14:31:15.000Z</time>
      </trkpt>
      <trkpt lat="47.47847" lon="6.76805">
        <ele>311</ele>
        <time>2016-10-01T14:31:16.000Z</time>
      </trkpt>
      <trkpt lat="47.47843" lon="6.76803">
        <ele>311</ele>
        <time>2016-10-01T14:31:18.000Z</time>
      </trkpt>
      <trkpt lat="47.47839" lon="6.76802">
        <ele>311</ele>
        <time>2016-10-01T14:31:19.000Z</time>
      </trkpt>
      <trkpt lat="47.47837" lon="6.76801">
        <ele>311</ele>
        <time>2016-10-01T14:31:19.999Z</time>
      </trkpt>
      <trkpt lat="47.47821" lon="6.76806">
        <ele>310</ele>
        <time>2016-10-01T14:31:21.000Z</time>
      </trkpt>
      <trkpt lat="47.47817" lon="6.76805">
        <ele>310</ele>
        <time>2016-10-01T14:31:22.000Z</time>
      </trkpt>
      <trkpt lat="47.47812" lon="6.76804">
        <ele>310</ele>
        <time>2016-10-01T14:31:23.002Z</time>
      </trkpt>
      <trkpt lat="47.47803" lon="6.76799">
        <ele>310</ele>
        <time>2016-10-01T14:31:24.000Z</time>
      </trkpt>
      <trkpt lat="47.47798" lon="6.76796">
        <ele>310</ele>
        <time>2016-10-01T14:31:25.000Z</time>
      </trkpt>
      <trkpt lat="47.47794" lon="6.76794">
        <ele>310</ele>
        <time>2016-10-01T14:31:25.999Z</time>
      </trkpt>
      <trkpt lat="47.47788" lon="6.76792">
        <ele>311</ele>
        <time>2016-10-01T14:31:27.000Z</time>
      </trkpt>
      <trkpt lat="47.47784" lon="6.76789">
        <ele>311</ele>
        <time>2016-10-01T14:31:28.000Z</time>
      </trkpt>
      <trkpt lat="47.4778" lon="6.76787">
        <ele>311</ele>
        <time>2016-10-01T14:31:31.000Z</time>
      </trkpt>
      <trkpt lat="47.47778" lon="6.76785">
        <ele>311</ele>
        <time>2016-10-01T14:31:32.000Z</time>
      </trkpt>
      <trkpt lat="47.47775" lon="6.76785">
        <ele>311</ele>
        <time>2016-10-01T14:31:33.000Z</time>
      </trkpt>
      <trkpt lat="47.47771" lon="6.76785">
        <ele>311</ele>
        <time>2016-10-01T14:31:34.000Z</time>
      </trkpt>
      <trkpt lat="47.47768" lon="6.76785">
        <ele>311</ele>
        <time>2016-10-01T14:31:35.000Z</time>
      </trkpt>
      <trkpt lat="47.47764" lon="6.76784">
        <ele>311</ele>
        <time>2016-10-01T14:31:36.000Z</time>
      </trkpt>
      <trkpt lat="47.4776" lon="6.76784">
        <ele>311</ele>
        <time>2016-10-01T14:31:37.000Z</time>
      </trkpt>
      <trkpt lat="47.47756" lon="6.76785">
        <ele>311</ele>
        <time>2016-10-01T14:31:38.000Z</time>
      </trkpt>
      <trkpt lat="47.47751" lon="6.76785">
        <ele>311</ele>
        <time>2016-10-01T14:31:39.000Z</time>
      </trkpt>
      <trkpt lat="47.47747" lon="6.76786">
        <ele>311</ele>
        <time>2016-10-01T14:31:40.000Z</time>
      </trkpt>
      <trkpt lat="47.47739" lon="6.76788">
        <ele>311</ele>
        <time>2016-10-01T14:31:41.000Z</time>
      </trkpt>
      <trkpt lat="47.47734" lon="6.76793">
        <ele>311</ele>
        <time>2016-10-01T14:31:42.000Z</time>
      </trkpt>
      <trkpt lat="47.47729" lon="6.76802">
        <ele>311</ele>
        <time>2016-10-01T14:31:43.000Z</time>
      </trkpt>
      <trkpt lat="47.47725" lon="6.7681">
        <ele>311</ele>
        <time>2016-10-01T14:31:44.000Z</time>
      </trkpt>
      <trkpt lat="47.47721" lon="6.76818">
        <ele>311</ele>
        <time>2016-10-01T14:31:45.000Z</time>
      </trkpt>
      <trkpt lat="47.47718" lon="6.76826">
        <ele>311</ele>
        <time>2016-10-01T14:31:46.000Z</time>
      </trkpt>
      <trkpt lat="47.47716" lon="6.76834">
        <ele>311</ele>
        <time>2016-10-01T14:31:46.999Z</time>
      </trkpt>
      <trkpt lat="47.47714" lon="6.7684">
        <ele>311</ele>
        <time>2016-10-01T14:31:48.000Z</time>
      </trkpt>
      <trkpt lat="47.47712" lon="6.76846">
        <ele>311</ele>
        <time>2016-10-01T14:31:49.000Z</time>
      </trkpt>
      <trkpt lat="47.47707" lon="6.76852">
        <ele>311</ele>
        <time>2016-10-01T14:31:50.000Z</time>
      </trkpt>
      <trkpt lat="47.47705" lon="6.76859">
        <ele>311</ele>
        <time>2016-10-01T14:31:51.000Z</time>
      </trkpt>
      <trkpt lat="47.47702" lon="6.76863">
        <ele>311</ele>
        <time>2016-10-01T14:31:52.000Z</time>
      </trkpt>
      <trkpt lat="47.477" lon="6.7687">
        <ele>311</ele>
        <time>2016-10-01T14:31:53.000Z</time>
      </trkpt>
      <trkpt lat="47.47699" lon="6.76875">
        <ele>311</ele>
        <time>2016-10-01T14:31:54.000Z</time>
      </trkpt>
      <trkpt lat="47.47697" lon="6.76882">
        <ele>311</ele>
        <time>2016-10-01T14:31:55.000Z</time>
      </trkpt>
      <trkpt lat="47.47694" lon="6.76886">
        <ele>311</ele>
        <time>2016-10-01T14:31:56.000Z</time>
      </trkpt>
      <trkpt lat="47.4769" lon="6.76893">
        <ele>311</ele>
        <time>2016-10-01T14:31:57.000Z</time>
      </trkpt>
      <trkpt lat="47.47685" lon="6.769">
        <ele>311</ele>
        <time>2016-10-01T14:31:58.000Z</time>
      </trkpt>
      <trkpt lat="47.47682" lon="6.76907">
        <ele>311</ele>
        <time>2016-10-01T14:31:59.000Z</time>
      </trkpt>
      <trkpt lat="47.47679" lon="6.76914">
        <ele>311</ele>
        <time>2016-10-01T14:32:00.000Z</time>
      </trkpt>
      <trkpt lat="47.47676" lon="6.76922">
        <ele>311</ele>
        <time>2016-10-01T14:32:01.000Z</time>
      </trkpt>
      <trkpt lat="47.47674" lon="6.76929">
        <ele>311</ele>
        <time>2016-10-01T14:32:02.000Z</time>
      </trkpt>
      <trkpt lat="47.47671" lon="6.76937">
        <ele>311</ele>
        <time>2016-10-01T14:32:03.000Z</time>
      </trkpt>
      <trkpt lat="47.47669" lon="6.76945">
        <ele>311</ele>
        <time>2016-10-01T14:32:04.000Z</time>
      </trkpt>
      <trkpt lat="47.47667" lon="6.76951">
        <ele>311</ele>
        <time>2016-10-01T14:32:05.000Z</time>
      </trkpt>
      <trkpt lat="47.47664" lon="6.7696">
        <ele>311</ele>
        <time>2016-10-01T14:32:06.000Z</time>
      </trkpt>
      <trkpt lat="47.47662" lon="6.76963">
        <ele>311</ele>
        <time>2016-10-01T14:32:07.000Z</time>
      </trkpt>
      <trkpt lat="47.47661" lon="6.76969">
        <ele>311</ele>
        <time>2016-10-01T14:32:08.000Z</time>
      </trkpt>
      <trkpt lat="47.4766" lon="6.76974">
        <ele>311</ele>
        <time>2016-10-01T14:32:09.000Z</time>
      </trkpt>
      <trkpt lat="47.47658" lon="6.76978">
        <ele>311</ele>
        <time>2016-10-01T14:32:10.000Z</time>
      </trkpt>
      <trkpt lat="47.47654" lon="6.76983">
        <ele>311</ele>
        <time>2016-10-01T14:32:11.000Z</time>
      </trkpt>
      <trkpt lat="47.47652" lon="6.76988">
        <ele>311</ele>
        <time>2016-10-01T14:32:12.000Z</time>
      </trkpt>
      <trkpt lat="47.4765" lon="6.76992">
        <ele>311</ele>
        <time>2016-10-01T14:32:13.000Z</time>
      </trkpt>
      <trkpt lat="47.47648" lon="6.76998">
        <ele>311</ele>
        <time>2016-10-01T14:32:14.000Z</time>
      </trkpt>
      <trkpt lat="47.47648" lon="6.77005">
        <ele>311</ele>
        <time>2016-10-01T14:32:15.000Z</time>
      </trkpt>
      <trkpt lat="47.47647" lon="6.7701">
        <ele>311</ele>
        <time>2016-10-01T14:32:16.000Z</time>
      </trkpt>
      <trkpt lat="47.47646" lon="6.77014">
        <ele>311</ele>
        <time>2016-10-01T14:32:17.000Z</time>
      </trkpt>
      <trkpt lat="47.47645" lon="6.77018">
        <ele>311</ele>
        <time>2016-10-01T14:32:18.000Z</time>
      </trkpt>
      <trkpt lat="47.47644" lon="6.77023">
        <ele>311</ele>
        <time>2016-10-01T14:32:19.000Z</time>
      </trkpt>
      <trkpt lat="47.47643" lon="6.77027">
        <ele>311</ele>
        <time>2016-10-01T14:32:20.000Z</time>
      </trkpt>
      <trkpt lat="47.47643" lon="6.77032">
        <ele>311</ele>
        <time>2016-10-01T14:32:21.000Z</time>
      </trkpt>
      <trkpt lat="47.47643" lon="6.77036">
        <ele>311</ele>
        <time>2016-10-01T14:32:22.000Z</time>
      </trkpt>
      <trkpt lat="47.47643" lon="6.7704">
        <ele>311</ele>
        <time>2016-10-01T14:32:23.000Z</time>
      </trkpt>
      <trkpt lat="47.47642" lon="6.77045">
        <ele>311</ele>
        <time>2016-10-01T14:32:24.000Z</time>
      </trkpt>
      <trkpt lat="47.47641" lon="6.77051">
        <ele>311</ele>
        <time>2016-10-01T14:32:25.000Z</time>
      </trkpt>
      <trkpt lat="47.4764" lon="6.77056">
        <ele>311</ele>
        <time>2016-10-01T14:32:26.000Z</time>
      </trkpt>
      <trkpt lat="47.47638" lon="6.77063">
        <ele>311</ele>
        <time>2016-10-01T14:32:27.000Z</time>
      </trkpt>
      <trkpt lat="47.47636" lon="6.77072">
        <ele>311</ele>
        <time>2016-10-01T14:32:28.000Z</time>
      </trkpt>
      <trkpt lat="47.47634" lon="6.77079">
        <ele>311</ele>
        <time>2016-10-01T14:32:29.000Z</time>
      </trkpt>
      <trkpt lat="47.47633" lon="6.77088">
        <ele>311</ele>
        <time>2016-10-01T14:32:30.000Z</time>
      </trkpt>
      <trkpt lat="47.47632" lon="6.77095">
        <ele>311</ele>
        <time>2016-10-01T14:32:31.000Z</time>
      </trkpt>
      <trkpt lat="47.4763" lon="6.77104">
        <ele>310</ele>
        <time>2016-10-01T14:32:32.000Z</time>
      </trkpt>
      <trkpt lat="47.47629" lon="6.77113">
        <ele>310</ele>
        <time>2016-10-01T14:32:33.000Z</time>
      </trkpt>
      <trkpt lat="47.47627" lon="6.7712">
        <ele>310</ele>
        <time>2016-10-01T14:32:34.000Z</time>
      </trkpt>
      <trkpt lat="47.47624" lon="6.77134">
        <ele>310</ele>
        <time>2016-10-01T14:32:35.000Z</time>
      </trkpt>
      <trkpt lat="47.4762" lon="6.77144">
        <ele>310</ele>
        <time>2016-10-01T14:32:36.001Z</time>
      </trkpt>
      <trkpt lat="47.47617" lon="6.77156">
        <ele>310</ele>
        <time>2016-10-01T14:32:37.000Z</time>
      </trkpt>
      <trkpt lat="47.47613" lon="6.77164">
        <ele>310</ele>
        <time>2016-10-01T14:32:38.000Z</time>
      </trkpt>
      <trkpt lat="47.47609" lon="6.77169">
        <ele>310</ele>
        <time>2016-10-01T14:32:39.000Z</time>
      </trkpt>
      <trkpt lat="47.47604" lon="6.77174">
        <ele>310</ele>
        <time>2016-10-01T14:32:40.000Z</time>
      </trkpt>
      <trkpt lat="47.47599" lon="6.7718">
        <ele>310</ele>
        <time>2016-10-01T14:32:40.999Z</time>
      </trkpt>
      <trkpt lat="47.47593" lon="6.77172">
        <ele>309</ele>
        <time>2016-10-01T14:32:42.000Z</time>
      </trkpt>
      <trkpt lat="47.47588" lon="6.77171">
        <ele>309</ele>
        <time>2016-10-01T14:32:43.000Z</time>
      </trkpt>
      <trkpt lat="47.47583" lon="6.77166">
        <ele>309</ele>
        <time>2016-10-01T14:32:44.000Z</time>
      </trkpt>
      <trkpt lat="47.47579" lon="6.77162">
        <ele>309</ele>
        <time>2016-10-01T14:32:45.000Z</time>
      </trkpt>
      <trkpt lat="47.47573" lon="6.77159">
        <ele>309</ele>
        <time>2016-10-01T14:32:46.000Z</time>
      </trkpt>
      <trkpt lat="47.47569" lon="6.77157">
        <ele>309</ele>
        <time>2016-10-01T14:32:47.000Z</time>
      </trkpt>
      <trkpt lat="47.47563" lon="6.77154">
        <ele>310</ele>
        <time>2016-10-01T14:32:48.000Z</time>
      </trkpt>
      <trkpt lat="47.47558" lon="6.7715">
        <ele>310</ele>
        <time>2016-10-01T14:32:49.001Z</time>
      </trkpt>
      <trkpt lat="47.47552" lon="6.77148">
        <ele>310</ele>
        <time>2016-10-01T14:32:50.000Z</time>
      </trkpt>
      <trkpt lat="47.47548" lon="6.77144">
        <ele>310</ele>
        <time>2016-10-01T14:32:51.000Z</time>
      </trkpt>
      <trkpt lat="47.47545" lon="6.77141">
        <ele>310</ele>
        <time>2016-10-01T14:32:52.000Z</time>
      </trkpt>
      <trkpt lat="47.47541" lon="6.77137">
        <ele>310</ele>
        <time>2016-10-01T14:32:52.999Z</time>
      </trkpt>
      <trkpt lat="47.47537" lon="6.77134">
        <ele>310</ele>
        <time>2016-10-01T14:32:54.000Z</time>
      </trkpt>
      <trkpt lat="47.47533" lon="6.77133">
        <ele>310</ele>
        <time>2016-10-01T14:32:55.000Z</time>
      </trkpt>
      <trkpt lat="47.47529" lon="6.77134">
        <ele>310</ele>
        <time>2016-10-01T14:32:56.000Z</time>
      </trkpt>
      <trkpt lat="47.47525" lon="6.77136">
        <ele>310</ele>
        <time>2016-10-01T14:32:57.000Z</time>
      </trkpt>
      <trkpt lat="47.47522" lon="6.77139">
        <ele>310</ele>
        <time>2016-10-01T14:32:57.999Z</time>
      </trkpt>
      <trkpt lat="47.47518" lon="6.77141">
        <ele>310</ele>
        <time>2016-10-01T14:32:59.000Z</time>
      </trkpt>
      <trkpt lat="47.47515" lon="6.77144">
        <ele>310</ele>
        <time>2016-10-01T14:33:00.000Z</time>
      </trkpt>
      <trkpt lat="47.47513" lon="6.77152">
        <ele>310</ele>
        <time>2016-10-01T14:33:01.000Z</time>
      </trkpt>
      <trkpt lat="47.47512" lon="6.77158">
        <ele>309</ele>
        <time>2016-10-01T14:33:02.000Z</time>
      </trkpt>
      <trkpt lat="47.47514" lon="6.77168">
        <ele>310</ele>
        <time>2016-10-01T14:33:03.000Z</time>
      </trkpt>
      <trkpt lat="47.47514" lon="6.77174">
        <ele>310</ele>
        <time>2016-10-01T14:33:04.000Z</time>
      </trkpt>
      <trkpt lat="47.47513" lon="6.77179">
        <ele>310</ele>
        <time>2016-10-01T14:33:05.000Z</time>
      </trkpt>
      <trkpt lat="47.47511" lon="6.7719">
        <ele>310</ele>
        <time>2016-10-01T14:33:06.000Z</time>
      </trkpt>
      <trkpt lat="47.47509" lon="6.77196">
        <ele>310</ele>
        <time>2016-10-01T14:33:07.000Z</time>
      </trkpt>
      <trkpt lat="47.47506" lon="6.77204">
        <ele>310</ele>
        <time>2016-10-01T14:33:08.000Z</time>
      </trkpt>
      <trkpt lat="47.47505" lon="6.7721">
        <ele>311</ele>
        <time>2016-10-01T14:33:09.000Z</time>
      </trkpt>
      <trkpt lat="47.47501" lon="6.77215">
        <ele>311</ele>
        <time>2016-10-01T14:33:10.000Z</time>
      </trkpt>
      <trkpt lat="47.47499" lon="6.7722">
        <ele>312</ele>
        <time>2016-10-01T14:33:11.000Z</time>
      </trkpt>
      <trkpt lat="47.47496" lon="6.77227">
        <ele>312</ele>
        <time>2016-10-01T14:33:12.000Z</time>
      </trkpt>
      <trkpt lat="47.47492" lon="6.77234">
        <ele>312</ele>
        <time>2016-10-01T14:33:13.000Z</time>
      </trkpt>
      <trkpt lat="47.47491" lon="6.77237">
        <ele>312</ele>
        <time>2016-10-01T14:33:14.000Z</time>
      </trkpt>
      <trkpt lat="47.47489" lon="6.77241">
        <ele>312</ele>
        <time>2016-10-01T14:33:15.000Z</time>
      </trkpt>
      <trkpt lat="47.47487" lon="6.77246">
        <ele>312</ele>
        <time>2016-10-01T14:33:15.999Z</time>
      </trkpt>
      <trkpt lat="47.47486" lon="6.77248">
        <ele>312</ele>
        <time>2016-10-01T14:33:17.000Z</time>
      </trkpt>
      <trkpt lat="47.47484" lon="6.77251">
        <ele>313</ele>
        <time>2016-10-01T14:33:18.000Z</time>
      </trkpt>
      <trkpt lat="47.4748" lon="6.77256">
        <ele>313</ele>
        <time>2016-10-01T14:33:19.000Z</time>
      </trkpt>
      <trkpt lat="47.47477" lon="6.7726">
        <ele>314</ele>
        <time>2016-10-01T14:33:19.999Z</time>
      </trkpt>
      <trkpt lat="47.47476" lon="6.77261">
        <ele>314</ele>
        <time>2016-10-01T14:33:21.000Z</time>
      </trkpt>
      <trkpt lat="47.47476" lon="6.77265">
        <ele>314</ele>
        <time>2016-10-01T14:33:22.000Z</time>
      </trkpt>
      <trkpt lat="47.47475" lon="6.77269">
        <ele>314</ele>
        <time>2016-10-01T14:33:23.000Z</time>
      </trkpt>
      <trkpt lat="47.47474" lon="6.77273">
        <ele>314</ele>
        <time>2016-10-01T14:33:24.000Z</time>
      </trkpt>
      <trkpt lat="47.47475" lon="6.77277">
        <ele>314</ele>
        <time>2016-10-01T14:33:25.000Z</time>
      </trkpt>
      <trkpt lat="47.47475" lon="6.77281">
        <ele>314</ele>
        <time>2016-10-01T14:33:25.999Z</time>
      </trkpt>
      <trkpt lat="47.47479" lon="6.77287">
        <ele>314</ele>
        <time>2016-10-01T14:33:27.000Z</time>
      </trkpt>
      <trkpt lat="47.47482" lon="6.77291">
        <ele>314</ele>
        <time>2016-10-01T14:33:28.000Z</time>
      </trkpt>
      <trkpt lat="47.47485" lon="6.77295">
        <ele>314</ele>
        <time>2016-10-01T14:33:29.000Z</time>
      </trkpt>
      <trkpt lat="47.47488" lon="6.773">
        <ele>314</ele>
        <time>2016-10-01T14:33:30.000Z</time>
      </trkpt>
      <trkpt lat="47.47491" lon="6.77304">
        <ele>314</ele>
        <time>2016-10-01T14:33:31.000Z</time>
      </trkpt>
      <trkpt lat="47.47494" lon="6.77308">
        <ele>315</ele>
        <time>2016-10-01T14:33:32.000Z</time>
      </trkpt>
      <trkpt lat="47.47497" lon="6.77312">
        <ele>315</ele>
        <time>2016-10-01T14:33:33.000Z</time>
      </trkpt>
      <trkpt lat="47.47501" lon="6.7732">
        <ele>314</ele>
        <time>2016-10-01T14:33:34.000Z</time>
      </trkpt>
      <trkpt lat="47.47503" lon="6.77323">
        <ele>314</ele>
        <time>2016-10-01T14:33:35.000Z</time>
      </trkpt>
      <trkpt lat="47.47505" lon="6.77326">
        <ele>314</ele>
        <time>2016-10-01T14:33:36.000Z</time>
      </trkpt>
      <trkpt lat="47.47509" lon="6.7733">
        <ele>314</ele>
        <time>2016-10-01T14:33:37.000Z</time>
      </trkpt>
      <trkpt lat="47.47513" lon="6.77334">
        <ele>315</ele>
        <time>2016-10-01T14:33:38.001Z</time>
      </trkpt>
      <trkpt lat="47.47516" lon="6.7734">
        <ele>315</ele>
        <time>2016-10-01T14:33:39.000Z</time>
      </trkpt>
      <trkpt lat="47.47519" lon="6.77346">
        <ele>314</ele>
        <time>2016-10-01T14:33:40.000Z</time>
      </trkpt>
      <trkpt lat="47.47523" lon="6.77351">
        <ele>314</ele>
        <time>2016-10-01T14:33:40.999Z</time>
      </trkpt>
      <trkpt lat="47.47525" lon="6.77356">
        <ele>314</ele>
        <time>2016-10-01T14:33:42.000Z</time>
      </trkpt>
      <trkpt lat="47.47529" lon="6.77362">
        <ele>314</ele>
        <time>2016-10-01T14:33:43.000Z</time>
      </trkpt>
      <trkpt lat="47.47532" lon="6.77368">
        <ele>314</ele>
        <time>2016-10-01T14:33:44.000Z</time>
      </trkpt>
      <trkpt lat="47.47534" lon="6.77374">
        <ele>314</ele>
        <time>2016-10-01T14:33:45.000Z</time>
      </trkpt>
      <trkpt lat="47.47538" lon="6.77382">
        <ele>314</ele>
        <time>2016-10-01T14:33:46.000Z</time>
      </trkpt>
      <trkpt lat="47.4754" lon="6.77387">
        <ele>314</ele>
        <time>2016-10-01T14:33:47.000Z</time>
      </trkpt>
      <trkpt lat="47.47542" lon="6.77392">
        <ele>314</ele>
        <time>2016-10-01T14:33:48.000Z</time>
      </trkpt>
      <trkpt lat="47.47546" lon="6.774">
        <ele>314</ele>
        <time>2016-10-01T14:33:49.000Z</time>
      </trkpt>
      <trkpt lat="47.4755" lon="6.77406">
        <ele>314</ele>
        <time>2016-10-01T14:33:50.000Z</time>
      </trkpt>
      <trkpt lat="47.47556" lon="6.77414">
        <ele>314</ele>
        <time>2016-10-01T14:33:51.000Z</time>
      </trkpt>
      <trkpt lat="47.47559" lon="6.77417">
        <ele>315</ele>
        <time>2016-10-01T14:33:52.000Z</time>
      </trkpt>
      <trkpt lat="47.47564" lon="6.77422">
        <ele>315</ele>
        <time>2016-10-01T14:33:53.000Z</time>
      </trkpt>
      <trkpt lat="47.47569" lon="6.77429">
        <ele>315</ele>
        <time>2016-10-01T14:33:54.000Z</time>
      </trkpt>
      <trkpt lat="47.47573" lon="6.77437">
        <ele>315</ele>
        <time>2016-10-01T14:33:55.000Z</time>
      </trkpt>
      <trkpt lat="47.47578" lon="6.77442">
        <ele>315</ele>
        <time>2016-10-01T14:33:56.000Z</time>
      </trkpt>
      <trkpt lat="47.47582" lon="6.77448">
        <ele>315</ele>
        <time>2016-10-01T14:33:57.000Z</time>
      </trkpt>
      <trkpt lat="47.47586" lon="6.77454">
        <ele>314</ele>
        <time>2016-10-01T14:33:58.000Z</time>
      </trkpt>
      <trkpt lat="47.4759" lon="6.77463">
        <ele>314</ele>
        <time>2016-10-01T14:33:59.000Z</time>
      </trkpt>
      <trkpt lat="47.47594" lon="6.77471">
        <ele>314</ele>
        <time>2016-10-01T14:33:59.999Z</time>
      </trkpt>
      <trkpt lat="47.47599" lon="6.77474">
        <ele>314</ele>
        <time>2016-10-01T14:34:01.000Z</time>
      </trkpt>
      <trkpt lat="47.47604" lon="6.77479">
        <ele>314</ele>
        <time>2016-10-01T14:34:02.000Z</time>
      </trkpt>
      <trkpt lat="47.47607" lon="6.77485">
        <ele>314</ele>
        <time>2016-10-01T14:34:03.000Z</time>
      </trkpt>
      <trkpt lat="47.4761" lon="6.77493">
        <ele>314</ele>
        <time>2016-10-01T14:34:04.001Z</time>
      </trkpt>
      <trkpt lat="47.47612" lon="6.77495">
        <ele>314</ele>
        <time>2016-10-01T14:34:05.000Z</time>
      </trkpt>
      <trkpt lat="47.47619" lon="6.77499">
        <ele>314</ele>
        <time>2016-10-01T14:34:06.000Z</time>
      </trkpt>
      <trkpt lat="47.47624" lon="6.77504">
        <ele>315</ele>
        <time>2016-10-01T14:34:07.000Z</time>
      </trkpt>
      <trkpt lat="47.47627" lon="6.77508">
        <ele>315</ele>
        <time>2016-10-01T14:34:08.000Z</time>
      </trkpt>
      <trkpt lat="47.47632" lon="6.77512">
        <ele>315</ele>
        <time>2016-10-01T14:34:09.000Z</time>
      </trkpt>
      <trkpt lat="47.47635" lon="6.77516">
        <ele>315</ele>
        <time>2016-10-01T14:34:09.998Z</time>
      </trkpt>
      <trkpt lat="47.47637" lon="6.7752">
        <ele>315</ele>
        <time>2016-10-01T14:34:11.001Z</time>
      </trkpt>
      <trkpt lat="47.47642" lon="6.77527">
        <ele>315</ele>
        <time>2016-10-01T14:34:12.000Z</time>
      </trkpt>
      <trkpt lat="47.47646" lon="6.77531">
        <ele>315</ele>
        <time>2016-10-01T14:34:13.000Z</time>
      </trkpt>
      <trkpt lat="47.47648" lon="6.77535">
        <ele>315</ele>
        <time>2016-10-01T14:34:14.000Z</time>
      </trkpt>
      <trkpt lat="47.47653" lon="6.77543">
        <ele>315</ele>
        <time>2016-10-01T14:34:15.000Z</time>
      </trkpt>
      <trkpt lat="47.47657" lon="6.77549">
        <ele>315</ele>
        <time>2016-10-01T14:34:16.000Z</time>
      </trkpt>
      <trkpt lat="47.47661" lon="6.77555">
        <ele>315</ele>
        <time>2016-10-01T14:34:16.999Z</time>
      </trkpt>
      <trkpt lat="47.47664" lon="6.77562">
        <ele>315</ele>
        <time>2016-10-01T14:34:18.000Z</time>
      </trkpt>
      <trkpt lat="47.47668" lon="6.77567">
        <ele>314</ele>
        <time>2016-10-01T14:34:19.000Z</time>
      </trkpt>
      <trkpt lat="47.47671" lon="6.77573">
        <ele>314</ele>
        <time>2016-10-01T14:34:20.000Z</time>
      </trkpt>
      <trkpt lat="47.47676" lon="6.77578">
        <ele>314</ele>
        <time>2016-10-01T14:34:21.000Z</time>
      </trkpt>
      <trkpt lat="47.47679" lon="6.77584">
        <ele>314</ele>
        <time>2016-10-01T14:34:22.001Z</time>
      </trkpt>
      <trkpt lat="47.47683" lon="6.7759">
        <ele>314</ele>
        <time>2016-10-01T14:34:23.000Z</time>
      </trkpt>
      <trkpt lat="47.47687" lon="6.77595">
        <ele>314</ele>
        <time>2016-10-01T14:34:24.000Z</time>
      </trkpt>
      <trkpt lat="47.4769" lon="6.77601">
        <ele>314</ele>
        <time>2016-10-01T14:34:25.000Z</time>
      </trkpt>
      <trkpt lat="47.47692" lon="6.77607">
        <ele>314</ele>
        <time>2016-10-01T14:34:26.001Z</time>
      </trkpt>
      <trkpt lat="47.47694" lon="6.77612">
        <ele>314</ele>
        <time>2016-10-01T14:34:27.000Z</time>
      </trkpt>
      <trkpt lat="47.47695" lon="6.77619">
        <ele>314</ele>
        <time>2016-10-01T14:34:28.000Z</time>
      </trkpt>
      <trkpt lat="47.47697" lon="6.77627">
        <ele>314</ele>
        <time>2016-10-01T14:34:29.000Z</time>
      </trkpt>
      <trkpt lat="47.47699" lon="6.77634">
        <ele>314</ele>
        <time>2016-10-01T14:34:30.000Z</time>
      </trkpt>
      <trkpt lat="47.47698" lon="6.77639">
        <ele>314</ele>
        <time>2016-10-01T14:34:31.000Z</time>
      </trkpt>
      <trkpt lat="47.477" lon="6.77646">
        <ele>314</ele>
        <time>2016-10-01T14:34:32.000Z</time>
      </trkpt>
      <trkpt lat="47.477" lon="6.77653">
        <ele>314</ele>
        <time>2016-10-01T14:34:32.999Z</time>
      </trkpt>
      <trkpt lat="47.47702" lon="6.77661">
        <ele>314</ele>
        <time>2016-10-01T14:34:34.000Z</time>
      </trkpt>
      <trkpt lat="47.47704" lon="6.77666">
        <ele>314</ele>
        <time>2016-10-01T14:34:35.000Z</time>
      </trkpt>
      <trkpt lat="47.47707" lon="6.77671">
        <ele>315</ele>
        <time>2016-10-01T14:34:36.000Z</time>
      </trkpt>
      <trkpt lat="47.4771" lon="6.77676">
        <ele>315</ele>
        <time>2016-10-01T14:34:37.000Z</time>
      </trkpt>
      <trkpt lat="47.47711" lon="6.77682">
        <ele>315</ele>
        <time>2016-10-01T14:34:38.000Z</time>
      </trkpt>
      <trkpt lat="47.47712" lon="6.77688">
        <ele>315</ele>
        <time>2016-10-01T14:34:39.000Z</time>
      </trkpt>
      <trkpt lat="47.47714" lon="6.77695">
        <ele>315</ele>
        <time>2016-10-01T14:34:40.000Z</time>
      </trkpt>
      <trkpt lat="47.47714" lon="6.77702">
        <ele>315</ele>
        <time>2016-10-01T14:34:40.999Z</time>
      </trkpt>
      <trkpt lat="47.47712" lon="6.77709">
        <ele>315</ele>
        <time>2016-10-01T14:34:42.000Z</time>
      </trkpt>
      <trkpt lat="47.4771" lon="6.77715">
        <ele>316</ele>
        <time>2016-10-01T14:34:43.000Z</time>
      </trkpt>
      <trkpt lat="47.47708" lon="6.77717">
        <ele>316</ele>
        <time>2016-10-01T14:34:44.000Z</time>
      </trkpt>
      <trkpt lat="47.47706" lon="6.77721">
        <ele>316</ele>
        <time>2016-10-01T14:34:45.000Z</time>
      </trkpt>
      <trkpt lat="47.47704" lon="6.77726">
        <ele>316</ele>
        <time>2016-10-01T14:34:46.000Z</time>
      </trkpt>
      <trkpt lat="47.47701" lon="6.77728">
        <ele>316</ele>
        <time>2016-10-01T14:34:47.000Z</time>
      </trkpt>
      <trkpt lat="47.477" lon="6.77735">
        <ele>316</ele>
        <time>2016-10-01T14:34:48.000Z</time>
      </trkpt>
      <trkpt lat="47.477" lon="6.77743">
        <ele>316</ele>
        <time>2016-10-01T14:34:49.000Z</time>
      </trkpt>
      <trkpt lat="47.47701" lon="6.77746">
        <ele>316</ele>
        <time>2016-10-01T14:34:50.000Z</time>
      </trkpt>
      <trkpt lat="47.47701" lon="6.77751">
        <ele>316</ele>
        <time>2016-10-01T14:34:51.000Z</time>
      </trkpt>
      <trkpt lat="47.477" lon="6.77755">
        <ele>316</ele>
        <time>2016-10-01T14:34:52.000Z</time>
      </trkpt>
      <trkpt lat="47.47699" lon="6.77758">
        <ele>316</ele>
        <time>2016-10-01T14:34:53.000Z</time>
      </trkpt>
      <trkpt lat="47.47698" lon="6.77762">
        <ele>317</ele>
        <time>2016-10-01T14:34:54.000Z</time>
      </trkpt>
      <trkpt lat="47.47697" lon="6.77768">
        <ele>317</ele>
        <time>2016-10-01T14:34:55.000Z</time>
      </trkpt>
      <trkpt lat="47.47697" lon="6.77775">
        <ele>317</ele>
        <time>2016-10-01T14:34:56.000Z</time>
      </trkpt>
      <trkpt lat="47.47697" lon="6.77783">
        <ele>317</ele>
        <time>2016-10-01T14:34:57.000Z</time>
      </trkpt>
      <trkpt lat="47.47697" lon="6.77788">
        <ele>317</ele>
        <time>2016-10-01T14:34:57.999Z</time>
      </trkpt>
      <trkpt lat="47.47697" lon="6.77798">
        <ele>317</ele>
        <time>2016-10-01T14:34:59.000Z</time>
      </trkpt>
      <trkpt lat="47.47697" lon="6.77815">
        <ele>317</ele>
        <time>2016-10-01T14:35:00.000Z</time>
      </trkpt>
      <trkpt lat="47.47697" lon="6.77822">
        <ele>317</ele>
        <time>2016-10-01T14:35:01.000Z</time>
      </trkpt>
      <trkpt lat="47.47697" lon="6.77829">
        <ele>317</ele>
        <time>2016-10-01T14:35:02.000Z</time>
      </trkpt>
      <trkpt lat="47.47696" lon="6.77837">
        <ele>318</ele>
        <time>2016-10-01T14:35:03.000Z</time>
      </trkpt>
      <trkpt lat="47.47697" lon="6.77843">
        <ele>318</ele>
        <time>2016-10-01T14:35:04.001Z</time>
      </trkpt>
      <trkpt lat="47.47699" lon="6.7785">
        <ele>318</ele>
        <time>2016-10-01T14:35:05.000Z</time>
      </trkpt>
      <trkpt lat="47.47699" lon="6.77857">
        <ele>318</ele>
        <time>2016-10-01T14:35:06.000Z</time>
      </trkpt>
      <trkpt lat="47.477" lon="6.77865">
        <ele>318</ele>
        <time>2016-10-01T14:35:07.000Z</time>
      </trkpt>
      <trkpt lat="47.47701" lon="6.77871">
        <ele>318</ele>
        <time>2016-10-01T14:35:08.000Z</time>
      </trkpt>
      <trkpt lat="47.47702" lon="6.77878">
        <ele>318</ele>
        <time>2016-10-01T14:35:08.999Z</time>
      </trkpt>
      <trkpt lat="47.47702" lon="6.77884">
        <ele>318</ele>
        <time>2016-10-01T14:35:10.000Z</time>
      </trkpt>
      <trkpt lat="47.47702" lon="6.77894">
        <ele>318</ele>
        <time>2016-10-01T14:35:11.000Z</time>
      </trkpt>
      <trkpt lat="47.47701" lon="6.779">
        <ele>318</ele>
        <time>2016-10-01T14:35:12.000Z</time>
      </trkpt>
      <trkpt lat="47.477" lon="6.77901">
        <ele>318</ele>
        <time>2016-10-01T14:35:13.000Z</time>
      </trkpt>
      <trkpt lat="47.47703" lon="6.77905">
        <ele>318</ele>
        <time>2016-10-01T14:35:15.000Z</time>
      </trkpt>
      <trkpt lat="47.47705" lon="6.77916">
        <ele>318</ele>
        <time>2016-10-01T14:35:16.000Z</time>
      </trkpt>
      <trkpt lat="47.47706" lon="6.77924">
        <ele>320</ele>
        <time>2016-10-01T14:35:17.001Z</time>
      </trkpt>
      <trkpt lat="47.47707" lon="6.77929">
        <ele>320</ele>
        <time>2016-10-01T14:35:18.000Z</time>
      </trkpt>
      <trkpt lat="47.47709" lon="6.77934">
        <ele>320</ele>
        <time>2016-10-01T14:35:19.000Z</time>
      </trkpt>
      <trkpt lat="47.47711" lon="6.7794">
        <ele>320</ele>
        <time>2016-10-01T14:35:20.000Z</time>
      </trkpt>
      <trkpt lat="47.47712" lon="6.77947">
        <ele>320</ele>
        <time>2016-10-01T14:35:21.000Z</time>
      </trkpt>
      <trkpt lat="47.47712" lon="6.77953">
        <ele>320</ele>
        <time>2016-10-01T14:35:22.000Z</time>
      </trkpt>
      <trkpt lat="47.47714" lon="6.77961">
        <ele>320</ele>
        <time>2016-10-01T14:35:23.000Z</time>
      </trkpt>
      <trkpt lat="47.47716" lon="6.77969">
        <ele>320</ele>
        <time>2016-10-01T14:35:24.000Z</time>
      </trkpt>
      <trkpt lat="47.47716" lon="6.77975">
        <ele>320</ele>
        <time>2016-10-01T14:35:25.000Z</time>
      </trkpt>
      <trkpt lat="47.47719" lon="6.77982">
        <ele>320</ele>
        <time>2016-10-01T14:35:26.000Z</time>
      </trkpt>
      <trkpt lat="47.4772" lon="6.77989">
        <ele>320</ele>
        <time>2016-10-01T14:35:27.000Z</time>
      </trkpt>
      <trkpt lat="47.47721" lon="6.77996">
        <ele>320</ele>
        <time>2016-10-01T14:35:27.999Z</time>
      </trkpt>
      <trkpt lat="47.47722" lon="6.78004">
        <ele>321</ele>
        <time>2016-10-01T14:35:29.000Z</time>
      </trkpt>
      <trkpt lat="47.47722" lon="6.78011">
        <ele>321</ele>
        <time>2016-10-01T14:35:30.000Z</time>
      </trkpt>
      <trkpt lat="47.47723" lon="6.78018">
        <ele>321</ele>
        <time>2016-10-01T14:35:31.000Z</time>
      </trkpt>
      <trkpt lat="47.47722" lon="6.7802">
        <ele>321</ele>
        <time>2016-10-01T14:35:32.000Z</time>
      </trkpt>
      <trkpt lat="47.47723" lon="6.78028">
        <ele>322</ele>
        <time>2016-10-01T14:35:33.000Z</time>
      </trkpt>
      <trkpt lat="47.47723" lon="6.78035">
        <ele>322</ele>
        <time>2016-10-01T14:35:34.000Z</time>
      </trkpt>
      <trkpt lat="47.47722" lon="6.78042">
        <ele>322</ele>
        <time>2016-10-01T14:35:35.000Z</time>
      </trkpt>
      <trkpt lat="47.47721" lon="6.78048">
        <ele>322</ele>
        <time>2016-10-01T14:35:36.000Z</time>
      </trkpt>
      <trkpt lat="47.47721" lon="6.78054">
        <ele>322</ele>
        <time>2016-10-01T14:35:37.000Z</time>
      </trkpt>
      <trkpt lat="47.47719" lon="6.78057">
        <ele>322</ele>
        <time>2016-10-01T14:35:38.000Z</time>
      </trkpt>
      <trkpt lat="47.47718" lon="6.78059">
        <ele>322</ele>
        <time>2016-10-01T14:35:39.000Z</time>
      </trkpt>
      <trkpt lat="47.47716" lon="6.78063">
        <ele>322</ele>
        <time>2016-10-01T14:35:39.999Z</time>
      </trkpt>
      <trkpt lat="47.47715" lon="6.78069">
        <ele>322</ele>
        <time>2016-10-01T14:35:41.000Z</time>
      </trkpt>
      <trkpt lat="47.47714" lon="6.78074">
        <ele>322</ele>
        <time>2016-10-01T14:35:42.000Z</time>
      </trkpt>
      <trkpt lat="47.47713" lon="6.78079">
        <ele>322</ele>
        <time>2016-10-01T14:35:43.000Z</time>
      </trkpt>
      <trkpt lat="47.47712" lon="6.78083">
        <ele>323</ele>
        <time>2016-10-01T14:35:43.999Z</time>
      </trkpt>
      <trkpt lat="47.47706" lon="6.78086">
        <ele>325</ele>
        <time>2016-10-01T14:35:45.000Z</time>
      </trkpt>
      <trkpt lat="47.47703" lon="6.78091">
        <ele>326</ele>
        <time>2016-10-01T14:35:46.000Z</time>
      </trkpt>
      <trkpt lat="47.477" lon="6.78094">
        <ele>326</ele>
        <time>2016-10-01T14:35:47.001Z</time>
      </trkpt>
      <trkpt lat="47.47701" lon="6.78098">
        <ele>326</ele>
        <time>2016-10-01T14:35:48.000Z</time>
      </trkpt>
      <trkpt lat="47.477" lon="6.78102">
        <ele>326</ele>
        <time>2016-10-01T14:35:49.000Z</time>
      </trkpt>
      <trkpt lat="47.47699" lon="6.78107">
        <ele>326</ele>
        <time>2016-10-01T14:35:50.000Z</time>
      </trkpt>
      <trkpt lat="47.47694" lon="6.78105">
        <ele>326</ele>
        <time>2016-10-01T14:35:51.000Z</time>
      </trkpt>
      <trkpt lat="47.47692" lon="6.78106">
        <ele>326</ele>
        <time>2016-10-01T14:35:52.000Z</time>
      </trkpt>
      <trkpt lat="47.47693" lon="6.78114">
        <ele>326</ele>
        <time>2016-10-01T14:35:53.000Z</time>
      </trkpt>
      <trkpt lat="47.47692" lon="6.78117">
        <ele>326</ele>
        <time>2016-10-01T14:35:54.000Z</time>
      </trkpt>
      <trkpt lat="47.4769" lon="6.7812">
        <ele>327</ele>
        <time>2016-10-01T14:35:55.000Z</time>
      </trkpt>
      <trkpt lat="47.47688" lon="6.78124">
        <ele>327</ele>
        <time>2016-10-01T14:35:56.000Z</time>
      </trkpt>
      <trkpt lat="47.47687" lon="6.78128">
        <ele>327</ele>
        <time>2016-10-01T14:35:57.000Z</time>
      </trkpt>
      <trkpt lat="47.47686" lon="6.78132">
        <ele>327</ele>
        <time>2016-10-01T14:35:58.000Z</time>
      </trkpt>
      <trkpt lat="47.47685" lon="6.78137">
        <ele>328</ele>
        <time>2016-10-01T14:35:59.000Z</time>
      </trkpt>
      <trkpt lat="47.47685" lon="6.78143">
        <ele>328</ele>
        <time>2016-10-01T14:36:01.000Z</time>
      </trkpt>
      <trkpt lat="47.47684" lon="6.78145">
        <ele>328</ele>
        <time>2016-10-01T14:36:02.000Z</time>
      </trkpt>
      <trkpt lat="47.47682" lon="6.78151">
        <ele>329</ele>
        <time>2016-10-01T14:36:04.000Z</time>
      </trkpt>
      <trkpt lat="47.47682" lon="6.78154">
        <ele>329</ele>
        <time>2016-10-01T14:36:05.000Z</time>
      </trkpt>
      <trkpt lat="47.47681" lon="6.78158">
        <ele>329</ele>
        <time>2016-10-01T14:36:06.000Z</time>
      </trkpt>
      <trkpt lat="47.47681" lon="6.78163">
        <ele>329</ele>
        <time>2016-10-01T14:36:07.000Z</time>
      </trkpt>
      <trkpt lat="47.47681" lon="6.78167">
        <ele>332</ele>
        <time>2016-10-01T14:36:08.000Z</time>
      </trkpt>
      <trkpt lat="47.47681" lon="6.78172">
        <ele>332</ele>
        <time>2016-10-01T14:36:09.000Z</time>
      </trkpt>
      <trkpt lat="47.47681" lon="6.78176">
        <ele>332</ele>
        <time>2016-10-01T14:36:10.000Z</time>
      </trkpt>
      <trkpt lat="47.4768" lon="6.7818">
        <ele>332</ele>
        <time>2016-10-01T14:36:11.000Z</time>
      </trkpt>
      <trkpt lat="47.47684" lon="6.78191">
        <ele>332</ele>
        <time>2016-10-01T14:36:12.000Z</time>
      </trkpt>
      <trkpt lat="47.47684" lon="6.78195">
        <ele>332</ele>
        <time>2016-10-01T14:36:13.000Z</time>
      </trkpt>
      <trkpt lat="47.47685" lon="6.78198">
        <ele>332</ele>
        <time>2016-10-01T14:36:14.000Z</time>
      </trkpt>
      <trkpt lat="47.47685" lon="6.78203">
        <ele>333</ele>
        <time>2016-10-01T14:36:16.000Z</time>
      </trkpt>
      <trkpt lat="47.47686" lon="6.78205">
        <ele>333</ele>
        <time>2016-10-01T14:36:17.000Z</time>
      </trkpt>
      <trkpt lat="47.47689" lon="6.78209">
        <ele>333</ele>
        <time>2016-10-01T14:36:19.000Z</time>
      </trkpt>
      <trkpt lat="47.47689" lon="6.7821">
        <ele>333</ele>
        <time>2016-10-01T14:36:20.000Z</time>
      </trkpt>
      <trkpt lat="47.47689" lon="6.78215">
        <ele>333</ele>
        <time>2016-10-01T14:36:23.000Z</time>
      </trkpt>
      <trkpt lat="47.4769" lon="6.7822">
        <ele>333</ele>
        <time>2016-10-01T14:36:24.000Z</time>
      </trkpt>
      <trkpt lat="47.47691" lon="6.78224">
        <ele>333</ele>
        <time>2016-10-01T14:36:25.000Z</time>
      </trkpt>
      <trkpt lat="47.47692" lon="6.78226">
        <ele>334</ele>
        <time>2016-10-01T14:36:26.000Z</time>
      </trkpt>
      <trkpt lat="47.47693" lon="6.7823">
        <ele>334</ele>
        <time>2016-10-01T14:36:27.000Z</time>
      </trkpt>
      <trkpt lat="47.47694" lon="6.78232">
        <ele>334</ele>
        <time>2016-10-01T14:36:27.999Z</time>
      </trkpt>
      <trkpt lat="47.47696" lon="6.78236">
        <ele>334</ele>
        <time>2016-10-01T14:36:30.000Z</time>
      </trkpt>
      <trkpt lat="47.47697" lon="6.78239">
        <ele>334</ele>
        <time>2016-10-01T14:36:31.000Z</time>
      </trkpt>
      <trkpt lat="47.47698" lon="6.78242">
        <ele>334</ele>
        <time>2016-10-01T14:36:32.000Z</time>
      </trkpt>
      <trkpt lat="47.47699" lon="6.78245">
        <ele>334</ele>
        <time>2016-10-01T14:36:33.000Z</time>
      </trkpt>
      <trkpt lat="47.47701" lon="6.78247">
        <ele>334</ele>
        <time>2016-10-01T14:36:34.000Z</time>
      </trkpt>
      <trkpt lat="47.47702" lon="6.78251">
        <ele>337</ele>
        <time>2016-10-01T14:36:35.000Z</time>
      </trkpt>
      <trkpt lat="47.47704" lon="6.78256">
        <ele>337</ele>
        <time>2016-10-01T14:36:37.000Z</time>
      </trkpt>
      <trkpt lat="47.47704" lon="6.78258">
        <ele>337</ele>
        <time>2016-10-01T14:36:38.000Z</time>
      </trkpt>
      <trkpt lat="47.47705" lon="6.78261">
        <ele>337</ele>
        <time>2016-10-01T14:36:38.998Z</time>
      </trkpt>
      <trkpt lat="47.47705" lon="6.78265">
        <ele>337</ele>
        <time>2016-10-01T14:36:40.000Z</time>
      </trkpt>
      <trkpt lat="47.47706" lon="6.78269">
        <ele>337</ele>
        <time>2016-10-01T14:36:41.000Z</time>
      </trkpt>
      <trkpt lat="47.47707" lon="6.78274">
        <ele>337</ele>
        <time>2016-10-01T14:36:42.000Z</time>
      </trkpt>
      <trkpt lat="47.47707" lon="6.78278">
        <ele>337</ele>
        <time>2016-10-01T14:36:43.000Z</time>
      </trkpt>
      <trkpt lat="47.47708" lon="6.78282">
        <ele>337</ele>
        <time>2016-10-01T14:36:44.000Z</time>
      </trkpt>
      <trkpt lat="47.47708" lon="6.78286">
        <ele>337</ele>
        <time>2016-10-01T14:36:45.000Z</time>
      </trkpt>
      <trkpt lat="47.47708" lon="6.78291">
        <ele>337</ele>
        <time>2016-10-01T14:36:46.000Z</time>
      </trkpt>
      <trkpt lat="47.47708" lon="6.78295">
        <ele>338</ele>
        <time>2016-10-01T14:36:47.000Z</time>
      </trkpt>
      <trkpt lat="47.47708" lon="6.78299">
        <ele>338</ele>
        <time>2016-10-01T14:36:48.000Z</time>
      </trkpt>
      <trkpt lat="47.47707" lon="6.78303">
        <ele>338</ele>
        <time>2016-10-01T14:36:49.000Z</time>
      </trkpt>
      <trkpt lat="47.47707" lon="6.78308">
        <ele>338</ele>
        <time>2016-10-01T14:36:50.000Z</time>
      </trkpt>
      <trkpt lat="47.47706" lon="6.78311">
        <ele>338</ele>
        <time>2016-10-01T14:36:51.000Z</time>
      </trkpt>
      <trkpt lat="47.47705" lon="6.78316">
        <ele>338</ele>
        <time>2016-10-01T14:36:52.001Z</time>
      </trkpt>
      <trkpt lat="47.47704" lon="6.78319">
        <ele>338</ele>
        <time>2016-10-01T14:36:53.000Z</time>
      </trkpt>
      <trkpt lat="47.47703" lon="6.78322">
        <ele>339</ele>
        <time>2016-10-01T14:36:54.000Z</time>
      </trkpt>
      <trkpt lat="47.47701" lon="6.78327">
        <ele>339</ele>
        <time>2016-10-01T14:36:56.000Z</time>
      </trkpt>
      <trkpt lat="47.477" lon="6.7833">
        <ele>339</ele>
        <time>2016-10-01T14:36:57.000Z</time>
      </trkpt>
      <trkpt lat="47.47699" lon="6.78334">
        <ele>341</ele>
        <time>2016-10-01T14:36:58.000Z</time>
      </trkpt>
      <trkpt lat="47.47697" lon="6.78337">
        <ele>341</ele>
        <time>2016-10-01T14:36:59.000Z</time>
      </trkpt>
      <trkpt lat="47.47696" lon="6.78341">
        <ele>341</ele>
        <time>2016-10-01T14:37:00.000Z</time>
      </trkpt>
      <trkpt lat="47.47694" lon="6.78344">
        <ele>341</ele>
        <time>2016-10-01T14:37:01.000Z</time>
      </trkpt>
      <trkpt lat="47.47693" lon="6.78348">
        <ele>341</ele>
        <time>2016-10-01T14:37:02.000Z</time>
      </trkpt>
      <trkpt lat="47.47691" lon="6.78351">
        <ele>341</ele>
        <time>2016-10-01T14:37:03.000Z</time>
      </trkpt>
      <trkpt lat="47.47689" lon="6.78354">
        <ele>341</ele>
        <time>2016-10-01T14:37:04.000Z</time>
      </trkpt>
      <trkpt lat="47.47687" lon="6.78358">
        <ele>341</ele>
        <time>2016-10-01T14:37:05.000Z</time>
      </trkpt>
      <trkpt lat="47.47685" lon="6.78361">
        <ele>341</ele>
        <time>2016-10-01T14:37:06.000Z</time>
      </trkpt>
      <trkpt lat="47.47683" lon="6.78365">
        <ele>341</ele>
        <time>2016-10-01T14:37:07.000Z</time>
      </trkpt>
      <trkpt lat="47.47681" lon="6.78368">
        <ele>341</ele>
        <time>2016-10-01T14:37:08.000Z</time>
      </trkpt>
      <trkpt lat="47.47678" lon="6.78372">
        <ele>341</ele>
        <time>2016-10-01T14:37:09.000Z</time>
      </trkpt>
      <trkpt lat="47.47676" lon="6.78375">
        <ele>341</ele>
        <time>2016-10-01T14:37:10.000Z</time>
      </trkpt>
      <trkpt lat="47.47674" lon="6.78377">
        <ele>341</ele>
        <time>2016-10-01T14:37:11.000Z</time>
      </trkpt>
      <trkpt lat="47.4767" lon="6.78381">
        <ele>341</ele>
        <time>2016-10-01T14:37:13.000Z</time>
      </trkpt>
      <trkpt lat="47.47668" lon="6.78384">
        <ele>341</ele>
        <time>2016-10-01T14:37:14.000Z</time>
      </trkpt>
      <trkpt lat="47.47666" lon="6.78389">
        <ele>345</ele>
        <time>2016-10-01T14:37:15.000Z</time>
      </trkpt>
      <trkpt lat="47.47663" lon="6.78395">
        <ele>344</ele>
        <time>2016-10-01T14:37:16.000Z</time>
      </trkpt>
      <trkpt lat="47.4766" lon="6.78403">
        <ele>344</ele>
        <time>2016-10-01T14:37:17.000Z</time>
      </trkpt>
      <trkpt lat="47.47655" lon="6.78421">
        <ele>343</ele>
        <time>2016-10-01T14:37:18.000Z</time>
      </trkpt>
      <trkpt lat="47.47654" lon="6.78422">
        <ele>344</ele>
        <time>2016-10-01T14:37:19.000Z</time>
      </trkpt>
      <trkpt lat="47.4765" lon="6.78427">
        <ele>344</ele>
        <time>2016-10-01T14:37:20.000Z</time>
      </trkpt>
      <trkpt lat="47.47648" lon="6.78434">
        <ele>345</ele>
        <time>2016-10-01T14:37:21.000Z</time>
      </trkpt>
      <trkpt lat="47.47645" lon="6.78439">
        <ele>345</ele>
        <time>2016-10-01T14:37:22.000Z</time>
      </trkpt>
      <trkpt lat="47.47642" lon="6.78443">
        <ele>345</ele>
        <time>2016-10-01T14:37:23.000Z</time>
      </trkpt>
      <trkpt lat="47.47637" lon="6.78445">
        <ele>346</ele>
        <time>2016-10-01T14:37:24.000Z</time>
      </trkpt>
      <trkpt lat="47.47635" lon="6.78452">
        <ele>346</ele>
        <time>2016-10-01T14:37:25.000Z</time>
      </trkpt>
      <trkpt lat="47.47631" lon="6.78458">
        <ele>346</ele>
        <time>2016-10-01T14:37:26.000Z</time>
      </trkpt>
      <trkpt lat="47.47628" lon="6.78465">
        <ele>347</ele>
        <time>2016-10-01T14:37:27.000Z</time>
      </trkpt>
      <trkpt lat="47.47626" lon="6.78471">
        <ele>347</ele>
        <time>2016-10-01T14:37:28.000Z</time>
      </trkpt>
      <trkpt lat="47.47621" lon="6.78472">
        <ele>347</ele>
        <time>2016-10-01T14:37:29.000Z</time>
      </trkpt>
      <trkpt lat="47.47618" lon="6.78476">
        <ele>347</ele>
        <time>2016-10-01T14:37:30.000Z</time>
      </trkpt>
      <trkpt lat="47.47616" lon="6.78483">
        <ele>348</ele>
        <time>2016-10-01T14:37:31.000Z</time>
      </trkpt>
      <trkpt lat="47.47614" lon="6.78487">
        <ele>348</ele>
        <time>2016-10-01T14:37:31.999Z</time>
      </trkpt>
      <trkpt lat="47.47611" lon="6.78494">
        <ele>348</ele>
        <time>2016-10-01T14:37:33.000Z</time>
      </trkpt>
      <trkpt lat="47.47608" lon="6.785">
        <ele>349</ele>
        <time>2016-10-01T14:37:34.000Z</time>
      </trkpt>
      <trkpt lat="47.47606" lon="6.78504">
        <ele>350</ele>
        <time>2016-10-01T14:37:34.999Z</time>
      </trkpt>
      <trkpt lat="47.47605" lon="6.78511">
        <ele>350</ele>
        <time>2016-10-01T14:37:36.000Z</time>
      </trkpt>
      <trkpt lat="47.47603" lon="6.78515">
        <ele>350</ele>
        <time>2016-10-01T14:37:37.000Z</time>
      </trkpt>
      <trkpt lat="47.47601" lon="6.7852">
        <ele>350</ele>
        <time>2016-10-01T14:37:38.000Z</time>
      </trkpt>
      <trkpt lat="47.47599" lon="6.78526">
        <ele>350</ele>
        <time>2016-10-01T14:37:39.000Z</time>
      </trkpt>
      <trkpt lat="47.47597" lon="6.7853">
        <ele>350</ele>
        <time>2016-10-01T14:37:40.000Z</time>
      </trkpt>
      <trkpt lat="47.47595" lon="6.78536">
        <ele>350</ele>
        <time>2016-10-01T14:37:40.999Z</time>
      </trkpt>
      <trkpt lat="47.47592" lon="6.78539">
        <ele>350</ele>
        <time>2016-10-01T14:37:42.000Z</time>
      </trkpt>
      <trkpt lat="47.4759" lon="6.78542">
        <ele>350</ele>
        <time>2016-10-01T14:37:43.000Z</time>
      </trkpt>
      <trkpt lat="47.47587" lon="6.78545">
        <ele>350</ele>
        <time>2016-10-01T14:37:44.000Z</time>
      </trkpt>
      <trkpt lat="47.47584" lon="6.78548">
        <ele>350</ele>
        <time>2016-10-01T14:37:45.000Z</time>
      </trkpt>
      <trkpt lat="47.4758" lon="6.78551">
        <ele>354</ele>
        <time>2016-10-01T14:37:46.000Z</time>
      </trkpt>
      <trkpt lat="47.47577" lon="6.78556">
        <ele>354</ele>
        <time>2016-10-01T14:37:47.000Z</time>
      </trkpt>
      <trkpt lat="47.47575" lon="6.78561">
        <ele>354</ele>
        <time>2016-10-01T14:37:48.000Z</time>
      </trkpt>
      <trkpt lat="47.47573" lon="6.78565">
        <ele>354</ele>
        <time>2016-10-01T14:37:49.000Z</time>
      </trkpt>
      <trkpt lat="47.47573" lon="6.78574">
        <ele>353</ele>
        <time>2016-10-01T14:37:50.000Z</time>
      </trkpt>
      <trkpt lat="47.47572" lon="6.78579">
        <ele>353</ele>
        <time>2016-10-01T14:37:51.000Z</time>
      </trkpt>
      <trkpt lat="47.4757" lon="6.78584">
        <ele>354</ele>
        <time>2016-10-01T14:37:52.002Z</time>
      </trkpt>
      <trkpt lat="47.4757" lon="6.78589">
        <ele>354</ele>
        <time>2016-10-01T14:37:53.000Z</time>
      </trkpt>
      <trkpt lat="47.47569" lon="6.78593">
        <ele>354</ele>
        <time>2016-10-01T14:37:54.000Z</time>
      </trkpt>
      <trkpt lat="47.47568" lon="6.78597">
        <ele>355</ele>
        <time>2016-10-01T14:37:55.000Z</time>
      </trkpt>
      <trkpt lat="47.47568" lon="6.78601">
        <ele>355</ele>
        <time>2016-10-01T14:37:56.000Z</time>
      </trkpt>
      <trkpt lat="47.47567" lon="6.78607">
        <ele>356</ele>
        <time>2016-10-01T14:37:58.000Z</time>
      </trkpt>
      <trkpt lat="47.47567" lon="6.7861">
        <ele>356</ele>
        <time>2016-10-01T14:37:59.000Z</time>
      </trkpt>
      <trkpt lat="47.47565" lon="6.78615">
        <ele>356</ele>
        <time>2016-10-01T14:38:01.000Z</time>
      </trkpt>
      <trkpt lat="47.47564" lon="6.78617">
        <ele>356</ele>
        <time>2016-10-01T14:38:02.000Z</time>
      </trkpt>
      <trkpt lat="47.47563" lon="6.7862">
        <ele>356</ele>
        <time>2016-10-01T14:38:03.000Z</time>
      </trkpt>
      <trkpt lat="47.47562" lon="6.78623">
        <ele>357</ele>
        <time>2016-10-01T14:38:04.000Z</time>
      </trkpt>
      <trkpt lat="47.4756" lon="6.78626">
        <ele>357</ele>
        <time>2016-10-01T14:38:05.000Z</time>
      </trkpt>
      <trkpt lat="47.47559" lon="6.78629">
        <ele>357</ele>
        <time>2016-10-01T14:38:06.000Z</time>
      </trkpt>
      <trkpt lat="47.47557" lon="6.78632">
        <ele>357</ele>
        <time>2016-10-01T14:38:07.000Z</time>
      </trkpt>
      <trkpt lat="47.47555" lon="6.78635">
        <ele>357</ele>
        <time>2016-10-01T14:38:08.000Z</time>
      </trkpt>
      <trkpt lat="47.47553" lon="6.78638">
        <ele>357</ele>
        <time>2016-10-01T14:38:09.000Z</time>
      </trkpt>
      <trkpt lat="47.47552" lon="6.78641">
        <ele>357</ele>
        <time>2016-10-01T14:38:10.000Z</time>
      </trkpt>
      <trkpt lat="47.4755" lon="6.78644">
        <ele>358</ele>
        <time>2016-10-01T14:38:11.000Z</time>
      </trkpt>
      <trkpt lat="47.47548" lon="6.78648">
        <ele>358</ele>
        <time>2016-10-01T14:38:12.000Z</time>
      </trkpt>
      <trkpt lat="47.47547" lon="6.78651">
        <ele>358</ele>
        <time>2016-10-01T14:38:13.000Z</time>
      </trkpt>
      <trkpt lat="47.47545" lon="6.78655">
        <ele>358</ele>
        <time>2016-10-01T14:38:14.000Z</time>
      </trkpt>
      <trkpt lat="47.47544" lon="6.78658">
        <ele>358</ele>
        <time>2016-10-01T14:38:15.000Z</time>
      </trkpt>
      <trkpt lat="47.47543" lon="6.78661">
        <ele>358</ele>
        <time>2016-10-01T14:38:16.000Z</time>
      </trkpt>
      <trkpt lat="47.4754" lon="6.78665">
        <ele>358</ele>
        <time>2016-10-01T14:38:18.000Z</time>
      </trkpt>
      <trkpt lat="47.47539" lon="6.78666">
        <ele>358</ele>
        <time>2016-10-01T14:38:19.000Z</time>
      </trkpt>
      <trkpt lat="47.47536" lon="6.78666">
        <ele>358</ele>
        <time>2016-10-01T14:38:21.000Z</time>
      </trkpt>
      <trkpt lat="47.47534" lon="6.78666">
        <ele>358</ele>
        <time>2016-10-01T14:38:22.000Z</time>
      </trkpt>
      <trkpt lat="47.47532" lon="6.78671">
        <ele>360</ele>
        <time>2016-10-01T14:38:25.000Z</time>
      </trkpt>
      <trkpt lat="47.47531" lon="6.78673">
        <ele>360</ele>
        <time>2016-10-01T14:38:26.000Z</time>
      </trkpt>
      <trkpt lat="47.4753" lon="6.78677">
        <ele>360</ele>
        <time>2016-10-01T14:38:28.000Z</time>
      </trkpt>
      <trkpt lat="47.47528" lon="6.78679">
        <ele>360</ele>
        <time>2016-10-01T14:38:29.000Z</time>
      </trkpt>
      <trkpt lat="47.47526" lon="6.78682">
        <ele>360</ele>
        <time>2016-10-01T14:38:30.000Z</time>
      </trkpt>
      <trkpt lat="47.47524" lon="6.78684">
        <ele>360</ele>
        <time>2016-10-01T14:38:31.000Z</time>
      </trkpt>
      <trkpt lat="47.47522" lon="6.78686">
        <ele>360</ele>
        <time>2016-10-01T14:38:32.000Z</time>
      </trkpt>
      <trkpt lat="47.4752" lon="6.78688">
        <ele>360</ele>
        <time>2016-10-01T14:38:33.000Z</time>
      </trkpt>
      <trkpt lat="47.47518" lon="6.78693">
        <ele>360</ele>
        <time>2016-10-01T14:38:35.000Z</time>
      </trkpt>
      <trkpt lat="47.47518" lon="6.78695">
        <ele>360</ele>
        <time>2016-10-01T14:38:36.000Z</time>
      </trkpt>
      <trkpt lat="47.47518" lon="6.787">
        <ele>360</ele>
        <time>2016-10-01T14:38:41.000Z</time>
      </trkpt>
      <trkpt lat="47.47518" lon="6.78702">
        <ele>360</ele>
        <time>2016-10-01T14:38:42.000Z</time>
      </trkpt>
      <trkpt lat="47.47514" lon="6.78704">
        <ele>360</ele>
        <time>2016-10-01T14:38:51.000Z</time>
      </trkpt>
      <trkpt lat="47.47513" lon="6.78704">
        <ele>360</ele>
        <time>2016-10-01T14:38:52.000Z</time>
      </trkpt>
      <trkpt lat="47.47517" lon="6.78701">
        <ele>360</ele>
        <time>2016-10-01T14:39:15.000Z</time>
      </trkpt>
      <trkpt lat="47.47517" lon="6.787">
        <ele>360</ele>
        <time>2016-10-01T14:39:16.000Z</time>
      </trkpt>
      <trkpt lat="47.47516" lon="6.78694">
        <ele>360</ele>
        <time>2016-10-01T14:39:19.000Z</time>
      </trkpt>
      <trkpt lat="47.47515" lon="6.78692">
        <ele>360</ele>
        <time>2016-10-01T14:39:20.000Z</time>
      </trkpt>
      <trkpt lat="47.47513" lon="6.7869">
        <ele>360</ele>
        <time>2016-10-01T14:39:21.000Z</time>
      </trkpt>
      <trkpt lat="47.47511" lon="6.78688">
        <ele>360</ele>
        <time>2016-10-01T14:39:22.000Z</time>
      </trkpt>
      <trkpt lat="47.47509" lon="6.78686">
        <ele>360</ele>
        <time>2016-10-01T14:39:23.000Z</time>
      </trkpt>
      <trkpt lat="47.47507" lon="6.78684">
        <ele>360</ele>
        <time>2016-10-01T14:39:24.000Z</time>
      </trkpt>
      <trkpt lat="47.47505" lon="6.78683">
        <ele>360</ele>
        <time>2016-10-01T14:39:25.000Z</time>
      </trkpt>
      <trkpt lat="47.47503" lon="6.78681">
        <ele>360</ele>
        <time>2016-10-01T14:39:26.000Z</time>
      </trkpt>
      <trkpt lat="47.475" lon="6.78677">
        <ele>362</ele>
        <time>2016-10-01T14:39:28.000Z</time>
      </trkpt>
      <trkpt lat="47.47498" lon="6.78675">
        <ele>362</ele>
        <time>2016-10-01T14:39:29.000Z</time>
      </trkpt>
      <trkpt lat="47.47495" lon="6.78671">
        <ele>361</ele>
        <time>2016-10-01T14:39:31.000Z</time>
      </trkpt>
      <trkpt lat="47.47494" lon="6.7867">
        <ele>361</ele>
        <time>2016-10-01T14:39:32.000Z</time>
      </trkpt>
      <trkpt lat="47.47492" lon="6.78665">
        <ele>362</ele>
        <time>2016-10-01T14:39:34.000Z</time>
      </trkpt>
      <trkpt lat="47.47492" lon="6.78662">
        <ele>362</ele>
        <time>2016-10-01T14:39:35.000Z</time>
      </trkpt>
      <trkpt lat="47.47491" lon="6.78656">
        <ele>362</ele>
        <time>2016-10-01T14:39:37.000Z</time>
      </trkpt>
      <trkpt lat="47.47491" lon="6.78653">
        <ele>362</ele>
        <time>2016-10-01T14:39:38.000Z</time>
      </trkpt>
      <trkpt lat="47.47489" lon="6.78649">
        <ele>363</ele>
        <time>2016-10-01T14:39:40.000Z</time>
      </trkpt>
      <trkpt lat="47.47488" lon="6.78647">
        <ele>363</ele>
        <time>2016-10-01T14:39:41.000Z</time>
      </trkpt>
      <trkpt lat="47.47486" lon="6.78643">
        <ele>363</ele>
        <time>2016-10-01T14:39:43.000Z</time>
      </trkpt>
      <trkpt lat="47.47485" lon="6.78641">
        <ele>363</ele>
        <time>2016-10-01T14:39:44.000Z</time>
      </trkpt>
      <trkpt lat="47.47482" lon="6.78637">
        <ele>363</ele>
        <time>2016-10-01T14:39:46.000Z</time>
      </trkpt>
      <trkpt lat="47.47481" lon="6.78635">
        <ele>363</ele>
        <time>2016-10-01T14:39:47.000Z</time>
      </trkpt>
      <trkpt lat="47.4748" lon="6.78632">
        <ele>363</ele>
        <time>2016-10-01T14:39:48.000Z</time>
      </trkpt>
      <trkpt lat="47.47478" lon="6.78628">
        <ele>363</ele>
        <time>2016-10-01T14:39:49.000Z</time>
      </trkpt>
      <trkpt lat="47.47477" lon="6.78625">
        <ele>363</ele>
        <time>2016-10-01T14:39:50.000Z</time>
      </trkpt>
      <trkpt lat="47.47476" lon="6.78622">
        <ele>363</ele>
        <time>2016-10-01T14:39:51.000Z</time>
      </trkpt>
      <trkpt lat="47.47474" lon="6.78619">
        <ele>363</ele>
        <time>2016-10-01T14:39:52.000Z</time>
      </trkpt>
      <trkpt lat="47.47473" lon="6.78617">
        <ele>363</ele>
        <time>2016-10-01T14:39:53.000Z</time>
      </trkpt>
      <trkpt lat="47.47472" lon="6.78613">
        <ele>363</ele>
        <time>2016-10-01T14:39:54.000Z</time>
      </trkpt>
      <trkpt lat="47.4747" lon="6.7861">
        <ele>363</ele>
        <time>2016-10-01T14:39:55.000Z</time>
      </trkpt>
      <trkpt lat="47.47468" lon="6.78607">
        <ele>363</ele>
        <time>2016-10-01T14:39:56.000Z</time>
      </trkpt>
      <trkpt lat="47.47465" lon="6.78604">
        <ele>363</ele>
        <time>2016-10-01T14:39:57.000Z</time>
      </trkpt>
      <trkpt lat="47.47462" lon="6.78601">
        <ele>364</ele>
        <time>2016-10-01T14:39:58.000Z</time>
      </trkpt>
      <trkpt lat="47.47459" lon="6.78599">
        <ele>364</ele>
        <time>2016-10-01T14:39:59.000Z</time>
      </trkpt>
      <trkpt lat="47.47456" lon="6.78596">
        <ele>364</ele>
        <time>2016-10-01T14:40:00.000Z</time>
      </trkpt>
      <trkpt lat="47.47452" lon="6.78594">
        <ele>364</ele>
        <time>2016-10-01T14:40:01.000Z</time>
      </trkpt>
      <trkpt lat="47.47449" lon="6.78592">
        <ele>364</ele>
        <time>2016-10-01T14:40:02.000Z</time>
      </trkpt>
      <trkpt lat="47.47445" lon="6.78591">
        <ele>364</ele>
        <time>2016-10-01T14:40:03.000Z</time>
      </trkpt>
      <trkpt lat="47.47442" lon="6.78589">
        <ele>364</ele>
        <time>2016-10-01T14:40:04.000Z</time>
      </trkpt>
      <trkpt lat="47.47439" lon="6.78587">
        <ele>365</ele>
        <time>2016-10-01T14:40:05.000Z</time>
      </trkpt>
      <trkpt lat="47.47436" lon="6.78585">
        <ele>365</ele>
        <time>2016-10-01T14:40:06.000Z</time>
      </trkpt>
      <trkpt lat="47.47433" lon="6.78583">
        <ele>364</ele>
        <time>2016-10-01T14:40:07.000Z</time>
      </trkpt>
      <trkpt lat="47.47431" lon="6.78582">
        <ele>365</ele>
        <time>2016-10-01T14:40:08.000Z</time>
      </trkpt>
      <trkpt lat="47.47429" lon="6.78581">
        <ele>365</ele>
        <time>2016-10-01T14:40:08.999Z</time>
      </trkpt>
      <trkpt lat="47.47426" lon="6.7858">
        <ele>365</ele>
        <time>2016-10-01T14:40:10.000Z</time>
      </trkpt>
      <trkpt lat="47.47424" lon="6.78579">
        <ele>365</ele>
        <time>2016-10-01T14:40:11.001Z</time>
      </trkpt>
      <trkpt lat="47.47421" lon="6.7858">
        <ele>365</ele>
        <time>2016-10-01T14:40:12.000Z</time>
      </trkpt>
      <trkpt lat="47.47418" lon="6.7858">
        <ele>366</ele>
        <time>2016-10-01T14:40:13.000Z</time>
      </trkpt>
      <trkpt lat="47.47416" lon="6.7858">
        <ele>366</ele>
        <time>2016-10-01T14:40:14.000Z</time>
      </trkpt>
      <trkpt lat="47.47413" lon="6.7858">
        <ele>366</ele>
        <time>2016-10-01T14:40:15.000Z</time>
      </trkpt>
      <trkpt lat="47.47411" lon="6.7858">
        <ele>366</ele>
        <time>2016-10-01T14:40:15.999Z</time>
      </trkpt>
      <trkpt lat="47.47408" lon="6.78579">
        <ele>366</ele>
        <time>2016-10-01T14:40:17.001Z</time>
      </trkpt>
      <trkpt lat="47.47404" lon="6.78576">
        <ele>365</ele>
        <time>2016-10-01T14:40:18.000Z</time>
      </trkpt>
      <trkpt lat="47.47402" lon="6.78574">
        <ele>365</ele>
        <time>2016-10-01T14:40:19.000Z</time>
      </trkpt>
      <trkpt lat="47.47399" lon="6.78569">
        <ele>365</ele>
        <time>2016-10-01T14:40:20.000Z</time>
      </trkpt>
      <trkpt lat="47.47397" lon="6.78563">
        <ele>365</ele>
        <time>2016-10-01T14:40:21.000Z</time>
      </trkpt>
      <trkpt lat="47.47395" lon="6.78558">
        <ele>365</ele>
        <time>2016-10-01T14:40:22.000Z</time>
      </trkpt>
      <trkpt lat="47.47392" lon="6.78555">
        <ele>365</ele>
        <time>2016-10-01T14:40:23.000Z</time>
      </trkpt>
      <trkpt lat="47.4739" lon="6.78552">
        <ele>365</ele>
        <time>2016-10-01T14:40:24.000Z</time>
      </trkpt>
      <trkpt lat="47.47386" lon="6.7855">
        <ele>365</ele>
        <time>2016-10-01T14:40:25.000Z</time>
      </trkpt>
      <trkpt lat="47.47384" lon="6.78548">
        <ele>365</ele>
        <time>2016-10-01T14:40:26.000Z</time>
      </trkpt>
      <trkpt lat="47.47381" lon="6.78544">
        <ele>365</ele>
        <time>2016-10-01T14:40:27.000Z</time>
      </trkpt>
      <trkpt lat="47.47378" lon="6.78541">
        <ele>365</ele>
        <time>2016-10-01T14:40:28.000Z</time>
      </trkpt>
      <trkpt lat="47.47375" lon="6.78537">
        <ele>365</ele>
        <time>2016-10-01T14:40:29.000Z</time>
      </trkpt>
      <trkpt lat="47.47371" lon="6.78534">
        <ele>365</ele>
        <time>2016-10-01T14:40:30.000Z</time>
      </trkpt>
      <trkpt lat="47.47368" lon="6.78531">
        <ele>365</ele>
        <time>2016-10-01T14:40:31.000Z</time>
      </trkpt>
      <trkpt lat="47.47365" lon="6.78529">
        <ele>365</ele>
        <time>2016-10-01T14:40:32.000Z</time>
      </trkpt>
      <trkpt lat="47.47362" lon="6.78527">
        <ele>364</ele>
        <time>2016-10-01T14:40:33.000Z</time>
      </trkpt>
      <trkpt lat="47.47359" lon="6.78526">
        <ele>364</ele>
        <time>2016-10-01T14:40:34.000Z</time>
      </trkpt>
      <trkpt lat="47.47356" lon="6.78524">
        <ele>364</ele>
        <time>2016-10-01T14:40:35.000Z</time>
      </trkpt>
      <trkpt lat="47.47354" lon="6.78522">
        <ele>364</ele>
        <time>2016-10-01T14:40:36.000Z</time>
      </trkpt>
      <trkpt lat="47.47351" lon="6.7852">
        <ele>364</ele>
        <time>2016-10-01T14:40:37.000Z</time>
      </trkpt>
      <trkpt lat="47.47348" lon="6.78518">
        <ele>364</ele>
        <time>2016-10-01T14:40:38.000Z</time>
      </trkpt>
      <trkpt lat="47.47346" lon="6.78516">
        <ele>364</ele>
        <time>2016-10-01T14:40:39.000Z</time>
      </trkpt>
      <trkpt lat="47.47342" lon="6.78515">
        <ele>364</ele>
        <time>2016-10-01T14:40:40.000Z</time>
      </trkpt>
      <trkpt lat="47.47339" lon="6.78513">
        <ele>364</ele>
        <time>2016-10-01T14:40:41.000Z</time>
      </trkpt>
      <trkpt lat="47.47336" lon="6.78512">
        <ele>364</ele>
        <time>2016-10-01T14:40:42.000Z</time>
      </trkpt>
      <trkpt lat="47.47332" lon="6.7851">
        <ele>363</ele>
        <time>2016-10-01T14:40:43.000Z</time>
      </trkpt>
      <trkpt lat="47.47329" lon="6.78509">
        <ele>363</ele>
        <time>2016-10-01T14:40:44.000Z</time>
      </trkpt>
      <trkpt lat="47.47325" lon="6.78509">
        <ele>363</ele>
        <time>2016-10-01T14:40:45.000Z</time>
      </trkpt>
      <trkpt lat="47.47321" lon="6.78508">
        <ele>363</ele>
        <time>2016-10-01T14:40:46.000Z</time>
      </trkpt>
      <trkpt lat="47.47317" lon="6.78508">
        <ele>363</ele>
        <time>2016-10-01T14:40:47.000Z</time>
      </trkpt>
      <trkpt lat="47.47314" lon="6.78508">
        <ele>363</ele>
        <time>2016-10-01T14:40:48.000Z</time>
      </trkpt>
      <trkpt lat="47.4731" lon="6.78507">
        <ele>363</ele>
        <time>2016-10-01T14:40:49.000Z</time>
      </trkpt>
      <trkpt lat="47.47307" lon="6.78506">
        <ele>363</ele>
        <time>2016-10-01T14:40:50.000Z</time>
      </trkpt>
      <trkpt lat="47.47301" lon="6.78505">
        <ele>363</ele>
        <time>2016-10-01T14:40:51.000Z</time>
      </trkpt>
      <trkpt lat="47.47298" lon="6.78503">
        <ele>363</ele>
        <time>2016-10-01T14:40:52.000Z</time>
      </trkpt>
      <trkpt lat="47.47295" lon="6.78502">
        <ele>363</ele>
        <time>2016-10-01T14:40:53.000Z</time>
      </trkpt>
      <trkpt lat="47.4729" lon="6.78502">
        <ele>363</ele>
        <time>2016-10-01T14:40:54.000Z</time>
      </trkpt>
      <trkpt lat="47.47284" lon="6.78503">
        <ele>363</ele>
        <time>2016-10-01T14:40:55.000Z</time>
      </trkpt>
      <trkpt lat="47.47281" lon="6.78502">
        <ele>363</ele>
        <time>2016-10-01T14:40:56.000Z</time>
      </trkpt>
      <trkpt lat="47.47278" lon="6.785">
        <ele>362</ele>
        <time>2016-10-01T14:40:57.000Z</time>
      </trkpt>
      <trkpt lat="47.47275" lon="6.78498">
        <ele>362</ele>
        <time>2016-10-01T14:40:58.000Z</time>
      </trkpt>
      <trkpt lat="47.47272" lon="6.78496">
        <ele>362</ele>
        <time>2016-10-01T14:40:59.000Z</time>
      </trkpt>
      <trkpt lat="47.47269" lon="6.78494">
        <ele>362</ele>
        <time>2016-10-01T14:41:00.000Z</time>
      </trkpt>
      <trkpt lat="47.47266" lon="6.78492">
        <ele>362</ele>
        <time>2016-10-01T14:41:01.000Z</time>
      </trkpt>
      <trkpt lat="47.47263" lon="6.78491">
        <ele>362</ele>
        <time>2016-10-01T14:41:02.000Z</time>
      </trkpt>
      <trkpt lat="47.4726" lon="6.78488">
        <ele>362</ele>
        <time>2016-10-01T14:41:03.000Z</time>
      </trkpt>
      <trkpt lat="47.47257" lon="6.78486">
        <ele>362</ele>
        <time>2016-10-01T14:41:04.000Z</time>
      </trkpt>
      <trkpt lat="47.47253" lon="6.78484">
        <ele>362</ele>
        <time>2016-10-01T14:41:05.000Z</time>
      </trkpt>
      <trkpt lat="47.4725" lon="6.78481">
        <ele>361</ele>
        <time>2016-10-01T14:41:06.000Z</time>
      </trkpt>
      <trkpt lat="47.47246" lon="6.7848">
        <ele>361</ele>
        <time>2016-10-01T14:41:07.000Z</time>
      </trkpt>
      <trkpt lat="47.47243" lon="6.78478">
        <ele>361</ele>
        <time>2016-10-01T14:41:08.000Z</time>
      </trkpt>
      <trkpt lat="47.47239" lon="6.78478">
        <ele>361</ele>
        <time>2016-10-01T14:41:09.000Z</time>
      </trkpt>
      <trkpt lat="47.47235" lon="6.78477">
        <ele>361</ele>
        <time>2016-10-01T14:41:10.000Z</time>
      </trkpt>
      <trkpt lat="47.4723" lon="6.78475">
        <ele>361</ele>
        <time>2016-10-01T14:41:11.000Z</time>
      </trkpt>
      <trkpt lat="47.47226" lon="6.78473">
        <ele>360</ele>
        <time>2016-10-01T14:41:12.000Z</time>
      </trkpt>
      <trkpt lat="47.47222" lon="6.7847">
        <ele>360</ele>
        <time>2016-10-01T14:41:13.000Z</time>
      </trkpt>
      <trkpt lat="47.47218" lon="6.78468">
        <ele>360</ele>
        <time>2016-10-01T14:41:14.000Z</time>
      </trkpt>
      <trkpt lat="47.47209" lon="6.78462">
        <ele>360</ele>
        <time>2016-10-01T14:41:15.000Z</time>
      </trkpt>
      <trkpt lat="47.47203" lon="6.7846">
        <ele>360</ele>
        <time>2016-10-01T14:41:16.000Z</time>
      </trkpt>
      <trkpt lat="47.472" lon="6.78457">
        <ele>360</ele>
        <time>2016-10-01T14:41:17.000Z</time>
      </trkpt>
      <trkpt lat="47.47195" lon="6.78455">
        <ele>360</ele>
        <time>2016-10-01T14:41:18.000Z</time>
      </trkpt>
      <trkpt lat="47.47191" lon="6.78452">
        <ele>360</ele>
        <time>2016-10-01T14:41:19.000Z</time>
      </trkpt>
      <trkpt lat="47.47188" lon="6.78451">
        <ele>360</ele>
        <time>2016-10-01T14:41:20.000Z</time>
      </trkpt>
      <trkpt lat="47.47184" lon="6.78448">
        <ele>360</ele>
        <time>2016-10-01T14:41:21.000Z</time>
      </trkpt>
      <trkpt lat="47.47179" lon="6.78445">
        <ele>359</ele>
        <time>2016-10-01T14:41:22.000Z</time>
      </trkpt>
      <trkpt lat="47.47174" lon="6.78443">
        <ele>359</ele>
        <time>2016-10-01T14:41:23.000Z</time>
      </trkpt>
      <trkpt lat="47.47169" lon="6.78442">
        <ele>359</ele>
        <time>2016-10-01T14:41:24.000Z</time>
      </trkpt>
      <trkpt lat="47.47164" lon="6.78442">
        <ele>358</ele>
        <time>2016-10-01T14:41:24.999Z</time>
      </trkpt>
      <trkpt lat="47.4716" lon="6.78445">
        <ele>358</ele>
        <time>2016-10-01T14:41:26.000Z</time>
      </trkpt>
      <trkpt lat="47.47155" lon="6.78445">
        <ele>358</ele>
        <time>2016-10-01T14:41:27.000Z</time>
      </trkpt>
      <trkpt lat="47.47151" lon="6.7844">
        <ele>358</ele>
        <time>2016-10-01T14:41:28.000Z</time>
      </trkpt>
      <trkpt lat="47.47147" lon="6.78435">
        <ele>358</ele>
        <time>2016-10-01T14:41:29.000Z</time>
      </trkpt>
      <trkpt lat="47.47145" lon="6.78435">
        <ele>358</ele>
        <time>2016-10-01T14:41:30.001Z</time>
      </trkpt>
      <trkpt lat="47.47142" lon="6.78438">
        <ele>358</ele>
        <time>2016-10-01T14:41:31.000Z</time>
      </trkpt>
      <trkpt lat="47.4714" lon="6.7844">
        <ele>358</ele>
        <time>2016-10-01T14:41:32.000Z</time>
      </trkpt>
      <trkpt lat="47.47138" lon="6.78443">
        <ele>358</ele>
        <time>2016-10-01T14:41:33.000Z</time>
      </trkpt>
      <trkpt lat="47.47135" lon="6.78449">
        <ele>358</ele>
        <time>2016-10-01T14:41:34.000Z</time>
      </trkpt>
      <trkpt lat="47.47132" lon="6.78453">
        <ele>358</ele>
        <time>2016-10-01T14:41:35.000Z</time>
      </trkpt>
      <trkpt lat="47.47129" lon="6.78455">
        <ele>358</ele>
        <time>2016-10-01T14:41:36.000Z</time>
      </trkpt>
      <trkpt lat="47.47127" lon="6.78458">
        <ele>358</ele>
        <time>2016-10-01T14:41:37.000Z</time>
      </trkpt>
      <trkpt lat="47.47124" lon="6.7846">
        <ele>358</ele>
        <time>2016-10-01T14:41:38.000Z</time>
      </trkpt>
      <trkpt lat="47.47121" lon="6.78461">
        <ele>358</ele>
        <time>2016-10-01T14:41:39.000Z</time>
      </trkpt>
      <trkpt lat="47.47118" lon="6.78463">
        <ele>358</ele>
        <time>2016-10-01T14:41:40.000Z</time>
      </trkpt>
      <trkpt lat="47.47115" lon="6.78464">
        <ele>358</ele>
        <time>2016-10-01T14:41:41.000Z</time>
      </trkpt>
      <trkpt lat="47.47112" lon="6.78466">
        <ele>358</ele>
        <time>2016-10-01T14:41:42.000Z</time>
      </trkpt>
      <trkpt lat="47.47108" lon="6.78469">
        <ele>358</ele>
        <time>2016-10-01T14:41:43.000Z</time>
      </trkpt>
      <trkpt lat="47.47103" lon="6.78472">
        <ele>358</ele>
        <time>2016-10-01T14:41:44.000Z</time>
      </trkpt>
      <trkpt lat="47.47098" lon="6.78475">
        <ele>359</ele>
        <time>2016-10-01T14:41:45.000Z</time>
      </trkpt>
      <trkpt lat="47.47093" lon="6.78479">
        <ele>359</ele>
        <time>2016-10-01T14:41:46.000Z</time>
      </trkpt>
      <trkpt lat="47.47088" lon="6.78482">
        <ele>359</ele>
        <time>2016-10-01T14:41:47.000Z</time>
      </trkpt>
      <trkpt lat="47.47084" lon="6.78485">
        <ele>359</ele>
        <time>2016-10-01T14:41:48.000Z</time>
      </trkpt>
      <trkpt lat="47.47079" lon="6.78487">
        <ele>358</ele>
        <time>2016-10-01T14:41:49.000Z</time>
      </trkpt>
      <trkpt lat="47.47075" lon="6.7849">
        <ele>358</ele>
        <time>2016-10-01T14:41:50.000Z</time>
      </trkpt>
      <trkpt lat="47.4707" lon="6.78492">
        <ele>358</ele>
        <time>2016-10-01T14:41:51.000Z</time>
      </trkpt>
      <trkpt lat="47.47065" lon="6.78495">
        <ele>358</ele>
        <time>2016-10-01T14:41:52.000Z</time>
      </trkpt>
      <trkpt lat="47.47061" lon="6.78498">
        <ele>358</ele>
        <time>2016-10-01T14:41:53.000Z</time>
      </trkpt>
      <trkpt lat="47.47057" lon="6.78501">
        <ele>361</ele>
        <time>2016-10-01T14:41:54.000Z</time>
      </trkpt>
      <trkpt lat="47.47054" lon="6.78503">
        <ele>361</ele>
        <time>2016-10-01T14:41:55.000Z</time>
      </trkpt>
      <trkpt lat="47.47051" lon="6.78506">
        <ele>361</ele>
        <time>2016-10-01T14:41:56.000Z</time>
      </trkpt>
      <trkpt lat="47.47049" lon="6.78508">
        <ele>361</ele>
        <time>2016-10-01T14:41:57.000Z</time>
      </trkpt>
      <trkpt lat="47.47046" lon="6.78509">
        <ele>361</ele>
        <time>2016-10-01T14:41:58.000Z</time>
      </trkpt>
      <trkpt lat="47.47042" lon="6.7851">
        <ele>361</ele>
        <time>2016-10-01T14:41:59.000Z</time>
      </trkpt>
      <trkpt lat="47.47038" lon="6.78511">
        <ele>361</ele>
        <time>2016-10-01T14:42:00.000Z</time>
      </trkpt>
      <trkpt lat="47.47033" lon="6.78512">
        <ele>361</ele>
        <time>2016-10-01T14:42:01.000Z</time>
      </trkpt>
      <trkpt lat="47.47029" lon="6.78512">
        <ele>361</ele>
        <time>2016-10-01T14:42:02.000Z</time>
      </trkpt>
      <trkpt lat="47.47024" lon="6.78513">
        <ele>361</ele>
        <time>2016-10-01T14:42:03.000Z</time>
      </trkpt>
      <trkpt lat="47.47019" lon="6.78513">
        <ele>360</ele>
        <time>2016-10-01T14:42:04.000Z</time>
      </trkpt>
      <trkpt lat="47.47015" lon="6.78514">
        <ele>360</ele>
        <time>2016-10-01T14:42:05.000Z</time>
      </trkpt>
      <trkpt lat="47.4701" lon="6.78515">
        <ele>360</ele>
        <time>2016-10-01T14:42:06.000Z</time>
      </trkpt>
      <trkpt lat="47.47006" lon="6.78517">
        <ele>360</ele>
        <time>2016-10-01T14:42:07.000Z</time>
      </trkpt>
      <trkpt lat="47.47002" lon="6.78519">
        <ele>360</ele>
        <time>2016-10-01T14:42:08.000Z</time>
      </trkpt>
      <trkpt lat="47.46998" lon="6.78521">
        <ele>356</ele>
        <time>2016-10-01T14:42:09.000Z</time>
      </trkpt>
      <trkpt lat="47.46995" lon="6.78524">
        <ele>356</ele>
        <time>2016-10-01T14:42:10.000Z</time>
      </trkpt>
      <trkpt lat="47.46992" lon="6.78526">
        <ele>356</ele>
        <time>2016-10-01T14:42:11.000Z</time>
      </trkpt>
      <trkpt lat="47.46976" lon="6.78532">
        <ele>355</ele>
        <time>2016-10-01T14:42:12.000Z</time>
      </trkpt>
      <trkpt lat="47.46967" lon="6.78539">
        <ele>354</ele>
        <time>2016-10-01T14:42:13.000Z</time>
      </trkpt>
      <trkpt lat="47.4696" lon="6.78543">
        <ele>354</ele>
        <time>2016-10-01T14:42:14.000Z</time>
      </trkpt>
      <trkpt lat="47.46955" lon="6.78545">
        <ele>354</ele>
        <time>2016-10-01T14:42:15.000Z</time>
      </trkpt>
      <trkpt lat="47.46951" lon="6.78552">
        <ele>353</ele>
        <time>2016-10-01T14:42:16.000Z</time>
      </trkpt>
      <trkpt lat="47.46946" lon="6.78558">
        <ele>353</ele>
        <time>2016-10-01T14:42:17.000Z</time>
      </trkpt>
      <trkpt lat="47.46939" lon="6.78558">
        <ele>352</ele>
        <time>2016-10-01T14:42:18.000Z</time>
      </trkpt>
      <trkpt lat="47.46927" lon="6.78557">
        <ele>352</ele>
        <time>2016-10-01T14:42:19.000Z</time>
      </trkpt>
      <trkpt lat="47.46922" lon="6.78558">
        <ele>351</ele>
        <time>2016-10-01T14:42:20.000Z</time>
      </trkpt>
      <trkpt lat="47.46919" lon="6.78559">
        <ele>351</ele>
        <time>2016-10-01T14:42:22.000Z</time>
      </trkpt>
      <trkpt lat="47.46923" lon="6.78574">
        <ele>350</ele>
        <time>2016-10-01T14:42:23.000Z</time>
      </trkpt>
      <trkpt lat="47.46919" lon="6.78574">
        <ele>350</ele>
        <time>2016-10-01T14:42:29.000Z</time>
      </trkpt>
      <trkpt lat="47.46916" lon="6.78573">
        <ele>350</ele>
        <time>2016-10-01T14:42:30.000Z</time>
      </trkpt>
      <trkpt lat="47.46912" lon="6.78572">
        <ele>350</ele>
        <time>2016-10-01T14:42:32.000Z</time>
      </trkpt>
      <trkpt lat="47.4691" lon="6.78571">
        <ele>350</ele>
        <time>2016-10-01T14:42:33.000Z</time>
      </trkpt>
      <trkpt lat="47.46906" lon="6.7857">
        <ele>351</ele>
        <time>2016-10-01T14:42:35.000Z</time>
      </trkpt>
      <trkpt lat="47.46904" lon="6.7857">
        <ele>351</ele>
        <time>2016-10-01T14:42:36.000Z</time>
      </trkpt>
      <trkpt lat="47.46901" lon="6.78568">
        <ele>351</ele>
        <time>2016-10-01T14:42:38.000Z</time>
      </trkpt>
      <trkpt lat="47.46899" lon="6.78569">
        <ele>352</ele>
        <time>2016-10-01T14:42:39.000Z</time>
      </trkpt>
      <trkpt lat="47.46897" lon="6.78571">
        <ele>352</ele>
        <time>2016-10-01T14:42:40.000Z</time>
      </trkpt>
      <trkpt lat="47.46895" lon="6.78573">
        <ele>352</ele>
        <time>2016-10-01T14:42:41.000Z</time>
      </trkpt>
      <trkpt lat="47.46891" lon="6.78575">
        <ele>352</ele>
        <time>2016-10-01T14:42:43.000Z</time>
      </trkpt>
      <trkpt lat="47.46889" lon="6.78575">
        <ele>352</ele>
        <time>2016-10-01T14:42:44.000Z</time>
      </trkpt>
      <trkpt lat="47.46886" lon="6.78573">
        <ele>353</ele>
        <time>2016-10-01T14:42:46.000Z</time>
      </trkpt>
      <trkpt lat="47.46884" lon="6.78572">
        <ele>353</ele>
        <time>2016-10-01T14:42:47.000Z</time>
      </trkpt>
      <trkpt lat="47.4688" lon="6.7857">
        <ele>353</ele>
        <time>2016-10-01T14:42:50.000Z</time>
      </trkpt>
      <trkpt lat="47.46879" lon="6.7857">
        <ele>354</ele>
        <time>2016-10-01T14:42:51.000Z</time>
      </trkpt>
      <trkpt lat="47.46876" lon="6.78568">
        <ele>354</ele>
        <time>2016-10-01T14:42:54.000Z</time>
      </trkpt>
      <trkpt lat="47.46874" lon="6.78567">
        <ele>354</ele>
        <time>2016-10-01T14:42:55.000Z</time>
      </trkpt>
      <trkpt lat="47.46871" lon="6.78564">
        <ele>354</ele>
        <time>2016-10-01T14:42:57.000Z</time>
      </trkpt>
      <trkpt lat="47.46869" lon="6.78563">
        <ele>355</ele>
        <time>2016-10-01T14:42:58.000Z</time>
      </trkpt>
      <trkpt lat="47.46866" lon="6.78563">
        <ele>355</ele>
        <time>2016-10-01T14:42:59.000Z</time>
      </trkpt>
      <trkpt lat="47.46863" lon="6.78564">
        <ele>355</ele>
        <time>2016-10-01T14:43:00.000Z</time>
      </trkpt>
      <trkpt lat="47.4686" lon="6.78565">
        <ele>355</ele>
        <time>2016-10-01T14:43:02.000Z</time>
      </trkpt>
      <trkpt lat="47.46859" lon="6.78567">
        <ele>356</ele>
        <time>2016-10-01T14:43:03.000Z</time>
      </trkpt>
      <trkpt lat="47.46856" lon="6.78569">
        <ele>356</ele>
        <time>2016-10-01T14:43:08.000Z</time>
      </trkpt>
      <trkpt lat="47.46855" lon="6.78568">
        <ele>356</ele>
        <time>2016-10-01T14:43:09.000Z</time>
      </trkpt>
      <trkpt lat="47.46851" lon="6.78568">
        <ele>356</ele>
        <time>2016-10-01T14:43:11.000Z</time>
      </trkpt>
      <trkpt lat="47.46849" lon="6.78569">
        <ele>357</ele>
        <time>2016-10-01T14:43:12.000Z</time>
      </trkpt>
      <trkpt lat="47.46847" lon="6.7857">
        <ele>357</ele>
        <time>2016-10-01T14:43:13.000Z</time>
      </trkpt>
      <trkpt lat="47.46844" lon="6.78568">
        <ele>357</ele>
        <time>2016-10-01T14:43:14.000Z</time>
      </trkpt>
      <trkpt lat="47.46841" lon="6.78566">
        <ele>357</ele>
        <time>2016-10-01T14:43:15.000Z</time>
      </trkpt>
      <trkpt lat="47.46838" lon="6.78564">
        <ele>357</ele>
        <time>2016-10-01T14:43:16.000Z</time>
      </trkpt>
      <trkpt lat="47.46834" lon="6.78565">
        <ele>357</ele>
        <time>2016-10-01T14:43:19.000Z</time>
      </trkpt>
      <trkpt lat="47.46833" lon="6.78567">
        <ele>363</ele>
        <time>2016-10-01T14:43:20.000Z</time>
      </trkpt>
      <trkpt lat="47.4683" lon="6.78571">
        <ele>363</ele>
        <time>2016-10-01T14:43:22.000Z</time>
      </trkpt>
      <trkpt lat="47.46828" lon="6.78572">
        <ele>363</ele>
        <time>2016-10-01T14:43:23.000Z</time>
      </trkpt>
      <trkpt lat="47.46826" lon="6.78574">
        <ele>363</ele>
        <time>2016-10-01T14:43:24.000Z</time>
      </trkpt>
      <trkpt lat="47.46824" lon="6.78576">
        <ele>363</ele>
        <time>2016-10-01T14:43:25.000Z</time>
      </trkpt>
      <trkpt lat="47.4682" lon="6.78578">
        <ele>363</ele>
        <time>2016-10-01T14:43:27.000Z</time>
      </trkpt>
      <trkpt lat="47.46817" lon="6.78579">
        <ele>364</ele>
        <time>2016-10-01T14:43:28.000Z</time>
      </trkpt>
      <trkpt lat="47.46814" lon="6.7858">
        <ele>364</ele>
        <time>2016-10-01T14:43:29.000Z</time>
      </trkpt>
      <trkpt lat="47.46811" lon="6.78581">
        <ele>364</ele>
        <time>2016-10-01T14:43:30.000Z</time>
      </trkpt>
      <trkpt lat="47.46808" lon="6.78581">
        <ele>365</ele>
        <time>2016-10-01T14:43:31.000Z</time>
      </trkpt>
      <trkpt lat="47.46806" lon="6.78582">
        <ele>365</ele>
        <time>2016-10-01T14:43:32.000Z</time>
      </trkpt>
      <trkpt lat="47.46802" lon="6.78584">
        <ele>366</ele>
        <time>2016-10-01T14:43:34.000Z</time>
      </trkpt>
      <trkpt lat="47.46801" lon="6.78585">
        <ele>366</ele>
        <time>2016-10-01T14:43:35.000Z</time>
      </trkpt>
      <trkpt lat="47.46797" lon="6.78588">
        <ele>366</ele>
        <time>2016-10-01T14:43:37.000Z</time>
      </trkpt>
      <trkpt lat="47.46796" lon="6.7859">
        <ele>367</ele>
        <time>2016-10-01T14:43:38.000Z</time>
      </trkpt>
      <trkpt lat="47.46793" lon="6.78595">
        <ele>367</ele>
        <time>2016-10-01T14:43:40.000Z</time>
      </trkpt>
      <trkpt lat="47.46792" lon="6.78596">
        <ele>367</ele>
        <time>2016-10-01T14:43:41.000Z</time>
      </trkpt>
      <trkpt lat="47.46789" lon="6.78598">
        <ele>367</ele>
        <time>2016-10-01T14:43:43.000Z</time>
      </trkpt>
      <trkpt lat="47.46788" lon="6.78598">
        <ele>368</ele>
        <time>2016-10-01T14:43:44.000Z</time>
      </trkpt>
      <trkpt lat="47.46784" lon="6.78601">
        <ele>368</ele>
        <time>2016-10-01T14:43:48.000Z</time>
      </trkpt>
      <trkpt lat="47.46783" lon="6.78602">
        <ele>368</ele>
        <time>2016-10-01T14:43:49.000Z</time>
      </trkpt>
      <trkpt lat="47.4678" lon="6.786">
        <ele>368</ele>
        <time>2016-10-01T14:43:51.000Z</time>
      </trkpt>
      <trkpt lat="47.46778" lon="6.786">
        <ele>369</ele>
        <time>2016-10-01T14:43:52.000Z</time>
      </trkpt>
      <trkpt lat="47.46776" lon="6.78598">
        <ele>369</ele>
        <time>2016-10-01T14:43:53.000Z</time>
      </trkpt>
      <trkpt lat="47.46774" lon="6.78598">
        <ele>369</ele>
        <time>2016-10-01T14:43:54.000Z</time>
      </trkpt>
      <trkpt lat="47.46771" lon="6.78598">
        <ele>369</ele>
        <time>2016-10-01T14:43:55.000Z</time>
      </trkpt>
      <trkpt lat="47.46769" lon="6.78599">
        <ele>370</ele>
        <time>2016-10-01T14:43:56.000Z</time>
      </trkpt>
      <trkpt lat="47.46766" lon="6.78601">
        <ele>370</ele>
        <time>2016-10-01T14:43:57.000Z</time>
      </trkpt>
      <trkpt lat="47.46764" lon="6.78603">
        <ele>370</ele>
        <time>2016-10-01T14:43:58.000Z</time>
      </trkpt>
      <trkpt lat="47.46761" lon="6.78607">
        <ele>370</ele>
        <time>2016-10-01T14:44:00.000Z</time>
      </trkpt>
      <trkpt lat="47.46759" lon="6.78609">
        <ele>370</ele>
        <time>2016-10-01T14:44:01.000Z</time>
      </trkpt>
      <trkpt lat="47.46757" lon="6.78611">
        <ele>370</ele>
        <time>2016-10-01T14:44:02.000Z</time>
      </trkpt>
      <trkpt lat="47.46755" lon="6.78614">
        <ele>370</ele>
        <time>2016-10-01T14:44:03.000Z</time>
      </trkpt>
      <trkpt lat="47.46752" lon="6.78619">
        <ele>370</ele>
        <time>2016-10-01T14:44:05.000Z</time>
      </trkpt>
      <trkpt lat="47.46751" lon="6.78622">
        <ele>369</ele>
        <time>2016-10-01T14:44:06.000Z</time>
      </trkpt>
      <trkpt lat="47.46749" lon="6.78627">
        <ele>376</ele>
        <time>2016-10-01T14:44:08.000Z</time>
      </trkpt>
      <trkpt lat="47.46748" lon="6.78629">
        <ele>376</ele>
        <time>2016-10-01T14:44:09.000Z</time>
      </trkpt>
      <trkpt lat="47.46746" lon="6.78633">
        <ele>376</ele>
        <time>2016-10-01T14:44:11.000Z</time>
      </trkpt>
      <trkpt lat="47.46746" lon="6.78635">
        <ele>376</ele>
        <time>2016-10-01T14:44:12.000Z</time>
      </trkpt>
      <trkpt lat="47.46744" lon="6.78641">
        <ele>375</ele>
        <time>2016-10-01T14:44:15.000Z</time>
      </trkpt>
      <trkpt lat="47.46743" lon="6.78643">
        <ele>375</ele>
        <time>2016-10-01T14:44:16.000Z</time>
      </trkpt>
      <trkpt lat="47.46741" lon="6.78647">
        <ele>375</ele>
        <time>2016-10-01T14:44:18.000Z</time>
      </trkpt>
      <trkpt lat="47.4674" lon="6.7865">
        <ele>375</ele>
        <time>2016-10-01T14:44:19.000Z</time>
      </trkpt>
      <trkpt lat="47.46738" lon="6.78654">
        <ele>375</ele>
        <time>2016-10-01T14:44:21.000Z</time>
      </trkpt>
      <trkpt lat="47.46737" lon="6.78656">
        <ele>375</ele>
        <time>2016-10-01T14:44:22.000Z</time>
      </trkpt>
      <trkpt lat="47.46735" lon="6.78659">
        <ele>375</ele>
        <time>2016-10-01T14:44:23.000Z</time>
      </trkpt>
      <trkpt lat="47.46733" lon="6.78661">
        <ele>375</ele>
        <time>2016-10-01T14:44:24.000Z</time>
      </trkpt>
      <trkpt lat="47.46731" lon="6.78663">
        <ele>375</ele>
        <time>2016-10-01T14:44:25.000Z</time>
      </trkpt>
      <trkpt lat="47.46729" lon="6.78665">
        <ele>375</ele>
        <time>2016-10-01T14:44:26.000Z</time>
      </trkpt>
      <trkpt lat="47.46726" lon="6.78668">
        <ele>374</ele>
        <time>2016-10-01T14:44:28.000Z</time>
      </trkpt>
      <trkpt lat="47.46725" lon="6.78669">
        <ele>374</ele>
        <time>2016-10-01T14:44:29.000Z</time>
      </trkpt>
      <trkpt lat="47.46723" lon="6.78674">
        <ele>374</ele>
        <time>2016-10-01T14:44:33.000Z</time>
      </trkpt>
      <trkpt lat="47.46723" lon="6.78676">
        <ele>374</ele>
        <time>2016-10-01T14:44:34.000Z</time>
      </trkpt>
      <trkpt lat="47.46719" lon="6.78674">
        <ele>374</ele>
        <time>2016-10-01T14:44:47.000Z</time>
      </trkpt>
      <trkpt lat="47.46719" lon="6.78674">
        <ele>374</ele>
        <time>2016-10-01T14:44:48.000Z</time>
      </trkpt>
      <trkpt lat="47.46715" lon="6.78674">
        <ele>374</ele>
        <time>2016-10-01T14:44:53.000Z</time>
      </trkpt>
      <trkpt lat="47.46714" lon="6.78677">
        <ele>374</ele>
        <time>2016-10-01T14:44:54.000Z</time>
      </trkpt>
      <trkpt lat="47.46711" lon="6.78678">
        <ele>375</ele>
        <time>2016-10-01T14:44:57.000Z</time>
      </trkpt>
      <trkpt lat="47.46709" lon="6.78678">
        <ele>375</ele>
        <time>2016-10-01T14:44:58.000Z</time>
      </trkpt>
      <trkpt lat="47.46705" lon="6.78679">
        <ele>375</ele>
        <time>2016-10-01T14:45:00.000Z</time>
      </trkpt>
      <trkpt lat="47.46704" lon="6.7868">
        <ele>375</ele>
        <time>2016-10-01T14:45:00.999Z</time>
      </trkpt>
      <trkpt lat="47.46701" lon="6.78681">
        <ele>375</ele>
        <time>2016-10-01T14:45:02.000Z</time>
      </trkpt>
      <trkpt lat="47.46698" lon="6.78682">
        <ele>376</ele>
        <time>2016-10-01T14:45:03.000Z</time>
      </trkpt>
      <trkpt lat="47.46697" lon="6.78682">
        <ele>376</ele>
        <time>2016-10-01T14:45:04.000Z</time>
      </trkpt>
      <trkpt lat="47.46693" lon="6.78681">
        <ele>376</ele>
        <time>2016-10-01T14:45:05.000Z</time>
      </trkpt>
      <trkpt lat="47.46689" lon="6.78681">
        <ele>376</ele>
        <time>2016-10-01T14:45:07.000Z</time>
      </trkpt>
      <trkpt lat="47.46688" lon="6.78682">
        <ele>376</ele>
        <time>2016-10-01T14:45:08.000Z</time>
      </trkpt>
      <trkpt lat="47.46685" lon="6.78687">
        <ele>376</ele>
        <time>2016-10-01T14:45:12.000Z</time>
      </trkpt>
      <trkpt lat="47.46683" lon="6.78687">
        <ele>376</ele>
        <time>2016-10-01T14:45:13.001Z</time>
      </trkpt>
      <trkpt lat="47.4668" lon="6.78687">
        <ele>377</ele>
        <time>2016-10-01T14:45:15.000Z</time>
      </trkpt>
      <trkpt lat="47.46678" lon="6.78688">
        <ele>377</ele>
        <time>2016-10-01T14:45:16.000Z</time>
      </trkpt>
      <trkpt lat="47.46674" lon="6.78688">
        <ele>377</ele>
        <time>2016-10-01T14:45:20.000Z</time>
      </trkpt>
      <trkpt lat="47.46674" lon="6.78688">
        <ele>377</ele>
        <time>2016-10-01T14:45:21.000Z</time>
      </trkpt>
      <trkpt lat="47.4667" lon="6.78687">
        <ele>377</ele>
        <time>2016-10-01T14:45:23.000Z</time>
      </trkpt>
      <trkpt lat="47.46668" lon="6.78687">
        <ele>377</ele>
        <time>2016-10-01T14:45:24.000Z</time>
      </trkpt>
      <trkpt lat="47.46664" lon="6.78688">
        <ele>381</ele>
        <time>2016-10-01T14:45:26.000Z</time>
      </trkpt>
      <trkpt lat="47.46664" lon="6.78689">
        <ele>381</ele>
        <time>2016-10-01T14:45:27.000Z</time>
      </trkpt>
      <trkpt lat="47.46662" lon="6.78694">
        <ele>381</ele>
        <time>2016-10-01T14:45:32.000Z</time>
      </trkpt>
      <trkpt lat="47.46661" lon="6.78695">
        <ele>381</ele>
        <time>2016-10-01T14:45:33.001Z</time>
      </trkpt>
      <trkpt lat="47.46658" lon="6.78693">
        <ele>381</ele>
        <time>2016-10-01T14:45:35.000Z</time>
      </trkpt>
      <trkpt lat="47.46656" lon="6.78691">
        <ele>381</ele>
        <time>2016-10-01T14:45:36.000Z</time>
      </trkpt>
      <trkpt lat="47.46654" lon="6.78689">
        <ele>381</ele>
        <time>2016-10-01T14:45:37.000Z</time>
      </trkpt>
      <trkpt lat="47.46652" lon="6.78687">
        <ele>381</ele>
        <time>2016-10-01T14:45:38.000Z</time>
      </trkpt>
      <trkpt lat="47.46649" lon="6.78685">
        <ele>381</ele>
        <time>2016-10-01T14:45:39.000Z</time>
      </trkpt>
      <trkpt lat="47.46647" lon="6.78684">
        <ele>381</ele>
        <time>2016-10-01T14:45:40.000Z</time>
      </trkpt>
      <trkpt lat="47.46645" lon="6.78683">
        <ele>381</ele>
        <time>2016-10-01T14:45:41.000Z</time>
      </trkpt>
      <trkpt lat="47.46642" lon="6.78681">
        <ele>381</ele>
        <time>2016-10-01T14:45:42.000Z</time>
      </trkpt>
      <trkpt lat="47.4664" lon="6.7868">
        <ele>382</ele>
        <time>2016-10-01T14:45:43.000Z</time>
      </trkpt>
      <trkpt lat="47.46638" lon="6.78678">
        <ele>382</ele>
        <time>2016-10-01T14:45:44.000Z</time>
      </trkpt>
      <trkpt lat="47.46636" lon="6.78676">
        <ele>382</ele>
        <time>2016-10-01T14:45:45.000Z</time>
      </trkpt>
      <trkpt lat="47.46634" lon="6.78674">
        <ele>382</ele>
        <time>2016-10-01T14:45:46.000Z</time>
      </trkpt>
      <trkpt lat="47.46632" lon="6.78671">
        <ele>382</ele>
        <time>2016-10-01T14:45:47.000Z</time>
      </trkpt>
      <trkpt lat="47.4663" lon="6.7867">
        <ele>382</ele>
        <time>2016-10-01T14:45:48.000Z</time>
      </trkpt>
      <trkpt lat="47.46628" lon="6.78668">
        <ele>382</ele>
        <time>2016-10-01T14:45:49.000Z</time>
      </trkpt>
      <trkpt lat="47.46625" lon="6.78667">
        <ele>384</ele>
        <time>2016-10-01T14:45:50.000Z</time>
      </trkpt>
      <trkpt lat="47.46623" lon="6.78665">
        <ele>384</ele>
        <time>2016-10-01T14:45:51.000Z</time>
      </trkpt>
      <trkpt lat="47.46621" lon="6.78663">
        <ele>384</ele>
        <time>2016-10-01T14:45:52.000Z</time>
      </trkpt>
      <trkpt lat="47.46617" lon="6.78663">
        <ele>385</ele>
        <time>2016-10-01T14:45:54.000Z</time>
      </trkpt>
      <trkpt lat="47.46616" lon="6.78662">
        <ele>385</ele>
        <time>2016-10-01T14:45:55.000Z</time>
      </trkpt>
      <trkpt lat="47.46611" lon="6.78662">
        <ele>385</ele>
        <time>2016-10-01T14:45:58.000Z</time>
      </trkpt>
      <trkpt lat="47.4661" lon="6.78662">
        <ele>385</ele>
        <time>2016-10-01T14:45:59.000Z</time>
      </trkpt>
      <trkpt lat="47.46606" lon="6.7866">
        <ele>385</ele>
        <time>2016-10-01T14:46:02.000Z</time>
      </trkpt>
      <trkpt lat="47.46605" lon="6.78661">
        <ele>385</ele>
        <time>2016-10-01T14:46:03.000Z</time>
      </trkpt>
      <trkpt lat="47.46602" lon="6.78664">
        <ele>385</ele>
        <time>2016-10-01T14:46:05.000Z</time>
      </trkpt>
      <trkpt lat="47.46601" lon="6.78666">
        <ele>385</ele>
        <time>2016-10-01T14:46:06.000Z</time>
      </trkpt>
      <trkpt lat="47.46597" lon="6.78667">
        <ele>385</ele>
        <time>2016-10-01T14:46:08.000Z</time>
      </trkpt>
      <trkpt lat="47.46595" lon="6.78667">
        <ele>384</ele>
        <time>2016-10-01T14:46:09.000Z</time>
      </trkpt>
      <trkpt lat="47.46592" lon="6.78669">
        <ele>385</ele>
        <time>2016-10-01T14:46:11.000Z</time>
      </trkpt>
      <trkpt lat="47.46591" lon="6.78669">
        <ele>385</ele>
        <time>2016-10-01T14:46:12.001Z</time>
      </trkpt>
      <trkpt lat="47.46588" lon="6.78669">
        <ele>385</ele>
        <time>2016-10-01T14:46:13.998Z</time>
      </trkpt>
      <trkpt lat="47.46584" lon="6.78666">
        <ele>386</ele>
        <time>2016-10-01T14:46:15.000Z</time>
      </trkpt>
      <trkpt lat="47.46581" lon="6.78665">
        <ele>387</ele>
        <time>2016-10-01T14:46:16.000Z</time>
      </trkpt>
      <trkpt lat="47.46578" lon="6.78665">
        <ele>388</ele>
        <time>2016-10-01T14:46:17.000Z</time>
      </trkpt>
      <trkpt lat="47.46575" lon="6.78664">
        <ele>389</ele>
        <time>2016-10-01T14:46:18.000Z</time>
      </trkpt>
      <trkpt lat="47.46572" lon="6.78662">
        <ele>390</ele>
        <time>2016-10-01T14:46:18.999Z</time>
      </trkpt>
      <trkpt lat="47.46568" lon="6.78662">
        <ele>391</ele>
        <time>2016-10-01T14:46:20.000Z</time>
      </trkpt>
      <trkpt lat="47.46566" lon="6.78661">
        <ele>391</ele>
        <time>2016-10-01T14:46:20.999Z</time>
      </trkpt>
      <trkpt lat="47.46564" lon="6.78664">
        <ele>392</ele>
        <time>2016-10-01T14:46:22.000Z</time>
      </trkpt>
      <trkpt lat="47.46562" lon="6.78665">
        <ele>392</ele>
        <time>2016-10-01T14:46:23.000Z</time>
      </trkpt>
      <trkpt lat="47.46557" lon="6.78666">
        <ele>393</ele>
        <time>2016-10-01T14:46:26.000Z</time>
      </trkpt>
      <trkpt lat="47.46556" lon="6.78666">
        <ele>393</ele>
        <time>2016-10-01T14:46:26.999Z</time>
      </trkpt>
      <trkpt lat="47.46559" lon="6.78663">
        <ele>392</ele>
        <time>2016-10-01T14:46:30.000Z</time>
      </trkpt>
      <trkpt lat="47.4656" lon="6.78661">
        <ele>392</ele>
        <time>2016-10-01T14:46:31.000Z</time>
      </trkpt>
      <trkpt lat="47.46562" lon="6.78659">
        <ele>392</ele>
        <time>2016-10-01T14:46:32.000Z</time>
      </trkpt>
      <trkpt lat="47.46564" lon="6.78658">
        <ele>392</ele>
        <time>2016-10-01T14:46:33.000Z</time>
      </trkpt>
      <trkpt lat="47.46565" lon="6.78653">
        <ele>392</ele>
        <time>2016-10-01T14:46:35.000Z</time>
      </trkpt>
      <trkpt lat="47.46565" lon="6.7865">
        <ele>392</ele>
        <time>2016-10-01T14:46:36.000Z</time>
      </trkpt>
      <trkpt lat="47.46565" lon="6.78644">
        <ele>393</ele>
        <time>2016-10-01T14:46:39.000Z</time>
      </trkpt>
      <trkpt lat="47.46565" lon="6.78641">
        <ele>393</ele>
        <time>2016-10-01T14:46:40.000Z</time>
      </trkpt>
      <trkpt lat="47.46565" lon="6.78637">
        <ele>393</ele>
        <time>2016-10-01T14:46:40.999Z</time>
      </trkpt>
      <trkpt lat="47.46566" lon="6.78635">
        <ele>393</ele>
        <time>2016-10-01T14:46:42.000Z</time>
      </trkpt>
      <trkpt lat="47.46567" lon="6.78631">
        <ele>393</ele>
        <time>2016-10-01T14:46:43.000Z</time>
      </trkpt>
      <trkpt lat="47.46568" lon="6.78627">
        <ele>393</ele>
        <time>2016-10-01T14:46:44.000Z</time>
      </trkpt>
      <trkpt lat="47.46567" lon="6.78624">
        <ele>393</ele>
        <time>2016-10-01T14:46:45.000Z</time>
      </trkpt>
      <trkpt lat="47.46567" lon="6.7862">
        <ele>393</ele>
        <time>2016-10-01T14:46:46.000Z</time>
      </trkpt>
      <trkpt lat="47.46566" lon="6.78616">
        <ele>393</ele>
        <time>2016-10-01T14:46:47.000Z</time>
      </trkpt>
      <trkpt lat="47.46565" lon="6.78612">
        <ele>393</ele>
        <time>2016-10-01T14:46:48.000Z</time>
      </trkpt>
      <trkpt lat="47.46565" lon="6.78608">
        <ele>393</ele>
        <time>2016-10-01T14:46:49.000Z</time>
      </trkpt>
      <trkpt lat="47.46565" lon="6.78604">
        <ele>393</ele>
        <time>2016-10-01T14:46:50.000Z</time>
      </trkpt>
      <trkpt lat="47.46565" lon="6.786">
        <ele>393</ele>
        <time>2016-10-01T14:46:51.001Z</time>
      </trkpt>
      <trkpt lat="47.46564" lon="6.78597">
        <ele>393</ele>
        <time>2016-10-01T14:46:52.000Z</time>
      </trkpt>
      <trkpt lat="47.46564" lon="6.78591">
        <ele>393</ele>
        <time>2016-10-01T14:46:54.000Z</time>
      </trkpt>
      <trkpt lat="47.46564" lon="6.78589">
        <ele>393</ele>
        <time>2016-10-01T14:46:55.000Z</time>
      </trkpt>
      <trkpt lat="47.46562" lon="6.78584">
        <ele>393</ele>
        <time>2016-10-01T14:46:58.000Z</time>
      </trkpt>
      <trkpt lat="47.46562" lon="6.78582">
        <ele>392</ele>
        <time>2016-10-01T14:46:59.000Z</time>
      </trkpt>
      <trkpt lat="47.46559" lon="6.78577">
        <ele>393</ele>
        <time>2016-10-01T14:47:14.000Z</time>
      </trkpt>
      <trkpt lat="47.46559" lon="6.78576">
        <ele>393</ele>
        <time>2016-10-01T14:47:15.000Z</time>
      </trkpt>
      <trkpt lat="47.46558" lon="6.78572">
        <ele>393</ele>
        <time>2016-10-01T14:47:17.000Z</time>
      </trkpt>
      <trkpt lat="47.46558" lon="6.78569">
        <ele>393</ele>
        <time>2016-10-01T14:47:18.000Z</time>
      </trkpt>
      <trkpt lat="47.46559" lon="6.78564">
        <ele>393</ele>
        <time>2016-10-01T14:47:20.000Z</time>
      </trkpt>
      <trkpt lat="47.4656" lon="6.78561">
        <ele>393</ele>
        <time>2016-10-01T14:47:21.000Z</time>
      </trkpt>
      <trkpt lat="47.4656" lon="6.78557">
        <ele>393</ele>
        <time>2016-10-01T14:47:22.000Z</time>
      </trkpt>
      <trkpt lat="47.4656" lon="6.78552">
        <ele>393</ele>
        <time>2016-10-01T14:47:23.000Z</time>
      </trkpt>
      <trkpt lat="47.4656" lon="6.78548">
        <ele>393</ele>
        <time>2016-10-01T14:47:24.000Z</time>
      </trkpt>
      <trkpt lat="47.4656" lon="6.78544">
        <ele>393</ele>
        <time>2016-10-01T14:47:25.000Z</time>
      </trkpt>
      <trkpt lat="47.46561" lon="6.7854">
        <ele>393</ele>
        <time>2016-10-01T14:47:26.000Z</time>
      </trkpt>
      <trkpt lat="47.46562" lon="6.78537">
        <ele>393</ele>
        <time>2016-10-01T14:47:27.000Z</time>
      </trkpt>
      <trkpt lat="47.46562" lon="6.78533">
        <ele>392</ele>
        <time>2016-10-01T14:47:28.000Z</time>
      </trkpt>
      <trkpt lat="47.46563" lon="6.78529">
        <ele>392</ele>
        <time>2016-10-01T14:47:29.000Z</time>
      </trkpt>
      <trkpt lat="47.46563" lon="6.78526">
        <ele>392</ele>
        <time>2016-10-01T14:47:30.000Z</time>
      </trkpt>
      <trkpt lat="47.46563" lon="6.78522">
        <ele>392</ele>
        <time>2016-10-01T14:47:31.000Z</time>
      </trkpt>
      <trkpt lat="47.46563" lon="6.78517">
        <ele>392</ele>
        <time>2016-10-01T14:47:32.000Z</time>
      </trkpt>
      <trkpt lat="47.46563" lon="6.78513">
        <ele>391</ele>
        <time>2016-10-01T14:47:33.000Z</time>
      </trkpt>
      <trkpt lat="47.46562" lon="6.78507">
        <ele>391</ele>
        <time>2016-10-01T14:47:34.001Z</time>
      </trkpt>
      <trkpt lat="47.46562" lon="6.78502">
        <ele>391</ele>
        <time>2016-10-01T14:47:35.000Z</time>
      </trkpt>
      <trkpt lat="47.46562" lon="6.78496">
        <ele>390</ele>
        <time>2016-10-01T14:47:36.000Z</time>
      </trkpt>
      <trkpt lat="47.46562" lon="6.7849">
        <ele>390</ele>
        <time>2016-10-01T14:47:37.000Z</time>
      </trkpt>
      <trkpt lat="47.46562" lon="6.78485">
        <ele>390</ele>
        <time>2016-10-01T14:47:38.000Z</time>
      </trkpt>
      <trkpt lat="47.46561" lon="6.78479">
        <ele>390</ele>
        <time>2016-10-01T14:47:39.000Z</time>
      </trkpt>
      <trkpt lat="47.46561" lon="6.78473">
        <ele>390</ele>
        <time>2016-10-01T14:47:40.000Z</time>
      </trkpt>
      <trkpt lat="47.4656" lon="6.78467">
        <ele>390</ele>
        <time>2016-10-01T14:47:41.000Z</time>
      </trkpt>
      <trkpt lat="47.4656" lon="6.78461">
        <ele>390</ele>
        <time>2016-10-01T14:47:42.000Z</time>
      </trkpt>
      <trkpt lat="47.4656" lon="6.78454">
        <ele>390</ele>
        <time>2016-10-01T14:47:43.000Z</time>
      </trkpt>
      <trkpt lat="47.46559" lon="6.78443">
        <ele>390</ele>
        <time>2016-10-01T14:47:44.000Z</time>
      </trkpt>
      <trkpt lat="47.4656" lon="6.78435">
        <ele>390</ele>
        <time>2016-10-01T14:47:45.000Z</time>
      </trkpt>
      <trkpt lat="47.46561" lon="6.78427">
        <ele>390</ele>
        <time>2016-10-01T14:47:46.000Z</time>
      </trkpt>
      <trkpt lat="47.4656" lon="6.78417">
        <ele>387</ele>
        <time>2016-10-01T14:47:47.000Z</time>
      </trkpt>
      <trkpt lat="47.46559" lon="6.7841">
        <ele>387</ele>
        <time>2016-10-01T14:47:48.000Z</time>
      </trkpt>
      <trkpt lat="47.46557" lon="6.78403">
        <ele>387</ele>
        <time>2016-10-01T14:47:49.000Z</time>
      </trkpt>
      <trkpt lat="47.46556" lon="6.78395">
        <ele>387</ele>
        <time>2016-10-01T14:47:50.000Z</time>
      </trkpt>
      <trkpt lat="47.46554" lon="6.78389">
        <ele>387</ele>
        <time>2016-10-01T14:47:51.000Z</time>
      </trkpt>
      <trkpt lat="47.46552" lon="6.78385">
        <ele>387</ele>
        <time>2016-10-01T14:47:51.998Z</time>
      </trkpt>
      <trkpt lat="47.4655" lon="6.7838">
        <ele>387</ele>
        <time>2016-10-01T14:47:55.000Z</time>
      </trkpt>
      <trkpt lat="47.46545" lon="6.78377">
        <ele>387</ele>
        <time>2016-10-01T14:47:56.000Z</time>
      </trkpt>
      <trkpt lat="47.46542" lon="6.78374">
        <ele>387</ele>
        <time>2016-10-01T14:47:57.000Z</time>
      </trkpt>
      <trkpt lat="47.46538" lon="6.7837">
        <ele>387</ele>
        <time>2016-10-01T14:47:58.000Z</time>
      </trkpt>
      <trkpt lat="47.46535" lon="6.78367">
        <ele>387</ele>
        <time>2016-10-01T14:47:59.000Z</time>
      </trkpt>
      <trkpt lat="47.46532" lon="6.78364">
        <ele>387</ele>
        <time>2016-10-01T14:48:00.000Z</time>
      </trkpt>
      <trkpt lat="47.46529" lon="6.7836">
        <ele>387</ele>
        <time>2016-10-01T14:48:02.000Z</time>
      </trkpt>
      <trkpt lat="47.46527" lon="6.78359">
        <ele>387</ele>
        <time>2016-10-01T14:48:03.000Z</time>
      </trkpt>
      <trkpt lat="47.46525" lon="6.78357">
        <ele>387</ele>
        <time>2016-10-01T14:48:04.000Z</time>
      </trkpt>
      <trkpt lat="47.46522" lon="6.78355">
        <ele>387</ele>
        <time>2016-10-01T14:48:05.000Z</time>
      </trkpt>
      <trkpt lat="47.46519" lon="6.78354">
        <ele>387</ele>
        <time>2016-10-01T14:48:06.000Z</time>
      </trkpt>
      <trkpt lat="47.46517" lon="6.78351">
        <ele>387</ele>
        <time>2016-10-01T14:48:07.000Z</time>
      </trkpt>
      <trkpt lat="47.46515" lon="6.78348">
        <ele>387</ele>
        <time>2016-10-01T14:48:08.000Z</time>
      </trkpt>
      <trkpt lat="47.46512" lon="6.78345">
        <ele>387</ele>
        <time>2016-10-01T14:48:08.999Z</time>
      </trkpt>
      <trkpt lat="47.46506" lon="6.78337">
        <ele>387</ele>
        <time>2016-10-01T14:48:10.000Z</time>
      </trkpt>
      <trkpt lat="47.46502" lon="6.78333">
        <ele>386</ele>
        <time>2016-10-01T14:48:12.000Z</time>
      </trkpt>
      <trkpt lat="47.46497" lon="6.7833">
        <ele>386</ele>
        <time>2016-10-01T14:48:13.000Z</time>
      </trkpt>
      <trkpt lat="47.46491" lon="6.78323">
        <ele>385</ele>
        <time>2016-10-01T14:48:14.000Z</time>
      </trkpt>
      <trkpt lat="47.46487" lon="6.78315">
        <ele>385</ele>
        <time>2016-10-01T14:48:15.000Z</time>
      </trkpt>
      <trkpt lat="47.46485" lon="6.7831">
        <ele>384</ele>
        <time>2016-10-01T14:48:19.000Z</time>
      </trkpt>
      <trkpt lat="47.46483" lon="6.78307">
        <ele>384</ele>
        <time>2016-10-01T14:48:20.000Z</time>
      </trkpt>
      <trkpt lat="47.4648" lon="6.78301">
        <ele>383</ele>
        <time>2016-10-01T14:48:21.000Z</time>
      </trkpt>
      <trkpt lat="47.46476" lon="6.78295">
        <ele>383</ele>
        <time>2016-10-01T14:48:22.000Z</time>
      </trkpt>
      <trkpt lat="47.46474" lon="6.78291">
        <ele>383</ele>
        <time>2016-10-01T14:48:23.000Z</time>
      </trkpt>
      <trkpt lat="47.46471" lon="6.78292">
        <ele>383</ele>
        <time>2016-10-01T14:48:24.000Z</time>
      </trkpt>
      <trkpt lat="47.46468" lon="6.7829">
        <ele>383</ele>
        <time>2016-10-01T14:48:24.999Z</time>
      </trkpt>
      <trkpt lat="47.46464" lon="6.783">
        <ele>383</ele>
        <time>2016-10-01T14:48:26.000Z</time>
      </trkpt>
      <trkpt lat="47.46461" lon="6.78304">
        <ele>384</ele>
        <time>2016-10-01T14:48:27.000Z</time>
      </trkpt>
      <trkpt lat="47.46458" lon="6.78309">
        <ele>384</ele>
        <time>2016-10-01T14:48:28.000Z</time>
      </trkpt>
      <trkpt lat="47.46455" lon="6.78313">
        <ele>384</ele>
        <time>2016-10-01T14:48:29.000Z</time>
      </trkpt>
      <trkpt lat="47.46446" lon="6.78309">
        <ele>384</ele>
        <time>2016-10-01T14:48:30.000Z</time>
      </trkpt>
      <trkpt lat="47.46444" lon="6.7831">
        <ele>384</ele>
        <time>2016-10-01T14:48:31.000Z</time>
      </trkpt>
      <trkpt lat="47.4644" lon="6.7831">
        <ele>384</ele>
        <time>2016-10-01T14:48:32.000Z</time>
      </trkpt>
      <trkpt lat="47.46437" lon="6.78312">
        <ele>385</ele>
        <time>2016-10-01T14:48:33.000Z</time>
      </trkpt>
      <trkpt lat="47.46435" lon="6.78314">
        <ele>385</ele>
        <time>2016-10-01T14:48:34.000Z</time>
      </trkpt>
      <trkpt lat="47.46433" lon="6.78316">
        <ele>385</ele>
        <time>2016-10-01T14:48:35.000Z</time>
      </trkpt>
      <trkpt lat="47.4643" lon="6.78317">
        <ele>385</ele>
        <time>2016-10-01T14:48:36.000Z</time>
      </trkpt>
      <trkpt lat="47.46428" lon="6.78318">
        <ele>385</ele>
        <time>2016-10-01T14:48:37.000Z</time>
      </trkpt>
      <trkpt lat="47.46425" lon="6.78319">
        <ele>386</ele>
        <time>2016-10-01T14:48:38.000Z</time>
      </trkpt>
      <trkpt lat="47.46421" lon="6.7832">
        <ele>386</ele>
        <time>2016-10-01T14:48:38.999Z</time>
      </trkpt>
      <trkpt lat="47.46418" lon="6.78321">
        <ele>386</ele>
        <time>2016-10-01T14:48:40.000Z</time>
      </trkpt>
      <trkpt lat="47.46415" lon="6.78321">
        <ele>388</ele>
        <time>2016-10-01T14:48:41.000Z</time>
      </trkpt>
      <trkpt lat="47.46412" lon="6.78321">
        <ele>388</ele>
        <time>2016-10-01T14:48:42.000Z</time>
      </trkpt>
      <trkpt lat="47.46408" lon="6.78322">
        <ele>388</ele>
        <time>2016-10-01T14:48:44.000Z</time>
      </trkpt>
      <trkpt lat="47.46407" lon="6.78323">
        <ele>388</ele>
        <time>2016-10-01T14:48:44.999Z</time>
      </trkpt>
      <trkpt lat="47.46403" lon="6.78324">
        <ele>388</ele>
        <time>2016-10-01T14:48:47.000Z</time>
      </trkpt>
      <trkpt lat="47.46401" lon="6.78325">
        <ele>388</ele>
        <time>2016-10-01T14:48:48.000Z</time>
      </trkpt>
      <trkpt lat="47.46399" lon="6.78326">
        <ele>388</ele>
        <time>2016-10-01T14:48:48.999Z</time>
      </trkpt>
      <trkpt lat="47.46396" lon="6.78325">
        <ele>388</ele>
        <time>2016-10-01T14:48:50.000Z</time>
      </trkpt>
      <trkpt lat="47.46394" lon="6.78323">
        <ele>388</ele>
        <time>2016-10-01T14:48:51.000Z</time>
      </trkpt>
      <trkpt lat="47.46392" lon="6.7832">
        <ele>388</ele>
        <time>2016-10-01T14:48:52.000Z</time>
      </trkpt>
      <trkpt lat="47.46388" lon="6.7832">
        <ele>388</ele>
        <time>2016-10-01T14:48:54.000Z</time>
      </trkpt>
      <trkpt lat="47.46386" lon="6.78321">
        <ele>388</ele>
        <time>2016-10-01T14:48:55.000Z</time>
      </trkpt>
      <trkpt lat="47.46383" lon="6.78325">
        <ele>388</ele>
        <time>2016-10-01T14:48:57.000Z</time>
      </trkpt>
      <trkpt lat="47.46382" lon="6.78327">
        <ele>388</ele>
        <time>2016-10-01T14:48:58.000Z</time>
      </trkpt>
      <trkpt lat="47.46379" lon="6.78328">
        <ele>388</ele>
        <time>2016-10-01T14:48:59.000Z</time>
      </trkpt>
      <trkpt lat="47.46377" lon="6.78329">
        <ele>388</ele>
        <time>2016-10-01T14:49:00.000Z</time>
      </trkpt>
      <trkpt lat="47.46374" lon="6.78331">
        <ele>388</ele>
        <time>2016-10-01T14:49:02.000Z</time>
      </trkpt>
      <trkpt lat="47.46373" lon="6.78331">
        <ele>389</ele>
        <time>2016-10-01T14:49:02.999Z</time>
      </trkpt>
      <trkpt lat="47.46373" lon="6.78336">
        <ele>394</ele>
        <time>2016-10-01T14:49:04.000Z</time>
      </trkpt>
      <trkpt lat="47.46373" lon="6.78339">
        <ele>394</ele>
        <time>2016-10-01T14:49:05.000Z</time>
      </trkpt>
      <trkpt lat="47.46374" lon="6.78342">
        <ele>394</ele>
        <time>2016-10-01T14:49:06.000Z</time>
      </trkpt>
      <trkpt lat="47.46374" lon="6.78346">
        <ele>394</ele>
        <time>2016-10-01T14:49:07.000Z</time>
      </trkpt>
      <trkpt lat="47.46374" lon="6.78348">
        <ele>394</ele>
        <time>2016-10-01T14:49:07.999Z</time>
      </trkpt>
      <trkpt lat="47.46379" lon="6.78366">
        <ele>395</ele>
        <time>2016-10-01T14:49:09.000Z</time>
      </trkpt>
      <trkpt lat="47.4638" lon="6.78371">
        <ele>395</ele>
        <time>2016-10-01T14:49:10.000Z</time>
      </trkpt>
      <trkpt lat="47.46381" lon="6.78374">
        <ele>395</ele>
        <time>2016-10-01T14:49:11.000Z</time>
      </trkpt>
      <trkpt lat="47.46376" lon="6.7837">
        <ele>395</ele>
        <time>2016-10-01T14:49:12.000Z</time>
      </trkpt>
      <trkpt lat="47.46377" lon="6.78376">
        <ele>396</ele>
        <time>2016-10-01T14:49:14.000Z</time>
      </trkpt>
      <trkpt lat="47.46378" lon="6.78379">
        <ele>396</ele>
        <time>2016-10-01T14:49:15.000Z</time>
      </trkpt>
      <trkpt lat="47.46379" lon="6.78385">
        <ele>396</ele>
        <time>2016-10-01T14:49:21.000Z</time>
      </trkpt>
      <trkpt lat="47.46378" lon="6.78386">
        <ele>396</ele>
        <time>2016-10-01T14:49:22.000Z</time>
      </trkpt>
      <trkpt lat="47.46377" lon="6.78391">
        <ele>396</ele>
        <time>2016-10-01T14:49:25.000Z</time>
      </trkpt>
      <trkpt lat="47.46376" lon="6.78393">
        <ele>397</ele>
        <time>2016-10-01T14:49:26.000Z</time>
      </trkpt>
      <trkpt lat="47.46373" lon="6.78394">
        <ele>397</ele>
        <time>2016-10-01T14:49:30.000Z</time>
      </trkpt>
      <trkpt lat="47.46372" lon="6.78393">
        <ele>397</ele>
        <time>2016-10-01T14:49:31.000Z</time>
      </trkpt>
      <trkpt lat="47.46368" lon="6.78394">
        <ele>397</ele>
        <time>2016-10-01T14:49:33.000Z</time>
      </trkpt>
      <trkpt lat="47.46366" lon="6.78395">
        <ele>397</ele>
        <time>2016-10-01T14:49:34.000Z</time>
      </trkpt>
      <trkpt lat="47.46362" lon="6.78396">
        <ele>397</ele>
        <time>2016-10-01T14:49:36.000Z</time>
      </trkpt>
      <trkpt lat="47.4636" lon="6.78396">
        <ele>397</ele>
        <time>2016-10-01T14:49:37.000Z</time>
      </trkpt>
      <trkpt lat="47.46357" lon="6.78398">
        <ele>397</ele>
        <time>2016-10-01T14:49:39.000Z</time>
      </trkpt>
      <trkpt lat="47.46355" lon="6.78398">
        <ele>397</ele>
        <time>2016-10-01T14:49:40.000Z</time>
      </trkpt>
      <trkpt lat="47.46352" lon="6.784">
        <ele>397</ele>
        <time>2016-10-01T14:49:42.000Z</time>
      </trkpt>
      <trkpt lat="47.46351" lon="6.78402">
        <ele>397</ele>
        <time>2016-10-01T14:49:43.000Z</time>
      </trkpt>
      <trkpt lat="47.46348" lon="6.78404">
        <ele>398</ele>
        <time>2016-10-01T14:49:45.000Z</time>
      </trkpt>
      <trkpt lat="47.46346" lon="6.78405">
        <ele>398</ele>
        <time>2016-10-01T14:49:46.000Z</time>
      </trkpt>
      <trkpt lat="47.46342" lon="6.78406">
        <ele>398</ele>
        <time>2016-10-01T14:49:48.000Z</time>
      </trkpt>
      <trkpt lat="47.4634" lon="6.78407">
        <ele>398</ele>
        <time>2016-10-01T14:49:49.000Z</time>
      </trkpt>
      <trkpt lat="47.46338" lon="6.78408">
        <ele>399</ele>
        <time>2016-10-01T14:49:50.000Z</time>
      </trkpt>
      <trkpt lat="47.46336" lon="6.7841">
        <ele>399</ele>
        <time>2016-10-01T14:49:51.000Z</time>
      </trkpt>
      <trkpt lat="47.46334" lon="6.78411">
        <ele>399</ele>
        <time>2016-10-01T14:49:52.000Z</time>
      </trkpt>
      <trkpt lat="47.46331" lon="6.78411">
        <ele>400</ele>
        <time>2016-10-01T14:49:53.000Z</time>
      </trkpt>
      <trkpt lat="47.46327" lon="6.78411">
        <ele>400</ele>
        <time>2016-10-01T14:49:55.000Z</time>
      </trkpt>
      <trkpt lat="47.46325" lon="6.7841">
        <ele>400</ele>
        <time>2016-10-01T14:49:56.000Z</time>
      </trkpt>
      <trkpt lat="47.46323" lon="6.78409">
        <ele>400</ele>
        <time>2016-10-01T14:49:57.000Z</time>
      </trkpt>
      <trkpt lat="47.46321" lon="6.78407">
        <ele>400</ele>
        <time>2016-10-01T14:49:58.000Z</time>
      </trkpt>
      <trkpt lat="47.46318" lon="6.78407">
        <ele>400</ele>
        <time>2016-10-01T14:49:59.000Z</time>
      </trkpt>
      <trkpt lat="47.46316" lon="6.78407">
        <ele>400</ele>
        <time>2016-10-01T14:50:00.000Z</time>
      </trkpt>
      <trkpt lat="47.46313" lon="6.78407">
        <ele>400</ele>
        <time>2016-10-01T14:50:01.000Z</time>
      </trkpt>
      <trkpt lat="47.46311" lon="6.78407">
        <ele>400</ele>
        <time>2016-10-01T14:50:02.000Z</time>
      </trkpt>
      <trkpt lat="47.46309" lon="6.78407">
        <ele>400</ele>
        <time>2016-10-01T14:50:03.000Z</time>
      </trkpt>
      <trkpt lat="47.46306" lon="6.78407">
        <ele>400</ele>
        <time>2016-10-01T14:50:04.000Z</time>
      </trkpt>
      <trkpt lat="47.46304" lon="6.7841">
        <ele>400</ele>
        <time>2016-10-01T14:50:05.000Z</time>
      </trkpt>
      <trkpt lat="47.46301" lon="6.78413">
        <ele>400</ele>
        <time>2016-10-01T14:50:06.000Z</time>
      </trkpt>
      <trkpt lat="47.46299" lon="6.78416">
        <ele>400</ele>
        <time>2016-10-01T14:50:07.000Z</time>
      </trkpt>
      <trkpt lat="47.46297" lon="6.78418">
        <ele>402</ele>
        <time>2016-10-01T14:50:08.000Z</time>
      </trkpt>
      <trkpt lat="47.46294" lon="6.78419">
        <ele>402</ele>
        <time>2016-10-01T14:50:09.000Z</time>
      </trkpt>
      <trkpt lat="47.46292" lon="6.78419">
        <ele>402</ele>
        <time>2016-10-01T14:50:10.000Z</time>
      </trkpt>
      <trkpt lat="47.46289" lon="6.7842">
        <ele>402</ele>
        <time>2016-10-01T14:50:11.000Z</time>
      </trkpt>
      <trkpt lat="47.46286" lon="6.78421">
        <ele>403</ele>
        <time>2016-10-01T14:50:12.000Z</time>
      </trkpt>
      <trkpt lat="47.46283" lon="6.78422">
        <ele>403</ele>
        <time>2016-10-01T14:50:13.000Z</time>
      </trkpt>
      <trkpt lat="47.46281" lon="6.78423">
        <ele>403</ele>
        <time>2016-10-01T14:50:14.000Z</time>
      </trkpt>
      <trkpt lat="47.46278" lon="6.78424">
        <ele>403</ele>
        <time>2016-10-01T14:50:16.000Z</time>
      </trkpt>
      <trkpt lat="47.46276" lon="6.78424">
        <ele>403</ele>
        <time>2016-10-01T14:50:17.000Z</time>
      </trkpt>
      <trkpt lat="47.46273" lon="6.78425">
        <ele>403</ele>
        <time>2016-10-01T14:50:18.000Z</time>
      </trkpt>
      <trkpt lat="47.4627" lon="6.78425">
        <ele>403</ele>
        <time>2016-10-01T14:50:19.000Z</time>
      </trkpt>
      <trkpt lat="47.46266" lon="6.78425">
        <ele>403</ele>
        <time>2016-10-01T14:50:21.000Z</time>
      </trkpt>
      <trkpt lat="47.46264" lon="6.78428">
        <ele>403</ele>
        <time>2016-10-01T14:50:22.000Z</time>
      </trkpt>
      <trkpt lat="47.46261" lon="6.78432">
        <ele>403</ele>
        <time>2016-10-01T14:50:24.000Z</time>
      </trkpt>
      <trkpt lat="47.46259" lon="6.78434">
        <ele>403</ele>
        <time>2016-10-01T14:50:25.000Z</time>
      </trkpt>
      <trkpt lat="47.46256" lon="6.78435">
        <ele>403</ele>
        <time>2016-10-01T14:50:26.000Z</time>
      </trkpt>
      <trkpt lat="47.46252" lon="6.78435">
        <ele>403</ele>
        <time>2016-10-01T14:50:27.000Z</time>
      </trkpt>
      <trkpt lat="47.46248" lon="6.78436">
        <ele>405</ele>
        <time>2016-10-01T14:50:28.000Z</time>
      </trkpt>
      <trkpt lat="47.46245" lon="6.78435">
        <ele>405</ele>
        <time>2016-10-01T14:50:28.999Z</time>
      </trkpt>
      <trkpt lat="47.46243" lon="6.78438">
        <ele>406</ele>
        <time>2016-10-01T14:50:30.000Z</time>
      </trkpt>
      <trkpt lat="47.4624" lon="6.7844">
        <ele>406</ele>
        <time>2016-10-01T14:50:31.000Z</time>
      </trkpt>
      <trkpt lat="47.46238" lon="6.7844">
        <ele>406</ele>
        <time>2016-10-01T14:50:32.000Z</time>
      </trkpt>
      <trkpt lat="47.46235" lon="6.7844">
        <ele>406</ele>
        <time>2016-10-01T14:50:33.000Z</time>
      </trkpt>
      <trkpt lat="47.46233" lon="6.78439">
        <ele>406</ele>
        <time>2016-10-01T14:50:34.000Z</time>
      </trkpt>
      <trkpt lat="47.46227" lon="6.78441">
        <ele>406</ele>
        <time>2016-10-01T14:50:35.000Z</time>
      </trkpt>
      <trkpt lat="47.46222" lon="6.78443">
        <ele>406</ele>
        <time>2016-10-01T14:50:36.000Z</time>
      </trkpt>
      <trkpt lat="47.46221" lon="6.78443">
        <ele>407</ele>
        <time>2016-10-01T14:50:37.000Z</time>
      </trkpt>
      <trkpt lat="47.46215" lon="6.78449">
        <ele>407</ele>
        <time>2016-10-01T14:50:38.000Z</time>
      </trkpt>
      <trkpt lat="47.46212" lon="6.78452">
        <ele>407</ele>
        <time>2016-10-01T14:50:39.000Z</time>
      </trkpt>
      <trkpt lat="47.46211" lon="6.78453">
        <ele>407</ele>
        <time>2016-10-01T14:50:40.000Z</time>
      </trkpt>
      <trkpt lat="47.46207" lon="6.78456">
        <ele>407</ele>
        <time>2016-10-01T14:50:41.000Z</time>
      </trkpt>
      <trkpt lat="47.46205" lon="6.78458">
        <ele>407</ele>
        <time>2016-10-01T14:50:42.000Z</time>
      </trkpt>
      <trkpt lat="47.46204" lon="6.7846">
        <ele>407</ele>
        <time>2016-10-01T14:50:43.000Z</time>
      </trkpt>
      <trkpt lat="47.46202" lon="6.78462">
        <ele>407</ele>
        <time>2016-10-01T14:50:44.000Z</time>
      </trkpt>
      <trkpt lat="47.462" lon="6.78464">
        <ele>407</ele>
        <time>2016-10-01T14:50:45.000Z</time>
      </trkpt>
      <trkpt lat="47.46198" lon="6.78466">
        <ele>407</ele>
        <time>2016-10-01T14:50:46.000Z</time>
      </trkpt>
      <trkpt lat="47.46195" lon="6.78467">
        <ele>407</ele>
        <time>2016-10-01T14:50:47.000Z</time>
      </trkpt>
      <trkpt lat="47.46192" lon="6.78469">
        <ele>408</ele>
        <time>2016-10-01T14:50:48.000Z</time>
      </trkpt>
      <trkpt lat="47.46189" lon="6.7847">
        <ele>408</ele>
        <time>2016-10-01T14:50:49.000Z</time>
      </trkpt>
      <trkpt lat="47.46185" lon="6.78471">
        <ele>408</ele>
        <time>2016-10-01T14:50:50.000Z</time>
      </trkpt>
      <trkpt lat="47.46181" lon="6.78473">
        <ele>408</ele>
        <time>2016-10-01T14:50:51.000Z</time>
      </trkpt>
      <trkpt lat="47.46178" lon="6.78474">
        <ele>408</ele>
        <time>2016-10-01T14:50:52.000Z</time>
      </trkpt>
      <trkpt lat="47.46174" lon="6.78475">
        <ele>408</ele>
        <time>2016-10-01T14:50:53.000Z</time>
      </trkpt>
      <trkpt lat="47.46171" lon="6.78476">
        <ele>408</ele>
        <time>2016-10-01T14:50:54.000Z</time>
      </trkpt>
      <trkpt lat="47.46168" lon="6.78477">
        <ele>408</ele>
        <time>2016-10-01T14:50:55.000Z</time>
      </trkpt>
      <trkpt lat="47.46165" lon="6.78477">
        <ele>410</ele>
        <time>2016-10-01T14:50:56.000Z</time>
      </trkpt>
      <trkpt lat="47.46162" lon="6.78478">
        <ele>410</ele>
        <time>2016-10-01T14:50:57.000Z</time>
      </trkpt>
      <trkpt lat="47.4616" lon="6.78479">
        <ele>410</ele>
        <time>2016-10-01T14:50:58.000Z</time>
      </trkpt>
      <trkpt lat="47.46157" lon="6.7848">
        <ele>410</ele>
        <time>2016-10-01T14:50:59.000Z</time>
      </trkpt>
      <trkpt lat="47.46155" lon="6.78481">
        <ele>410</ele>
        <time>2016-10-01T14:51:00.000Z</time>
      </trkpt>
      <trkpt lat="47.46152" lon="6.78482">
        <ele>410</ele>
        <time>2016-10-01T14:51:01.000Z</time>
      </trkpt>
      <trkpt lat="47.46149" lon="6.78483">
        <ele>410</ele>
        <time>2016-10-01T14:51:02.000Z</time>
      </trkpt>
      <trkpt lat="47.46147" lon="6.78484">
        <ele>410</ele>
        <time>2016-10-01T14:51:03.000Z</time>
      </trkpt>
      <trkpt lat="47.46144" lon="6.78485">
        <ele>410</ele>
        <time>2016-10-01T14:51:04.000Z</time>
      </trkpt>
      <trkpt lat="47.46141" lon="6.78486">
        <ele>410</ele>
        <time>2016-10-01T14:51:05.000Z</time>
      </trkpt>
      <trkpt lat="47.46138" lon="6.78488">
        <ele>410</ele>
        <time>2016-10-01T14:51:06.000Z</time>
      </trkpt>
      <trkpt lat="47.46135" lon="6.78489">
        <ele>410</ele>
        <time>2016-10-01T14:51:07.000Z</time>
      </trkpt>
      <trkpt lat="47.46132" lon="6.78491">
        <ele>410</ele>
        <time>2016-10-01T14:51:08.000Z</time>
      </trkpt>
      <trkpt lat="47.46128" lon="6.78493">
        <ele>410</ele>
        <time>2016-10-01T14:51:09.000Z</time>
      </trkpt>
      <trkpt lat="47.46125" lon="6.78495">
        <ele>410</ele>
        <time>2016-10-01T14:51:10.000Z</time>
      </trkpt>
      <trkpt lat="47.46122" lon="6.78496">
        <ele>411</ele>
        <time>2016-10-01T14:51:11.000Z</time>
      </trkpt>
      <trkpt lat="47.4612" lon="6.78497">
        <ele>411</ele>
        <time>2016-10-01T14:51:12.000Z</time>
      </trkpt>
      <trkpt lat="47.46116" lon="6.78498">
        <ele>411</ele>
        <time>2016-10-01T14:51:14.000Z</time>
      </trkpt>
      <trkpt lat="47.46114" lon="6.78498">
        <ele>411</ele>
        <time>2016-10-01T14:51:15.000Z</time>
      </trkpt>
      <trkpt lat="47.4611" lon="6.78496">
        <ele>411</ele>
        <time>2016-10-01T14:51:18.000Z</time>
      </trkpt>
      <trkpt lat="47.46108" lon="6.78494">
        <ele>411</ele>
        <time>2016-10-01T14:51:19.000Z</time>
      </trkpt>
      <trkpt lat="47.46107" lon="6.78492">
        <ele>411</ele>
        <time>2016-10-01T14:51:20.000Z</time>
      </trkpt>
      <trkpt lat="47.46105" lon="6.78489">
        <ele>411</ele>
        <time>2016-10-01T14:51:21.000Z</time>
      </trkpt>
      <trkpt lat="47.46103" lon="6.78486">
        <ele>411</ele>
        <time>2016-10-01T14:51:22.000Z</time>
      </trkpt>
      <trkpt lat="47.46097" lon="6.78483">
        <ele>411</ele>
        <time>2016-10-01T14:51:23.000Z</time>
      </trkpt>
      <trkpt lat="47.46092" lon="6.7848">
        <ele>411</ele>
        <time>2016-10-01T14:51:24.000Z</time>
      </trkpt>
      <trkpt lat="47.46086" lon="6.78477">
        <ele>411</ele>
        <time>2016-10-01T14:51:25.000Z</time>
      </trkpt>
      <trkpt lat="47.46081" lon="6.78474">
        <ele>408</ele>
        <time>2016-10-01T14:51:26.000Z</time>
      </trkpt>
      <trkpt lat="47.46076" lon="6.78471">
        <ele>408</ele>
        <time>2016-10-01T14:51:27.000Z</time>
      </trkpt>
      <trkpt lat="47.46072" lon="6.78468">
        <ele>408</ele>
        <time>2016-10-01T14:51:28.000Z</time>
      </trkpt>
      <trkpt lat="47.46067" lon="6.78466">
        <ele>407</ele>
        <time>2016-10-01T14:51:29.000Z</time>
      </trkpt>
      <trkpt lat="47.46063" lon="6.78464">
        <ele>407</ele>
        <time>2016-10-01T14:51:30.000Z</time>
      </trkpt>
      <trkpt lat="47.46057" lon="6.78462">
        <ele>407</ele>
        <time>2016-10-01T14:51:31.000Z</time>
      </trkpt>
      <trkpt lat="47.46035" lon="6.78463">
        <ele>406</ele>
        <time>2016-10-01T14:51:32.000Z</time>
      </trkpt>
      <trkpt lat="47.46034" lon="6.78461">
        <ele>406</ele>
        <time>2016-10-01T14:51:33.000Z</time>
      </trkpt>
      <trkpt lat="47.46031" lon="6.78458">
        <ele>405</ele>
        <time>2016-10-01T14:51:34.000Z</time>
      </trkpt>
      <trkpt lat="47.46029" lon="6.78455">
        <ele>405</ele>
        <time>2016-10-01T14:51:35.000Z</time>
      </trkpt>
      <trkpt lat="47.46027" lon="6.78452">
        <ele>405</ele>
        <time>2016-10-01T14:51:36.000Z</time>
      </trkpt>
      <trkpt lat="47.46026" lon="6.78449">
        <ele>405</ele>
        <time>2016-10-01T14:51:37.000Z</time>
      </trkpt>
      <trkpt lat="47.46024" lon="6.78447">
        <ele>405</ele>
        <time>2016-10-01T14:51:38.000Z</time>
      </trkpt>
      <trkpt lat="47.46022" lon="6.78443">
        <ele>405</ele>
        <time>2016-10-01T14:51:39.000Z</time>
      </trkpt>
      <trkpt lat="47.46021" lon="6.7844">
        <ele>405</ele>
        <time>2016-10-01T14:51:40.000Z</time>
      </trkpt>
      <trkpt lat="47.4602" lon="6.78437">
        <ele>405</ele>
        <time>2016-10-01T14:51:41.000Z</time>
      </trkpt>
      <trkpt lat="47.46019" lon="6.78433">
        <ele>405</ele>
        <time>2016-10-01T14:51:42.000Z</time>
      </trkpt>
      <trkpt lat="47.46016" lon="6.78429">
        <ele>404</ele>
        <time>2016-10-01T14:51:44.000Z</time>
      </trkpt>
      <trkpt lat="47.46014" lon="6.78429">
        <ele>404</ele>
        <time>2016-10-01T14:51:45.000Z</time>
      </trkpt>
      <trkpt lat="47.46009" lon="6.78429">
        <ele>404</ele>
        <time>2016-10-01T14:51:50.000Z</time>
      </trkpt>
      <trkpt lat="47.46009" lon="6.78429">
        <ele>404</ele>
        <time>2016-10-01T14:51:51.000Z</time>
      </trkpt>
      <trkpt lat="47.46007" lon="6.78428">
        <ele>404</ele>
        <time>2016-10-01T14:52:07.000Z</time>
      </trkpt>
      <trkpt lat="47.46005" lon="6.78425">
        <ele>403</ele>
        <time>2016-10-01T14:52:08.000Z</time>
      </trkpt>
      <trkpt lat="47.46003" lon="6.78422">
        <ele>403</ele>
        <time>2016-10-01T14:52:10.000Z</time>
      </trkpt>
      <trkpt lat="47.46001" lon="6.78419">
        <ele>402</ele>
        <time>2016-10-01T14:52:11.000Z</time>
      </trkpt>
      <trkpt lat="47.45999" lon="6.7842">
        <ele>401</ele>
        <time>2016-10-01T14:52:13.000Z</time>
      </trkpt>
      <trkpt lat="47.45995" lon="6.78422">
        <ele>400</ele>
        <time>2016-10-01T14:52:14.000Z</time>
      </trkpt>
      <trkpt lat="47.4599" lon="6.78425">
        <ele>398</ele>
        <time>2016-10-01T14:52:15.000Z</time>
      </trkpt>
      <trkpt lat="47.45985" lon="6.78427">
        <ele>397</ele>
        <time>2016-10-01T14:52:16.000Z</time>
      </trkpt>
      <trkpt lat="47.45979" lon="6.78429">
        <ele>396</ele>
        <time>2016-10-01T14:52:17.000Z</time>
      </trkpt>
      <trkpt lat="47.45961" lon="6.78448">
        <ele>393</ele>
        <time>2016-10-01T14:52:18.000Z</time>
      </trkpt>
      <trkpt lat="47.45955" lon="6.78458">
        <ele>392</ele>
        <time>2016-10-01T14:52:19.000Z</time>
      </trkpt>
      <trkpt lat="47.45953" lon="6.78467">
        <ele>392</ele>
        <time>2016-10-01T14:52:20.000Z</time>
      </trkpt>
      <trkpt lat="47.45953" lon="6.78476">
        <ele>392</ele>
        <time>2016-10-01T14:52:21.000Z</time>
      </trkpt>
      <trkpt lat="47.45953" lon="6.78486">
        <ele>391</ele>
        <time>2016-10-01T14:52:22.000Z</time>
      </trkpt>
      <trkpt lat="47.45953" lon="6.78496">
        <ele>391</ele>
        <time>2016-10-01T14:52:23.000Z</time>
      </trkpt>
      <trkpt lat="47.45952" lon="6.78504">
        <ele>389</ele>
        <time>2016-10-01T14:52:24.000Z</time>
      </trkpt>
      <trkpt lat="47.45949" lon="6.78513">
        <ele>388</ele>
        <time>2016-10-01T14:52:25.000Z</time>
      </trkpt>
      <trkpt lat="47.45943" lon="6.78519">
        <ele>388</ele>
        <time>2016-10-01T14:52:26.000Z</time>
      </trkpt>
      <trkpt lat="47.45935" lon="6.78522">
        <ele>387</ele>
        <time>2016-10-01T14:52:27.000Z</time>
      </trkpt>
      <trkpt lat="47.45928" lon="6.78522">
        <ele>386</ele>
        <time>2016-10-01T14:52:28.000Z</time>
      </trkpt>
      <trkpt lat="47.45922" lon="6.78519">
        <ele>386</ele>
        <time>2016-10-01T14:52:29.000Z</time>
      </trkpt>
      <trkpt lat="47.45916" lon="6.78515">
        <ele>379</ele>
        <time>2016-10-01T14:52:30.000Z</time>
      </trkpt>
      <trkpt lat="47.45911" lon="6.78512">
        <ele>379</ele>
        <time>2016-10-01T14:52:31.000Z</time>
      </trkpt>
      <trkpt lat="47.45905" lon="6.78508">
        <ele>379</ele>
        <time>2016-10-01T14:52:32.000Z</time>
      </trkpt>
      <trkpt lat="47.459" lon="6.785">
        <ele>379</ele>
        <time>2016-10-01T14:52:33.000Z</time>
      </trkpt>
      <trkpt lat="47.45893" lon="6.78492">
        <ele>378</ele>
        <time>2016-10-01T14:52:34.000Z</time>
      </trkpt>
      <trkpt lat="47.45886" lon="6.78485">
        <ele>378</ele>
        <time>2016-10-01T14:52:35.000Z</time>
      </trkpt>
      <trkpt lat="47.45882" lon="6.78479">
        <ele>377</ele>
        <time>2016-10-01T14:52:36.000Z</time>
      </trkpt>
      <trkpt lat="47.45874" lon="6.78471">
        <ele>377</ele>
        <time>2016-10-01T14:52:37.000Z</time>
      </trkpt>
      <trkpt lat="47.45865" lon="6.78464">
        <ele>376</ele>
        <time>2016-10-01T14:52:38.000Z</time>
      </trkpt>
      <trkpt lat="47.45857" lon="6.78455">
        <ele>375</ele>
        <time>2016-10-01T14:52:39.000Z</time>
      </trkpt>
      <trkpt lat="47.4585" lon="6.7845">
        <ele>375</ele>
        <time>2016-10-01T14:52:40.000Z</time>
      </trkpt>
      <trkpt lat="47.45843" lon="6.78443">
        <ele>375</ele>
        <time>2016-10-01T14:52:40.999Z</time>
      </trkpt>
      <trkpt lat="47.45838" lon="6.7844">
        <ele>374</ele>
        <time>2016-10-01T14:52:42.000Z</time>
      </trkpt>
      <trkpt lat="47.45829" lon="6.7843">
        <ele>368</ele>
        <time>2016-10-01T14:52:43.000Z</time>
      </trkpt>
      <trkpt lat="47.45821" lon="6.78423">
        <ele>368</ele>
        <time>2016-10-01T14:52:44.000Z</time>
      </trkpt>
      <trkpt lat="47.45812" lon="6.78417">
        <ele>369</ele>
        <time>2016-10-01T14:52:45.000Z</time>
      </trkpt>
      <trkpt lat="47.45807" lon="6.78412">
        <ele>368</ele>
        <time>2016-10-01T14:52:46.000Z</time>
      </trkpt>
      <trkpt lat="47.458" lon="6.78405">
        <ele>367</ele>
        <time>2016-10-01T14:52:47.000Z</time>
      </trkpt>
      <trkpt lat="47.45791" lon="6.78399">
        <ele>367</ele>
        <time>2016-10-01T14:52:48.000Z</time>
      </trkpt>
      <trkpt lat="47.45782" lon="6.78393">
        <ele>366</ele>
        <time>2016-10-01T14:52:49.000Z</time>
      </trkpt>
      <trkpt lat="47.45773" lon="6.78392">
        <ele>365</ele>
        <time>2016-10-01T14:52:50.000Z</time>
      </trkpt>
      <trkpt lat="47.45763" lon="6.78388">
        <ele>365</ele>
        <time>2016-10-01T14:52:51.000Z</time>
      </trkpt>
      <trkpt lat="47.45753" lon="6.78385">
        <ele>365</ele>
        <time>2016-10-01T14:52:52.000Z</time>
      </trkpt>
      <trkpt lat="47.45746" lon="6.78384">
        <ele>360</ele>
        <time>2016-10-01T14:52:53.000Z</time>
      </trkpt>
      <trkpt lat="47.45736" lon="6.78384">
        <ele>360</ele>
        <time>2016-10-01T14:52:54.000Z</time>
      </trkpt>
      <trkpt lat="47.45727" lon="6.78383">
        <ele>359</ele>
        <time>2016-10-01T14:52:55.000Z</time>
      </trkpt>
      <trkpt lat="47.45718" lon="6.78381">
        <ele>359</ele>
        <time>2016-10-01T14:52:56.000Z</time>
      </trkpt>
      <trkpt lat="47.45709" lon="6.78382">
        <ele>359</ele>
        <time>2016-10-01T14:52:57.000Z</time>
      </trkpt>
      <trkpt lat="47.45701" lon="6.78382">
        <ele>359</ele>
        <time>2016-10-01T14:52:58.000Z</time>
      </trkpt>
      <trkpt lat="47.45693" lon="6.78383">
        <ele>358</ele>
        <time>2016-10-01T14:52:59.000Z</time>
      </trkpt>
      <trkpt lat="47.45686" lon="6.78384">
        <ele>358</ele>
        <time>2016-10-01T14:53:00.000Z</time>
      </trkpt>
      <trkpt lat="47.45666" lon="6.78386">
        <ele>356</ele>
        <time>2016-10-01T14:53:01.000Z</time>
      </trkpt>
      <trkpt lat="47.45657" lon="6.78387">
        <ele>356</ele>
        <time>2016-10-01T14:53:02.000Z</time>
      </trkpt>
      <trkpt lat="47.45648" lon="6.7839">
        <ele>356</ele>
        <time>2016-10-01T14:53:03.000Z</time>
      </trkpt>
      <trkpt lat="47.4564" lon="6.78392">
        <ele>355</ele>
        <time>2016-10-01T14:53:04.000Z</time>
      </trkpt>
      <trkpt lat="47.45632" lon="6.78394">
        <ele>355</ele>
        <time>2016-10-01T14:53:05.000Z</time>
      </trkpt>
      <trkpt lat="47.45625" lon="6.78399">
        <ele>355</ele>
        <time>2016-10-01T14:53:06.000Z</time>
      </trkpt>
      <trkpt lat="47.45618" lon="6.78403">
        <ele>355</ele>
        <time>2016-10-01T14:53:07.000Z</time>
      </trkpt>
      <trkpt lat="47.45611" lon="6.78407">
        <ele>355</ele>
        <time>2016-10-01T14:53:08.000Z</time>
      </trkpt>
      <trkpt lat="47.45604" lon="6.78411">
        <ele>355</ele>
        <time>2016-10-01T14:53:09.000Z</time>
      </trkpt>
      <trkpt lat="47.45598" lon="6.78414">
        <ele>355</ele>
        <time>2016-10-01T14:53:10.000Z</time>
      </trkpt>
      <trkpt lat="47.45591" lon="6.78417">
        <ele>354</ele>
        <time>2016-10-01T14:53:11.001Z</time>
      </trkpt>
      <trkpt lat="47.45584" lon="6.78422">
        <ele>354</ele>
        <time>2016-10-01T14:53:12.000Z</time>
      </trkpt>
      <trkpt lat="47.45578" lon="6.78425">
        <ele>353</ele>
        <time>2016-10-01T14:53:13.000Z</time>
      </trkpt>
      <trkpt lat="47.45572" lon="6.78428">
        <ele>353</ele>
        <time>2016-10-01T14:53:14.000Z</time>
      </trkpt>
      <trkpt lat="47.45565" lon="6.78432">
        <ele>352</ele>
        <time>2016-10-01T14:53:15.000Z</time>
      </trkpt>
      <trkpt lat="47.45559" lon="6.78443">
        <ele>352</ele>
        <time>2016-10-01T14:53:16.000Z</time>
      </trkpt>
      <trkpt lat="47.45553" lon="6.78445">
        <ele>351</ele>
        <time>2016-10-01T14:53:17.000Z</time>
      </trkpt>
      <trkpt lat="47.45546" lon="6.78449">
        <ele>351</ele>
        <time>2016-10-01T14:53:18.000Z</time>
      </trkpt>
      <trkpt lat="47.45538" lon="6.7845">
        <ele>351</ele>
        <time>2016-10-01T14:53:19.000Z</time>
      </trkpt>
      <trkpt lat="47.45531" lon="6.78453">
        <ele>351</ele>
        <time>2016-10-01T14:53:20.000Z</time>
      </trkpt>
      <trkpt lat="47.45524" lon="6.78458">
        <ele>351</ele>
        <time>2016-10-01T14:53:21.000Z</time>
      </trkpt>
      <trkpt lat="47.45517" lon="6.78461">
        <ele>351</ele>
        <time>2016-10-01T14:53:22.001Z</time>
      </trkpt>
      <trkpt lat="47.4551" lon="6.78462">
        <ele>351</ele>
        <time>2016-10-01T14:53:23.000Z</time>
      </trkpt>
      <trkpt lat="47.45504" lon="6.78466">
        <ele>350</ele>
        <time>2016-10-01T14:53:24.000Z</time>
      </trkpt>
      <trkpt lat="47.45499" lon="6.7847">
        <ele>348</ele>
        <time>2016-10-01T14:53:25.000Z</time>
      </trkpt>
      <trkpt lat="47.45493" lon="6.78476">
        <ele>348</ele>
        <time>2016-10-01T14:53:26.000Z</time>
      </trkpt>
      <trkpt lat="47.45487" lon="6.78478">
        <ele>348</ele>
        <time>2016-10-01T14:53:27.000Z</time>
      </trkpt>
      <trkpt lat="47.45482" lon="6.78481">
        <ele>348</ele>
        <time>2016-10-01T14:53:28.000Z</time>
      </trkpt>
      <trkpt lat="47.45475" lon="6.78485">
        <ele>348</ele>
        <time>2016-10-01T14:53:29.000Z</time>
      </trkpt>
      <trkpt lat="47.45471" lon="6.78489">
        <ele>348</ele>
        <time>2016-10-01T14:53:30.000Z</time>
      </trkpt>
      <trkpt lat="47.45467" lon="6.78492">
        <ele>347</ele>
        <time>2016-10-01T14:53:31.000Z</time>
      </trkpt>
      <trkpt lat="47.45462" lon="6.78494">
        <ele>347</ele>
        <time>2016-10-01T14:53:32.000Z</time>
      </trkpt>
      <trkpt lat="47.45459" lon="6.78495">
        <ele>347</ele>
        <time>2016-10-01T14:53:33.000Z</time>
      </trkpt>
      <trkpt lat="47.45455" lon="6.78499">
        <ele>347</ele>
        <time>2016-10-01T14:53:34.000Z</time>
      </trkpt>
      <trkpt lat="47.4545" lon="6.78502">
        <ele>344</ele>
        <time>2016-10-01T14:53:35.000Z</time>
      </trkpt>
      <trkpt lat="47.45447" lon="6.78506">
        <ele>344</ele>
        <time>2016-10-01T14:53:36.000Z</time>
      </trkpt>
      <trkpt lat="47.45443" lon="6.78508">
        <ele>344</ele>
        <time>2016-10-01T14:53:37.000Z</time>
      </trkpt>
      <trkpt lat="47.4544" lon="6.78511">
        <ele>344</ele>
        <time>2016-10-01T14:53:38.000Z</time>
      </trkpt>
      <trkpt lat="47.45436" lon="6.78515">
        <ele>344</ele>
        <time>2016-10-01T14:53:39.000Z</time>
      </trkpt>
      <trkpt lat="47.45433" lon="6.78518">
        <ele>344</ele>
        <time>2016-10-01T14:53:40.000Z</time>
      </trkpt>
      <trkpt lat="47.45428" lon="6.78522">
        <ele>344</ele>
        <time>2016-10-01T14:53:41.000Z</time>
      </trkpt>
      <trkpt lat="47.45423" lon="6.78527">
        <ele>343</ele>
        <time>2016-10-01T14:53:42.000Z</time>
      </trkpt>
      <trkpt lat="47.45417" lon="6.78531">
        <ele>343</ele>
        <time>2016-10-01T14:53:43.000Z</time>
      </trkpt>
      <trkpt lat="47.45412" lon="6.78535">
        <ele>340</ele>
        <time>2016-10-01T14:53:44.000Z</time>
      </trkpt>
      <trkpt lat="47.45407" lon="6.7854">
        <ele>340</ele>
        <time>2016-10-01T14:53:45.000Z</time>
      </trkpt>
      <trkpt lat="47.45403" lon="6.78545">
        <ele>339</ele>
        <time>2016-10-01T14:53:46.000Z</time>
      </trkpt>
      <trkpt lat="47.45399" lon="6.78551">
        <ele>339</ele>
        <time>2016-10-01T14:53:47.000Z</time>
      </trkpt>
      <trkpt lat="47.45396" lon="6.78556">
        <ele>339</ele>
        <time>2016-10-01T14:53:48.000Z</time>
      </trkpt>
      <trkpt lat="47.45395" lon="6.78561">
        <ele>339</ele>
        <time>2016-10-01T14:53:49.000Z</time>
      </trkpt>
      <trkpt lat="47.45395" lon="6.78565">
        <ele>339</ele>
        <time>2016-10-01T14:53:50.000Z</time>
      </trkpt>
      <trkpt lat="47.45395" lon="6.7857">
        <ele>339</ele>
        <time>2016-10-01T14:53:51.000Z</time>
      </trkpt>
      <trkpt lat="47.45396" lon="6.78573">
        <ele>339</ele>
        <time>2016-10-01T14:53:52.000Z</time>
      </trkpt>
      <trkpt lat="47.45397" lon="6.78576">
        <ele>339</ele>
        <time>2016-10-01T14:53:53.000Z</time>
      </trkpt>
      <trkpt lat="47.45399" lon="6.7858">
        <ele>339</ele>
        <time>2016-10-01T14:53:54.000Z</time>
      </trkpt>
      <trkpt lat="47.45401" lon="6.78586">
        <ele>337</ele>
        <time>2016-10-01T14:53:55.000Z</time>
      </trkpt>
      <trkpt lat="47.45404" lon="6.78592">
        <ele>337</ele>
        <time>2016-10-01T14:53:56.000Z</time>
      </trkpt>
      <trkpt lat="47.45407" lon="6.78597">
        <ele>337</ele>
        <time>2016-10-01T14:53:57.000Z</time>
      </trkpt>
      <trkpt lat="47.4541" lon="6.78604">
        <ele>337</ele>
        <time>2016-10-01T14:53:58.000Z</time>
      </trkpt>
      <trkpt lat="47.45412" lon="6.78611">
        <ele>336</ele>
        <time>2016-10-01T14:53:59.000Z</time>
      </trkpt>
      <trkpt lat="47.45416" lon="6.78615">
        <ele>336</ele>
        <time>2016-10-01T14:54:00.000Z</time>
      </trkpt>
      <trkpt lat="47.45419" lon="6.78622">
        <ele>338</ele>
        <time>2016-10-01T14:54:01.000Z</time>
      </trkpt>
      <trkpt lat="47.45423" lon="6.78628">
        <ele>338</ele>
        <time>2016-10-01T14:54:02.000Z</time>
      </trkpt>
      <trkpt lat="47.45427" lon="6.78635">
        <ele>338</ele>
        <time>2016-10-01T14:54:03.000Z</time>
      </trkpt>
      <trkpt lat="47.45431" lon="6.78642">
        <ele>337</ele>
        <time>2016-10-01T14:54:04.000Z</time>
      </trkpt>
      <trkpt lat="47.45435" lon="6.7865">
        <ele>337</ele>
        <time>2016-10-01T14:54:05.000Z</time>
      </trkpt>
      <trkpt lat="47.45439" lon="6.78657">
        <ele>337</ele>
        <time>2016-10-01T14:54:06.000Z</time>
      </trkpt>
      <trkpt lat="47.45444" lon="6.78666">
        <ele>337</ele>
        <time>2016-10-01T14:54:07.000Z</time>
      </trkpt>
      <trkpt lat="47.45448" lon="6.78674">
        <ele>335</ele>
        <time>2016-10-01T14:54:08.000Z</time>
      </trkpt>
      <trkpt lat="47.45453" lon="6.78683">
        <ele>335</ele>
        <time>2016-10-01T14:54:09.000Z</time>
      </trkpt>
      <trkpt lat="47.45456" lon="6.78689">
        <ele>335</ele>
        <time>2016-10-01T14:54:10.000Z</time>
      </trkpt>
      <trkpt lat="47.4546" lon="6.78696">
        <ele>335</ele>
        <time>2016-10-01T14:54:11.000Z</time>
      </trkpt>
      <trkpt lat="47.45464" lon="6.78702">
        <ele>335</ele>
        <time>2016-10-01T14:54:12.000Z</time>
      </trkpt>
      <trkpt lat="47.45468" lon="6.78707">
        <ele>335</ele>
        <time>2016-10-01T14:54:13.000Z</time>
      </trkpt>
      <trkpt lat="47.45472" lon="6.78714">
        <ele>335</ele>
        <time>2016-10-01T14:54:14.000Z</time>
      </trkpt>
      <trkpt lat="47.45476" lon="6.78721">
        <ele>335</ele>
        <time>2016-10-01T14:54:15.000Z</time>
      </trkpt>
      <trkpt lat="47.4548" lon="6.78727">
        <ele>335</ele>
        <time>2016-10-01T14:54:16.000Z</time>
      </trkpt>
      <trkpt lat="47.45484" lon="6.78734">
        <ele>335</ele>
        <time>2016-10-01T14:54:17.000Z</time>
      </trkpt>
      <trkpt lat="47.45487" lon="6.78741">
        <ele>335</ele>
        <time>2016-10-01T14:54:18.001Z</time>
      </trkpt>
      <trkpt lat="47.45484" lon="6.78749">
        <ele>335</ele>
        <time>2016-10-01T14:54:19.000Z</time>
      </trkpt>
      <trkpt lat="47.4548" lon="6.78757">
        <ele>334</ele>
        <time>2016-10-01T14:54:20.000Z</time>
      </trkpt>
      <trkpt lat="47.45476" lon="6.78764">
        <ele>334</ele>
        <time>2016-10-01T14:54:21.000Z</time>
      </trkpt>
      <trkpt lat="47.4547" lon="6.78772">
        <ele>334</ele>
        <time>2016-10-01T14:54:22.000Z</time>
      </trkpt>
      <trkpt lat="47.45464" lon="6.78777">
        <ele>333</ele>
        <time>2016-10-01T14:54:23.000Z</time>
      </trkpt>
      <trkpt lat="47.45458" lon="6.78782">
        <ele>333</ele>
        <time>2016-10-01T14:54:23.999Z</time>
      </trkpt>
      <trkpt lat="47.45454" lon="6.78793">
        <ele>333</ele>
        <time>2016-10-01T14:54:25.000Z</time>
      </trkpt>
      <trkpt lat="47.45449" lon="6.78792">
        <ele>333</ele>
        <time>2016-10-01T14:54:26.000Z</time>
      </trkpt>
      <trkpt lat="47.45444" lon="6.78795">
        <ele>333</ele>
        <time>2016-10-01T14:54:27.000Z</time>
      </trkpt>
      <trkpt lat="47.4544" lon="6.78801">
        <ele>333</ele>
        <time>2016-10-01T14:54:28.000Z</time>
      </trkpt>
      <trkpt lat="47.45436" lon="6.78806">
        <ele>333</ele>
        <time>2016-10-01T14:54:29.000Z</time>
      </trkpt>
      <trkpt lat="47.4543" lon="6.78812">
        <ele>333</ele>
        <time>2016-10-01T14:54:30.000Z</time>
      </trkpt>
      <trkpt lat="47.45425" lon="6.78818">
        <ele>333</ele>
        <time>2016-10-01T14:54:31.000Z</time>
      </trkpt>
      <trkpt lat="47.4542" lon="6.78825">
        <ele>332</ele>
        <time>2016-10-01T14:54:32.000Z</time>
      </trkpt>
      <trkpt lat="47.45416" lon="6.78832">
        <ele>332</ele>
        <time>2016-10-01T14:54:33.000Z</time>
      </trkpt>
      <trkpt lat="47.4541" lon="6.78837">
        <ele>332</ele>
        <time>2016-10-01T14:54:34.000Z</time>
      </trkpt>
      <trkpt lat="47.45402" lon="6.78841">
        <ele>332</ele>
        <time>2016-10-01T14:54:35.000Z</time>
      </trkpt>
      <trkpt lat="47.45396" lon="6.78847">
        <ele>332</ele>
        <time>2016-10-01T14:54:36.000Z</time>
      </trkpt>
      <trkpt lat="47.4539" lon="6.78852">
        <ele>332</ele>
        <time>2016-10-01T14:54:37.000Z</time>
      </trkpt>
      <trkpt lat="47.45384" lon="6.78856">
        <ele>332</ele>
        <time>2016-10-01T14:54:38.000Z</time>
      </trkpt>
      <trkpt lat="47.45379" lon="6.78861">
        <ele>332</ele>
        <time>2016-10-01T14:54:39.000Z</time>
      </trkpt>
      <trkpt lat="47.45375" lon="6.78866">
        <ele>332</ele>
        <time>2016-10-01T14:54:40.000Z</time>
      </trkpt>
      <trkpt lat="47.45371" lon="6.7887">
        <ele>332</ele>
        <time>2016-10-01T14:54:41.000Z</time>
      </trkpt>
      <trkpt lat="47.45367" lon="6.78877">
        <ele>332</ele>
        <time>2016-10-01T14:54:42.000Z</time>
      </trkpt>
      <trkpt lat="47.45363" lon="6.78884">
        <ele>332</ele>
        <time>2016-10-01T14:54:43.000Z</time>
      </trkpt>
      <trkpt lat="47.45358" lon="6.78888">
        <ele>332</ele>
        <time>2016-10-01T14:54:44.000Z</time>
      </trkpt>
      <trkpt lat="47.45356" lon="6.78892">
        <ele>332</ele>
        <time>2016-10-01T14:54:45.000Z</time>
      </trkpt>
      <trkpt lat="47.45353" lon="6.78894">
        <ele>332</ele>
        <time>2016-10-01T14:54:46.000Z</time>
      </trkpt>
      <trkpt lat="47.4535" lon="6.78897">
        <ele>332</ele>
        <time>2016-10-01T14:54:47.000Z</time>
      </trkpt>
      <trkpt lat="47.45347" lon="6.78905">
        <ele>332</ele>
        <time>2016-10-01T14:54:48.000Z</time>
      </trkpt>
      <trkpt lat="47.45344" lon="6.78911">
        <ele>332</ele>
        <time>2016-10-01T14:54:49.000Z</time>
      </trkpt>
      <trkpt lat="47.4534" lon="6.78914">
        <ele>331</ele>
        <time>2016-10-01T14:54:50.000Z</time>
      </trkpt>
      <trkpt lat="47.45335" lon="6.78918">
        <ele>331</ele>
        <time>2016-10-01T14:54:51.000Z</time>
      </trkpt>
      <trkpt lat="47.45331" lon="6.78925">
        <ele>331</ele>
        <time>2016-10-01T14:54:52.000Z</time>
      </trkpt>
      <trkpt lat="47.45327" lon="6.78921">
        <ele>331</ele>
        <time>2016-10-01T14:54:53.000Z</time>
      </trkpt>
      <trkpt lat="47.45323" lon="6.78922">
        <ele>331</ele>
        <time>2016-10-01T14:54:54.000Z</time>
      </trkpt>
      <trkpt lat="47.45318" lon="6.78929">
        <ele>331</ele>
        <time>2016-10-01T14:54:55.000Z</time>
      </trkpt>
      <trkpt lat="47.45315" lon="6.78936">
        <ele>331</ele>
        <time>2016-10-01T14:54:56.000Z</time>
      </trkpt>
      <trkpt lat="47.45311" lon="6.78944">
        <ele>331</ele>
        <time>2016-10-01T14:54:57.000Z</time>
      </trkpt>
      <trkpt lat="47.45307" lon="6.7895">
        <ele>331</ele>
        <time>2016-10-01T14:54:58.000Z</time>
      </trkpt>
      <trkpt lat="47.45303" lon="6.78957">
        <ele>331</ele>
        <time>2016-10-01T14:54:59.000Z</time>
      </trkpt>
      <trkpt lat="47.45299" lon="6.78962">
        <ele>331</ele>
        <time>2016-10-01T14:55:00.000Z</time>
      </trkpt>
      <trkpt lat="47.45295" lon="6.78969">
        <ele>331</ele>
        <time>2016-10-01T14:55:01.000Z</time>
      </trkpt>
      <trkpt lat="47.45292" lon="6.78969">
        <ele>331</ele>
        <time>2016-10-01T14:55:02.000Z</time>
      </trkpt>
      <trkpt lat="47.45288" lon="6.78971">
        <ele>331</ele>
        <time>2016-10-01T14:55:03.000Z</time>
      </trkpt>
      <trkpt lat="47.45285" lon="6.78976">
        <ele>331</ele>
        <time>2016-10-01T14:55:04.000Z</time>
      </trkpt>
      <trkpt lat="47.45281" lon="6.78984">
        <ele>332</ele>
        <time>2016-10-01T14:55:05.000Z</time>
      </trkpt>
      <trkpt lat="47.45278" lon="6.78987">
        <ele>332</ele>
        <time>2016-10-01T14:55:06.000Z</time>
      </trkpt>
      <trkpt lat="47.45274" lon="6.78989">
        <ele>332</ele>
        <time>2016-10-01T14:55:07.000Z</time>
      </trkpt>
      <trkpt lat="47.45271" lon="6.78996">
        <ele>332</ele>
        <time>2016-10-01T14:55:08.000Z</time>
      </trkpt>
      <trkpt lat="47.45269" lon="6.79003">
        <ele>332</ele>
        <time>2016-10-01T14:55:09.000Z</time>
      </trkpt>
      <trkpt lat="47.45267" lon="6.7901">
        <ele>332</ele>
        <time>2016-10-01T14:55:10.000Z</time>
      </trkpt>
      <trkpt lat="47.45264" lon="6.79016">
        <ele>332</ele>
        <time>2016-10-01T14:55:11.000Z</time>
      </trkpt>
      <trkpt lat="47.45262" lon="6.79021">
        <ele>332</ele>
        <time>2016-10-01T14:55:11.999Z</time>
      </trkpt>
      <trkpt lat="47.45264" lon="6.79037">
        <ele>331</ele>
        <time>2016-10-01T14:55:13.000Z</time>
      </trkpt>
      <trkpt lat="47.45263" lon="6.79042">
        <ele>331</ele>
        <time>2016-10-01T14:55:13.999Z</time>
      </trkpt>
      <trkpt lat="47.45261" lon="6.79051">
        <ele>332</ele>
        <time>2016-10-01T14:55:15.000Z</time>
      </trkpt>
      <trkpt lat="47.45259" lon="6.79057">
        <ele>332</ele>
        <time>2016-10-01T14:55:16.000Z</time>
      </trkpt>
      <trkpt lat="47.45257" lon="6.79064">
        <ele>332</ele>
        <time>2016-10-01T14:55:17.000Z</time>
      </trkpt>
      <trkpt lat="47.45256" lon="6.79074">
        <ele>332</ele>
        <time>2016-10-01T14:55:18.000Z</time>
      </trkpt>
      <trkpt lat="47.45253" lon="6.79078">
        <ele>332</ele>
        <time>2016-10-01T14:55:19.000Z</time>
      </trkpt>
      <trkpt lat="47.45251" lon="6.79082">
        <ele>332</ele>
        <time>2016-10-01T14:55:20.000Z</time>
      </trkpt>
      <trkpt lat="47.4525" lon="6.7909">
        <ele>332</ele>
        <time>2016-10-01T14:55:21.000Z</time>
      </trkpt>
      <trkpt lat="47.45247" lon="6.79095">
        <ele>332</ele>
        <time>2016-10-01T14:55:22.000Z</time>
      </trkpt>
      <trkpt lat="47.45244" lon="6.791">
        <ele>332</ele>
        <time>2016-10-01T14:55:23.000Z</time>
      </trkpt>
      <trkpt lat="47.4524" lon="6.79102">
        <ele>333</ele>
        <time>2016-10-01T14:55:24.000Z</time>
      </trkpt>
      <trkpt lat="47.45235" lon="6.79104">
        <ele>333</ele>
        <time>2016-10-01T14:55:25.000Z</time>
      </trkpt>
      <trkpt lat="47.4523" lon="6.79104">
        <ele>333</ele>
        <time>2016-10-01T14:55:26.000Z</time>
      </trkpt>
      <trkpt lat="47.45227" lon="6.79109">
        <ele>333</ele>
        <time>2016-10-01T14:55:27.000Z</time>
      </trkpt>
      <trkpt lat="47.45224" lon="6.7911">
        <ele>333</ele>
        <time>2016-10-01T14:55:28.000Z</time>
      </trkpt>
      <trkpt lat="47.45221" lon="6.79115">
        <ele>333</ele>
        <time>2016-10-01T14:55:29.000Z</time>
      </trkpt>
      <trkpt lat="47.45218" lon="6.79119">
        <ele>333</ele>
        <time>2016-10-01T14:55:30.000Z</time>
      </trkpt>
      <trkpt lat="47.45216" lon="6.79124">
        <ele>333</ele>
        <time>2016-10-01T14:55:31.000Z</time>
      </trkpt>
      <trkpt lat="47.45214" lon="6.79128">
        <ele>333</ele>
        <time>2016-10-01T14:55:32.000Z</time>
      </trkpt>
      <trkpt lat="47.45213" lon="6.79132">
        <ele>333</ele>
        <time>2016-10-01T14:55:33.000Z</time>
      </trkpt>
      <trkpt lat="47.45212" lon="6.79139">
        <ele>333</ele>
        <time>2016-10-01T14:55:34.000Z</time>
      </trkpt>
      <trkpt lat="47.4521" lon="6.79143">
        <ele>333</ele>
        <time>2016-10-01T14:55:34.998Z</time>
      </trkpt>
      <trkpt lat="47.45209" lon="6.79149">
        <ele>333</ele>
        <time>2016-10-01T14:55:36.000Z</time>
      </trkpt>
      <trkpt lat="47.45207" lon="6.79154">
        <ele>333</ele>
        <time>2016-10-01T14:55:37.000Z</time>
      </trkpt>
      <trkpt lat="47.45206" lon="6.7916">
        <ele>333</ele>
        <time>2016-10-01T14:55:38.000Z</time>
      </trkpt>
      <trkpt lat="47.45205" lon="6.79164">
        <ele>333</ele>
        <time>2016-10-01T14:55:39.000Z</time>
      </trkpt>
      <trkpt lat="47.45203" lon="6.79169">
        <ele>334</ele>
        <time>2016-10-01T14:55:39.999Z</time>
      </trkpt>
      <trkpt lat="47.45202" lon="6.79173">
        <ele>334</ele>
        <time>2016-10-01T14:55:41.000Z</time>
      </trkpt>
      <trkpt lat="47.45201" lon="6.79176">
        <ele>334</ele>
        <time>2016-10-01T14:55:42.000Z</time>
      </trkpt>
      <trkpt lat="47.452" lon="6.79182">
        <ele>334</ele>
        <time>2016-10-01T14:55:43.000Z</time>
      </trkpt>
      <trkpt lat="47.45199" lon="6.79188">
        <ele>334</ele>
        <time>2016-10-01T14:55:44.000Z</time>
      </trkpt>
      <trkpt lat="47.45198" lon="6.79194">
        <ele>334</ele>
        <time>2016-10-01T14:55:45.000Z</time>
      </trkpt>
      <trkpt lat="47.45196" lon="6.792">
        <ele>334</ele>
        <time>2016-10-01T14:55:46.000Z</time>
      </trkpt>
      <trkpt lat="47.45194" lon="6.79207">
        <ele>334</ele>
        <time>2016-10-01T14:55:47.000Z</time>
      </trkpt>
      <trkpt lat="47.45192" lon="6.79212">
        <ele>334</ele>
        <time>2016-10-01T14:55:48.000Z</time>
      </trkpt>
      <trkpt lat="47.45187" lon="6.79218">
        <ele>334</ele>
        <time>2016-10-01T14:55:49.000Z</time>
      </trkpt>
      <trkpt lat="47.45184" lon="6.79222">
        <ele>334</ele>
        <time>2016-10-01T14:55:50.000Z</time>
      </trkpt>
      <trkpt lat="47.45181" lon="6.79226">
        <ele>334</ele>
        <time>2016-10-01T14:55:51.000Z</time>
      </trkpt>
      <trkpt lat="47.45178" lon="6.7923">
        <ele>335</ele>
        <time>2016-10-01T14:55:52.000Z</time>
      </trkpt>
      <trkpt lat="47.45179" lon="6.79239">
        <ele>335</ele>
        <time>2016-10-01T14:55:53.000Z</time>
      </trkpt>
      <trkpt lat="47.45178" lon="6.79245">
        <ele>335</ele>
        <time>2016-10-01T14:55:54.000Z</time>
      </trkpt>
      <trkpt lat="47.45177" lon="6.79253">
        <ele>335</ele>
        <time>2016-10-01T14:55:55.000Z</time>
      </trkpt>
      <trkpt lat="47.45175" lon="6.79258">
        <ele>335</ele>
        <time>2016-10-01T14:55:56.000Z</time>
      </trkpt>
      <trkpt lat="47.45173" lon="6.79264">
        <ele>335</ele>
        <time>2016-10-01T14:55:57.000Z</time>
      </trkpt>
      <trkpt lat="47.45171" lon="6.79271">
        <ele>335</ele>
        <time>2016-10-01T14:55:58.000Z</time>
      </trkpt>
      <trkpt lat="47.4517" lon="6.7928">
        <ele>335</ele>
        <time>2016-10-01T14:55:59.000Z</time>
      </trkpt>
      <trkpt lat="47.4517" lon="6.79288">
        <ele>335</ele>
        <time>2016-10-01T14:56:00.000Z</time>
      </trkpt>
      <trkpt lat="47.45167" lon="6.79296">
        <ele>335</ele>
        <time>2016-10-01T14:56:01.000Z</time>
      </trkpt>
      <trkpt lat="47.45166" lon="6.79303">
        <ele>335</ele>
        <time>2016-10-01T14:56:02.000Z</time>
      </trkpt>
      <trkpt lat="47.45163" lon="6.7931">
        <ele>335</ele>
        <time>2016-10-01T14:56:03.000Z</time>
      </trkpt>
      <trkpt lat="47.45162" lon="6.79318">
        <ele>335</ele>
        <time>2016-10-01T14:56:04.000Z</time>
      </trkpt>
      <trkpt lat="47.45161" lon="6.79326">
        <ele>335</ele>
        <time>2016-10-01T14:56:05.000Z</time>
      </trkpt>
      <trkpt lat="47.45159" lon="6.79332">
        <ele>335</ele>
        <time>2016-10-01T14:56:06.000Z</time>
      </trkpt>
      <trkpt lat="47.45158" lon="6.79337">
        <ele>335</ele>
        <time>2016-10-01T14:56:07.000Z</time>
      </trkpt>
      <trkpt lat="47.45156" lon="6.79341">
        <ele>334</ele>
        <time>2016-10-01T14:56:08.000Z</time>
      </trkpt>
      <trkpt lat="47.45155" lon="6.79348">
        <ele>334</ele>
        <time>2016-10-01T14:56:09.000Z</time>
      </trkpt>
      <trkpt lat="47.45154" lon="6.79353">
        <ele>334</ele>
        <time>2016-10-01T14:56:10.000Z</time>
      </trkpt>
      <trkpt lat="47.45151" lon="6.79361">
        <ele>334</ele>
        <time>2016-10-01T14:56:11.000Z</time>
      </trkpt>
      <trkpt lat="47.45149" lon="6.79368">
        <ele>334</ele>
        <time>2016-10-01T14:56:12.000Z</time>
      </trkpt>
      <trkpt lat="47.45147" lon="6.79375">
        <ele>334</ele>
        <time>2016-10-01T14:56:13.000Z</time>
      </trkpt>
      <trkpt lat="47.45145" lon="6.79383">
        <ele>334</ele>
        <time>2016-10-01T14:56:14.000Z</time>
      </trkpt>
      <trkpt lat="47.45143" lon="6.7939">
        <ele>334</ele>
        <time>2016-10-01T14:56:15.000Z</time>
      </trkpt>
      <trkpt lat="47.45142" lon="6.79397">
        <ele>334</ele>
        <time>2016-10-01T14:56:16.000Z</time>
      </trkpt>
      <trkpt lat="47.4514" lon="6.79403">
        <ele>334</ele>
        <time>2016-10-01T14:56:17.000Z</time>
      </trkpt>
      <trkpt lat="47.45138" lon="6.79411">
        <ele>333</ele>
        <time>2016-10-01T14:56:18.000Z</time>
      </trkpt>
      <trkpt lat="47.45136" lon="6.79418">
        <ele>333</ele>
        <time>2016-10-01T14:56:19.000Z</time>
      </trkpt>
      <trkpt lat="47.45134" lon="6.79424">
        <ele>333</ele>
        <time>2016-10-01T14:56:20.000Z</time>
      </trkpt>
      <trkpt lat="47.45133" lon="6.7943">
        <ele>333</ele>
        <time>2016-10-01T14:56:21.000Z</time>
      </trkpt>
      <trkpt lat="47.45131" lon="6.79436">
        <ele>333</ele>
        <time>2016-10-01T14:56:22.001Z</time>
      </trkpt>
      <trkpt lat="47.45131" lon="6.79443">
        <ele>333</ele>
        <time>2016-10-01T14:56:23.000Z</time>
      </trkpt>
      <trkpt lat="47.4513" lon="6.79449">
        <ele>333</ele>
        <time>2016-10-01T14:56:24.000Z</time>
      </trkpt>
      <trkpt lat="47.45126" lon="6.79455">
        <ele>333</ele>
        <time>2016-10-01T14:56:25.000Z</time>
      </trkpt>
      <trkpt lat="47.45124" lon="6.79461">
        <ele>333</ele>
        <time>2016-10-01T14:56:25.999Z</time>
      </trkpt>
      <trkpt lat="47.45122" lon="6.79468">
        <ele>333</ele>
        <time>2016-10-01T14:56:27.001Z</time>
      </trkpt>
      <trkpt lat="47.45122" lon="6.79476">
        <ele>333</ele>
        <time>2016-10-01T14:56:28.000Z</time>
      </trkpt>
      <trkpt lat="47.45121" lon="6.79485">
        <ele>333</ele>
        <time>2016-10-01T14:56:29.000Z</time>
      </trkpt>
      <trkpt lat="47.45119" lon="6.79488">
        <ele>333</ele>
        <time>2016-10-01T14:56:30.000Z</time>
      </trkpt>
      <trkpt lat="47.45116" lon="6.79492">
        <ele>333</ele>
        <time>2016-10-01T14:56:31.000Z</time>
      </trkpt>
      <trkpt lat="47.45117" lon="6.79501">
        <ele>333</ele>
        <time>2016-10-01T14:56:32.000Z</time>
      </trkpt>
      <trkpt lat="47.45117" lon="6.79507">
        <ele>333</ele>
        <time>2016-10-01T14:56:33.000Z</time>
      </trkpt>
      <trkpt lat="47.45116" lon="6.79513">
        <ele>333</ele>
        <time>2016-10-01T14:56:33.999Z</time>
      </trkpt>
      <trkpt lat="47.45111" lon="6.7952">
        <ele>333</ele>
        <time>2016-10-01T14:56:35.000Z</time>
      </trkpt>
      <trkpt lat="47.45106" lon="6.79524">
        <ele>333</ele>
        <time>2016-10-01T14:56:36.000Z</time>
      </trkpt>
      <trkpt lat="47.45101" lon="6.79527">
        <ele>333</ele>
        <time>2016-10-01T14:56:37.000Z</time>
      </trkpt>
      <trkpt lat="47.45095" lon="6.79529">
        <ele>333</ele>
        <time>2016-10-01T14:56:38.000Z</time>
      </trkpt>
      <trkpt lat="47.45091" lon="6.79534">
        <ele>333</ele>
        <time>2016-10-01T14:56:39.000Z</time>
      </trkpt>
      <trkpt lat="47.45086" lon="6.79539">
        <ele>333</ele>
        <time>2016-10-01T14:56:39.999Z</time>
      </trkpt>
      <trkpt lat="47.45083" lon="6.79547">
        <ele>333</ele>
        <time>2016-10-01T14:56:41.000Z</time>
      </trkpt>
      <trkpt lat="47.45079" lon="6.79553">
        <ele>333</ele>
        <time>2016-10-01T14:56:42.000Z</time>
      </trkpt>
      <trkpt lat="47.45076" lon="6.7956">
        <ele>333</ele>
        <time>2016-10-01T14:56:43.000Z</time>
      </trkpt>
      <trkpt lat="47.45072" lon="6.79565">
        <ele>333</ele>
        <time>2016-10-01T14:56:44.000Z</time>
      </trkpt>
      <trkpt lat="47.45068" lon="6.79571">
        <ele>333</ele>
        <time>2016-10-01T14:56:44.999Z</time>
      </trkpt>
      <trkpt lat="47.45065" lon="6.79578">
        <ele>333</ele>
        <time>2016-10-01T14:56:46.000Z</time>
      </trkpt>
      <trkpt lat="47.45061" lon="6.79584">
        <ele>334</ele>
        <time>2016-10-01T14:56:47.000Z</time>
      </trkpt>
      <trkpt lat="47.45058" lon="6.79586">
        <ele>334</ele>
        <time>2016-10-01T14:56:48.000Z</time>
      </trkpt>
      <trkpt lat="47.45055" lon="6.79589">
        <ele>334</ele>
        <time>2016-10-01T14:56:49.000Z</time>
      </trkpt>
      <trkpt lat="47.45052" lon="6.79595">
        <ele>334</ele>
        <time>2016-10-01T14:56:50.000Z</time>
      </trkpt>
      <trkpt lat="47.45049" lon="6.79598">
        <ele>334</ele>
        <time>2016-10-01T14:56:51.001Z</time>
      </trkpt>
      <trkpt lat="47.45049" lon="6.79602">
        <ele>334</ele>
        <time>2016-10-01T14:56:52.000Z</time>
      </trkpt>
      <trkpt lat="47.45048" lon="6.79607">
        <ele>334</ele>
        <time>2016-10-01T14:56:53.000Z</time>
      </trkpt>
      <trkpt lat="47.45047" lon="6.79611">
        <ele>334</ele>
        <time>2016-10-01T14:56:54.000Z</time>
      </trkpt>
      <trkpt lat="47.45045" lon="6.79616">
        <ele>334</ele>
        <time>2016-10-01T14:56:56.000Z</time>
      </trkpt>
      <trkpt lat="47.45044" lon="6.79619">
        <ele>334</ele>
        <time>2016-10-01T14:56:57.000Z</time>
      </trkpt>
      <trkpt lat="47.45043" lon="6.79624">
        <ele>334</ele>
        <time>2016-10-01T14:56:58.000Z</time>
      </trkpt>
      <trkpt lat="47.45041" lon="6.79627">
        <ele>335</ele>
        <time>2016-10-01T14:56:59.000Z</time>
      </trkpt>
      <trkpt lat="47.4504" lon="6.79631">
        <ele>335</ele>
        <time>2016-10-01T14:57:00.001Z</time>
      </trkpt>
      <trkpt lat="47.45038" lon="6.79634">
        <ele>335</ele>
        <time>2016-10-01T14:57:01.000Z</time>
      </trkpt>
      <trkpt lat="47.45036" lon="6.79637">
        <ele>335</ele>
        <time>2016-10-01T14:57:02.000Z</time>
      </trkpt>
      <trkpt lat="47.45034" lon="6.7964">
        <ele>335</ele>
        <time>2016-10-01T14:57:03.000Z</time>
      </trkpt>
      <trkpt lat="47.45032" lon="6.79644">
        <ele>335</ele>
        <time>2016-10-01T14:57:04.000Z</time>
      </trkpt>
      <trkpt lat="47.4503" lon="6.79648">
        <ele>335</ele>
        <time>2016-10-01T14:57:05.000Z</time>
      </trkpt>
      <trkpt lat="47.45029" lon="6.79653">
        <ele>335</ele>
        <time>2016-10-01T14:57:06.000Z</time>
      </trkpt>
      <trkpt lat="47.45029" lon="6.79658">
        <ele>335</ele>
        <time>2016-10-01T14:57:07.000Z</time>
      </trkpt>
      <trkpt lat="47.45028" lon="6.79663">
        <ele>335</ele>
        <time>2016-10-01T14:57:08.000Z</time>
      </trkpt>
      <trkpt lat="47.45028" lon="6.79667">
        <ele>338</ele>
        <time>2016-10-01T14:57:09.000Z</time>
      </trkpt>
      <trkpt lat="47.45028" lon="6.79672">
        <ele>338</ele>
        <time>2016-10-01T14:57:10.000Z</time>
      </trkpt>
      <trkpt lat="47.45028" lon="6.79676">
        <ele>338</ele>
        <time>2016-10-01T14:57:11.000Z</time>
      </trkpt>
      <trkpt lat="47.45028" lon="6.79683">
        <ele>338</ele>
        <time>2016-10-01T14:57:13.000Z</time>
      </trkpt>
      <trkpt lat="47.45028" lon="6.79685">
        <ele>338</ele>
        <time>2016-10-01T14:57:14.000Z</time>
      </trkpt>
      <trkpt lat="47.45026" lon="6.79691">
        <ele>339</ele>
        <time>2016-10-01T14:57:17.000Z</time>
      </trkpt>
      <trkpt lat="47.45025" lon="6.79692">
        <ele>339</ele>
        <time>2016-10-01T14:57:18.000Z</time>
      </trkpt>
      <trkpt lat="47.45023" lon="6.79698">
        <ele>339</ele>
        <time>2016-10-01T14:57:21.000Z</time>
      </trkpt>
      <trkpt lat="47.45022" lon="6.797">
        <ele>339</ele>
        <time>2016-10-01T14:57:22.000Z</time>
      </trkpt>
      <trkpt lat="47.45019" lon="6.79703">
        <ele>339</ele>
        <time>2016-10-01T14:57:25.000Z</time>
      </trkpt>
      <trkpt lat="47.45018" lon="6.79703">
        <ele>339</ele>
        <time>2016-10-01T14:57:26.001Z</time>
      </trkpt>
      <trkpt lat="47.45014" lon="6.79703">
        <ele>339</ele>
        <time>2016-10-01T14:57:30.000Z</time>
      </trkpt>
      <trkpt lat="47.45012" lon="6.79702">
        <ele>339</ele>
        <time>2016-10-01T14:57:31.000Z</time>
      </trkpt>
      <trkpt lat="47.45008" lon="6.797">
        <ele>339</ele>
        <time>2016-10-01T14:57:33.000Z</time>
      </trkpt>
      <trkpt lat="47.45008" lon="6.79699">
        <ele>339</ele>
        <time>2016-10-01T14:57:34.000Z</time>
      </trkpt>
      <trkpt lat="47.45004" lon="6.79695">
        <ele>339</ele>
        <time>2016-10-01T14:57:40.000Z</time>
      </trkpt>
      <trkpt lat="47.45003" lon="6.79694">
        <ele>339</ele>
        <time>2016-10-01T14:57:41.000Z</time>
      </trkpt>
      <trkpt lat="47.45" lon="6.79689">
        <ele>339</ele>
        <time>2016-10-01T14:57:45.000Z</time>
      </trkpt>
      <trkpt lat="47.44999" lon="6.79689">
        <ele>341</ele>
        <time>2016-10-01T14:57:46.001Z</time>
      </trkpt>
      <trkpt lat="47.44998" lon="6.79688">
        <ele>341</ele>
        <time>2016-10-01T14:57:47.000Z</time>
      </trkpt>
      <trkpt lat="47.44995" lon="6.79684">
        <ele>340</ele>
        <time>2016-10-01T14:57:48.000Z</time>
      </trkpt>
      <trkpt lat="47.44993" lon="6.79679">
        <ele>340</ele>
        <time>2016-10-01T14:57:51.000Z</time>
      </trkpt>
      <trkpt lat="47.44992" lon="6.79679">
        <ele>340</ele>
        <time>2016-10-01T14:57:52.000Z</time>
      </trkpt>
      <trkpt lat="47.44988" lon="6.79678">
        <ele>340</ele>
        <time>2016-10-01T14:57:55.000Z</time>
      </trkpt>
      <trkpt lat="47.44987" lon="6.79678">
        <ele>340</ele>
        <time>2016-10-01T14:57:56.000Z</time>
      </trkpt>
      <trkpt lat="47.44983" lon="6.79678">
        <ele>341</ele>
        <time>2016-10-01T14:57:59.000Z</time>
      </trkpt>
      <trkpt lat="47.44982" lon="6.79679">
        <ele>341</ele>
        <time>2016-10-01T14:58:00.000Z</time>
      </trkpt>
      <trkpt lat="47.44978" lon="6.79678">
        <ele>341</ele>
        <time>2016-10-01T14:58:02.000Z</time>
      </trkpt>
      <trkpt lat="47.44977" lon="6.79678">
        <ele>341</ele>
        <time>2016-10-01T14:58:03.000Z</time>
      </trkpt>
      <trkpt lat="47.44975" lon="6.7968">
        <ele>342</ele>
        <time>2016-10-01T14:58:07.999Z</time>
      </trkpt>
      <trkpt lat="47.44971" lon="6.79679">
        <ele>342</ele>
        <time>2016-10-01T14:58:09.000Z</time>
      </trkpt>
      <trkpt lat="47.44969" lon="6.79679">
        <ele>342</ele>
        <time>2016-10-01T14:58:10.000Z</time>
      </trkpt>
      <trkpt lat="47.44967" lon="6.79681">
        <ele>342</ele>
        <time>2016-10-01T14:58:11.000Z</time>
      </trkpt>
      <trkpt lat="47.44965" lon="6.79681">
        <ele>342</ele>
        <time>2016-10-01T14:58:12.000Z</time>
      </trkpt>
      <trkpt lat="47.44962" lon="6.79685">
        <ele>343</ele>
        <time>2016-10-01T14:58:13.000Z</time>
      </trkpt>
      <trkpt lat="47.4496" lon="6.79688">
        <ele>343</ele>
        <time>2016-10-01T14:58:14.000Z</time>
      </trkpt>
      <trkpt lat="47.44958" lon="6.7969">
        <ele>343</ele>
        <time>2016-10-01T14:58:15.000Z</time>
      </trkpt>
      <trkpt lat="47.44956" lon="6.79692">
        <ele>343</ele>
        <time>2016-10-01T14:58:16.000Z</time>
      </trkpt>
      <trkpt lat="47.44955" lon="6.79695">
        <ele>343</ele>
        <time>2016-10-01T14:58:17.000Z</time>
      </trkpt>
      <trkpt lat="47.44954" lon="6.79697">
        <ele>343</ele>
        <time>2016-10-01T14:58:18.000Z</time>
      </trkpt>
      <trkpt lat="47.44952" lon="6.797">
        <ele>344</ele>
        <time>2016-10-01T14:58:19.000Z</time>
      </trkpt>
      <trkpt lat="47.4495" lon="6.79703">
        <ele>344</ele>
        <time>2016-10-01T14:58:20.001Z</time>
      </trkpt>
      <trkpt lat="47.4495" lon="6.79707">
        <ele>344</ele>
        <time>2016-10-01T14:58:21.000Z</time>
      </trkpt>
      <trkpt lat="47.44948" lon="6.7971">
        <ele>344</ele>
        <time>2016-10-01T14:58:22.000Z</time>
      </trkpt>
      <trkpt lat="47.44946" lon="6.79713">
        <ele>344</ele>
        <time>2016-10-01T14:58:23.000Z</time>
      </trkpt>
      <trkpt lat="47.44944" lon="6.79715">
        <ele>345</ele>
        <time>2016-10-01T14:58:24.000Z</time>
      </trkpt>
      <trkpt lat="47.44942" lon="6.79716">
        <ele>345</ele>
        <time>2016-10-01T14:58:25.000Z</time>
      </trkpt>
      <trkpt lat="47.44939" lon="6.79718">
        <ele>345</ele>
        <time>2016-10-01T14:58:26.000Z</time>
      </trkpt>
      <trkpt lat="47.44936" lon="6.79719">
        <ele>345</ele>
        <time>2016-10-01T14:58:27.000Z</time>
      </trkpt>
      <trkpt lat="47.44934" lon="6.79719">
        <ele>345</ele>
        <time>2016-10-01T14:58:28.000Z</time>
      </trkpt>
      <trkpt lat="47.44931" lon="6.7972">
        <ele>345</ele>
        <time>2016-10-01T14:58:29.000Z</time>
      </trkpt>
      <trkpt lat="47.44927" lon="6.79719">
        <ele>345</ele>
        <time>2016-10-01T14:58:31.000Z</time>
      </trkpt>
      <trkpt lat="47.44926" lon="6.79719">
        <ele>345</ele>
        <time>2016-10-01T14:58:32.000Z</time>
      </trkpt>
      <trkpt lat="47.44922" lon="6.79722">
        <ele>346</ele>
        <time>2016-10-01T14:58:34.000Z</time>
      </trkpt>
      <trkpt lat="47.4492" lon="6.79723">
        <ele>346</ele>
        <time>2016-10-01T14:58:35.000Z</time>
      </trkpt>
      <trkpt lat="47.44917" lon="6.79726">
        <ele>346</ele>
        <time>2016-10-01T14:58:37.000Z</time>
      </trkpt>
      <trkpt lat="47.44916" lon="6.79727">
        <ele>348</ele>
        <time>2016-10-01T14:58:38.000Z</time>
      </trkpt>
      <trkpt lat="47.44912" lon="6.7973">
        <ele>348</ele>
        <time>2016-10-01T14:58:40.000Z</time>
      </trkpt>
      <trkpt lat="47.4491" lon="6.79732">
        <ele>348</ele>
        <time>2016-10-01T14:58:41.000Z</time>
      </trkpt>
      <trkpt lat="47.44908" lon="6.79734">
        <ele>348</ele>
        <time>2016-10-01T14:58:42.000Z</time>
      </trkpt>
      <trkpt lat="47.44905" lon="6.79735">
        <ele>348</ele>
        <time>2016-10-01T14:58:43.000Z</time>
      </trkpt>
      <trkpt lat="47.44902" lon="6.79736">
        <ele>348</ele>
        <time>2016-10-01T14:58:44.000Z</time>
      </trkpt>
      <trkpt lat="47.44899" lon="6.79736">
        <ele>348</ele>
        <time>2016-10-01T14:58:45.000Z</time>
      </trkpt>
      <trkpt lat="47.44896" lon="6.79736">
        <ele>348</ele>
        <time>2016-10-01T14:58:46.000Z</time>
      </trkpt>
      <trkpt lat="47.44894" lon="6.79737">
        <ele>348</ele>
        <time>2016-10-01T14:58:47.000Z</time>
      </trkpt>
      <trkpt lat="47.4489" lon="6.79737">
        <ele>348</ele>
        <time>2016-10-01T14:58:49.000Z</time>
      </trkpt>
      <trkpt lat="47.44889" lon="6.79737">
        <ele>348</ele>
        <time>2016-10-01T14:58:50.000Z</time>
      </trkpt>
      <trkpt lat="47.44886" lon="6.79735">
        <ele>348</ele>
        <time>2016-10-01T14:58:52.000Z</time>
      </trkpt>
      <trkpt lat="47.44884" lon="6.79733">
        <ele>347</ele>
        <time>2016-10-01T14:58:53.000Z</time>
      </trkpt>
      <trkpt lat="47.44881" lon="6.7973">
        <ele>347</ele>
        <time>2016-10-01T14:58:54.999Z</time>
      </trkpt>
      <trkpt lat="47.44879" lon="6.79728">
        <ele>347</ele>
        <time>2016-10-01T14:58:56.000Z</time>
      </trkpt>
      <trkpt lat="47.44876" lon="6.79725">
        <ele>347</ele>
        <time>2016-10-01T14:58:57.000Z</time>
      </trkpt>
      <trkpt lat="47.44874" lon="6.79724">
        <ele>347</ele>
        <time>2016-10-01T14:58:58.000Z</time>
      </trkpt>
      <trkpt lat="47.44871" lon="6.79723">
        <ele>347</ele>
        <time>2016-10-01T14:58:59.000Z</time>
      </trkpt>
      <trkpt lat="47.44869" lon="6.79722">
        <ele>347</ele>
        <time>2016-10-01T14:59:00.000Z</time>
      </trkpt>
      <trkpt lat="47.44866" lon="6.79719">
        <ele>347</ele>
        <time>2016-10-01T14:59:02.000Z</time>
      </trkpt>
      <trkpt lat="47.44865" lon="6.79716">
        <ele>347</ele>
        <time>2016-10-01T14:59:03.000Z</time>
      </trkpt>
      <trkpt lat="47.44865" lon="6.79709">
        <ele>346</ele>
        <time>2016-10-01T14:59:05.000Z</time>
      </trkpt>
      <trkpt lat="47.44865" lon="6.79707">
        <ele>346</ele>
        <time>2016-10-01T14:59:06.000Z</time>
      </trkpt>
      <trkpt lat="47.44862" lon="6.79712">
        <ele>346</ele>
        <time>2016-10-01T14:59:36.000Z</time>
      </trkpt>
      <trkpt lat="47.4486" lon="6.79715">
        <ele>347</ele>
        <time>2016-10-01T14:59:37.000Z</time>
      </trkpt>
      <trkpt lat="47.44858" lon="6.79717">
        <ele>347</ele>
        <time>2016-10-01T14:59:38.000Z</time>
      </trkpt>
      <trkpt lat="47.44856" lon="6.79718">
        <ele>347</ele>
        <time>2016-10-01T14:59:39.000Z</time>
      </trkpt>
      <trkpt lat="47.44852" lon="6.7972">
        <ele>347</ele>
        <time>2016-10-01T14:59:41.000Z</time>
      </trkpt>
      <trkpt lat="47.4485" lon="6.7972">
        <ele>347</ele>
        <time>2016-10-01T14:59:42.000Z</time>
      </trkpt>
      <trkpt lat="47.44848" lon="6.79721">
        <ele>347</ele>
        <time>2016-10-01T14:59:43.000Z</time>
      </trkpt>
      <trkpt lat="47.44845" lon="6.79721">
        <ele>347</ele>
        <time>2016-10-01T14:59:44.000Z</time>
      </trkpt>
      <trkpt lat="47.44842" lon="6.79721">
        <ele>347</ele>
        <time>2016-10-01T14:59:45.000Z</time>
      </trkpt>
      <trkpt lat="47.44839" lon="6.79721">
        <ele>347</ele>
        <time>2016-10-01T14:59:46.000Z</time>
      </trkpt>
      <trkpt lat="47.44836" lon="6.79721">
        <ele>347</ele>
        <time>2016-10-01T14:59:47.000Z</time>
      </trkpt>
      <trkpt lat="47.44833" lon="6.79722">
        <ele>348</ele>
        <time>2016-10-01T14:59:48.000Z</time>
      </trkpt>
      <trkpt lat="47.4483" lon="6.79724">
        <ele>348</ele>
        <time>2016-10-01T14:59:49.000Z</time>
      </trkpt>
      <trkpt lat="47.44827" lon="6.79726">
        <ele>348</ele>
        <time>2016-10-01T14:59:50.000Z</time>
      </trkpt>
      <trkpt lat="47.44825" lon="6.79729">
        <ele>348</ele>
        <time>2016-10-01T14:59:51.000Z</time>
      </trkpt>
      <trkpt lat="47.44823" lon="6.79732">
        <ele>348</ele>
        <time>2016-10-01T14:59:52.000Z</time>
      </trkpt>
      <trkpt lat="47.44822" lon="6.79735">
        <ele>349</ele>
        <time>2016-10-01T14:59:53.000Z</time>
      </trkpt>
      <trkpt lat="47.44821" lon="6.79738">
        <ele>349</ele>
        <time>2016-10-01T14:59:54.000Z</time>
      </trkpt>
      <trkpt lat="47.4482" lon="6.79742">
        <ele>349</ele>
        <time>2016-10-01T14:59:55.000Z</time>
      </trkpt>
      <trkpt lat="47.44819" lon="6.79744">
        <ele>349</ele>
        <time>2016-10-01T14:59:56.001Z</time>
      </trkpt>
      <trkpt lat="47.44818" lon="6.79749">
        <ele>349</ele>
        <time>2016-10-01T14:59:57.001Z</time>
      </trkpt>
      <trkpt lat="47.44816" lon="6.79754">
        <ele>352</ele>
        <time>2016-10-01T14:59:58.000Z</time>
      </trkpt>
      <trkpt lat="47.44815" lon="6.79759">
        <ele>352</ele>
        <time>2016-10-01T14:59:59.000Z</time>
      </trkpt>
      <trkpt lat="47.44814" lon="6.79764">
        <ele>352</ele>
        <time>2016-10-01T15:00:00.000Z</time>
      </trkpt>
      <trkpt lat="47.44813" lon="6.79771">
        <ele>352</ele>
        <time>2016-10-01T15:00:01.000Z</time>
      </trkpt>
      <trkpt lat="47.44813" lon="6.79776">
        <ele>352</ele>
        <time>2016-10-01T15:00:02.000Z</time>
      </trkpt>
      <trkpt lat="47.44813" lon="6.7978">
        <ele>353</ele>
        <time>2016-10-01T15:00:03.000Z</time>
      </trkpt>
      <trkpt lat="47.44813" lon="6.79786">
        <ele>353</ele>
        <time>2016-10-01T15:00:05.000Z</time>
      </trkpt>
      <trkpt lat="47.44812" lon="6.79789">
        <ele>353</ele>
        <time>2016-10-01T15:00:05.999Z</time>
      </trkpt>
      <trkpt lat="47.44811" lon="6.79794">
        <ele>353</ele>
        <time>2016-10-01T15:00:07.000Z</time>
      </trkpt>
      <trkpt lat="47.44808" lon="6.79802">
        <ele>353</ele>
        <time>2016-10-01T15:00:08.000Z</time>
      </trkpt>
      <trkpt lat="47.44806" lon="6.7981">
        <ele>353</ele>
        <time>2016-10-01T15:00:09.000Z</time>
      </trkpt>
      <trkpt lat="47.44805" lon="6.79816">
        <ele>353</ele>
        <time>2016-10-01T15:00:10.000Z</time>
      </trkpt>
      <trkpt lat="47.44805" lon="6.79821">
        <ele>353</ele>
        <time>2016-10-01T15:00:11.000Z</time>
      </trkpt>
      <trkpt lat="47.44804" lon="6.79826">
        <ele>353</ele>
        <time>2016-10-01T15:00:12.000Z</time>
      </trkpt>
      <trkpt lat="47.44805" lon="6.79832">
        <ele>353</ele>
        <time>2016-10-01T15:00:13.000Z</time>
      </trkpt>
      <trkpt lat="47.44806" lon="6.79838">
        <ele>354</ele>
        <time>2016-10-01T15:00:14.000Z</time>
      </trkpt>
      <trkpt lat="47.44805" lon="6.79843">
        <ele>354</ele>
        <time>2016-10-01T15:00:15.000Z</time>
      </trkpt>
      <trkpt lat="47.44803" lon="6.79849">
        <ele>354</ele>
        <time>2016-10-01T15:00:16.000Z</time>
      </trkpt>
      <trkpt lat="47.44803" lon="6.79855">
        <ele>354</ele>
        <time>2016-10-01T15:00:16.999Z</time>
      </trkpt>
      <trkpt lat="47.44798" lon="6.79861">
        <ele>355</ele>
        <time>2016-10-01T15:00:18.000Z</time>
      </trkpt>
      <trkpt lat="47.44796" lon="6.79866">
        <ele>355</ele>
        <time>2016-10-01T15:00:19.000Z</time>
      </trkpt>
      <trkpt lat="47.44795" lon="6.79871">
        <ele>355</ele>
        <time>2016-10-01T15:00:20.000Z</time>
      </trkpt>
      <trkpt lat="47.44794" lon="6.79877">
        <ele>355</ele>
        <time>2016-10-01T15:00:21.000Z</time>
      </trkpt>
      <trkpt lat="47.44793" lon="6.79882">
        <ele>355</ele>
        <time>2016-10-01T15:00:22.000Z</time>
      </trkpt>
      <trkpt lat="47.44792" lon="6.79886">
        <ele>355</ele>
        <time>2016-10-01T15:00:23.000Z</time>
      </trkpt>
      <trkpt lat="47.44791" lon="6.7989">
        <ele>355</ele>
        <time>2016-10-01T15:00:24.000Z</time>
      </trkpt>
      <trkpt lat="47.4479" lon="6.79895">
        <ele>355</ele>
        <time>2016-10-01T15:00:25.000Z</time>
      </trkpt>
      <trkpt lat="47.4479" lon="6.79899">
        <ele>355</ele>
        <time>2016-10-01T15:00:26.000Z</time>
      </trkpt>
      <trkpt lat="47.4479" lon="6.79904">
        <ele>355</ele>
        <time>2016-10-01T15:00:27.001Z</time>
      </trkpt>
      <trkpt lat="47.44788" lon="6.7991">
        <ele>355</ele>
        <time>2016-10-01T15:00:28.000Z</time>
      </trkpt>
      <trkpt lat="47.44788" lon="6.79915">
        <ele>355</ele>
        <time>2016-10-01T15:00:29.000Z</time>
      </trkpt>
      <trkpt lat="47.44787" lon="6.79921">
        <ele>356</ele>
        <time>2016-10-01T15:00:30.000Z</time>
      </trkpt>
      <trkpt lat="47.44785" lon="6.79927">
        <ele>356</ele>
        <time>2016-10-01T15:00:31.000Z</time>
      </trkpt>
      <trkpt lat="47.44785" lon="6.79931">
        <ele>356</ele>
        <time>2016-10-01T15:00:32.000Z</time>
      </trkpt>
      <trkpt lat="47.44785" lon="6.79936">
        <ele>356</ele>
        <time>2016-10-01T15:00:33.000Z</time>
      </trkpt>
      <trkpt lat="47.44784" lon="6.79941">
        <ele>356</ele>
        <time>2016-10-01T15:00:33.999Z</time>
      </trkpt>
      <trkpt lat="47.44784" lon="6.79944">
        <ele>356</ele>
        <time>2016-10-01T15:00:35.000Z</time>
      </trkpt>
      <trkpt lat="47.44783" lon="6.79949">
        <ele>356</ele>
        <time>2016-10-01T15:00:36.000Z</time>
      </trkpt>
      <trkpt lat="47.44783" lon="6.79954">
        <ele>356</ele>
        <time>2016-10-01T15:00:37.000Z</time>
      </trkpt>
      <trkpt lat="47.44782" lon="6.79958">
        <ele>356</ele>
        <time>2016-10-01T15:00:38.000Z</time>
      </trkpt>
      <trkpt lat="47.44782" lon="6.79964">
        <ele>356</ele>
        <time>2016-10-01T15:00:40.000Z</time>
      </trkpt>
      <trkpt lat="47.44782" lon="6.79966">
        <ele>356</ele>
        <time>2016-10-01T15:00:41.000Z</time>
      </trkpt>
      <trkpt lat="47.44781" lon="6.79972">
        <ele>356</ele>
        <time>2016-10-01T15:00:44.000Z</time>
      </trkpt>
      <trkpt lat="47.44781" lon="6.79974">
        <ele>356</ele>
        <time>2016-10-01T15:00:44.999Z</time>
      </trkpt>
      <trkpt lat="47.44777" lon="6.79973">
        <ele>356</ele>
        <time>2016-10-01T15:00:47.000Z</time>
      </trkpt>
      <trkpt lat="47.44775" lon="6.79973">
        <ele>356</ele>
        <time>2016-10-01T15:00:48.000Z</time>
      </trkpt>
      <trkpt lat="47.44773" lon="6.79973">
        <ele>356</ele>
        <time>2016-10-01T15:00:49.000Z</time>
      </trkpt>
      <trkpt lat="47.4477" lon="6.79972">
        <ele>356</ele>
        <time>2016-10-01T15:00:50.000Z</time>
      </trkpt>
      <trkpt lat="47.44768" lon="6.79972">
        <ele>356</ele>
        <time>2016-10-01T15:00:51.000Z</time>
      </trkpt>
      <trkpt lat="47.44765" lon="6.79971">
        <ele>356</ele>
        <time>2016-10-01T15:00:52.000Z</time>
      </trkpt>
      <trkpt lat="47.44761" lon="6.7997">
        <ele>356</ele>
        <time>2016-10-01T15:00:53.000Z</time>
      </trkpt>
      <trkpt lat="47.44758" lon="6.7997">
        <ele>356</ele>
        <time>2016-10-01T15:00:54.000Z</time>
      </trkpt>
      <trkpt lat="47.44755" lon="6.79969">
        <ele>357</ele>
        <time>2016-10-01T15:00:55.000Z</time>
      </trkpt>
      <trkpt lat="47.44752" lon="6.79969">
        <ele>357</ele>
        <time>2016-10-01T15:00:56.000Z</time>
      </trkpt>
      <trkpt lat="47.44749" lon="6.79969">
        <ele>358</ele>
        <time>2016-10-01T15:00:57.000Z</time>
      </trkpt>
      <trkpt lat="47.44747" lon="6.7997">
        <ele>358</ele>
        <time>2016-10-01T15:00:58.000Z</time>
      </trkpt>
      <trkpt lat="47.44744" lon="6.7997">
        <ele>359</ele>
        <time>2016-10-01T15:00:59.000Z</time>
      </trkpt>
      <trkpt lat="47.44741" lon="6.79969">
        <ele>359</ele>
        <time>2016-10-01T15:01:00.000Z</time>
      </trkpt>
      <trkpt lat="47.44738" lon="6.79968">
        <ele>359</ele>
        <time>2016-10-01T15:01:01.000Z</time>
      </trkpt>
      <trkpt lat="47.44735" lon="6.79967">
        <ele>359</ele>
        <time>2016-10-01T15:01:02.000Z</time>
      </trkpt>
      <trkpt lat="47.44731" lon="6.79966">
        <ele>359</ele>
        <time>2016-10-01T15:01:03.000Z</time>
      </trkpt>
      <trkpt lat="47.44728" lon="6.79964">
        <ele>359</ele>
        <time>2016-10-01T15:01:04.000Z</time>
      </trkpt>
      <trkpt lat="47.44725" lon="6.79964">
        <ele>359</ele>
        <time>2016-10-01T15:01:05.000Z</time>
      </trkpt>
      <trkpt lat="47.44722" lon="6.79963">
        <ele>359</ele>
        <time>2016-10-01T15:01:06.000Z</time>
      </trkpt>
      <trkpt lat="47.44719" lon="6.79963">
        <ele>359</ele>
        <time>2016-10-01T15:01:07.000Z</time>
      </trkpt>
      <trkpt lat="47.44716" lon="6.79962">
        <ele>359</ele>
        <time>2016-10-01T15:01:08.000Z</time>
      </trkpt>
      <trkpt lat="47.44713" lon="6.79962">
        <ele>359</ele>
        <time>2016-10-01T15:01:09.000Z</time>
      </trkpt>
      <trkpt lat="47.4471" lon="6.79962">
        <ele>359</ele>
        <time>2016-10-01T15:01:09.999Z</time>
      </trkpt>
      <trkpt lat="47.44707" lon="6.79962">
        <ele>359</ele>
        <time>2016-10-01T15:01:11.000Z</time>
      </trkpt>
      <trkpt lat="47.44704" lon="6.79961">
        <ele>359</ele>
        <time>2016-10-01T15:01:12.000Z</time>
      </trkpt>
      <trkpt lat="47.44701" lon="6.79961">
        <ele>359</ele>
        <time>2016-10-01T15:01:13.000Z</time>
      </trkpt>
      <trkpt lat="47.44698" lon="6.7996">
        <ele>359</ele>
        <time>2016-10-01T15:01:14.000Z</time>
      </trkpt>
      <trkpt lat="47.44695" lon="6.79959">
        <ele>359</ele>
        <time>2016-10-01T15:01:15.000Z</time>
      </trkpt>
      <trkpt lat="47.44692" lon="6.79958">
        <ele>359</ele>
        <time>2016-10-01T15:01:16.000Z</time>
      </trkpt>
      <trkpt lat="47.44688" lon="6.79957">
        <ele>359</ele>
        <time>2016-10-01T15:01:17.000Z</time>
      </trkpt>
      <trkpt lat="47.44685" lon="6.79956">
        <ele>359</ele>
        <time>2016-10-01T15:01:17.999Z</time>
      </trkpt>
      <trkpt lat="47.44681" lon="6.79955">
        <ele>359</ele>
        <time>2016-10-01T15:01:19.000Z</time>
      </trkpt>
      <trkpt lat="47.44679" lon="6.79956">
        <ele>359</ele>
        <time>2016-10-01T15:01:20.000Z</time>
      </trkpt>
      <trkpt lat="47.44676" lon="6.79956">
        <ele>360</ele>
        <time>2016-10-01T15:01:21.000Z</time>
      </trkpt>
      <trkpt lat="47.44674" lon="6.79955">
        <ele>360</ele>
        <time>2016-10-01T15:01:22.000Z</time>
      </trkpt>
      <trkpt lat="47.44671" lon="6.79955">
        <ele>360</ele>
        <time>2016-10-01T15:01:23.000Z</time>
      </trkpt>
      <trkpt lat="47.44668" lon="6.79955">
        <ele>360</ele>
        <time>2016-10-01T15:01:24.000Z</time>
      </trkpt>
      <trkpt lat="47.44666" lon="6.79954">
        <ele>361</ele>
        <time>2016-10-01T15:01:25.000Z</time>
      </trkpt>
      <trkpt lat="47.44663" lon="6.79954">
        <ele>361</ele>
        <time>2016-10-01T15:01:25.999Z</time>
      </trkpt>
      <trkpt lat="47.44659" lon="6.79954">
        <ele>361</ele>
        <time>2016-10-01T15:01:27.000Z</time>
      </trkpt>
      <trkpt lat="47.44656" lon="6.79954">
        <ele>361</ele>
        <time>2016-10-01T15:01:28.000Z</time>
      </trkpt>
      <trkpt lat="47.44653" lon="6.79953">
        <ele>361</ele>
        <time>2016-10-01T15:01:29.000Z</time>
      </trkpt>
      <trkpt lat="47.4465" lon="6.79952">
        <ele>361</ele>
        <time>2016-10-01T15:01:30.000Z</time>
      </trkpt>
      <trkpt lat="47.44648" lon="6.79952">
        <ele>361</ele>
        <time>2016-10-01T15:01:31.000Z</time>
      </trkpt>
      <trkpt lat="47.44645" lon="6.79952">
        <ele>361</ele>
        <time>2016-10-01T15:01:32.000Z</time>
      </trkpt>
      <trkpt lat="47.44642" lon="6.79952">
        <ele>362</ele>
        <time>2016-10-01T15:01:33.000Z</time>
      </trkpt>
      <trkpt lat="47.44639" lon="6.79951">
        <ele>362</ele>
        <time>2016-10-01T15:01:34.000Z</time>
      </trkpt>
      <trkpt lat="47.44636" lon="6.7995">
        <ele>362</ele>
        <time>2016-10-01T15:01:35.000Z</time>
      </trkpt>
      <trkpt lat="47.44633" lon="6.7995">
        <ele>362</ele>
        <time>2016-10-01T15:01:36.000Z</time>
      </trkpt>
      <trkpt lat="47.4463" lon="6.79949">
        <ele>362</ele>
        <time>2016-10-01T15:01:37.000Z</time>
      </trkpt>
      <trkpt lat="47.44626" lon="6.79945">
        <ele>362</ele>
        <time>2016-10-01T15:01:38.000Z</time>
      </trkpt>
      <trkpt lat="47.44623" lon="6.79944">
        <ele>362</ele>
        <time>2016-10-01T15:01:39.000Z</time>
      </trkpt>
      <trkpt lat="47.44621" lon="6.79944">
        <ele>362</ele>
        <time>2016-10-01T15:01:40.000Z</time>
      </trkpt>
      <trkpt lat="47.44618" lon="6.79943">
        <ele>362</ele>
        <time>2016-10-01T15:01:41.000Z</time>
      </trkpt>
      <trkpt lat="47.44615" lon="6.79942">
        <ele>362</ele>
        <time>2016-10-01T15:01:42.000Z</time>
      </trkpt>
      <trkpt lat="47.44611" lon="6.79941">
        <ele>362</ele>
        <time>2016-10-01T15:01:43.000Z</time>
      </trkpt>
      <trkpt lat="47.44608" lon="6.79941">
        <ele>362</ele>
        <time>2016-10-01T15:01:44.000Z</time>
      </trkpt>
      <trkpt lat="47.44604" lon="6.7994">
        <ele>362</ele>
        <time>2016-10-01T15:01:45.000Z</time>
      </trkpt>
      <trkpt lat="47.446" lon="6.79939">
        <ele>362</ele>
        <time>2016-10-01T15:01:46.000Z</time>
      </trkpt>
      <trkpt lat="47.44596" lon="6.79937">
        <ele>362</ele>
        <time>2016-10-01T15:01:47.000Z</time>
      </trkpt>
      <trkpt lat="47.44592" lon="6.79936">
        <ele>362</ele>
        <time>2016-10-01T15:01:48.000Z</time>
      </trkpt>
      <trkpt lat="47.44588" lon="6.79936">
        <ele>362</ele>
        <time>2016-10-01T15:01:49.000Z</time>
      </trkpt>
      <trkpt lat="47.44585" lon="6.79935">
        <ele>362</ele>
        <time>2016-10-01T15:01:50.000Z</time>
      </trkpt>
      <trkpt lat="47.44582" lon="6.79935">
        <ele>364</ele>
        <time>2016-10-01T15:01:51.000Z</time>
      </trkpt>
      <trkpt lat="47.44579" lon="6.79935">
        <ele>364</ele>
        <time>2016-10-01T15:01:52.000Z</time>
      </trkpt>
      <trkpt lat="47.44573" lon="6.79932">
        <ele>364</ele>
        <time>2016-10-01T15:01:53.000Z</time>
      </trkpt>
      <trkpt lat="47.44569" lon="6.79929">
        <ele>364</ele>
        <time>2016-10-01T15:01:54.000Z</time>
      </trkpt>
      <trkpt lat="47.44565" lon="6.79928">
        <ele>364</ele>
        <time>2016-10-01T15:01:55.000Z</time>
      </trkpt>
      <trkpt lat="47.44562" lon="6.79925">
        <ele>364</ele>
        <time>2016-10-01T15:01:56.000Z</time>
      </trkpt>
      <trkpt lat="47.44556" lon="6.79924">
        <ele>364</ele>
        <time>2016-10-01T15:01:57.000Z</time>
      </trkpt>
      <trkpt lat="47.44552" lon="6.79922">
        <ele>364</ele>
        <time>2016-10-01T15:01:58.000Z</time>
      </trkpt>
      <trkpt lat="47.44549" lon="6.79921">
        <ele>364</ele>
        <time>2016-10-01T15:01:59.000Z</time>
      </trkpt>
      <trkpt lat="47.44545" lon="6.79919">
        <ele>364</ele>
        <time>2016-10-01T15:02:00.000Z</time>
      </trkpt>
      <trkpt lat="47.44541" lon="6.79917">
        <ele>364</ele>
        <time>2016-10-01T15:02:01.000Z</time>
      </trkpt>
      <trkpt lat="47.44538" lon="6.79915">
        <ele>365</ele>
        <time>2016-10-01T15:02:01.999Z</time>
      </trkpt>
      <trkpt lat="47.44535" lon="6.79916">
        <ele>365</ele>
        <time>2016-10-01T15:02:03.000Z</time>
      </trkpt>
      <trkpt lat="47.44532" lon="6.79915">
        <ele>365</ele>
        <time>2016-10-01T15:02:04.000Z</time>
      </trkpt>
      <trkpt lat="47.44526" lon="6.79913">
        <ele>365</ele>
        <time>2016-10-01T15:02:05.000Z</time>
      </trkpt>
      <trkpt lat="47.44521" lon="6.7991">
        <ele>365</ele>
        <time>2016-10-01T15:02:06.000Z</time>
      </trkpt>
      <trkpt lat="47.44518" lon="6.79908">
        <ele>365</ele>
        <time>2016-10-01T15:02:07.000Z</time>
      </trkpt>
      <trkpt lat="47.44515" lon="6.79907">
        <ele>366</ele>
        <time>2016-10-01T15:02:08.000Z</time>
      </trkpt>
      <trkpt lat="47.44513" lon="6.79907">
        <ele>366</ele>
        <time>2016-10-01T15:02:09.000Z</time>
      </trkpt>
      <trkpt lat="47.44509" lon="6.79906">
        <ele>366</ele>
        <time>2016-10-01T15:02:10.000Z</time>
      </trkpt>
      <trkpt lat="47.44506" lon="6.79906">
        <ele>366</ele>
        <time>2016-10-01T15:02:11.000Z</time>
      </trkpt>
      <trkpt lat="47.44504" lon="6.79906">
        <ele>366</ele>
        <time>2016-10-01T15:02:12.000Z</time>
      </trkpt>
      <trkpt lat="47.445" lon="6.79904">
        <ele>366</ele>
        <time>2016-10-01T15:02:13.000Z</time>
      </trkpt>
      <trkpt lat="47.44496" lon="6.79903">
        <ele>368</ele>
        <time>2016-10-01T15:02:14.001Z</time>
      </trkpt>
      <trkpt lat="47.44492" lon="6.79904">
        <ele>368</ele>
        <time>2016-10-01T15:02:16.000Z</time>
      </trkpt>
      <trkpt lat="47.4449" lon="6.79904">
        <ele>368</ele>
        <time>2016-10-01T15:02:17.000Z</time>
      </trkpt>
      <trkpt lat="47.44487" lon="6.79905">
        <ele>369</ele>
        <time>2016-10-01T15:02:19.000Z</time>
      </trkpt>
      <trkpt lat="47.44485" lon="6.79905">
        <ele>369</ele>
        <time>2016-10-01T15:02:20.000Z</time>
      </trkpt>
      <trkpt lat="47.44483" lon="6.79904">
        <ele>369</ele>
        <time>2016-10-01T15:02:21.000Z</time>
      </trkpt>
      <trkpt lat="47.4448" lon="6.79903">
        <ele>369</ele>
        <time>2016-10-01T15:02:22.000Z</time>
      </trkpt>
      <trkpt lat="47.44477" lon="6.79901">
        <ele>370</ele>
        <time>2016-10-01T15:02:23.000Z</time>
      </trkpt>
      <trkpt lat="47.44474" lon="6.79899">
        <ele>370</ele>
        <time>2016-10-01T15:02:24.000Z</time>
      </trkpt>
      <trkpt lat="47.44472" lon="6.79898">
        <ele>370</ele>
        <time>2016-10-01T15:02:25.000Z</time>
      </trkpt>
      <trkpt lat="47.4447" lon="6.79897">
        <ele>370</ele>
        <time>2016-10-01T15:02:26.000Z</time>
      </trkpt>
      <trkpt lat="47.44468" lon="6.79897">
        <ele>371</ele>
        <time>2016-10-01T15:02:27.000Z</time>
      </trkpt>
      <trkpt lat="47.44465" lon="6.79896">
        <ele>371</ele>
        <time>2016-10-01T15:02:28.000Z</time>
      </trkpt>
      <trkpt lat="47.44462" lon="6.79896">
        <ele>371</ele>
        <time>2016-10-01T15:02:29.000Z</time>
      </trkpt>
      <trkpt lat="47.4446" lon="6.79895">
        <ele>371</ele>
        <time>2016-10-01T15:02:30.000Z</time>
      </trkpt>
      <trkpt lat="47.44456" lon="6.79892">
        <ele>371</ele>
        <time>2016-10-01T15:02:32.000Z</time>
      </trkpt>
      <trkpt lat="47.44453" lon="6.79891">
        <ele>372</ele>
        <time>2016-10-01T15:02:33.000Z</time>
      </trkpt>
      <trkpt lat="47.44451" lon="6.7989">
        <ele>372</ele>
        <time>2016-10-01T15:02:34.000Z</time>
      </trkpt>
      <trkpt lat="47.44449" lon="6.79889">
        <ele>372</ele>
        <time>2016-10-01T15:02:35.000Z</time>
      </trkpt>
      <trkpt lat="47.44445" lon="6.79886">
        <ele>372</ele>
        <time>2016-10-01T15:02:37.000Z</time>
      </trkpt>
      <trkpt lat="47.44443" lon="6.79886">
        <ele>372</ele>
        <time>2016-10-01T15:02:38.000Z</time>
      </trkpt>
      <trkpt lat="47.44439" lon="6.79887">
        <ele>372</ele>
        <time>2016-10-01T15:02:42.000Z</time>
      </trkpt>
      <trkpt lat="47.44438" lon="6.79887">
        <ele>372</ele>
        <time>2016-10-01T15:02:43.000Z</time>
      </trkpt>
      <trkpt lat="47.44435" lon="6.79886">
        <ele>373</ele>
        <time>2016-10-01T15:02:46.000Z</time>
      </trkpt>
      <trkpt lat="47.44433" lon="6.79886">
        <ele>373</ele>
        <time>2016-10-01T15:02:47.000Z</time>
      </trkpt>
      <trkpt lat="47.44429" lon="6.79884">
        <ele>373</ele>
        <time>2016-10-01T15:02:49.000Z</time>
      </trkpt>
      <trkpt lat="47.44427" lon="6.79883">
        <ele>373</ele>
        <time>2016-10-01T15:02:50.000Z</time>
      </trkpt>
      <trkpt lat="47.44424" lon="6.79881">
        <ele>373</ele>
        <time>2016-10-01T15:02:51.000Z</time>
      </trkpt>
      <trkpt lat="47.44422" lon="6.7988">
        <ele>373</ele>
        <time>2016-10-01T15:02:52.000Z</time>
      </trkpt>
      <trkpt lat="47.44419" lon="6.79879">
        <ele>373</ele>
        <time>2016-10-01T15:02:53.000Z</time>
      </trkpt>
      <trkpt lat="47.44417" lon="6.79877">
        <ele>373</ele>
        <time>2016-10-01T15:02:54.000Z</time>
      </trkpt>
      <trkpt lat="47.44414" lon="6.79874">
        <ele>381</ele>
        <time>2016-10-01T15:02:56.000Z</time>
      </trkpt>
      <trkpt lat="47.44412" lon="6.79873">
        <ele>381</ele>
        <time>2016-10-01T15:02:57.000Z</time>
      </trkpt>
      <trkpt lat="47.44408" lon="6.79873">
        <ele>381</ele>
        <time>2016-10-01T15:02:59.000Z</time>
      </trkpt>
      <trkpt lat="47.44407" lon="6.79873">
        <ele>381</ele>
        <time>2016-10-01T15:03:00.000Z</time>
      </trkpt>
      <trkpt lat="47.44403" lon="6.79872">
        <ele>381</ele>
        <time>2016-10-01T15:03:02.000Z</time>
      </trkpt>
      <trkpt lat="47.44401" lon="6.79871">
        <ele>381</ele>
        <time>2016-10-01T15:03:03.000Z</time>
      </trkpt>
      <trkpt lat="47.44397" lon="6.79868">
        <ele>382</ele>
        <time>2016-10-01T15:03:05.000Z</time>
      </trkpt>
      <trkpt lat="47.44396" lon="6.79866">
        <ele>382</ele>
        <time>2016-10-01T15:03:06.000Z</time>
      </trkpt>
      <trkpt lat="47.44394" lon="6.79865">
        <ele>382</ele>
        <time>2016-10-01T15:03:07.000Z</time>
      </trkpt>
      <trkpt lat="47.44391" lon="6.79863">
        <ele>382</ele>
        <time>2016-10-01T15:03:08.001Z</time>
      </trkpt>
      <trkpt lat="47.44387" lon="6.79862">
        <ele>383</ele>
        <time>2016-10-01T15:03:10.000Z</time>
      </trkpt>
      <trkpt lat="47.44386" lon="6.79861">
        <ele>383</ele>
        <time>2016-10-01T15:03:11.000Z</time>
      </trkpt>
      <trkpt lat="47.44384" lon="6.79855">
        <ele>383</ele>
        <time>2016-10-01T15:03:14.000Z</time>
      </trkpt>
      <trkpt lat="47.44384" lon="6.79854">
        <ele>383</ele>
        <time>2016-10-01T15:03:15.000Z</time>
      </trkpt>
      <trkpt lat="47.44387" lon="6.7985">
        <ele>382</ele>
        <time>2016-10-01T15:03:21.000Z</time>
      </trkpt>
      <trkpt lat="47.44387" lon="6.7985">
        <ele>382</ele>
        <time>2016-10-01T15:03:22.000Z</time>
      </trkpt>
      <trkpt lat="47.44392" lon="6.79849">
        <ele>382</ele>
        <time>2016-10-01T15:03:32.000Z</time>
      </trkpt>
      <trkpt lat="47.44392" lon="6.79848">
        <ele>382</ele>
        <time>2016-10-01T15:03:33.000Z</time>
      </trkpt>
      <trkpt lat="47.44395" lon="6.79843">
        <ele>381</ele>
        <time>2016-10-01T15:03:36.000Z</time>
      </trkpt>
      <trkpt lat="47.44396" lon="6.7984">
        <ele>381</ele>
        <time>2016-10-01T15:03:37.000Z</time>
      </trkpt>
      <trkpt lat="47.44397" lon="6.79836">
        <ele>380</ele>
        <time>2016-10-01T15:03:38.000Z</time>
      </trkpt>
      <trkpt lat="47.44398" lon="6.79832">
        <ele>382</ele>
        <time>2016-10-01T15:03:39.000Z</time>
      </trkpt>
      <trkpt lat="47.44399" lon="6.79828">
        <ele>382</ele>
        <time>2016-10-01T15:03:40.000Z</time>
      </trkpt>
      <trkpt lat="47.44399" lon="6.79825">
        <ele>382</ele>
        <time>2016-10-01T15:03:41.000Z</time>
      </trkpt>
      <trkpt lat="47.44399" lon="6.79821">
        <ele>382</ele>
        <time>2016-10-01T15:03:42.000Z</time>
      </trkpt>
      <trkpt lat="47.44399" lon="6.79818">
        <ele>383</ele>
        <time>2016-10-01T15:03:43.000Z</time>
      </trkpt>
      <trkpt lat="47.44399" lon="6.79814">
        <ele>383</ele>
        <time>2016-10-01T15:03:44.000Z</time>
      </trkpt>
      <trkpt lat="47.44399" lon="6.7981">
        <ele>384</ele>
        <time>2016-10-01T15:03:45.000Z</time>
      </trkpt>
      <trkpt lat="47.444" lon="6.79806">
        <ele>384</ele>
        <time>2016-10-01T15:03:46.000Z</time>
      </trkpt>
      <trkpt lat="47.444" lon="6.79803">
        <ele>384</ele>
        <time>2016-10-01T15:03:47.000Z</time>
      </trkpt>
      <trkpt lat="47.444" lon="6.79797">
        <ele>385</ele>
        <time>2016-10-01T15:03:50.999Z</time>
      </trkpt>
      <trkpt lat="47.44398" lon="6.79794">
        <ele>385</ele>
        <time>2016-10-01T15:03:52.000Z</time>
      </trkpt>
      <trkpt lat="47.44396" lon="6.79789">
        <ele>385</ele>
        <time>2016-10-01T15:03:54.000Z</time>
      </trkpt>
      <trkpt lat="47.44394" lon="6.79788">
        <ele>386</ele>
        <time>2016-10-01T15:03:54.999Z</time>
      </trkpt>
      <trkpt lat="47.44393" lon="6.79784">
        <ele>386</ele>
        <time>2016-10-01T15:03:56.000Z</time>
      </trkpt>
      <trkpt lat="47.44392" lon="6.79782">
        <ele>386</ele>
        <time>2016-10-01T15:03:57.000Z</time>
      </trkpt>
      <trkpt lat="47.44389" lon="6.79778">
        <ele>386</ele>
        <time>2016-10-01T15:03:59.001Z</time>
      </trkpt>
      <trkpt lat="47.44388" lon="6.79774">
        <ele>386</ele>
        <time>2016-10-01T15:04:00.001Z</time>
      </trkpt>
      <trkpt lat="47.44385" lon="6.79769">
        <ele>387</ele>
        <time>2016-10-01T15:04:03.000Z</time>
      </trkpt>
      <trkpt lat="47.44384" lon="6.79769">
        <ele>387</ele>
        <time>2016-10-01T15:04:04.001Z</time>
      </trkpt>
      <trkpt lat="47.44382" lon="6.79774">
        <ele>387</ele>
        <time>2016-10-01T15:04:09.000Z</time>
      </trkpt>
      <trkpt lat="47.44381" lon="6.79774">
        <ele>387</ele>
        <time>2016-10-01T15:04:10.000Z</time>
      </trkpt>
      <trkpt lat="47.44377" lon="6.79775">
        <ele>388</ele>
        <time>2016-10-01T15:04:16.000Z</time>
      </trkpt>
      <trkpt lat="47.44376" lon="6.79776">
        <ele>388</ele>
        <time>2016-10-01T15:04:17.000Z</time>
      </trkpt>
      <trkpt lat="47.44375" lon="6.79782">
        <ele>388</ele>
        <time>2016-10-01T15:04:43.000Z</time>
      </trkpt>
      <trkpt lat="47.44376" lon="6.79783">
        <ele>388</ele>
        <time>2016-10-01T15:04:44.000Z</time>
      </trkpt>
      <trkpt lat="47.44372" lon="6.79786">
        <ele>388</ele>
        <time>2016-10-01T15:05:16.000Z</time>
      </trkpt>
      <trkpt lat="47.44371" lon="6.79786">
        <ele>388</ele>
        <time>2016-10-01T15:05:17.000Z</time>
      </trkpt>
      <trkpt lat="47.44369" lon="6.79788">
        <ele>389</ele>
        <time>2016-10-01T15:05:23.000Z</time>
      </trkpt>
      <trkpt lat="47.44367" lon="6.79789">
        <ele>389</ele>
        <time>2016-10-01T15:05:24.000Z</time>
      </trkpt>
      <trkpt lat="47.44364" lon="6.79791">
        <ele>389</ele>
        <time>2016-10-01T15:05:26.000Z</time>
      </trkpt>
      <trkpt lat="47.44363" lon="6.79792">
        <ele>389</ele>
        <time>2016-10-01T15:05:27.000Z</time>
      </trkpt>
      <trkpt lat="47.4436" lon="6.79794">
        <ele>390</ele>
        <time>2016-10-01T15:05:29.000Z</time>
      </trkpt>
      <trkpt lat="47.44358" lon="6.79794">
        <ele>390</ele>
        <time>2016-10-01T15:05:30.000Z</time>
      </trkpt>
      <trkpt lat="47.44354" lon="6.79796">
        <ele>390</ele>
        <time>2016-10-01T15:05:33.000Z</time>
      </trkpt>
      <trkpt lat="47.44353" lon="6.79797">
        <ele>390</ele>
        <time>2016-10-01T15:05:34.000Z</time>
      </trkpt>
      <trkpt lat="47.4435" lon="6.79802">
        <ele>390</ele>
        <time>2016-10-01T15:05:38.000Z</time>
      </trkpt>
      <trkpt lat="47.44349" lon="6.79804">
        <ele>390</ele>
        <time>2016-10-01T15:05:39.000Z</time>
      </trkpt>
      <trkpt lat="47.44346" lon="6.79807">
        <ele>391</ele>
        <time>2016-10-01T15:05:41.000Z</time>
      </trkpt>
      <trkpt lat="47.44344" lon="6.79809">
        <ele>391</ele>
        <time>2016-10-01T15:05:42.000Z</time>
      </trkpt>
      <trkpt lat="47.44341" lon="6.79813">
        <ele>391</ele>
        <time>2016-10-01T15:05:45.000Z</time>
      </trkpt>
      <trkpt lat="47.44339" lon="6.79814">
        <ele>391</ele>
        <time>2016-10-01T15:05:46.000Z</time>
      </trkpt>
      <trkpt lat="47.44336" lon="6.79817">
        <ele>392</ele>
        <time>2016-10-01T15:05:48.000Z</time>
      </trkpt>
      <trkpt lat="47.44335" lon="6.79818">
        <ele>392</ele>
        <time>2016-10-01T15:05:49.000Z</time>
      </trkpt>
      <trkpt lat="47.44331" lon="6.79821">
        <ele>401</ele>
        <time>2016-10-01T15:05:52.000Z</time>
      </trkpt>
      <trkpt lat="47.4433" lon="6.79821">
        <ele>401</ele>
        <time>2016-10-01T15:05:53.000Z</time>
      </trkpt>
      <trkpt lat="47.44326" lon="6.79824">
        <ele>401</ele>
        <time>2016-10-01T15:05:56.000Z</time>
      </trkpt>
      <trkpt lat="47.44325" lon="6.79825">
        <ele>401</ele>
        <time>2016-10-01T15:05:57.000Z</time>
      </trkpt>
      <trkpt lat="47.44321" lon="6.79829">
        <ele>401</ele>
        <time>2016-10-01T15:05:59.000Z</time>
      </trkpt>
      <trkpt lat="47.44319" lon="6.7983">
        <ele>402</ele>
        <time>2016-10-01T15:06:00.000Z</time>
      </trkpt>
      <trkpt lat="47.44316" lon="6.79834">
        <ele>400</ele>
        <time>2016-10-01T15:06:06.000Z</time>
      </trkpt>
      <trkpt lat="47.44315" lon="6.79836">
        <ele>400</ele>
        <time>2016-10-01T15:06:07.000Z</time>
      </trkpt>
      <trkpt lat="47.44314" lon="6.79843">
        <ele>401</ele>
        <time>2016-10-01T15:06:09.000Z</time>
      </trkpt>
      <trkpt lat="47.44314" lon="6.79846">
        <ele>401</ele>
        <time>2016-10-01T15:06:10.000Z</time>
      </trkpt>
      <trkpt lat="47.44314" lon="6.79849">
        <ele>401</ele>
        <time>2016-10-01T15:06:10.999Z</time>
      </trkpt>
      <trkpt lat="47.44312" lon="6.79854">
        <ele>402</ele>
        <time>2016-10-01T15:06:12.000Z</time>
      </trkpt>
      <trkpt lat="47.44309" lon="6.79857">
        <ele>402</ele>
        <time>2016-10-01T15:06:14.000Z</time>
      </trkpt>
      <trkpt lat="47.44307" lon="6.79857">
        <ele>402</ele>
        <time>2016-10-01T15:06:15.000Z</time>
      </trkpt>
      <trkpt lat="47.44304" lon="6.7986">
        <ele>403</ele>
        <time>2016-10-01T15:06:17.000Z</time>
      </trkpt>
      <trkpt lat="47.44303" lon="6.79861">
        <ele>403</ele>
        <time>2016-10-01T15:06:18.000Z</time>
      </trkpt>
      <trkpt lat="47.44299" lon="6.79864">
        <ele>404</ele>
        <time>2016-10-01T15:06:20.000Z</time>
      </trkpt>
      <trkpt lat="47.44297" lon="6.79864">
        <ele>404</ele>
        <time>2016-10-01T15:06:21.000Z</time>
      </trkpt>
      <trkpt lat="47.44294" lon="6.79868">
        <ele>404</ele>
        <time>2016-10-01T15:06:24.000Z</time>
      </trkpt>
      <trkpt lat="47.44293" lon="6.79869">
        <ele>404</ele>
        <time>2016-10-01T15:06:25.000Z</time>
      </trkpt>
      <trkpt lat="47.44289" lon="6.7987">
        <ele>405</ele>
        <time>2016-10-01T15:06:27.000Z</time>
      </trkpt>
      <trkpt lat="47.44286" lon="6.79871">
        <ele>405</ele>
        <time>2016-10-01T15:06:28.000Z</time>
      </trkpt>
      <trkpt lat="47.44283" lon="6.79871">
        <ele>406</ele>
        <time>2016-10-01T15:06:29.000Z</time>
      </trkpt>
      <trkpt lat="47.44279" lon="6.79872">
        <ele>406</ele>
        <time>2016-10-01T15:06:30.000Z</time>
      </trkpt>
      <trkpt lat="47.44276" lon="6.79873">
        <ele>407</ele>
        <time>2016-10-01T15:06:31.000Z</time>
      </trkpt>
      <trkpt lat="47.44274" lon="6.79873">
        <ele>407</ele>
        <time>2016-10-01T15:06:32.000Z</time>
      </trkpt>
      <trkpt lat="47.44271" lon="6.79877">
        <ele>407</ele>
        <time>2016-10-01T15:06:43.000Z</time>
      </trkpt>
      <trkpt lat="47.4427" lon="6.79878">
        <ele>407</ele>
        <time>2016-10-01T15:06:44.000Z</time>
      </trkpt>
      <trkpt lat="47.44266" lon="6.7988">
        <ele>407</ele>
        <time>2016-10-01T15:06:49.000Z</time>
      </trkpt>
      <trkpt lat="47.44265" lon="6.7988">
        <ele>407</ele>
        <time>2016-10-01T15:06:50.000Z</time>
      </trkpt>
      <trkpt lat="47.44262" lon="6.79882">
        <ele>408</ele>
        <time>2016-10-01T15:06:55.000Z</time>
      </trkpt>
      <trkpt lat="47.44261" lon="6.79883">
        <ele>408</ele>
        <time>2016-10-01T15:06:56.000Z</time>
      </trkpt>
      <trkpt lat="47.44258" lon="6.79884">
        <ele>408</ele>
        <time>2016-10-01T15:06:59.000Z</time>
      </trkpt>
      <trkpt lat="47.44257" lon="6.79885">
        <ele>408</ele>
        <time>2016-10-01T15:07:00.000Z</time>
      </trkpt>
      <trkpt lat="47.44254" lon="6.7989">
        <ele>408</ele>
        <time>2016-10-01T15:07:04.000Z</time>
      </trkpt>
      <trkpt lat="47.44253" lon="6.79891">
        <ele>408</ele>
        <time>2016-10-01T15:07:05.000Z</time>
      </trkpt>
      <trkpt lat="47.44249" lon="6.79893">
        <ele>419</ele>
        <time>2016-10-01T15:07:09.000Z</time>
      </trkpt>
      <trkpt lat="47.44248" lon="6.79893">
        <ele>419</ele>
        <time>2016-10-01T15:07:10.000Z</time>
      </trkpt>
      <trkpt lat="47.44244" lon="6.79895">
        <ele>419</ele>
        <time>2016-10-01T15:07:14.000Z</time>
      </trkpt>
      <trkpt lat="47.44243" lon="6.79896">
        <ele>419</ele>
        <time>2016-10-01T15:07:15.000Z</time>
      </trkpt>
      <trkpt lat="47.44239" lon="6.79899">
        <ele>419</ele>
        <time>2016-10-01T15:07:18.000Z</time>
      </trkpt>
      <trkpt lat="47.44238" lon="6.79899">
        <ele>419</ele>
        <time>2016-10-01T15:07:19.000Z</time>
      </trkpt>
      <trkpt lat="47.44234" lon="6.799">
        <ele>419</ele>
        <time>2016-10-01T15:07:22.000Z</time>
      </trkpt>
      <trkpt lat="47.44233" lon="6.79901">
        <ele>419</ele>
        <time>2016-10-01T15:07:23.000Z</time>
      </trkpt>
      <trkpt lat="47.4423" lon="6.79902">
        <ele>420</ele>
        <time>2016-10-01T15:07:25.000Z</time>
      </trkpt>
      <trkpt lat="47.44228" lon="6.79902">
        <ele>420</ele>
        <time>2016-10-01T15:07:26.000Z</time>
      </trkpt>
      <trkpt lat="47.44225" lon="6.79903">
        <ele>421</ele>
        <time>2016-10-01T15:07:30.000Z</time>
      </trkpt>
      <trkpt lat="47.44223" lon="6.79903">
        <ele>421</ele>
        <time>2016-10-01T15:07:31.000Z</time>
      </trkpt>
      <trkpt lat="47.4422" lon="6.79905">
        <ele>421</ele>
        <time>2016-10-01T15:07:34.000Z</time>
      </trkpt>
      <trkpt lat="47.44219" lon="6.79906">
        <ele>421</ele>
        <time>2016-10-01T15:07:35.000Z</time>
      </trkpt>
      <trkpt lat="47.44215" lon="6.79908">
        <ele>422</ele>
        <time>2016-10-01T15:07:38.000Z</time>
      </trkpt>
      <trkpt lat="47.44214" lon="6.79909">
        <ele>422</ele>
        <time>2016-10-01T15:07:39.000Z</time>
      </trkpt>
      <trkpt lat="47.4421" lon="6.79913">
        <ele>422</ele>
        <time>2016-10-01T15:07:43.000Z</time>
      </trkpt>
      <trkpt lat="47.44209" lon="6.79913">
        <ele>422</ele>
        <time>2016-10-01T15:07:44.000Z</time>
      </trkpt>
      <trkpt lat="47.44206" lon="6.79914">
        <ele>423</ele>
        <time>2016-10-01T15:07:46.000Z</time>
      </trkpt>
      <trkpt lat="47.44205" lon="6.79915">
        <ele>423</ele>
        <time>2016-10-01T15:07:47.000Z</time>
      </trkpt>
      <trkpt lat="47.442" lon="6.79916">
        <ele>424</ele>
        <time>2016-10-01T15:07:51.000Z</time>
      </trkpt>
      <trkpt lat="47.442" lon="6.79916">
        <ele>424</ele>
        <time>2016-10-01T15:07:52.000Z</time>
      </trkpt>
      <trkpt lat="47.44198" lon="6.7991">
        <ele>424</ele>
        <time>2016-10-01T15:08:07.000Z</time>
      </trkpt>
      <trkpt lat="47.44197" lon="6.7991">
        <ele>424</ele>
        <time>2016-10-01T15:08:08.000Z</time>
      </trkpt>
      <trkpt lat="47.44197" lon="6.79904">
        <ele>424</ele>
        <time>2016-10-01T15:08:15.000Z</time>
      </trkpt>
      <trkpt lat="47.44197" lon="6.79903">
        <ele>424</ele>
        <time>2016-10-01T15:08:16.000Z</time>
      </trkpt>
      <trkpt lat="47.44197" lon="6.79896">
        <ele>424</ele>
        <time>2016-10-01T15:08:20.000Z</time>
      </trkpt>
      <trkpt lat="47.44197" lon="6.79894">
        <ele>424</ele>
        <time>2016-10-01T15:08:21.000Z</time>
      </trkpt>
      <trkpt lat="47.44197" lon="6.79889">
        <ele>424</ele>
        <time>2016-10-01T15:08:24.000Z</time>
      </trkpt>
      <trkpt lat="47.44196" lon="6.79887">
        <ele>425</ele>
        <time>2016-10-01T15:08:25.000Z</time>
      </trkpt>
      <trkpt lat="47.44196" lon="6.7988">
        <ele>425</ele>
        <time>2016-10-01T15:08:27.000Z</time>
      </trkpt>
      <trkpt lat="47.44196" lon="6.79878">
        <ele>425</ele>
        <time>2016-10-01T15:08:28.000Z</time>
      </trkpt>
      <trkpt lat="47.44197" lon="6.79873">
        <ele>425</ele>
        <time>2016-10-01T15:08:31.000Z</time>
      </trkpt>
      <trkpt lat="47.44197" lon="6.79871">
        <ele>425</ele>
        <time>2016-10-01T15:08:32.000Z</time>
      </trkpt>
      <trkpt lat="47.44197" lon="6.79867">
        <ele>425</ele>
        <time>2016-10-01T15:08:34.000Z</time>
      </trkpt>
      <trkpt lat="47.44196" lon="6.79864">
        <ele>426</ele>
        <time>2016-10-01T15:08:35.000Z</time>
      </trkpt>
      <trkpt lat="47.44194" lon="6.79859">
        <ele>426</ele>
        <time>2016-10-01T15:08:38.000Z</time>
      </trkpt>
      <trkpt lat="47.44193" lon="6.79856">
        <ele>426</ele>
        <time>2016-10-01T15:08:39.000Z</time>
      </trkpt>
      <trkpt lat="47.44192" lon="6.7985">
        <ele>427</ele>
        <time>2016-10-01T15:08:42.000Z</time>
      </trkpt>
      <trkpt lat="47.44192" lon="6.79848">
        <ele>427</ele>
        <time>2016-10-01T15:08:43.000Z</time>
      </trkpt>
      <trkpt lat="47.44191" lon="6.79843">
        <ele>428</ele>
        <time>2016-10-01T15:08:45.000Z</time>
      </trkpt>
      <trkpt lat="47.44191" lon="6.79841">
        <ele>428</ele>
        <time>2016-10-01T15:08:46.000Z</time>
      </trkpt>
      <trkpt lat="47.4419" lon="6.79835">
        <ele>428</ele>
        <time>2016-10-01T15:08:49.000Z</time>
      </trkpt>
      <trkpt lat="47.4419" lon="6.79834">
        <ele>428</ele>
        <time>2016-10-01T15:08:50.000Z</time>
      </trkpt>
      <trkpt lat="47.44189" lon="6.79829">
        <ele>432</ele>
        <time>2016-10-01T15:08:53.000Z</time>
      </trkpt>
      <trkpt lat="47.44189" lon="6.79826">
        <ele>432</ele>
        <time>2016-10-01T15:08:54.000Z</time>
      </trkpt>
      <trkpt lat="47.44188" lon="6.7982">
        <ele>432</ele>
        <time>2016-10-01T15:08:56.000Z</time>
      </trkpt>
      <trkpt lat="47.44188" lon="6.79817">
        <ele>432</ele>
        <time>2016-10-01T15:08:57.000Z</time>
      </trkpt>
      <trkpt lat="47.44188" lon="6.79811">
        <ele>432</ele>
        <time>2016-10-01T15:08:59.000Z</time>
      </trkpt>
      <trkpt lat="47.44187" lon="6.79809">
        <ele>432</ele>
        <time>2016-10-01T15:09:00.000Z</time>
      </trkpt>
      <trkpt lat="47.44187" lon="6.79803">
        <ele>432</ele>
        <time>2016-10-01T15:09:03.000Z</time>
      </trkpt>
      <trkpt lat="47.44187" lon="6.79801">
        <ele>432</ele>
        <time>2016-10-01T15:09:04.000Z</time>
      </trkpt>
      <trkpt lat="47.44188" lon="6.79796">
        <ele>432</ele>
        <time>2016-10-01T15:09:06.000Z</time>
      </trkpt>
      <trkpt lat="47.44188" lon="6.79794">
        <ele>432</ele>
        <time>2016-10-01T15:09:07.000Z</time>
      </trkpt>
      <trkpt lat="47.44188" lon="6.79789">
        <ele>432</ele>
        <time>2016-10-01T15:09:09.000Z</time>
      </trkpt>
      <trkpt lat="47.44188" lon="6.79787">
        <ele>432</ele>
        <time>2016-10-01T15:09:10.000Z</time>
      </trkpt>
      <trkpt lat="47.44188" lon="6.7978">
        <ele>432</ele>
        <time>2016-10-01T15:09:13.000Z</time>
      </trkpt>
      <trkpt lat="47.44188" lon="6.79778">
        <ele>432</ele>
        <time>2016-10-01T15:09:14.000Z</time>
      </trkpt>
      <trkpt lat="47.44189" lon="6.79773">
        <ele>433</ele>
        <time>2016-10-01T15:09:16.000Z</time>
      </trkpt>
      <trkpt lat="47.44189" lon="6.79769">
        <ele>433</ele>
        <time>2016-10-01T15:09:17.000Z</time>
      </trkpt>
      <trkpt lat="47.4419" lon="6.79765">
        <ele>433</ele>
        <time>2016-10-01T15:09:18.000Z</time>
      </trkpt>
      <trkpt lat="47.4419" lon="6.79761">
        <ele>433</ele>
        <time>2016-10-01T15:09:19.000Z</time>
      </trkpt>
      <trkpt lat="47.4419" lon="6.79755">
        <ele>434</ele>
        <time>2016-10-01T15:09:21.000Z</time>
      </trkpt>
      <trkpt lat="47.4419" lon="6.79752">
        <ele>434</ele>
        <time>2016-10-01T15:09:22.000Z</time>
      </trkpt>
      <trkpt lat="47.44191" lon="6.79747">
        <ele>436</ele>
        <time>2016-10-01T15:09:24.000Z</time>
      </trkpt>
      <trkpt lat="47.44191" lon="6.79744">
        <ele>436</ele>
        <time>2016-10-01T15:09:25.000Z</time>
      </trkpt>
      <trkpt lat="47.44192" lon="6.79738">
        <ele>435</ele>
        <time>2016-10-01T15:09:27.000Z</time>
      </trkpt>
      <trkpt lat="47.44192" lon="6.79736">
        <ele>435</ele>
        <time>2016-10-01T15:09:28.000Z</time>
      </trkpt>
      <trkpt lat="47.44192" lon="6.79731">
        <ele>435</ele>
        <time>2016-10-01T15:09:30.000Z</time>
      </trkpt>
      <trkpt lat="47.44192" lon="6.79728">
        <ele>435</ele>
        <time>2016-10-01T15:09:31.000Z</time>
      </trkpt>
      <trkpt lat="47.44192" lon="6.79725">
        <ele>435</ele>
        <time>2016-10-01T15:09:32.000Z</time>
      </trkpt>
      <trkpt lat="47.44193" lon="6.79721">
        <ele>435</ele>
        <time>2016-10-01T15:09:33.000Z</time>
      </trkpt>
      <trkpt lat="47.44193" lon="6.79717">
        <ele>435</ele>
        <time>2016-10-01T15:09:34.000Z</time>
      </trkpt>
      <trkpt lat="47.44193" lon="6.79714">
        <ele>435</ele>
        <time>2016-10-01T15:09:35.000Z</time>
      </trkpt>
      <trkpt lat="47.44193" lon="6.7971">
        <ele>435</ele>
        <time>2016-10-01T15:09:36.000Z</time>
      </trkpt>
      <trkpt lat="47.44193" lon="6.79706">
        <ele>435</ele>
        <time>2016-10-01T15:09:37.000Z</time>
      </trkpt>
      <trkpt lat="47.44193" lon="6.79702">
        <ele>435</ele>
        <time>2016-10-01T15:09:38.000Z</time>
      </trkpt>
      <trkpt lat="47.44193" lon="6.79698">
        <ele>435</ele>
        <time>2016-10-01T15:09:39.000Z</time>
      </trkpt>
      <trkpt lat="47.44194" lon="6.79695">
        <ele>436</ele>
        <time>2016-10-01T15:09:40.000Z</time>
      </trkpt>
      <trkpt lat="47.44194" lon="6.79691">
        <ele>436</ele>
        <time>2016-10-01T15:09:41.000Z</time>
      </trkpt>
      <trkpt lat="47.44194" lon="6.79687">
        <ele>436</ele>
        <time>2016-10-01T15:09:42.000Z</time>
      </trkpt>
      <trkpt lat="47.44193" lon="6.79683">
        <ele>436</ele>
        <time>2016-10-01T15:09:43.000Z</time>
      </trkpt>
      <trkpt lat="47.44192" lon="6.79677">
        <ele>437</ele>
        <time>2016-10-01T15:09:45.000Z</time>
      </trkpt>
      <trkpt lat="47.44191" lon="6.79675">
        <ele>437</ele>
        <time>2016-10-01T15:09:46.000Z</time>
      </trkpt>
      <trkpt lat="47.44188" lon="6.79671">
        <ele>437</ele>
        <time>2016-10-01T15:09:48.000Z</time>
      </trkpt>
      <trkpt lat="47.44186" lon="6.7967">
        <ele>438</ele>
        <time>2016-10-01T15:09:49.000Z</time>
      </trkpt>
      <trkpt lat="47.44183" lon="6.79667">
        <ele>438</ele>
        <time>2016-10-01T15:09:51.000Z</time>
      </trkpt>
      <trkpt lat="47.44182" lon="6.79666">
        <ele>439</ele>
        <time>2016-10-01T15:09:52.000Z</time>
      </trkpt>
      <trkpt lat="47.44179" lon="6.79662">
        <ele>440</ele>
        <time>2016-10-01T15:09:56.000Z</time>
      </trkpt>
      <trkpt lat="47.44178" lon="6.7966">
        <ele>440</ele>
        <time>2016-10-01T15:09:57.000Z</time>
      </trkpt>
      <trkpt lat="47.44175" lon="6.79657">
        <ele>440</ele>
        <time>2016-10-01T15:10:00.000Z</time>
      </trkpt>
      <trkpt lat="47.44174" lon="6.79656">
        <ele>440</ele>
        <time>2016-10-01T15:10:01.000Z</time>
      </trkpt>
      <trkpt lat="47.44171" lon="6.79653">
        <ele>440</ele>
        <time>2016-10-01T15:10:06.000Z</time>
      </trkpt>
      <trkpt lat="47.4417" lon="6.79651">
        <ele>440</ele>
        <time>2016-10-01T15:10:07.000Z</time>
      </trkpt>
      <trkpt lat="47.44168" lon="6.79648">
        <ele>439</ele>
        <time>2016-10-01T15:10:09.000Z</time>
      </trkpt>
      <trkpt lat="47.44166" lon="6.79646">
        <ele>445</ele>
        <time>2016-10-01T15:10:10.000Z</time>
      </trkpt>
      <trkpt lat="47.44164" lon="6.79643">
        <ele>445</ele>
        <time>2016-10-01T15:10:12.000Z</time>
      </trkpt>
      <trkpt lat="47.44163" lon="6.79641">
        <ele>445</ele>
        <time>2016-10-01T15:10:13.000Z</time>
      </trkpt>
      <trkpt lat="47.4416" lon="6.79638">
        <ele>446</ele>
        <time>2016-10-01T15:10:17.000Z</time>
      </trkpt>
      <trkpt lat="47.44159" lon="6.79638">
        <ele>446</ele>
        <time>2016-10-01T15:10:18.000Z</time>
      </trkpt>
      <trkpt lat="47.44157" lon="6.79633">
        <ele>446</ele>
        <time>2016-10-01T15:10:21.000Z</time>
      </trkpt>
      <trkpt lat="47.44156" lon="6.79631">
        <ele>446</ele>
        <time>2016-10-01T15:10:22.000Z</time>
      </trkpt>
      <trkpt lat="47.44152" lon="6.7963">
        <ele>446</ele>
        <time>2016-10-01T15:10:24.000Z</time>
      </trkpt>
      <trkpt lat="47.44151" lon="6.79629">
        <ele>446</ele>
        <time>2016-10-01T15:10:25.000Z</time>
      </trkpt>
      <trkpt lat="47.44148" lon="6.79626">
        <ele>446</ele>
        <time>2016-10-01T15:10:32.000Z</time>
      </trkpt>
      <trkpt lat="47.44147" lon="6.79625">
        <ele>446</ele>
        <time>2016-10-01T15:10:33.000Z</time>
      </trkpt>
      <trkpt lat="47.44144" lon="6.79622">
        <ele>446</ele>
        <time>2016-10-01T15:10:36.000Z</time>
      </trkpt>
      <trkpt lat="47.44143" lon="6.7962">
        <ele>446</ele>
        <time>2016-10-01T15:10:37.000Z</time>
      </trkpt>
      <trkpt lat="47.44139" lon="6.79618">
        <ele>447</ele>
        <time>2016-10-01T15:10:39.000Z</time>
      </trkpt>
      <trkpt lat="47.44136" lon="6.79616">
        <ele>447</ele>
        <time>2016-10-01T15:10:40.000Z</time>
      </trkpt>
      <trkpt lat="47.44134" lon="6.79615">
        <ele>447</ele>
        <time>2016-10-01T15:10:41.000Z</time>
      </trkpt>
      <trkpt lat="47.44132" lon="6.79614">
        <ele>447</ele>
        <time>2016-10-01T15:10:42.000Z</time>
      </trkpt>
      <trkpt lat="47.44127" lon="6.79612">
        <ele>447</ele>
        <time>2016-10-01T15:10:44.000Z</time>
      </trkpt>
      <trkpt lat="47.44125" lon="6.79611">
        <ele>447</ele>
        <time>2016-10-01T15:10:45.000Z</time>
      </trkpt>
      <trkpt lat="47.44121" lon="6.79609">
        <ele>448</ele>
        <time>2016-10-01T15:10:47.000Z</time>
      </trkpt>
      <trkpt lat="47.44119" lon="6.79608">
        <ele>448</ele>
        <time>2016-10-01T15:10:48.000Z</time>
      </trkpt>
      <trkpt lat="47.44116" lon="6.79607">
        <ele>448</ele>
        <time>2016-10-01T15:10:49.000Z</time>
      </trkpt>
      <trkpt lat="47.44114" lon="6.79606">
        <ele>448</ele>
        <time>2016-10-01T15:10:50.000Z</time>
      </trkpt>
      <trkpt lat="47.44109" lon="6.79605">
        <ele>448</ele>
        <time>2016-10-01T15:10:52.000Z</time>
      </trkpt>
      <trkpt lat="47.44108" lon="6.79604">
        <ele>449</ele>
        <time>2016-10-01T15:10:53.000Z</time>
      </trkpt>
      <trkpt lat="47.44104" lon="6.79602">
        <ele>449</ele>
        <time>2016-10-01T15:10:55.000Z</time>
      </trkpt>
      <trkpt lat="47.44102" lon="6.79601">
        <ele>449</ele>
        <time>2016-10-01T15:10:56.000Z</time>
      </trkpt>
      <trkpt lat="47.44099" lon="6.796">
        <ele>449</ele>
        <time>2016-10-01T15:10:57.000Z</time>
      </trkpt>
      <trkpt lat="47.44097" lon="6.79599">
        <ele>450</ele>
        <time>2016-10-01T15:10:58.000Z</time>
      </trkpt>
      <trkpt lat="47.44094" lon="6.79598">
        <ele>450</ele>
        <time>2016-10-01T15:10:59.000Z</time>
      </trkpt>
      <trkpt lat="47.44092" lon="6.79598">
        <ele>450</ele>
        <time>2016-10-01T15:11:00.000Z</time>
      </trkpt>
      <trkpt lat="47.44089" lon="6.79597">
        <ele>450</ele>
        <time>2016-10-01T15:11:01.000Z</time>
      </trkpt>
      <trkpt lat="47.44087" lon="6.79596">
        <ele>450</ele>
        <time>2016-10-01T15:11:02.000Z</time>
      </trkpt>
      <trkpt lat="47.44085" lon="6.79595">
        <ele>450</ele>
        <time>2016-10-01T15:11:03.000Z</time>
      </trkpt>
      <trkpt lat="47.44082" lon="6.79592">
        <ele>453</ele>
        <time>2016-10-01T15:11:04.000Z</time>
      </trkpt>
      <trkpt lat="47.4408" lon="6.7959">
        <ele>453</ele>
        <time>2016-10-01T15:11:05.000Z</time>
      </trkpt>
      <trkpt lat="47.44078" lon="6.79588">
        <ele>453</ele>
        <time>2016-10-01T15:11:06.000Z</time>
      </trkpt>
      <trkpt lat="47.44075" lon="6.79586">
        <ele>453</ele>
        <time>2016-10-01T15:11:07.000Z</time>
      </trkpt>
      <trkpt lat="47.44072" lon="6.79585">
        <ele>453</ele>
        <time>2016-10-01T15:11:08.000Z</time>
      </trkpt>
      <trkpt lat="47.4407" lon="6.79584">
        <ele>453</ele>
        <time>2016-10-01T15:11:09.000Z</time>
      </trkpt>
      <trkpt lat="47.44067" lon="6.79584">
        <ele>453</ele>
        <time>2016-10-01T15:11:10.000Z</time>
      </trkpt>
      <trkpt lat="47.44064" lon="6.79583">
        <ele>453</ele>
        <time>2016-10-01T15:11:11.000Z</time>
      </trkpt>
      <trkpt lat="47.44062" lon="6.79582">
        <ele>453</ele>
        <time>2016-10-01T15:11:12.000Z</time>
      </trkpt>
      <trkpt lat="47.44059" lon="6.7958">
        <ele>454</ele>
        <time>2016-10-01T15:11:13.000Z</time>
      </trkpt>
      <trkpt lat="47.44057" lon="6.79579">
        <ele>454</ele>
        <time>2016-10-01T15:11:14.000Z</time>
      </trkpt>
      <trkpt lat="47.44053" lon="6.79578">
        <ele>454</ele>
        <time>2016-10-01T15:11:16.000Z</time>
      </trkpt>
      <trkpt lat="47.44051" lon="6.79577">
        <ele>454</ele>
        <time>2016-10-01T15:11:17.000Z</time>
      </trkpt>
      <trkpt lat="47.44047" lon="6.79578">
        <ele>454</ele>
        <time>2016-10-01T15:11:19.000Z</time>
      </trkpt>
      <trkpt lat="47.44044" lon="6.79578">
        <ele>454</ele>
        <time>2016-10-01T15:11:20.000Z</time>
      </trkpt>
      <trkpt lat="47.44042" lon="6.79577">
        <ele>454</ele>
        <time>2016-10-01T15:11:21.000Z</time>
      </trkpt>
      <trkpt lat="47.4404" lon="6.79576">
        <ele>454</ele>
        <time>2016-10-01T15:11:22.000Z</time>
      </trkpt>
      <trkpt lat="47.44036" lon="6.79575">
        <ele>455</ele>
        <time>2016-10-01T15:11:24.000Z</time>
      </trkpt>
      <trkpt lat="47.44034" lon="6.79575">
        <ele>455</ele>
        <time>2016-10-01T15:11:25.000Z</time>
      </trkpt>
      <trkpt lat="47.4403" lon="6.79574">
        <ele>455</ele>
        <time>2016-10-01T15:11:27.000Z</time>
      </trkpt>
      <trkpt lat="47.44028" lon="6.79574">
        <ele>455</ele>
        <time>2016-10-01T15:11:28.000Z</time>
      </trkpt>
      <trkpt lat="47.44024" lon="6.79573">
        <ele>455</ele>
        <time>2016-10-01T15:11:30.000Z</time>
      </trkpt>
      <trkpt lat="47.44022" lon="6.79573">
        <ele>455</ele>
        <time>2016-10-01T15:11:31.000Z</time>
      </trkpt>
      <trkpt lat="47.44018" lon="6.79571">
        <ele>455</ele>
        <time>2016-10-01T15:11:34.000Z</time>
      </trkpt>
      <trkpt lat="47.44016" lon="6.7957">
        <ele>455</ele>
        <time>2016-10-01T15:11:35.000Z</time>
      </trkpt>
      <trkpt lat="47.44012" lon="6.79569">
        <ele>455</ele>
        <time>2016-10-01T15:11:37.000Z</time>
      </trkpt>
      <trkpt lat="47.4401" lon="6.79569">
        <ele>455</ele>
        <time>2016-10-01T15:11:38.000Z</time>
      </trkpt>
      <trkpt lat="47.44007" lon="6.79569">
        <ele>455</ele>
        <time>2016-10-01T15:11:39.000Z</time>
      </trkpt>
      <trkpt lat="47.44004" lon="6.79569">
        <ele>455</ele>
        <time>2016-10-01T15:11:40.000Z</time>
      </trkpt>
      <trkpt lat="47.44002" lon="6.79569">
        <ele>455</ele>
        <time>2016-10-01T15:11:41.000Z</time>
      </trkpt>
      <trkpt lat="47.43999" lon="6.79568">
        <ele>458</ele>
        <time>2016-10-01T15:11:42.000Z</time>
      </trkpt>
      <trkpt lat="47.43996" lon="6.79568">
        <ele>458</ele>
        <time>2016-10-01T15:11:43.000Z</time>
      </trkpt>
      <trkpt lat="47.43994" lon="6.79568">
        <ele>458</ele>
        <time>2016-10-01T15:11:44.000Z</time>
      </trkpt>
      <trkpt lat="47.43991" lon="6.79569">
        <ele>458</ele>
        <time>2016-10-01T15:11:45.000Z</time>
      </trkpt>
      <trkpt lat="47.43988" lon="6.79569">
        <ele>458</ele>
        <time>2016-10-01T15:11:46.000Z</time>
      </trkpt>
      <trkpt lat="47.43986" lon="6.7957">
        <ele>458</ele>
        <time>2016-10-01T15:11:47.000Z</time>
      </trkpt>
      <trkpt lat="47.43984" lon="6.79571">
        <ele>458</ele>
        <time>2016-10-01T15:11:48.000Z</time>
      </trkpt>
      <trkpt lat="47.43982" lon="6.79572">
        <ele>458</ele>
        <time>2016-10-01T15:11:49.000Z</time>
      </trkpt>
      <trkpt lat="47.4398" lon="6.79574">
        <ele>458</ele>
        <time>2016-10-01T15:11:50.000Z</time>
      </trkpt>
      <trkpt lat="47.43977" lon="6.79575">
        <ele>459</ele>
        <time>2016-10-01T15:11:51.000Z</time>
      </trkpt>
      <trkpt lat="47.43975" lon="6.79576">
        <ele>459</ele>
        <time>2016-10-01T15:11:52.000Z</time>
      </trkpt>
      <trkpt lat="47.43972" lon="6.79577">
        <ele>459</ele>
        <time>2016-10-01T15:11:53.000Z</time>
      </trkpt>
      <trkpt lat="47.43969" lon="6.79579">
        <ele>459</ele>
        <time>2016-10-01T15:11:54.000Z</time>
      </trkpt>
      <trkpt lat="47.43967" lon="6.79581">
        <ele>459</ele>
        <time>2016-10-01T15:11:55.000Z</time>
      </trkpt>
      <trkpt lat="47.43965" lon="6.79582">
        <ele>459</ele>
        <time>2016-10-01T15:11:56.000Z</time>
      </trkpt>
      <trkpt lat="47.43961" lon="6.79583">
        <ele>459</ele>
        <time>2016-10-01T15:11:59.000Z</time>
      </trkpt>
      <trkpt lat="47.43959" lon="6.79582">
        <ele>460</ele>
        <time>2016-10-01T15:12:00.000Z</time>
      </trkpt>
      <trkpt lat="47.43955" lon="6.79582">
        <ele>460</ele>
        <time>2016-10-01T15:12:02.000Z</time>
      </trkpt>
      <trkpt lat="47.43952" lon="6.79582">
        <ele>460</ele>
        <time>2016-10-01T15:12:03.000Z</time>
      </trkpt>
      <trkpt lat="47.43948" lon="6.79581">
        <ele>460</ele>
        <time>2016-10-01T15:12:05.000Z</time>
      </trkpt>
      <trkpt lat="47.43946" lon="6.79581">
        <ele>460</ele>
        <time>2016-10-01T15:12:06.000Z</time>
      </trkpt>
      <trkpt lat="47.43943" lon="6.79581">
        <ele>460</ele>
        <time>2016-10-01T15:12:08.000Z</time>
      </trkpt>
      <trkpt lat="47.43941" lon="6.79581">
        <ele>461</ele>
        <time>2016-10-01T15:12:09.000Z</time>
      </trkpt>
      <trkpt lat="47.43937" lon="6.7958">
        <ele>461</ele>
        <time>2016-10-01T15:12:11.000Z</time>
      </trkpt>
      <trkpt lat="47.43935" lon="6.79579">
        <ele>461</ele>
        <time>2016-10-01T15:12:12.000Z</time>
      </trkpt>
      <trkpt lat="47.43932" lon="6.79578">
        <ele>461</ele>
        <time>2016-10-01T15:12:13.000Z</time>
      </trkpt>
      <trkpt lat="47.4393" lon="6.79577">
        <ele>461</ele>
        <time>2016-10-01T15:12:14.000Z</time>
      </trkpt>
      <trkpt lat="47.43926" lon="6.79575">
        <ele>461</ele>
        <time>2016-10-01T15:12:18.000Z</time>
      </trkpt>
      <trkpt lat="47.43926" lon="6.79575">
        <ele>461</ele>
        <time>2016-10-01T15:12:19.000Z</time>
      </trkpt>
      <trkpt lat="47.43923" lon="6.7957">
        <ele>461</ele>
        <time>2016-10-01T15:12:22.000Z</time>
      </trkpt>
      <trkpt lat="47.43921" lon="6.79568">
        <ele>461</ele>
        <time>2016-10-01T15:12:23.000Z</time>
      </trkpt>
      <trkpt lat="47.43919" lon="6.79565">
        <ele>461</ele>
        <time>2016-10-01T15:12:24.000Z</time>
      </trkpt>
      <trkpt lat="47.43916" lon="6.79563">
        <ele>464</ele>
        <time>2016-10-01T15:12:25.000Z</time>
      </trkpt>
      <trkpt lat="47.43913" lon="6.79561">
        <ele>464</ele>
        <time>2016-10-01T15:12:26.000Z</time>
      </trkpt>
      <trkpt lat="47.4391" lon="6.79558">
        <ele>464</ele>
        <time>2016-10-01T15:12:27.000Z</time>
      </trkpt>
      <trkpt lat="47.43906" lon="6.79555">
        <ele>464</ele>
        <time>2016-10-01T15:12:28.000Z</time>
      </trkpt>
      <trkpt lat="47.43903" lon="6.79553">
        <ele>465</ele>
        <time>2016-10-01T15:12:29.000Z</time>
      </trkpt>
      <trkpt lat="47.439" lon="6.7955">
        <ele>465</ele>
        <time>2016-10-01T15:12:30.000Z</time>
      </trkpt>
      <trkpt lat="47.43897" lon="6.79547">
        <ele>465</ele>
        <time>2016-10-01T15:12:31.000Z</time>
      </trkpt>
      <trkpt lat="47.43894" lon="6.79544">
        <ele>465</ele>
        <time>2016-10-01T15:12:32.000Z</time>
      </trkpt>
      <trkpt lat="47.43892" lon="6.79542">
        <ele>465</ele>
        <time>2016-10-01T15:12:33.000Z</time>
      </trkpt>
      <trkpt lat="47.43889" lon="6.79541">
        <ele>465</ele>
        <time>2016-10-01T15:12:34.000Z</time>
      </trkpt>
      <trkpt lat="47.43887" lon="6.79539">
        <ele>465</ele>
        <time>2016-10-01T15:12:35.000Z</time>
      </trkpt>
      <trkpt lat="47.43884" lon="6.79538">
        <ele>465</ele>
        <time>2016-10-01T15:12:36.000Z</time>
      </trkpt>
      <trkpt lat="47.43881" lon="6.79537">
        <ele>465</ele>
        <time>2016-10-01T15:12:37.000Z</time>
      </trkpt>
      <trkpt lat="47.43879" lon="6.79535">
        <ele>465</ele>
        <time>2016-10-01T15:12:38.000Z</time>
      </trkpt>
      <trkpt lat="47.43876" lon="6.79533">
        <ele>466</ele>
        <time>2016-10-01T15:12:39.000Z</time>
      </trkpt>
      <trkpt lat="47.43874" lon="6.79532">
        <ele>466</ele>
        <time>2016-10-01T15:12:40.000Z</time>
      </trkpt>
      <trkpt lat="47.43871" lon="6.79531">
        <ele>466</ele>
        <time>2016-10-01T15:12:41.000Z</time>
      </trkpt>
      <trkpt lat="47.43868" lon="6.79531">
        <ele>466</ele>
        <time>2016-10-01T15:12:42.000Z</time>
      </trkpt>
      <trkpt lat="47.43865" lon="6.79531">
        <ele>466</ele>
        <time>2016-10-01T15:12:43.000Z</time>
      </trkpt>
      <trkpt lat="47.43863" lon="6.79532">
        <ele>466</ele>
        <time>2016-10-01T15:12:44.000Z</time>
      </trkpt>
      <trkpt lat="47.4386" lon="6.79533">
        <ele>466</ele>
        <time>2016-10-01T15:12:45.000Z</time>
      </trkpt>
      <trkpt lat="47.43857" lon="6.79534">
        <ele>466</ele>
        <time>2016-10-01T15:12:46.000Z</time>
      </trkpt>
      <trkpt lat="47.43855" lon="6.79535">
        <ele>466</ele>
        <time>2016-10-01T15:12:47.000Z</time>
      </trkpt>
      <trkpt lat="47.43853" lon="6.79536">
        <ele>466</ele>
        <time>2016-10-01T15:12:48.000Z</time>
      </trkpt>
      <trkpt lat="47.4385" lon="6.79536">
        <ele>466</ele>
        <time>2016-10-01T15:12:49.000Z</time>
      </trkpt>
      <trkpt lat="47.43848" lon="6.79537">
        <ele>466</ele>
        <time>2016-10-01T15:12:50.000Z</time>
      </trkpt>
      <trkpt lat="47.43845" lon="6.79537">
        <ele>466</ele>
        <time>2016-10-01T15:12:51.000Z</time>
      </trkpt>
      <trkpt lat="47.43841" lon="6.79538">
        <ele>466</ele>
        <time>2016-10-01T15:12:53.000Z</time>
      </trkpt>
      <trkpt lat="47.43839" lon="6.79539">
        <ele>466</ele>
        <time>2016-10-01T15:12:54.000Z</time>
      </trkpt>
      <trkpt lat="47.43835" lon="6.79539">
        <ele>466</ele>
        <time>2016-10-01T15:12:57.000Z</time>
      </trkpt>
      <trkpt lat="47.43833" lon="6.79538">
        <ele>470</ele>
        <time>2016-10-01T15:12:58.000Z</time>
      </trkpt>
      <trkpt lat="47.4383" lon="6.79538">
        <ele>470</ele>
        <time>2016-10-01T15:12:59.000Z</time>
      </trkpt>
      <trkpt lat="47.43828" lon="6.79538">
        <ele>470</ele>
        <time>2016-10-01T15:13:00.000Z</time>
      </trkpt>
      <trkpt lat="47.43824" lon="6.7954">
        <ele>470</ele>
        <time>2016-10-01T15:13:02.000Z</time>
      </trkpt>
      <trkpt lat="47.43822" lon="6.7954">
        <ele>470</ele>
        <time>2016-10-01T15:13:03.000Z</time>
      </trkpt>
      <trkpt lat="47.43819" lon="6.79541">
        <ele>470</ele>
        <time>2016-10-01T15:13:05.000Z</time>
      </trkpt>
      <trkpt lat="47.43817" lon="6.79541">
        <ele>470</ele>
        <time>2016-10-01T15:13:06.000Z</time>
      </trkpt>
      <trkpt lat="47.43813" lon="6.79539">
        <ele>470</ele>
        <time>2016-10-01T15:13:09.000Z</time>
      </trkpt>
      <trkpt lat="47.43813" lon="6.79537">
        <ele>470</ele>
        <time>2016-10-01T15:13:10.000Z</time>
      </trkpt>
      <trkpt lat="47.43811" lon="6.79531">
        <ele>470</ele>
        <time>2016-10-01T15:13:13.000Z</time>
      </trkpt>
      <trkpt lat="47.43811" lon="6.7953">
        <ele>470</ele>
        <time>2016-10-01T15:13:14.000Z</time>
      </trkpt>
      <trkpt lat="47.43811" lon="6.79525">
        <ele>470</ele>
        <time>2016-10-01T15:13:16.000Z</time>
      </trkpt>
      <trkpt lat="47.43811" lon="6.79522">
        <ele>470</ele>
        <time>2016-10-01T15:13:17.000Z</time>
      </trkpt>
      <trkpt lat="47.4381" lon="6.79518">
        <ele>470</ele>
        <time>2016-10-01T15:13:18.000Z</time>
      </trkpt>
      <trkpt lat="47.43809" lon="6.79514">
        <ele>470</ele>
        <time>2016-10-01T15:13:19.000Z</time>
      </trkpt>
      <trkpt lat="47.43808" lon="6.7951">
        <ele>470</ele>
        <time>2016-10-01T15:13:20.000Z</time>
      </trkpt>
      <trkpt lat="47.43807" lon="6.79506">
        <ele>470</ele>
        <time>2016-10-01T15:13:21.000Z</time>
      </trkpt>
      <trkpt lat="47.43806" lon="6.79502">
        <ele>470</ele>
        <time>2016-10-01T15:13:22.000Z</time>
      </trkpt>
      <trkpt lat="47.43806" lon="6.79498">
        <ele>469</ele>
        <time>2016-10-01T15:13:23.000Z</time>
      </trkpt>
      <trkpt lat="47.43805" lon="6.79494">
        <ele>469</ele>
        <time>2016-10-01T15:13:24.000Z</time>
      </trkpt>
      <trkpt lat="47.43805" lon="6.79489">
        <ele>469</ele>
        <time>2016-10-01T15:13:25.000Z</time>
      </trkpt>
      <trkpt lat="47.43804" lon="6.79485">
        <ele>469</ele>
        <time>2016-10-01T15:13:26.000Z</time>
      </trkpt>
      <trkpt lat="47.43803" lon="6.79481">
        <ele>469</ele>
        <time>2016-10-01T15:13:27.000Z</time>
      </trkpt>
      <trkpt lat="47.43802" lon="6.79477">
        <ele>469</ele>
        <time>2016-10-01T15:13:28.000Z</time>
      </trkpt>
      <trkpt lat="47.43801" lon="6.79473">
        <ele>469</ele>
        <time>2016-10-01T15:13:29.000Z</time>
      </trkpt>
      <trkpt lat="47.43799" lon="6.79469">
        <ele>469</ele>
        <time>2016-10-01T15:13:30.000Z</time>
      </trkpt>
      <trkpt lat="47.43799" lon="6.79465">
        <ele>469</ele>
        <time>2016-10-01T15:13:31.000Z</time>
      </trkpt>
      <trkpt lat="47.43798" lon="6.79461">
        <ele>469</ele>
        <time>2016-10-01T15:13:32.000Z</time>
      </trkpt>
      <trkpt lat="47.43798" lon="6.79457">
        <ele>469</ele>
        <time>2016-10-01T15:13:33.000Z</time>
      </trkpt>
      <trkpt lat="47.43798" lon="6.79453">
        <ele>469</ele>
        <time>2016-10-01T15:13:34.000Z</time>
      </trkpt>
      <trkpt lat="47.43798" lon="6.79449">
        <ele>469</ele>
        <time>2016-10-01T15:13:35.000Z</time>
      </trkpt>
      <trkpt lat="47.43799" lon="6.79446">
        <ele>469</ele>
        <time>2016-10-01T15:13:36.000Z</time>
      </trkpt>
      <trkpt lat="47.43799" lon="6.79442">
        <ele>468</ele>
        <time>2016-10-01T15:13:37.000Z</time>
      </trkpt>
      <trkpt lat="47.43799" lon="6.79438">
        <ele>468</ele>
        <time>2016-10-01T15:13:38.000Z</time>
      </trkpt>
      <trkpt lat="47.43799" lon="6.79434">
        <ele>468</ele>
        <time>2016-10-01T15:13:39.000Z</time>
      </trkpt>
      <trkpt lat="47.43798" lon="6.79431">
        <ele>468</ele>
        <time>2016-10-01T15:13:40.000Z</time>
      </trkpt>
      <trkpt lat="47.43797" lon="6.79428">
        <ele>468</ele>
        <time>2016-10-01T15:13:41.000Z</time>
      </trkpt>
      <trkpt lat="47.43795" lon="6.79425">
        <ele>468</ele>
        <time>2016-10-01T15:13:42.000Z</time>
      </trkpt>
      <trkpt lat="47.43792" lon="6.79423">
        <ele>468</ele>
        <time>2016-10-01T15:13:43.000Z</time>
      </trkpt>
      <trkpt lat="47.4379" lon="6.79421">
        <ele>469</ele>
        <time>2016-10-01T15:13:44.000Z</time>
      </trkpt>
      <trkpt lat="47.43787" lon="6.79421">
        <ele>469</ele>
        <time>2016-10-01T15:13:45.000Z</time>
      </trkpt>
      <trkpt lat="47.43783" lon="6.7942">
        <ele>469</ele>
        <time>2016-10-01T15:13:47.000Z</time>
      </trkpt>
      <trkpt lat="47.43781" lon="6.79419">
        <ele>469</ele>
        <time>2016-10-01T15:13:48.000Z</time>
      </trkpt>
      <trkpt lat="47.43778" lon="6.79419">
        <ele>469</ele>
        <time>2016-10-01T15:13:49.000Z</time>
      </trkpt>
      <trkpt lat="47.43775" lon="6.79419">
        <ele>469</ele>
        <time>2016-10-01T15:13:50.000Z</time>
      </trkpt>
      <trkpt lat="47.43772" lon="6.79419">
        <ele>469</ele>
        <time>2016-10-01T15:13:51.000Z</time>
      </trkpt>
      <trkpt lat="47.43769" lon="6.79418">
        <ele>469</ele>
        <time>2016-10-01T15:13:52.000Z</time>
      </trkpt>
      <trkpt lat="47.43767" lon="6.79417">
        <ele>469</ele>
        <time>2016-10-01T15:13:53.000Z</time>
      </trkpt>
      <trkpt lat="47.43765" lon="6.79417">
        <ele>462</ele>
        <time>2016-10-01T15:13:54.000Z</time>
      </trkpt>
      <trkpt lat="47.43762" lon="6.79416">
        <ele>463</ele>
        <time>2016-10-01T15:13:55.000Z</time>
      </trkpt>
      <trkpt lat="47.43759" lon="6.79416">
        <ele>465</ele>
        <time>2016-10-01T15:13:56.000Z</time>
      </trkpt>
      <trkpt lat="47.43756" lon="6.79417">
        <ele>470</ele>
        <time>2016-10-01T15:13:57.000Z</time>
      </trkpt>
      <trkpt lat="47.43752" lon="6.79419">
        <ele>470</ele>
        <time>2016-10-01T15:13:58.000Z</time>
      </trkpt>
      <trkpt lat="47.43748" lon="6.7942">
        <ele>470</ele>
        <time>2016-10-01T15:13:59.000Z</time>
      </trkpt>
      <trkpt lat="47.43745" lon="6.7942">
        <ele>470</ele>
        <time>2016-10-01T15:14:00.000Z</time>
      </trkpt>
      <trkpt lat="47.43742" lon="6.79419">
        <ele>471</ele>
        <time>2016-10-01T15:14:01.000Z</time>
      </trkpt>
      <trkpt lat="47.4374" lon="6.79418">
        <ele>471</ele>
        <time>2016-10-01T15:14:02.000Z</time>
      </trkpt>
      <trkpt lat="47.43737" lon="6.79416">
        <ele>463</ele>
        <time>2016-10-01T15:14:03.000Z</time>
      </trkpt>
      <trkpt lat="47.43734" lon="6.79415">
        <ele>462</ele>
        <time>2016-10-01T15:14:04.000Z</time>
      </trkpt>
      <trkpt lat="47.43732" lon="6.79415">
        <ele>461</ele>
        <time>2016-10-01T15:14:05.000Z</time>
      </trkpt>
      <trkpt lat="47.4373" lon="6.79413">
        <ele>461</ele>
        <time>2016-10-01T15:14:06.000Z</time>
      </trkpt>
      <trkpt lat="47.43726" lon="6.79412">
        <ele>459</ele>
        <time>2016-10-01T15:14:08.000Z</time>
      </trkpt>
      <trkpt lat="47.43723" lon="6.79412">
        <ele>459</ele>
        <time>2016-10-01T15:14:09.000Z</time>
      </trkpt>
      <trkpt lat="47.43719" lon="6.79414">
        <ele>459</ele>
        <time>2016-10-01T15:14:10.000Z</time>
      </trkpt>
      <trkpt lat="47.43716" lon="6.79416">
        <ele>459</ele>
        <time>2016-10-01T15:14:11.001Z</time>
      </trkpt>
      <trkpt lat="47.4371" lon="6.79419">
        <ele>471</ele>
        <time>2016-10-01T15:14:12.000Z</time>
      </trkpt>
      <trkpt lat="47.43707" lon="6.79421">
        <ele>471</ele>
        <time>2016-10-01T15:14:13.000Z</time>
      </trkpt>
      <trkpt lat="47.43704" lon="6.79423">
        <ele>471</ele>
        <time>2016-10-01T15:14:14.000Z</time>
      </trkpt>
      <trkpt lat="47.43702" lon="6.79424">
        <ele>471</ele>
        <time>2016-10-01T15:14:14.999Z</time>
      </trkpt>
      <trkpt lat="47.43697" lon="6.79426">
        <ele>471</ele>
        <time>2016-10-01T15:14:16.000Z</time>
      </trkpt>
      <trkpt lat="47.43694" lon="6.79428">
        <ele>471</ele>
        <time>2016-10-01T15:14:17.000Z</time>
      </trkpt>
      <trkpt lat="47.43692" lon="6.79429">
        <ele>471</ele>
        <time>2016-10-01T15:14:18.000Z</time>
      </trkpt>
      <trkpt lat="47.43687" lon="6.79427">
        <ele>471</ele>
        <time>2016-10-01T15:14:19.000Z</time>
      </trkpt>
      <trkpt lat="47.43682" lon="6.79424">
        <ele>470</ele>
        <time>2016-10-01T15:14:20.000Z</time>
      </trkpt>
      <trkpt lat="47.43678" lon="6.7942">
        <ele>470</ele>
        <time>2016-10-01T15:14:21.000Z</time>
      </trkpt>
      <trkpt lat="47.43674" lon="6.79417">
        <ele>464</ele>
        <time>2016-10-01T15:14:22.000Z</time>
      </trkpt>
      <trkpt lat="47.4367" lon="6.79414">
        <ele>465</ele>
        <time>2016-10-01T15:14:23.000Z</time>
      </trkpt>
      <trkpt lat="47.43667" lon="6.79411">
        <ele>465</ele>
        <time>2016-10-01T15:14:24.001Z</time>
      </trkpt>
      <trkpt lat="47.43663" lon="6.79413">
        <ele>463</ele>
        <time>2016-10-01T15:14:25.000Z</time>
      </trkpt>
      <trkpt lat="47.4366" lon="6.79414">
        <ele>462</ele>
        <time>2016-10-01T15:14:26.000Z</time>
      </trkpt>
      <trkpt lat="47.43657" lon="6.79416">
        <ele>461</ele>
        <time>2016-10-01T15:14:27.000Z</time>
      </trkpt>
      <trkpt lat="47.43655" lon="6.79418">
        <ele>470</ele>
        <time>2016-10-01T15:14:28.000Z</time>
      </trkpt>
      <trkpt lat="47.43653" lon="6.79422">
        <ele>470</ele>
        <time>2016-10-01T15:14:30.000Z</time>
      </trkpt>
      <trkpt lat="47.43651" lon="6.79424">
        <ele>470</ele>
        <time>2016-10-01T15:14:31.000Z</time>
      </trkpt>
      <trkpt lat="47.43647" lon="6.79426">
        <ele>471</ele>
        <time>2016-10-01T15:14:33.000Z</time>
      </trkpt>
      <trkpt lat="47.43646" lon="6.79427">
        <ele>471</ele>
        <time>2016-10-01T15:14:34.000Z</time>
      </trkpt>
      <trkpt lat="47.43642" lon="6.79428">
        <ele>471</ele>
        <time>2016-10-01T15:14:39.000Z</time>
      </trkpt>
      <trkpt lat="47.43641" lon="6.79429">
        <ele>471</ele>
        <time>2016-10-01T15:14:40.000Z</time>
      </trkpt>
      <trkpt lat="47.43636" lon="6.79428">
        <ele>471</ele>
        <time>2016-10-01T15:14:44.000Z</time>
      </trkpt>
      <trkpt lat="47.43635" lon="6.79427">
        <ele>471</ele>
        <time>2016-10-01T15:14:45.000Z</time>
      </trkpt>
      <trkpt lat="47.43634" lon="6.79427">
        <ele>471</ele>
        <time>2016-10-01T15:14:46.000Z</time>
      </trkpt>
      <trkpt lat="47.43629" lon="6.79426">
        <ele>471</ele>
        <time>2016-10-01T15:14:47.001Z</time>
      </trkpt>
      <trkpt lat="47.43626" lon="6.79425">
        <ele>471</ele>
        <time>2016-10-01T15:14:48.000Z</time>
      </trkpt>
      <trkpt lat="47.43623" lon="6.79423">
        <ele>471</ele>
        <time>2016-10-01T15:14:49.000Z</time>
      </trkpt>
      <trkpt lat="47.43619" lon="6.79421">
        <ele>471</ele>
        <time>2016-10-01T15:14:50.000Z</time>
      </trkpt>
      <trkpt lat="47.43615" lon="6.7942">
        <ele>470</ele>
        <time>2016-10-01T15:14:51.000Z</time>
      </trkpt>
      <trkpt lat="47.43611" lon="6.7942">
        <ele>470</ele>
        <time>2016-10-01T15:14:52.000Z</time>
      </trkpt>
      <trkpt lat="47.43609" lon="6.79419">
        <ele>470</ele>
        <time>2016-10-01T15:14:53.000Z</time>
      </trkpt>
      <trkpt lat="47.43605" lon="6.79421">
        <ele>470</ele>
        <time>2016-10-01T15:14:54.001Z</time>
      </trkpt>
      <trkpt lat="47.436" lon="6.79425">
        <ele>469</ele>
        <time>2016-10-01T15:14:55.000Z</time>
      </trkpt>
      <trkpt lat="47.43596" lon="6.79428">
        <ele>469</ele>
        <time>2016-10-01T15:14:56.000Z</time>
      </trkpt>
      <trkpt lat="47.43594" lon="6.79428">
        <ele>469</ele>
        <time>2016-10-01T15:14:57.000Z</time>
      </trkpt>
      <trkpt lat="47.43588" lon="6.79432">
        <ele>469</ele>
        <time>2016-10-01T15:14:58.000Z</time>
      </trkpt>
      <trkpt lat="47.43584" lon="6.79434">
        <ele>469</ele>
        <time>2016-10-01T15:14:59.000Z</time>
      </trkpt>
      <trkpt lat="47.43582" lon="6.79436">
        <ele>467</ele>
        <time>2016-10-01T15:15:00.000Z</time>
      </trkpt>
      <trkpt lat="47.43577" lon="6.79439">
        <ele>467</ele>
        <time>2016-10-01T15:15:01.000Z</time>
      </trkpt>
      <trkpt lat="47.43573" lon="6.79441">
        <ele>467</ele>
        <time>2016-10-01T15:15:02.000Z</time>
      </trkpt>
      <trkpt lat="47.43571" lon="6.79443">
        <ele>467</ele>
        <time>2016-10-01T15:15:03.000Z</time>
      </trkpt>
      <trkpt lat="47.43567" lon="6.79445">
        <ele>467</ele>
        <time>2016-10-01T15:15:04.000Z</time>
      </trkpt>
      <trkpt lat="47.43563" lon="6.79447">
        <ele>467</ele>
        <time>2016-10-01T15:15:05.000Z</time>
      </trkpt>
      <trkpt lat="47.4356" lon="6.79448">
        <ele>467</ele>
        <time>2016-10-01T15:15:06.000Z</time>
      </trkpt>
      <trkpt lat="47.43557" lon="6.79448">
        <ele>467</ele>
        <time>2016-10-01T15:15:07.001Z</time>
      </trkpt>
      <trkpt lat="47.43554" lon="6.7945">
        <ele>467</ele>
        <time>2016-10-01T15:15:08.000Z</time>
      </trkpt>
      <trkpt lat="47.43551" lon="6.79452">
        <ele>467</ele>
        <time>2016-10-01T15:15:10.001Z</time>
      </trkpt>
      <trkpt lat="47.43548" lon="6.79454">
        <ele>467</ele>
        <time>2016-10-01T15:15:11.000Z</time>
      </trkpt>
      <trkpt lat="47.43544" lon="6.79454">
        <ele>467</ele>
        <time>2016-10-01T15:15:12.000Z</time>
      </trkpt>
      <trkpt lat="47.43541" lon="6.79455">
        <ele>467</ele>
        <time>2016-10-01T15:15:13.000Z</time>
      </trkpt>
      <trkpt lat="47.43538" lon="6.79456">
        <ele>467</ele>
        <time>2016-10-01T15:15:14.000Z</time>
      </trkpt>
      <trkpt lat="47.43535" lon="6.79455">
        <ele>466</ele>
        <time>2016-10-01T15:15:15.000Z</time>
      </trkpt>
      <trkpt lat="47.43533" lon="6.79455">
        <ele>466</ele>
        <time>2016-10-01T15:15:16.001Z</time>
      </trkpt>
      <trkpt lat="47.43529" lon="6.79455">
        <ele>466</ele>
        <time>2016-10-01T15:15:17.000Z</time>
      </trkpt>
      <trkpt lat="47.43525" lon="6.79455">
        <ele>466</ele>
        <time>2016-10-01T15:15:18.000Z</time>
      </trkpt>
      <trkpt lat="47.43522" lon="6.79456">
        <ele>466</ele>
        <time>2016-10-01T15:15:19.001Z</time>
      </trkpt>
      <trkpt lat="47.43518" lon="6.79458">
        <ele>466</ele>
        <time>2016-10-01T15:15:20.000Z</time>
      </trkpt>
      <trkpt lat="47.43515" lon="6.7946">
        <ele>466</ele>
        <time>2016-10-01T15:15:21.000Z</time>
      </trkpt>
      <trkpt lat="47.43513" lon="6.79461">
        <ele>466</ele>
        <time>2016-10-01T15:15:21.999Z</time>
      </trkpt>
      <trkpt lat="47.43508" lon="6.79464">
        <ele>467</ele>
        <time>2016-10-01T15:15:23.000Z</time>
      </trkpt>
      <trkpt lat="47.43505" lon="6.79467">
        <ele>468</ele>
        <time>2016-10-01T15:15:24.000Z</time>
      </trkpt>
      <trkpt lat="47.43503" lon="6.79469">
        <ele>469</ele>
        <time>2016-10-01T15:15:25.001Z</time>
      </trkpt>
      <trkpt lat="47.435" lon="6.79474">
        <ele>461</ele>
        <time>2016-10-01T15:15:26.000Z</time>
      </trkpt>
      <trkpt lat="47.43497" lon="6.79475">
        <ele>462</ele>
        <time>2016-10-01T15:15:27.000Z</time>
      </trkpt>
      <trkpt lat="47.43495" lon="6.79477">
        <ele>462</ele>
        <time>2016-10-01T15:15:28.000Z</time>
      </trkpt>
      <trkpt lat="47.43492" lon="6.79479">
        <ele>463</ele>
        <time>2016-10-01T15:15:29.000Z</time>
      </trkpt>
      <trkpt lat="47.43489" lon="6.79481">
        <ele>463</ele>
        <time>2016-10-01T15:15:30.000Z</time>
      </trkpt>
      <trkpt lat="47.43486" lon="6.79484">
        <ele>464</ele>
        <time>2016-10-01T15:15:31.000Z</time>
      </trkpt>
      <trkpt lat="47.43482" lon="6.79487">
        <ele>463</ele>
        <time>2016-10-01T15:15:32.000Z</time>
      </trkpt>
      <trkpt lat="47.43478" lon="6.79489">
        <ele>463</ele>
        <time>2016-10-01T15:15:33.000Z</time>
      </trkpt>
      <trkpt lat="47.43474" lon="6.79491">
        <ele>462</ele>
        <time>2016-10-01T15:15:34.000Z</time>
      </trkpt>
      <trkpt lat="47.43469" lon="6.79493">
        <ele>461</ele>
        <time>2016-10-01T15:15:35.000Z</time>
      </trkpt>
      <trkpt lat="47.43465" lon="6.79494">
        <ele>460</ele>
        <time>2016-10-01T15:15:36.000Z</time>
      </trkpt>
      <trkpt lat="47.43462" lon="6.79496">
        <ele>459</ele>
        <time>2016-10-01T15:15:37.000Z</time>
      </trkpt>
      <trkpt lat="47.43459" lon="6.79498">
        <ele>459</ele>
        <time>2016-10-01T15:15:38.000Z</time>
      </trkpt>
      <trkpt lat="47.43456" lon="6.795">
        <ele>459</ele>
        <time>2016-10-01T15:15:39.000Z</time>
      </trkpt>
      <trkpt lat="47.43453" lon="6.79501">
        <ele>476</ele>
        <time>2016-10-01T15:15:40.000Z</time>
      </trkpt>
      <trkpt lat="47.43451" lon="6.79503">
        <ele>476</ele>
        <time>2016-10-01T15:15:41.000Z</time>
      </trkpt>
      <trkpt lat="47.43449" lon="6.79504">
        <ele>475</ele>
        <time>2016-10-01T15:15:42.000Z</time>
      </trkpt>
      <trkpt lat="47.43446" lon="6.79505">
        <ele>475</ele>
        <time>2016-10-01T15:15:43.000Z</time>
      </trkpt>
      <trkpt lat="47.43442" lon="6.79506">
        <ele>474</ele>
        <time>2016-10-01T15:15:45.000Z</time>
      </trkpt>
      <trkpt lat="47.4344" lon="6.79508">
        <ele>474</ele>
        <time>2016-10-01T15:15:46.000Z</time>
      </trkpt>
      <trkpt lat="47.43436" lon="6.7951">
        <ele>473</ele>
        <time>2016-10-01T15:15:48.000Z</time>
      </trkpt>
      <trkpt lat="47.43434" lon="6.79511">
        <ele>473</ele>
        <time>2016-10-01T15:15:49.000Z</time>
      </trkpt>
      <trkpt lat="47.43431" lon="6.79512">
        <ele>473</ele>
        <time>2016-10-01T15:15:50.000Z</time>
      </trkpt>
      <trkpt lat="47.43427" lon="6.79513">
        <ele>472</ele>
        <time>2016-10-01T15:15:51.000Z</time>
      </trkpt>
      <trkpt lat="47.43424" lon="6.79513">
        <ele>472</ele>
        <time>2016-10-01T15:15:52.000Z</time>
      </trkpt>
      <trkpt lat="47.43422" lon="6.79513">
        <ele>471</ele>
        <time>2016-10-01T15:15:53.000Z</time>
      </trkpt>
      <trkpt lat="47.43416" lon="6.79513">
        <ele>468</ele>
        <time>2016-10-01T15:15:54.000Z</time>
      </trkpt>
      <trkpt lat="47.43412" lon="6.79513">
        <ele>468</ele>
        <time>2016-10-01T15:15:55.000Z</time>
      </trkpt>
      <trkpt lat="47.43407" lon="6.79512">
        <ele>468</ele>
        <time>2016-10-01T15:15:56.000Z</time>
      </trkpt>
      <trkpt lat="47.43403" lon="6.79512">
        <ele>468</ele>
        <time>2016-10-01T15:15:57.000Z</time>
      </trkpt>
      <trkpt lat="47.43401" lon="6.79511">
        <ele>468</ele>
        <time>2016-10-01T15:15:58.001Z</time>
      </trkpt>
      <trkpt lat="47.43395" lon="6.79513">
        <ele>468</ele>
        <time>2016-10-01T15:15:59.000Z</time>
      </trkpt>
      <trkpt lat="47.43393" lon="6.79513">
        <ele>468</ele>
        <time>2016-10-01T15:16:00.000Z</time>
      </trkpt>
      <trkpt lat="47.43389" lon="6.79514">
        <ele>468</ele>
        <time>2016-10-01T15:16:01.000Z</time>
      </trkpt>
      <trkpt lat="47.43384" lon="6.79514">
        <ele>468</ele>
        <time>2016-10-01T15:16:02.000Z</time>
      </trkpt>
      <trkpt lat="47.4338" lon="6.79515">
        <ele>468</ele>
        <time>2016-10-01T15:16:03.000Z</time>
      </trkpt>
      <trkpt lat="47.43378" lon="6.79516">
        <ele>468</ele>
        <time>2016-10-01T15:16:03.999Z</time>
      </trkpt>
      <trkpt lat="47.43375" lon="6.79518">
        <ele>468</ele>
        <time>2016-10-01T15:16:05.000Z</time>
      </trkpt>
      <trkpt lat="47.43372" lon="6.79522">
        <ele>468</ele>
        <time>2016-10-01T15:16:06.000Z</time>
      </trkpt>
      <trkpt lat="47.4337" lon="6.79524">
        <ele>468</ele>
        <time>2016-10-01T15:16:07.999Z</time>
      </trkpt>
      <trkpt lat="47.43367" lon="6.79525">
        <ele>468</ele>
        <time>2016-10-01T15:16:09.000Z</time>
      </trkpt>
      <trkpt lat="47.43366" lon="6.79524">
        <ele>468</ele>
        <time>2016-10-01T15:16:10.000Z</time>
      </trkpt>
      <trkpt lat="47.43363" lon="6.79525">
        <ele>468</ele>
        <time>2016-10-01T15:16:11.000Z</time>
      </trkpt>
      <trkpt lat="47.4336" lon="6.79527">
        <ele>468</ele>
        <time>2016-10-01T15:16:12.000Z</time>
      </trkpt>
      <trkpt lat="47.43358" lon="6.79528">
        <ele>468</ele>
        <time>2016-10-01T15:16:13.000Z</time>
      </trkpt>
      <trkpt lat="47.43357" lon="6.79528">
        <ele>468</ele>
        <time>2016-10-01T15:16:14.000Z</time>
      </trkpt>
      <trkpt lat="47.43354" lon="6.7953">
        <ele>468</ele>
        <time>2016-10-01T15:16:15.000Z</time>
      </trkpt>
      <trkpt lat="47.4335" lon="6.79532">
        <ele>468</ele>
        <time>2016-10-01T15:16:16.000Z</time>
      </trkpt>
      <trkpt lat="47.43348" lon="6.79532">
        <ele>468</ele>
        <time>2016-10-01T15:16:17.000Z</time>
      </trkpt>
      <trkpt lat="47.43342" lon="6.79534">
        <ele>468</ele>
        <time>2016-10-01T15:16:18.000Z</time>
      </trkpt>
      <trkpt lat="47.43339" lon="6.79535">
        <ele>468</ele>
        <time>2016-10-01T15:16:19.000Z</time>
      </trkpt>
      <trkpt lat="47.43334" lon="6.79537">
        <ele>469</ele>
        <time>2016-10-01T15:16:20.000Z</time>
      </trkpt>
      <trkpt lat="47.43331" lon="6.79539">
        <ele>466</ele>
        <time>2016-10-01T15:16:21.000Z</time>
      </trkpt>
      <trkpt lat="47.43328" lon="6.79539">
        <ele>466</ele>
        <time>2016-10-01T15:16:22.000Z</time>
      </trkpt>
      <trkpt lat="47.43325" lon="6.7954">
        <ele>467</ele>
        <time>2016-10-01T15:16:23.000Z</time>
      </trkpt>
      <trkpt lat="47.43323" lon="6.79541">
        <ele>467</ele>
        <time>2016-10-01T15:16:24.000Z</time>
      </trkpt>
      <trkpt lat="47.4332" lon="6.79543">
        <ele>468</ele>
        <time>2016-10-01T15:16:26.000Z</time>
      </trkpt>
      <trkpt lat="47.43318" lon="6.79546">
        <ele>468</ele>
        <time>2016-10-01T15:16:27.000Z</time>
      </trkpt>
      <trkpt lat="47.43315" lon="6.79548">
        <ele>469</ele>
        <time>2016-10-01T15:16:28.000Z</time>
      </trkpt>
      <trkpt lat="47.43312" lon="6.79549">
        <ele>469</ele>
        <time>2016-10-01T15:16:29.000Z</time>
      </trkpt>
      <trkpt lat="47.43308" lon="6.79551">
        <ele>469</ele>
        <time>2016-10-01T15:16:30.000Z</time>
      </trkpt>
      <trkpt lat="47.43305" lon="6.79552">
        <ele>470</ele>
        <time>2016-10-01T15:16:31.000Z</time>
      </trkpt>
      <trkpt lat="47.43303" lon="6.79554">
        <ele>470</ele>
        <time>2016-10-01T15:16:32.001Z</time>
      </trkpt>
      <trkpt lat="47.43301" lon="6.79556">
        <ele>470</ele>
        <time>2016-10-01T15:16:33.000Z</time>
      </trkpt>
      <trkpt lat="47.43299" lon="6.79557">
        <ele>470</ele>
        <time>2016-10-01T15:16:33.999Z</time>
      </trkpt>
      <trkpt lat="47.43295" lon="6.79558">
        <ele>470</ele>
        <time>2016-10-01T15:16:35.000Z</time>
      </trkpt>
      <trkpt lat="47.43292" lon="6.79558">
        <ele>470</ele>
        <time>2016-10-01T15:16:36.999Z</time>
      </trkpt>
      <trkpt lat="47.4329" lon="6.7956">
        <ele>471</ele>
        <time>2016-10-01T15:16:38.000Z</time>
      </trkpt>
      <trkpt lat="47.43286" lon="6.79562">
        <ele>471</ele>
        <time>2016-10-01T15:16:40.000Z</time>
      </trkpt>
      <trkpt lat="47.43272" lon="6.79562">
        <ele>472</ele>
        <time>2016-10-01T15:16:41.001Z</time>
      </trkpt>
      <trkpt lat="47.43266" lon="6.79559">
        <ele>472</ele>
        <time>2016-10-01T15:16:42.000Z</time>
      </trkpt>
      <trkpt lat="47.4326" lon="6.79556">
        <ele>471</ele>
        <time>2016-10-01T15:16:43.000Z</time>
      </trkpt>
      <trkpt lat="47.43257" lon="6.7956">
        <ele>473</ele>
        <time>2016-10-01T15:16:45.000Z</time>
      </trkpt>
      <trkpt lat="47.43255" lon="6.79561">
        <ele>474</ele>
        <time>2016-10-01T15:16:46.000Z</time>
      </trkpt>
      <trkpt lat="47.43252" lon="6.79561">
        <ele>474</ele>
        <time>2016-10-01T15:16:47.000Z</time>
      </trkpt>
      <trkpt lat="47.4325" lon="6.79564">
        <ele>475</ele>
        <time>2016-10-01T15:16:48.000Z</time>
      </trkpt>
      <trkpt lat="47.43247" lon="6.7956">
        <ele>473</ele>
        <time>2016-10-01T15:16:50.000Z</time>
      </trkpt>
      <trkpt lat="47.4324" lon="6.79557">
        <ele>471</ele>
        <time>2016-10-01T15:16:51.000Z</time>
      </trkpt>
      <trkpt lat="47.43235" lon="6.79554">
        <ele>469</ele>
        <time>2016-10-01T15:16:52.000Z</time>
      </trkpt>
      <trkpt lat="47.43232" lon="6.79551">
        <ele>468</ele>
        <time>2016-10-01T15:16:53.000Z</time>
      </trkpt>
      <trkpt lat="47.43229" lon="6.79551">
        <ele>468</ele>
        <time>2016-10-01T15:16:54.000Z</time>
      </trkpt>
      <trkpt lat="47.43227" lon="6.79551">
        <ele>468</ele>
        <time>2016-10-01T15:16:55.000Z</time>
      </trkpt>
      <trkpt lat="47.43224" lon="6.79551">
        <ele>468</ele>
        <time>2016-10-01T15:16:56.000Z</time>
      </trkpt>
      <trkpt lat="47.43219" lon="6.7955">
        <ele>467</ele>
        <time>2016-10-01T15:16:57.000Z</time>
      </trkpt>
      <trkpt lat="47.43217" lon="6.79548">
        <ele>467</ele>
        <time>2016-10-01T15:16:57.999Z</time>
      </trkpt>
      <trkpt lat="47.43211" lon="6.79557">
        <ele>469</ele>
        <time>2016-10-01T15:16:59.000Z</time>
      </trkpt>
      <trkpt lat="47.43209" lon="6.7956">
        <ele>469</ele>
        <time>2016-10-01T15:17:00.000Z</time>
      </trkpt>
      <trkpt lat="47.43206" lon="6.79558">
        <ele>469</ele>
        <time>2016-10-01T15:17:01.000Z</time>
      </trkpt>
      <trkpt lat="47.43203" lon="6.79558">
        <ele>469</ele>
        <time>2016-10-01T15:17:02.000Z</time>
      </trkpt>
      <trkpt lat="47.432" lon="6.79558">
        <ele>469</ele>
        <time>2016-10-01T15:17:03.000Z</time>
      </trkpt>
      <trkpt lat="47.43197" lon="6.79557">
        <ele>469</ele>
        <time>2016-10-01T15:17:04.000Z</time>
      </trkpt>
      <trkpt lat="47.43193" lon="6.79558">
        <ele>469</ele>
        <time>2016-10-01T15:17:05.000Z</time>
      </trkpt>
      <trkpt lat="47.43188" lon="6.79559">
        <ele>470</ele>
        <time>2016-10-01T15:17:06.000Z</time>
      </trkpt>
      <trkpt lat="47.43183" lon="6.79561">
        <ele>471</ele>
        <time>2016-10-01T15:17:07.000Z</time>
      </trkpt>
      <trkpt lat="47.43178" lon="6.79564">
        <ele>473</ele>
        <time>2016-10-01T15:17:08.000Z</time>
      </trkpt>
      <trkpt lat="47.43175" lon="6.79568">
        <ele>475</ele>
        <time>2016-10-01T15:17:09.000Z</time>
      </trkpt>
      <trkpt lat="47.43172" lon="6.79571">
        <ele>476</ele>
        <time>2016-10-01T15:17:10.001Z</time>
      </trkpt>
      <trkpt lat="47.43169" lon="6.79576">
        <ele>480</ele>
        <time>2016-10-01T15:17:11.000Z</time>
      </trkpt>
      <trkpt lat="47.43167" lon="6.79579">
        <ele>482</ele>
        <time>2016-10-01T15:17:12.000Z</time>
      </trkpt>
      <trkpt lat="47.43165" lon="6.79582">
        <ele>484</ele>
        <time>2016-10-01T15:17:13.000Z</time>
      </trkpt>
      <trkpt lat="47.43163" lon="6.79585">
        <ele>486</ele>
        <time>2016-10-01T15:17:14.000Z</time>
      </trkpt>
      <trkpt lat="47.43161" lon="6.7959">
        <ele>486</ele>
        <time>2016-10-01T15:17:15.000Z</time>
      </trkpt>
      <trkpt lat="47.4316" lon="6.79594">
        <ele>487</ele>
        <time>2016-10-01T15:17:16.000Z</time>
      </trkpt>
      <trkpt lat="47.43159" lon="6.79599">
        <ele>487</ele>
        <time>2016-10-01T15:17:17.000Z</time>
      </trkpt>
      <trkpt lat="47.43158" lon="6.79603">
        <ele>487</ele>
        <time>2016-10-01T15:17:18.000Z</time>
      </trkpt>
      <trkpt lat="47.43154" lon="6.79604">
        <ele>487</ele>
        <time>2016-10-01T15:17:19.000Z</time>
      </trkpt>
      <trkpt lat="47.43151" lon="6.79604">
        <ele>488</ele>
        <time>2016-10-01T15:17:21.000Z</time>
      </trkpt>
      <trkpt lat="47.43149" lon="6.79603">
        <ele>488</ele>
        <time>2016-10-01T15:17:22.000Z</time>
      </trkpt>
      <trkpt lat="47.43145" lon="6.796">
        <ele>487</ele>
        <time>2016-10-01T15:17:25.001Z</time>
      </trkpt>
      <trkpt lat="47.43144" lon="6.79597">
        <ele>487</ele>
        <time>2016-10-01T15:17:26.000Z</time>
      </trkpt>
      <trkpt lat="47.43145" lon="6.79591">
        <ele>487</ele>
        <time>2016-10-01T15:17:32.000Z</time>
      </trkpt>
      <trkpt lat="47.43146" lon="6.79588">
        <ele>487</ele>
        <time>2016-10-01T15:17:33.000Z</time>
      </trkpt>
      <trkpt lat="47.43147" lon="6.79582">
        <ele>475</ele>
        <time>2016-10-01T15:17:35.000Z</time>
      </trkpt>
      <trkpt lat="47.43148" lon="6.7958">
        <ele>475</ele>
        <time>2016-10-01T15:17:36.000Z</time>
      </trkpt>
      <trkpt lat="47.43145" lon="6.79577">
        <ele>474</ele>
        <time>2016-10-01T15:18:43.000Z</time>
      </trkpt>
      <trkpt lat="47.43143" lon="6.79578">
        <ele>474</ele>
        <time>2016-10-01T15:18:44.000Z</time>
      </trkpt>
      <trkpt lat="47.43141" lon="6.7958">
        <ele>474</ele>
        <time>2016-10-01T15:18:46.000Z</time>
      </trkpt>
      <trkpt lat="47.4314" lon="6.79582">
        <ele>474</ele>
        <time>2016-10-01T15:18:47.000Z</time>
      </trkpt>
      <trkpt lat="47.4314" lon="6.79588">
        <ele>487</ele>
        <time>2016-10-01T15:18:49.000Z</time>
      </trkpt>
      <trkpt lat="47.43141" lon="6.79591">
        <ele>487</ele>
        <time>2016-10-01T15:18:50.000Z</time>
      </trkpt>
      <trkpt lat="47.43142" lon="6.79597">
        <ele>487</ele>
        <time>2016-10-01T15:18:52.000Z</time>
      </trkpt>
      <trkpt lat="47.43142" lon="6.796">
        <ele>488</ele>
        <time>2016-10-01T15:18:53.000Z</time>
      </trkpt>
      <trkpt lat="47.43142" lon="6.79603">
        <ele>488</ele>
        <time>2016-10-01T15:18:54.000Z</time>
      </trkpt>
      <trkpt lat="47.4314" lon="6.79607">
        <ele>488</ele>
        <time>2016-10-01T15:18:55.000Z</time>
      </trkpt>
      <trkpt lat="47.4314" lon="6.79611">
        <ele>488</ele>
        <time>2016-10-01T15:18:56.001Z</time>
      </trkpt>
      <trkpt lat="47.43139" lon="6.79615">
        <ele>488</ele>
        <time>2016-10-01T15:18:57.000Z</time>
      </trkpt>
      <trkpt lat="47.43137" lon="6.79618">
        <ele>488</ele>
        <time>2016-10-01T15:18:59.000Z</time>
      </trkpt>
      <trkpt lat="47.43134" lon="6.79616">
        <ele>488</ele>
        <time>2016-10-01T15:19:00.000Z</time>
      </trkpt>
      <trkpt lat="47.43132" lon="6.79613">
        <ele>488</ele>
        <time>2016-10-01T15:19:01.000Z</time>
      </trkpt>
      <trkpt lat="47.43129" lon="6.7961">
        <ele>488</ele>
        <time>2016-10-01T15:19:02.000Z</time>
      </trkpt>
      <trkpt lat="47.43126" lon="6.79607">
        <ele>488</ele>
        <time>2016-10-01T15:19:03.000Z</time>
      </trkpt>
      <trkpt lat="47.43124" lon="6.79604">
        <ele>488</ele>
        <time>2016-10-01T15:19:04.000Z</time>
      </trkpt>
      <trkpt lat="47.43123" lon="6.796">
        <ele>488</ele>
        <time>2016-10-01T15:19:05.000Z</time>
      </trkpt>
      <trkpt lat="47.43122" lon="6.79597">
        <ele>488</ele>
        <time>2016-10-01T15:19:06.000Z</time>
      </trkpt>
      <trkpt lat="47.43121" lon="6.79593">
        <ele>488</ele>
        <time>2016-10-01T15:19:07.000Z</time>
      </trkpt>
      <trkpt lat="47.4312" lon="6.79589">
        <ele>487</ele>
        <time>2016-10-01T15:19:08.000Z</time>
      </trkpt>
      <trkpt lat="47.43119" lon="6.79586">
        <ele>487</ele>
        <time>2016-10-01T15:19:09.000Z</time>
      </trkpt>
      <trkpt lat="47.43117" lon="6.79583">
        <ele>473</ele>
        <time>2016-10-01T15:19:10.000Z</time>
      </trkpt>
      <trkpt lat="47.43114" lon="6.79581">
        <ele>473</ele>
        <time>2016-10-01T15:19:11.000Z</time>
      </trkpt>
      <trkpt lat="47.43112" lon="6.7958">
        <ele>473</ele>
        <time>2016-10-01T15:19:12.000Z</time>
      </trkpt>
      <trkpt lat="47.43109" lon="6.79581">
        <ele>474</ele>
        <time>2016-10-01T15:19:13.000Z</time>
      </trkpt>
      <trkpt lat="47.43107" lon="6.79581">
        <ele>474</ele>
        <time>2016-10-01T15:19:14.000Z</time>
      </trkpt>
      <trkpt lat="47.43104" lon="6.79582">
        <ele>475</ele>
        <time>2016-10-01T15:19:15.000Z</time>
      </trkpt>
      <trkpt lat="47.43102" lon="6.79582">
        <ele>476</ele>
        <time>2016-10-01T15:19:16.000Z</time>
      </trkpt>
      <trkpt lat="47.431" lon="6.79582">
        <ele>476</ele>
        <time>2016-10-01T15:19:17.000Z</time>
      </trkpt>
      <trkpt lat="47.43097" lon="6.79582">
        <ele>477</ele>
        <time>2016-10-01T15:19:17.999Z</time>
      </trkpt>
      <trkpt lat="47.43094" lon="6.79582">
        <ele>478</ele>
        <time>2016-10-01T15:19:18.998Z</time>
      </trkpt>
      <trkpt lat="47.4309" lon="6.79579">
        <ele>480</ele>
        <time>2016-10-01T15:19:20.000Z</time>
      </trkpt>
      <trkpt lat="47.43087" lon="6.79577">
        <ele>480</ele>
        <time>2016-10-01T15:19:21.000Z</time>
      </trkpt>
      <trkpt lat="47.43085" lon="6.79575">
        <ele>479</ele>
        <time>2016-10-01T15:19:22.000Z</time>
      </trkpt>
      <trkpt lat="47.43083" lon="6.79569">
        <ele>477</ele>
        <time>2016-10-01T15:19:24.000Z</time>
      </trkpt>
      <trkpt lat="47.43082" lon="6.79567">
        <ele>476</ele>
        <time>2016-10-01T15:19:25.000Z</time>
      </trkpt>
      <trkpt lat="47.4308" lon="6.79572">
        <ele>478</ele>
        <time>2016-10-01T15:20:55.000Z</time>
      </trkpt>
      <trkpt lat="47.4308" lon="6.79575">
        <ele>480</ele>
        <time>2016-10-01T15:20:56.000Z</time>
      </trkpt>
      <trkpt lat="47.4308" lon="6.79581">
        <ele>482</ele>
        <time>2016-10-01T15:20:59.000Z</time>
      </trkpt>
      <trkpt lat="47.4308" lon="6.79582">
        <ele>483</ele>
        <time>2016-10-01T15:21:00.001Z</time>
      </trkpt>
      <trkpt lat="47.43076" lon="6.79585">
        <ele>486</ele>
        <time>2016-10-01T15:21:04.000Z</time>
      </trkpt>
      <trkpt lat="47.43073" lon="6.79585">
        <ele>486</ele>
        <time>2016-10-01T15:21:05.000Z</time>
      </trkpt>
      <trkpt lat="47.43071" lon="6.79584">
        <ele>487</ele>
        <time>2016-10-01T15:21:06.000Z</time>
      </trkpt>
      <trkpt lat="47.43069" lon="6.79583">
        <ele>478</ele>
        <time>2016-10-01T15:21:07.000Z</time>
      </trkpt>
      <trkpt lat="47.43071" lon="6.79578">
        <ele>478</ele>
        <time>2016-10-01T15:21:13.000Z</time>
      </trkpt>
      <trkpt lat="47.43074" lon="6.7958">
        <ele>479</ele>
        <time>2016-10-01T15:21:14.000Z</time>
      </trkpt>
      <trkpt lat="47.43075" lon="6.79585">
        <ele>486</ele>
        <time>2016-10-01T15:21:19.000Z</time>
      </trkpt>
      <trkpt lat="47.43074" lon="6.79588">
        <ele>486</ele>
        <time>2016-10-01T15:21:20.000Z</time>
      </trkpt>
      <trkpt lat="47.43073" lon="6.7959">
        <ele>487</ele>
        <time>2016-10-01T15:21:20.999Z</time>
      </trkpt>
      <trkpt lat="47.43075" lon="6.79596">
        <ele>487</ele>
        <time>2016-10-01T15:21:22.000Z</time>
      </trkpt>
      <trkpt lat="47.43077" lon="6.79601">
        <ele>487</ele>
        <time>2016-10-01T15:21:24.001Z</time>
      </trkpt>
      <trkpt lat="47.43077" lon="6.79602">
        <ele>487</ele>
        <time>2016-10-01T15:21:25.000Z</time>
      </trkpt>
      <trkpt lat="47.43074" lon="6.79604">
        <ele>488</ele>
        <time>2016-10-01T15:21:30.000Z</time>
      </trkpt>
      <trkpt lat="47.43073" lon="6.79604">
        <ele>488</ele>
        <time>2016-10-01T15:21:31.000Z</time>
      </trkpt>
      <trkpt lat="47.4307" lon="6.79602">
        <ele>488</ele>
        <time>2016-10-01T15:21:33.000Z</time>
      </trkpt>
      <trkpt lat="47.43068" lon="6.79601">
        <ele>488</ele>
        <time>2016-10-01T15:21:34.000Z</time>
      </trkpt>
      <trkpt lat="47.43065" lon="6.79599">
        <ele>488</ele>
        <time>2016-10-01T15:21:36.000Z</time>
      </trkpt>
      <trkpt lat="47.43063" lon="6.79598">
        <ele>488</ele>
        <time>2016-10-01T15:21:37.000Z</time>
      </trkpt>
      <trkpt lat="47.43059" lon="6.79599">
        <ele>488</ele>
        <time>2016-10-01T15:21:39.000Z</time>
      </trkpt>
      <trkpt lat="47.43057" lon="6.796">
        <ele>488</ele>
        <time>2016-10-01T15:21:40.000Z</time>
      </trkpt>
      <trkpt lat="47.43055" lon="6.79602">
        <ele>488</ele>
        <time>2016-10-01T15:21:41.000Z</time>
      </trkpt>
      <trkpt lat="47.43053" lon="6.79604">
        <ele>488</ele>
        <time>2016-10-01T15:21:42.000Z</time>
      </trkpt>
      <trkpt lat="47.43052" lon="6.79607">
        <ele>488</ele>
        <time>2016-10-01T15:21:43.000Z</time>
      </trkpt>
      <trkpt lat="47.4305" lon="6.7961">
        <ele>489</ele>
        <time>2016-10-01T15:21:44.000Z</time>
      </trkpt>
      <trkpt lat="47.43048" lon="6.79613">
        <ele>489</ele>
        <time>2016-10-01T15:21:45.000Z</time>
      </trkpt>
      <trkpt lat="47.43046" lon="6.79617">
        <ele>489</ele>
        <time>2016-10-01T15:21:46.000Z</time>
      </trkpt>
      <trkpt lat="47.43043" lon="6.79621">
        <ele>489</ele>
        <time>2016-10-01T15:21:47.000Z</time>
      </trkpt>
      <trkpt lat="47.43041" lon="6.79624">
        <ele>489</ele>
        <time>2016-10-01T15:21:48.000Z</time>
      </trkpt>
      <trkpt lat="47.43039" lon="6.79629">
        <ele>489</ele>
        <time>2016-10-01T15:21:49.000Z</time>
      </trkpt>
      <trkpt lat="47.43037" lon="6.79633">
        <ele>490</ele>
        <time>2016-10-01T15:21:50.000Z</time>
      </trkpt>
      <trkpt lat="47.43035" lon="6.79636">
        <ele>490</ele>
        <time>2016-10-01T15:21:51.000Z</time>
      </trkpt>
      <trkpt lat="47.43032" lon="6.79639">
        <ele>490</ele>
        <time>2016-10-01T15:21:52.000Z</time>
      </trkpt>
      <trkpt lat="47.43029" lon="6.79641">
        <ele>490</ele>
        <time>2016-10-01T15:21:53.000Z</time>
      </trkpt>
      <trkpt lat="47.43026" lon="6.79643">
        <ele>490</ele>
        <time>2016-10-01T15:21:54.000Z</time>
      </trkpt>
      <trkpt lat="47.43021" lon="6.79648">
        <ele>490</ele>
        <time>2016-10-01T15:21:55.000Z</time>
      </trkpt>
      <trkpt lat="47.43016" lon="6.79652">
        <ele>491</ele>
        <time>2016-10-01T15:21:56.000Z</time>
      </trkpt>
      <trkpt lat="47.43012" lon="6.79655">
        <ele>491</ele>
        <time>2016-10-01T15:21:57.000Z</time>
      </trkpt>
      <trkpt lat="47.43008" lon="6.79659">
        <ele>492</ele>
        <time>2016-10-01T15:21:58.000Z</time>
      </trkpt>
      <trkpt lat="47.43004" lon="6.79661">
        <ele>492</ele>
        <time>2016-10-01T15:21:59.000Z</time>
      </trkpt>
      <trkpt lat="47.43001" lon="6.79663">
        <ele>492</ele>
        <time>2016-10-01T15:22:00.000Z</time>
      </trkpt>
      <trkpt lat="47.42997" lon="6.79665">
        <ele>493</ele>
        <time>2016-10-01T15:22:01.000Z</time>
      </trkpt>
      <trkpt lat="47.42994" lon="6.79667">
        <ele>493</ele>
        <time>2016-10-01T15:22:02.000Z</time>
      </trkpt>
      <trkpt lat="47.4299" lon="6.79669">
        <ele>493</ele>
        <time>2016-10-01T15:22:03.000Z</time>
      </trkpt>
      <trkpt lat="47.42987" lon="6.79671">
        <ele>493</ele>
        <time>2016-10-01T15:22:04.000Z</time>
      </trkpt>
      <trkpt lat="47.42984" lon="6.79673">
        <ele>493</ele>
        <time>2016-10-01T15:22:05.000Z</time>
      </trkpt>
      <trkpt lat="47.42981" lon="6.79676">
        <ele>493</ele>
        <time>2016-10-01T15:22:06.000Z</time>
      </trkpt>
      <trkpt lat="47.42978" lon="6.79678">
        <ele>493</ele>
        <time>2016-10-01T15:22:07.000Z</time>
      </trkpt>
      <trkpt lat="47.42976" lon="6.7968">
        <ele>492</ele>
        <time>2016-10-01T15:22:08.000Z</time>
      </trkpt>
      <trkpt lat="47.42973" lon="6.79682">
        <ele>492</ele>
        <time>2016-10-01T15:22:09.000Z</time>
      </trkpt>
      <trkpt lat="47.4297" lon="6.79684">
        <ele>492</ele>
        <time>2016-10-01T15:22:10.000Z</time>
      </trkpt>
      <trkpt lat="47.42967" lon="6.79685">
        <ele>492</ele>
        <time>2016-10-01T15:22:11.000Z</time>
      </trkpt>
      <trkpt lat="47.42965" lon="6.79686">
        <ele>492</ele>
        <time>2016-10-01T15:22:12.000Z</time>
      </trkpt>
      <trkpt lat="47.42961" lon="6.79688">
        <ele>492</ele>
        <time>2016-10-01T15:22:14.000Z</time>
      </trkpt>
      <trkpt lat="47.4296" lon="6.79688">
        <ele>492</ele>
        <time>2016-10-01T15:22:15.000Z</time>
      </trkpt>
      <trkpt lat="47.42962" lon="6.79694">
        <ele>492</ele>
        <time>2016-10-01T15:25:26.000Z</time>
      </trkpt>
      <trkpt lat="47.42963" lon="6.79697">
        <ele>492</ele>
        <time>2016-10-01T15:25:27.000Z</time>
      </trkpt>
      <trkpt lat="47.42964" lon="6.79701">
        <ele>492</ele>
        <time>2016-10-01T15:25:28.000Z</time>
      </trkpt>
      <trkpt lat="47.42965" lon="6.79706">
        <ele>492</ele>
        <time>2016-10-01T15:25:29.000Z</time>
      </trkpt>
      <trkpt lat="47.42964" lon="6.79711">
        <ele>492</ele>
        <time>2016-10-01T15:25:30.000Z</time>
      </trkpt>
      <trkpt lat="47.42964" lon="6.79717">
        <ele>492</ele>
        <time>2016-10-01T15:25:31.000Z</time>
      </trkpt>
      <trkpt lat="47.42964" lon="6.79723">
        <ele>492</ele>
        <time>2016-10-01T15:25:32.000Z</time>
      </trkpt>
      <trkpt lat="47.42964" lon="6.79728">
        <ele>492</ele>
        <time>2016-10-01T15:25:33.000Z</time>
      </trkpt>
      <trkpt lat="47.42964" lon="6.79732">
        <ele>492</ele>
        <time>2016-10-01T15:25:34.000Z</time>
      </trkpt>
      <trkpt lat="47.42964" lon="6.79735">
        <ele>492</ele>
        <time>2016-10-01T15:25:35.000Z</time>
      </trkpt>
      <trkpt lat="47.4296" lon="6.79739">
        <ele>492</ele>
        <time>2016-10-01T15:25:37.000Z</time>
      </trkpt>
      <trkpt lat="47.42957" lon="6.79741">
        <ele>492</ele>
        <time>2016-10-01T15:25:38.000Z</time>
      </trkpt>
      <trkpt lat="47.42954" lon="6.79742">
        <ele>492</ele>
        <time>2016-10-01T15:25:39.000Z</time>
      </trkpt>
      <trkpt lat="47.42951" lon="6.79744">
        <ele>492</ele>
        <time>2016-10-01T15:25:39.998Z</time>
      </trkpt>
      <trkpt lat="47.42941" lon="6.7974">
        <ele>492</ele>
        <time>2016-10-01T15:25:41.000Z</time>
      </trkpt>
      <trkpt lat="47.42937" lon="6.79742">
        <ele>492</ele>
        <time>2016-10-01T15:25:42.000Z</time>
      </trkpt>
      <trkpt lat="47.42933" lon="6.79741">
        <ele>492</ele>
        <time>2016-10-01T15:25:43.000Z</time>
      </trkpt>
      <trkpt lat="47.42929" lon="6.7974">
        <ele>492</ele>
        <time>2016-10-01T15:25:44.000Z</time>
      </trkpt>
      <trkpt lat="47.42926" lon="6.7974">
        <ele>492</ele>
        <time>2016-10-01T15:25:45.000Z</time>
      </trkpt>
      <trkpt lat="47.42922" lon="6.79739">
        <ele>491</ele>
        <time>2016-10-01T15:25:46.000Z</time>
      </trkpt>
      <trkpt lat="47.42918" lon="6.79738">
        <ele>491</ele>
        <time>2016-10-01T15:25:47.000Z</time>
      </trkpt>
      <trkpt lat="47.42914" lon="6.79739">
        <ele>491</ele>
        <time>2016-10-01T15:25:48.000Z</time>
      </trkpt>
      <trkpt lat="47.42909" lon="6.79738">
        <ele>491</ele>
        <time>2016-10-01T15:25:49.000Z</time>
      </trkpt>
      <trkpt lat="47.42904" lon="6.79736">
        <ele>491</ele>
        <time>2016-10-01T15:25:50.000Z</time>
      </trkpt>
      <trkpt lat="47.42899" lon="6.79733">
        <ele>490</ele>
        <time>2016-10-01T15:25:51.000Z</time>
      </trkpt>
      <trkpt lat="47.42896" lon="6.79736">
        <ele>490</ele>
        <time>2016-10-01T15:25:52.000Z</time>
      </trkpt>
      <trkpt lat="47.42891" lon="6.79737">
        <ele>490</ele>
        <time>2016-10-01T15:25:53.000Z</time>
      </trkpt>
      <trkpt lat="47.42887" lon="6.79738">
        <ele>490</ele>
        <time>2016-10-01T15:25:54.000Z</time>
      </trkpt>
      <trkpt lat="47.42883" lon="6.79741">
        <ele>490</ele>
        <time>2016-10-01T15:25:55.000Z</time>
      </trkpt>
      <trkpt lat="47.42879" lon="6.79744">
        <ele>490</ele>
        <time>2016-10-01T15:25:56.000Z</time>
      </trkpt>
      <trkpt lat="47.42875" lon="6.79745">
        <ele>490</ele>
        <time>2016-10-01T15:25:57.000Z</time>
      </trkpt>
      <trkpt lat="47.4287" lon="6.79748">
        <ele>490</ele>
        <time>2016-10-01T15:25:58.000Z</time>
      </trkpt>
      <trkpt lat="47.42866" lon="6.7975">
        <ele>489</ele>
        <time>2016-10-01T15:25:59.000Z</time>
      </trkpt>
      <trkpt lat="47.42862" lon="6.79752">
        <ele>488</ele>
        <time>2016-10-01T15:26:00.000Z</time>
      </trkpt>
      <trkpt lat="47.42858" lon="6.79758">
        <ele>488</ele>
        <time>2016-10-01T15:26:01.000Z</time>
      </trkpt>
      <trkpt lat="47.42855" lon="6.79761">
        <ele>488</ele>
        <time>2016-10-01T15:26:02.000Z</time>
      </trkpt>
      <trkpt lat="47.4285" lon="6.79766">
        <ele>488</ele>
        <time>2016-10-01T15:26:03.000Z</time>
      </trkpt>
      <trkpt lat="47.42846" lon="6.79773">
        <ele>488</ele>
        <time>2016-10-01T15:26:04.000Z</time>
      </trkpt>
      <trkpt lat="47.42842" lon="6.79771">
        <ele>488</ele>
        <time>2016-10-01T15:26:05.000Z</time>
      </trkpt>
      <trkpt lat="47.42837" lon="6.79773">
        <ele>488</ele>
        <time>2016-10-01T15:26:05.999Z</time>
      </trkpt>
      <trkpt lat="47.42834" lon="6.79773">
        <ele>488</ele>
        <time>2016-10-01T15:26:07.000Z</time>
      </trkpt>
      <trkpt lat="47.4283" lon="6.79773">
        <ele>488</ele>
        <time>2016-10-01T15:26:08.000Z</time>
      </trkpt>
      <trkpt lat="47.42831" lon="6.79775">
        <ele>488</ele>
        <time>2016-10-01T15:26:10.000Z</time>
      </trkpt>
      <trkpt lat="47.42832" lon="6.79779">
        <ele>488</ele>
        <time>2016-10-01T15:26:11.000Z</time>
      </trkpt>
      <trkpt lat="47.42835" lon="6.79783">
        <ele>488</ele>
        <time>2016-10-01T15:26:13.000Z</time>
      </trkpt>
      <trkpt lat="47.42836" lon="6.79784">
        <ele>488</ele>
        <time>2016-10-01T15:26:14.000Z</time>
      </trkpt>
      <trkpt lat="47.4284" lon="6.79784">
        <ele>488</ele>
        <time>2016-10-01T15:26:16.000Z</time>
      </trkpt>
      <trkpt lat="47.42841" lon="6.79783">
        <ele>488</ele>
        <time>2016-10-01T15:26:16.999Z</time>
      </trkpt>
      <trkpt lat="47.42838" lon="6.79783">
        <ele>488</ele>
        <time>2016-10-01T15:26:32.999Z</time>
      </trkpt>
      <trkpt lat="47.42835" lon="6.79784">
        <ele>488</ele>
        <time>2016-10-01T15:26:34.000Z</time>
      </trkpt>
      <trkpt lat="47.42832" lon="6.79784">
        <ele>488</ele>
        <time>2016-10-01T15:26:34.999Z</time>
      </trkpt>
      <trkpt lat="47.4283" lon="6.79782">
        <ele>488</ele>
        <time>2016-10-01T15:26:36.000Z</time>
      </trkpt>
      <trkpt lat="47.42833" lon="6.79784">
        <ele>488</ele>
        <time>2016-10-01T15:26:41.000Z</time>
      </trkpt>
      <trkpt lat="47.42836" lon="6.79784">
        <ele>488</ele>
        <time>2016-10-01T15:26:42.000Z</time>
      </trkpt>
      <trkpt lat="47.42838" lon="6.79784">
        <ele>488</ele>
        <time>2016-10-01T15:26:43.000Z</time>
      </trkpt>
      <trkpt lat="47.4284" lon="6.79784">
        <ele>488</ele>
        <time>2016-10-01T15:26:44.000Z</time>
      </trkpt>
      <trkpt lat="47.42844" lon="6.79786">
        <ele>488</ele>
        <time>2016-10-01T15:26:45.000Z</time>
      </trkpt>
      <trkpt lat="47.42847" lon="6.79787">
        <ele>488</ele>
        <time>2016-10-01T15:26:46.000Z</time>
      </trkpt>
      <trkpt lat="47.4285" lon="6.79789">
        <ele>488</ele>
        <time>2016-10-01T15:26:47.000Z</time>
      </trkpt>
      <trkpt lat="47.42852" lon="6.79792">
        <ele>488</ele>
        <time>2016-10-01T15:26:48.000Z</time>
      </trkpt>
      <trkpt lat="47.42855" lon="6.79795">
        <ele>488</ele>
        <time>2016-10-01T15:26:49.001Z</time>
      </trkpt>
      <trkpt lat="47.42854" lon="6.79799">
        <ele>488</ele>
        <time>2016-10-01T15:26:50.002Z</time>
      </trkpt>
      <trkpt lat="47.42855" lon="6.79801">
        <ele>488</ele>
        <time>2016-10-01T15:26:51.000Z</time>
      </trkpt>
      <trkpt lat="47.42854" lon="6.79806">
        <ele>487</ele>
        <time>2016-10-01T15:26:52.000Z</time>
      </trkpt>
      <trkpt lat="47.42856" lon="6.79812">
        <ele>487</ele>
        <time>2016-10-01T15:27:00.000Z</time>
      </trkpt>
      <trkpt lat="47.42856" lon="6.79813">
        <ele>487</ele>
        <time>2016-10-01T15:27:01.000Z</time>
      </trkpt>
      <trkpt lat="47.42855" lon="6.79818">
        <ele>487</ele>
        <time>2016-10-01T15:27:03.000Z</time>
      </trkpt>
      <trkpt lat="47.42854" lon="6.79821">
        <ele>487</ele>
        <time>2016-10-01T15:27:04.000Z</time>
      </trkpt>
      <trkpt lat="47.42851" lon="6.79827">
        <ele>487</ele>
        <time>2016-10-01T15:27:06.000Z</time>
      </trkpt>
      <trkpt lat="47.42851" lon="6.79829">
        <ele>487</ele>
        <time>2016-10-01T15:27:07.000Z</time>
      </trkpt>
      <trkpt lat="47.42853" lon="6.79834">
        <ele>485</ele>
        <time>2016-10-01T15:27:09.000Z</time>
      </trkpt>
      <trkpt lat="47.42854" lon="6.79836">
        <ele>485</ele>
        <time>2016-10-01T15:27:10.000Z</time>
      </trkpt>
      <trkpt lat="47.42856" lon="6.79841">
        <ele>485</ele>
        <time>2016-10-01T15:27:12.000Z</time>
      </trkpt>
      <trkpt lat="47.42857" lon="6.79844">
        <ele>485</ele>
        <time>2016-10-01T15:27:13.000Z</time>
      </trkpt>
      <trkpt lat="47.42857" lon="6.79849">
        <ele>484</ele>
        <time>2016-10-01T15:27:15.000Z</time>
      </trkpt>
      <trkpt lat="47.42856" lon="6.79852">
        <ele>484</ele>
        <time>2016-10-01T15:27:16.000Z</time>
      </trkpt>
      <trkpt lat="47.42854" lon="6.79854">
        <ele>484</ele>
        <time>2016-10-01T15:27:17.000Z</time>
      </trkpt>
      <trkpt lat="47.42852" lon="6.79858">
        <ele>484</ele>
        <time>2016-10-01T15:27:18.000Z</time>
      </trkpt>
      <trkpt lat="47.42849" lon="6.79861">
        <ele>484</ele>
        <time>2016-10-01T15:27:19.000Z</time>
      </trkpt>
      <trkpt lat="47.42848" lon="6.79866">
        <ele>484</ele>
        <time>2016-10-01T15:27:20.000Z</time>
      </trkpt>
      <trkpt lat="47.42846" lon="6.7987">
        <ele>483</ele>
        <time>2016-10-01T15:27:21.000Z</time>
      </trkpt>
      <trkpt lat="47.42844" lon="6.79874">
        <ele>483</ele>
        <time>2016-10-01T15:27:22.000Z</time>
      </trkpt>
      <trkpt lat="47.42844" lon="6.7988">
        <ele>483</ele>
        <time>2016-10-01T15:27:24.000Z</time>
      </trkpt>
      <trkpt lat="47.42845" lon="6.79883">
        <ele>482</ele>
        <time>2016-10-01T15:27:25.000Z</time>
      </trkpt>
      <trkpt lat="47.42847" lon="6.79885">
        <ele>482</ele>
        <time>2016-10-01T15:27:26.000Z</time>
      </trkpt>
      <trkpt lat="47.42849" lon="6.79888">
        <ele>482</ele>
        <time>2016-10-01T15:27:27.000Z</time>
      </trkpt>
      <trkpt lat="47.42851" lon="6.79891">
        <ele>482</ele>
        <time>2016-10-01T15:27:28.000Z</time>
      </trkpt>
      <trkpt lat="47.42852" lon="6.79895">
        <ele>482</ele>
        <time>2016-10-01T15:27:29.000Z</time>
      </trkpt>
      <trkpt lat="47.42852" lon="6.79899">
        <ele>482</ele>
        <time>2016-10-01T15:27:30.000Z</time>
      </trkpt>
      <trkpt lat="47.42852" lon="6.79902">
        <ele>481</ele>
        <time>2016-10-01T15:27:31.000Z</time>
      </trkpt>
      <trkpt lat="47.42852" lon="6.79907">
        <ele>481</ele>
        <time>2016-10-01T15:27:32.002Z</time>
      </trkpt>
      <trkpt lat="47.42854" lon="6.79925">
        <ele>478</ele>
        <time>2016-10-01T15:27:33.000Z</time>
      </trkpt>
      <trkpt lat="47.42855" lon="6.79932">
        <ele>478</ele>
        <time>2016-10-01T15:27:34.000Z</time>
      </trkpt>
      <trkpt lat="47.42857" lon="6.79933">
        <ele>478</ele>
        <time>2016-10-01T15:27:35.000Z</time>
      </trkpt>
      <trkpt lat="47.42859" lon="6.79936">
        <ele>478</ele>
        <time>2016-10-01T15:27:36.000Z</time>
      </trkpt>
      <trkpt lat="47.4286" lon="6.79941">
        <ele>478</ele>
        <time>2016-10-01T15:27:39.000Z</time>
      </trkpt>
      <trkpt lat="47.42862" lon="6.79945">
        <ele>478</ele>
        <time>2016-10-01T15:27:40.000Z</time>
      </trkpt>
      <trkpt lat="47.42858" lon="6.79948">
        <ele>478</ele>
        <time>2016-10-01T15:27:44.000Z</time>
      </trkpt>
      <trkpt lat="47.42854" lon="6.79947">
        <ele>478</ele>
        <time>2016-10-01T15:27:45.000Z</time>
      </trkpt>
      <trkpt lat="47.4285" lon="6.79949">
        <ele>478</ele>
        <time>2016-10-01T15:27:47.000Z</time>
      </trkpt>
      <trkpt lat="47.42848" lon="6.79952">
        <ele>478</ele>
        <time>2016-10-01T15:27:48.000Z</time>
      </trkpt>
      <trkpt lat="47.42847" lon="6.79953">
        <ele>478</ele>
        <time>2016-10-01T15:27:49.000Z</time>
      </trkpt>
      <trkpt lat="47.42845" lon="6.7996">
        <ele>478</ele>
        <time>2016-10-01T15:27:50.000Z</time>
      </trkpt>
      <trkpt lat="47.42843" lon="6.79965">
        <ele>477</ele>
        <time>2016-10-01T15:27:51.000Z</time>
      </trkpt>
      <trkpt lat="47.42843" lon="6.7997">
        <ele>477</ele>
        <time>2016-10-01T15:27:52.000Z</time>
      </trkpt>
      <trkpt lat="47.42843" lon="6.79976">
        <ele>477</ele>
        <time>2016-10-01T15:27:53.000Z</time>
      </trkpt>
      <trkpt lat="47.42844" lon="6.79982">
        <ele>477</ele>
        <time>2016-10-01T15:27:54.000Z</time>
      </trkpt>
      <trkpt lat="47.42845" lon="6.79987">
        <ele>476</ele>
        <time>2016-10-01T15:27:55.000Z</time>
      </trkpt>
      <trkpt lat="47.42846" lon="6.79994">
        <ele>476</ele>
        <time>2016-10-01T15:27:56.000Z</time>
      </trkpt>
      <trkpt lat="47.42846" lon="6.80001">
        <ele>474</ele>
        <time>2016-10-01T15:27:57.000Z</time>
      </trkpt>
      <trkpt lat="47.42847" lon="6.80007">
        <ele>474</ele>
        <time>2016-10-01T15:27:58.000Z</time>
      </trkpt>
      <trkpt lat="47.42848" lon="6.80013">
        <ele>474</ele>
        <time>2016-10-01T15:27:59.000Z</time>
      </trkpt>
      <trkpt lat="47.42848" lon="6.80017">
        <ele>474</ele>
        <time>2016-10-01T15:28:00.000Z</time>
      </trkpt>
      <trkpt lat="47.42848" lon="6.80021">
        <ele>474</ele>
        <time>2016-10-01T15:28:01.000Z</time>
      </trkpt>
      <trkpt lat="47.42848" lon="6.80025">
        <ele>474</ele>
        <time>2016-10-01T15:28:02.000Z</time>
      </trkpt>
      <trkpt lat="47.42848" lon="6.80029">
        <ele>474</ele>
        <time>2016-10-01T15:28:03.000Z</time>
      </trkpt>
      <trkpt lat="47.42847" lon="6.80036">
        <ele>474</ele>
        <time>2016-10-01T15:28:05.000Z</time>
      </trkpt>
      <trkpt lat="47.42846" lon="6.80039">
        <ele>474</ele>
        <time>2016-10-01T15:28:05.999Z</time>
      </trkpt>
      <trkpt lat="47.42844" lon="6.80042">
        <ele>474</ele>
        <time>2016-10-01T15:28:07.000Z</time>
      </trkpt>
      <trkpt lat="47.42843" lon="6.80045">
        <ele>474</ele>
        <time>2016-10-01T15:28:08.000Z</time>
      </trkpt>
      <trkpt lat="47.42841" lon="6.80051">
        <ele>473</ele>
        <time>2016-10-01T15:28:10.000Z</time>
      </trkpt>
      <trkpt lat="47.42841" lon="6.80053">
        <ele>473</ele>
        <time>2016-10-01T15:28:11.000Z</time>
      </trkpt>
      <trkpt lat="47.42844" lon="6.80059">
        <ele>473</ele>
        <time>2016-10-01T15:28:12.000Z</time>
      </trkpt>
      <trkpt lat="47.42848" lon="6.80063">
        <ele>473</ele>
        <time>2016-10-01T15:28:13.000Z</time>
      </trkpt>
      <trkpt lat="47.4285" lon="6.80066">
        <ele>473</ele>
        <time>2016-10-01T15:28:14.000Z</time>
      </trkpt>
      <trkpt lat="47.42865" lon="6.80079">
        <ele>473</ele>
        <time>2016-10-01T15:28:15.000Z</time>
      </trkpt>
      <trkpt lat="47.42866" lon="6.80081">
        <ele>473</ele>
        <time>2016-10-01T15:28:17.000Z</time>
      </trkpt>
      <trkpt lat="47.42868" lon="6.80085">
        <ele>470</ele>
        <time>2016-10-01T15:28:18.000Z</time>
      </trkpt>
      <trkpt lat="47.42869" lon="6.80091">
        <ele>470</ele>
        <time>2016-10-01T15:28:24.000Z</time>
      </trkpt>
      <trkpt lat="47.42869" lon="6.80091">
        <ele>470</ele>
        <time>2016-10-01T15:28:25.000Z</time>
      </trkpt>
      <trkpt lat="47.42871" lon="6.80095">
        <ele>470</ele>
        <time>2016-10-01T15:28:27.000Z</time>
      </trkpt>
      <trkpt lat="47.42871" lon="6.80099">
        <ele>470</ele>
        <time>2016-10-01T15:28:28.000Z</time>
      </trkpt>
      <trkpt lat="47.42872" lon="6.80104">
        <ele>470</ele>
        <time>2016-10-01T15:28:29.000Z</time>
      </trkpt>
      <trkpt lat="47.42873" lon="6.80109">
        <ele>470</ele>
        <time>2016-10-01T15:28:30.000Z</time>
      </trkpt>
      <trkpt lat="47.42872" lon="6.80115">
        <ele>470</ele>
        <time>2016-10-01T15:28:30.999Z</time>
      </trkpt>
      <trkpt lat="47.42875" lon="6.80122">
        <ele>470</ele>
        <time>2016-10-01T15:28:32.001Z</time>
      </trkpt>
      <trkpt lat="47.42876" lon="6.80127">
        <ele>470</ele>
        <time>2016-10-01T15:28:33.000Z</time>
      </trkpt>
      <trkpt lat="47.42876" lon="6.80131">
        <ele>470</ele>
        <time>2016-10-01T15:28:34.000Z</time>
      </trkpt>
      <trkpt lat="47.42876" lon="6.80136">
        <ele>470</ele>
        <time>2016-10-01T15:28:35.000Z</time>
      </trkpt>
      <trkpt lat="47.42876" lon="6.80141">
        <ele>469</ele>
        <time>2016-10-01T15:28:36.000Z</time>
      </trkpt>
      <trkpt lat="47.42876" lon="6.80145">
        <ele>469</ele>
        <time>2016-10-01T15:28:37.000Z</time>
      </trkpt>
      <trkpt lat="47.42876" lon="6.8015">
        <ele>469</ele>
        <time>2016-10-01T15:28:38.000Z</time>
      </trkpt>
      <trkpt lat="47.42876" lon="6.80154">
        <ele>469</ele>
        <time>2016-10-01T15:28:39.000Z</time>
      </trkpt>
      <trkpt lat="47.42875" lon="6.80159">
        <ele>469</ele>
        <time>2016-10-01T15:28:40.000Z</time>
      </trkpt>
      <trkpt lat="47.42874" lon="6.80164">
        <ele>469</ele>
        <time>2016-10-01T15:28:41.000Z</time>
      </trkpt>
      <trkpt lat="47.42875" lon="6.80168">
        <ele>468</ele>
        <time>2016-10-01T15:28:42.000Z</time>
      </trkpt>
      <trkpt lat="47.42875" lon="6.80172">
        <ele>468</ele>
        <time>2016-10-01T15:28:43.000Z</time>
      </trkpt>
      <trkpt lat="47.42876" lon="6.80176">
        <ele>468</ele>
        <time>2016-10-01T15:28:44.000Z</time>
      </trkpt>
      <trkpt lat="47.42877" lon="6.80179">
        <ele>468</ele>
        <time>2016-10-01T15:28:45.000Z</time>
      </trkpt>
      <trkpt lat="47.42877" lon="6.80183">
        <ele>468</ele>
        <time>2016-10-01T15:28:46.000Z</time>
      </trkpt>
      <trkpt lat="47.42877" lon="6.80188">
        <ele>468</ele>
        <time>2016-10-01T15:28:47.000Z</time>
      </trkpt>
      <trkpt lat="47.42877" lon="6.80192">
        <ele>468</ele>
        <time>2016-10-01T15:28:48.000Z</time>
      </trkpt>
      <trkpt lat="47.42877" lon="6.80196">
        <ele>468</ele>
        <time>2016-10-01T15:28:49.000Z</time>
      </trkpt>
      <trkpt lat="47.42877" lon="6.80199">
        <ele>468</ele>
        <time>2016-10-01T15:28:50.000Z</time>
      </trkpt>
      <trkpt lat="47.42878" lon="6.80204">
        <ele>468</ele>
        <time>2016-10-01T15:28:52.000Z</time>
      </trkpt>
      <trkpt lat="47.4288" lon="6.80207">
        <ele>468</ele>
        <time>2016-10-01T15:28:53.000Z</time>
      </trkpt>
      <trkpt lat="47.42881" lon="6.80213">
        <ele>468</ele>
        <time>2016-10-01T15:28:56.000Z</time>
      </trkpt>
      <trkpt lat="47.4288" lon="6.80215">
        <ele>468</ele>
        <time>2016-10-01T15:28:57.000Z</time>
      </trkpt>
      <trkpt lat="47.4288" lon="6.8022">
        <ele>468</ele>
        <time>2016-10-01T15:28:59.000Z</time>
      </trkpt>
      <trkpt lat="47.4288" lon="6.80223">
        <ele>468</ele>
        <time>2016-10-01T15:29:00.000Z</time>
      </trkpt>
      <trkpt lat="47.4288" lon="6.80229">
        <ele>468</ele>
        <time>2016-10-01T15:29:02.000Z</time>
      </trkpt>
      <trkpt lat="47.4288" lon="6.80232">
        <ele>468</ele>
        <time>2016-10-01T15:29:03.000Z</time>
      </trkpt>
      <trkpt lat="47.4288" lon="6.80236">
        <ele>468</ele>
        <time>2016-10-01T15:29:04.000Z</time>
      </trkpt>
      <trkpt lat="47.4288" lon="6.8024">
        <ele>468</ele>
        <time>2016-10-01T15:29:05.000Z</time>
      </trkpt>
      <trkpt lat="47.42879" lon="6.80244">
        <ele>468</ele>
        <time>2016-10-01T15:29:06.000Z</time>
      </trkpt>
      <trkpt lat="47.42879" lon="6.80249">
        <ele>468</ele>
        <time>2016-10-01T15:29:07.000Z</time>
      </trkpt>
      <trkpt lat="47.42879" lon="6.80253">
        <ele>465</ele>
        <time>2016-10-01T15:29:08.000Z</time>
      </trkpt>
      <trkpt lat="47.42878" lon="6.80258">
        <ele>465</ele>
        <time>2016-10-01T15:29:09.000Z</time>
      </trkpt>
      <trkpt lat="47.42877" lon="6.80264">
        <ele>465</ele>
        <time>2016-10-01T15:29:10.000Z</time>
      </trkpt>
      <trkpt lat="47.42876" lon="6.8027">
        <ele>465</ele>
        <time>2016-10-01T15:29:11.000Z</time>
      </trkpt>
      <trkpt lat="47.42876" lon="6.80275">
        <ele>465</ele>
        <time>2016-10-01T15:29:12.000Z</time>
      </trkpt>
      <trkpt lat="47.42876" lon="6.8028">
        <ele>465</ele>
        <time>2016-10-01T15:29:13.000Z</time>
      </trkpt>
      <trkpt lat="47.42876" lon="6.80284">
        <ele>465</ele>
        <time>2016-10-01T15:29:14.001Z</time>
      </trkpt>
      <trkpt lat="47.42877" lon="6.80288">
        <ele>465</ele>
        <time>2016-10-01T15:29:15.000Z</time>
      </trkpt>
      <trkpt lat="47.42877" lon="6.80291">
        <ele>464</ele>
        <time>2016-10-01T15:29:16.000Z</time>
      </trkpt>
      <trkpt lat="47.42877" lon="6.80296">
        <ele>464</ele>
        <time>2016-10-01T15:29:17.000Z</time>
      </trkpt>
      <trkpt lat="47.42877" lon="6.803">
        <ele>464</ele>
        <time>2016-10-01T15:29:18.000Z</time>
      </trkpt>
      <trkpt lat="47.42879" lon="6.80307">
        <ele>464</ele>
        <time>2016-10-01T15:29:19.000Z</time>
      </trkpt>
      <trkpt lat="47.4288" lon="6.80313">
        <ele>463</ele>
        <time>2016-10-01T15:29:20.000Z</time>
      </trkpt>
      <trkpt lat="47.42881" lon="6.80319">
        <ele>463</ele>
        <time>2016-10-01T15:29:21.000Z</time>
      </trkpt>
      <trkpt lat="47.42882" lon="6.80325">
        <ele>463</ele>
        <time>2016-10-01T15:29:22.000Z</time>
      </trkpt>
      <trkpt lat="47.42882" lon="6.80331">
        <ele>462</ele>
        <time>2016-10-01T15:29:23.000Z</time>
      </trkpt>
      <trkpt lat="47.42881" lon="6.80336">
        <ele>459</ele>
        <time>2016-10-01T15:29:24.000Z</time>
      </trkpt>
      <trkpt lat="47.42881" lon="6.80339">
        <ele>459</ele>
        <time>2016-10-01T15:29:25.000Z</time>
      </trkpt>
      <trkpt lat="47.42876" lon="6.80354">
        <ele>459</ele>
        <time>2016-10-01T15:29:26.000Z</time>
      </trkpt>
      <trkpt lat="47.42874" lon="6.80358">
        <ele>459</ele>
        <time>2016-10-01T15:29:27.000Z</time>
      </trkpt>
      <trkpt lat="47.42874" lon="6.80362">
        <ele>459</ele>
        <time>2016-10-01T15:29:28.000Z</time>
      </trkpt>
      <trkpt lat="47.42874" lon="6.80369">
        <ele>458</ele>
        <time>2016-10-01T15:29:29.000Z</time>
      </trkpt>
      <trkpt lat="47.42875" lon="6.80372">
        <ele>458</ele>
        <time>2016-10-01T15:29:30.000Z</time>
      </trkpt>
      <trkpt lat="47.42878" lon="6.80378">
        <ele>458</ele>
        <time>2016-10-01T15:29:31.000Z</time>
      </trkpt>
      <trkpt lat="47.4288" lon="6.80382">
        <ele>458</ele>
        <time>2016-10-01T15:29:32.000Z</time>
      </trkpt>
      <trkpt lat="47.42881" lon="6.80388">
        <ele>457</ele>
        <time>2016-10-01T15:29:33.000Z</time>
      </trkpt>
      <trkpt lat="47.42875" lon="6.80393">
        <ele>458</ele>
        <time>2016-10-01T15:29:34.000Z</time>
      </trkpt>
      <trkpt lat="47.42872" lon="6.80397">
        <ele>458</ele>
        <time>2016-10-01T15:29:34.999Z</time>
      </trkpt>
      <trkpt lat="47.42873" lon="6.80405">
        <ele>458</ele>
        <time>2016-10-01T15:29:36.000Z</time>
      </trkpt>
      <trkpt lat="47.42875" lon="6.80408">
        <ele>457</ele>
        <time>2016-10-01T15:29:37.000Z</time>
      </trkpt>
      <trkpt lat="47.42876" lon="6.80417">
        <ele>457</ele>
        <time>2016-10-01T15:29:38.000Z</time>
      </trkpt>
      <trkpt lat="47.42876" lon="6.80419">
        <ele>454</ele>
        <time>2016-10-01T15:29:38.999Z</time>
      </trkpt>
      <trkpt lat="47.42877" lon="6.80434">
        <ele>453</ele>
        <time>2016-10-01T15:29:40.000Z</time>
      </trkpt>
      <trkpt lat="47.42878" lon="6.8044">
        <ele>453</ele>
        <time>2016-10-01T15:29:41.000Z</time>
      </trkpt>
      <trkpt lat="47.42878" lon="6.80445">
        <ele>453</ele>
        <time>2016-10-01T15:29:42.002Z</time>
      </trkpt>
      <trkpt lat="47.42879" lon="6.80453">
        <ele>452</ele>
        <time>2016-10-01T15:29:43.000Z</time>
      </trkpt>
      <trkpt lat="47.42874" lon="6.80452">
        <ele>453</ele>
        <time>2016-10-01T15:29:44.000Z</time>
      </trkpt>
      <trkpt lat="47.42872" lon="6.80458">
        <ele>453</ele>
        <time>2016-10-01T15:29:45.000Z</time>
      </trkpt>
      <trkpt lat="47.4287" lon="6.80463">
        <ele>453</ele>
        <time>2016-10-01T15:29:46.000Z</time>
      </trkpt>
      <trkpt lat="47.42868" lon="6.80468">
        <ele>453</ele>
        <time>2016-10-01T15:29:47.000Z</time>
      </trkpt>
      <trkpt lat="47.42867" lon="6.80474">
        <ele>452</ele>
        <time>2016-10-01T15:29:48.000Z</time>
      </trkpt>
      <trkpt lat="47.42865" lon="6.80481">
        <ele>452</ele>
        <time>2016-10-01T15:29:49.000Z</time>
      </trkpt>
      <trkpt lat="47.42863" lon="6.8049">
        <ele>452</ele>
        <time>2016-10-01T15:29:50.000Z</time>
      </trkpt>
      <trkpt lat="47.42863" lon="6.80499">
        <ele>452</ele>
        <time>2016-10-01T15:29:51.000Z</time>
      </trkpt>
      <trkpt lat="47.42865" lon="6.80506">
        <ele>447</ele>
        <time>2016-10-01T15:29:52.000Z</time>
      </trkpt>
      <trkpt lat="47.42869" lon="6.80511">
        <ele>446</ele>
        <time>2016-10-01T15:29:53.000Z</time>
      </trkpt>
      <trkpt lat="47.42872" lon="6.80515">
        <ele>446</ele>
        <time>2016-10-01T15:29:54.000Z</time>
      </trkpt>
      <trkpt lat="47.42875" lon="6.80519">
        <ele>445</ele>
        <time>2016-10-01T15:29:55.000Z</time>
      </trkpt>
      <trkpt lat="47.42877" lon="6.80522">
        <ele>445</ele>
        <time>2016-10-01T15:29:56.000Z</time>
      </trkpt>
      <trkpt lat="47.4288" lon="6.80538">
        <ele>444</ele>
        <time>2016-10-01T15:29:57.000Z</time>
      </trkpt>
      <trkpt lat="47.42879" lon="6.80547">
        <ele>444</ele>
        <time>2016-10-01T15:29:58.000Z</time>
      </trkpt>
      <trkpt lat="47.42879" lon="6.80554">
        <ele>443</ele>
        <time>2016-10-01T15:29:59.001Z</time>
      </trkpt>
      <trkpt lat="47.42876" lon="6.80557">
        <ele>443</ele>
        <time>2016-10-01T15:30:00.000Z</time>
      </trkpt>
      <trkpt lat="47.42875" lon="6.80562">
        <ele>443</ele>
        <time>2016-10-01T15:30:01.000Z</time>
      </trkpt>
      <trkpt lat="47.42875" lon="6.80565">
        <ele>443</ele>
        <time>2016-10-01T15:30:02.000Z</time>
      </trkpt>
      <trkpt lat="47.42876" lon="6.80571">
        <ele>442</ele>
        <time>2016-10-01T15:30:03.000Z</time>
      </trkpt>
      <trkpt lat="47.42878" lon="6.80576">
        <ele>442</ele>
        <time>2016-10-01T15:30:05.000Z</time>
      </trkpt>
      <trkpt lat="47.42879" lon="6.80579">
        <ele>442</ele>
        <time>2016-10-01T15:30:06.000Z</time>
      </trkpt>
      <trkpt lat="47.42879" lon="6.80584">
        <ele>436</ele>
        <time>2016-10-01T15:30:07.000Z</time>
      </trkpt>
      <trkpt lat="47.42879" lon="6.80586">
        <ele>436</ele>
        <time>2016-10-01T15:30:07.999Z</time>
      </trkpt>
      <trkpt lat="47.42877" lon="6.80589">
        <ele>436</ele>
        <time>2016-10-01T15:30:09.000Z</time>
      </trkpt>
      <trkpt lat="47.42877" lon="6.80594">
        <ele>436</ele>
        <time>2016-10-01T15:30:10.000Z</time>
      </trkpt>
      <trkpt lat="47.42877" lon="6.80601">
        <ele>435</ele>
        <time>2016-10-01T15:30:11.000Z</time>
      </trkpt>
      <trkpt lat="47.42879" lon="6.80608">
        <ele>435</ele>
        <time>2016-10-01T15:30:12.000Z</time>
      </trkpt>
      <trkpt lat="47.42879" lon="6.80613">
        <ele>435</ele>
        <time>2016-10-01T15:30:13.000Z</time>
      </trkpt>
      <trkpt lat="47.42882" lon="6.80623">
        <ele>434</ele>
        <time>2016-10-01T15:30:14.000Z</time>
      </trkpt>
      <trkpt lat="47.42891" lon="6.80644">
        <ele>433</ele>
        <time>2016-10-01T15:30:15.000Z</time>
      </trkpt>
      <trkpt lat="47.42892" lon="6.80652">
        <ele>432</ele>
        <time>2016-10-01T15:30:16.000Z</time>
      </trkpt>
      <trkpt lat="47.42893" lon="6.80659">
        <ele>432</ele>
        <time>2016-10-01T15:30:17.000Z</time>
      </trkpt>
      <trkpt lat="47.42894" lon="6.80665">
        <ele>432</ele>
        <time>2016-10-01T15:30:18.000Z</time>
      </trkpt>
      <trkpt lat="47.42896" lon="6.80671">
        <ele>430</ele>
        <time>2016-10-01T15:30:19.000Z</time>
      </trkpt>
      <trkpt lat="47.42898" lon="6.80677">
        <ele>430</ele>
        <time>2016-10-01T15:30:20.000Z</time>
      </trkpt>
      <trkpt lat="47.42901" lon="6.80683">
        <ele>430</ele>
        <time>2016-10-01T15:30:21.000Z</time>
      </trkpt>
      <trkpt lat="47.42903" lon="6.8069">
        <ele>430</ele>
        <time>2016-10-01T15:30:22.000Z</time>
      </trkpt>
      <trkpt lat="47.42907" lon="6.80695">
        <ele>430</ele>
        <time>2016-10-01T15:30:23.000Z</time>
      </trkpt>
      <trkpt lat="47.42909" lon="6.80699">
        <ele>430</ele>
        <time>2016-10-01T15:30:24.000Z</time>
      </trkpt>
      <trkpt lat="47.4291" lon="6.80704">
        <ele>430</ele>
        <time>2016-10-01T15:30:25.000Z</time>
      </trkpt>
      <trkpt lat="47.42912" lon="6.80708">
        <ele>430</ele>
        <time>2016-10-01T15:30:26.000Z</time>
      </trkpt>
      <trkpt lat="47.42913" lon="6.80713">
        <ele>430</ele>
        <time>2016-10-01T15:30:27.000Z</time>
      </trkpt>
      <trkpt lat="47.42914" lon="6.80713">
        <ele>429</ele>
        <time>2016-10-01T15:30:29.001Z</time>
      </trkpt>
      <trkpt lat="47.42917" lon="6.80721">
        <ele>430</ele>
        <time>2016-10-01T15:30:30.000Z</time>
      </trkpt>
      <trkpt lat="47.42921" lon="6.80728">
        <ele>429</ele>
        <time>2016-10-01T15:30:31.000Z</time>
      </trkpt>
      <trkpt lat="47.42925" lon="6.80734">
        <ele>429</ele>
        <time>2016-10-01T15:30:32.000Z</time>
      </trkpt>
      <trkpt lat="47.42928" lon="6.80737">
        <ele>428</ele>
        <time>2016-10-01T15:30:33.000Z</time>
      </trkpt>
      <trkpt lat="47.4293" lon="6.8074">
        <ele>429</ele>
        <time>2016-10-01T15:30:34.000Z</time>
      </trkpt>
      <trkpt lat="47.42931" lon="6.80744">
        <ele>428</ele>
        <time>2016-10-01T15:30:35.000Z</time>
      </trkpt>
      <trkpt lat="47.42932" lon="6.80746">
        <ele>428</ele>
        <time>2016-10-01T15:30:36.000Z</time>
      </trkpt>
      <trkpt lat="47.42935" lon="6.80751">
        <ele>426</ele>
        <time>2016-10-01T15:30:38.001Z</time>
      </trkpt>
      <trkpt lat="47.4294" lon="6.80758">
        <ele>427</ele>
        <time>2016-10-01T15:30:39.000Z</time>
      </trkpt>
      <trkpt lat="47.42944" lon="6.80764">
        <ele>427</ele>
        <time>2016-10-01T15:30:40.000Z</time>
      </trkpt>
      <trkpt lat="47.42949" lon="6.80769">
        <ele>427</ele>
        <time>2016-10-01T15:30:41.000Z</time>
      </trkpt>
      <trkpt lat="47.42951" lon="6.80773">
        <ele>428</ele>
        <time>2016-10-01T15:30:42.000Z</time>
      </trkpt>
      <trkpt lat="47.42953" lon="6.80779">
        <ele>428</ele>
        <time>2016-10-01T15:30:43.000Z</time>
      </trkpt>
      <trkpt lat="47.42955" lon="6.80782">
        <ele>428</ele>
        <time>2016-10-01T15:30:43.999Z</time>
      </trkpt>
      <trkpt lat="47.42958" lon="6.80788">
        <ele>428</ele>
        <time>2016-10-01T15:30:45.000Z</time>
      </trkpt>
      <trkpt lat="47.42959" lon="6.80792">
        <ele>428</ele>
        <time>2016-10-01T15:30:46.000Z</time>
      </trkpt>
      <trkpt lat="47.42965" lon="6.80801">
        <ele>427</ele>
        <time>2016-10-01T15:30:47.000Z</time>
      </trkpt>
      <trkpt lat="47.42972" lon="6.80808">
        <ele>427</ele>
        <time>2016-10-01T15:30:48.000Z</time>
      </trkpt>
      <trkpt lat="47.42975" lon="6.80813">
        <ele>426</ele>
        <time>2016-10-01T15:30:48.999Z</time>
      </trkpt>
      <trkpt lat="47.42981" lon="6.8082">
        <ele>426</ele>
        <time>2016-10-01T15:30:50.000Z</time>
      </trkpt>
      <trkpt lat="47.42984" lon="6.80825">
        <ele>425</ele>
        <time>2016-10-01T15:30:51.000Z</time>
      </trkpt>
      <trkpt lat="47.42987" lon="6.80832">
        <ele>424</ele>
        <time>2016-10-01T15:30:52.000Z</time>
      </trkpt>
      <trkpt lat="47.42989" lon="6.80837">
        <ele>424</ele>
        <time>2016-10-01T15:30:53.001Z</time>
      </trkpt>
      <trkpt lat="47.42991" lon="6.80842">
        <ele>424</ele>
        <time>2016-10-01T15:30:54.000Z</time>
      </trkpt>
      <trkpt lat="47.42991" lon="6.80847">
        <ele>425</ele>
        <time>2016-10-01T15:30:55.000Z</time>
      </trkpt>
      <trkpt lat="47.42993" lon="6.8085">
        <ele>425</ele>
        <time>2016-10-01T15:30:56.001Z</time>
      </trkpt>
      <trkpt lat="47.42994" lon="6.8086">
        <ele>425</ele>
        <time>2016-10-01T15:30:57.001Z</time>
      </trkpt>
      <trkpt lat="47.42994" lon="6.80865">
        <ele>425</ele>
        <time>2016-10-01T15:30:58.000Z</time>
      </trkpt>
      <trkpt lat="47.42995" lon="6.8087">
        <ele>425</ele>
        <time>2016-10-01T15:30:59.000Z</time>
      </trkpt>
      <trkpt lat="47.42997" lon="6.80876">
        <ele>425</ele>
        <time>2016-10-01T15:31:00.000Z</time>
      </trkpt>
      <trkpt lat="47.42998" lon="6.80881">
        <ele>425</ele>
        <time>2016-10-01T15:31:00.999Z</time>
      </trkpt>
      <trkpt lat="47.43" lon="6.80889">
        <ele>424</ele>
        <time>2016-10-01T15:31:02.000Z</time>
      </trkpt>
      <trkpt lat="47.43" lon="6.80895">
        <ele>423</ele>
        <time>2016-10-01T15:31:03.000Z</time>
      </trkpt>
      <trkpt lat="47.43003" lon="6.80907">
        <ele>421</ele>
        <time>2016-10-01T15:31:04.000Z</time>
      </trkpt>
      <trkpt lat="47.43006" lon="6.80915">
        <ele>420</ele>
        <time>2016-10-01T15:31:05.000Z</time>
      </trkpt>
      <trkpt lat="47.4301" lon="6.80923">
        <ele>419</ele>
        <time>2016-10-01T15:31:06.000Z</time>
      </trkpt>
      <trkpt lat="47.43014" lon="6.80931">
        <ele>419</ele>
        <time>2016-10-01T15:31:07.000Z</time>
      </trkpt>
      <trkpt lat="47.43017" lon="6.80937">
        <ele>420</ele>
        <time>2016-10-01T15:31:08.000Z</time>
      </trkpt>
      <trkpt lat="47.4302" lon="6.80947">
        <ele>420</ele>
        <time>2016-10-01T15:31:09.000Z</time>
      </trkpt>
      <trkpt lat="47.43025" lon="6.80955">
        <ele>420</ele>
        <time>2016-10-01T15:31:10.000Z</time>
      </trkpt>
      <trkpt lat="47.4303" lon="6.80967">
        <ele>419</ele>
        <time>2016-10-01T15:31:11.000Z</time>
      </trkpt>
      <trkpt lat="47.43035" lon="6.80971">
        <ele>419</ele>
        <time>2016-10-01T15:31:12.000Z</time>
      </trkpt>
      <trkpt lat="47.43038" lon="6.80976">
        <ele>419</ele>
        <time>2016-10-01T15:31:13.000Z</time>
      </trkpt>
      <trkpt lat="47.43041" lon="6.80989">
        <ele>419</ele>
        <time>2016-10-01T15:31:14.000Z</time>
      </trkpt>
      <trkpt lat="47.43043" lon="6.80998">
        <ele>418</ele>
        <time>2016-10-01T15:31:15.000Z</time>
      </trkpt>
      <trkpt lat="47.43045" lon="6.81005">
        <ele>417</ele>
        <time>2016-10-01T15:31:16.000Z</time>
      </trkpt>
      <trkpt lat="47.43048" lon="6.81011">
        <ele>416</ele>
        <time>2016-10-01T15:31:17.000Z</time>
      </trkpt>
      <trkpt lat="47.43051" lon="6.81018">
        <ele>416</ele>
        <time>2016-10-01T15:31:18.000Z</time>
      </trkpt>
      <trkpt lat="47.43058" lon="6.81026">
        <ele>416</ele>
        <time>2016-10-01T15:31:19.000Z</time>
      </trkpt>
      <trkpt lat="47.43063" lon="6.81031">
        <ele>415</ele>
        <time>2016-10-01T15:31:20.000Z</time>
      </trkpt>
      <trkpt lat="47.43067" lon="6.81038">
        <ele>415</ele>
        <time>2016-10-01T15:31:21.000Z</time>
      </trkpt>
      <trkpt lat="47.43074" lon="6.81042">
        <ele>415</ele>
        <time>2016-10-01T15:31:22.000Z</time>
      </trkpt>
      <trkpt lat="47.43081" lon="6.81047">
        <ele>414</ele>
        <time>2016-10-01T15:31:23.000Z</time>
      </trkpt>
      <trkpt lat="47.43085" lon="6.81052">
        <ele>413</ele>
        <time>2016-10-01T15:31:24.000Z</time>
      </trkpt>
      <trkpt lat="47.43087" lon="6.81061">
        <ele>412</ele>
        <time>2016-10-01T15:31:25.000Z</time>
      </trkpt>
      <trkpt lat="47.43089" lon="6.8107">
        <ele>411</ele>
        <time>2016-10-01T15:31:26.000Z</time>
      </trkpt>
      <trkpt lat="47.43095" lon="6.81075">
        <ele>411</ele>
        <time>2016-10-01T15:31:27.000Z</time>
      </trkpt>
      <trkpt lat="47.43098" lon="6.81079">
        <ele>411</ele>
        <time>2016-10-01T15:31:28.000Z</time>
      </trkpt>
      <trkpt lat="47.431" lon="6.81085">
        <ele>408</ele>
        <time>2016-10-01T15:31:29.000Z</time>
      </trkpt>
      <trkpt lat="47.43099" lon="6.8109">
        <ele>408</ele>
        <time>2016-10-01T15:31:31.000Z</time>
      </trkpt>
      <trkpt lat="47.431" lon="6.81095">
        <ele>409</ele>
        <time>2016-10-01T15:31:32.000Z</time>
      </trkpt>
      <trkpt lat="47.43103" lon="6.81102">
        <ele>409</ele>
        <time>2016-10-01T15:31:33.000Z</time>
      </trkpt>
      <trkpt lat="47.43105" lon="6.81105">
        <ele>410</ele>
        <time>2016-10-01T15:31:34.000Z</time>
      </trkpt>
      <trkpt lat="47.4311" lon="6.81107">
        <ele>410</ele>
        <time>2016-10-01T15:31:35.000Z</time>
      </trkpt>
      <trkpt lat="47.43111" lon="6.8111">
        <ele>410</ele>
        <time>2016-10-01T15:31:36.000Z</time>
      </trkpt>
      <trkpt lat="47.43113" lon="6.81113">
        <ele>410</ele>
        <time>2016-10-01T15:31:37.000Z</time>
      </trkpt>
      <trkpt lat="47.43115" lon="6.81116">
        <ele>410</ele>
        <time>2016-10-01T15:31:38.000Z</time>
      </trkpt>
      <trkpt lat="47.43117" lon="6.81119">
        <ele>410</ele>
        <time>2016-10-01T15:31:39.000Z</time>
      </trkpt>
      <trkpt lat="47.43119" lon="6.81123">
        <ele>410</ele>
        <time>2016-10-01T15:31:40.000Z</time>
      </trkpt>
      <trkpt lat="47.43121" lon="6.81127">
        <ele>410</ele>
        <time>2016-10-01T15:31:41.000Z</time>
      </trkpt>
      <trkpt lat="47.43124" lon="6.8113">
        <ele>410</ele>
        <time>2016-10-01T15:31:42.000Z</time>
      </trkpt>
      <trkpt lat="47.43127" lon="6.81133">
        <ele>410</ele>
        <time>2016-10-01T15:31:43.000Z</time>
      </trkpt>
      <trkpt lat="47.43129" lon="6.81136">
        <ele>410</ele>
        <time>2016-10-01T15:31:44.000Z</time>
      </trkpt>
      <trkpt lat="47.43133" lon="6.8114">
        <ele>409</ele>
        <time>2016-10-01T15:31:45.000Z</time>
      </trkpt>
      <trkpt lat="47.43136" lon="6.81144">
        <ele>409</ele>
        <time>2016-10-01T15:31:46.000Z</time>
      </trkpt>
      <trkpt lat="47.43139" lon="6.81148">
        <ele>408</ele>
        <time>2016-10-01T15:31:47.000Z</time>
      </trkpt>
      <trkpt lat="47.43142" lon="6.81153">
        <ele>408</ele>
        <time>2016-10-01T15:31:48.000Z</time>
      </trkpt>
      <trkpt lat="47.43145" lon="6.81157">
        <ele>407</ele>
        <time>2016-10-01T15:31:49.000Z</time>
      </trkpt>
      <trkpt lat="47.43149" lon="6.81161">
        <ele>406</ele>
        <time>2016-10-01T15:31:50.000Z</time>
      </trkpt>
      <trkpt lat="47.43153" lon="6.81165">
        <ele>405</ele>
        <time>2016-10-01T15:31:51.000Z</time>
      </trkpt>
      <trkpt lat="47.43156" lon="6.8117">
        <ele>406</ele>
        <time>2016-10-01T15:31:52.000Z</time>
      </trkpt>
      <trkpt lat="47.43161" lon="6.81175">
        <ele>406</ele>
        <time>2016-10-01T15:31:53.000Z</time>
      </trkpt>
      <trkpt lat="47.43165" lon="6.81179">
        <ele>407</ele>
        <time>2016-10-01T15:31:54.000Z</time>
      </trkpt>
      <trkpt lat="47.4317" lon="6.81183">
        <ele>403</ele>
        <time>2016-10-01T15:31:55.000Z</time>
      </trkpt>
      <trkpt lat="47.43174" lon="6.81187">
        <ele>404</ele>
        <time>2016-10-01T15:31:56.000Z</time>
      </trkpt>
      <trkpt lat="47.43178" lon="6.81191">
        <ele>404</ele>
        <time>2016-10-01T15:31:57.000Z</time>
      </trkpt>
      <trkpt lat="47.43182" lon="6.81195">
        <ele>404</ele>
        <time>2016-10-01T15:31:58.000Z</time>
      </trkpt>
      <trkpt lat="47.43187" lon="6.81198">
        <ele>405</ele>
        <time>2016-10-01T15:31:59.000Z</time>
      </trkpt>
      <trkpt lat="47.43191" lon="6.81202">
        <ele>405</ele>
        <time>2016-10-01T15:32:00.000Z</time>
      </trkpt>
      <trkpt lat="47.432" lon="6.81213">
        <ele>405</ele>
        <time>2016-10-01T15:32:01.000Z</time>
      </trkpt>
      <trkpt lat="47.43205" lon="6.81218">
        <ele>405</ele>
        <time>2016-10-01T15:32:02.000Z</time>
      </trkpt>
      <trkpt lat="47.43211" lon="6.81222">
        <ele>405</ele>
        <time>2016-10-01T15:32:03.000Z</time>
      </trkpt>
      <trkpt lat="47.43214" lon="6.81225">
        <ele>405</ele>
        <time>2016-10-01T15:32:04.000Z</time>
      </trkpt>
      <trkpt lat="47.43219" lon="6.81228">
        <ele>405</ele>
        <time>2016-10-01T15:32:05.000Z</time>
      </trkpt>
      <trkpt lat="47.43225" lon="6.81231">
        <ele>405</ele>
        <time>2016-10-01T15:32:06.000Z</time>
      </trkpt>
      <trkpt lat="47.4323" lon="6.81235">
        <ele>404</ele>
        <time>2016-10-01T15:32:07.000Z</time>
      </trkpt>
      <trkpt lat="47.43235" lon="6.81238">
        <ele>404</ele>
        <time>2016-10-01T15:32:08.000Z</time>
      </trkpt>
      <trkpt lat="47.4324" lon="6.8124">
        <ele>404</ele>
        <time>2016-10-01T15:32:09.000Z</time>
      </trkpt>
      <trkpt lat="47.43246" lon="6.81241">
        <ele>403</ele>
        <time>2016-10-01T15:32:10.000Z</time>
      </trkpt>
      <trkpt lat="47.43251" lon="6.81245">
        <ele>403</ele>
        <time>2016-10-01T15:32:11.000Z</time>
      </trkpt>
      <trkpt lat="47.43257" lon="6.81251">
        <ele>403</ele>
        <time>2016-10-01T15:32:12.000Z</time>
      </trkpt>
      <trkpt lat="47.43264" lon="6.81257">
        <ele>403</ele>
        <time>2016-10-01T15:32:13.000Z</time>
      </trkpt>
      <trkpt lat="47.4327" lon="6.8126">
        <ele>404</ele>
        <time>2016-10-01T15:32:14.000Z</time>
      </trkpt>
      <trkpt lat="47.43275" lon="6.81264">
        <ele>404</ele>
        <time>2016-10-01T15:32:15.000Z</time>
      </trkpt>
      <trkpt lat="47.43279" lon="6.81267">
        <ele>404</ele>
        <time>2016-10-01T15:32:16.000Z</time>
      </trkpt>
      <trkpt lat="47.43284" lon="6.81271">
        <ele>404</ele>
        <time>2016-10-01T15:32:17.000Z</time>
      </trkpt>
      <trkpt lat="47.43291" lon="6.81274">
        <ele>404</ele>
        <time>2016-10-01T15:32:18.000Z</time>
      </trkpt>
      <trkpt lat="47.43293" lon="6.81278">
        <ele>404</ele>
        <time>2016-10-01T15:32:19.000Z</time>
      </trkpt>
      <trkpt lat="47.433" lon="6.81281">
        <ele>404</ele>
        <time>2016-10-01T15:32:20.000Z</time>
      </trkpt>
      <trkpt lat="47.43306" lon="6.81284">
        <ele>404</ele>
        <time>2016-10-01T15:32:21.000Z</time>
      </trkpt>
      <trkpt lat="47.43312" lon="6.81288">
        <ele>404</ele>
        <time>2016-10-01T15:32:22.000Z</time>
      </trkpt>
      <trkpt lat="47.43315" lon="6.81294">
        <ele>404</ele>
        <time>2016-10-01T15:32:23.000Z</time>
      </trkpt>
      <trkpt lat="47.43322" lon="6.81299">
        <ele>404</ele>
        <time>2016-10-01T15:32:24.000Z</time>
      </trkpt>
      <trkpt lat="47.43326" lon="6.81302">
        <ele>404</ele>
        <time>2016-10-01T15:32:25.000Z</time>
      </trkpt>
      <trkpt lat="47.43329" lon="6.81305">
        <ele>404</ele>
        <time>2016-10-01T15:32:26.000Z</time>
      </trkpt>
      <trkpt lat="47.43333" lon="6.81308">
        <ele>404</ele>
        <time>2016-10-01T15:32:27.000Z</time>
      </trkpt>
      <trkpt lat="47.43337" lon="6.81311">
        <ele>401</ele>
        <time>2016-10-01T15:32:28.000Z</time>
      </trkpt>
      <trkpt lat="47.4334" lon="6.81315">
        <ele>401</ele>
        <time>2016-10-01T15:32:29.000Z</time>
      </trkpt>
      <trkpt lat="47.43346" lon="6.81318">
        <ele>401</ele>
        <time>2016-10-01T15:32:30.000Z</time>
      </trkpt>
      <trkpt lat="47.43349" lon="6.81321">
        <ele>401</ele>
        <time>2016-10-01T15:32:31.000Z</time>
      </trkpt>
      <trkpt lat="47.43356" lon="6.81324">
        <ele>401</ele>
        <time>2016-10-01T15:32:32.000Z</time>
      </trkpt>
      <trkpt lat="47.4336" lon="6.81327">
        <ele>401</ele>
        <time>2016-10-01T15:32:33.000Z</time>
      </trkpt>
      <trkpt lat="47.43365" lon="6.81329">
        <ele>400</ele>
        <time>2016-10-01T15:32:34.000Z</time>
      </trkpt>
      <trkpt lat="47.4337" lon="6.81333">
        <ele>400</ele>
        <time>2016-10-01T15:32:35.000Z</time>
      </trkpt>
      <trkpt lat="47.43376" lon="6.81336">
        <ele>401</ele>
        <time>2016-10-01T15:32:36.000Z</time>
      </trkpt>
      <trkpt lat="47.43382" lon="6.8134">
        <ele>401</ele>
        <time>2016-10-01T15:32:37.000Z</time>
      </trkpt>
      <trkpt lat="47.43387" lon="6.81343">
        <ele>400</ele>
        <time>2016-10-01T15:32:38.000Z</time>
      </trkpt>
      <trkpt lat="47.43392" lon="6.81347">
        <ele>400</ele>
        <time>2016-10-01T15:32:39.000Z</time>
      </trkpt>
      <trkpt lat="47.43397" lon="6.81352">
        <ele>400</ele>
        <time>2016-10-01T15:32:40.000Z</time>
      </trkpt>
      <trkpt lat="47.43404" lon="6.81356">
        <ele>400</ele>
        <time>2016-10-01T15:32:41.000Z</time>
      </trkpt>
      <trkpt lat="47.43409" lon="6.81361">
        <ele>400</ele>
        <time>2016-10-01T15:32:42.000Z</time>
      </trkpt>
      <trkpt lat="47.43414" lon="6.81366">
        <ele>400</ele>
        <time>2016-10-01T15:32:43.000Z</time>
      </trkpt>
      <trkpt lat="47.43419" lon="6.8137">
        <ele>395</ele>
        <time>2016-10-01T15:32:44.000Z</time>
      </trkpt>
      <trkpt lat="47.43421" lon="6.81373">
        <ele>395</ele>
        <time>2016-10-01T15:32:45.000Z</time>
      </trkpt>
      <trkpt lat="47.43425" lon="6.81377">
        <ele>395</ele>
        <time>2016-10-01T15:32:46.000Z</time>
      </trkpt>
      <trkpt lat="47.43429" lon="6.81382">
        <ele>395</ele>
        <time>2016-10-01T15:32:47.000Z</time>
      </trkpt>
      <trkpt lat="47.43431" lon="6.81387">
        <ele>395</ele>
        <time>2016-10-01T15:32:48.000Z</time>
      </trkpt>
      <trkpt lat="47.43433" lon="6.81392">
        <ele>395</ele>
        <time>2016-10-01T15:32:49.000Z</time>
      </trkpt>
      <trkpt lat="47.43439" lon="6.81398">
        <ele>395</ele>
        <time>2016-10-01T15:32:50.000Z</time>
      </trkpt>
      <trkpt lat="47.43445" lon="6.81403">
        <ele>395</ele>
        <time>2016-10-01T15:32:51.000Z</time>
      </trkpt>
      <trkpt lat="47.4345" lon="6.81407">
        <ele>394</ele>
        <time>2016-10-01T15:32:52.000Z</time>
      </trkpt>
      <trkpt lat="47.43453" lon="6.81416">
        <ele>394</ele>
        <time>2016-10-01T15:32:53.000Z</time>
      </trkpt>
      <trkpt lat="47.43458" lon="6.81424">
        <ele>393</ele>
        <time>2016-10-01T15:32:54.000Z</time>
      </trkpt>
      <trkpt lat="47.43464" lon="6.81432">
        <ele>392</ele>
        <time>2016-10-01T15:32:55.000Z</time>
      </trkpt>
      <trkpt lat="47.43469" lon="6.81437">
        <ele>392</ele>
        <time>2016-10-01T15:32:56.000Z</time>
      </trkpt>
      <trkpt lat="47.43474" lon="6.81446">
        <ele>391</ele>
        <time>2016-10-01T15:32:57.000Z</time>
      </trkpt>
      <trkpt lat="47.43478" lon="6.81453">
        <ele>391</ele>
        <time>2016-10-01T15:32:58.000Z</time>
      </trkpt>
      <trkpt lat="47.43487" lon="6.81458">
        <ele>391</ele>
        <time>2016-10-01T15:32:59.000Z</time>
      </trkpt>
      <trkpt lat="47.43496" lon="6.81463">
        <ele>390</ele>
        <time>2016-10-01T15:33:00.000Z</time>
      </trkpt>
      <trkpt lat="47.43502" lon="6.81468">
        <ele>386</ele>
        <time>2016-10-01T15:33:01.000Z</time>
      </trkpt>
      <trkpt lat="47.43509" lon="6.81473">
        <ele>386</ele>
        <time>2016-10-01T15:33:02.000Z</time>
      </trkpt>
      <trkpt lat="47.43519" lon="6.81478">
        <ele>386</ele>
        <time>2016-10-01T15:33:03.000Z</time>
      </trkpt>
      <trkpt lat="47.43528" lon="6.81482">
        <ele>386</ele>
        <time>2016-10-01T15:33:04.000Z</time>
      </trkpt>
      <trkpt lat="47.43537" lon="6.81488">
        <ele>386</ele>
        <time>2016-10-01T15:33:05.000Z</time>
      </trkpt>
      <trkpt lat="47.43543" lon="6.8149">
        <ele>386</ele>
        <time>2016-10-01T15:33:06.000Z</time>
      </trkpt>
      <trkpt lat="47.43549" lon="6.81494">
        <ele>385</ele>
        <time>2016-10-01T15:33:07.000Z</time>
      </trkpt>
      <trkpt lat="47.43554" lon="6.81495">
        <ele>385</ele>
        <time>2016-10-01T15:33:08.000Z</time>
      </trkpt>
      <trkpt lat="47.43561" lon="6.81492">
        <ele>385</ele>
        <time>2016-10-01T15:33:09.000Z</time>
      </trkpt>
      <trkpt lat="47.43567" lon="6.81491">
        <ele>385</ele>
        <time>2016-10-01T15:33:10.000Z</time>
      </trkpt>
      <trkpt lat="47.43572" lon="6.81488">
        <ele>385</ele>
        <time>2016-10-01T15:33:11.000Z</time>
      </trkpt>
      <trkpt lat="47.43577" lon="6.81485">
        <ele>385</ele>
        <time>2016-10-01T15:33:12.000Z</time>
      </trkpt>
      <trkpt lat="47.4358" lon="6.81488">
        <ele>384</ele>
        <time>2016-10-01T15:33:13.000Z</time>
      </trkpt>
      <trkpt lat="47.43582" lon="6.81489">
        <ele>384</ele>
        <time>2016-10-01T15:33:14.000Z</time>
      </trkpt>
      <trkpt lat="47.43582" lon="6.81491">
        <ele>384</ele>
        <time>2016-10-01T15:33:22.000Z</time>
      </trkpt>
      <trkpt lat="47.43587" lon="6.81494">
        <ele>383</ele>
        <time>2016-10-01T15:33:23.000Z</time>
      </trkpt>
      <trkpt lat="47.4359" lon="6.81498">
        <ele>383</ele>
        <time>2016-10-01T15:33:27.000Z</time>
      </trkpt>
      <trkpt lat="47.43591" lon="6.81499">
        <ele>383</ele>
        <time>2016-10-01T15:33:27.999Z</time>
      </trkpt>
      <trkpt lat="47.43594" lon="6.81499">
        <ele>384</ele>
        <time>2016-10-01T15:33:30.000Z</time>
      </trkpt>
      <trkpt lat="47.43596" lon="6.81499">
        <ele>384</ele>
        <time>2016-10-01T15:33:30.999Z</time>
      </trkpt>
      <trkpt lat="47.43597" lon="6.81505">
        <ele>382</ele>
        <time>2016-10-01T15:33:34.999Z</time>
      </trkpt>
      <trkpt lat="47.43597" lon="6.81507">
        <ele>382</ele>
        <time>2016-10-01T15:33:36.000Z</time>
      </trkpt>
      <trkpt lat="47.436" lon="6.81509">
        <ele>381</ele>
        <time>2016-10-01T15:33:37.999Z</time>
      </trkpt>
      <trkpt lat="47.43603" lon="6.8151">
        <ele>381</ele>
        <time>2016-10-01T15:33:39.000Z</time>
      </trkpt>
      <trkpt lat="47.43605" lon="6.81512">
        <ele>381</ele>
        <time>2016-10-01T15:33:40.000Z</time>
      </trkpt>
      <trkpt lat="47.43607" lon="6.81514">
        <ele>381</ele>
        <time>2016-10-01T15:33:41.000Z</time>
      </trkpt>
      <trkpt lat="47.43611" lon="6.81515">
        <ele>381</ele>
        <time>2016-10-01T15:33:43.000Z</time>
      </trkpt>
      <trkpt lat="47.43614" lon="6.81514">
        <ele>381</ele>
        <time>2016-10-01T15:33:44.000Z</time>
      </trkpt>
      <trkpt lat="47.43616" lon="6.81514">
        <ele>381</ele>
        <time>2016-10-01T15:33:45.000Z</time>
      </trkpt>
      <trkpt lat="47.43618" lon="6.81514">
        <ele>381</ele>
        <time>2016-10-01T15:33:46.000Z</time>
      </trkpt>
      <trkpt lat="47.43621" lon="6.81516">
        <ele>381</ele>
        <time>2016-10-01T15:33:47.999Z</time>
      </trkpt>
      <trkpt lat="47.43625" lon="6.81516">
        <ele>381</ele>
        <time>2016-10-01T15:33:49.000Z</time>
      </trkpt>
      <trkpt lat="47.43629" lon="6.81517">
        <ele>381</ele>
        <time>2016-10-01T15:33:51.000Z</time>
      </trkpt>
      <trkpt lat="47.4363" lon="6.81518">
        <ele>381</ele>
        <time>2016-10-01T15:33:52.000Z</time>
      </trkpt>
      <trkpt lat="47.43634" lon="6.81519">
        <ele>381</ele>
        <time>2016-10-01T15:33:54.000Z</time>
      </trkpt>
      <trkpt lat="47.43636" lon="6.81519">
        <ele>381</ele>
        <time>2016-10-01T15:33:55.000Z</time>
      </trkpt>
      <trkpt lat="47.43639" lon="6.81519">
        <ele>381</ele>
        <time>2016-10-01T15:33:56.000Z</time>
      </trkpt>
      <trkpt lat="47.43642" lon="6.81518">
        <ele>381</ele>
        <time>2016-10-01T15:33:57.000Z</time>
      </trkpt>
      <trkpt lat="47.43644" lon="6.81518">
        <ele>381</ele>
        <time>2016-10-01T15:33:58.000Z</time>
      </trkpt>
      <trkpt lat="47.43646" lon="6.81516">
        <ele>381</ele>
        <time>2016-10-01T15:33:59.000Z</time>
      </trkpt>
      <trkpt lat="47.43649" lon="6.81513">
        <ele>382</ele>
        <time>2016-10-01T15:34:02.000Z</time>
      </trkpt>
      <trkpt lat="47.4365" lon="6.81511">
        <ele>382</ele>
        <time>2016-10-01T15:34:03.000Z</time>
      </trkpt>
      <trkpt lat="47.43652" lon="6.81506">
        <ele>382</ele>
        <time>2016-10-01T15:34:05.000Z</time>
      </trkpt>
      <trkpt lat="47.43652" lon="6.81503">
        <ele>382</ele>
        <time>2016-10-01T15:34:06.000Z</time>
      </trkpt>
      <trkpt lat="47.43652" lon="6.81497">
        <ele>385</ele>
        <time>2016-10-01T15:34:09.000Z</time>
      </trkpt>
      <trkpt lat="47.43652" lon="6.81496">
        <ele>385</ele>
        <time>2016-10-01T15:34:10.000Z</time>
      </trkpt>
      <trkpt lat="47.4365" lon="6.8149">
        <ele>385</ele>
        <time>2016-10-01T15:34:13.000Z</time>
      </trkpt>
      <trkpt lat="47.43649" lon="6.81489">
        <ele>385</ele>
        <time>2016-10-01T15:34:14.000Z</time>
      </trkpt>
      <trkpt lat="47.43646" lon="6.81485">
        <ele>385</ele>
        <time>2016-10-01T15:34:18.000Z</time>
      </trkpt>
      <trkpt lat="47.43645" lon="6.81484">
        <ele>385</ele>
        <time>2016-10-01T15:34:19.000Z</time>
      </trkpt>
      <trkpt lat="47.43642" lon="6.81481">
        <ele>386</ele>
        <time>2016-10-01T15:34:21.000Z</time>
      </trkpt>
      <trkpt lat="47.4364" lon="6.8148">
        <ele>386</ele>
        <time>2016-10-01T15:34:22.000Z</time>
      </trkpt>
      <trkpt lat="47.43637" lon="6.81476">
        <ele>386</ele>
        <time>2016-10-01T15:34:24.000Z</time>
      </trkpt>
      <trkpt lat="47.43635" lon="6.81474">
        <ele>386</ele>
        <time>2016-10-01T15:34:25.000Z</time>
      </trkpt>
      <trkpt lat="47.43633" lon="6.81469">
        <ele>386</ele>
        <time>2016-10-01T15:34:27.000Z</time>
      </trkpt>
      <trkpt lat="47.43631" lon="6.81468">
        <ele>386</ele>
        <time>2016-10-01T15:34:28.000Z</time>
      </trkpt>
      <trkpt lat="47.43628" lon="6.81464">
        <ele>387</ele>
        <time>2016-10-01T15:34:30.000Z</time>
      </trkpt>
      <trkpt lat="47.43626" lon="6.81462">
        <ele>387</ele>
        <time>2016-10-01T15:34:31.000Z</time>
      </trkpt>
      <trkpt lat="47.43622" lon="6.81465">
        <ele>387</ele>
        <time>2016-10-01T15:34:35.000Z</time>
      </trkpt>
      <trkpt lat="47.43621" lon="6.81466">
        <ele>387</ele>
        <time>2016-10-01T15:34:36.000Z</time>
      </trkpt>
      <trkpt lat="47.43619" lon="6.81465">
        <ele>387</ele>
        <time>2016-10-01T15:34:38.000Z</time>
      </trkpt>
      <trkpt lat="47.43617" lon="6.81463">
        <ele>387</ele>
        <time>2016-10-01T15:34:39.000Z</time>
      </trkpt>
      <trkpt lat="47.43615" lon="6.81459">
        <ele>387</ele>
        <time>2016-10-01T15:34:41.000Z</time>
      </trkpt>
      <trkpt lat="47.43614" lon="6.81457">
        <ele>387</ele>
        <time>2016-10-01T15:34:42.000Z</time>
      </trkpt>
      <trkpt lat="47.43613" lon="6.81453">
        <ele>388</ele>
        <time>2016-10-01T15:34:44.000Z</time>
      </trkpt>
      <trkpt lat="47.43613" lon="6.8145">
        <ele>388</ele>
        <time>2016-10-01T15:34:45.000Z</time>
      </trkpt>
      <trkpt lat="47.43613" lon="6.81444">
        <ele>388</ele>
        <time>2016-10-01T15:34:47.000Z</time>
      </trkpt>
      <trkpt lat="47.43612" lon="6.81442">
        <ele>389</ele>
        <time>2016-10-01T15:34:48.000Z</time>
      </trkpt>
      <trkpt lat="47.43611" lon="6.81436">
        <ele>389</ele>
        <time>2016-10-01T15:34:51.000Z</time>
      </trkpt>
      <trkpt lat="47.43611" lon="6.81435">
        <ele>389</ele>
        <time>2016-10-01T15:34:52.000Z</time>
      </trkpt>
      <trkpt lat="47.43611" lon="6.8143">
        <ele>389</ele>
        <time>2016-10-01T15:34:57.000Z</time>
      </trkpt>
      <trkpt lat="47.43612" lon="6.81427">
        <ele>390</ele>
        <time>2016-10-01T15:34:58.000Z</time>
      </trkpt>
      <trkpt lat="47.43613" lon="6.81424">
        <ele>390</ele>
        <time>2016-10-01T15:34:59.000Z</time>
      </trkpt>
      <trkpt lat="47.43614" lon="6.8142">
        <ele>390</ele>
        <time>2016-10-01T15:35:00.000Z</time>
      </trkpt>
      <trkpt lat="47.43615" lon="6.81416">
        <ele>396</ele>
        <time>2016-10-01T15:35:01.000Z</time>
      </trkpt>
      <trkpt lat="47.43616" lon="6.81413">
        <ele>396</ele>
        <time>2016-10-01T15:35:02.000Z</time>
      </trkpt>
      <trkpt lat="47.43616" lon="6.8141">
        <ele>397</ele>
        <time>2016-10-01T15:35:03.000Z</time>
      </trkpt>
      <trkpt lat="47.43616" lon="6.81406">
        <ele>397</ele>
        <time>2016-10-01T15:35:04.001Z</time>
      </trkpt>
      <trkpt lat="47.43617" lon="6.81402">
        <ele>397</ele>
        <time>2016-10-01T15:35:05.000Z</time>
      </trkpt>
      <trkpt lat="47.43618" lon="6.81398">
        <ele>397</ele>
        <time>2016-10-01T15:35:06.000Z</time>
      </trkpt>
      <trkpt lat="47.4362" lon="6.81394">
        <ele>397</ele>
        <time>2016-10-01T15:35:07.000Z</time>
      </trkpt>
      <trkpt lat="47.43621" lon="6.8139">
        <ele>397</ele>
        <time>2016-10-01T15:35:08.000Z</time>
      </trkpt>
      <trkpt lat="47.43622" lon="6.81387">
        <ele>398</ele>
        <time>2016-10-01T15:35:09.000Z</time>
      </trkpt>
      <trkpt lat="47.43623" lon="6.81384">
        <ele>398</ele>
        <time>2016-10-01T15:35:10.000Z</time>
      </trkpt>
      <trkpt lat="47.43625" lon="6.8138">
        <ele>398</ele>
        <time>2016-10-01T15:35:11.000Z</time>
      </trkpt>
      <trkpt lat="47.43626" lon="6.81377">
        <ele>398</ele>
        <time>2016-10-01T15:35:12.000Z</time>
      </trkpt>
      <trkpt lat="47.43627" lon="6.81375">
        <ele>398</ele>
        <time>2016-10-01T15:35:13.001Z</time>
      </trkpt>
      <trkpt lat="47.43629" lon="6.81369">
        <ele>398</ele>
        <time>2016-10-01T15:35:14.000Z</time>
      </trkpt>
      <trkpt lat="47.4363" lon="6.81365">
        <ele>399</ele>
        <time>2016-10-01T15:35:15.000Z</time>
      </trkpt>
      <trkpt lat="47.43631" lon="6.81362">
        <ele>399</ele>
        <time>2016-10-01T15:35:16.000Z</time>
      </trkpt>
      <trkpt lat="47.43632" lon="6.81356">
        <ele>399</ele>
        <time>2016-10-01T15:35:18.000Z</time>
      </trkpt>
      <trkpt lat="47.43632" lon="6.81353">
        <ele>399</ele>
        <time>2016-10-01T15:35:19.000Z</time>
      </trkpt>
      <trkpt lat="47.43633" lon="6.81349">
        <ele>399</ele>
        <time>2016-10-01T15:35:20.000Z</time>
      </trkpt>
      <trkpt lat="47.43634" lon="6.81346">
        <ele>399</ele>
        <time>2016-10-01T15:35:21.000Z</time>
      </trkpt>
      <trkpt lat="47.43635" lon="6.81343">
        <ele>399</ele>
        <time>2016-10-01T15:35:22.000Z</time>
      </trkpt>
      <trkpt lat="47.43636" lon="6.81338">
        <ele>399</ele>
        <time>2016-10-01T15:35:23.000Z</time>
      </trkpt>
      <trkpt lat="47.43637" lon="6.81334">
        <ele>399</ele>
        <time>2016-10-01T15:35:24.000Z</time>
      </trkpt>
      <trkpt lat="47.43639" lon="6.8133">
        <ele>407</ele>
        <time>2016-10-01T15:35:25.000Z</time>
      </trkpt>
      <trkpt lat="47.4364" lon="6.81326">
        <ele>407</ele>
        <time>2016-10-01T15:35:26.000Z</time>
      </trkpt>
      <trkpt lat="47.43641" lon="6.81323">
        <ele>407</ele>
        <time>2016-10-01T15:35:27.001Z</time>
      </trkpt>
      <trkpt lat="47.43642" lon="6.81319">
        <ele>407</ele>
        <time>2016-10-01T15:35:28.000Z</time>
      </trkpt>
      <trkpt lat="47.43643" lon="6.81316">
        <ele>408</ele>
        <time>2016-10-01T15:35:29.000Z</time>
      </trkpt>
      <trkpt lat="47.43645" lon="6.81312">
        <ele>408</ele>
        <time>2016-10-01T15:35:30.000Z</time>
      </trkpt>
      <trkpt lat="47.43646" lon="6.81308">
        <ele>408</ele>
        <time>2016-10-01T15:35:31.000Z</time>
      </trkpt>
      <trkpt lat="47.43647" lon="6.81305">
        <ele>409</ele>
        <time>2016-10-01T15:35:32.000Z</time>
      </trkpt>
      <trkpt lat="47.43649" lon="6.81302">
        <ele>409</ele>
        <time>2016-10-01T15:35:32.998Z</time>
      </trkpt>
      <trkpt lat="47.43649" lon="6.81297">
        <ele>409</ele>
        <time>2016-10-01T15:35:34.000Z</time>
      </trkpt>
      <trkpt lat="47.43649" lon="6.81294">
        <ele>410</ele>
        <time>2016-10-01T15:35:35.000Z</time>
      </trkpt>
      <trkpt lat="47.43651" lon="6.8129">
        <ele>410</ele>
        <time>2016-10-01T15:35:37.000Z</time>
      </trkpt>
      <trkpt lat="47.43652" lon="6.81288">
        <ele>410</ele>
        <time>2016-10-01T15:35:37.999Z</time>
      </trkpt>
      <trkpt lat="47.43655" lon="6.81284">
        <ele>410</ele>
        <time>2016-10-01T15:35:39.000Z</time>
      </trkpt>
      <trkpt lat="47.43658" lon="6.8128">
        <ele>410</ele>
        <time>2016-10-01T15:35:40.000Z</time>
      </trkpt>
      <trkpt lat="47.4366" lon="6.81277">
        <ele>410</ele>
        <time>2016-10-01T15:35:41.000Z</time>
      </trkpt>
      <trkpt lat="47.43663" lon="6.81273">
        <ele>410</ele>
        <time>2016-10-01T15:35:42.000Z</time>
      </trkpt>
      <trkpt lat="47.43665" lon="6.8127">
        <ele>410</ele>
        <time>2016-10-01T15:35:43.000Z</time>
      </trkpt>
      <trkpt lat="47.43668" lon="6.81266">
        <ele>401</ele>
        <time>2016-10-01T15:35:44.000Z</time>
      </trkpt>
      <trkpt lat="47.4367" lon="6.81263">
        <ele>402</ele>
        <time>2016-10-01T15:35:45.000Z</time>
      </trkpt>
      <trkpt lat="47.43672" lon="6.8126">
        <ele>403</ele>
        <time>2016-10-01T15:35:46.000Z</time>
      </trkpt>
      <trkpt lat="47.4368" lon="6.81249">
        <ele>406</ele>
        <time>2016-10-01T15:35:47.000Z</time>
      </trkpt>
      <trkpt lat="47.43683" lon="6.81246">
        <ele>405</ele>
        <time>2016-10-01T15:35:48.000Z</time>
      </trkpt>
      <trkpt lat="47.43685" lon="6.81243">
        <ele>405</ele>
        <time>2016-10-01T15:35:49.001Z</time>
      </trkpt>
      <trkpt lat="47.43687" lon="6.81239">
        <ele>405</ele>
        <time>2016-10-01T15:35:50.000Z</time>
      </trkpt>
      <trkpt lat="47.43688" lon="6.81231">
        <ele>405</ele>
        <time>2016-10-01T15:35:51.000Z</time>
      </trkpt>
      <trkpt lat="47.43689" lon="6.81228">
        <ele>404</ele>
        <time>2016-10-01T15:35:51.998Z</time>
      </trkpt>
      <trkpt lat="47.43691" lon="6.81225">
        <ele>404</ele>
        <time>2016-10-01T15:35:53.000Z</time>
      </trkpt>
      <trkpt lat="47.43695" lon="6.81222">
        <ele>404</ele>
        <time>2016-10-01T15:35:54.000Z</time>
      </trkpt>
      <trkpt lat="47.43697" lon="6.81218">
        <ele>404</ele>
        <time>2016-10-01T15:35:55.000Z</time>
      </trkpt>
      <trkpt lat="47.437" lon="6.81215">
        <ele>403</ele>
        <time>2016-10-01T15:35:56.000Z</time>
      </trkpt>
      <trkpt lat="47.43702" lon="6.81212">
        <ele>403</ele>
        <time>2016-10-01T15:35:57.000Z</time>
      </trkpt>
      <trkpt lat="47.43704" lon="6.81209">
        <ele>403</ele>
        <time>2016-10-01T15:35:58.000Z</time>
      </trkpt>
      <trkpt lat="47.43706" lon="6.81206">
        <ele>403</ele>
        <time>2016-10-01T15:35:59.001Z</time>
      </trkpt>
      <trkpt lat="47.43707" lon="6.81202">
        <ele>403</ele>
        <time>2016-10-01T15:36:00.001Z</time>
      </trkpt>
      <trkpt lat="47.43708" lon="6.81199">
        <ele>403</ele>
        <time>2016-10-01T15:36:01.000Z</time>
      </trkpt>
      <trkpt lat="47.4371" lon="6.81193">
        <ele>403</ele>
        <time>2016-10-01T15:36:03.000Z</time>
      </trkpt>
      <trkpt lat="47.43711" lon="6.8119">
        <ele>403</ele>
        <time>2016-10-01T15:36:04.000Z</time>
      </trkpt>
      <trkpt lat="47.43713" lon="6.81188">
        <ele>403</ele>
        <time>2016-10-01T15:36:05.000Z</time>
      </trkpt>
      <trkpt lat="47.43715" lon="6.81186">
        <ele>403</ele>
        <time>2016-10-01T15:36:06.000Z</time>
      </trkpt>
      <trkpt lat="47.43719" lon="6.81184">
        <ele>402</ele>
        <time>2016-10-01T15:36:08.000Z</time>
      </trkpt>
      <trkpt lat="47.43721" lon="6.81183">
        <ele>402</ele>
        <time>2016-10-01T15:36:09.000Z</time>
      </trkpt>
      <trkpt lat="47.43723" lon="6.81181">
        <ele>401</ele>
        <time>2016-10-01T15:36:10.000Z</time>
      </trkpt>
      <trkpt lat="47.43726" lon="6.81179">
        <ele>401</ele>
        <time>2016-10-01T15:36:11.000Z</time>
      </trkpt>
      <trkpt lat="47.43729" lon="6.81175">
        <ele>400</ele>
        <time>2016-10-01T15:36:12.000Z</time>
      </trkpt>
      <trkpt lat="47.43732" lon="6.8117">
        <ele>399</ele>
        <time>2016-10-01T15:36:13.000Z</time>
      </trkpt>
      <trkpt lat="47.43735" lon="6.81166">
        <ele>404</ele>
        <time>2016-10-01T15:36:14.000Z</time>
      </trkpt>
      <trkpt lat="47.43738" lon="6.81162">
        <ele>403</ele>
        <time>2016-10-01T15:36:15.000Z</time>
      </trkpt>
      <trkpt lat="47.4374" lon="6.81158">
        <ele>403</ele>
        <time>2016-10-01T15:36:16.000Z</time>
      </trkpt>
      <trkpt lat="47.43744" lon="6.81155">
        <ele>403</ele>
        <time>2016-10-01T15:36:17.000Z</time>
      </trkpt>
      <trkpt lat="47.43747" lon="6.81152">
        <ele>404</ele>
        <time>2016-10-01T15:36:18.000Z</time>
      </trkpt>
      <trkpt lat="47.4375" lon="6.81148">
        <ele>395</ele>
        <time>2016-10-01T15:36:19.000Z</time>
      </trkpt>
      <trkpt lat="47.43754" lon="6.81146">
        <ele>395</ele>
        <time>2016-10-01T15:36:20.000Z</time>
      </trkpt>
      <trkpt lat="47.43757" lon="6.81141">
        <ele>395</ele>
        <time>2016-10-01T15:36:21.000Z</time>
      </trkpt>
      <trkpt lat="47.4376" lon="6.81135">
        <ele>395</ele>
        <time>2016-10-01T15:36:22.000Z</time>
      </trkpt>
      <trkpt lat="47.43763" lon="6.81129">
        <ele>396</ele>
        <time>2016-10-01T15:36:23.000Z</time>
      </trkpt>
      <trkpt lat="47.43766" lon="6.81123">
        <ele>396</ele>
        <time>2016-10-01T15:36:24.000Z</time>
      </trkpt>
      <trkpt lat="47.4377" lon="6.81116">
        <ele>397</ele>
        <time>2016-10-01T15:36:25.000Z</time>
      </trkpt>
      <trkpt lat="47.43774" lon="6.81111">
        <ele>397</ele>
        <time>2016-10-01T15:36:26.000Z</time>
      </trkpt>
      <trkpt lat="47.43777" lon="6.81104">
        <ele>398</ele>
        <time>2016-10-01T15:36:27.000Z</time>
      </trkpt>
      <trkpt lat="47.43781" lon="6.81096">
        <ele>398</ele>
        <time>2016-10-01T15:36:28.000Z</time>
      </trkpt>
      <trkpt lat="47.43783" lon="6.8109">
        <ele>398</ele>
        <time>2016-10-01T15:36:29.000Z</time>
      </trkpt>
      <trkpt lat="47.43786" lon="6.81083">
        <ele>405</ele>
        <time>2016-10-01T15:36:30.000Z</time>
      </trkpt>
      <trkpt lat="47.43789" lon="6.81077">
        <ele>405</ele>
        <time>2016-10-01T15:36:31.000Z</time>
      </trkpt>
      <trkpt lat="47.43792" lon="6.81072">
        <ele>405</ele>
        <time>2016-10-01T15:36:32.000Z</time>
      </trkpt>
      <trkpt lat="47.43795" lon="6.81067">
        <ele>404</ele>
        <time>2016-10-01T15:36:33.000Z</time>
      </trkpt>
      <trkpt lat="47.43798" lon="6.81064">
        <ele>404</ele>
        <time>2016-10-01T15:36:34.000Z</time>
      </trkpt>
      <trkpt lat="47.438" lon="6.8106">
        <ele>404</ele>
        <time>2016-10-01T15:36:35.000Z</time>
      </trkpt>
      <trkpt lat="47.43803" lon="6.81057">
        <ele>404</ele>
        <time>2016-10-01T15:36:36.000Z</time>
      </trkpt>
      <trkpt lat="47.43806" lon="6.81053">
        <ele>404</ele>
        <time>2016-10-01T15:36:37.000Z</time>
      </trkpt>
      <trkpt lat="47.43808" lon="6.81049">
        <ele>404</ele>
        <time>2016-10-01T15:36:38.000Z</time>
      </trkpt>
      <trkpt lat="47.43812" lon="6.81043">
        <ele>404</ele>
        <time>2016-10-01T15:36:39.000Z</time>
      </trkpt>
      <trkpt lat="47.43815" lon="6.81039">
        <ele>404</ele>
        <time>2016-10-01T15:36:40.000Z</time>
      </trkpt>
      <trkpt lat="47.43818" lon="6.81035">
        <ele>404</ele>
        <time>2016-10-01T15:36:41.000Z</time>
      </trkpt>
      <trkpt lat="47.43821" lon="6.81032">
        <ele>404</ele>
        <time>2016-10-01T15:36:42.000Z</time>
      </trkpt>
      <trkpt lat="47.43833" lon="6.81019">
        <ele>395</ele>
        <time>2016-10-01T15:36:43.000Z</time>
      </trkpt>
      <trkpt lat="47.43837" lon="6.81016">
        <ele>395</ele>
        <time>2016-10-01T15:36:44.000Z</time>
      </trkpt>
      <trkpt lat="47.43842" lon="6.8101">
        <ele>396</ele>
        <time>2016-10-01T15:36:45.000Z</time>
      </trkpt>
      <trkpt lat="47.43845" lon="6.81006">
        <ele>396</ele>
        <time>2016-10-01T15:36:46.000Z</time>
      </trkpt>
      <trkpt lat="47.43849" lon="6.81001">
        <ele>396</ele>
        <time>2016-10-01T15:36:47.000Z</time>
      </trkpt>
      <trkpt lat="47.43853" lon="6.80997">
        <ele>398</ele>
        <time>2016-10-01T15:36:48.000Z</time>
      </trkpt>
      <trkpt lat="47.43856" lon="6.80994">
        <ele>398</ele>
        <time>2016-10-01T15:36:49.000Z</time>
      </trkpt>
      <trkpt lat="47.43858" lon="6.8099">
        <ele>398</ele>
        <time>2016-10-01T15:36:50.000Z</time>
      </trkpt>
      <trkpt lat="47.43862" lon="6.80987">
        <ele>397</ele>
        <time>2016-10-01T15:36:51.000Z</time>
      </trkpt>
      <trkpt lat="47.43866" lon="6.80981">
        <ele>397</ele>
        <time>2016-10-01T15:36:52.000Z</time>
      </trkpt>
      <trkpt lat="47.43869" lon="6.80975">
        <ele>396</ele>
        <time>2016-10-01T15:36:53.000Z</time>
      </trkpt>
      <trkpt lat="47.43872" lon="6.8097">
        <ele>396</ele>
        <time>2016-10-01T15:36:54.000Z</time>
      </trkpt>
      <trkpt lat="47.43874" lon="6.80964">
        <ele>396</ele>
        <time>2016-10-01T15:36:55.000Z</time>
      </trkpt>
      <trkpt lat="47.43876" lon="6.80959">
        <ele>396</ele>
        <time>2016-10-01T15:36:56.000Z</time>
      </trkpt>
      <trkpt lat="47.43879" lon="6.80954">
        <ele>396</ele>
        <time>2016-10-01T15:36:57.000Z</time>
      </trkpt>
      <trkpt lat="47.43881" lon="6.80949">
        <ele>396</ele>
        <time>2016-10-01T15:36:58.000Z</time>
      </trkpt>
      <trkpt lat="47.43883" lon="6.80943">
        <ele>396</ele>
        <time>2016-10-01T15:36:59.000Z</time>
      </trkpt>
      <trkpt lat="47.43885" lon="6.80938">
        <ele>396</ele>
        <time>2016-10-01T15:37:00.000Z</time>
      </trkpt>
      <trkpt lat="47.43888" lon="6.80931">
        <ele>395</ele>
        <time>2016-10-01T15:37:01.000Z</time>
      </trkpt>
      <trkpt lat="47.43891" lon="6.80921">
        <ele>395</ele>
        <time>2016-10-01T15:37:02.000Z</time>
      </trkpt>
      <trkpt lat="47.43893" lon="6.80912">
        <ele>397</ele>
        <time>2016-10-01T15:37:03.000Z</time>
      </trkpt>
      <trkpt lat="47.43896" lon="6.80903">
        <ele>397</ele>
        <time>2016-10-01T15:37:04.000Z</time>
      </trkpt>
      <trkpt lat="47.43899" lon="6.80895">
        <ele>398</ele>
        <time>2016-10-01T15:37:05.000Z</time>
      </trkpt>
      <trkpt lat="47.43902" lon="6.80889">
        <ele>398</ele>
        <time>2016-10-01T15:37:06.000Z</time>
      </trkpt>
      <trkpt lat="47.43906" lon="6.80881">
        <ele>398</ele>
        <time>2016-10-01T15:37:07.000Z</time>
      </trkpt>
      <trkpt lat="47.43914" lon="6.80862">
        <ele>398</ele>
        <time>2016-10-01T15:37:08.000Z</time>
      </trkpt>
      <trkpt lat="47.43917" lon="6.80855">
        <ele>390</ele>
        <time>2016-10-01T15:37:09.000Z</time>
      </trkpt>
      <trkpt lat="47.43922" lon="6.80848">
        <ele>391</ele>
        <time>2016-10-01T15:37:10.000Z</time>
      </trkpt>
      <trkpt lat="47.43925" lon="6.80842">
        <ele>391</ele>
        <time>2016-10-01T15:37:11.000Z</time>
      </trkpt>
      <trkpt lat="47.43928" lon="6.80835">
        <ele>391</ele>
        <time>2016-10-01T15:37:12.000Z</time>
      </trkpt>
      <trkpt lat="47.43932" lon="6.80826">
        <ele>392</ele>
        <time>2016-10-01T15:37:13.000Z</time>
      </trkpt>
      <trkpt lat="47.43929" lon="6.80813">
        <ele>391</ele>
        <time>2016-10-01T15:37:14.000Z</time>
      </trkpt>
      <trkpt lat="47.43935" lon="6.80796">
        <ele>391</ele>
        <time>2016-10-01T15:37:15.000Z</time>
      </trkpt>
      <trkpt lat="47.43937" lon="6.8079">
        <ele>391</ele>
        <time>2016-10-01T15:37:16.000Z</time>
      </trkpt>
      <trkpt lat="47.4394" lon="6.80783">
        <ele>391</ele>
        <time>2016-10-01T15:37:17.000Z</time>
      </trkpt>
      <trkpt lat="47.43944" lon="6.80777">
        <ele>391</ele>
        <time>2016-10-01T15:37:18.000Z</time>
      </trkpt>
      <trkpt lat="47.43948" lon="6.80767">
        <ele>391</ele>
        <time>2016-10-01T15:37:19.000Z</time>
      </trkpt>
      <trkpt lat="47.4395" lon="6.80758">
        <ele>391</ele>
        <time>2016-10-01T15:37:20.000Z</time>
      </trkpt>
      <trkpt lat="47.43952" lon="6.80751">
        <ele>391</ele>
        <time>2016-10-01T15:37:21.000Z</time>
      </trkpt>
      <trkpt lat="47.43954" lon="6.80744">
        <ele>391</ele>
        <time>2016-10-01T15:37:22.000Z</time>
      </trkpt>
      <trkpt lat="47.43956" lon="6.80736">
        <ele>391</ele>
        <time>2016-10-01T15:37:23.000Z</time>
      </trkpt>
      <trkpt lat="47.4396" lon="6.80732">
        <ele>391</ele>
        <time>2016-10-01T15:37:24.000Z</time>
      </trkpt>
      <trkpt lat="47.43964" lon="6.80727">
        <ele>391</ele>
        <time>2016-10-01T15:37:25.000Z</time>
      </trkpt>
      <trkpt lat="47.43964" lon="6.80716">
        <ele>391</ele>
        <time>2016-10-01T15:37:26.000Z</time>
      </trkpt>
      <trkpt lat="47.43968" lon="6.80709">
        <ele>391</ele>
        <time>2016-10-01T15:37:27.000Z</time>
      </trkpt>
      <trkpt lat="47.43969" lon="6.80703">
        <ele>391</ele>
        <time>2016-10-01T15:37:33.000Z</time>
      </trkpt>
      <trkpt lat="47.4397" lon="6.80703">
        <ele>391</ele>
        <time>2016-10-01T15:37:34.000Z</time>
      </trkpt>
      <trkpt lat="47.43971" lon="6.80698">
        <ele>390</ele>
        <time>2016-10-01T15:37:41.000Z</time>
      </trkpt>
      <trkpt lat="47.43971" lon="6.80693">
        <ele>390</ele>
        <time>2016-10-01T15:37:42.000Z</time>
      </trkpt>
      <trkpt lat="47.43971" lon="6.80689">
        <ele>390</ele>
        <time>2016-10-01T15:37:43.000Z</time>
      </trkpt>
      <trkpt lat="47.43971" lon="6.80685">
        <ele>390</ele>
        <time>2016-10-01T15:37:44.000Z</time>
      </trkpt>
      <trkpt lat="47.4397" lon="6.80679">
        <ele>391</ele>
        <time>2016-10-01T15:37:45.000Z</time>
      </trkpt>
      <trkpt lat="47.43969" lon="6.80675">
        <ele>391</ele>
        <time>2016-10-01T15:37:46.000Z</time>
      </trkpt>
      <trkpt lat="47.43968" lon="6.80669">
        <ele>391</ele>
        <time>2016-10-01T15:37:48.098Z</time>
      </trkpt>
      <trkpt lat="47.43969" lon="6.80664">
        <ele>391</ele>
        <time>2016-10-01T15:37:49.000Z</time>
      </trkpt>
      <trkpt lat="47.43969" lon="6.8066">
        <ele>391</ele>
        <time>2016-10-01T15:37:50.000Z</time>
      </trkpt>
      <trkpt lat="47.43971" lon="6.80658">
        <ele>391</ele>
        <time>2016-10-01T15:37:51.000Z</time>
      </trkpt>
      <trkpt lat="47.43973" lon="6.80655">
        <ele>391</ele>
        <time>2016-10-01T15:37:52.000Z</time>
      </trkpt>
      <trkpt lat="47.43974" lon="6.80653">
        <ele>391</ele>
        <time>2016-10-01T15:37:53.000Z</time>
      </trkpt>
      <trkpt lat="47.43976" lon="6.80649">
        <ele>390</ele>
        <time>2016-10-01T15:37:54.000Z</time>
      </trkpt>
      <trkpt lat="47.43977" lon="6.80647">
        <ele>390</ele>
        <time>2016-10-01T15:37:54.999Z</time>
      </trkpt>
      <trkpt lat="47.43979" lon="6.80639">
        <ele>391</ele>
        <time>2016-10-01T15:37:56.000Z</time>
      </trkpt>
      <trkpt lat="47.4398" lon="6.80634">
        <ele>391</ele>
        <time>2016-10-01T15:37:57.000Z</time>
      </trkpt>
      <trkpt lat="47.43982" lon="6.80628">
        <ele>391</ele>
        <time>2016-10-01T15:37:58.000Z</time>
      </trkpt>
      <trkpt lat="47.43981" lon="6.80606">
        <ele>390</ele>
        <time>2016-10-01T15:37:59.000Z</time>
      </trkpt>
      <trkpt lat="47.4398" lon="6.80592">
        <ele>390</ele>
        <time>2016-10-01T15:38:00.000Z</time>
      </trkpt>
      <trkpt lat="47.4398" lon="6.80581">
        <ele>390</ele>
        <time>2016-10-01T15:38:01.000Z</time>
      </trkpt>
      <trkpt lat="47.43979" lon="6.80574">
        <ele>390</ele>
        <time>2016-10-01T15:38:02.000Z</time>
      </trkpt>
      <trkpt lat="47.43978" lon="6.80567">
        <ele>390</ele>
        <time>2016-10-01T15:38:03.000Z</time>
      </trkpt>
      <trkpt lat="47.43977" lon="6.80561">
        <ele>390</ele>
        <time>2016-10-01T15:38:04.000Z</time>
      </trkpt>
      <trkpt lat="47.43972" lon="6.80554">
        <ele>391</ele>
        <time>2016-10-01T15:38:05.000Z</time>
      </trkpt>
      <trkpt lat="47.4397" lon="6.80549">
        <ele>391</ele>
        <time>2016-10-01T15:38:06.000Z</time>
      </trkpt>
      <trkpt lat="47.43971" lon="6.80538">
        <ele>391</ele>
        <time>2016-10-01T15:38:07.000Z</time>
      </trkpt>
      <trkpt lat="47.43967" lon="6.80533">
        <ele>391</ele>
        <time>2016-10-01T15:38:08.000Z</time>
      </trkpt>
      <trkpt lat="47.43966" lon="6.80527">
        <ele>391</ele>
        <time>2016-10-01T15:38:09.000Z</time>
      </trkpt>
      <trkpt lat="47.43964" lon="6.80521">
        <ele>391</ele>
        <time>2016-10-01T15:38:10.000Z</time>
      </trkpt>
      <trkpt lat="47.43975" lon="6.80514">
        <ele>391</ele>
        <time>2016-10-01T15:38:11.000Z</time>
      </trkpt>
      <trkpt lat="47.43975" lon="6.80508">
        <ele>391</ele>
        <time>2016-10-01T15:38:12.000Z</time>
      </trkpt>
      <trkpt lat="47.43975" lon="6.80508">
        <ele>391</ele>
        <time>2016-10-01T15:38:13.000Z</time>
      </trkpt>
      <trkpt lat="47.43979" lon="6.80506">
        <ele>390</ele>
        <time>2016-10-01T15:38:15.000Z</time>
      </trkpt>
      <trkpt lat="47.4398" lon="6.80505">
        <ele>390</ele>
        <time>2016-10-01T15:38:16.000Z</time>
      </trkpt>
      <trkpt lat="47.43983" lon="6.80502">
        <ele>390</ele>
        <time>2016-10-01T15:38:18.002Z</time>
      </trkpt>
      <trkpt lat="47.43984" lon="6.80496">
        <ele>394</ele>
        <time>2016-10-01T15:38:19.000Z</time>
      </trkpt>
      <trkpt lat="47.43984" lon="6.80489">
        <ele>395</ele>
        <time>2016-10-01T15:38:20.000Z</time>
      </trkpt>
      <trkpt lat="47.43985" lon="6.80484">
        <ele>395</ele>
        <time>2016-10-01T15:38:27.000Z</time>
      </trkpt>
      <trkpt lat="47.43986" lon="6.80483">
        <ele>395</ele>
        <time>2016-10-01T15:38:28.000Z</time>
      </trkpt>
      <trkpt lat="47.43988" lon="6.80481">
        <ele>395</ele>
        <time>2016-10-01T15:38:29.000Z</time>
      </trkpt>
      <trkpt lat="47.43991" lon="6.80478">
        <ele>396</ele>
        <time>2016-10-01T15:38:30.000Z</time>
      </trkpt>
      <trkpt lat="47.43994" lon="6.80476">
        <ele>396</ele>
        <time>2016-10-01T15:38:31.000Z</time>
      </trkpt>
      <trkpt lat="47.43997" lon="6.80473">
        <ele>396</ele>
        <time>2016-10-01T15:38:32.000Z</time>
      </trkpt>
      <trkpt lat="47.44001" lon="6.80471">
        <ele>391</ele>
        <time>2016-10-01T15:38:33.000Z</time>
      </trkpt>
      <trkpt lat="47.44004" lon="6.80468">
        <ele>391</ele>
        <time>2016-10-01T15:38:34.000Z</time>
      </trkpt>
      <trkpt lat="47.44007" lon="6.80465">
        <ele>391</ele>
        <time>2016-10-01T15:38:35.000Z</time>
      </trkpt>
      <trkpt lat="47.44011" lon="6.80462">
        <ele>391</ele>
        <time>2016-10-01T15:38:36.000Z</time>
      </trkpt>
      <trkpt lat="47.44014" lon="6.80458">
        <ele>392</ele>
        <time>2016-10-01T15:38:37.000Z</time>
      </trkpt>
      <trkpt lat="47.44018" lon="6.80453">
        <ele>392</ele>
        <time>2016-10-01T15:38:38.000Z</time>
      </trkpt>
      <trkpt lat="47.44021" lon="6.80447">
        <ele>392</ele>
        <time>2016-10-01T15:38:39.000Z</time>
      </trkpt>
      <trkpt lat="47.4403" lon="6.80426">
        <ele>393</ele>
        <time>2016-10-01T15:38:40.000Z</time>
      </trkpt>
      <trkpt lat="47.44033" lon="6.8042">
        <ele>393</ele>
        <time>2016-10-01T15:38:41.000Z</time>
      </trkpt>
      <trkpt lat="47.44035" lon="6.80415">
        <ele>398</ele>
        <time>2016-10-01T15:38:42.000Z</time>
      </trkpt>
      <trkpt lat="47.44039" lon="6.80409">
        <ele>397</ele>
        <time>2016-10-01T15:38:43.000Z</time>
      </trkpt>
      <trkpt lat="47.44042" lon="6.80405">
        <ele>397</ele>
        <time>2016-10-01T15:38:44.000Z</time>
      </trkpt>
      <trkpt lat="47.44044" lon="6.80402">
        <ele>396</ele>
        <time>2016-10-01T15:38:45.000Z</time>
      </trkpt>
      <trkpt lat="47.44047" lon="6.80398">
        <ele>396</ele>
        <time>2016-10-01T15:38:46.000Z</time>
      </trkpt>
      <trkpt lat="47.44049" lon="6.80395">
        <ele>396</ele>
        <time>2016-10-01T15:38:47.000Z</time>
      </trkpt>
      <trkpt lat="47.44053" lon="6.80389">
        <ele>396</ele>
        <time>2016-10-01T15:38:48.000Z</time>
      </trkpt>
      <trkpt lat="47.44055" lon="6.80388">
        <ele>395</ele>
        <time>2016-10-01T15:38:49.000Z</time>
      </trkpt>
      <trkpt lat="47.44058" lon="6.80386">
        <ele>395</ele>
        <time>2016-10-01T15:38:50.000Z</time>
      </trkpt>
      <trkpt lat="47.4406" lon="6.80382">
        <ele>395</ele>
        <time>2016-10-01T15:38:51.000Z</time>
      </trkpt>
      <trkpt lat="47.44061" lon="6.80379">
        <ele>395</ele>
        <time>2016-10-01T15:38:52.000Z</time>
      </trkpt>
      <trkpt lat="47.44063" lon="6.80377">
        <ele>395</ele>
        <time>2016-10-01T15:38:53.000Z</time>
      </trkpt>
      <trkpt lat="47.44065" lon="6.80374">
        <ele>395</ele>
        <time>2016-10-01T15:38:54.000Z</time>
      </trkpt>
      <trkpt lat="47.44066" lon="6.80371">
        <ele>395</ele>
        <time>2016-10-01T15:38:55.000Z</time>
      </trkpt>
      <trkpt lat="47.44068" lon="6.80368">
        <ele>395</ele>
        <time>2016-10-01T15:38:56.000Z</time>
      </trkpt>
      <trkpt lat="47.44069" lon="6.80364">
        <ele>395</ele>
        <time>2016-10-01T15:38:57.000Z</time>
      </trkpt>
      <trkpt lat="47.4407" lon="6.80361">
        <ele>395</ele>
        <time>2016-10-01T15:38:58.000Z</time>
      </trkpt>
      <trkpt lat="47.44071" lon="6.80357">
        <ele>395</ele>
        <time>2016-10-01T15:38:59.000Z</time>
      </trkpt>
      <trkpt lat="47.44072" lon="6.80354">
        <ele>395</ele>
        <time>2016-10-01T15:39:00.000Z</time>
      </trkpt>
      <trkpt lat="47.44074" lon="6.80348">
        <ele>394</ele>
        <time>2016-10-01T15:39:02.000Z</time>
      </trkpt>
      <trkpt lat="47.44075" lon="6.80347">
        <ele>394</ele>
        <time>2016-10-01T15:39:03.000Z</time>
      </trkpt>
      <trkpt lat="47.44079" lon="6.80345">
        <ele>393</ele>
        <time>2016-10-01T15:39:06.000Z</time>
      </trkpt>
      <trkpt lat="47.4408" lon="6.80345">
        <ele>393</ele>
        <time>2016-10-01T15:39:06.999Z</time>
      </trkpt>
      <trkpt lat="47.44081" lon="6.80339">
        <ele>392</ele>
        <time>2016-10-01T15:39:08.000Z</time>
      </trkpt>
      <trkpt lat="47.44082" lon="6.80335">
        <ele>391</ele>
        <time>2016-10-01T15:39:09.000Z</time>
      </trkpt>
      <trkpt lat="47.44083" lon="6.8033">
        <ele>392</ele>
        <time>2016-10-01T15:39:10.000Z</time>
      </trkpt>
      <trkpt lat="47.44084" lon="6.80327">
        <ele>391</ele>
        <time>2016-10-01T15:39:11.000Z</time>
      </trkpt>
      <trkpt lat="47.44085" lon="6.80323">
        <ele>391</ele>
        <time>2016-10-01T15:39:12.000Z</time>
      </trkpt>
      <trkpt lat="47.44086" lon="6.80319">
        <ele>390</ele>
        <time>2016-10-01T15:39:13.000Z</time>
      </trkpt>
      <trkpt lat="47.44087" lon="6.80314">
        <ele>390</ele>
        <time>2016-10-01T15:39:15.000Z</time>
      </trkpt>
      <trkpt lat="47.44088" lon="6.80308">
        <ele>390</ele>
        <time>2016-10-01T15:39:16.001Z</time>
      </trkpt>
      <trkpt lat="47.44088" lon="6.80303">
        <ele>391</ele>
        <time>2016-10-01T15:39:17.000Z</time>
      </trkpt>
      <trkpt lat="47.44089" lon="6.80298">
        <ele>391</ele>
        <time>2016-10-01T15:39:18.000Z</time>
      </trkpt>
      <trkpt lat="47.4409" lon="6.80292">
        <ele>391</ele>
        <time>2016-10-01T15:39:19.000Z</time>
      </trkpt>
      <trkpt lat="47.44092" lon="6.80287">
        <ele>391</ele>
        <time>2016-10-01T15:39:20.000Z</time>
      </trkpt>
      <trkpt lat="47.44093" lon="6.80285">
        <ele>391</ele>
        <time>2016-10-01T15:39:20.999Z</time>
      </trkpt>
      <trkpt lat="47.44093" lon="6.80276">
        <ele>392</ele>
        <time>2016-10-01T15:39:22.000Z</time>
      </trkpt>
      <trkpt lat="47.44094" lon="6.80273">
        <ele>392</ele>
        <time>2016-10-01T15:39:22.998Z</time>
      </trkpt>
      <trkpt lat="47.44095" lon="6.80266">
        <ele>392</ele>
        <time>2016-10-01T15:39:24.000Z</time>
      </trkpt>
      <trkpt lat="47.44096" lon="6.80263">
        <ele>393</ele>
        <time>2016-10-01T15:39:24.999Z</time>
      </trkpt>
      <trkpt lat="47.44108" lon="6.80253">
        <ele>392</ele>
        <time>2016-10-01T15:39:26.000Z</time>
      </trkpt>
      <trkpt lat="47.44111" lon="6.80252">
        <ele>392</ele>
        <time>2016-10-01T15:39:27.000Z</time>
      </trkpt>
      <trkpt lat="47.44115" lon="6.80255">
        <ele>391</ele>
        <time>2016-10-01T15:39:28.000Z</time>
      </trkpt>
      <trkpt lat="47.44119" lon="6.80256">
        <ele>391</ele>
        <time>2016-10-01T15:39:29.000Z</time>
      </trkpt>
      <trkpt lat="47.44123" lon="6.8026">
        <ele>391</ele>
        <time>2016-10-01T15:39:30.000Z</time>
      </trkpt>
      <trkpt lat="47.44133" lon="6.80262">
        <ele>390</ele>
        <time>2016-10-01T15:39:31.000Z</time>
      </trkpt>
      <trkpt lat="47.4414" lon="6.80263">
        <ele>390</ele>
        <time>2016-10-01T15:39:32.000Z</time>
      </trkpt>
      <trkpt lat="47.44147" lon="6.80267">
        <ele>389</ele>
        <time>2016-10-01T15:39:33.000Z</time>
      </trkpt>
      <trkpt lat="47.44154" lon="6.80273">
        <ele>389</ele>
        <time>2016-10-01T15:39:34.000Z</time>
      </trkpt>
      <trkpt lat="47.44165" lon="6.80276">
        <ele>389</ele>
        <time>2016-10-01T15:39:35.000Z</time>
      </trkpt>
      <trkpt lat="47.44177" lon="6.80275">
        <ele>385</ele>
        <time>2016-10-01T15:39:36.000Z</time>
      </trkpt>
      <trkpt lat="47.44186" lon="6.80278">
        <ele>384</ele>
        <time>2016-10-01T15:39:37.000Z</time>
      </trkpt>
      <trkpt lat="47.44193" lon="6.8028">
        <ele>384</ele>
        <time>2016-10-01T15:39:38.000Z</time>
      </trkpt>
      <trkpt lat="47.44201" lon="6.80278">
        <ele>383</ele>
        <time>2016-10-01T15:39:39.000Z</time>
      </trkpt>
      <trkpt lat="47.44206" lon="6.80276">
        <ele>383</ele>
        <time>2016-10-01T15:39:40.000Z</time>
      </trkpt>
      <trkpt lat="47.4421" lon="6.80273">
        <ele>383</ele>
        <time>2016-10-01T15:39:40.998Z</time>
      </trkpt>
      <trkpt lat="47.44214" lon="6.80272">
        <ele>383</ele>
        <time>2016-10-01T15:39:42.001Z</time>
      </trkpt>
      <trkpt lat="47.44217" lon="6.80273">
        <ele>383</ele>
        <time>2016-10-01T15:39:43.000Z</time>
      </trkpt>
      <trkpt lat="47.4422" lon="6.80274">
        <ele>383</ele>
        <time>2016-10-01T15:39:44.000Z</time>
      </trkpt>
      <trkpt lat="47.44224" lon="6.80275">
        <ele>383</ele>
        <time>2016-10-01T15:39:45.000Z</time>
      </trkpt>
      <trkpt lat="47.44228" lon="6.80276">
        <ele>382</ele>
        <time>2016-10-01T15:39:46.000Z</time>
      </trkpt>
      <trkpt lat="47.44233" lon="6.80273">
        <ele>383</ele>
        <time>2016-10-01T15:39:47.000Z</time>
      </trkpt>
      <trkpt lat="47.44237" lon="6.80271">
        <ele>383</ele>
        <time>2016-10-01T15:39:48.000Z</time>
      </trkpt>
      <trkpt lat="47.44242" lon="6.80269">
        <ele>383</ele>
        <time>2016-10-01T15:39:49.001Z</time>
      </trkpt>
      <trkpt lat="47.44246" lon="6.80262">
        <ele>383</ele>
        <time>2016-10-01T15:39:50.001Z</time>
      </trkpt>
      <trkpt lat="47.4425" lon="6.8026">
        <ele>381</ele>
        <time>2016-10-01T15:39:51.000Z</time>
      </trkpt>
      <trkpt lat="47.44254" lon="6.80254">
        <ele>382</ele>
        <time>2016-10-01T15:39:52.000Z</time>
      </trkpt>
      <trkpt lat="47.44258" lon="6.80248">
        <ele>383</ele>
        <time>2016-10-01T15:39:53.000Z</time>
      </trkpt>
      <trkpt lat="47.44261" lon="6.80242">
        <ele>382</ele>
        <time>2016-10-01T15:39:54.000Z</time>
      </trkpt>
      <trkpt lat="47.44264" lon="6.8024">
        <ele>382</ele>
        <time>2016-10-01T15:39:56.000Z</time>
      </trkpt>
      <trkpt lat="47.44267" lon="6.80231">
        <ele>382</ele>
        <time>2016-10-01T15:39:57.000Z</time>
      </trkpt>
      <trkpt lat="47.44269" lon="6.80225">
        <ele>382</ele>
        <time>2016-10-01T15:39:58.000Z</time>
      </trkpt>
      <trkpt lat="47.44271" lon="6.80222">
        <ele>382</ele>
        <time>2016-10-01T15:39:59.000Z</time>
      </trkpt>
      <trkpt lat="47.44272" lon="6.80218">
        <ele>382</ele>
        <time>2016-10-01T15:40:01.000Z</time>
      </trkpt>
      <trkpt lat="47.44274" lon="6.80216">
        <ele>382</ele>
        <time>2016-10-01T15:40:02.000Z</time>
      </trkpt>
      <trkpt lat="47.44275" lon="6.80214">
        <ele>382</ele>
        <time>2016-10-01T15:40:03.000Z</time>
      </trkpt>
      <trkpt lat="47.44276" lon="6.8021">
        <ele>382</ele>
        <time>2016-10-01T15:40:04.000Z</time>
      </trkpt>
      <trkpt lat="47.44278" lon="6.80207">
        <ele>382</ele>
        <time>2016-10-01T15:40:05.000Z</time>
      </trkpt>
      <trkpt lat="47.4428" lon="6.80205">
        <ele>382</ele>
        <time>2016-10-01T15:40:06.000Z</time>
      </trkpt>
      <trkpt lat="47.44283" lon="6.80202">
        <ele>382</ele>
        <time>2016-10-01T15:40:07.000Z</time>
      </trkpt>
      <trkpt lat="47.44286" lon="6.80199">
        <ele>382</ele>
        <time>2016-10-01T15:40:08.000Z</time>
      </trkpt>
      <trkpt lat="47.4429" lon="6.80196">
        <ele>382</ele>
        <time>2016-10-01T15:40:09.000Z</time>
      </trkpt>
      <trkpt lat="47.44293" lon="6.80191">
        <ele>382</ele>
        <time>2016-10-01T15:40:10.000Z</time>
      </trkpt>
      <trkpt lat="47.44296" lon="6.80185">
        <ele>382</ele>
        <time>2016-10-01T15:40:11.000Z</time>
      </trkpt>
      <trkpt lat="47.44299" lon="6.8018">
        <ele>382</ele>
        <time>2016-10-01T15:40:12.000Z</time>
      </trkpt>
      <trkpt lat="47.44302" lon="6.80173">
        <ele>381</ele>
        <time>2016-10-01T15:40:13.000Z</time>
      </trkpt>
      <trkpt lat="47.44302" lon="6.80172">
        <ele>381</ele>
        <time>2016-10-01T15:40:13.111Z</time>
      </trkpt>
      <trkpt lat="47.44307" lon="6.80158">
        <ele>384</ele>
        <time>2016-10-01T15:40:15.000Z</time>
      </trkpt>
      <trkpt lat="47.44309" lon="6.8015">
        <ele>384</ele>
        <time>2016-10-01T15:40:16.000Z</time>
      </trkpt>
      <trkpt lat="47.44312" lon="6.80142">
        <ele>384</ele>
        <time>2016-10-01T15:40:17.000Z</time>
      </trkpt>
      <trkpt lat="47.44314" lon="6.80133">
        <ele>384</ele>
        <time>2016-10-01T15:40:18.000Z</time>
      </trkpt>
      <trkpt lat="47.44316" lon="6.80124">
        <ele>384</ele>
        <time>2016-10-01T15:40:19.000Z</time>
      </trkpt>
      <trkpt lat="47.44318" lon="6.80116">
        <ele>384</ele>
        <time>2016-10-01T15:40:20.000Z</time>
      </trkpt>
      <trkpt lat="47.4432" lon="6.80108">
        <ele>384</ele>
        <time>2016-10-01T15:40:21.000Z</time>
      </trkpt>
      <trkpt lat="47.44322" lon="6.801">
        <ele>384</ele>
        <time>2016-10-01T15:40:22.000Z</time>
      </trkpt>
      <trkpt lat="47.44323" lon="6.80092">
        <ele>383</ele>
        <time>2016-10-01T15:40:23.000Z</time>
      </trkpt>
      <trkpt lat="47.44325" lon="6.80084">
        <ele>383</ele>
        <time>2016-10-01T15:40:24.000Z</time>
      </trkpt>
      <trkpt lat="47.44326" lon="6.80076">
        <ele>384</ele>
        <time>2016-10-01T15:40:25.000Z</time>
      </trkpt>
      <trkpt lat="47.44328" lon="6.80068">
        <ele>386</ele>
        <time>2016-10-01T15:40:26.000Z</time>
      </trkpt>
      <trkpt lat="47.44329" lon="6.80061">
        <ele>387</ele>
        <time>2016-10-01T15:40:27.000Z</time>
      </trkpt>
      <trkpt lat="47.44331" lon="6.80054">
        <ele>387</ele>
        <time>2016-10-01T15:40:28.000Z</time>
      </trkpt>
      <trkpt lat="47.44333" lon="6.80048">
        <ele>388</ele>
        <time>2016-10-01T15:40:29.000Z</time>
      </trkpt>
      <trkpt lat="47.44334" lon="6.80041">
        <ele>378</ele>
        <time>2016-10-01T15:40:30.000Z</time>
      </trkpt>
      <trkpt lat="47.44336" lon="6.80034">
        <ele>379</ele>
        <time>2016-10-01T15:40:31.000Z</time>
      </trkpt>
      <trkpt lat="47.44337" lon="6.80026">
        <ele>379</ele>
        <time>2016-10-01T15:40:32.000Z</time>
      </trkpt>
      <trkpt lat="47.44338" lon="6.80019">
        <ele>380</ele>
        <time>2016-10-01T15:40:33.000Z</time>
      </trkpt>
      <trkpt lat="47.44339" lon="6.80012">
        <ele>381</ele>
        <time>2016-10-01T15:40:34.000Z</time>
      </trkpt>
      <trkpt lat="47.44341" lon="6.80003">
        <ele>382</ele>
        <time>2016-10-01T15:40:35.000Z</time>
      </trkpt>
      <trkpt lat="47.44342" lon="6.79995">
        <ele>383</ele>
        <time>2016-10-01T15:40:36.000Z</time>
      </trkpt>
      <trkpt lat="47.44352" lon="6.79971">
        <ele>381</ele>
        <time>2016-10-01T15:40:37.000Z</time>
      </trkpt>
      <trkpt lat="47.44357" lon="6.79962">
        <ele>381</ele>
        <time>2016-10-01T15:40:38.000Z</time>
      </trkpt>
      <trkpt lat="47.4436" lon="6.79949">
        <ele>382</ele>
        <time>2016-10-01T15:40:39.000Z</time>
      </trkpt>
      <trkpt lat="47.44361" lon="6.79941">
        <ele>382</ele>
        <time>2016-10-01T15:40:40.000Z</time>
      </trkpt>
      <trkpt lat="47.44361" lon="6.79933">
        <ele>382</ele>
        <time>2016-10-01T15:40:41.000Z</time>
      </trkpt>
      <trkpt lat="47.44363" lon="6.79926">
        <ele>382</ele>
        <time>2016-10-01T15:40:42.000Z</time>
      </trkpt>
      <trkpt lat="47.44366" lon="6.79918">
        <ele>382</ele>
        <time>2016-10-01T15:40:43.000Z</time>
      </trkpt>
      <trkpt lat="47.44369" lon="6.79913">
        <ele>384</ele>
        <time>2016-10-01T15:40:44.000Z</time>
      </trkpt>
      <trkpt lat="47.44371" lon="6.79911">
        <ele>384</ele>
        <time>2016-10-01T15:40:45.000Z</time>
      </trkpt>
      <trkpt lat="47.44374" lon="6.79906">
        <ele>383</ele>
        <time>2016-10-01T15:40:46.000Z</time>
      </trkpt>
      <trkpt lat="47.44374" lon="6.79903">
        <ele>384</ele>
        <time>2016-10-01T15:40:47.000Z</time>
      </trkpt>
      <trkpt lat="47.44378" lon="6.79904">
        <ele>383</ele>
        <time>2016-10-01T15:40:53.999Z</time>
      </trkpt>
      <trkpt lat="47.44381" lon="6.79904">
        <ele>383</ele>
        <time>2016-10-01T15:40:55.000Z</time>
      </trkpt>
      <trkpt lat="47.44384" lon="6.79905">
        <ele>382</ele>
        <time>2016-10-01T15:40:56.000Z</time>
      </trkpt>
      <trkpt lat="47.44386" lon="6.79907">
        <ele>382</ele>
        <time>2016-10-01T15:40:57.001Z</time>
      </trkpt>
      <trkpt lat="47.44389" lon="6.79905">
        <ele>382</ele>
        <time>2016-10-01T15:40:58.000Z</time>
      </trkpt>
      <trkpt lat="47.44392" lon="6.79904">
        <ele>381</ele>
        <time>2016-10-01T15:40:59.000Z</time>
      </trkpt>
      <trkpt lat="47.44396" lon="6.79903">
        <ele>381</ele>
        <time>2016-10-01T15:41:00.000Z</time>
      </trkpt>
      <trkpt lat="47.44405" lon="6.79893">
        <ele>381</ele>
        <time>2016-10-01T15:41:01.000Z</time>
      </trkpt>
      <trkpt lat="47.44411" lon="6.79893">
        <ele>380</ele>
        <time>2016-10-01T15:41:02.000Z</time>
      </trkpt>
      <trkpt lat="47.44417" lon="6.79892">
        <ele>373</ele>
        <time>2016-10-01T15:41:03.000Z</time>
      </trkpt>
      <trkpt lat="47.44422" lon="6.79892">
        <ele>373</ele>
        <time>2016-10-01T15:41:04.000Z</time>
      </trkpt>
      <trkpt lat="47.44428" lon="6.79893">
        <ele>373</ele>
        <time>2016-10-01T15:41:05.000Z</time>
      </trkpt>
      <trkpt lat="47.44433" lon="6.79895">
        <ele>373</ele>
        <time>2016-10-01T15:41:06.000Z</time>
      </trkpt>
      <trkpt lat="47.44439" lon="6.79896">
        <ele>373</ele>
        <time>2016-10-01T15:41:07.000Z</time>
      </trkpt>
      <trkpt lat="47.44444" lon="6.79899">
        <ele>372</ele>
        <time>2016-10-01T15:41:08.000Z</time>
      </trkpt>
      <trkpt lat="47.4445" lon="6.79902">
        <ele>372</ele>
        <time>2016-10-01T15:41:09.000Z</time>
      </trkpt>
      <trkpt lat="47.44456" lon="6.79904">
        <ele>371</ele>
        <time>2016-10-01T15:41:10.000Z</time>
      </trkpt>
      <trkpt lat="47.44463" lon="6.79906">
        <ele>371</ele>
        <time>2016-10-01T15:41:11.000Z</time>
      </trkpt>
      <trkpt lat="47.44468" lon="6.79909">
        <ele>370</ele>
        <time>2016-10-01T15:41:12.000Z</time>
      </trkpt>
      <trkpt lat="47.44473" lon="6.79911">
        <ele>370</ele>
        <time>2016-10-01T15:41:13.000Z</time>
      </trkpt>
      <trkpt lat="47.44479" lon="6.79914">
        <ele>369</ele>
        <time>2016-10-01T15:41:14.000Z</time>
      </trkpt>
      <trkpt lat="47.44485" lon="6.79916">
        <ele>368</ele>
        <time>2016-10-01T15:41:15.000Z</time>
      </trkpt>
      <trkpt lat="47.44491" lon="6.79915">
        <ele>368</ele>
        <time>2016-10-01T15:41:16.000Z</time>
      </trkpt>
      <trkpt lat="47.44497" lon="6.79915">
        <ele>367</ele>
        <time>2016-10-01T15:41:17.000Z</time>
      </trkpt>
      <trkpt lat="47.44503" lon="6.79916">
        <ele>366</ele>
        <time>2016-10-01T15:41:18.000Z</time>
      </trkpt>
      <trkpt lat="47.4451" lon="6.79915">
        <ele>366</ele>
        <time>2016-10-01T15:41:19.000Z</time>
      </trkpt>
      <trkpt lat="47.44516" lon="6.79914">
        <ele>365</ele>
        <time>2016-10-01T15:41:20.000Z</time>
      </trkpt>
      <trkpt lat="47.44522" lon="6.79915">
        <ele>365</ele>
        <time>2016-10-01T15:41:21.000Z</time>
      </trkpt>
      <trkpt lat="47.44528" lon="6.79914">
        <ele>365</ele>
        <time>2016-10-01T15:41:22.000Z</time>
      </trkpt>
      <trkpt lat="47.44536" lon="6.79914">
        <ele>365</ele>
        <time>2016-10-01T15:41:23.000Z</time>
      </trkpt>
      <trkpt lat="47.44542" lon="6.79914">
        <ele>365</ele>
        <time>2016-10-01T15:41:24.000Z</time>
      </trkpt>
      <trkpt lat="47.44548" lon="6.79915">
        <ele>365</ele>
        <time>2016-10-01T15:41:25.000Z</time>
      </trkpt>
      <trkpt lat="47.44554" lon="6.79916">
        <ele>364</ele>
        <time>2016-10-01T15:41:26.000Z</time>
      </trkpt>
      <trkpt lat="47.44562" lon="6.79919">
        <ele>364</ele>
        <time>2016-10-01T15:41:27.000Z</time>
      </trkpt>
      <trkpt lat="47.44567" lon="6.79924">
        <ele>364</ele>
        <time>2016-10-01T15:41:28.000Z</time>
      </trkpt>
      <trkpt lat="47.44573" lon="6.79926">
        <ele>364</ele>
        <time>2016-10-01T15:41:29.000Z</time>
      </trkpt>
      <trkpt lat="47.44579" lon="6.79929">
        <ele>363</ele>
        <time>2016-10-01T15:41:30.000Z</time>
      </trkpt>
      <trkpt lat="47.44586" lon="6.79934">
        <ele>362</ele>
        <time>2016-10-01T15:41:31.000Z</time>
      </trkpt>
      <trkpt lat="47.44592" lon="6.79936">
        <ele>362</ele>
        <time>2016-10-01T15:41:32.000Z</time>
      </trkpt>
      <trkpt lat="47.44597" lon="6.7994">
        <ele>362</ele>
        <time>2016-10-01T15:41:33.000Z</time>
      </trkpt>
      <trkpt lat="47.44604" lon="6.79942">
        <ele>362</ele>
        <time>2016-10-01T15:41:34.000Z</time>
      </trkpt>
      <trkpt lat="47.4461" lon="6.79944">
        <ele>362</ele>
        <time>2016-10-01T15:41:35.000Z</time>
      </trkpt>
      <trkpt lat="47.44616" lon="6.79944">
        <ele>362</ele>
        <time>2016-10-01T15:41:36.000Z</time>
      </trkpt>
      <trkpt lat="47.44623" lon="6.79943">
        <ele>362</ele>
        <time>2016-10-01T15:41:37.000Z</time>
      </trkpt>
      <trkpt lat="47.44628" lon="6.79944">
        <ele>362</ele>
        <time>2016-10-01T15:41:38.000Z</time>
      </trkpt>
      <trkpt lat="47.44635" lon="6.79946">
        <ele>362</ele>
        <time>2016-10-01T15:41:39.000Z</time>
      </trkpt>
      <trkpt lat="47.44642" lon="6.79948">
        <ele>362</ele>
        <time>2016-10-01T15:41:40.000Z</time>
      </trkpt>
      <trkpt lat="47.44649" lon="6.79952">
        <ele>361</ele>
        <time>2016-10-01T15:41:41.000Z</time>
      </trkpt>
      <trkpt lat="47.44656" lon="6.79954">
        <ele>361</ele>
        <time>2016-10-01T15:41:42.000Z</time>
      </trkpt>
      <trkpt lat="47.44664" lon="6.79956">
        <ele>361</ele>
        <time>2016-10-01T15:41:43.000Z</time>
      </trkpt>
      <trkpt lat="47.44671" lon="6.79956">
        <ele>360</ele>
        <time>2016-10-01T15:41:44.000Z</time>
      </trkpt>
      <trkpt lat="47.44678" lon="6.79958">
        <ele>359</ele>
        <time>2016-10-01T15:41:45.000Z</time>
      </trkpt>
      <trkpt lat="47.44684" lon="6.79959">
        <ele>359</ele>
        <time>2016-10-01T15:41:46.000Z</time>
      </trkpt>
      <trkpt lat="47.44691" lon="6.7996">
        <ele>359</ele>
        <time>2016-10-01T15:41:47.000Z</time>
      </trkpt>
      <trkpt lat="47.44698" lon="6.79961">
        <ele>359</ele>
        <time>2016-10-01T15:41:48.000Z</time>
      </trkpt>
      <trkpt lat="47.44705" lon="6.79962">
        <ele>359</ele>
        <time>2016-10-01T15:41:49.000Z</time>
      </trkpt>
      <trkpt lat="47.44712" lon="6.79964">
        <ele>359</ele>
        <time>2016-10-01T15:41:50.000Z</time>
      </trkpt>
      <trkpt lat="47.44719" lon="6.79966">
        <ele>359</ele>
        <time>2016-10-01T15:41:51.000Z</time>
      </trkpt>
      <trkpt lat="47.44726" lon="6.79968">
        <ele>359</ele>
        <time>2016-10-01T15:41:52.000Z</time>
      </trkpt>
      <trkpt lat="47.44733" lon="6.79969">
        <ele>359</ele>
        <time>2016-10-01T15:41:53.000Z</time>
      </trkpt>
      <trkpt lat="47.44739" lon="6.7997">
        <ele>359</ele>
        <time>2016-10-01T15:41:54.000Z</time>
      </trkpt>
      <trkpt lat="47.44746" lon="6.79972">
        <ele>358</ele>
        <time>2016-10-01T15:41:55.000Z</time>
      </trkpt>
      <trkpt lat="47.44753" lon="6.79973">
        <ele>357</ele>
        <time>2016-10-01T15:41:56.000Z</time>
      </trkpt>
      <trkpt lat="47.4476" lon="6.79975">
        <ele>357</ele>
        <time>2016-10-01T15:41:57.000Z</time>
      </trkpt>
      <trkpt lat="47.44767" lon="6.79977">
        <ele>356</ele>
        <time>2016-10-01T15:41:58.000Z</time>
      </trkpt>
      <trkpt lat="47.44773" lon="6.79978">
        <ele>356</ele>
        <time>2016-10-01T15:41:59.000Z</time>
      </trkpt>
      <trkpt lat="47.44779" lon="6.79979">
        <ele>356</ele>
        <time>2016-10-01T15:42:00.000Z</time>
      </trkpt>
      <trkpt lat="47.44784" lon="6.79978">
        <ele>356</ele>
        <time>2016-10-01T15:42:01.000Z</time>
      </trkpt>
      <trkpt lat="47.44786" lon="6.79978">
        <ele>356</ele>
        <time>2016-10-01T15:42:02.000Z</time>
      </trkpt>
      <trkpt lat="47.44788" lon="6.79975">
        <ele>356</ele>
        <time>2016-10-01T15:42:03.000Z</time>
      </trkpt>
      <trkpt lat="47.44789" lon="6.79971">
        <ele>356</ele>
        <time>2016-10-01T15:42:03.999Z</time>
      </trkpt>
      <trkpt lat="47.4479" lon="6.79965">
        <ele>356</ele>
        <time>2016-10-01T15:42:06.000Z</time>
      </trkpt>
      <trkpt lat="47.44791" lon="6.79959">
        <ele>356</ele>
        <time>2016-10-01T15:42:07.000Z</time>
      </trkpt>
      <trkpt lat="47.44792" lon="6.79953">
        <ele>356</ele>
        <time>2016-10-01T15:42:08.000Z</time>
      </trkpt>
      <trkpt lat="47.44792" lon="6.79945">
        <ele>356</ele>
        <time>2016-10-01T15:42:09.000Z</time>
      </trkpt>
      <trkpt lat="47.44794" lon="6.79939">
        <ele>356</ele>
        <time>2016-10-01T15:42:10.000Z</time>
      </trkpt>
      <trkpt lat="47.44796" lon="6.79931">
        <ele>356</ele>
        <time>2016-10-01T15:42:11.000Z</time>
      </trkpt>
      <trkpt lat="47.44796" lon="6.79923">
        <ele>356</ele>
        <time>2016-10-01T15:42:12.000Z</time>
      </trkpt>
      <trkpt lat="47.44796" lon="6.79915">
        <ele>355</ele>
        <time>2016-10-01T15:42:13.000Z</time>
      </trkpt>
      <trkpt lat="47.44797" lon="6.79907">
        <ele>355</ele>
        <time>2016-10-01T15:42:14.000Z</time>
      </trkpt>
      <trkpt lat="47.44799" lon="6.79899">
        <ele>355</ele>
        <time>2016-10-01T15:42:15.000Z</time>
      </trkpt>
      <trkpt lat="47.448" lon="6.79892">
        <ele>355</ele>
        <time>2016-10-01T15:42:16.000Z</time>
      </trkpt>
      <trkpt lat="47.44801" lon="6.79885">
        <ele>355</ele>
        <time>2016-10-01T15:42:17.000Z</time>
      </trkpt>
      <trkpt lat="47.44802" lon="6.79878">
        <ele>355</ele>
        <time>2016-10-01T15:42:18.000Z</time>
      </trkpt>
      <trkpt lat="47.44804" lon="6.79869">
        <ele>355</ele>
        <time>2016-10-01T15:42:19.000Z</time>
      </trkpt>
      <trkpt lat="47.44806" lon="6.79861">
        <ele>354</ele>
        <time>2016-10-01T15:42:20.000Z</time>
      </trkpt>
      <trkpt lat="47.44807" lon="6.79854">
        <ele>354</ele>
        <time>2016-10-01T15:42:21.000Z</time>
      </trkpt>
      <trkpt lat="47.44809" lon="6.79847">
        <ele>354</ele>
        <time>2016-10-01T15:42:22.000Z</time>
      </trkpt>
      <trkpt lat="47.4481" lon="6.79841">
        <ele>354</ele>
        <time>2016-10-01T15:42:23.000Z</time>
      </trkpt>
      <trkpt lat="47.44812" lon="6.79834">
        <ele>354</ele>
        <time>2016-10-01T15:42:24.000Z</time>
      </trkpt>
      <trkpt lat="47.44813" lon="6.79827">
        <ele>353</ele>
        <time>2016-10-01T15:42:25.000Z</time>
      </trkpt>
      <trkpt lat="47.44813" lon="6.79822">
        <ele>353</ele>
        <time>2016-10-01T15:42:26.000Z</time>
      </trkpt>
      <trkpt lat="47.44813" lon="6.79816">
        <ele>353</ele>
        <time>2016-10-01T15:42:27.000Z</time>
      </trkpt>
      <trkpt lat="47.44814" lon="6.7981">
        <ele>353</ele>
        <time>2016-10-01T15:42:28.000Z</time>
      </trkpt>
      <trkpt lat="47.44813" lon="6.79805">
        <ele>353</ele>
        <time>2016-10-01T15:42:29.000Z</time>
      </trkpt>
      <trkpt lat="47.44814" lon="6.79797">
        <ele>353</ele>
        <time>2016-10-01T15:42:30.000Z</time>
      </trkpt>
      <trkpt lat="47.44814" lon="6.79791">
        <ele>353</ele>
        <time>2016-10-01T15:42:31.000Z</time>
      </trkpt>
      <trkpt lat="47.44815" lon="6.79788">
        <ele>353</ele>
        <time>2016-10-01T15:42:32.000Z</time>
      </trkpt>
      <trkpt lat="47.44816" lon="6.79781">
        <ele>353</ele>
        <time>2016-10-01T15:42:33.000Z</time>
      </trkpt>
      <trkpt lat="47.44818" lon="6.79774">
        <ele>352</ele>
        <time>2016-10-01T15:42:34.000Z</time>
      </trkpt>
      <trkpt lat="47.44819" lon="6.79767">
        <ele>352</ele>
        <time>2016-10-01T15:42:35.000Z</time>
      </trkpt>
      <trkpt lat="47.4482" lon="6.79758">
        <ele>352</ele>
        <time>2016-10-01T15:42:36.000Z</time>
      </trkpt>
      <trkpt lat="47.4482" lon="6.79751">
        <ele>352</ele>
        <time>2016-10-01T15:42:37.000Z</time>
      </trkpt>
      <trkpt lat="47.44821" lon="6.79745">
        <ele>349</ele>
        <time>2016-10-01T15:42:38.000Z</time>
      </trkpt>
      <trkpt lat="47.44821" lon="6.79739">
        <ele>349</ele>
        <time>2016-10-01T15:42:39.001Z</time>
      </trkpt>
      <trkpt lat="47.44824" lon="6.79734">
        <ele>349</ele>
        <time>2016-10-01T15:42:40.000Z</time>
      </trkpt>
      <trkpt lat="47.44826" lon="6.79729">
        <ele>348</ele>
        <time>2016-10-01T15:42:41.000Z</time>
      </trkpt>
      <trkpt lat="47.4483" lon="6.79729">
        <ele>348</ele>
        <time>2016-10-01T15:42:42.000Z</time>
      </trkpt>
      <trkpt lat="47.44836" lon="6.79727">
        <ele>348</ele>
        <time>2016-10-01T15:42:43.000Z</time>
      </trkpt>
      <trkpt lat="47.44841" lon="6.79725">
        <ele>348</ele>
        <time>2016-10-01T15:42:44.000Z</time>
      </trkpt>
      <trkpt lat="47.44846" lon="6.79726">
        <ele>348</ele>
        <time>2016-10-01T15:42:45.000Z</time>
      </trkpt>
      <trkpt lat="47.44851" lon="6.79726">
        <ele>347</ele>
        <time>2016-10-01T15:42:46.000Z</time>
      </trkpt>
      <trkpt lat="47.44857" lon="6.79721">
        <ele>347</ele>
        <time>2016-10-01T15:42:47.000Z</time>
      </trkpt>
      <trkpt lat="47.44863" lon="6.7972">
        <ele>347</ele>
        <time>2016-10-01T15:42:48.000Z</time>
      </trkpt>
      <trkpt lat="47.44867" lon="6.79723">
        <ele>347</ele>
        <time>2016-10-01T15:42:49.000Z</time>
      </trkpt>
      <trkpt lat="47.44873" lon="6.79725">
        <ele>347</ele>
        <time>2016-10-01T15:42:50.000Z</time>
      </trkpt>
      <trkpt lat="47.44879" lon="6.79724">
        <ele>347</ele>
        <time>2016-10-01T15:42:51.000Z</time>
      </trkpt>
      <trkpt lat="47.44883" lon="6.79727">
        <ele>347</ele>
        <time>2016-10-01T15:42:52.000Z</time>
      </trkpt>
      <trkpt lat="47.44889" lon="6.79731">
        <ele>347</ele>
        <time>2016-10-01T15:42:53.000Z</time>
      </trkpt>
      <trkpt lat="47.44893" lon="6.79737">
        <ele>348</ele>
        <time>2016-10-01T15:42:54.000Z</time>
      </trkpt>
      <trkpt lat="47.44897" lon="6.79741">
        <ele>348</ele>
        <time>2016-10-01T15:42:55.000Z</time>
      </trkpt>
      <trkpt lat="47.44902" lon="6.79745">
        <ele>348</ele>
        <time>2016-10-01T15:42:56.000Z</time>
      </trkpt>
      <trkpt lat="47.44907" lon="6.79743">
        <ele>349</ele>
        <time>2016-10-01T15:42:57.000Z</time>
      </trkpt>
      <trkpt lat="47.44912" lon="6.79742">
        <ele>349</ele>
        <time>2016-10-01T15:42:58.000Z</time>
      </trkpt>
      <trkpt lat="47.44918" lon="6.79739">
        <ele>348</ele>
        <time>2016-10-01T15:42:59.000Z</time>
      </trkpt>
      <trkpt lat="47.44925" lon="6.79734">
        <ele>347</ele>
        <time>2016-10-01T15:43:00.000Z</time>
      </trkpt>
      <trkpt lat="47.4493" lon="6.79731">
        <ele>346</ele>
        <time>2016-10-01T15:43:01.000Z</time>
      </trkpt>
      <trkpt lat="47.44935" lon="6.79726">
        <ele>346</ele>
        <time>2016-10-01T15:43:02.000Z</time>
      </trkpt>
      <trkpt lat="47.4494" lon="6.79723">
        <ele>345</ele>
        <time>2016-10-01T15:43:03.000Z</time>
      </trkpt>
      <trkpt lat="47.44944" lon="6.7972">
        <ele>345</ele>
        <time>2016-10-01T15:43:04.000Z</time>
      </trkpt>
      <trkpt lat="47.44949" lon="6.79716">
        <ele>344</ele>
        <time>2016-10-01T15:43:05.000Z</time>
      </trkpt>
      <trkpt lat="47.44954" lon="6.79714">
        <ele>344</ele>
        <time>2016-10-01T15:43:06.000Z</time>
      </trkpt>
      <trkpt lat="47.44959" lon="6.79712">
        <ele>344</ele>
        <time>2016-10-01T15:43:07.000Z</time>
      </trkpt>
      <trkpt lat="47.44964" lon="6.79712">
        <ele>344</ele>
        <time>2016-10-01T15:43:08.000Z</time>
      </trkpt>
      <trkpt lat="47.44968" lon="6.79706">
        <ele>343</ele>
        <time>2016-10-01T15:43:09.000Z</time>
      </trkpt>
      <trkpt lat="47.44974" lon="6.79708">
        <ele>343</ele>
        <time>2016-10-01T15:43:10.000Z</time>
      </trkpt>
      <trkpt lat="47.4498" lon="6.79708">
        <ele>343</ele>
        <time>2016-10-01T15:43:11.000Z</time>
      </trkpt>
      <trkpt lat="47.44987" lon="6.79706">
        <ele>343</ele>
        <time>2016-10-01T15:43:12.000Z</time>
      </trkpt>
      <trkpt lat="47.44993" lon="6.79706">
        <ele>343</ele>
        <time>2016-10-01T15:43:13.000Z</time>
      </trkpt>
      <trkpt lat="47.44998" lon="6.79708">
        <ele>343</ele>
        <time>2016-10-01T15:43:14.000Z</time>
      </trkpt>
      <trkpt lat="47.45006" lon="6.79705">
        <ele>339</ele>
        <time>2016-10-01T15:43:15.000Z</time>
      </trkpt>
      <trkpt lat="47.45011" lon="6.79708">
        <ele>340</ele>
        <time>2016-10-01T15:43:16.000Z</time>
      </trkpt>
      <trkpt lat="47.45017" lon="6.79711">
        <ele>340</ele>
        <time>2016-10-01T15:43:17.000Z</time>
      </trkpt>
      <trkpt lat="47.45022" lon="6.79715">
        <ele>340</ele>
        <time>2016-10-01T15:43:17.999Z</time>
      </trkpt>
      <trkpt lat="47.45027" lon="6.79714">
        <ele>340</ele>
        <time>2016-10-01T15:43:19.000Z</time>
      </trkpt>
      <trkpt lat="47.45032" lon="6.79715">
        <ele>340</ele>
        <time>2016-10-01T15:43:20.000Z</time>
      </trkpt>
      <trkpt lat="47.45033" lon="6.79709">
        <ele>339</ele>
        <time>2016-10-01T15:43:21.000Z</time>
      </trkpt>
      <trkpt lat="47.45035" lon="6.79703">
        <ele>339</ele>
        <time>2016-10-01T15:43:22.000Z</time>
      </trkpt>
      <trkpt lat="47.45036" lon="6.79691">
        <ele>339</ele>
        <time>2016-10-01T15:43:23.000Z</time>
      </trkpt>
      <trkpt lat="47.45037" lon="6.79681">
        <ele>338</ele>
        <time>2016-10-01T15:43:24.000Z</time>
      </trkpt>
      <trkpt lat="47.45037" lon="6.79671">
        <ele>338</ele>
        <time>2016-10-01T15:43:25.000Z</time>
      </trkpt>
      <trkpt lat="47.45039" lon="6.79659">
        <ele>335</ele>
        <time>2016-10-01T15:43:26.000Z</time>
      </trkpt>
      <trkpt lat="47.45041" lon="6.79651">
        <ele>335</ele>
        <time>2016-10-01T15:43:27.000Z</time>
      </trkpt>
      <trkpt lat="47.45045" lon="6.79645">
        <ele>335</ele>
        <time>2016-10-01T15:43:28.000Z</time>
      </trkpt>
      <trkpt lat="47.45048" lon="6.79641">
        <ele>335</ele>
        <time>2016-10-01T15:43:29.000Z</time>
      </trkpt>
      <trkpt lat="47.45049" lon="6.79636">
        <ele>335</ele>
        <time>2016-10-01T15:43:30.000Z</time>
      </trkpt>
      <trkpt lat="47.45051" lon="6.79632">
        <ele>335</ele>
        <time>2016-10-01T15:43:32.000Z</time>
      </trkpt>
      <trkpt lat="47.45052" lon="6.79626">
        <ele>334</ele>
        <time>2016-10-01T15:43:33.000Z</time>
      </trkpt>
      <trkpt lat="47.45054" lon="6.79623">
        <ele>334</ele>
        <time>2016-10-01T15:43:35.000Z</time>
      </trkpt>
      <trkpt lat="47.45057" lon="6.79619">
        <ele>334</ele>
        <time>2016-10-01T15:43:36.000Z</time>
      </trkpt>
      <trkpt lat="47.45059" lon="6.79613">
        <ele>334</ele>
        <time>2016-10-01T15:43:37.000Z</time>
      </trkpt>
      <trkpt lat="47.45062" lon="6.79609">
        <ele>334</ele>
        <time>2016-10-01T15:43:38.000Z</time>
      </trkpt>
      <trkpt lat="47.45066" lon="6.79604">
        <ele>334</ele>
        <time>2016-10-01T15:43:39.000Z</time>
      </trkpt>
      <trkpt lat="47.4507" lon="6.796">
        <ele>334</ele>
        <time>2016-10-01T15:43:40.000Z</time>
      </trkpt>
      <trkpt lat="47.45073" lon="6.79596">
        <ele>334</ele>
        <time>2016-10-01T15:43:41.000Z</time>
      </trkpt>
      <trkpt lat="47.45076" lon="6.79592">
        <ele>334</ele>
        <time>2016-10-01T15:43:42.000Z</time>
      </trkpt>
      <trkpt lat="47.4508" lon="6.79588">
        <ele>333</ele>
        <time>2016-10-01T15:43:43.000Z</time>
      </trkpt>
      <trkpt lat="47.45084" lon="6.79584">
        <ele>333</ele>
        <time>2016-10-01T15:43:44.000Z</time>
      </trkpt>
      <trkpt lat="47.45086" lon="6.7958">
        <ele>333</ele>
        <time>2016-10-01T15:43:45.000Z</time>
      </trkpt>
      <trkpt lat="47.45088" lon="6.79575">
        <ele>333</ele>
        <time>2016-10-01T15:43:46.000Z</time>
      </trkpt>
      <trkpt lat="47.45092" lon="6.79571">
        <ele>333</ele>
        <time>2016-10-01T15:43:47.000Z</time>
      </trkpt>
      <trkpt lat="47.45095" lon="6.79567">
        <ele>333</ele>
        <time>2016-10-01T15:43:48.000Z</time>
      </trkpt>
      <trkpt lat="47.45098" lon="6.79564">
        <ele>333</ele>
        <time>2016-10-01T15:43:49.000Z</time>
      </trkpt>
      <trkpt lat="47.45101" lon="6.7956">
        <ele>333</ele>
        <time>2016-10-01T15:43:50.000Z</time>
      </trkpt>
      <trkpt lat="47.45104" lon="6.79556">
        <ele>333</ele>
        <time>2016-10-01T15:43:51.000Z</time>
      </trkpt>
      <trkpt lat="47.45107" lon="6.79552">
        <ele>333</ele>
        <time>2016-10-01T15:43:52.000Z</time>
      </trkpt>
      <trkpt lat="47.45109" lon="6.79546">
        <ele>333</ele>
        <time>2016-10-01T15:43:53.000Z</time>
      </trkpt>
      <trkpt lat="47.45113" lon="6.79543">
        <ele>333</ele>
        <time>2016-10-01T15:43:54.000Z</time>
      </trkpt>
      <trkpt lat="47.45116" lon="6.79538">
        <ele>333</ele>
        <time>2016-10-01T15:43:55.000Z</time>
      </trkpt>
      <trkpt lat="47.45118" lon="6.79536">
        <ele>333</ele>
        <time>2016-10-01T15:43:56.000Z</time>
      </trkpt>
      <trkpt lat="47.45121" lon="6.79532">
        <ele>333</ele>
        <time>2016-10-01T15:43:57.000Z</time>
      </trkpt>
      <trkpt lat="47.45124" lon="6.79527">
        <ele>333</ele>
        <time>2016-10-01T15:43:59.000Z</time>
      </trkpt>
      <trkpt lat="47.45124" lon="6.79527">
        <ele>333</ele>
        <time>2016-10-01T15:44:00.000Z</time>
      </trkpt>
      <trkpt lat="47.45124" lon="6.79522">
        <ele>333</ele>
        <time>2016-10-01T15:44:04.000Z</time>
      </trkpt>
      <trkpt lat="47.45125" lon="6.7952">
        <ele>333</ele>
        <time>2016-10-01T15:44:05.000Z</time>
      </trkpt>
      <trkpt lat="47.45125" lon="6.79515">
        <ele>333</ele>
        <time>2016-10-01T15:44:07.000Z</time>
      </trkpt>
      <trkpt lat="47.45126" lon="6.79513">
        <ele>333</ele>
        <time>2016-10-01T15:44:08.000Z</time>
      </trkpt>
      <trkpt lat="47.45127" lon="6.79509">
        <ele>333</ele>
        <time>2016-10-01T15:44:09.000Z</time>
      </trkpt>
      <trkpt lat="47.45128" lon="6.79506">
        <ele>333</ele>
        <time>2016-10-01T15:44:10.000Z</time>
      </trkpt>
      <trkpt lat="47.45129" lon="6.79501">
        <ele>333</ele>
        <time>2016-10-01T15:44:11.000Z</time>
      </trkpt>
      <trkpt lat="47.4513" lon="6.79497">
        <ele>333</ele>
        <time>2016-10-01T15:44:12.000Z</time>
      </trkpt>
      <trkpt lat="47.45131" lon="6.79492">
        <ele>333</ele>
        <time>2016-10-01T15:44:13.000Z</time>
      </trkpt>
      <trkpt lat="47.45132" lon="6.79487">
        <ele>333</ele>
        <time>2016-10-01T15:44:14.000Z</time>
      </trkpt>
      <trkpt lat="47.45133" lon="6.79482">
        <ele>333</ele>
        <time>2016-10-01T15:44:15.000Z</time>
      </trkpt>
      <trkpt lat="47.45134" lon="6.79475">
        <ele>333</ele>
        <time>2016-10-01T15:44:16.000Z</time>
      </trkpt>
      <trkpt lat="47.45134" lon="6.79469">
        <ele>333</ele>
        <time>2016-10-01T15:44:17.000Z</time>
      </trkpt>
      <trkpt lat="47.45135" lon="6.79464">
        <ele>333</ele>
        <time>2016-10-01T15:44:18.000Z</time>
      </trkpt>
      <trkpt lat="47.45136" lon="6.79457">
        <ele>333</ele>
        <time>2016-10-01T15:44:19.000Z</time>
      </trkpt>
      <trkpt lat="47.45138" lon="6.79451">
        <ele>333</ele>
        <time>2016-10-01T15:44:20.000Z</time>
      </trkpt>
      <trkpt lat="47.45141" lon="6.79442">
        <ele>333</ele>
        <time>2016-10-01T15:44:21.000Z</time>
      </trkpt>
      <trkpt lat="47.45142" lon="6.79437">
        <ele>333</ele>
        <time>2016-10-01T15:44:22.000Z</time>
      </trkpt>
      <trkpt lat="47.45144" lon="6.79429">
        <ele>333</ele>
        <time>2016-10-01T15:44:23.000Z</time>
      </trkpt>
      <trkpt lat="47.45145" lon="6.79424">
        <ele>333</ele>
        <time>2016-10-01T15:44:24.000Z</time>
      </trkpt>
      <trkpt lat="47.45146" lon="6.7942">
        <ele>333</ele>
        <time>2016-10-01T15:44:25.000Z</time>
      </trkpt>
      <trkpt lat="47.45146" lon="6.79416">
        <ele>333</ele>
        <time>2016-10-01T15:44:26.000Z</time>
      </trkpt>
      <trkpt lat="47.45148" lon="6.79409">
        <ele>333</ele>
        <time>2016-10-01T15:44:27.000Z</time>
      </trkpt>
      <trkpt lat="47.45149" lon="6.79404">
        <ele>333</ele>
        <time>2016-10-01T15:44:28.000Z</time>
      </trkpt>
      <trkpt lat="47.45151" lon="6.79398">
        <ele>333</ele>
        <time>2016-10-01T15:44:29.000Z</time>
      </trkpt>
      <trkpt lat="47.45152" lon="6.79393">
        <ele>334</ele>
        <time>2016-10-01T15:44:30.000Z</time>
      </trkpt>
      <trkpt lat="47.45154" lon="6.79387">
        <ele>334</ele>
        <time>2016-10-01T15:44:31.000Z</time>
      </trkpt>
      <trkpt lat="47.45156" lon="6.79381">
        <ele>334</ele>
        <time>2016-10-01T15:44:32.000Z</time>
      </trkpt>
      <trkpt lat="47.45158" lon="6.79373">
        <ele>334</ele>
        <time>2016-10-01T15:44:33.000Z</time>
      </trkpt>
      <trkpt lat="47.45159" lon="6.79367">
        <ele>334</ele>
        <time>2016-10-01T15:44:34.000Z</time>
      </trkpt>
      <trkpt lat="47.45163" lon="6.79363">
        <ele>334</ele>
        <time>2016-10-01T15:44:35.000Z</time>
      </trkpt>
      <trkpt lat="47.45165" lon="6.7936">
        <ele>334</ele>
        <time>2016-10-01T15:44:36.000Z</time>
      </trkpt>
      <trkpt lat="47.45167" lon="6.79356">
        <ele>334</ele>
        <time>2016-10-01T15:44:36.999Z</time>
      </trkpt>
      <trkpt lat="47.4517" lon="6.79348">
        <ele>334</ele>
        <time>2016-10-01T15:44:38.000Z</time>
      </trkpt>
      <trkpt lat="47.45171" lon="6.79342">
        <ele>334</ele>
        <time>2016-10-01T15:44:39.000Z</time>
      </trkpt>
      <trkpt lat="47.45173" lon="6.79336">
        <ele>335</ele>
        <time>2016-10-01T15:44:40.000Z</time>
      </trkpt>
      <trkpt lat="47.45175" lon="6.79329">
        <ele>335</ele>
        <time>2016-10-01T15:44:41.000Z</time>
      </trkpt>
      <trkpt lat="47.45174" lon="6.79321">
        <ele>335</ele>
        <time>2016-10-01T15:44:42.000Z</time>
      </trkpt>
      <trkpt lat="47.45177" lon="6.79313">
        <ele>334</ele>
        <time>2016-10-01T15:44:43.000Z</time>
      </trkpt>
      <trkpt lat="47.45178" lon="6.79308">
        <ele>334</ele>
        <time>2016-10-01T15:44:44.000Z</time>
      </trkpt>
      <trkpt lat="47.4518" lon="6.79303">
        <ele>334</ele>
        <time>2016-10-01T15:44:45.000Z</time>
      </trkpt>
      <trkpt lat="47.45181" lon="6.79297">
        <ele>334</ele>
        <time>2016-10-01T15:44:46.000Z</time>
      </trkpt>
      <trkpt lat="47.45181" lon="6.79294">
        <ele>334</ele>
        <time>2016-10-01T15:44:47.000Z</time>
      </trkpt>
      <trkpt lat="47.4518" lon="6.79288">
        <ele>334</ele>
        <time>2016-10-01T15:44:49.000Z</time>
      </trkpt>
      <trkpt lat="47.4518" lon="6.79284">
        <ele>335</ele>
        <time>2016-10-01T15:44:50.000Z</time>
      </trkpt>
      <trkpt lat="47.45182" lon="6.79279">
        <ele>335</ele>
        <time>2016-10-01T15:44:51.000Z</time>
      </trkpt>
      <trkpt lat="47.45183" lon="6.79276">
        <ele>335</ele>
        <time>2016-10-01T15:44:52.000Z</time>
      </trkpt>
      <trkpt lat="47.45186" lon="6.79273">
        <ele>335</ele>
        <time>2016-10-01T15:44:53.000Z</time>
      </trkpt>
      <trkpt lat="47.45188" lon="6.79269">
        <ele>335</ele>
        <time>2016-10-01T15:44:54.000Z</time>
      </trkpt>
      <trkpt lat="47.4519" lon="6.79266">
        <ele>335</ele>
        <time>2016-10-01T15:44:55.000Z</time>
      </trkpt>
      <trkpt lat="47.45192" lon="6.79263">
        <ele>335</ele>
        <time>2016-10-01T15:44:56.000Z</time>
      </trkpt>
      <trkpt lat="47.45194" lon="6.79259">
        <ele>335</ele>
        <time>2016-10-01T15:44:57.000Z</time>
      </trkpt>
      <trkpt lat="47.45197" lon="6.79256">
        <ele>335</ele>
        <time>2016-10-01T15:44:58.000Z</time>
      </trkpt>
      <trkpt lat="47.45199" lon="6.79252">
        <ele>334</ele>
        <time>2016-10-01T15:44:59.000Z</time>
      </trkpt>
      <trkpt lat="47.45201" lon="6.79246">
        <ele>334</ele>
        <time>2016-10-01T15:45:00.000Z</time>
      </trkpt>
      <trkpt lat="47.45201" lon="6.7924">
        <ele>334</ele>
        <time>2016-10-01T15:45:01.000Z</time>
      </trkpt>
      <trkpt lat="47.45201" lon="6.79234">
        <ele>334</ele>
        <time>2016-10-01T15:45:02.000Z</time>
      </trkpt>
      <trkpt lat="47.45201" lon="6.79227">
        <ele>334</ele>
        <time>2016-10-01T15:45:03.000Z</time>
      </trkpt>
      <trkpt lat="47.45202" lon="6.79221">
        <ele>334</ele>
        <time>2016-10-01T15:45:04.000Z</time>
      </trkpt>
      <trkpt lat="47.45203" lon="6.79216">
        <ele>334</ele>
        <time>2016-10-01T15:45:05.000Z</time>
      </trkpt>
      <trkpt lat="47.45204" lon="6.79211">
        <ele>334</ele>
        <time>2016-10-01T15:45:06.000Z</time>
      </trkpt>
      <trkpt lat="47.45206" lon="6.79206">
        <ele>334</ele>
        <time>2016-10-01T15:45:07.000Z</time>
      </trkpt>
      <trkpt lat="47.45208" lon="6.79201">
        <ele>334</ele>
        <time>2016-10-01T15:45:08.000Z</time>
      </trkpt>
      <trkpt lat="47.45209" lon="6.79195">
        <ele>334</ele>
        <time>2016-10-01T15:45:09.000Z</time>
      </trkpt>
      <trkpt lat="47.45211" lon="6.79189">
        <ele>334</ele>
        <time>2016-10-01T15:45:10.000Z</time>
      </trkpt>
      <trkpt lat="47.45213" lon="6.79182">
        <ele>333</ele>
        <time>2016-10-01T15:45:11.000Z</time>
      </trkpt>
      <trkpt lat="47.45214" lon="6.79176">
        <ele>333</ele>
        <time>2016-10-01T15:45:12.000Z</time>
      </trkpt>
      <trkpt lat="47.45215" lon="6.79171">
        <ele>333</ele>
        <time>2016-10-01T15:45:13.000Z</time>
      </trkpt>
      <trkpt lat="47.45216" lon="6.79166">
        <ele>333</ele>
        <time>2016-10-01T15:45:14.000Z</time>
      </trkpt>
      <trkpt lat="47.45216" lon="6.79161">
        <ele>333</ele>
        <time>2016-10-01T15:45:15.000Z</time>
      </trkpt>
      <trkpt lat="47.45217" lon="6.79156">
        <ele>333</ele>
        <time>2016-10-01T15:45:16.000Z</time>
      </trkpt>
      <trkpt lat="47.45218" lon="6.79151">
        <ele>333</ele>
        <time>2016-10-01T15:45:17.000Z</time>
      </trkpt>
      <trkpt lat="47.4522" lon="6.79145">
        <ele>333</ele>
        <time>2016-10-01T15:45:18.000Z</time>
      </trkpt>
      <trkpt lat="47.45224" lon="6.79136">
        <ele>333</ele>
        <time>2016-10-01T15:45:20.000Z</time>
      </trkpt>
      <trkpt lat="47.45226" lon="6.79131">
        <ele>333</ele>
        <time>2016-10-01T15:45:21.000Z</time>
      </trkpt>
      <trkpt lat="47.4523" lon="6.79129">
        <ele>333</ele>
        <time>2016-10-01T15:45:22.000Z</time>
      </trkpt>
      <trkpt lat="47.45234" lon="6.79127">
        <ele>333</ele>
        <time>2016-10-01T15:45:23.000Z</time>
      </trkpt>
      <trkpt lat="47.45238" lon="6.79126">
        <ele>333</ele>
        <time>2016-10-01T15:45:24.000Z</time>
      </trkpt>
      <trkpt lat="47.45243" lon="6.79125">
        <ele>333</ele>
        <time>2016-10-01T15:45:25.000Z</time>
      </trkpt>
      <trkpt lat="47.45247" lon="6.79122">
        <ele>333</ele>
        <time>2016-10-01T15:45:26.000Z</time>
      </trkpt>
      <trkpt lat="47.4525" lon="6.79118">
        <ele>332</ele>
        <time>2016-10-01T15:45:27.000Z</time>
      </trkpt>
      <trkpt lat="47.45253" lon="6.79115">
        <ele>332</ele>
        <time>2016-10-01T15:45:28.000Z</time>
      </trkpt>
      <trkpt lat="47.45255" lon="6.79108">
        <ele>332</ele>
        <time>2016-10-01T15:45:29.000Z</time>
      </trkpt>
      <trkpt lat="47.45257" lon="6.79103">
        <ele>332</ele>
        <time>2016-10-01T15:45:30.000Z</time>
      </trkpt>
      <trkpt lat="47.45259" lon="6.79097">
        <ele>332</ele>
        <time>2016-10-01T15:45:31.000Z</time>
      </trkpt>
      <trkpt lat="47.4526" lon="6.79093">
        <ele>332</ele>
        <time>2016-10-01T15:45:32.000Z</time>
      </trkpt>
      <trkpt lat="47.45262" lon="6.79088">
        <ele>332</ele>
        <time>2016-10-01T15:45:33.000Z</time>
      </trkpt>
      <trkpt lat="47.45263" lon="6.79084">
        <ele>332</ele>
        <time>2016-10-01T15:45:34.000Z</time>
      </trkpt>
      <trkpt lat="47.45263" lon="6.79081">
        <ele>332</ele>
        <time>2016-10-01T15:45:35.000Z</time>
      </trkpt>
      <trkpt lat="47.45263" lon="6.79075">
        <ele>332</ele>
        <time>2016-10-01T15:46:47.000Z</time>
      </trkpt>
      <trkpt lat="47.45264" lon="6.79072">
        <ele>332</ele>
        <time>2016-10-01T15:46:48.000Z</time>
      </trkpt>
      <trkpt lat="47.45265" lon="6.79069">
        <ele>332</ele>
        <time>2016-10-01T15:46:49.000Z</time>
      </trkpt>
      <trkpt lat="47.45266" lon="6.79065">
        <ele>332</ele>
        <time>2016-10-01T15:46:50.000Z</time>
      </trkpt>
      <trkpt lat="47.45267" lon="6.7906">
        <ele>332</ele>
        <time>2016-10-01T15:46:51.000Z</time>
      </trkpt>
      <trkpt lat="47.45268" lon="6.79055">
        <ele>331</ele>
        <time>2016-10-01T15:46:52.000Z</time>
      </trkpt>
      <trkpt lat="47.45269" lon="6.79051">
        <ele>331</ele>
        <time>2016-10-01T15:46:53.000Z</time>
      </trkpt>
      <trkpt lat="47.45271" lon="6.79046">
        <ele>331</ele>
        <time>2016-10-01T15:46:54.000Z</time>
      </trkpt>
      <trkpt lat="47.45272" lon="6.79041">
        <ele>331</ele>
        <time>2016-10-01T15:46:55.000Z</time>
      </trkpt>
      <trkpt lat="47.45277" lon="6.79033">
        <ele>331</ele>
        <time>2016-10-01T15:46:56.000Z</time>
      </trkpt>
      <trkpt lat="47.45281" lon="6.79026">
        <ele>331</ele>
        <time>2016-10-01T15:46:57.000Z</time>
      </trkpt>
      <trkpt lat="47.45285" lon="6.7902">
        <ele>331</ele>
        <time>2016-10-01T15:46:58.000Z</time>
      </trkpt>
      <trkpt lat="47.4529" lon="6.79014">
        <ele>331</ele>
        <time>2016-10-01T15:46:59.000Z</time>
      </trkpt>
      <trkpt lat="47.45294" lon="6.79008">
        <ele>331</ele>
        <time>2016-10-01T15:47:00.001Z</time>
      </trkpt>
      <trkpt lat="47.45299" lon="6.79002">
        <ele>331</ele>
        <time>2016-10-01T15:47:01.000Z</time>
      </trkpt>
      <trkpt lat="47.45302" lon="6.78996">
        <ele>331</ele>
        <time>2016-10-01T15:47:02.000Z</time>
      </trkpt>
      <trkpt lat="47.45307" lon="6.7899">
        <ele>331</ele>
        <time>2016-10-01T15:47:03.000Z</time>
      </trkpt>
      <trkpt lat="47.4531" lon="6.78986">
        <ele>331</ele>
        <time>2016-10-01T15:47:04.000Z</time>
      </trkpt>
      <trkpt lat="47.45314" lon="6.78981">
        <ele>331</ele>
        <time>2016-10-01T15:47:05.000Z</time>
      </trkpt>
      <trkpt lat="47.45318" lon="6.78976">
        <ele>331</ele>
        <time>2016-10-01T15:47:06.000Z</time>
      </trkpt>
      <trkpt lat="47.45321" lon="6.7897">
        <ele>331</ele>
        <time>2016-10-01T15:47:07.000Z</time>
      </trkpt>
      <trkpt lat="47.45325" lon="6.78965">
        <ele>331</ele>
        <time>2016-10-01T15:47:08.000Z</time>
      </trkpt>
      <trkpt lat="47.45329" lon="6.7896">
        <ele>331</ele>
        <time>2016-10-01T15:47:09.000Z</time>
      </trkpt>
      <trkpt lat="47.45332" lon="6.78955">
        <ele>331</ele>
        <time>2016-10-01T15:47:10.000Z</time>
      </trkpt>
      <trkpt lat="47.45335" lon="6.7895">
        <ele>331</ele>
        <time>2016-10-01T15:47:11.000Z</time>
      </trkpt>
      <trkpt lat="47.45339" lon="6.78945">
        <ele>331</ele>
        <time>2016-10-01T15:47:12.000Z</time>
      </trkpt>
      <trkpt lat="47.45342" lon="6.7894">
        <ele>331</ele>
        <time>2016-10-01T15:47:13.000Z</time>
      </trkpt>
      <trkpt lat="47.45345" lon="6.78935">
        <ele>331</ele>
        <time>2016-10-01T15:47:14.000Z</time>
      </trkpt>
      <trkpt lat="47.45349" lon="6.78931">
        <ele>331</ele>
        <time>2016-10-01T15:47:15.000Z</time>
      </trkpt>
      <trkpt lat="47.45352" lon="6.78927">
        <ele>331</ele>
        <time>2016-10-01T15:47:16.000Z</time>
      </trkpt>
      <trkpt lat="47.45355" lon="6.78922">
        <ele>331</ele>
        <time>2016-10-01T15:47:17.000Z</time>
      </trkpt>
      <trkpt lat="47.45358" lon="6.78918">
        <ele>331</ele>
        <time>2016-10-01T15:47:18.000Z</time>
      </trkpt>
      <trkpt lat="47.4536" lon="6.78914">
        <ele>332</ele>
        <time>2016-10-01T15:47:19.000Z</time>
      </trkpt>
      <trkpt lat="47.45364" lon="6.78909">
        <ele>332</ele>
        <time>2016-10-01T15:47:20.000Z</time>
      </trkpt>
      <trkpt lat="47.45367" lon="6.78905">
        <ele>332</ele>
        <time>2016-10-01T15:47:21.000Z</time>
      </trkpt>
      <trkpt lat="47.4537" lon="6.78902">
        <ele>332</ele>
        <time>2016-10-01T15:47:22.000Z</time>
      </trkpt>
      <trkpt lat="47.45375" lon="6.78898">
        <ele>332</ele>
        <time>2016-10-01T15:47:23.000Z</time>
      </trkpt>
      <trkpt lat="47.45378" lon="6.78894">
        <ele>332</ele>
        <time>2016-10-01T15:47:24.000Z</time>
      </trkpt>
      <trkpt lat="47.4538" lon="6.7889">
        <ele>332</ele>
        <time>2016-10-01T15:47:25.000Z</time>
      </trkpt>
      <trkpt lat="47.45381" lon="6.78887">
        <ele>332</ele>
        <time>2016-10-01T15:47:26.000Z</time>
      </trkpt>
      <trkpt lat="47.45382" lon="6.78883">
        <ele>332</ele>
        <time>2016-10-01T15:47:27.000Z</time>
      </trkpt>
      <trkpt lat="47.45384" lon="6.7888">
        <ele>332</ele>
        <time>2016-10-01T15:47:28.000Z</time>
      </trkpt>
      <trkpt lat="47.45387" lon="6.78876">
        <ele>332</ele>
        <time>2016-10-01T15:47:29.000Z</time>
      </trkpt>
      <trkpt lat="47.45391" lon="6.78874">
        <ele>332</ele>
        <time>2016-10-01T15:47:30.000Z</time>
      </trkpt>
      <trkpt lat="47.45393" lon="6.78871">
        <ele>332</ele>
        <time>2016-10-01T15:47:31.000Z</time>
      </trkpt>
      <trkpt lat="47.45396" lon="6.78872">
        <ele>332</ele>
        <time>2016-10-01T15:47:32.000Z</time>
      </trkpt>
      <trkpt lat="47.454" lon="6.7887">
        <ele>332</ele>
        <time>2016-10-01T15:47:33.000Z</time>
      </trkpt>
      <trkpt lat="47.45402" lon="6.78867">
        <ele>332</ele>
        <time>2016-10-01T15:47:34.000Z</time>
      </trkpt>
      <trkpt lat="47.45405" lon="6.78865">
        <ele>332</ele>
        <time>2016-10-01T15:47:35.000Z</time>
      </trkpt>
      <trkpt lat="47.45408" lon="6.78862">
        <ele>332</ele>
        <time>2016-10-01T15:47:36.000Z</time>
      </trkpt>
      <trkpt lat="47.45411" lon="6.78858">
        <ele>332</ele>
        <time>2016-10-01T15:47:37.000Z</time>
      </trkpt>
      <trkpt lat="47.45415" lon="6.78854">
        <ele>332</ele>
        <time>2016-10-01T15:47:38.000Z</time>
      </trkpt>
      <trkpt lat="47.45418" lon="6.7885">
        <ele>332</ele>
        <time>2016-10-01T15:47:39.000Z</time>
      </trkpt>
      <trkpt lat="47.45421" lon="6.78845">
        <ele>332</ele>
        <time>2016-10-01T15:47:40.000Z</time>
      </trkpt>
      <trkpt lat="47.45425" lon="6.78841">
        <ele>332</ele>
        <time>2016-10-01T15:47:41.000Z</time>
      </trkpt>
      <trkpt lat="47.45429" lon="6.78836">
        <ele>332</ele>
        <time>2016-10-01T15:47:42.000Z</time>
      </trkpt>
      <trkpt lat="47.45432" lon="6.78826">
        <ele>333</ele>
        <time>2016-10-01T15:47:43.000Z</time>
      </trkpt>
      <trkpt lat="47.45434" lon="6.78822">
        <ele>333</ele>
        <time>2016-10-01T15:47:44.000Z</time>
      </trkpt>
      <trkpt lat="47.45435" lon="6.78819">
        <ele>333</ele>
        <time>2016-10-01T15:47:45.000Z</time>
      </trkpt>
      <trkpt lat="47.45437" lon="6.78815">
        <ele>333</ele>
        <time>2016-10-01T15:47:46.000Z</time>
      </trkpt>
      <trkpt lat="47.4544" lon="6.7881">
        <ele>333</ele>
        <time>2016-10-01T15:47:47.000Z</time>
      </trkpt>
      <trkpt lat="47.45444" lon="6.78808">
        <ele>333</ele>
        <time>2016-10-01T15:47:48.000Z</time>
      </trkpt>
      <trkpt lat="47.45448" lon="6.78803">
        <ele>333</ele>
        <time>2016-10-01T15:47:49.000Z</time>
      </trkpt>
      <trkpt lat="47.45451" lon="6.78798">
        <ele>333</ele>
        <time>2016-10-01T15:47:50.000Z</time>
      </trkpt>
      <trkpt lat="47.45455" lon="6.78793">
        <ele>333</ele>
        <time>2016-10-01T15:47:51.000Z</time>
      </trkpt>
      <trkpt lat="47.45457" lon="6.78788">
        <ele>333</ele>
        <time>2016-10-01T15:47:52.000Z</time>
      </trkpt>
      <trkpt lat="47.4546" lon="6.78785">
        <ele>333</ele>
        <time>2016-10-01T15:47:53.000Z</time>
      </trkpt>
      <trkpt lat="47.45464" lon="6.7878">
        <ele>333</ele>
        <time>2016-10-01T15:47:54.000Z</time>
      </trkpt>
      <trkpt lat="47.4547" lon="6.78777">
        <ele>334</ele>
        <time>2016-10-01T15:47:55.000Z</time>
      </trkpt>
      <trkpt lat="47.45472" lon="6.78773">
        <ele>334</ele>
        <time>2016-10-01T15:47:56.000Z</time>
      </trkpt>
      <trkpt lat="47.45477" lon="6.78768">
        <ele>334</ele>
        <time>2016-10-01T15:47:57.000Z</time>
      </trkpt>
      <trkpt lat="47.45481" lon="6.78765">
        <ele>334</ele>
        <time>2016-10-01T15:47:58.000Z</time>
      </trkpt>
      <trkpt lat="47.45484" lon="6.78763">
        <ele>334</ele>
        <time>2016-10-01T15:47:59.000Z</time>
      </trkpt>
      <trkpt lat="47.45486" lon="6.78759">
        <ele>334</ele>
        <time>2016-10-01T15:48:02.000Z</time>
      </trkpt>
      <trkpt lat="47.45486" lon="6.78756">
        <ele>334</ele>
        <time>2016-10-01T15:48:03.000Z</time>
      </trkpt>
      <trkpt lat="47.45484" lon="6.78751">
        <ele>334</ele>
        <time>2016-10-01T15:48:05.000Z</time>
      </trkpt>
      <trkpt lat="47.45484" lon="6.78749">
        <ele>335</ele>
        <time>2016-10-01T15:48:05.999Z</time>
      </trkpt>
      <trkpt lat="47.45484" lon="6.78745">
        <ele>335</ele>
        <time>2016-10-01T15:48:07.000Z</time>
      </trkpt>
      <trkpt lat="47.45485" lon="6.78742">
        <ele>335</ele>
        <time>2016-10-01T15:48:08.000Z</time>
      </trkpt>
      <trkpt lat="47.45485" lon="6.78737">
        <ele>335</ele>
        <time>2016-10-01T15:48:09.000Z</time>
      </trkpt>
      <trkpt lat="47.45484" lon="6.78732">
        <ele>335</ele>
        <time>2016-10-01T15:48:10.000Z</time>
      </trkpt>
      <trkpt lat="47.45482" lon="6.78727">
        <ele>335</ele>
        <time>2016-10-01T15:48:11.000Z</time>
      </trkpt>
      <trkpt lat="47.4548" lon="6.78723">
        <ele>335</ele>
        <time>2016-10-01T15:48:12.000Z</time>
      </trkpt>
      <trkpt lat="47.45472" lon="6.78719">
        <ele>335</ele>
        <time>2016-10-01T15:48:13.000Z</time>
      </trkpt>
      <trkpt lat="47.45469" lon="6.78714">
        <ele>335</ele>
        <time>2016-10-01T15:48:14.000Z</time>
      </trkpt>
      <trkpt lat="47.45467" lon="6.78711">
        <ele>335</ele>
        <time>2016-10-01T15:48:15.000Z</time>
      </trkpt>
      <trkpt lat="47.45465" lon="6.78707">
        <ele>335</ele>
        <time>2016-10-01T15:48:16.000Z</time>
      </trkpt>
      <trkpt lat="47.45462" lon="6.78703">
        <ele>335</ele>
        <time>2016-10-01T15:48:17.000Z</time>
      </trkpt>
      <trkpt lat="47.45459" lon="6.78697">
        <ele>335</ele>
        <time>2016-10-01T15:48:18.000Z</time>
      </trkpt>
      <trkpt lat="47.45456" lon="6.78691">
        <ele>335</ele>
        <time>2016-10-01T15:48:19.000Z</time>
      </trkpt>
      <trkpt lat="47.45454" lon="6.78686">
        <ele>335</ele>
        <time>2016-10-01T15:48:20.000Z</time>
      </trkpt>
      <trkpt lat="47.45452" lon="6.78682">
        <ele>335</ele>
        <time>2016-10-01T15:48:21.000Z</time>
      </trkpt>
      <trkpt lat="47.45451" lon="6.78679">
        <ele>335</ele>
        <time>2016-10-01T15:48:22.000Z</time>
      </trkpt>
      <trkpt lat="47.45448" lon="6.78674">
        <ele>335</ele>
        <time>2016-10-01T15:48:23.000Z</time>
      </trkpt>
      <trkpt lat="47.45445" lon="6.78669">
        <ele>335</ele>
        <time>2016-10-01T15:48:24.000Z</time>
      </trkpt>
      <trkpt lat="47.45443" lon="6.78663">
        <ele>337</ele>
        <time>2016-10-01T15:48:25.000Z</time>
      </trkpt>
      <trkpt lat="47.4544" lon="6.78658">
        <ele>337</ele>
        <time>2016-10-01T15:48:26.000Z</time>
      </trkpt>
      <trkpt lat="47.45438" lon="6.78653">
        <ele>337</ele>
        <time>2016-10-01T15:48:27.000Z</time>
      </trkpt>
      <trkpt lat="47.45435" lon="6.78649">
        <ele>337</ele>
        <time>2016-10-01T15:48:28.000Z</time>
      </trkpt>
      <trkpt lat="47.45433" lon="6.78645">
        <ele>337</ele>
        <time>2016-10-01T15:48:29.000Z</time>
      </trkpt>
      <trkpt lat="47.45431" lon="6.78641">
        <ele>337</ele>
        <time>2016-10-01T15:48:30.000Z</time>
      </trkpt>
      <trkpt lat="47.45428" lon="6.78636">
        <ele>338</ele>
        <time>2016-10-01T15:48:31.000Z</time>
      </trkpt>
      <trkpt lat="47.45426" lon="6.78631">
        <ele>338</ele>
        <time>2016-10-01T15:48:32.000Z</time>
      </trkpt>
      <trkpt lat="47.45424" lon="6.78626">
        <ele>338</ele>
        <time>2016-10-01T15:48:33.000Z</time>
      </trkpt>
      <trkpt lat="47.45422" lon="6.78621">
        <ele>338</ele>
        <time>2016-10-01T15:48:34.000Z</time>
      </trkpt>
      <trkpt lat="47.4542" lon="6.78616">
        <ele>338</ele>
        <time>2016-10-01T15:48:35.000Z</time>
      </trkpt>
      <trkpt lat="47.45418" lon="6.78612">
        <ele>338</ele>
        <time>2016-10-01T15:48:36.000Z</time>
      </trkpt>
      <trkpt lat="47.45416" lon="6.78609">
        <ele>336</ele>
        <time>2016-10-01T15:48:37.000Z</time>
      </trkpt>
      <trkpt lat="47.45414" lon="6.78605">
        <ele>337</ele>
        <time>2016-10-01T15:48:38.000Z</time>
      </trkpt>
      <trkpt lat="47.45411" lon="6.78601">
        <ele>337</ele>
        <time>2016-10-01T15:48:39.000Z</time>
      </trkpt>
      <trkpt lat="47.45409" lon="6.78597">
        <ele>337</ele>
        <time>2016-10-01T15:48:40.000Z</time>
      </trkpt>
      <trkpt lat="47.45407" lon="6.78592">
        <ele>337</ele>
        <time>2016-10-01T15:48:41.000Z</time>
      </trkpt>
      <trkpt lat="47.45404" lon="6.78587">
        <ele>337</ele>
        <time>2016-10-01T15:48:42.000Z</time>
      </trkpt>
      <trkpt lat="47.45402" lon="6.78582">
        <ele>339</ele>
        <time>2016-10-01T15:48:43.000Z</time>
      </trkpt>
      <trkpt lat="47.45399" lon="6.78577">
        <ele>339</ele>
        <time>2016-10-01T15:48:44.000Z</time>
      </trkpt>
      <trkpt lat="47.45396" lon="6.78573">
        <ele>339</ele>
        <time>2016-10-01T15:48:45.000Z</time>
      </trkpt>
      <trkpt lat="47.45394" lon="6.78568">
        <ele>339</ele>
        <time>2016-10-01T15:48:46.000Z</time>
      </trkpt>
      <trkpt lat="47.45391" lon="6.78563">
        <ele>339</ele>
        <time>2016-10-01T15:48:47.000Z</time>
      </trkpt>
      <trkpt lat="47.4539" lon="6.78558">
        <ele>339</ele>
        <time>2016-10-01T15:48:48.000Z</time>
      </trkpt>
      <trkpt lat="47.45387" lon="6.78553">
        <ele>339</ele>
        <time>2016-10-01T15:48:49.000Z</time>
      </trkpt>
      <trkpt lat="47.45384" lon="6.78549">
        <ele>339</ele>
        <time>2016-10-01T15:48:50.000Z</time>
      </trkpt>
      <trkpt lat="47.45381" lon="6.78544">
        <ele>339</ele>
        <time>2016-10-01T15:48:51.000Z</time>
      </trkpt>
      <trkpt lat="47.45379" lon="6.78538">
        <ele>339</ele>
        <time>2016-10-01T15:48:52.000Z</time>
      </trkpt>
      <trkpt lat="47.45379" lon="6.78532">
        <ele>339</ele>
        <time>2016-10-01T15:48:53.000Z</time>
      </trkpt>
      <trkpt lat="47.45377" lon="6.78527">
        <ele>339</ele>
        <time>2016-10-01T15:48:54.000Z</time>
      </trkpt>
      <trkpt lat="47.45376" lon="6.78522">
        <ele>339</ele>
        <time>2016-10-01T15:48:55.000Z</time>
      </trkpt>
      <trkpt lat="47.45376" lon="6.78518">
        <ele>339</ele>
        <time>2016-10-01T15:48:56.000Z</time>
      </trkpt>
      <trkpt lat="47.45375" lon="6.78514">
        <ele>339</ele>
        <time>2016-10-01T15:48:57.000Z</time>
      </trkpt>
      <trkpt lat="47.45374" lon="6.7851">
        <ele>339</ele>
        <time>2016-10-01T15:48:58.000Z</time>
      </trkpt>
      <trkpt lat="47.45373" lon="6.78506">
        <ele>339</ele>
        <time>2016-10-01T15:48:59.000Z</time>
      </trkpt>
      <trkpt lat="47.45373" lon="6.78501">
        <ele>339</ele>
        <time>2016-10-01T15:49:00.000Z</time>
      </trkpt>
      <trkpt lat="47.45372" lon="6.78497">
        <ele>341</ele>
        <time>2016-10-01T15:49:01.000Z</time>
      </trkpt>
      <trkpt lat="47.45372" lon="6.78492">
        <ele>341</ele>
        <time>2016-10-01T15:49:02.000Z</time>
      </trkpt>
      <trkpt lat="47.45373" lon="6.78487">
        <ele>342</ele>
        <time>2016-10-01T15:49:03.000Z</time>
      </trkpt>
      <trkpt lat="47.45374" lon="6.78483">
        <ele>342</ele>
        <time>2016-10-01T15:49:04.000Z</time>
      </trkpt>
      <trkpt lat="47.45376" lon="6.78481">
        <ele>342</ele>
        <time>2016-10-01T15:49:05.000Z</time>
      </trkpt>
      <trkpt lat="47.45378" lon="6.78481">
        <ele>342</ele>
        <time>2016-10-01T15:49:06.000Z</time>
      </trkpt>
      <trkpt lat="47.45382" lon="6.78483">
        <ele>342</ele>
        <time>2016-10-01T15:49:07.000Z</time>
      </trkpt>
      <trkpt lat="47.45384" lon="6.78485">
        <ele>342</ele>
        <time>2016-10-01T15:49:08.000Z</time>
      </trkpt>
      <trkpt lat="47.45387" lon="6.78488">
        <ele>342</ele>
        <time>2016-10-01T15:49:09.000Z</time>
      </trkpt>
      <trkpt lat="47.45389" lon="6.78491">
        <ele>342</ele>
        <time>2016-10-01T15:49:10.000Z</time>
      </trkpt>
      <trkpt lat="47.45392" lon="6.78493">
        <ele>343</ele>
        <time>2016-10-01T15:49:11.000Z</time>
      </trkpt>
      <trkpt lat="47.45394" lon="6.78495">
        <ele>343</ele>
        <time>2016-10-01T15:49:12.000Z</time>
      </trkpt>
      <trkpt lat="47.45397" lon="6.78498">
        <ele>343</ele>
        <time>2016-10-01T15:49:13.000Z</time>
      </trkpt>
      <trkpt lat="47.454" lon="6.78501">
        <ele>341</ele>
        <time>2016-10-01T15:49:14.000Z</time>
      </trkpt>
      <trkpt lat="47.45403" lon="6.78503">
        <ele>342</ele>
        <time>2016-10-01T15:49:15.000Z</time>
      </trkpt>
      <trkpt lat="47.45407" lon="6.78505">
        <ele>342</ele>
        <time>2016-10-01T15:49:16.000Z</time>
      </trkpt>
      <trkpt lat="47.4541" lon="6.78506">
        <ele>342</ele>
        <time>2016-10-01T15:49:17.000Z</time>
      </trkpt>
      <trkpt lat="47.45413" lon="6.78507">
        <ele>343</ele>
        <time>2016-10-01T15:49:18.000Z</time>
      </trkpt>
      <trkpt lat="47.45417" lon="6.78508">
        <ele>344</ele>
        <time>2016-10-01T15:49:19.000Z</time>
      </trkpt>
      <trkpt lat="47.45421" lon="6.78509">
        <ele>344</ele>
        <time>2016-10-01T15:49:20.000Z</time>
      </trkpt>
      <trkpt lat="47.45424" lon="6.7851">
        <ele>344</ele>
        <time>2016-10-01T15:49:21.000Z</time>
      </trkpt>
      <trkpt lat="47.45428" lon="6.7851">
        <ele>344</ele>
        <time>2016-10-01T15:49:22.000Z</time>
      </trkpt>
      <trkpt lat="47.45431" lon="6.7851">
        <ele>344</ele>
        <time>2016-10-01T15:49:23.000Z</time>
      </trkpt>
      <trkpt lat="47.45434" lon="6.78509">
        <ele>344</ele>
        <time>2016-10-01T15:49:24.000Z</time>
      </trkpt>
      <trkpt lat="47.45437" lon="6.78508">
        <ele>344</ele>
        <time>2016-10-01T15:49:25.000Z</time>
      </trkpt>
      <trkpt lat="47.4544" lon="6.78507">
        <ele>344</ele>
        <time>2016-10-01T15:49:26.000Z</time>
      </trkpt>
      <trkpt lat="47.45444" lon="6.78506">
        <ele>344</ele>
        <time>2016-10-01T15:49:27.000Z</time>
      </trkpt>
      <trkpt lat="47.45447" lon="6.78504">
        <ele>344</ele>
        <time>2016-10-01T15:49:28.000Z</time>
      </trkpt>
      <trkpt lat="47.45451" lon="6.78503">
        <ele>344</ele>
        <time>2016-10-01T15:49:29.000Z</time>
      </trkpt>
      <trkpt lat="47.45454" lon="6.78501">
        <ele>344</ele>
        <time>2016-10-01T15:49:30.000Z</time>
      </trkpt>
      <trkpt lat="47.45458" lon="6.78499">
        <ele>347</ele>
        <time>2016-10-01T15:49:31.000Z</time>
      </trkpt>
      <trkpt lat="47.45461" lon="6.78497">
        <ele>347</ele>
        <time>2016-10-01T15:49:32.000Z</time>
      </trkpt>
      <trkpt lat="47.45464" lon="6.78495">
        <ele>347</ele>
        <time>2016-10-01T15:49:33.000Z</time>
      </trkpt>
      <trkpt lat="47.45467" lon="6.78493">
        <ele>347</ele>
        <time>2016-10-01T15:49:34.000Z</time>
      </trkpt>
      <trkpt lat="47.45469" lon="6.78491">
        <ele>348</ele>
        <time>2016-10-01T15:49:35.000Z</time>
      </trkpt>
      <trkpt lat="47.45472" lon="6.7849">
        <ele>348</ele>
        <time>2016-10-01T15:49:36.000Z</time>
      </trkpt>
      <trkpt lat="47.45475" lon="6.78488">
        <ele>348</ele>
        <time>2016-10-01T15:49:37.000Z</time>
      </trkpt>
      <trkpt lat="47.45478" lon="6.78486">
        <ele>348</ele>
        <time>2016-10-01T15:49:38.000Z</time>
      </trkpt>
      <trkpt lat="47.45481" lon="6.78485">
        <ele>348</ele>
        <time>2016-10-01T15:49:39.000Z</time>
      </trkpt>
      <trkpt lat="47.45484" lon="6.78483">
        <ele>348</ele>
        <time>2016-10-01T15:49:40.000Z</time>
      </trkpt>
      <trkpt lat="47.45486" lon="6.78482">
        <ele>348</ele>
        <time>2016-10-01T15:49:41.000Z</time>
      </trkpt>
      <trkpt lat="47.45489" lon="6.78481">
        <ele>348</ele>
        <time>2016-10-01T15:49:42.000Z</time>
      </trkpt>
      <trkpt lat="47.45492" lon="6.78479">
        <ele>348</ele>
        <time>2016-10-01T15:49:43.000Z</time>
      </trkpt>
      <trkpt lat="47.45495" lon="6.78478">
        <ele>348</ele>
        <time>2016-10-01T15:49:44.000Z</time>
      </trkpt>
      <trkpt lat="47.45498" lon="6.78476">
        <ele>348</ele>
        <time>2016-10-01T15:49:45.000Z</time>
      </trkpt>
      <trkpt lat="47.45501" lon="6.78474">
        <ele>350</ele>
        <time>2016-10-01T15:49:46.000Z</time>
      </trkpt>
      <trkpt lat="47.45505" lon="6.78472">
        <ele>350</ele>
        <time>2016-10-01T15:49:47.000Z</time>
      </trkpt>
      <trkpt lat="47.45508" lon="6.78471">
        <ele>350</ele>
        <time>2016-10-01T15:49:48.000Z</time>
      </trkpt>
      <trkpt lat="47.45511" lon="6.78469">
        <ele>350</ele>
        <time>2016-10-01T15:49:49.000Z</time>
      </trkpt>
      <trkpt lat="47.45515" lon="6.78468">
        <ele>350</ele>
        <time>2016-10-01T15:49:50.000Z</time>
      </trkpt>
      <trkpt lat="47.45518" lon="6.78467">
        <ele>350</ele>
        <time>2016-10-01T15:49:51.000Z</time>
      </trkpt>
      <trkpt lat="47.45521" lon="6.78465">
        <ele>351</ele>
        <time>2016-10-01T15:49:52.000Z</time>
      </trkpt>
      <trkpt lat="47.45525" lon="6.78464">
        <ele>351</ele>
        <time>2016-10-01T15:49:53.000Z</time>
      </trkpt>
      <trkpt lat="47.45528" lon="6.78462">
        <ele>351</ele>
        <time>2016-10-01T15:49:54.000Z</time>
      </trkpt>
      <trkpt lat="47.45532" lon="6.78459">
        <ele>351</ele>
        <time>2016-10-01T15:49:55.000Z</time>
      </trkpt>
      <trkpt lat="47.45535" lon="6.78456">
        <ele>351</ele>
        <time>2016-10-01T15:49:56.000Z</time>
      </trkpt>
      <trkpt lat="47.45538" lon="6.78454">
        <ele>351</ele>
        <time>2016-10-01T15:49:57.000Z</time>
      </trkpt>
      <trkpt lat="47.45541" lon="6.78453">
        <ele>351</ele>
        <time>2016-10-01T15:49:58.000Z</time>
      </trkpt>
      <trkpt lat="47.45545" lon="6.78452">
        <ele>351</ele>
        <time>2016-10-01T15:49:59.000Z</time>
      </trkpt>
      <trkpt lat="47.45547" lon="6.78451">
        <ele>351</ele>
        <time>2016-10-01T15:50:00.000Z</time>
      </trkpt>
      <trkpt lat="47.4555" lon="6.78448">
        <ele>351</ele>
        <time>2016-10-01T15:50:01.000Z</time>
      </trkpt>
      <trkpt lat="47.45553" lon="6.78447">
        <ele>351</ele>
        <time>2016-10-01T15:50:02.000Z</time>
      </trkpt>
      <trkpt lat="47.45557" lon="6.78445">
        <ele>352</ele>
        <time>2016-10-01T15:50:03.000Z</time>
      </trkpt>
      <trkpt lat="47.4556" lon="6.78443">
        <ele>352</ele>
        <time>2016-10-01T15:50:04.000Z</time>
      </trkpt>
      <trkpt lat="47.45564" lon="6.78442">
        <ele>352</ele>
        <time>2016-10-01T15:50:05.000Z</time>
      </trkpt>
      <trkpt lat="47.45567" lon="6.78439">
        <ele>352</ele>
        <time>2016-10-01T15:50:06.000Z</time>
      </trkpt>
      <trkpt lat="47.45572" lon="6.78435">
        <ele>352</ele>
        <time>2016-10-01T15:50:07.000Z</time>
      </trkpt>
      <trkpt lat="47.45575" lon="6.78433">
        <ele>352</ele>
        <time>2016-10-01T15:50:08.000Z</time>
      </trkpt>
      <trkpt lat="47.45578" lon="6.78431">
        <ele>353</ele>
        <time>2016-10-01T15:50:09.000Z</time>
      </trkpt>
      <trkpt lat="47.45581" lon="6.7843">
        <ele>353</ele>
        <time>2016-10-01T15:50:10.000Z</time>
      </trkpt>
      <trkpt lat="47.45584" lon="6.78428">
        <ele>354</ele>
        <time>2016-10-01T15:50:11.000Z</time>
      </trkpt>
      <trkpt lat="47.45586" lon="6.78426">
        <ele>354</ele>
        <time>2016-10-01T15:50:12.000Z</time>
      </trkpt>
      <trkpt lat="47.45589" lon="6.78424">
        <ele>354</ele>
        <time>2016-10-01T15:50:13.000Z</time>
      </trkpt>
      <trkpt lat="47.45592" lon="6.78422">
        <ele>354</ele>
        <time>2016-10-01T15:50:14.000Z</time>
      </trkpt>
      <trkpt lat="47.45595" lon="6.7842">
        <ele>354</ele>
        <time>2016-10-01T15:50:15.000Z</time>
      </trkpt>
      <trkpt lat="47.45599" lon="6.78418">
        <ele>354</ele>
        <time>2016-10-01T15:50:16.000Z</time>
      </trkpt>
      <trkpt lat="47.45602" lon="6.78417">
        <ele>355</ele>
        <time>2016-10-01T15:50:17.000Z</time>
      </trkpt>
      <trkpt lat="47.45606" lon="6.78415">
        <ele>355</ele>
        <time>2016-10-01T15:50:18.000Z</time>
      </trkpt>
      <trkpt lat="47.45609" lon="6.78413">
        <ele>355</ele>
        <time>2016-10-01T15:50:19.000Z</time>
      </trkpt>
      <trkpt lat="47.45613" lon="6.78411">
        <ele>355</ele>
        <time>2016-10-01T15:50:20.000Z</time>
      </trkpt>
      <trkpt lat="47.45616" lon="6.78411">
        <ele>355</ele>
        <time>2016-10-01T15:50:21.000Z</time>
      </trkpt>
      <trkpt lat="47.4562" lon="6.7841">
        <ele>355</ele>
        <time>2016-10-01T15:50:22.000Z</time>
      </trkpt>
      <trkpt lat="47.45623" lon="6.78409">
        <ele>355</ele>
        <time>2016-10-01T15:50:23.000Z</time>
      </trkpt>
      <trkpt lat="47.45626" lon="6.78408">
        <ele>355</ele>
        <time>2016-10-01T15:50:24.000Z</time>
      </trkpt>
      <trkpt lat="47.45629" lon="6.78407">
        <ele>355</ele>
        <time>2016-10-01T15:50:25.000Z</time>
      </trkpt>
      <trkpt lat="47.45632" lon="6.78405">
        <ele>355</ele>
        <time>2016-10-01T15:50:26.000Z</time>
      </trkpt>
      <trkpt lat="47.45635" lon="6.78403">
        <ele>355</ele>
        <time>2016-10-01T15:50:27.000Z</time>
      </trkpt>
      <trkpt lat="47.45638" lon="6.78402">
        <ele>355</ele>
        <time>2016-10-01T15:50:28.000Z</time>
      </trkpt>
      <trkpt lat="47.45642" lon="6.784">
        <ele>355</ele>
        <time>2016-10-01T15:50:29.000Z</time>
      </trkpt>
      <trkpt lat="47.45646" lon="6.78398">
        <ele>355</ele>
        <time>2016-10-01T15:50:30.000Z</time>
      </trkpt>
      <trkpt lat="47.45649" lon="6.78397">
        <ele>356</ele>
        <time>2016-10-01T15:50:31.000Z</time>
      </trkpt>
      <trkpt lat="47.45653" lon="6.78396">
        <ele>356</ele>
        <time>2016-10-01T15:50:32.000Z</time>
      </trkpt>
      <trkpt lat="47.45656" lon="6.78394">
        <ele>356</ele>
        <time>2016-10-01T15:50:33.000Z</time>
      </trkpt>
      <trkpt lat="47.45659" lon="6.78393">
        <ele>356</ele>
        <time>2016-10-01T15:50:34.000Z</time>
      </trkpt>
      <trkpt lat="47.45662" lon="6.78391">
        <ele>356</ele>
        <time>2016-10-01T15:50:35.000Z</time>
      </trkpt>
      <trkpt lat="47.45666" lon="6.7839">
        <ele>356</ele>
        <time>2016-10-01T15:50:36.000Z</time>
      </trkpt>
      <trkpt lat="47.45669" lon="6.78389">
        <ele>358</ele>
        <time>2016-10-01T15:50:37.000Z</time>
      </trkpt>
      <trkpt lat="47.45673" lon="6.78388">
        <ele>358</ele>
        <time>2016-10-01T15:50:38.000Z</time>
      </trkpt>
      <trkpt lat="47.45677" lon="6.78387">
        <ele>358</ele>
        <time>2016-10-01T15:50:39.000Z</time>
      </trkpt>
      <trkpt lat="47.4568" lon="6.78386">
        <ele>358</ele>
        <time>2016-10-01T15:50:40.000Z</time>
      </trkpt>
      <trkpt lat="47.45684" lon="6.78386">
        <ele>358</ele>
        <time>2016-10-01T15:50:41.000Z</time>
      </trkpt>
      <trkpt lat="47.45688" lon="6.78386">
        <ele>358</ele>
        <time>2016-10-01T15:50:42.000Z</time>
      </trkpt>
      <trkpt lat="47.45692" lon="6.78386">
        <ele>358</ele>
        <time>2016-10-01T15:50:43.000Z</time>
      </trkpt>
      <trkpt lat="47.45695" lon="6.78385">
        <ele>358</ele>
        <time>2016-10-01T15:50:44.000Z</time>
      </trkpt>
      <trkpt lat="47.45698" lon="6.78385">
        <ele>359</ele>
        <time>2016-10-01T15:50:45.000Z</time>
      </trkpt>
      <trkpt lat="47.45701" lon="6.78385">
        <ele>359</ele>
        <time>2016-10-01T15:50:46.000Z</time>
      </trkpt>
      <trkpt lat="47.45704" lon="6.78384">
        <ele>359</ele>
        <time>2016-10-01T15:50:47.000Z</time>
      </trkpt>
      <trkpt lat="47.45707" lon="6.78384">
        <ele>359</ele>
        <time>2016-10-01T15:50:48.000Z</time>
      </trkpt>
      <trkpt lat="47.4571" lon="6.78383">
        <ele>359</ele>
        <time>2016-10-01T15:50:49.000Z</time>
      </trkpt>
      <trkpt lat="47.45714" lon="6.78383">
        <ele>359</ele>
        <time>2016-10-01T15:50:50.000Z</time>
      </trkpt>
      <trkpt lat="47.45717" lon="6.78383">
        <ele>359</ele>
        <time>2016-10-01T15:50:51.000Z</time>
      </trkpt>
      <trkpt lat="47.45721" lon="6.78384">
        <ele>359</ele>
        <time>2016-10-01T15:50:52.000Z</time>
      </trkpt>
      <trkpt lat="47.45724" lon="6.78384">
        <ele>359</ele>
        <time>2016-10-01T15:50:53.000Z</time>
      </trkpt>
      <trkpt lat="47.45727" lon="6.78385">
        <ele>359</ele>
        <time>2016-10-01T15:50:54.000Z</time>
      </trkpt>
      <trkpt lat="47.4573" lon="6.78385">
        <ele>359</ele>
        <time>2016-10-01T15:50:55.000Z</time>
      </trkpt>
      <trkpt lat="47.45734" lon="6.78385">
        <ele>360</ele>
        <time>2016-10-01T15:50:56.000Z</time>
      </trkpt>
      <trkpt lat="47.45737" lon="6.78384">
        <ele>360</ele>
        <time>2016-10-01T15:50:57.000Z</time>
      </trkpt>
      <trkpt lat="47.45741" lon="6.78383">
        <ele>360</ele>
        <time>2016-10-01T15:50:58.000Z</time>
      </trkpt>
      <trkpt lat="47.45742" lon="6.78392">
        <ele>360</ele>
        <time>2016-10-01T15:50:59.000Z</time>
      </trkpt>
      <trkpt lat="47.45745" lon="6.78396">
        <ele>360</ele>
        <time>2016-10-01T15:51:00.000Z</time>
      </trkpt>
      <trkpt lat="47.45747" lon="6.78397">
        <ele>360</ele>
        <time>2016-10-01T15:51:01.000Z</time>
      </trkpt>
      <trkpt lat="47.4575" lon="6.78398">
        <ele>360</ele>
        <time>2016-10-01T15:51:02.000Z</time>
      </trkpt>
      <trkpt lat="47.45752" lon="6.78399">
        <ele>363</ele>
        <time>2016-10-01T15:51:03.000Z</time>
      </trkpt>
      <trkpt lat="47.45756" lon="6.784">
        <ele>364</ele>
        <time>2016-10-01T15:51:04.000Z</time>
      </trkpt>
      <trkpt lat="47.45758" lon="6.78399">
        <ele>364</ele>
        <time>2016-10-01T15:51:05.000Z</time>
      </trkpt>
      <trkpt lat="47.45761" lon="6.78397">
        <ele>364</ele>
        <time>2016-10-01T15:51:06.000Z</time>
      </trkpt>
      <trkpt lat="47.45764" lon="6.78398">
        <ele>364</ele>
        <time>2016-10-01T15:51:07.000Z</time>
      </trkpt>
      <trkpt lat="47.45766" lon="6.784">
        <ele>364</ele>
        <time>2016-10-01T15:51:08.000Z</time>
      </trkpt>
      <trkpt lat="47.45769" lon="6.78401">
        <ele>365</ele>
        <time>2016-10-01T15:51:09.000Z</time>
      </trkpt>
      <trkpt lat="47.45771" lon="6.78402">
        <ele>365</ele>
        <time>2016-10-01T15:51:10.000Z</time>
      </trkpt>
      <trkpt lat="47.45774" lon="6.78404">
        <ele>365</ele>
        <time>2016-10-01T15:51:11.000Z</time>
      </trkpt>
      <trkpt lat="47.45776" lon="6.78405">
        <ele>365</ele>
        <time>2016-10-01T15:51:12.000Z</time>
      </trkpt>
      <trkpt lat="47.45778" lon="6.78406">
        <ele>365</ele>
        <time>2016-10-01T15:51:13.000Z</time>
      </trkpt>
      <trkpt lat="47.45782" lon="6.78408">
        <ele>366</ele>
        <time>2016-10-01T15:51:15.000Z</time>
      </trkpt>
      <trkpt lat="47.45784" lon="6.78409">
        <ele>366</ele>
        <time>2016-10-01T15:51:16.000Z</time>
      </trkpt>
      <trkpt lat="47.45788" lon="6.78412">
        <ele>366</ele>
        <time>2016-10-01T15:51:18.000Z</time>
      </trkpt>
      <trkpt lat="47.4579" lon="6.78413">
        <ele>366</ele>
        <time>2016-10-01T15:51:19.000Z</time>
      </trkpt>
      <trkpt lat="47.45793" lon="6.78414">
        <ele>367</ele>
        <time>2016-10-01T15:51:20.000Z</time>
      </trkpt>
      <trkpt lat="47.45795" lon="6.78415">
        <ele>367</ele>
        <time>2016-10-01T15:51:21.000Z</time>
      </trkpt>
      <trkpt lat="47.45797" lon="6.78417">
        <ele>365</ele>
        <time>2016-10-01T15:51:22.000Z</time>
      </trkpt>
      <trkpt lat="47.45799" lon="6.78419">
        <ele>365</ele>
        <time>2016-10-01T15:51:23.000Z</time>
      </trkpt>
      <trkpt lat="47.45803" lon="6.78422">
        <ele>366</ele>
        <time>2016-10-01T15:51:25.000Z</time>
      </trkpt>
      <trkpt lat="47.45804" lon="6.78424">
        <ele>366</ele>
        <time>2016-10-01T15:51:26.000Z</time>
      </trkpt>
      <trkpt lat="47.45807" lon="6.78428">
        <ele>366</ele>
        <time>2016-10-01T15:51:28.000Z</time>
      </trkpt>
      <trkpt lat="47.45808" lon="6.7843">
        <ele>366</ele>
        <time>2016-10-01T15:51:29.000Z</time>
      </trkpt>
      <trkpt lat="47.4581" lon="6.78434">
        <ele>366</ele>
        <time>2016-10-01T15:51:31.000Z</time>
      </trkpt>
      <trkpt lat="47.45811" lon="6.78435">
        <ele>366</ele>
        <time>2016-10-01T15:51:32.000Z</time>
      </trkpt>
      <trkpt lat="47.45815" lon="6.78436">
        <ele>367</ele>
        <time>2016-10-01T15:51:34.000Z</time>
      </trkpt>
      <trkpt lat="47.45817" lon="6.78437">
        <ele>367</ele>
        <time>2016-10-01T15:51:35.000Z</time>
      </trkpt>
      <trkpt lat="47.4582" lon="6.78439">
        <ele>367</ele>
        <time>2016-10-01T15:51:37.000Z</time>
      </trkpt>
      <trkpt lat="47.45822" lon="6.78441">
        <ele>367</ele>
        <time>2016-10-01T15:51:38.000Z</time>
      </trkpt>
      <trkpt lat="47.45824" lon="6.78443">
        <ele>367</ele>
        <time>2016-10-01T15:51:39.000Z</time>
      </trkpt>
      <trkpt lat="47.45826" lon="6.78446">
        <ele>367</ele>
        <time>2016-10-01T15:51:40.000Z</time>
      </trkpt>
      <trkpt lat="47.45828" lon="6.78448">
        <ele>367</ele>
        <time>2016-10-01T15:51:41.000Z</time>
      </trkpt>
      <trkpt lat="47.4583" lon="6.7845">
        <ele>367</ele>
        <time>2016-10-01T15:51:42.000Z</time>
      </trkpt>
      <trkpt lat="47.45834" lon="6.78453">
        <ele>374</ele>
        <time>2016-10-01T15:51:44.000Z</time>
      </trkpt>
      <trkpt lat="47.45835" lon="6.78455">
        <ele>374</ele>
        <time>2016-10-01T15:51:45.000Z</time>
      </trkpt>
      <trkpt lat="47.45837" lon="6.78457">
        <ele>374</ele>
        <time>2016-10-01T15:51:46.000Z</time>
      </trkpt>
      <trkpt lat="47.45839" lon="6.78459">
        <ele>374</ele>
        <time>2016-10-01T15:51:47.000Z</time>
      </trkpt>
      <trkpt lat="47.45842" lon="6.78463">
        <ele>374</ele>
        <time>2016-10-01T15:51:49.000Z</time>
      </trkpt>
      <trkpt lat="47.45844" lon="6.78464">
        <ele>374</ele>
        <time>2016-10-01T15:51:50.000Z</time>
      </trkpt>
      <trkpt lat="47.45847" lon="6.78466">
        <ele>374</ele>
        <time>2016-10-01T15:51:52.000Z</time>
      </trkpt>
      <trkpt lat="47.45848" lon="6.78466">
        <ele>375</ele>
        <time>2016-10-01T15:51:53.000Z</time>
      </trkpt>
      <trkpt lat="47.45851" lon="6.78468">
        <ele>375</ele>
        <time>2016-10-01T15:51:57.000Z</time>
      </trkpt>
      <trkpt lat="47.45853" lon="6.7847">
        <ele>375</ele>
        <time>2016-10-01T15:51:58.000Z</time>
      </trkpt>
      <trkpt lat="47.45856" lon="6.78475">
        <ele>375</ele>
        <time>2016-10-01T15:52:00.000Z</time>
      </trkpt>
      <trkpt lat="47.45857" lon="6.78477">
        <ele>375</ele>
        <time>2016-10-01T15:52:01.000Z</time>
      </trkpt>
      <trkpt lat="47.45859" lon="6.7848">
        <ele>375</ele>
        <time>2016-10-01T15:52:02.000Z</time>
      </trkpt>
      <trkpt lat="47.45861" lon="6.78482">
        <ele>375</ele>
        <time>2016-10-01T15:52:03.000Z</time>
      </trkpt>
      <trkpt lat="47.45864" lon="6.78485">
        <ele>375</ele>
        <time>2016-10-01T15:52:05.000Z</time>
      </trkpt>
      <trkpt lat="47.45865" lon="6.78486">
        <ele>375</ele>
        <time>2016-10-01T15:52:06.000Z</time>
      </trkpt>
      <trkpt lat="47.45868" lon="6.78491">
        <ele>375</ele>
        <time>2016-10-01T15:52:09.000Z</time>
      </trkpt>
      <trkpt lat="47.45869" lon="6.78493">
        <ele>376</ele>
        <time>2016-10-01T15:52:10.000Z</time>
      </trkpt>
      <trkpt lat="47.45872" lon="6.78498">
        <ele>376</ele>
        <time>2016-10-01T15:52:12.000Z</time>
      </trkpt>
      <trkpt lat="47.45873" lon="6.785">
        <ele>376</ele>
        <time>2016-10-01T15:52:13.000Z</time>
      </trkpt>
      <trkpt lat="47.45877" lon="6.78504">
        <ele>375</ele>
        <time>2016-10-01T15:52:15.000Z</time>
      </trkpt>
      <trkpt lat="47.45879" lon="6.78506">
        <ele>375</ele>
        <time>2016-10-01T15:52:16.000Z</time>
      </trkpt>
      <trkpt lat="47.45881" lon="6.78508">
        <ele>375</ele>
        <time>2016-10-01T15:52:17.000Z</time>
      </trkpt>
      <trkpt lat="47.45883" lon="6.7851">
        <ele>375</ele>
        <time>2016-10-01T15:52:18.000Z</time>
      </trkpt>
      <trkpt lat="47.45885" lon="6.78511">
        <ele>376</ele>
        <time>2016-10-01T15:52:19.000Z</time>
      </trkpt>
      <trkpt lat="47.45888" lon="6.78513">
        <ele>376</ele>
        <time>2016-10-01T15:52:20.000Z</time>
      </trkpt>
      <trkpt lat="47.45891" lon="6.78517">
        <ele>376</ele>
        <time>2016-10-01T15:52:22.000Z</time>
      </trkpt>
      <trkpt lat="47.45892" lon="6.78518">
        <ele>376</ele>
        <time>2016-10-01T15:52:23.000Z</time>
      </trkpt>
      <trkpt lat="47.45893" lon="6.78522">
        <ele>376</ele>
        <time>2016-10-01T15:52:26.000Z</time>
      </trkpt>
      <trkpt lat="47.45894" lon="6.78524">
        <ele>376</ele>
        <time>2016-10-01T15:52:27.000Z</time>
      </trkpt>
      <trkpt lat="47.45895" lon="6.78527">
        <ele>376</ele>
        <time>2016-10-01T15:52:28.000Z</time>
      </trkpt>
      <trkpt lat="47.45897" lon="6.78529">
        <ele>376</ele>
        <time>2016-10-01T15:52:29.000Z</time>
      </trkpt>
      <trkpt lat="47.45899" lon="6.78531">
        <ele>376</ele>
        <time>2016-10-01T15:52:30.000Z</time>
      </trkpt>
      <trkpt lat="47.45901" lon="6.78533">
        <ele>376</ele>
        <time>2016-10-01T15:52:31.000Z</time>
      </trkpt>
      <trkpt lat="47.45903" lon="6.78535">
        <ele>376</ele>
        <time>2016-10-01T15:52:32.000Z</time>
      </trkpt>
      <trkpt lat="47.45905" lon="6.78536">
        <ele>376</ele>
        <time>2016-10-01T15:52:33.000Z</time>
      </trkpt>
      <trkpt lat="47.45908" lon="6.78538">
        <ele>376</ele>
        <time>2016-10-01T15:52:34.000Z</time>
      </trkpt>
      <trkpt lat="47.4591" lon="6.7854">
        <ele>376</ele>
        <time>2016-10-01T15:52:35.000Z</time>
      </trkpt>
      <trkpt lat="47.45912" lon="6.78541">
        <ele>377</ele>
        <time>2016-10-01T15:52:36.000Z</time>
      </trkpt>
      <trkpt lat="47.45915" lon="6.78542">
        <ele>377</ele>
        <time>2016-10-01T15:52:37.000Z</time>
      </trkpt>
      <trkpt lat="47.45917" lon="6.78544">
        <ele>386</ele>
        <time>2016-10-01T15:52:38.000Z</time>
      </trkpt>
      <trkpt lat="47.45919" lon="6.78543">
        <ele>386</ele>
        <time>2016-10-01T15:52:39.000Z</time>
      </trkpt>
      <trkpt lat="47.45922" lon="6.78543">
        <ele>386</ele>
        <time>2016-10-01T15:52:40.000Z</time>
      </trkpt>
      <trkpt lat="47.45924" lon="6.78542">
        <ele>386</ele>
        <time>2016-10-01T15:52:41.000Z</time>
      </trkpt>
      <trkpt lat="47.45928" lon="6.7854">
        <ele>387</ele>
        <time>2016-10-01T15:52:43.000Z</time>
      </trkpt>
      <trkpt lat="47.4593" lon="6.78539">
        <ele>387</ele>
        <time>2016-10-01T15:52:44.000Z</time>
      </trkpt>
      <trkpt lat="47.45932" lon="6.78538">
        <ele>387</ele>
        <time>2016-10-01T15:52:45.000Z</time>
      </trkpt>
      <trkpt lat="47.45934" lon="6.78537">
        <ele>387</ele>
        <time>2016-10-01T15:52:46.000Z</time>
      </trkpt>
      <trkpt lat="47.45938" lon="6.78534">
        <ele>387</ele>
        <time>2016-10-01T15:52:48.000Z</time>
      </trkpt>
      <trkpt lat="47.45939" lon="6.78532">
        <ele>387</ele>
        <time>2016-10-01T15:52:49.000Z</time>
      </trkpt>
      <trkpt lat="47.45942" lon="6.78528">
        <ele>388</ele>
        <time>2016-10-01T15:52:51.000Z</time>
      </trkpt>
      <trkpt lat="47.45943" lon="6.78525">
        <ele>388</ele>
        <time>2016-10-01T15:52:52.000Z</time>
      </trkpt>
      <trkpt lat="47.45944" lon="6.78522">
        <ele>388</ele>
        <time>2016-10-01T15:52:53.000Z</time>
      </trkpt>
      <trkpt lat="47.45944" lon="6.78518">
        <ele>388</ele>
        <time>2016-10-01T15:52:54.000Z</time>
      </trkpt>
      <trkpt lat="47.45943" lon="6.78514">
        <ele>388</ele>
        <time>2016-10-01T15:52:55.000Z</time>
      </trkpt>
      <trkpt lat="47.45942" lon="6.78512">
        <ele>387</ele>
        <time>2016-10-01T15:52:56.000Z</time>
      </trkpt>
      <trkpt lat="47.4594" lon="6.78508">
        <ele>387</ele>
        <time>2016-10-01T15:52:57.000Z</time>
      </trkpt>
      <trkpt lat="47.45939" lon="6.78506">
        <ele>387</ele>
        <time>2016-10-01T15:52:58.000Z</time>
      </trkpt>
      <trkpt lat="47.45938" lon="6.78501">
        <ele>387</ele>
        <time>2016-10-01T15:53:00.000Z</time>
      </trkpt>
      <trkpt lat="47.45937" lon="6.78498">
        <ele>388</ele>
        <time>2016-10-01T15:53:01.000Z</time>
      </trkpt>
      <trkpt lat="47.45937" lon="6.78494">
        <ele>388</ele>
        <time>2016-10-01T15:53:02.000Z</time>
      </trkpt>
      <trkpt lat="47.45938" lon="6.7849">
        <ele>389</ele>
        <time>2016-10-01T15:53:03.000Z</time>
      </trkpt>
      <trkpt lat="47.45938" lon="6.78483">
        <ele>389</ele>
        <time>2016-10-01T15:53:05.000Z</time>
      </trkpt>
      <trkpt lat="47.45938" lon="6.78481">
        <ele>389</ele>
        <time>2016-10-01T15:53:06.001Z</time>
      </trkpt>
      <trkpt lat="47.45938" lon="6.78475">
        <ele>390</ele>
        <time>2016-10-01T15:53:08.001Z</time>
      </trkpt>
      <trkpt lat="47.45938" lon="6.78473">
        <ele>390</ele>
        <time>2016-10-01T15:53:09.000Z</time>
      </trkpt>
      <trkpt lat="47.4594" lon="6.78467">
        <ele>391</ele>
        <time>2016-10-01T15:53:11.000Z</time>
      </trkpt>
      <trkpt lat="47.45941" lon="6.78464">
        <ele>391</ele>
        <time>2016-10-01T15:53:12.000Z</time>
      </trkpt>
      <trkpt lat="47.45942" lon="6.7846">
        <ele>391</ele>
        <time>2016-10-01T15:53:13.000Z</time>
      </trkpt>
      <trkpt lat="47.45943" lon="6.78458">
        <ele>391</ele>
        <time>2016-10-01T15:53:14.000Z</time>
      </trkpt>
      <trkpt lat="47.45946" lon="6.78453">
        <ele>392</ele>
        <time>2016-10-01T15:53:16.000Z</time>
      </trkpt>
      <trkpt lat="47.45947" lon="6.78451">
        <ele>392</ele>
        <time>2016-10-01T15:53:17.000Z</time>
      </trkpt>
      <trkpt lat="47.4595" lon="6.78449">
        <ele>392</ele>
        <time>2016-10-01T15:53:19.000Z</time>
      </trkpt>
      <trkpt lat="47.45952" lon="6.78448">
        <ele>392</ele>
        <time>2016-10-01T15:53:20.000Z</time>
      </trkpt>
      <trkpt lat="47.45955" lon="6.78446">
        <ele>393</ele>
        <time>2016-10-01T15:53:22.000Z</time>
      </trkpt>
      <trkpt lat="47.45956" lon="6.78446">
        <ele>393</ele>
        <time>2016-10-01T15:53:23.000Z</time>
      </trkpt>
      <trkpt lat="47.4596" lon="6.78443">
        <ele>393</ele>
        <time>2016-10-01T15:53:27.000Z</time>
      </trkpt>
      <trkpt lat="47.45961" lon="6.78442">
        <ele>393</ele>
        <time>2016-10-01T15:53:28.000Z</time>
      </trkpt>
      <trkpt lat="47.45965" lon="6.7844">
        <ele>394</ele>
        <time>2016-10-01T15:53:31.000Z</time>
      </trkpt>
      <trkpt lat="47.45966" lon="6.78439">
        <ele>394</ele>
        <time>2016-10-01T15:53:32.000Z</time>
      </trkpt>
      <trkpt lat="47.4597" lon="6.78436">
        <ele>395</ele>
        <time>2016-10-01T15:53:36.000Z</time>
      </trkpt>
      <trkpt lat="47.45971" lon="6.78436">
        <ele>395</ele>
        <time>2016-10-01T15:53:37.000Z</time>
      </trkpt>
      <trkpt lat="47.45973" lon="6.78433">
        <ele>395</ele>
        <time>2016-10-01T15:53:41.000Z</time>
      </trkpt>
      <trkpt lat="47.45974" lon="6.78432">
        <ele>395</ele>
        <time>2016-10-01T15:53:42.000Z</time>
      </trkpt>
      <trkpt lat="47.45976" lon="6.78428">
        <ele>396</ele>
        <time>2016-10-01T15:53:44.000Z</time>
      </trkpt>
      <trkpt lat="47.45978" lon="6.78426">
        <ele>396</ele>
        <time>2016-10-01T15:53:45.000Z</time>
      </trkpt>
      <trkpt lat="47.45979" lon="6.78424">
        <ele>396</ele>
        <time>2016-10-01T15:53:46.000Z</time>
      </trkpt>
      <trkpt lat="47.45982" lon="6.78422">
        <ele>397</ele>
        <time>2016-10-01T15:53:47.000Z</time>
      </trkpt>
      <trkpt lat="47.45984" lon="6.7842">
        <ele>397</ele>
        <time>2016-10-01T15:53:48.000Z</time>
      </trkpt>
      <trkpt lat="47.45986" lon="6.78417">
        <ele>398</ele>
        <time>2016-10-01T15:53:49.000Z</time>
      </trkpt>
      <trkpt lat="47.45988" lon="6.78415">
        <ele>399</ele>
        <time>2016-10-01T15:53:50.000Z</time>
      </trkpt>
      <trkpt lat="47.45991" lon="6.78412">
        <ele>400</ele>
        <time>2016-10-01T15:53:51.000Z</time>
      </trkpt>
      <trkpt lat="47.45993" lon="6.7841">
        <ele>400</ele>
        <time>2016-10-01T15:53:52.000Z</time>
      </trkpt>
      <trkpt lat="47.45994" lon="6.78408">
        <ele>400</ele>
        <time>2016-10-01T15:53:53.000Z</time>
      </trkpt>
      <trkpt lat="47.45997" lon="6.78406">
        <ele>400</ele>
        <time>2016-10-01T15:53:55.000Z</time>
      </trkpt>
      <trkpt lat="47.45999" lon="6.78405">
        <ele>399</ele>
        <time>2016-10-01T15:53:56.000Z</time>
      </trkpt>
      <trkpt lat="47.46003" lon="6.78402">
        <ele>403</ele>
        <time>2016-10-01T15:53:59.000Z</time>
      </trkpt>
      <trkpt lat="47.46004" lon="6.78401">
        <ele>404</ele>
        <time>2016-10-01T15:54:00.000Z</time>
      </trkpt>
      <trkpt lat="47.46006" lon="6.78399">
        <ele>404</ele>
        <time>2016-10-01T15:54:01.000Z</time>
      </trkpt>
      <trkpt lat="47.46008" lon="6.78397">
        <ele>404</ele>
        <time>2016-10-01T15:54:02.000Z</time>
      </trkpt>
      <trkpt lat="47.46011" lon="6.78394">
        <ele>404</ele>
        <time>2016-10-01T15:54:03.000Z</time>
      </trkpt>
      <trkpt lat="47.46013" lon="6.78392">
        <ele>404</ele>
        <time>2016-10-01T15:54:04.000Z</time>
      </trkpt>
      <trkpt lat="47.46016" lon="6.7839">
        <ele>404</ele>
        <time>2016-10-01T15:54:05.000Z</time>
      </trkpt>
      <trkpt lat="47.46019" lon="6.78388">
        <ele>404</ele>
        <time>2016-10-01T15:54:06.000Z</time>
      </trkpt>
      <trkpt lat="47.46021" lon="6.78386">
        <ele>405</ele>
        <time>2016-10-01T15:54:07.000Z</time>
      </trkpt>
      <trkpt lat="47.46024" lon="6.78384">
        <ele>405</ele>
        <time>2016-10-01T15:54:08.000Z</time>
      </trkpt>
      <trkpt lat="47.46027" lon="6.78383">
        <ele>405</ele>
        <time>2016-10-01T15:54:09.000Z</time>
      </trkpt>
      <trkpt lat="47.46029" lon="6.78383">
        <ele>405</ele>
        <time>2016-10-01T15:54:10.000Z</time>
      </trkpt>
      <trkpt lat="47.46031" lon="6.78382">
        <ele>405</ele>
        <time>2016-10-01T15:54:11.000Z</time>
      </trkpt>
      <trkpt lat="47.46033" lon="6.78381">
        <ele>405</ele>
        <time>2016-10-01T15:54:12.000Z</time>
      </trkpt>
      <trkpt lat="47.46036" lon="6.7838">
        <ele>405</ele>
        <time>2016-10-01T15:54:13.000Z</time>
      </trkpt>
      <trkpt lat="47.46039" lon="6.78378">
        <ele>405</ele>
        <time>2016-10-01T15:54:14.000Z</time>
      </trkpt>
      <trkpt lat="47.46042" lon="6.78377">
        <ele>406</ele>
        <time>2016-10-01T15:54:15.000Z</time>
      </trkpt>
      <trkpt lat="47.46045" lon="6.78375">
        <ele>406</ele>
        <time>2016-10-01T15:54:16.000Z</time>
      </trkpt>
      <trkpt lat="47.46048" lon="6.78375">
        <ele>406</ele>
        <time>2016-10-01T15:54:17.000Z</time>
      </trkpt>
      <trkpt lat="47.46051" lon="6.78374">
        <ele>406</ele>
        <time>2016-10-01T15:54:18.000Z</time>
      </trkpt>
      <trkpt lat="47.46054" lon="6.78373">
        <ele>406</ele>
        <time>2016-10-01T15:54:19.000Z</time>
      </trkpt>
      <trkpt lat="47.46058" lon="6.78371">
        <ele>406</ele>
        <time>2016-10-01T15:54:20.000Z</time>
      </trkpt>
      <trkpt lat="47.46061" lon="6.7837">
        <ele>406</ele>
        <time>2016-10-01T15:54:21.000Z</time>
      </trkpt>
      <trkpt lat="47.46063" lon="6.78368">
        <ele>406</ele>
        <time>2016-10-01T15:54:22.000Z</time>
      </trkpt>
      <trkpt lat="47.46067" lon="6.78364">
        <ele>406</ele>
        <time>2016-10-01T15:54:24.000Z</time>
      </trkpt>
      <trkpt lat="47.46069" lon="6.78363">
        <ele>407</ele>
        <time>2016-10-01T15:54:25.000Z</time>
      </trkpt>
      <trkpt lat="47.46071" lon="6.78363">
        <ele>407</ele>
        <time>2016-10-01T15:54:26.000Z</time>
      </trkpt>
      <trkpt lat="47.46074" lon="6.78363">
        <ele>407</ele>
        <time>2016-10-01T15:54:27.000Z</time>
      </trkpt>
      <trkpt lat="47.46077" lon="6.78363">
        <ele>407</ele>
        <time>2016-10-01T15:54:28.000Z</time>
      </trkpt>
      <trkpt lat="47.4608" lon="6.78362">
        <ele>407</ele>
        <time>2016-10-01T15:54:29.000Z</time>
      </trkpt>
      <trkpt lat="47.46085" lon="6.7836">
        <ele>409</ele>
        <time>2016-10-01T15:54:30.000Z</time>
      </trkpt>
      <trkpt lat="47.46089" lon="6.78357">
        <ele>409</ele>
        <time>2016-10-01T15:54:31.000Z</time>
      </trkpt>
      <trkpt lat="47.46094" lon="6.78355">
        <ele>409</ele>
        <time>2016-10-01T15:54:32.000Z</time>
      </trkpt>
      <trkpt lat="47.46098" lon="6.78355">
        <ele>409</ele>
        <time>2016-10-01T15:54:33.000Z</time>
      </trkpt>
      <trkpt lat="47.46101" lon="6.78355">
        <ele>409</ele>
        <time>2016-10-01T15:54:34.000Z</time>
      </trkpt>
      <trkpt lat="47.46105" lon="6.78355">
        <ele>409</ele>
        <time>2016-10-01T15:54:35.000Z</time>
      </trkpt>
      <trkpt lat="47.46109" lon="6.78354">
        <ele>409</ele>
        <time>2016-10-01T15:54:36.000Z</time>
      </trkpt>
      <trkpt lat="47.46113" lon="6.78354">
        <ele>409</ele>
        <time>2016-10-01T15:54:37.000Z</time>
      </trkpt>
      <trkpt lat="47.46118" lon="6.78355">
        <ele>409</ele>
        <time>2016-10-01T15:54:38.000Z</time>
      </trkpt>
      <trkpt lat="47.46123" lon="6.78356">
        <ele>409</ele>
        <time>2016-10-01T15:54:39.000Z</time>
      </trkpt>
      <trkpt lat="47.46128" lon="6.78357">
        <ele>409</ele>
        <time>2016-10-01T15:54:40.000Z</time>
      </trkpt>
      <trkpt lat="47.46134" lon="6.7836">
        <ele>409</ele>
        <time>2016-10-01T15:54:41.000Z</time>
      </trkpt>
      <trkpt lat="47.4614" lon="6.78362">
        <ele>409</ele>
        <time>2016-10-01T15:54:42.000Z</time>
      </trkpt>
      <trkpt lat="47.46156" lon="6.78368">
        <ele>410</ele>
        <time>2016-10-01T15:54:43.000Z</time>
      </trkpt>
      <trkpt lat="47.46162" lon="6.78369">
        <ele>410</ele>
        <time>2016-10-01T15:54:44.000Z</time>
      </trkpt>
      <trkpt lat="47.46171" lon="6.78369">
        <ele>408</ele>
        <time>2016-10-01T15:54:45.000Z</time>
      </trkpt>
      <trkpt lat="47.46179" lon="6.78371">
        <ele>407</ele>
        <time>2016-10-01T15:54:46.000Z</time>
      </trkpt>
      <trkpt lat="47.46188" lon="6.78365">
        <ele>407</ele>
        <time>2016-10-01T15:54:47.000Z</time>
      </trkpt>
      <trkpt lat="47.46202" lon="6.78358">
        <ele>406</ele>
        <time>2016-10-01T15:54:48.000Z</time>
      </trkpt>
      <trkpt lat="47.46212" lon="6.78356">
        <ele>406</ele>
        <time>2016-10-01T15:54:49.000Z</time>
      </trkpt>
      <trkpt lat="47.46222" lon="6.78352">
        <ele>405</ele>
        <time>2016-10-01T15:54:50.000Z</time>
      </trkpt>
      <trkpt lat="47.46234" lon="6.78349">
        <ele>405</ele>
        <time>2016-10-01T15:54:51.000Z</time>
      </trkpt>
      <trkpt lat="47.46248" lon="6.78338">
        <ele>403</ele>
        <time>2016-10-01T15:54:52.000Z</time>
      </trkpt>
      <trkpt lat="47.46261" lon="6.78332">
        <ele>400</ele>
        <time>2016-10-01T15:54:53.000Z</time>
      </trkpt>
      <trkpt lat="47.46275" lon="6.78328">
        <ele>398</ele>
        <time>2016-10-01T15:54:54.000Z</time>
      </trkpt>
      <trkpt lat="47.46288" lon="6.78322">
        <ele>397</ele>
        <time>2016-10-01T15:54:55.000Z</time>
      </trkpt>
      <trkpt lat="47.46299" lon="6.78321">
        <ele>396</ele>
        <time>2016-10-01T15:54:56.000Z</time>
      </trkpt>
      <trkpt lat="47.46309" lon="6.78316">
        <ele>395</ele>
        <time>2016-10-01T15:54:57.000Z</time>
      </trkpt>
      <trkpt lat="47.46318" lon="6.78313">
        <ele>395</ele>
        <time>2016-10-01T15:54:58.000Z</time>
      </trkpt>
      <trkpt lat="47.46327" lon="6.78312">
        <ele>394</ele>
        <time>2016-10-01T15:54:59.000Z</time>
      </trkpt>
      <trkpt lat="47.46335" lon="6.78312">
        <ele>390</ele>
        <time>2016-10-01T15:55:00.000Z</time>
      </trkpt>
      <trkpt lat="47.46346" lon="6.7831">
        <ele>389</ele>
        <time>2016-10-01T15:55:01.000Z</time>
      </trkpt>
      <trkpt lat="47.46356" lon="6.78306">
        <ele>389</ele>
        <time>2016-10-01T15:55:02.000Z</time>
      </trkpt>
      <trkpt lat="47.46365" lon="6.78304">
        <ele>388</ele>
        <time>2016-10-01T15:55:03.000Z</time>
      </trkpt>
      <trkpt lat="47.46374" lon="6.78302">
        <ele>388</ele>
        <time>2016-10-01T15:55:04.000Z</time>
      </trkpt>
      <trkpt lat="47.46384" lon="6.78301">
        <ele>387</ele>
        <time>2016-10-01T15:55:05.000Z</time>
      </trkpt>
      <trkpt lat="47.46393" lon="6.78298">
        <ele>387</ele>
        <time>2016-10-01T15:55:06.000Z</time>
      </trkpt>
      <trkpt lat="47.46403" lon="6.78294">
        <ele>386</ele>
        <time>2016-10-01T15:55:07.000Z</time>
      </trkpt>
      <trkpt lat="47.46412" lon="6.78292">
        <ele>386</ele>
        <time>2016-10-01T15:55:08.000Z</time>
      </trkpt>
      <trkpt lat="47.46421" lon="6.78294">
        <ele>384</ele>
        <time>2016-10-01T15:55:09.000Z</time>
      </trkpt>
      <trkpt lat="47.4643" lon="6.78294">
        <ele>383</ele>
        <time>2016-10-01T15:55:10.000Z</time>
      </trkpt>
      <trkpt lat="47.46438" lon="6.78294">
        <ele>383</ele>
        <time>2016-10-01T15:55:11.000Z</time>
      </trkpt>
      <trkpt lat="47.46448" lon="6.78294">
        <ele>383</ele>
        <time>2016-10-01T15:55:12.000Z</time>
      </trkpt>
      <trkpt lat="47.46455" lon="6.78295">
        <ele>383</ele>
        <time>2016-10-01T15:55:13.000Z</time>
      </trkpt>
      <trkpt lat="47.46462" lon="6.78299">
        <ele>383</ele>
        <time>2016-10-01T15:55:14.000Z</time>
      </trkpt>
      <trkpt lat="47.4647" lon="6.78301">
        <ele>383</ele>
        <time>2016-10-01T15:55:15.000Z</time>
      </trkpt>
      <trkpt lat="47.46476" lon="6.78303">
        <ele>384</ele>
        <time>2016-10-01T15:55:16.000Z</time>
      </trkpt>
      <trkpt lat="47.46481" lon="6.78304">
        <ele>384</ele>
        <time>2016-10-01T15:55:17.000Z</time>
      </trkpt>
      <trkpt lat="47.46486" lon="6.78305">
        <ele>384</ele>
        <time>2016-10-01T15:55:18.000Z</time>
      </trkpt>
      <trkpt lat="47.46491" lon="6.78307">
        <ele>384</ele>
        <time>2016-10-01T15:55:19.000Z</time>
      </trkpt>
      <trkpt lat="47.46496" lon="6.78308">
        <ele>384</ele>
        <time>2016-10-01T15:55:20.000Z</time>
      </trkpt>
      <trkpt lat="47.46504" lon="6.78305">
        <ele>381</ele>
        <time>2016-10-01T15:55:21.000Z</time>
      </trkpt>
      <trkpt lat="47.4651" lon="6.78302">
        <ele>381</ele>
        <time>2016-10-01T15:55:22.000Z</time>
      </trkpt>
      <trkpt lat="47.46515" lon="6.783">
        <ele>380</ele>
        <time>2016-10-01T15:55:23.000Z</time>
      </trkpt>
      <trkpt lat="47.46518" lon="6.78297">
        <ele>380</ele>
        <time>2016-10-01T15:55:24.000Z</time>
      </trkpt>
      <trkpt lat="47.46521" lon="6.78296">
        <ele>379</ele>
        <time>2016-10-01T15:55:25.000Z</time>
      </trkpt>
      <trkpt lat="47.46524" lon="6.78296">
        <ele>379</ele>
        <time>2016-10-01T15:55:26.000Z</time>
      </trkpt>
      <trkpt lat="47.46526" lon="6.78296">
        <ele>379</ele>
        <time>2016-10-01T15:55:27.000Z</time>
      </trkpt>
      <trkpt lat="47.46528" lon="6.78294">
        <ele>379</ele>
        <time>2016-10-01T15:55:28.000Z</time>
      </trkpt>
      <trkpt lat="47.46532" lon="6.78291">
        <ele>379</ele>
        <time>2016-10-01T15:55:29.000Z</time>
      </trkpt>
      <trkpt lat="47.46535" lon="6.78289">
        <ele>378</ele>
        <time>2016-10-01T15:55:30.000Z</time>
      </trkpt>
      <trkpt lat="47.46539" lon="6.78288">
        <ele>378</ele>
        <time>2016-10-01T15:55:31.000Z</time>
      </trkpt>
      <trkpt lat="47.46542" lon="6.78287">
        <ele>378</ele>
        <time>2016-10-01T15:55:32.001Z</time>
      </trkpt>
      <trkpt lat="47.46546" lon="6.78287">
        <ele>378</ele>
        <time>2016-10-01T15:55:33.000Z</time>
      </trkpt>
      <trkpt lat="47.4655" lon="6.78287">
        <ele>378</ele>
        <time>2016-10-01T15:55:34.000Z</time>
      </trkpt>
      <trkpt lat="47.46555" lon="6.78287">
        <ele>377</ele>
        <time>2016-10-01T15:55:35.000Z</time>
      </trkpt>
      <trkpt lat="47.46561" lon="6.7829">
        <ele>377</ele>
        <time>2016-10-01T15:55:36.000Z</time>
      </trkpt>
      <trkpt lat="47.46567" lon="6.78291">
        <ele>377</ele>
        <time>2016-10-01T15:55:37.000Z</time>
      </trkpt>
      <trkpt lat="47.4657" lon="6.78289">
        <ele>377</ele>
        <time>2016-10-01T15:55:38.000Z</time>
      </trkpt>
      <trkpt lat="47.46574" lon="6.78289">
        <ele>377</ele>
        <time>2016-10-01T15:55:39.000Z</time>
      </trkpt>
      <trkpt lat="47.46577" lon="6.78287">
        <ele>376</ele>
        <time>2016-10-01T15:55:40.000Z</time>
      </trkpt>
      <trkpt lat="47.4658" lon="6.78286">
        <ele>376</ele>
        <time>2016-10-01T15:55:41.000Z</time>
      </trkpt>
      <trkpt lat="47.46585" lon="6.78285">
        <ele>372</ele>
        <time>2016-10-01T15:55:42.000Z</time>
      </trkpt>
      <trkpt lat="47.4659" lon="6.78286">
        <ele>372</ele>
        <time>2016-10-01T15:55:43.000Z</time>
      </trkpt>
      <trkpt lat="47.46595" lon="6.78284">
        <ele>372</ele>
        <time>2016-10-01T15:55:44.000Z</time>
      </trkpt>
      <trkpt lat="47.46601" lon="6.78285">
        <ele>372</ele>
        <time>2016-10-01T15:55:45.000Z</time>
      </trkpt>
      <trkpt lat="47.46607" lon="6.78281">
        <ele>371</ele>
        <time>2016-10-01T15:55:46.000Z</time>
      </trkpt>
      <trkpt lat="47.46613" lon="6.78281">
        <ele>371</ele>
        <time>2016-10-01T15:55:46.999Z</time>
      </trkpt>
      <trkpt lat="47.46618" lon="6.78276">
        <ele>370</ele>
        <time>2016-10-01T15:55:48.000Z</time>
      </trkpt>
      <trkpt lat="47.46624" lon="6.7827">
        <ele>370</ele>
        <time>2016-10-01T15:55:49.000Z</time>
      </trkpt>
      <trkpt lat="47.46629" lon="6.78259">
        <ele>369</ele>
        <time>2016-10-01T15:55:50.000Z</time>
      </trkpt>
      <trkpt lat="47.46631" lon="6.78245">
        <ele>365</ele>
        <time>2016-10-01T15:55:51.000Z</time>
      </trkpt>
      <trkpt lat="47.46635" lon="6.78234">
        <ele>365</ele>
        <time>2016-10-01T15:55:52.000Z</time>
      </trkpt>
      <trkpt lat="47.46637" lon="6.78222">
        <ele>365</ele>
        <time>2016-10-01T15:55:53.000Z</time>
      </trkpt>
      <trkpt lat="47.46639" lon="6.78215">
        <ele>364</ele>
        <time>2016-10-01T15:55:54.000Z</time>
      </trkpt>
      <trkpt lat="47.46643" lon="6.78205">
        <ele>364</ele>
        <time>2016-10-01T15:55:55.000Z</time>
      </trkpt>
      <trkpt lat="47.46644" lon="6.78198">
        <ele>364</ele>
        <time>2016-10-01T15:55:56.000Z</time>
      </trkpt>
      <trkpt lat="47.46646" lon="6.78187">
        <ele>363</ele>
        <time>2016-10-01T15:55:57.000Z</time>
      </trkpt>
      <trkpt lat="47.4665" lon="6.78175">
        <ele>362</ele>
        <time>2016-10-01T15:55:58.000Z</time>
      </trkpt>
      <trkpt lat="47.46652" lon="6.78167">
        <ele>364</ele>
        <time>2016-10-01T15:55:59.000Z</time>
      </trkpt>
      <trkpt lat="47.46654" lon="6.78161">
        <ele>363</ele>
        <time>2016-10-01T15:56:00.000Z</time>
      </trkpt>
      <trkpt lat="47.46659" lon="6.78154">
        <ele>364</ele>
        <time>2016-10-01T15:56:01.000Z</time>
      </trkpt>
      <trkpt lat="47.46665" lon="6.78142">
        <ele>365</ele>
        <time>2016-10-01T15:56:02.000Z</time>
      </trkpt>
      <trkpt lat="47.46669" lon="6.78136">
        <ele>359</ele>
        <time>2016-10-01T15:56:03.000Z</time>
      </trkpt>
      <trkpt lat="47.46674" lon="6.78129">
        <ele>360</ele>
        <time>2016-10-01T15:56:04.000Z</time>
      </trkpt>
      <trkpt lat="47.46679" lon="6.78121">
        <ele>360</ele>
        <time>2016-10-01T15:56:04.999Z</time>
      </trkpt>
      <trkpt lat="47.46682" lon="6.78111">
        <ele>360</ele>
        <time>2016-10-01T15:56:06.000Z</time>
      </trkpt>
      <trkpt lat="47.46686" lon="6.78103">
        <ele>360</ele>
        <time>2016-10-01T15:56:07.000Z</time>
      </trkpt>
      <trkpt lat="47.46688" lon="6.78097">
        <ele>361</ele>
        <time>2016-10-01T15:56:08.000Z</time>
      </trkpt>
      <trkpt lat="47.4669" lon="6.7809">
        <ele>361</ele>
        <time>2016-10-01T15:56:09.000Z</time>
      </trkpt>
      <trkpt lat="47.46692" lon="6.78088">
        <ele>360</ele>
        <time>2016-10-01T15:56:10.000Z</time>
      </trkpt>
      <trkpt lat="47.46695" lon="6.78086">
        <ele>360</ele>
        <time>2016-10-01T15:56:11.000Z</time>
      </trkpt>
      <trkpt lat="47.46697" lon="6.78083">
        <ele>362</ele>
        <time>2016-10-01T15:56:12.000Z</time>
      </trkpt>
      <trkpt lat="47.46699" lon="6.78081">
        <ele>362</ele>
        <time>2016-10-01T15:56:13.000Z</time>
      </trkpt>
      <trkpt lat="47.46704" lon="6.78076">
        <ele>362</ele>
        <time>2016-10-01T15:56:14.000Z</time>
      </trkpt>
      <trkpt lat="47.46708" lon="6.78072">
        <ele>361</ele>
        <time>2016-10-01T15:56:15.000Z</time>
      </trkpt>
      <trkpt lat="47.46711" lon="6.78068">
        <ele>361</ele>
        <time>2016-10-01T15:56:16.000Z</time>
      </trkpt>
      <trkpt lat="47.46714" lon="6.78066">
        <ele>361</ele>
        <time>2016-10-01T15:56:16.999Z</time>
      </trkpt>
      <trkpt lat="47.46716" lon="6.78058">
        <ele>361</ele>
        <time>2016-10-01T15:56:18.000Z</time>
      </trkpt>
      <trkpt lat="47.46717" lon="6.78055">
        <ele>361</ele>
        <time>2016-10-01T15:56:19.000Z</time>
      </trkpt>
      <trkpt lat="47.46716" lon="6.78051">
        <ele>361</ele>
        <time>2016-10-01T15:56:20.000Z</time>
      </trkpt>
      <trkpt lat="47.46719" lon="6.78047">
        <ele>361</ele>
        <time>2016-10-01T15:56:20.999Z</time>
      </trkpt>
      <trkpt lat="47.46719" lon="6.78038">
        <ele>361</ele>
        <time>2016-10-01T15:56:22.000Z</time>
      </trkpt>
      <trkpt lat="47.46719" lon="6.78035">
        <ele>362</ele>
        <time>2016-10-01T15:56:23.000Z</time>
      </trkpt>
      <trkpt lat="47.46719" lon="6.78031">
        <ele>362</ele>
        <time>2016-10-01T15:56:24.000Z</time>
      </trkpt>
      <trkpt lat="47.46719" lon="6.78027">
        <ele>362</ele>
        <time>2016-10-01T15:56:25.000Z</time>
      </trkpt>
      <trkpt lat="47.46719" lon="6.78024">
        <ele>362</ele>
        <time>2016-10-01T15:56:26.000Z</time>
      </trkpt>
      <trkpt lat="47.46718" lon="6.78021">
        <ele>362</ele>
        <time>2016-10-01T15:56:27.000Z</time>
      </trkpt>
      <trkpt lat="47.46716" lon="6.78017">
        <ele>362</ele>
        <time>2016-10-01T15:56:28.000Z</time>
      </trkpt>
      <trkpt lat="47.46715" lon="6.78013">
        <ele>362</ele>
        <time>2016-10-01T15:56:29.000Z</time>
      </trkpt>
      <trkpt lat="47.46714" lon="6.78009">
        <ele>362</ele>
        <time>2016-10-01T15:56:30.000Z</time>
      </trkpt>
      <trkpt lat="47.46716" lon="6.78003">
        <ele>362</ele>
        <time>2016-10-01T15:56:32.000Z</time>
      </trkpt>
      <trkpt lat="47.46718" lon="6.78">
        <ele>362</ele>
        <time>2016-10-01T15:56:33.000Z</time>
      </trkpt>
      <trkpt lat="47.46721" lon="6.77998">
        <ele>366</ele>
        <time>2016-10-01T15:56:34.000Z</time>
      </trkpt>
      <trkpt lat="47.46724" lon="6.77994">
        <ele>365</ele>
        <time>2016-10-01T15:56:35.000Z</time>
      </trkpt>
      <trkpt lat="47.46726" lon="6.77991">
        <ele>365</ele>
        <time>2016-10-01T15:56:36.000Z</time>
      </trkpt>
      <trkpt lat="47.46728" lon="6.77987">
        <ele>365</ele>
        <time>2016-10-01T15:56:37.000Z</time>
      </trkpt>
      <trkpt lat="47.46729" lon="6.77983">
        <ele>365</ele>
        <time>2016-10-01T15:56:38.000Z</time>
      </trkpt>
      <trkpt lat="47.4673" lon="6.77979">
        <ele>365</ele>
        <time>2016-10-01T15:56:39.000Z</time>
      </trkpt>
      <trkpt lat="47.46731" lon="6.77974">
        <ele>366</ele>
        <time>2016-10-01T15:56:41.000Z</time>
      </trkpt>
      <trkpt lat="47.46733" lon="6.77971">
        <ele>366</ele>
        <time>2016-10-01T15:56:42.000Z</time>
      </trkpt>
      <trkpt lat="47.46742" lon="6.77958">
        <ele>366</ele>
        <time>2016-10-01T15:56:43.000Z</time>
      </trkpt>
      <trkpt lat="47.46745" lon="6.77952">
        <ele>366</ele>
        <time>2016-10-01T15:56:44.000Z</time>
      </trkpt>
      <trkpt lat="47.46748" lon="6.77947">
        <ele>366</ele>
        <time>2016-10-01T15:56:45.000Z</time>
      </trkpt>
      <trkpt lat="47.46749" lon="6.77931">
        <ele>365</ele>
        <time>2016-10-01T15:56:46.000Z</time>
      </trkpt>
      <trkpt lat="47.46752" lon="6.77921">
        <ele>359</ele>
        <time>2016-10-01T15:56:47.000Z</time>
      </trkpt>
      <trkpt lat="47.46754" lon="6.77909">
        <ele>359</ele>
        <time>2016-10-01T15:56:48.000Z</time>
      </trkpt>
      <trkpt lat="47.46756" lon="6.77899">
        <ele>358</ele>
        <time>2016-10-01T15:56:49.000Z</time>
      </trkpt>
      <trkpt lat="47.46759" lon="6.77892">
        <ele>357</ele>
        <time>2016-10-01T15:56:50.000Z</time>
      </trkpt>
      <trkpt lat="47.46761" lon="6.77885">
        <ele>357</ele>
        <time>2016-10-01T15:56:51.000Z</time>
      </trkpt>
      <trkpt lat="47.46764" lon="6.7788">
        <ele>357</ele>
        <time>2016-10-01T15:56:52.000Z</time>
      </trkpt>
      <trkpt lat="47.46767" lon="6.77874">
        <ele>357</ele>
        <time>2016-10-01T15:56:53.000Z</time>
      </trkpt>
      <trkpt lat="47.46769" lon="6.77873">
        <ele>357</ele>
        <time>2016-10-01T15:56:55.000Z</time>
      </trkpt>
      <trkpt lat="47.4677" lon="6.7787">
        <ele>357</ele>
        <time>2016-10-01T15:56:56.000Z</time>
      </trkpt>
      <trkpt lat="47.46773" lon="6.77864">
        <ele>357</ele>
        <time>2016-10-01T15:56:57.000Z</time>
      </trkpt>
      <trkpt lat="47.46774" lon="6.77861">
        <ele>357</ele>
        <time>2016-10-01T15:56:58.000Z</time>
      </trkpt>
      <trkpt lat="47.46775" lon="6.77856">
        <ele>357</ele>
        <time>2016-10-01T15:56:59.000Z</time>
      </trkpt>
      <trkpt lat="47.46777" lon="6.77853">
        <ele>357</ele>
        <time>2016-10-01T15:57:00.000Z</time>
      </trkpt>
      <trkpt lat="47.46776" lon="6.77847">
        <ele>358</ele>
        <time>2016-10-01T15:57:06.000Z</time>
      </trkpt>
      <trkpt lat="47.46775" lon="6.77844">
        <ele>358</ele>
        <time>2016-10-01T15:57:07.000Z</time>
      </trkpt>
      <trkpt lat="47.46774" lon="6.7784">
        <ele>359</ele>
        <time>2016-10-01T15:57:08.000Z</time>
      </trkpt>
      <trkpt lat="47.46773" lon="6.77837">
        <ele>359</ele>
        <time>2016-10-01T15:57:09.000Z</time>
      </trkpt>
      <trkpt lat="47.46773" lon="6.77833">
        <ele>363</ele>
        <time>2016-10-01T15:57:10.000Z</time>
      </trkpt>
      <trkpt lat="47.46773" lon="6.77829">
        <ele>363</ele>
        <time>2016-10-01T15:57:11.000Z</time>
      </trkpt>
      <trkpt lat="47.46774" lon="6.77825">
        <ele>363</ele>
        <time>2016-10-01T15:57:13.000Z</time>
      </trkpt>
      <trkpt lat="47.46775" lon="6.77824">
        <ele>363</ele>
        <time>2016-10-01T15:57:14.000Z</time>
      </trkpt>
      <trkpt lat="47.46778" lon="6.77818">
        <ele>362</ele>
        <time>2016-10-01T15:57:16.000Z</time>
      </trkpt>
      <trkpt lat="47.46779" lon="6.77814">
        <ele>362</ele>
        <time>2016-10-01T15:57:17.000Z</time>
      </trkpt>
      <trkpt lat="47.46781" lon="6.7781">
        <ele>362</ele>
        <time>2016-10-01T15:57:18.000Z</time>
      </trkpt>
      <trkpt lat="47.46784" lon="6.77807">
        <ele>361</ele>
        <time>2016-10-01T15:57:19.000Z</time>
      </trkpt>
      <trkpt lat="47.46786" lon="6.77804">
        <ele>361</ele>
        <time>2016-10-01T15:57:20.000Z</time>
      </trkpt>
      <trkpt lat="47.46789" lon="6.77801">
        <ele>361</ele>
        <time>2016-10-01T15:57:21.000Z</time>
      </trkpt>
      <trkpt lat="47.4679" lon="6.77795">
        <ele>361</ele>
        <time>2016-10-01T15:57:23.000Z</time>
      </trkpt>
      <trkpt lat="47.4679" lon="6.77793">
        <ele>361</ele>
        <time>2016-10-01T15:57:24.000Z</time>
      </trkpt>
      <trkpt lat="47.46789" lon="6.77787">
        <ele>361</ele>
        <time>2016-10-01T15:57:25.000Z</time>
      </trkpt>
      <trkpt lat="47.46788" lon="6.7778">
        <ele>362</ele>
        <time>2016-10-01T15:57:26.000Z</time>
      </trkpt>
      <trkpt lat="47.46788" lon="6.77776">
        <ele>362</ele>
        <time>2016-10-01T15:57:27.000Z</time>
      </trkpt>
      <trkpt lat="47.46788" lon="6.77773">
        <ele>362</ele>
        <time>2016-10-01T15:57:28.000Z</time>
      </trkpt>
      <trkpt lat="47.4679" lon="6.77769">
        <ele>362</ele>
        <time>2016-10-01T15:57:30.999Z</time>
      </trkpt>
      <trkpt lat="47.46791" lon="6.77767">
        <ele>362</ele>
        <time>2016-10-01T15:57:32.000Z</time>
      </trkpt>
      <trkpt lat="47.46792" lon="6.77762">
        <ele>362</ele>
        <time>2016-10-01T15:57:38.000Z</time>
      </trkpt>
      <trkpt lat="47.46792" lon="6.7776">
        <ele>362</ele>
        <time>2016-10-01T15:57:39.000Z</time>
      </trkpt>
      <trkpt lat="47.46792" lon="6.77759">
        <ele>362</ele>
        <time>2016-10-01T15:57:39.999Z</time>
      </trkpt>
      <trkpt lat="47.46795" lon="6.77756">
        <ele>361</ele>
        <time>2016-10-01T15:57:41.000Z</time>
      </trkpt>
      <trkpt lat="47.46797" lon="6.77755">
        <ele>361</ele>
        <time>2016-10-01T15:57:42.000Z</time>
      </trkpt>
      <trkpt lat="47.468" lon="6.77749">
        <ele>364</ele>
        <time>2016-10-01T15:57:43.000Z</time>
      </trkpt>
      <trkpt lat="47.46802" lon="6.77746">
        <ele>363</ele>
        <time>2016-10-01T15:57:44.000Z</time>
      </trkpt>
      <trkpt lat="47.46803" lon="6.77742">
        <ele>363</ele>
        <time>2016-10-01T15:57:45.000Z</time>
      </trkpt>
      <trkpt lat="47.46804" lon="6.7774">
        <ele>363</ele>
        <time>2016-10-01T15:57:46.001Z</time>
      </trkpt>
      <trkpt lat="47.46803" lon="6.77734">
        <ele>364</ele>
        <time>2016-10-01T15:57:47.000Z</time>
      </trkpt>
      <trkpt lat="47.46803" lon="6.77729">
        <ele>364</ele>
        <time>2016-10-01T15:57:48.000Z</time>
      </trkpt>
      <trkpt lat="47.46802" lon="6.77726">
        <ele>364</ele>
        <time>2016-10-01T15:57:49.000Z</time>
      </trkpt>
      <trkpt lat="47.46803" lon="6.77723">
        <ele>364</ele>
        <time>2016-10-01T15:57:50.000Z</time>
      </trkpt>
      <trkpt lat="47.46803" lon="6.77719">
        <ele>364</ele>
        <time>2016-10-01T15:57:51.000Z</time>
      </trkpt>
      <trkpt lat="47.46803" lon="6.77713">
        <ele>364</ele>
        <time>2016-10-01T15:57:54.000Z</time>
      </trkpt>
      <trkpt lat="47.46803" lon="6.7771">
        <ele>365</ele>
        <time>2016-10-01T15:57:55.000Z</time>
      </trkpt>
      <trkpt lat="47.46803" lon="6.77707">
        <ele>365</ele>
        <time>2016-10-01T15:57:56.000Z</time>
      </trkpt>
      <trkpt lat="47.46804" lon="6.77703">
        <ele>365</ele>
        <time>2016-10-01T15:57:57.000Z</time>
      </trkpt>
      <trkpt lat="47.46805" lon="6.77698">
        <ele>364</ele>
        <time>2016-10-01T15:57:58.000Z</time>
      </trkpt>
      <trkpt lat="47.46807" lon="6.77692">
        <ele>364</ele>
        <time>2016-10-01T15:57:59.000Z</time>
      </trkpt>
      <trkpt lat="47.46811" lon="6.77674">
        <ele>363</ele>
        <time>2016-10-01T15:58:00.000Z</time>
      </trkpt>
      <trkpt lat="47.46812" lon="6.77667">
        <ele>362</ele>
        <time>2016-10-01T15:58:01.000Z</time>
      </trkpt>
      <trkpt lat="47.46814" lon="6.77662">
        <ele>363</ele>
        <time>2016-10-01T15:58:02.000Z</time>
      </trkpt>
      <trkpt lat="47.46815" lon="6.77655">
        <ele>363</ele>
        <time>2016-10-01T15:58:03.000Z</time>
      </trkpt>
      <trkpt lat="47.46818" lon="6.7765">
        <ele>363</ele>
        <time>2016-10-01T15:58:04.000Z</time>
      </trkpt>
      <trkpt lat="47.46821" lon="6.77645">
        <ele>363</ele>
        <time>2016-10-01T15:58:05.000Z</time>
      </trkpt>
      <trkpt lat="47.46823" lon="6.77638">
        <ele>363</ele>
        <time>2016-10-01T15:58:06.000Z</time>
      </trkpt>
      <trkpt lat="47.46827" lon="6.77634">
        <ele>363</ele>
        <time>2016-10-01T15:58:08.001Z</time>
      </trkpt>
      <trkpt lat="47.46829" lon="6.77617">
        <ele>363</ele>
        <time>2016-10-01T15:58:09.000Z</time>
      </trkpt>
      <trkpt lat="47.46833" lon="6.7761">
        <ele>362</ele>
        <time>2016-10-01T15:58:10.000Z</time>
      </trkpt>
      <trkpt lat="47.46835" lon="6.77597">
        <ele>352</ele>
        <time>2016-10-01T15:58:11.000Z</time>
      </trkpt>
      <trkpt lat="47.4684" lon="6.7759">
        <ele>353</ele>
        <time>2016-10-01T15:58:12.000Z</time>
      </trkpt>
      <trkpt lat="47.46844" lon="6.77584">
        <ele>353</ele>
        <time>2016-10-01T15:58:12.999Z</time>
      </trkpt>
      <trkpt lat="47.46837" lon="6.77568">
        <ele>352</ele>
        <time>2016-10-01T15:58:14.000Z</time>
      </trkpt>
      <trkpt lat="47.46838" lon="6.77558">
        <ele>351</ele>
        <time>2016-10-01T15:58:15.000Z</time>
      </trkpt>
      <trkpt lat="47.46839" lon="6.7755">
        <ele>351</ele>
        <time>2016-10-01T15:58:16.000Z</time>
      </trkpt>
      <trkpt lat="47.46838" lon="6.77535">
        <ele>351</ele>
        <time>2016-10-01T15:58:17.000Z</time>
      </trkpt>
      <trkpt lat="47.4684" lon="6.77523">
        <ele>351</ele>
        <time>2016-10-01T15:58:18.000Z</time>
      </trkpt>
      <trkpt lat="47.46841" lon="6.77513">
        <ele>352</ele>
        <time>2016-10-01T15:58:19.000Z</time>
      </trkpt>
      <trkpt lat="47.46841" lon="6.77485">
        <ele>351</ele>
        <time>2016-10-01T15:58:20.000Z</time>
      </trkpt>
      <trkpt lat="47.46844" lon="6.77471">
        <ele>350</ele>
        <time>2016-10-01T15:58:21.000Z</time>
      </trkpt>
      <trkpt lat="47.46847" lon="6.77463">
        <ele>349</ele>
        <time>2016-10-01T15:58:22.001Z</time>
      </trkpt>
      <trkpt lat="47.46851" lon="6.77452">
        <ele>349</ele>
        <time>2016-10-01T15:58:23.000Z</time>
      </trkpt>
      <trkpt lat="47.46856" lon="6.77452">
        <ele>349</ele>
        <time>2016-10-01T15:58:24.000Z</time>
      </trkpt>
      <trkpt lat="47.4686" lon="6.7745">
        <ele>349</ele>
        <time>2016-10-01T15:58:25.000Z</time>
      </trkpt>
      <trkpt lat="47.46862" lon="6.77449">
        <ele>349</ele>
        <time>2016-10-01T15:58:26.000Z</time>
      </trkpt>
      <trkpt lat="47.46865" lon="6.77451">
        <ele>348</ele>
        <time>2016-10-01T15:58:27.000Z</time>
      </trkpt>
      <trkpt lat="47.46868" lon="6.77452">
        <ele>348</ele>
        <time>2016-10-01T15:58:28.000Z</time>
      </trkpt>
      <trkpt lat="47.46872" lon="6.77452">
        <ele>348</ele>
        <time>2016-10-01T15:58:29.000Z</time>
      </trkpt>
      <trkpt lat="47.46876" lon="6.77454">
        <ele>348</ele>
        <time>2016-10-01T15:58:30.000Z</time>
      </trkpt>
      <trkpt lat="47.4688" lon="6.77455">
        <ele>348</ele>
        <time>2016-10-01T15:58:32.000Z</time>
      </trkpt>
      <trkpt lat="47.46883" lon="6.77455">
        <ele>348</ele>
        <time>2016-10-01T15:58:33.000Z</time>
      </trkpt>
      <trkpt lat="47.46886" lon="6.77456">
        <ele>347</ele>
        <time>2016-10-01T15:58:34.000Z</time>
      </trkpt>
      <trkpt lat="47.46889" lon="6.77456">
        <ele>347</ele>
        <time>2016-10-01T15:58:35.000Z</time>
      </trkpt>
      <trkpt lat="47.46895" lon="6.77454">
        <ele>347</ele>
        <time>2016-10-01T15:58:36.000Z</time>
      </trkpt>
      <trkpt lat="47.469" lon="6.77451">
        <ele>347</ele>
        <time>2016-10-01T15:58:37.000Z</time>
      </trkpt>
      <trkpt lat="47.46905" lon="6.77449">
        <ele>347</ele>
        <time>2016-10-01T15:58:38.000Z</time>
      </trkpt>
      <trkpt lat="47.46909" lon="6.77446">
        <ele>346</ele>
        <time>2016-10-01T15:58:39.000Z</time>
      </trkpt>
      <trkpt lat="47.46914" lon="6.77442">
        <ele>346</ele>
        <time>2016-10-01T15:58:40.000Z</time>
      </trkpt>
      <trkpt lat="47.46919" lon="6.77437">
        <ele>342</ele>
        <time>2016-10-01T15:58:41.000Z</time>
      </trkpt>
      <trkpt lat="47.46924" lon="6.77434">
        <ele>342</ele>
        <time>2016-10-01T15:58:42.000Z</time>
      </trkpt>
      <trkpt lat="47.4693" lon="6.77433">
        <ele>342</ele>
        <time>2016-10-01T15:58:43.000Z</time>
      </trkpt>
      <trkpt lat="47.46935" lon="6.77434">
        <ele>342</ele>
        <time>2016-10-01T15:58:44.000Z</time>
      </trkpt>
      <trkpt lat="47.46939" lon="6.77439">
        <ele>342</ele>
        <time>2016-10-01T15:58:45.000Z</time>
      </trkpt>
      <trkpt lat="47.46943" lon="6.77445">
        <ele>342</ele>
        <time>2016-10-01T15:58:46.000Z</time>
      </trkpt>
      <trkpt lat="47.46946" lon="6.77452">
        <ele>341</ele>
        <time>2016-10-01T15:58:47.000Z</time>
      </trkpt>
      <trkpt lat="47.46951" lon="6.77457">
        <ele>341</ele>
        <time>2016-10-01T15:58:48.000Z</time>
      </trkpt>
      <trkpt lat="47.46956" lon="6.77464">
        <ele>341</ele>
        <time>2016-10-01T15:58:49.000Z</time>
      </trkpt>
      <trkpt lat="47.46962" lon="6.77469">
        <ele>341</ele>
        <time>2016-10-01T15:58:50.000Z</time>
      </trkpt>
      <trkpt lat="47.46966" lon="6.77476">
        <ele>341</ele>
        <time>2016-10-01T15:58:51.000Z</time>
      </trkpt>
      <trkpt lat="47.46971" lon="6.77483">
        <ele>340</ele>
        <time>2016-10-01T15:58:52.000Z</time>
      </trkpt>
      <trkpt lat="47.46975" lon="6.77491">
        <ele>340</ele>
        <time>2016-10-01T15:58:53.000Z</time>
      </trkpt>
      <trkpt lat="47.4698" lon="6.77499">
        <ele>340</ele>
        <time>2016-10-01T15:58:54.000Z</time>
      </trkpt>
      <trkpt lat="47.46985" lon="6.77508">
        <ele>339</ele>
        <time>2016-10-01T15:58:55.000Z</time>
      </trkpt>
      <trkpt lat="47.46989" lon="6.77516">
        <ele>339</ele>
        <time>2016-10-01T15:58:56.000Z</time>
      </trkpt>
      <trkpt lat="47.46993" lon="6.77524">
        <ele>339</ele>
        <time>2016-10-01T15:58:57.000Z</time>
      </trkpt>
      <trkpt lat="47.46999" lon="6.7753">
        <ele>339</ele>
        <time>2016-10-01T15:58:58.000Z</time>
      </trkpt>
      <trkpt lat="47.47004" lon="6.77537">
        <ele>336</ele>
        <time>2016-10-01T15:58:59.000Z</time>
      </trkpt>
      <trkpt lat="47.4701" lon="6.77544">
        <ele>336</ele>
        <time>2016-10-01T15:59:00.000Z</time>
      </trkpt>
      <trkpt lat="47.47016" lon="6.77551">
        <ele>336</ele>
        <time>2016-10-01T15:59:01.000Z</time>
      </trkpt>
      <trkpt lat="47.47023" lon="6.77559">
        <ele>335</ele>
        <time>2016-10-01T15:59:02.000Z</time>
      </trkpt>
      <trkpt lat="47.47029" lon="6.77567">
        <ele>335</ele>
        <time>2016-10-01T15:59:03.000Z</time>
      </trkpt>
      <trkpt lat="47.47034" lon="6.77574">
        <ele>335</ele>
        <time>2016-10-01T15:59:04.000Z</time>
      </trkpt>
      <trkpt lat="47.47039" lon="6.77582">
        <ele>335</ele>
        <time>2016-10-01T15:59:05.000Z</time>
      </trkpt>
      <trkpt lat="47.47044" lon="6.77591">
        <ele>334</ele>
        <time>2016-10-01T15:59:06.000Z</time>
      </trkpt>
      <trkpt lat="47.47049" lon="6.77598">
        <ele>334</ele>
        <time>2016-10-01T15:59:07.000Z</time>
      </trkpt>
      <trkpt lat="47.47054" lon="6.77606">
        <ele>334</ele>
        <time>2016-10-01T15:59:08.000Z</time>
      </trkpt>
      <trkpt lat="47.4706" lon="6.77613">
        <ele>334</ele>
        <time>2016-10-01T15:59:09.000Z</time>
      </trkpt>
      <trkpt lat="47.47065" lon="6.77619">
        <ele>334</ele>
        <time>2016-10-01T15:59:10.000Z</time>
      </trkpt>
      <trkpt lat="47.4707" lon="6.77624">
        <ele>334</ele>
        <time>2016-10-01T15:59:11.000Z</time>
      </trkpt>
      <trkpt lat="47.47075" lon="6.7763">
        <ele>334</ele>
        <time>2016-10-01T15:59:12.000Z</time>
      </trkpt>
      <trkpt lat="47.47079" lon="6.77636">
        <ele>334</ele>
        <time>2016-10-01T15:59:13.000Z</time>
      </trkpt>
      <trkpt lat="47.47084" lon="6.77642">
        <ele>334</ele>
        <time>2016-10-01T15:59:14.000Z</time>
      </trkpt>
      <trkpt lat="47.47088" lon="6.77648">
        <ele>334</ele>
        <time>2016-10-01T15:59:15.000Z</time>
      </trkpt>
      <trkpt lat="47.47092" lon="6.77652">
        <ele>334</ele>
        <time>2016-10-01T15:59:16.000Z</time>
      </trkpt>
      <trkpt lat="47.47096" lon="6.77656">
        <ele>334</ele>
        <time>2016-10-01T15:59:16.999Z</time>
      </trkpt>
      <trkpt lat="47.47099" lon="6.7766">
        <ele>334</ele>
        <time>2016-10-01T15:59:18.000Z</time>
      </trkpt>
      <trkpt lat="47.47101" lon="6.77663">
        <ele>334</ele>
        <time>2016-10-01T15:59:19.000Z</time>
      </trkpt>
      <trkpt lat="47.47104" lon="6.77665">
        <ele>334</ele>
        <time>2016-10-01T15:59:20.000Z</time>
      </trkpt>
      <trkpt lat="47.47106" lon="6.77668">
        <ele>335</ele>
        <time>2016-10-01T15:59:21.000Z</time>
      </trkpt>
      <trkpt lat="47.47109" lon="6.77671">
        <ele>335</ele>
        <time>2016-10-01T15:59:22.000Z</time>
      </trkpt>
      <trkpt lat="47.47112" lon="6.77672">
        <ele>335</ele>
        <time>2016-10-01T15:59:23.000Z</time>
      </trkpt>
      <trkpt lat="47.47115" lon="6.77673">
        <ele>335</ele>
        <time>2016-10-01T15:59:24.000Z</time>
      </trkpt>
      <trkpt lat="47.47117" lon="6.77674">
        <ele>335</ele>
        <time>2016-10-01T15:59:25.000Z</time>
      </trkpt>
      <trkpt lat="47.4712" lon="6.77665">
        <ele>334</ele>
        <time>2016-10-01T15:59:26.000Z</time>
      </trkpt>
      <trkpt lat="47.47122" lon="6.77662">
        <ele>334</ele>
        <time>2016-10-01T15:59:27.000Z</time>
      </trkpt>
      <trkpt lat="47.47124" lon="6.77659">
        <ele>334</ele>
        <time>2016-10-01T15:59:28.001Z</time>
      </trkpt>
      <trkpt lat="47.47124" lon="6.77655">
        <ele>334</ele>
        <time>2016-10-01T15:59:29.000Z</time>
      </trkpt>
      <trkpt lat="47.47125" lon="6.77653">
        <ele>334</ele>
        <time>2016-10-01T15:59:30.000Z</time>
      </trkpt>
      <trkpt lat="47.47128" lon="6.77648">
        <ele>335</ele>
        <time>2016-10-01T15:59:32.000Z</time>
      </trkpt>
      <trkpt lat="47.47129" lon="6.77645">
        <ele>335</ele>
        <time>2016-10-01T15:59:33.000Z</time>
      </trkpt>
      <trkpt lat="47.47131" lon="6.77641">
        <ele>335</ele>
        <time>2016-10-01T15:59:34.000Z</time>
      </trkpt>
      <trkpt lat="47.47133" lon="6.77636">
        <ele>335</ele>
        <time>2016-10-01T15:59:35.000Z</time>
      </trkpt>
      <trkpt lat="47.47135" lon="6.77631">
        <ele>334</ele>
        <time>2016-10-01T15:59:36.000Z</time>
      </trkpt>
      <trkpt lat="47.47138" lon="6.77628">
        <ele>334</ele>
        <time>2016-10-01T15:59:37.000Z</time>
      </trkpt>
      <trkpt lat="47.4714" lon="6.77624">
        <ele>334</ele>
        <time>2016-10-01T15:59:38.000Z</time>
      </trkpt>
      <trkpt lat="47.47142" lon="6.7762">
        <ele>334</ele>
        <time>2016-10-01T15:59:39.000Z</time>
      </trkpt>
      <trkpt lat="47.47144" lon="6.77616">
        <ele>334</ele>
        <time>2016-10-01T15:59:40.000Z</time>
      </trkpt>
      <trkpt lat="47.47147" lon="6.77613">
        <ele>334</ele>
        <time>2016-10-01T15:59:41.000Z</time>
      </trkpt>
      <trkpt lat="47.4715" lon="6.77609">
        <ele>334</ele>
        <time>2016-10-01T15:59:42.000Z</time>
      </trkpt>
      <trkpt lat="47.47152" lon="6.77606">
        <ele>334</ele>
        <time>2016-10-01T15:59:43.000Z</time>
      </trkpt>
      <trkpt lat="47.47154" lon="6.77602">
        <ele>334</ele>
        <time>2016-10-01T15:59:44.000Z</time>
      </trkpt>
      <trkpt lat="47.47157" lon="6.77597">
        <ele>334</ele>
        <time>2016-10-01T15:59:45.000Z</time>
      </trkpt>
      <trkpt lat="47.47159" lon="6.77591">
        <ele>334</ele>
        <time>2016-10-01T15:59:46.000Z</time>
      </trkpt>
      <trkpt lat="47.47161" lon="6.77586">
        <ele>334</ele>
        <time>2016-10-01T15:59:47.000Z</time>
      </trkpt>
      <trkpt lat="47.47164" lon="6.7758">
        <ele>334</ele>
        <time>2016-10-01T15:59:48.000Z</time>
      </trkpt>
      <trkpt lat="47.47166" lon="6.77576">
        <ele>334</ele>
        <time>2016-10-01T15:59:49.000Z</time>
      </trkpt>
      <trkpt lat="47.47169" lon="6.77571">
        <ele>333</ele>
        <time>2016-10-01T15:59:50.000Z</time>
      </trkpt>
      <trkpt lat="47.47172" lon="6.77567">
        <ele>333</ele>
        <time>2016-10-01T15:59:51.000Z</time>
      </trkpt>
      <trkpt lat="47.47176" lon="6.77566">
        <ele>333</ele>
        <time>2016-10-01T15:59:52.000Z</time>
      </trkpt>
      <trkpt lat="47.4718" lon="6.77566">
        <ele>332</ele>
        <time>2016-10-01T15:59:53.000Z</time>
      </trkpt>
      <trkpt lat="47.47183" lon="6.77567">
        <ele>332</ele>
        <time>2016-10-01T15:59:54.000Z</time>
      </trkpt>
      <trkpt lat="47.47188" lon="6.77568">
        <ele>332</ele>
        <time>2016-10-01T15:59:55.000Z</time>
      </trkpt>
      <trkpt lat="47.47192" lon="6.77569">
        <ele>332</ele>
        <time>2016-10-01T15:59:56.000Z</time>
      </trkpt>
      <trkpt lat="47.472" lon="6.77571">
        <ele>332</ele>
        <time>2016-10-01T15:59:57.001Z</time>
      </trkpt>
      <trkpt lat="47.47205" lon="6.77572">
        <ele>332</ele>
        <time>2016-10-01T15:59:58.000Z</time>
      </trkpt>
      <trkpt lat="47.47211" lon="6.77572">
        <ele>331</ele>
        <time>2016-10-01T15:59:59.000Z</time>
      </trkpt>
      <trkpt lat="47.47217" lon="6.77573">
        <ele>331</ele>
        <time>2016-10-01T16:00:00.000Z</time>
      </trkpt>
      <trkpt lat="47.47224" lon="6.77572">
        <ele>331</ele>
        <time>2016-10-01T16:00:01.000Z</time>
      </trkpt>
      <trkpt lat="47.4723" lon="6.77572">
        <ele>331</ele>
        <time>2016-10-01T16:00:02.000Z</time>
      </trkpt>
      <trkpt lat="47.47237" lon="6.77573">
        <ele>331</ele>
        <time>2016-10-01T16:00:03.000Z</time>
      </trkpt>
      <trkpt lat="47.47244" lon="6.77573">
        <ele>330</ele>
        <time>2016-10-01T16:00:04.000Z</time>
      </trkpt>
      <trkpt lat="47.47251" lon="6.77572">
        <ele>329</ele>
        <time>2016-10-01T16:00:05.000Z</time>
      </trkpt>
      <trkpt lat="47.47259" lon="6.77572">
        <ele>328</ele>
        <time>2016-10-01T16:00:06.000Z</time>
      </trkpt>
      <trkpt lat="47.47267" lon="6.77571">
        <ele>328</ele>
        <time>2016-10-01T16:00:07.000Z</time>
      </trkpt>
      <trkpt lat="47.47274" lon="6.77571">
        <ele>328</ele>
        <time>2016-10-01T16:00:08.000Z</time>
      </trkpt>
      <trkpt lat="47.47282" lon="6.77571">
        <ele>327</ele>
        <time>2016-10-01T16:00:09.000Z</time>
      </trkpt>
      <trkpt lat="47.4729" lon="6.77571">
        <ele>327</ele>
        <time>2016-10-01T16:00:10.000Z</time>
      </trkpt>
      <trkpt lat="47.47298" lon="6.77572">
        <ele>327</ele>
        <time>2016-10-01T16:00:11.000Z</time>
      </trkpt>
      <trkpt lat="47.47307" lon="6.77571">
        <ele>326</ele>
        <time>2016-10-01T16:00:12.000Z</time>
      </trkpt>
      <trkpt lat="47.47316" lon="6.7757">
        <ele>326</ele>
        <time>2016-10-01T16:00:13.000Z</time>
      </trkpt>
      <trkpt lat="47.47325" lon="6.77569">
        <ele>326</ele>
        <time>2016-10-01T16:00:14.000Z</time>
      </trkpt>
      <trkpt lat="47.47335" lon="6.77568">
        <ele>324</ele>
        <time>2016-10-01T16:00:15.000Z</time>
      </trkpt>
      <trkpt lat="47.47343" lon="6.77568">
        <ele>323</ele>
        <time>2016-10-01T16:00:15.999Z</time>
      </trkpt>
      <trkpt lat="47.47353" lon="6.7757">
        <ele>323</ele>
        <time>2016-10-01T16:00:17.000Z</time>
      </trkpt>
      <trkpt lat="47.47361" lon="6.7757">
        <ele>323</ele>
        <time>2016-10-01T16:00:18.000Z</time>
      </trkpt>
      <trkpt lat="47.47372" lon="6.7757">
        <ele>322</ele>
        <time>2016-10-01T16:00:19.000Z</time>
      </trkpt>
      <trkpt lat="47.47382" lon="6.7757">
        <ele>322</ele>
        <time>2016-10-01T16:00:20.000Z</time>
      </trkpt>
      <trkpt lat="47.47391" lon="6.77567">
        <ele>322</ele>
        <time>2016-10-01T16:00:21.000Z</time>
      </trkpt>
      <trkpt lat="47.474" lon="6.77564">
        <ele>322</ele>
        <time>2016-10-01T16:00:22.000Z</time>
      </trkpt>
      <trkpt lat="47.47408" lon="6.77559">
        <ele>321</ele>
        <time>2016-10-01T16:00:23.000Z</time>
      </trkpt>
      <trkpt lat="47.47418" lon="6.77556">
        <ele>320</ele>
        <time>2016-10-01T16:00:24.000Z</time>
      </trkpt>
      <trkpt lat="47.47426" lon="6.77552">
        <ele>319</ele>
        <time>2016-10-01T16:00:25.000Z</time>
      </trkpt>
      <trkpt lat="47.47432" lon="6.77547">
        <ele>319</ele>
        <time>2016-10-01T16:00:26.000Z</time>
      </trkpt>
      <trkpt lat="47.47438" lon="6.77546">
        <ele>319</ele>
        <time>2016-10-01T16:00:27.000Z</time>
      </trkpt>
      <trkpt lat="47.47443" lon="6.77546">
        <ele>319</ele>
        <time>2016-10-01T16:00:28.000Z</time>
      </trkpt>
      <trkpt lat="47.47449" lon="6.7754">
        <ele>319</ele>
        <time>2016-10-01T16:00:29.000Z</time>
      </trkpt>
      <trkpt lat="47.47456" lon="6.7754">
        <ele>319</ele>
        <time>2016-10-01T16:00:30.000Z</time>
      </trkpt>
      <trkpt lat="47.47463" lon="6.77533">
        <ele>319</ele>
        <time>2016-10-01T16:00:31.000Z</time>
      </trkpt>
      <trkpt lat="47.47469" lon="6.77527">
        <ele>318</ele>
        <time>2016-10-01T16:00:32.000Z</time>
      </trkpt>
      <trkpt lat="47.47474" lon="6.77521">
        <ele>318</ele>
        <time>2016-10-01T16:00:32.999Z</time>
      </trkpt>
      <trkpt lat="47.47477" lon="6.7751">
        <ele>318</ele>
        <time>2016-10-01T16:00:34.000Z</time>
      </trkpt>
      <trkpt lat="47.47481" lon="6.77502">
        <ele>318</ele>
        <time>2016-10-01T16:00:35.000Z</time>
      </trkpt>
      <trkpt lat="47.47485" lon="6.77493">
        <ele>317</ele>
        <time>2016-10-01T16:00:36.000Z</time>
      </trkpt>
      <trkpt lat="47.47489" lon="6.77485">
        <ele>317</ele>
        <time>2016-10-01T16:00:37.000Z</time>
      </trkpt>
      <trkpt lat="47.47493" lon="6.77477">
        <ele>317</ele>
        <time>2016-10-01T16:00:38.000Z</time>
      </trkpt>
      <trkpt lat="47.47497" lon="6.7747">
        <ele>317</ele>
        <time>2016-10-01T16:00:39.000Z</time>
      </trkpt>
      <trkpt lat="47.475" lon="6.77462">
        <ele>317</ele>
        <time>2016-10-01T16:00:40.000Z</time>
      </trkpt>
      <trkpt lat="47.47502" lon="6.77457">
        <ele>316</ele>
        <time>2016-10-01T16:00:41.000Z</time>
      </trkpt>
      <trkpt lat="47.47505" lon="6.77452">
        <ele>316</ele>
        <time>2016-10-01T16:00:42.000Z</time>
      </trkpt>
      <trkpt lat="47.47508" lon="6.77446">
        <ele>316</ele>
        <time>2016-10-01T16:00:43.000Z</time>
      </trkpt>
      <trkpt lat="47.47511" lon="6.7744">
        <ele>316</ele>
        <time>2016-10-01T16:00:44.000Z</time>
      </trkpt>
      <trkpt lat="47.47513" lon="6.77435">
        <ele>316</ele>
        <time>2016-10-01T16:00:45.000Z</time>
      </trkpt>
      <trkpt lat="47.47513" lon="6.77433">
        <ele>316</ele>
        <time>2016-10-01T16:00:46.000Z</time>
      </trkpt>
      <trkpt lat="47.47514" lon="6.7743">
        <ele>316</ele>
        <time>2016-10-01T16:00:47.000Z</time>
      </trkpt>
      <trkpt lat="47.47521" lon="6.77437">
        <ele>316</ele>
        <time>2016-10-01T16:00:48.000Z</time>
      </trkpt>
      <trkpt lat="47.47526" lon="6.77432">
        <ele>316</ele>
        <time>2016-10-01T16:00:49.000Z</time>
      </trkpt>
      <trkpt lat="47.47528" lon="6.77429">
        <ele>316</ele>
        <time>2016-10-01T16:00:50.000Z</time>
      </trkpt>
      <trkpt lat="47.47531" lon="6.77428">
        <ele>316</ele>
        <time>2016-10-01T16:00:51.000Z</time>
      </trkpt>
      <trkpt lat="47.47536" lon="6.77421">
        <ele>315</ele>
        <time>2016-10-01T16:00:52.000Z</time>
      </trkpt>
      <trkpt lat="47.47539" lon="6.77421">
        <ele>315</ele>
        <time>2016-10-01T16:00:53.000Z</time>
      </trkpt>
      <trkpt lat="47.47541" lon="6.77422">
        <ele>315</ele>
        <time>2016-10-01T16:00:54.000Z</time>
      </trkpt>
      <trkpt lat="47.47544" lon="6.77423">
        <ele>315</ele>
        <time>2016-10-01T16:00:55.000Z</time>
      </trkpt>
      <trkpt lat="47.47546" lon="6.77424">
        <ele>315</ele>
        <time>2016-10-01T16:00:56.000Z</time>
      </trkpt>
      <trkpt lat="47.47549" lon="6.77427">
        <ele>315</ele>
        <time>2016-10-01T16:00:58.000Z</time>
      </trkpt>
      <trkpt lat="47.47551" lon="6.77428">
        <ele>315</ele>
        <time>2016-10-01T16:00:59.000Z</time>
      </trkpt>
      <trkpt lat="47.47555" lon="6.7743">
        <ele>315</ele>
        <time>2016-10-01T16:01:00.000Z</time>
      </trkpt>
      <trkpt lat="47.47558" lon="6.77433">
        <ele>315</ele>
        <time>2016-10-01T16:01:01.000Z</time>
      </trkpt>
      <trkpt lat="47.47562" lon="6.77437">
        <ele>315</ele>
        <time>2016-10-01T16:01:02.000Z</time>
      </trkpt>
      <trkpt lat="47.47566" lon="6.77441">
        <ele>315</ele>
        <time>2016-10-01T16:01:03.000Z</time>
      </trkpt>
      <trkpt lat="47.47569" lon="6.77444">
        <ele>315</ele>
        <time>2016-10-01T16:01:04.000Z</time>
      </trkpt>
      <trkpt lat="47.47573" lon="6.77448">
        <ele>315</ele>
        <time>2016-10-01T16:01:05.000Z</time>
      </trkpt>
      <trkpt lat="47.47576" lon="6.77451">
        <ele>315</ele>
        <time>2016-10-01T16:01:06.000Z</time>
      </trkpt>
      <trkpt lat="47.47579" lon="6.77454">
        <ele>315</ele>
        <time>2016-10-01T16:01:07.000Z</time>
      </trkpt>
      <trkpt lat="47.47582" lon="6.77457">
        <ele>315</ele>
        <time>2016-10-01T16:01:08.000Z</time>
      </trkpt>
      <trkpt lat="47.47584" lon="6.77458">
        <ele>314</ele>
        <time>2016-10-01T16:01:09.000Z</time>
      </trkpt>
      <trkpt lat="47.47586" lon="6.77456">
        <ele>314</ele>
        <time>2016-10-01T16:01:10.000Z</time>
      </trkpt>
      <trkpt lat="47.47588" lon="6.77453">
        <ele>314</ele>
        <time>2016-10-01T16:01:11.000Z</time>
      </trkpt>
      <trkpt lat="47.47589" lon="6.77449">
        <ele>314</ele>
        <time>2016-10-01T16:01:12.000Z</time>
      </trkpt>
      <trkpt lat="47.4759" lon="6.77445">
        <ele>314</ele>
        <time>2016-10-01T16:01:13.001Z</time>
      </trkpt>
      <trkpt lat="47.47593" lon="6.77431">
        <ele>314</ele>
        <time>2016-10-01T16:01:14.000Z</time>
      </trkpt>
      <trkpt lat="47.47594" lon="6.77426">
        <ele>314</ele>
        <time>2016-10-01T16:01:15.000Z</time>
      </trkpt>
      <trkpt lat="47.47595" lon="6.77423">
        <ele>314</ele>
        <time>2016-10-01T16:01:16.000Z</time>
      </trkpt>
      <trkpt lat="47.47597" lon="6.7742">
        <ele>314</ele>
        <time>2016-10-01T16:01:17.000Z</time>
      </trkpt>
      <trkpt lat="47.47601" lon="6.77417">
        <ele>314</ele>
        <time>2016-10-01T16:01:18.000Z</time>
      </trkpt>
      <trkpt lat="47.47603" lon="6.77411">
        <ele>313</ele>
        <time>2016-10-01T16:01:19.000Z</time>
      </trkpt>
      <trkpt lat="47.47606" lon="6.77407">
        <ele>313</ele>
        <time>2016-10-01T16:01:19.999Z</time>
      </trkpt>
      <trkpt lat="47.47608" lon="6.77401">
        <ele>313</ele>
        <time>2016-10-01T16:01:21.001Z</time>
      </trkpt>
      <trkpt lat="47.47609" lon="6.77394">
        <ele>312</ele>
        <time>2016-10-01T16:01:22.000Z</time>
      </trkpt>
      <trkpt lat="47.47612" lon="6.77387">
        <ele>312</ele>
        <time>2016-10-01T16:01:23.000Z</time>
      </trkpt>
      <trkpt lat="47.47613" lon="6.77376">
        <ele>312</ele>
        <time>2016-10-01T16:01:24.000Z</time>
      </trkpt>
      <trkpt lat="47.47615" lon="6.77367">
        <ele>312</ele>
        <time>2016-10-01T16:01:25.000Z</time>
      </trkpt>
      <trkpt lat="47.47616" lon="6.7736">
        <ele>312</ele>
        <time>2016-10-01T16:01:26.000Z</time>
      </trkpt>
      <trkpt lat="47.47618" lon="6.77354">
        <ele>312</ele>
        <time>2016-10-01T16:01:27.000Z</time>
      </trkpt>
      <trkpt lat="47.47621" lon="6.77348">
        <ele>312</ele>
        <time>2016-10-01T16:01:28.000Z</time>
      </trkpt>
      <trkpt lat="47.47624" lon="6.77343">
        <ele>312</ele>
        <time>2016-10-01T16:01:29.000Z</time>
      </trkpt>
      <trkpt lat="47.47626" lon="6.77339">
        <ele>312</ele>
        <time>2016-10-01T16:01:30.000Z</time>
      </trkpt>
      <trkpt lat="47.47628" lon="6.77335">
        <ele>312</ele>
        <time>2016-10-01T16:01:30.999Z</time>
      </trkpt>
      <trkpt lat="47.47631" lon="6.77327">
        <ele>311</ele>
        <time>2016-10-01T16:01:32.000Z</time>
      </trkpt>
      <trkpt lat="47.47634" lon="6.77321">
        <ele>311</ele>
        <time>2016-10-01T16:01:33.000Z</time>
      </trkpt>
      <trkpt lat="47.47637" lon="6.77315">
        <ele>311</ele>
        <time>2016-10-01T16:01:34.000Z</time>
      </trkpt>
      <trkpt lat="47.4764" lon="6.77306">
        <ele>311</ele>
        <time>2016-10-01T16:01:35.000Z</time>
      </trkpt>
      <trkpt lat="47.47642" lon="6.77297">
        <ele>311</ele>
        <time>2016-10-01T16:01:36.000Z</time>
      </trkpt>
      <trkpt lat="47.4764" lon="6.7729">
        <ele>311</ele>
        <time>2016-10-01T16:01:37.000Z</time>
      </trkpt>
      <trkpt lat="47.47636" lon="6.77284">
        <ele>311</ele>
        <time>2016-10-01T16:01:38.000Z</time>
      </trkpt>
      <trkpt lat="47.47634" lon="6.77278">
        <ele>311</ele>
        <time>2016-10-01T16:01:39.000Z</time>
      </trkpt>
      <trkpt lat="47.47631" lon="6.77273">
        <ele>311</ele>
        <time>2016-10-01T16:01:40.000Z</time>
      </trkpt>
      <trkpt lat="47.47628" lon="6.77268">
        <ele>311</ele>
        <time>2016-10-01T16:01:41.000Z</time>
      </trkpt>
      <trkpt lat="47.47623" lon="6.77264">
        <ele>311</ele>
        <time>2016-10-01T16:01:42.000Z</time>
      </trkpt>
      <trkpt lat="47.47619" lon="6.7726">
        <ele>311</ele>
        <time>2016-10-01T16:01:43.000Z</time>
      </trkpt>
      <trkpt lat="47.47615" lon="6.77256">
        <ele>311</ele>
        <time>2016-10-01T16:01:44.000Z</time>
      </trkpt>
      <trkpt lat="47.47611" lon="6.77251">
        <ele>311</ele>
        <time>2016-10-01T16:01:45.000Z</time>
      </trkpt>
      <trkpt lat="47.47607" lon="6.77248">
        <ele>311</ele>
        <time>2016-10-01T16:01:46.000Z</time>
      </trkpt>
      <trkpt lat="47.47602" lon="6.77244">
        <ele>311</ele>
        <time>2016-10-01T16:01:47.000Z</time>
      </trkpt>
      <trkpt lat="47.47598" lon="6.7724">
        <ele>311</ele>
        <time>2016-10-01T16:01:48.000Z</time>
      </trkpt>
      <trkpt lat="47.47593" lon="6.77236">
        <ele>311</ele>
        <time>2016-10-01T16:01:49.000Z</time>
      </trkpt>
      <trkpt lat="47.47588" lon="6.77234">
        <ele>311</ele>
        <time>2016-10-01T16:01:49.999Z</time>
      </trkpt>
      <trkpt lat="47.47583" lon="6.77228">
        <ele>311</ele>
        <time>2016-10-01T16:01:51.000Z</time>
      </trkpt>
      <trkpt lat="47.4758" lon="6.77223">
        <ele>311</ele>
        <time>2016-10-01T16:01:52.000Z</time>
      </trkpt>
      <trkpt lat="47.47576" lon="6.77217">
        <ele>311</ele>
        <time>2016-10-01T16:01:52.999Z</time>
      </trkpt>
      <trkpt lat="47.47571" lon="6.77215">
        <ele>311</ele>
        <time>2016-10-01T16:01:54.000Z</time>
      </trkpt>
      <trkpt lat="47.47566" lon="6.77211">
        <ele>311</ele>
        <time>2016-10-01T16:01:55.001Z</time>
      </trkpt>
      <trkpt lat="47.47561" lon="6.77209">
        <ele>311</ele>
        <time>2016-10-01T16:01:55.998Z</time>
      </trkpt>
      <trkpt lat="47.47556" lon="6.77205">
        <ele>310</ele>
        <time>2016-10-01T16:01:57.000Z</time>
      </trkpt>
      <trkpt lat="47.47553" lon="6.77203">
        <ele>310</ele>
        <time>2016-10-01T16:01:58.000Z</time>
      </trkpt>
      <trkpt lat="47.4755" lon="6.77198">
        <ele>310</ele>
        <time>2016-10-01T16:01:59.000Z</time>
      </trkpt>
      <trkpt lat="47.47548" lon="6.77196">
        <ele>310</ele>
        <time>2016-10-01T16:02:00.000Z</time>
      </trkpt>
      <trkpt lat="47.47544" lon="6.77192">
        <ele>310</ele>
        <time>2016-10-01T16:02:01.000Z</time>
      </trkpt>
      <trkpt lat="47.47541" lon="6.77187">
        <ele>310</ele>
        <time>2016-10-01T16:02:02.000Z</time>
      </trkpt>
      <trkpt lat="47.47538" lon="6.77182">
        <ele>310</ele>
        <time>2016-10-01T16:02:03.000Z</time>
      </trkpt>
      <trkpt lat="47.47534" lon="6.77181">
        <ele>310</ele>
        <time>2016-10-01T16:02:04.000Z</time>
      </trkpt>
      <trkpt lat="47.47531" lon="6.77178">
        <ele>310</ele>
        <time>2016-10-01T16:02:05.000Z</time>
      </trkpt>
      <trkpt lat="47.47528" lon="6.77175">
        <ele>310</ele>
        <time>2016-10-01T16:02:06.000Z</time>
      </trkpt>
      <trkpt lat="47.47521" lon="6.77174">
        <ele>310</ele>
        <time>2016-10-01T16:02:07.000Z</time>
      </trkpt>
      <trkpt lat="47.4752" lon="6.77172">
        <ele>310</ele>
        <time>2016-10-01T16:02:08.000Z</time>
      </trkpt>
      <trkpt lat="47.47517" lon="6.7717">
        <ele>310</ele>
        <time>2016-10-01T16:02:09.000Z</time>
      </trkpt>
      <trkpt lat="47.4752" lon="6.77165">
        <ele>309</ele>
        <time>2016-10-01T16:02:10.000Z</time>
      </trkpt>
      <trkpt lat="47.4752" lon="6.77161">
        <ele>310</ele>
        <time>2016-10-01T16:02:11.002Z</time>
      </trkpt>
      <trkpt lat="47.47524" lon="6.77154">
        <ele>310</ele>
        <time>2016-10-01T16:02:12.000Z</time>
      </trkpt>
      <trkpt lat="47.47525" lon="6.77149">
        <ele>310</ele>
        <time>2016-10-01T16:02:13.000Z</time>
      </trkpt>
      <trkpt lat="47.47527" lon="6.77144">
        <ele>310</ele>
        <time>2016-10-01T16:02:14.000Z</time>
      </trkpt>
      <trkpt lat="47.47529" lon="6.77139">
        <ele>310</ele>
        <time>2016-10-01T16:02:15.000Z</time>
      </trkpt>
      <trkpt lat="47.4753" lon="6.77136">
        <ele>310</ele>
        <time>2016-10-01T16:02:16.000Z</time>
      </trkpt>
      <trkpt lat="47.47532" lon="6.77134">
        <ele>310</ele>
        <time>2016-10-01T16:02:17.000Z</time>
      </trkpt>
      <trkpt lat="47.47535" lon="6.77134">
        <ele>310</ele>
        <time>2016-10-01T16:02:18.000Z</time>
      </trkpt>
      <trkpt lat="47.47538" lon="6.77135">
        <ele>310</ele>
        <time>2016-10-01T16:02:19.000Z</time>
      </trkpt>
      <trkpt lat="47.47542" lon="6.77137">
        <ele>310</ele>
        <time>2016-10-01T16:02:20.000Z</time>
      </trkpt>
      <trkpt lat="47.47545" lon="6.7714">
        <ele>310</ele>
        <time>2016-10-01T16:02:21.000Z</time>
      </trkpt>
      <trkpt lat="47.47549" lon="6.77143">
        <ele>310</ele>
        <time>2016-10-01T16:02:22.000Z</time>
      </trkpt>
      <trkpt lat="47.47553" lon="6.77146">
        <ele>310</ele>
        <time>2016-10-01T16:02:23.000Z</time>
      </trkpt>
      <trkpt lat="47.47556" lon="6.77149">
        <ele>310</ele>
        <time>2016-10-01T16:02:24.000Z</time>
      </trkpt>
      <trkpt lat="47.4756" lon="6.77151">
        <ele>310</ele>
        <time>2016-10-01T16:02:25.000Z</time>
      </trkpt>
      <trkpt lat="47.47562" lon="6.77153">
        <ele>310</ele>
        <time>2016-10-01T16:02:26.000Z</time>
      </trkpt>
      <trkpt lat="47.47566" lon="6.77156">
        <ele>310</ele>
        <time>2016-10-01T16:02:27.000Z</time>
      </trkpt>
      <trkpt lat="47.47569" lon="6.77159">
        <ele>309</ele>
        <time>2016-10-01T16:02:28.000Z</time>
      </trkpt>
      <trkpt lat="47.47571" lon="6.77161">
        <ele>309</ele>
        <time>2016-10-01T16:02:29.000Z</time>
      </trkpt>
      <trkpt lat="47.47574" lon="6.77163">
        <ele>309</ele>
        <time>2016-10-01T16:02:30.000Z</time>
      </trkpt>
      <trkpt lat="47.47576" lon="6.77166">
        <ele>309</ele>
        <time>2016-10-01T16:02:31.000Z</time>
      </trkpt>
      <trkpt lat="47.47579" lon="6.77168">
        <ele>309</ele>
        <time>2016-10-01T16:02:32.000Z</time>
      </trkpt>
      <trkpt lat="47.47582" lon="6.7717">
        <ele>309</ele>
        <time>2016-10-01T16:02:33.000Z</time>
      </trkpt>
      <trkpt lat="47.47585" lon="6.77172">
        <ele>309</ele>
        <time>2016-10-01T16:02:34.000Z</time>
      </trkpt>
      <trkpt lat="47.47588" lon="6.77175">
        <ele>309</ele>
        <time>2016-10-01T16:02:35.000Z</time>
      </trkpt>
      <trkpt lat="47.47592" lon="6.77177">
        <ele>309</ele>
        <time>2016-10-01T16:02:36.000Z</time>
      </trkpt>
      <trkpt lat="47.47595" lon="6.77179">
        <ele>310</ele>
        <time>2016-10-01T16:02:37.000Z</time>
      </trkpt>
      <trkpt lat="47.47598" lon="6.77181">
        <ele>310</ele>
        <time>2016-10-01T16:02:38.000Z</time>
      </trkpt>
      <trkpt lat="47.47602" lon="6.77184">
        <ele>310</ele>
        <time>2016-10-01T16:02:39.000Z</time>
      </trkpt>
      <trkpt lat="47.47606" lon="6.77186">
        <ele>310</ele>
        <time>2016-10-01T16:02:40.000Z</time>
      </trkpt>
      <trkpt lat="47.47611" lon="6.77185">
        <ele>310</ele>
        <time>2016-10-01T16:02:41.000Z</time>
      </trkpt>
      <trkpt lat="47.47614" lon="6.77182">
        <ele>310</ele>
        <time>2016-10-01T16:02:42.000Z</time>
      </trkpt>
      <trkpt lat="47.47616" lon="6.77178">
        <ele>310</ele>
        <time>2016-10-01T16:02:43.000Z</time>
      </trkpt>
      <trkpt lat="47.47619" lon="6.77174">
        <ele>310</ele>
        <time>2016-10-01T16:02:44.000Z</time>
      </trkpt>
      <trkpt lat="47.4762" lon="6.7717">
        <ele>310</ele>
        <time>2016-10-01T16:02:45.000Z</time>
      </trkpt>
      <trkpt lat="47.47622" lon="6.77165">
        <ele>310</ele>
        <time>2016-10-01T16:02:46.000Z</time>
      </trkpt>
      <trkpt lat="47.47623" lon="6.7716">
        <ele>310</ele>
        <time>2016-10-01T16:02:47.000Z</time>
      </trkpt>
      <trkpt lat="47.47625" lon="6.77156">
        <ele>310</ele>
        <time>2016-10-01T16:02:48.000Z</time>
      </trkpt>
      <trkpt lat="47.47627" lon="6.7715">
        <ele>310</ele>
        <time>2016-10-01T16:02:49.000Z</time>
      </trkpt>
      <trkpt lat="47.47629" lon="6.77147">
        <ele>310</ele>
        <time>2016-10-01T16:02:50.000Z</time>
      </trkpt>
      <trkpt lat="47.47631" lon="6.77142">
        <ele>310</ele>
        <time>2016-10-01T16:02:51.000Z</time>
      </trkpt>
      <trkpt lat="47.47633" lon="6.77138">
        <ele>310</ele>
        <time>2016-10-01T16:02:52.000Z</time>
      </trkpt>
      <trkpt lat="47.47635" lon="6.77133">
        <ele>310</ele>
        <time>2016-10-01T16:02:53.000Z</time>
      </trkpt>
      <trkpt lat="47.47636" lon="6.77128">
        <ele>310</ele>
        <time>2016-10-01T16:02:54.000Z</time>
      </trkpt>
      <trkpt lat="47.47636" lon="6.77124">
        <ele>310</ele>
        <time>2016-10-01T16:02:55.000Z</time>
      </trkpt>
      <trkpt lat="47.47638" lon="6.77114">
        <ele>310</ele>
        <time>2016-10-01T16:02:56.000Z</time>
      </trkpt>
      <trkpt lat="47.47638" lon="6.77108">
        <ele>310</ele>
        <time>2016-10-01T16:02:57.000Z</time>
      </trkpt>
      <trkpt lat="47.4764" lon="6.77101">
        <ele>310</ele>
        <time>2016-10-01T16:02:58.000Z</time>
      </trkpt>
      <trkpt lat="47.4764" lon="6.77098">
        <ele>311</ele>
        <time>2016-10-01T16:02:59.000Z</time>
      </trkpt>
      <trkpt lat="47.4764" lon="6.77092">
        <ele>311</ele>
        <time>2016-10-01T16:03:00.000Z</time>
      </trkpt>
      <trkpt lat="47.47642" lon="6.77085">
        <ele>311</ele>
        <time>2016-10-01T16:03:01.000Z</time>
      </trkpt>
      <trkpt lat="47.47643" lon="6.77082">
        <ele>311</ele>
        <time>2016-10-01T16:03:02.000Z</time>
      </trkpt>
      <trkpt lat="47.47644" lon="6.77076">
        <ele>311</ele>
        <time>2016-10-01T16:03:03.000Z</time>
      </trkpt>
      <trkpt lat="47.47645" lon="6.77072">
        <ele>311</ele>
        <time>2016-10-01T16:03:04.000Z</time>
      </trkpt>
      <trkpt lat="47.47645" lon="6.77065">
        <ele>311</ele>
        <time>2016-10-01T16:03:05.000Z</time>
      </trkpt>
      <trkpt lat="47.47646" lon="6.77058">
        <ele>311</ele>
        <time>2016-10-01T16:03:06.000Z</time>
      </trkpt>
      <trkpt lat="47.47649" lon="6.77048">
        <ele>311</ele>
        <time>2016-10-01T16:03:07.000Z</time>
      </trkpt>
      <trkpt lat="47.47649" lon="6.77046">
        <ele>311</ele>
        <time>2016-10-01T16:03:08.000Z</time>
      </trkpt>
      <trkpt lat="47.47649" lon="6.77037">
        <ele>311</ele>
        <time>2016-10-01T16:03:09.000Z</time>
      </trkpt>
      <trkpt lat="47.47651" lon="6.77029">
        <ele>311</ele>
        <time>2016-10-01T16:03:10.000Z</time>
      </trkpt>
      <trkpt lat="47.4765" lon="6.77027">
        <ele>311</ele>
        <time>2016-10-01T16:03:11.000Z</time>
      </trkpt>
      <trkpt lat="47.47653" lon="6.77019">
        <ele>311</ele>
        <time>2016-10-01T16:03:12.000Z</time>
      </trkpt>
      <trkpt lat="47.47656" lon="6.7701">
        <ele>311</ele>
        <time>2016-10-01T16:03:13.000Z</time>
      </trkpt>
      <trkpt lat="47.4766" lon="6.77">
        <ele>311</ele>
        <time>2016-10-01T16:03:14.000Z</time>
      </trkpt>
      <trkpt lat="47.47663" lon="6.7699">
        <ele>311</ele>
        <time>2016-10-01T16:03:15.000Z</time>
      </trkpt>
      <trkpt lat="47.47667" lon="6.76979">
        <ele>311</ele>
        <time>2016-10-01T16:03:16.000Z</time>
      </trkpt>
      <trkpt lat="47.47671" lon="6.76969">
        <ele>311</ele>
        <time>2016-10-01T16:03:16.999Z</time>
      </trkpt>
      <trkpt lat="47.47675" lon="6.76959">
        <ele>311</ele>
        <time>2016-10-01T16:03:18.000Z</time>
      </trkpt>
      <trkpt lat="47.4768" lon="6.76949">
        <ele>311</ele>
        <time>2016-10-01T16:03:19.000Z</time>
      </trkpt>
      <trkpt lat="47.47684" lon="6.7694">
        <ele>311</ele>
        <time>2016-10-01T16:03:20.000Z</time>
      </trkpt>
      <trkpt lat="47.47688" lon="6.76929">
        <ele>311</ele>
        <time>2016-10-01T16:03:21.000Z</time>
      </trkpt>
      <trkpt lat="47.47689" lon="6.76921">
        <ele>311</ele>
        <time>2016-10-01T16:03:22.000Z</time>
      </trkpt>
      <trkpt lat="47.4769" lon="6.76914">
        <ele>311</ele>
        <time>2016-10-01T16:03:23.000Z</time>
      </trkpt>
      <trkpt lat="47.47692" lon="6.76908">
        <ele>311</ele>
        <time>2016-10-01T16:03:24.000Z</time>
      </trkpt>
      <trkpt lat="47.47695" lon="6.76898">
        <ele>311</ele>
        <time>2016-10-01T16:03:25.000Z</time>
      </trkpt>
      <trkpt lat="47.47697" lon="6.76891">
        <ele>311</ele>
        <time>2016-10-01T16:03:26.000Z</time>
      </trkpt>
      <trkpt lat="47.477" lon="6.76884">
        <ele>311</ele>
        <time>2016-10-01T16:03:27.000Z</time>
      </trkpt>
      <trkpt lat="47.47702" lon="6.76878">
        <ele>311</ele>
        <time>2016-10-01T16:03:28.000Z</time>
      </trkpt>
      <trkpt lat="47.47705" lon="6.7687">
        <ele>311</ele>
        <time>2016-10-01T16:03:29.000Z</time>
      </trkpt>
      <trkpt lat="47.47707" lon="6.76863">
        <ele>311</ele>
        <time>2016-10-01T16:03:30.000Z</time>
      </trkpt>
      <trkpt lat="47.47709" lon="6.76854">
        <ele>311</ele>
        <time>2016-10-01T16:03:31.000Z</time>
      </trkpt>
      <trkpt lat="47.47712" lon="6.76848">
        <ele>311</ele>
        <time>2016-10-01T16:03:32.000Z</time>
      </trkpt>
      <trkpt lat="47.47715" lon="6.76841">
        <ele>311</ele>
        <time>2016-10-01T16:03:33.000Z</time>
      </trkpt>
      <trkpt lat="47.47718" lon="6.76834">
        <ele>311</ele>
        <time>2016-10-01T16:03:34.000Z</time>
      </trkpt>
      <trkpt lat="47.47721" lon="6.76827">
        <ele>311</ele>
        <time>2016-10-01T16:03:35.000Z</time>
      </trkpt>
      <trkpt lat="47.47723" lon="6.7682">
        <ele>311</ele>
        <time>2016-10-01T16:03:36.000Z</time>
      </trkpt>
      <trkpt lat="47.47726" lon="6.76815">
        <ele>311</ele>
        <time>2016-10-01T16:03:37.000Z</time>
      </trkpt>
      <trkpt lat="47.47728" lon="6.7681">
        <ele>311</ele>
        <time>2016-10-01T16:03:38.000Z</time>
      </trkpt>
      <trkpt lat="47.47732" lon="6.76805">
        <ele>311</ele>
        <time>2016-10-01T16:03:39.000Z</time>
      </trkpt>
      <trkpt lat="47.47735" lon="6.76801">
        <ele>311</ele>
        <time>2016-10-01T16:03:40.000Z</time>
      </trkpt>
      <trkpt lat="47.47738" lon="6.76798">
        <ele>311</ele>
        <time>2016-10-01T16:03:41.000Z</time>
      </trkpt>
      <trkpt lat="47.47742" lon="6.76799">
        <ele>311</ele>
        <time>2016-10-01T16:03:42.000Z</time>
      </trkpt>
      <trkpt lat="47.47745" lon="6.76799">
        <ele>311</ele>
        <time>2016-10-01T16:03:43.000Z</time>
      </trkpt>
      <trkpt lat="47.47748" lon="6.76798">
        <ele>311</ele>
        <time>2016-10-01T16:03:44.000Z</time>
      </trkpt>
      <trkpt lat="47.47751" lon="6.76798">
        <ele>311</ele>
        <time>2016-10-01T16:03:45.000Z</time>
      </trkpt>
      <trkpt lat="47.47755" lon="6.76796">
        <ele>311</ele>
        <time>2016-10-01T16:03:46.000Z</time>
      </trkpt>
      <trkpt lat="47.47759" lon="6.76795">
        <ele>311</ele>
        <time>2016-10-01T16:03:47.000Z</time>
      </trkpt>
      <trkpt lat="47.47763" lon="6.76795">
        <ele>311</ele>
        <time>2016-10-01T16:03:48.000Z</time>
      </trkpt>
      <trkpt lat="47.47767" lon="6.76795">
        <ele>311</ele>
        <time>2016-10-01T16:03:49.000Z</time>
      </trkpt>
      <trkpt lat="47.47771" lon="6.76796">
        <ele>311</ele>
        <time>2016-10-01T16:03:50.000Z</time>
      </trkpt>
      <trkpt lat="47.47776" lon="6.76803">
        <ele>311</ele>
        <time>2016-10-01T16:03:51.000Z</time>
      </trkpt>
      <trkpt lat="47.4778" lon="6.76804">
        <ele>311</ele>
        <time>2016-10-01T16:03:52.000Z</time>
      </trkpt>
      <trkpt lat="47.47785" lon="6.76807">
        <ele>311</ele>
        <time>2016-10-01T16:03:53.000Z</time>
      </trkpt>
      <trkpt lat="47.47789" lon="6.76808">
        <ele>311</ele>
        <time>2016-10-01T16:03:54.000Z</time>
      </trkpt>
      <trkpt lat="47.47793" lon="6.7681">
        <ele>310</ele>
        <time>2016-10-01T16:03:55.000Z</time>
      </trkpt>
      <trkpt lat="47.47798" lon="6.76811">
        <ele>310</ele>
        <time>2016-10-01T16:03:56.000Z</time>
      </trkpt>
      <trkpt lat="47.47803" lon="6.76812">
        <ele>310</ele>
        <time>2016-10-01T16:03:57.000Z</time>
      </trkpt>
      <trkpt lat="47.47807" lon="6.76814">
        <ele>310</ele>
        <time>2016-10-01T16:03:58.000Z</time>
      </trkpt>
      <trkpt lat="47.4781" lon="6.76816">
        <ele>310</ele>
        <time>2016-10-01T16:03:59.000Z</time>
      </trkpt>
      <trkpt lat="47.47814" lon="6.76819">
        <ele>310</ele>
        <time>2016-10-01T16:04:00.000Z</time>
      </trkpt>
      <trkpt lat="47.47816" lon="6.76822">
        <ele>310</ele>
        <time>2016-10-01T16:04:01.000Z</time>
      </trkpt>
      <trkpt lat="47.47821" lon="6.76825">
        <ele>310</ele>
        <time>2016-10-01T16:04:02.000Z</time>
      </trkpt>
      <trkpt lat="47.47825" lon="6.76828">
        <ele>310</ele>
        <time>2016-10-01T16:04:03.000Z</time>
      </trkpt>
      <trkpt lat="47.4783" lon="6.76832">
        <ele>310</ele>
        <time>2016-10-01T16:04:04.000Z</time>
      </trkpt>
      <trkpt lat="47.47833" lon="6.76835">
        <ele>310</ele>
        <time>2016-10-01T16:04:05.000Z</time>
      </trkpt>
      <trkpt lat="47.47837" lon="6.7684">
        <ele>311</ele>
        <time>2016-10-01T16:04:06.000Z</time>
      </trkpt>
      <trkpt lat="47.47842" lon="6.76843">
        <ele>311</ele>
        <time>2016-10-01T16:04:07.000Z</time>
      </trkpt>
      <trkpt lat="47.47845" lon="6.76845">
        <ele>311</ele>
        <time>2016-10-01T16:04:08.000Z</time>
      </trkpt>
      <trkpt lat="47.47848" lon="6.76849">
        <ele>311</ele>
        <time>2016-10-01T16:04:09.000Z</time>
      </trkpt>
      <trkpt lat="47.47852" lon="6.76849">
        <ele>311</ele>
        <time>2016-10-01T16:04:10.000Z</time>
      </trkpt>
      <trkpt lat="47.47859" lon="6.7685">
        <ele>312</ele>
        <time>2016-10-01T16:04:11.000Z</time>
      </trkpt>
      <trkpt lat="47.47864" lon="6.76852">
        <ele>312</ele>
        <time>2016-10-01T16:04:12.000Z</time>
      </trkpt>
      <trkpt lat="47.47869" lon="6.7685">
        <ele>312</ele>
        <time>2016-10-01T16:04:13.000Z</time>
      </trkpt>
      <trkpt lat="47.47874" lon="6.7685">
        <ele>312</ele>
        <time>2016-10-01T16:04:14.000Z</time>
      </trkpt>
      <trkpt lat="47.47877" lon="6.7685">
        <ele>312</ele>
        <time>2016-10-01T16:04:15.000Z</time>
      </trkpt>
      <trkpt lat="47.47881" lon="6.76853">
        <ele>312</ele>
        <time>2016-10-01T16:04:16.000Z</time>
      </trkpt>
      <trkpt lat="47.47886" lon="6.76856">
        <ele>312</ele>
        <time>2016-10-01T16:04:17.000Z</time>
      </trkpt>
      <trkpt lat="47.4789" lon="6.76858">
        <ele>313</ele>
        <time>2016-10-01T16:04:18.000Z</time>
      </trkpt>
      <trkpt lat="47.47895" lon="6.76861">
        <ele>313</ele>
        <time>2016-10-01T16:04:19.000Z</time>
      </trkpt>
      <trkpt lat="47.47899" lon="6.76865">
        <ele>313</ele>
        <time>2016-10-01T16:04:20.000Z</time>
      </trkpt>
      <trkpt lat="47.47903" lon="6.76868">
        <ele>313</ele>
        <time>2016-10-01T16:04:21.000Z</time>
      </trkpt>
      <trkpt lat="47.47909" lon="6.76872">
        <ele>313</ele>
        <time>2016-10-01T16:04:22.000Z</time>
      </trkpt>
      <trkpt lat="47.47914" lon="6.76874">
        <ele>313</ele>
        <time>2016-10-01T16:04:23.000Z</time>
      </trkpt>
      <trkpt lat="47.47918" lon="6.76877">
        <ele>313</ele>
        <time>2016-10-01T16:04:24.000Z</time>
      </trkpt>
      <trkpt lat="47.47923" lon="6.76882">
        <ele>313</ele>
        <time>2016-10-01T16:04:25.000Z</time>
      </trkpt>
      <trkpt lat="47.47929" lon="6.76885">
        <ele>313</ele>
        <time>2016-10-01T16:04:26.000Z</time>
      </trkpt>
      <trkpt lat="47.47932" lon="6.76887">
        <ele>313</ele>
        <time>2016-10-01T16:04:27.000Z</time>
      </trkpt>
      <trkpt lat="47.4794" lon="6.76887">
        <ele>313</ele>
        <time>2016-10-01T16:04:28.000Z</time>
      </trkpt>
      <trkpt lat="47.47945" lon="6.7689">
        <ele>313</ele>
        <time>2016-10-01T16:04:29.000Z</time>
      </trkpt>
      <trkpt lat="47.47948" lon="6.76892">
        <ele>313</ele>
        <time>2016-10-01T16:04:30.000Z</time>
      </trkpt>
      <trkpt lat="47.47953" lon="6.76894">
        <ele>313</ele>
        <time>2016-10-01T16:04:31.000Z</time>
      </trkpt>
      <trkpt lat="47.47959" lon="6.76898">
        <ele>313</ele>
        <time>2016-10-01T16:04:32.000Z</time>
      </trkpt>
      <trkpt lat="47.47965" lon="6.76898">
        <ele>313</ele>
        <time>2016-10-01T16:04:33.000Z</time>
      </trkpt>
      <trkpt lat="47.47972" lon="6.769">
        <ele>313</ele>
        <time>2016-10-01T16:04:34.000Z</time>
      </trkpt>
      <trkpt lat="47.47978" lon="6.76903">
        <ele>313</ele>
        <time>2016-10-01T16:04:35.000Z</time>
      </trkpt>
      <trkpt lat="47.47984" lon="6.76905">
        <ele>313</ele>
        <time>2016-10-01T16:04:36.000Z</time>
      </trkpt>
      <trkpt lat="47.47988" lon="6.76906">
        <ele>312</ele>
        <time>2016-10-01T16:04:37.000Z</time>
      </trkpt>
      <trkpt lat="47.47993" lon="6.76907">
        <ele>312</ele>
        <time>2016-10-01T16:04:38.000Z</time>
      </trkpt>
      <trkpt lat="47.47998" lon="6.76908">
        <ele>312</ele>
        <time>2016-10-01T16:04:39.000Z</time>
      </trkpt>
      <trkpt lat="47.48002" lon="6.76909">
        <ele>312</ele>
        <time>2016-10-01T16:04:40.000Z</time>
      </trkpt>
      <trkpt lat="47.48008" lon="6.7691">
        <ele>312</ele>
        <time>2016-10-01T16:04:41.000Z</time>
      </trkpt>
      <trkpt lat="47.48014" lon="6.76913">
        <ele>312</ele>
        <time>2016-10-01T16:04:42.000Z</time>
      </trkpt>
      <trkpt lat="47.48019" lon="6.76914">
        <ele>312</ele>
        <time>2016-10-01T16:04:43.000Z</time>
      </trkpt>
      <trkpt lat="47.48023" lon="6.76916">
        <ele>312</ele>
        <time>2016-10-01T16:04:44.000Z</time>
      </trkpt>
      <trkpt lat="47.48027" lon="6.76917">
        <ele>312</ele>
        <time>2016-10-01T16:04:45.001Z</time>
      </trkpt>
      <trkpt lat="47.48031" lon="6.76919">
        <ele>312</ele>
        <time>2016-10-01T16:04:46.000Z</time>
      </trkpt>
      <trkpt lat="47.48038" lon="6.76925">
        <ele>312</ele>
        <time>2016-10-01T16:04:47.000Z</time>
      </trkpt>
      <trkpt lat="47.48043" lon="6.76928">
        <ele>312</ele>
        <time>2016-10-01T16:04:47.999Z</time>
      </trkpt>
      <trkpt lat="47.48048" lon="6.76926">
        <ele>312</ele>
        <time>2016-10-01T16:04:49.000Z</time>
      </trkpt>
      <trkpt lat="47.48054" lon="6.76928">
        <ele>312</ele>
        <time>2016-10-01T16:04:50.000Z</time>
      </trkpt>
      <trkpt lat="47.48059" lon="6.76929">
        <ele>312</ele>
        <time>2016-10-01T16:04:51.000Z</time>
      </trkpt>
      <trkpt lat="47.48063" lon="6.76932">
        <ele>312</ele>
        <time>2016-10-01T16:04:52.000Z</time>
      </trkpt>
      <trkpt lat="47.48069" lon="6.76933">
        <ele>312</ele>
        <time>2016-10-01T16:04:53.000Z</time>
      </trkpt>
      <trkpt lat="47.48074" lon="6.76935">
        <ele>312</ele>
        <time>2016-10-01T16:04:54.000Z</time>
      </trkpt>
      <trkpt lat="47.48081" lon="6.76938">
        <ele>312</ele>
        <time>2016-10-01T16:04:55.000Z</time>
      </trkpt>
      <trkpt lat="47.48086" lon="6.7694">
        <ele>312</ele>
        <time>2016-10-01T16:04:55.999Z</time>
      </trkpt>
      <trkpt lat="47.4809" lon="6.76943">
        <ele>312</ele>
        <time>2016-10-01T16:04:57.000Z</time>
      </trkpt>
      <trkpt lat="47.48093" lon="6.76941">
        <ele>312</ele>
        <time>2016-10-01T16:04:58.000Z</time>
      </trkpt>
      <trkpt lat="47.48097" lon="6.76943">
        <ele>312</ele>
        <time>2016-10-01T16:04:59.000Z</time>
      </trkpt>
      <trkpt lat="47.48102" lon="6.76946">
        <ele>312</ele>
        <time>2016-10-01T16:05:00.002Z</time>
      </trkpt>
      <trkpt lat="47.48105" lon="6.76947">
        <ele>312</ele>
        <time>2016-10-01T16:05:01.000Z</time>
      </trkpt>
      <trkpt lat="47.48112" lon="6.76948">
        <ele>312</ele>
        <time>2016-10-01T16:05:02.000Z</time>
      </trkpt>
      <trkpt lat="47.48117" lon="6.76953">
        <ele>312</ele>
        <time>2016-10-01T16:05:03.000Z</time>
      </trkpt>
      <trkpt lat="47.48122" lon="6.76955">
        <ele>312</ele>
        <time>2016-10-01T16:05:04.000Z</time>
      </trkpt>
      <trkpt lat="47.48127" lon="6.76958">
        <ele>312</ele>
        <time>2016-10-01T16:05:05.000Z</time>
      </trkpt>
      <trkpt lat="47.48133" lon="6.7696">
        <ele>311</ele>
        <time>2016-10-01T16:05:06.000Z</time>
      </trkpt>
      <trkpt lat="47.48138" lon="6.76962">
        <ele>311</ele>
        <time>2016-10-01T16:05:07.000Z</time>
      </trkpt>
      <trkpt lat="47.48143" lon="6.76964">
        <ele>311</ele>
        <time>2016-10-01T16:05:08.000Z</time>
      </trkpt>
      <trkpt lat="47.48145" lon="6.76964">
        <ele>311</ele>
        <time>2016-10-01T16:05:09.000Z</time>
      </trkpt>
      <trkpt lat="47.4815" lon="6.76968">
        <ele>311</ele>
        <time>2016-10-01T16:05:10.000Z</time>
      </trkpt>
      <trkpt lat="47.48156" lon="6.76971">
        <ele>311</ele>
        <time>2016-10-01T16:05:11.000Z</time>
      </trkpt>
      <trkpt lat="47.48162" lon="6.76972">
        <ele>311</ele>
        <time>2016-10-01T16:05:12.000Z</time>
      </trkpt>
      <trkpt lat="47.48169" lon="6.76975">
        <ele>311</ele>
        <time>2016-10-01T16:05:13.000Z</time>
      </trkpt>
      <trkpt lat="47.48173" lon="6.76977">
        <ele>311</ele>
        <time>2016-10-01T16:05:14.000Z</time>
      </trkpt>
      <trkpt lat="47.48178" lon="6.76978">
        <ele>311</ele>
        <time>2016-10-01T16:05:15.000Z</time>
      </trkpt>
      <trkpt lat="47.48182" lon="6.76978">
        <ele>311</ele>
        <time>2016-10-01T16:05:16.000Z</time>
      </trkpt>
      <trkpt lat="47.48187" lon="6.7698">
        <ele>311</ele>
        <time>2016-10-01T16:05:17.000Z</time>
      </trkpt>
      <trkpt lat="47.48193" lon="6.76983">
        <ele>311</ele>
        <time>2016-10-01T16:05:18.000Z</time>
      </trkpt>
      <trkpt lat="47.48197" lon="6.76986">
        <ele>311</ele>
        <time>2016-10-01T16:05:19.000Z</time>
      </trkpt>
      <trkpt lat="47.48201" lon="6.76987">
        <ele>311</ele>
        <time>2016-10-01T16:05:20.000Z</time>
      </trkpt>
      <trkpt lat="47.48207" lon="6.76989">
        <ele>311</ele>
        <time>2016-10-01T16:05:21.000Z</time>
      </trkpt>
      <trkpt lat="47.4821" lon="6.7699">
        <ele>311</ele>
        <time>2016-10-01T16:05:22.000Z</time>
      </trkpt>
      <trkpt lat="47.48215" lon="6.76991">
        <ele>311</ele>
        <time>2016-10-01T16:05:23.000Z</time>
      </trkpt>
      <trkpt lat="47.48219" lon="6.76993">
        <ele>311</ele>
        <time>2016-10-01T16:05:24.000Z</time>
      </trkpt>
      <trkpt lat="47.48224" lon="6.76993">
        <ele>311</ele>
        <time>2016-10-01T16:05:25.000Z</time>
      </trkpt>
      <trkpt lat="47.48229" lon="6.76996">
        <ele>312</ele>
        <time>2016-10-01T16:05:26.000Z</time>
      </trkpt>
      <trkpt lat="47.48234" lon="6.76998">
        <ele>312</ele>
        <time>2016-10-01T16:05:27.000Z</time>
      </trkpt>
      <trkpt lat="47.48238" lon="6.77">
        <ele>312</ele>
        <time>2016-10-01T16:05:28.000Z</time>
      </trkpt>
      <trkpt lat="47.48243" lon="6.77002">
        <ele>312</ele>
        <time>2016-10-01T16:05:29.000Z</time>
      </trkpt>
      <trkpt lat="47.48246" lon="6.77003">
        <ele>312</ele>
        <time>2016-10-01T16:05:30.000Z</time>
      </trkpt>
      <trkpt lat="47.48251" lon="6.77006">
        <ele>313</ele>
        <time>2016-10-01T16:05:31.000Z</time>
      </trkpt>
      <trkpt lat="47.48254" lon="6.77007">
        <ele>313</ele>
        <time>2016-10-01T16:05:32.000Z</time>
      </trkpt>
      <trkpt lat="47.48258" lon="6.77011">
        <ele>314</ele>
        <time>2016-10-01T16:05:33.000Z</time>
      </trkpt>
      <trkpt lat="47.48261" lon="6.77012">
        <ele>314</ele>
        <time>2016-10-01T16:05:34.000Z</time>
      </trkpt>
      <trkpt lat="47.48264" lon="6.77013">
        <ele>314</ele>
        <time>2016-10-01T16:05:35.000Z</time>
      </trkpt>
      <trkpt lat="47.48266" lon="6.77013">
        <ele>314</ele>
        <time>2016-10-01T16:05:36.000Z</time>
      </trkpt>
      <trkpt lat="47.48269" lon="6.77014">
        <ele>315</ele>
        <time>2016-10-01T16:05:37.000Z</time>
      </trkpt>
      <trkpt lat="47.48271" lon="6.77019">
        <ele>315</ele>
        <time>2016-10-01T16:05:39.000Z</time>
      </trkpt>
      <trkpt lat="47.4827" lon="6.77022">
        <ele>315</ele>
        <time>2016-10-01T16:05:40.000Z</time>
      </trkpt>
      <trkpt lat="47.4827" lon="6.77026">
        <ele>315</ele>
        <time>2016-10-01T16:05:41.000Z</time>
      </trkpt>
      <trkpt lat="47.48269" lon="6.7703">
        <ele>315</ele>
        <time>2016-10-01T16:05:42.001Z</time>
      </trkpt>
      <trkpt lat="47.48268" lon="6.77036">
        <ele>316</ele>
        <time>2016-10-01T16:05:44.000Z</time>
      </trkpt>
      <trkpt lat="47.48266" lon="6.77039">
        <ele>316</ele>
        <time>2016-10-01T16:05:45.000Z</time>
      </trkpt>
      <trkpt lat="47.48265" lon="6.77042">
        <ele>316</ele>
        <time>2016-10-01T16:05:45.999Z</time>
      </trkpt>
      <trkpt lat="47.48264" lon="6.77047">
        <ele>316</ele>
        <time>2016-10-01T16:05:47.000Z</time>
      </trkpt>
      <trkpt lat="47.48263" lon="6.77053">
        <ele>316</ele>
        <time>2016-10-01T16:05:48.000Z</time>
      </trkpt>
      <trkpt lat="47.48261" lon="6.77057">
        <ele>317</ele>
        <time>2016-10-01T16:05:48.999Z</time>
      </trkpt>
      <trkpt lat="47.4826" lon="6.77065">
        <ele>317</ele>
        <time>2016-10-01T16:05:50.000Z</time>
      </trkpt>
      <trkpt lat="47.48259" lon="6.77071">
        <ele>317</ele>
        <time>2016-10-01T16:05:51.001Z</time>
      </trkpt>
      <trkpt lat="47.48257" lon="6.77076">
        <ele>317</ele>
        <time>2016-10-01T16:05:52.000Z</time>
      </trkpt>
      <trkpt lat="47.48257" lon="6.77082">
        <ele>317</ele>
        <time>2016-10-01T16:05:53.000Z</time>
      </trkpt>
      <trkpt lat="47.48256" lon="6.77087">
        <ele>318</ele>
        <time>2016-10-01T16:05:54.001Z</time>
      </trkpt>
      <trkpt lat="47.48255" lon="6.77092">
        <ele>319</ele>
        <time>2016-10-01T16:05:55.000Z</time>
      </trkpt>
      <trkpt lat="47.48254" lon="6.77097">
        <ele>320</ele>
        <time>2016-10-01T16:05:56.000Z</time>
      </trkpt>
      <trkpt lat="47.48253" lon="6.77103">
        <ele>320</ele>
        <time>2016-10-01T16:05:57.000Z</time>
      </trkpt>
      <trkpt lat="47.48253" lon="6.77108">
        <ele>320</ele>
        <time>2016-10-01T16:05:58.000Z</time>
      </trkpt>
      <trkpt lat="47.48253" lon="6.77112">
        <ele>321</ele>
        <time>2016-10-01T16:05:59.000Z</time>
      </trkpt>
      <trkpt lat="47.48255" lon="6.77115">
        <ele>321</ele>
        <time>2016-10-01T16:06:00.000Z</time>
      </trkpt>
      <trkpt lat="47.48257" lon="6.77117">
        <ele>321</ele>
        <time>2016-10-01T16:06:00.999Z</time>
      </trkpt>
      <trkpt lat="47.48261" lon="6.77116">
        <ele>321</ele>
        <time>2016-10-01T16:06:02.000Z</time>
      </trkpt>
      <trkpt lat="47.48265" lon="6.77115">
        <ele>321</ele>
        <time>2016-10-01T16:06:03.000Z</time>
      </trkpt>
      <trkpt lat="47.48267" lon="6.77114">
        <ele>321</ele>
        <time>2016-10-01T16:06:04.001Z</time>
      </trkpt>
      <trkpt lat="47.4827" lon="6.77112">
        <ele>321</ele>
        <time>2016-10-01T16:06:05.000Z</time>
      </trkpt>
      <trkpt lat="47.48272" lon="6.7711">
        <ele>321</ele>
        <time>2016-10-01T16:06:06.000Z</time>
      </trkpt>
      <trkpt lat="47.48275" lon="6.77108">
        <ele>322</ele>
        <time>2016-10-01T16:06:09.000Z</time>
      </trkpt>
      <trkpt lat="47.48277" lon="6.77107">
        <ele>322</ele>
        <time>2016-10-01T16:06:10.000Z</time>
      </trkpt>
      <trkpt lat="47.48281" lon="6.77106">
        <ele>322</ele>
        <time>2016-10-01T16:06:13.000Z</time>
      </trkpt>
      <trkpt lat="47.48282" lon="6.77106">
        <ele>322</ele>
        <time>2016-10-01T16:06:14.000Z</time>
      </trkpt>
      <trkpt lat="47.48286" lon="6.77105">
        <ele>322</ele>
        <time>2016-10-01T16:06:18.000Z</time>
      </trkpt>
      <trkpt lat="47.48288" lon="6.77105">
        <ele>322</ele>
        <time>2016-10-01T16:06:19.000Z</time>
      </trkpt>
      <trkpt lat="47.48292" lon="6.77107">
        <ele>322</ele>
        <time>2016-10-01T16:06:21.000Z</time>
      </trkpt>
      <trkpt lat="47.48294" lon="6.77107">
        <ele>323</ele>
        <time>2016-10-01T16:06:22.000Z</time>
      </trkpt>
      <trkpt lat="47.48298" lon="6.77107">
        <ele>323</ele>
        <time>2016-10-01T16:06:24.000Z</time>
      </trkpt>
      <trkpt lat="47.48299" lon="6.77106">
        <ele>323</ele>
        <time>2016-10-01T16:06:25.000Z</time>
      </trkpt>
      <trkpt lat="47.48302" lon="6.77106">
        <ele>323</ele>
        <time>2016-10-01T16:06:26.000Z</time>
      </trkpt>
      <trkpt lat="47.48304" lon="6.77106">
        <ele>323</ele>
        <time>2016-10-01T16:06:27.000Z</time>
      </trkpt>
      <trkpt lat="47.48308" lon="6.77105">
        <ele>323</ele>
        <time>2016-10-01T16:06:29.000Z</time>
      </trkpt>
      <trkpt lat="47.4831" lon="6.77105">
        <ele>323</ele>
        <time>2016-10-01T16:06:30.000Z</time>
      </trkpt>
      <trkpt lat="47.48313" lon="6.77105">
        <ele>323</ele>
        <time>2016-10-01T16:06:32.000Z</time>
      </trkpt>
      <trkpt lat="47.48315" lon="6.77105">
        <ele>324</ele>
        <time>2016-10-01T16:06:33.000Z</time>
      </trkpt>
      <trkpt lat="47.48319" lon="6.77106">
        <ele>324</ele>
        <time>2016-10-01T16:06:37.000Z</time>
      </trkpt>
      <trkpt lat="47.4832" lon="6.77107">
        <ele>324</ele>
        <time>2016-10-01T16:06:38.000Z</time>
      </trkpt>
      <trkpt lat="47.48323" lon="6.77108">
        <ele>324</ele>
        <time>2016-10-01T16:06:40.000Z</time>
      </trkpt>
      <trkpt lat="47.48325" lon="6.7711">
        <ele>324</ele>
        <time>2016-10-01T16:06:41.000Z</time>
      </trkpt>
      <trkpt lat="47.48327" lon="6.77111">
        <ele>324</ele>
        <time>2016-10-01T16:06:42.000Z</time>
      </trkpt>
      <trkpt lat="47.4833" lon="6.77112">
        <ele>324</ele>
        <time>2016-10-01T16:06:43.000Z</time>
      </trkpt>
      <trkpt lat="47.48333" lon="6.77114">
        <ele>325</ele>
        <time>2016-10-01T16:06:45.000Z</time>
      </trkpt>
      <trkpt lat="47.48335" lon="6.77115">
        <ele>325</ele>
        <time>2016-10-01T16:06:46.000Z</time>
      </trkpt>
      <trkpt lat="47.48331" lon="6.77117">
        <ele>324</ele>
        <time>2016-10-01T16:06:59.000Z</time>
      </trkpt>
      <trkpt lat="47.4833" lon="6.77118">
        <ele>324</ele>
        <time>2016-10-01T16:07:00.000Z</time>
      </trkpt>
      <trkpt lat="47.48328" lon="6.77121">
        <ele>324</ele>
        <time>2016-10-01T16:07:02.000Z</time>
      </trkpt>
      <trkpt lat="47.48327" lon="6.77123">
        <ele>324</ele>
        <time>2016-10-01T16:07:03.000Z</time>
      </trkpt>
      <trkpt lat="47.48325" lon="6.77127">
        <ele>325</ele>
        <time>2016-10-01T16:07:05.000Z</time>
      </trkpt>
      <trkpt lat="47.48325" lon="6.77129">
        <ele>325</ele>
        <time>2016-10-01T16:07:06.000Z</time>
      </trkpt>
      <trkpt lat="47.48325" lon="6.77135">
        <ele>325</ele>
        <time>2016-10-01T16:07:08.000Z</time>
      </trkpt>
      <trkpt lat="47.48324" lon="6.77137">
        <ele>325</ele>
        <time>2016-10-01T16:07:09.000Z</time>
      </trkpt>
      <trkpt lat="47.48324" lon="6.77143">
        <ele>326</ele>
        <time>2016-10-01T16:07:11.000Z</time>
      </trkpt>
      <trkpt lat="47.48323" lon="6.77145">
        <ele>326</ele>
        <time>2016-10-01T16:07:12.000Z</time>
      </trkpt>
      <trkpt lat="47.48323" lon="6.7715">
        <ele>327</ele>
        <time>2016-10-01T16:07:14.000Z</time>
      </trkpt>
      <trkpt lat="47.48323" lon="6.77153">
        <ele>327</ele>
        <time>2016-10-01T16:07:15.000Z</time>
      </trkpt>
      <trkpt lat="47.48323" lon="6.77159">
        <ele>328</ele>
        <time>2016-10-01T16:07:18.000Z</time>
      </trkpt>
      <trkpt lat="47.48324" lon="6.77161">
        <ele>328</ele>
        <time>2016-10-01T16:07:19.000Z</time>
      </trkpt>
      <trkpt lat="47.48324" lon="6.77165">
        <ele>328</ele>
        <time>2016-10-01T16:07:21.000Z</time>
      </trkpt>
      <trkpt lat="47.48326" lon="6.77167">
        <ele>329</ele>
        <time>2016-10-01T16:07:22.000Z</time>
      </trkpt>
      <trkpt lat="47.48328" lon="6.77172">
        <ele>329</ele>
        <time>2016-10-01T16:07:24.000Z</time>
      </trkpt>
      <trkpt lat="47.48328" lon="6.77174">
        <ele>329</ele>
        <time>2016-10-01T16:07:25.000Z</time>
      </trkpt>
      <trkpt lat="47.48328" lon="6.77178">
        <ele>328</ele>
        <time>2016-10-01T16:07:27.000Z</time>
      </trkpt>
      <trkpt lat="47.48328" lon="6.77181">
        <ele>327</ele>
        <time>2016-10-01T16:07:28.000Z</time>
      </trkpt>
      <trkpt lat="47.48329" lon="6.77187">
        <ele>327</ele>
        <time>2016-10-01T16:07:30.000Z</time>
      </trkpt>
      <trkpt lat="47.48329" lon="6.7719">
        <ele>326</ele>
        <time>2016-10-01T16:07:31.000Z</time>
      </trkpt>
      <trkpt lat="47.4833" lon="6.77194">
        <ele>326</ele>
        <time>2016-10-01T16:07:32.000Z</time>
      </trkpt>
      <trkpt lat="47.48331" lon="6.77198">
        <ele>325</ele>
        <time>2016-10-01T16:07:33.000Z</time>
      </trkpt>
      <trkpt lat="47.48332" lon="6.77202">
        <ele>325</ele>
        <time>2016-10-01T16:07:34.000Z</time>
      </trkpt>
      <trkpt lat="47.48333" lon="6.77204">
        <ele>325</ele>
        <time>2016-10-01T16:07:35.000Z</time>
      </trkpt>
      <trkpt lat="47.48336" lon="6.77208">
        <ele>329</ele>
        <time>2016-10-01T16:07:37.000Z</time>
      </trkpt>
      <trkpt lat="47.48338" lon="6.7721">
        <ele>329</ele>
        <time>2016-10-01T16:07:38.000Z</time>
      </trkpt>
      <trkpt lat="47.4834" lon="6.77212">
        <ele>329</ele>
        <time>2016-10-01T16:07:39.000Z</time>
      </trkpt>
      <trkpt lat="47.48342" lon="6.77214">
        <ele>329</ele>
        <time>2016-10-01T16:07:40.000Z</time>
      </trkpt>
      <trkpt lat="47.48345" lon="6.77215">
        <ele>329</ele>
        <time>2016-10-01T16:07:41.000Z</time>
      </trkpt>
      <trkpt lat="47.48348" lon="6.77217">
        <ele>329</ele>
        <time>2016-10-01T16:07:42.000Z</time>
      </trkpt>
      <trkpt lat="47.4835" lon="6.77217">
        <ele>329</ele>
        <time>2016-10-01T16:07:43.000Z</time>
      </trkpt>
      <trkpt lat="47.48353" lon="6.77219">
        <ele>329</ele>
        <time>2016-10-01T16:07:44.000Z</time>
      </trkpt>
      <trkpt lat="47.48356" lon="6.77222">
        <ele>329</ele>
        <time>2016-10-01T16:07:46.000Z</time>
      </trkpt>
      <trkpt lat="47.48358" lon="6.77225">
        <ele>329</ele>
        <time>2016-10-01T16:07:47.000Z</time>
      </trkpt>
      <trkpt lat="47.4836" lon="6.77227">
        <ele>329</ele>
        <time>2016-10-01T16:07:48.000Z</time>
      </trkpt>
      <trkpt lat="47.48361" lon="6.7723">
        <ele>329</ele>
        <time>2016-10-01T16:07:49.000Z</time>
      </trkpt>
      <trkpt lat="47.48363" lon="6.77233">
        <ele>329</ele>
        <time>2016-10-01T16:07:50.000Z</time>
      </trkpt>
      <trkpt lat="47.48365" lon="6.77237">
        <ele>329</ele>
        <time>2016-10-01T16:07:51.000Z</time>
      </trkpt>
      <trkpt lat="47.48366" lon="6.7724">
        <ele>329</ele>
        <time>2016-10-01T16:07:52.000Z</time>
      </trkpt>
      <trkpt lat="47.48368" lon="6.77244">
        <ele>329</ele>
        <time>2016-10-01T16:07:53.000Z</time>
      </trkpt>
      <trkpt lat="47.48369" lon="6.77247">
        <ele>329</ele>
        <time>2016-10-01T16:07:54.000Z</time>
      </trkpt>
      <trkpt lat="47.48371" lon="6.7725">
        <ele>326</ele>
        <time>2016-10-01T16:07:55.000Z</time>
      </trkpt>
      <trkpt lat="47.48373" lon="6.77253">
        <ele>326</ele>
        <time>2016-10-01T16:07:56.000Z</time>
      </trkpt>
      <trkpt lat="47.48374" lon="6.77255">
        <ele>326</ele>
        <time>2016-10-01T16:07:57.000Z</time>
      </trkpt>
      <trkpt lat="47.48377" lon="6.77258">
        <ele>326</ele>
        <time>2016-10-01T16:07:58.000Z</time>
      </trkpt>
      <trkpt lat="47.48379" lon="6.77261">
        <ele>327</ele>
        <time>2016-10-01T16:07:59.000Z</time>
      </trkpt>
      <trkpt lat="47.48382" lon="6.77264">
        <ele>327</ele>
        <time>2016-10-01T16:08:00.000Z</time>
      </trkpt>
      <trkpt lat="47.48384" lon="6.77267">
        <ele>327</ele>
        <time>2016-10-01T16:08:01.000Z</time>
      </trkpt>
      <trkpt lat="47.48386" lon="6.77269">
        <ele>327</ele>
        <time>2016-10-01T16:08:02.000Z</time>
      </trkpt>
      <trkpt lat="47.48389" lon="6.77273">
        <ele>327</ele>
        <time>2016-10-01T16:08:03.000Z</time>
      </trkpt>
      <trkpt lat="47.48392" lon="6.77275">
        <ele>327</ele>
        <time>2016-10-01T16:08:04.000Z</time>
      </trkpt>
      <trkpt lat="47.48395" lon="6.77278">
        <ele>327</ele>
        <time>2016-10-01T16:08:05.000Z</time>
      </trkpt>
      <trkpt lat="47.48397" lon="6.77281">
        <ele>327</ele>
        <time>2016-10-01T16:08:06.000Z</time>
      </trkpt>
      <trkpt lat="47.484" lon="6.77284">
        <ele>327</ele>
        <time>2016-10-01T16:08:07.000Z</time>
      </trkpt>
      <trkpt lat="47.48403" lon="6.77287">
        <ele>327</ele>
        <time>2016-10-01T16:08:08.000Z</time>
      </trkpt>
      <trkpt lat="47.48405" lon="6.7729">
        <ele>327</ele>
        <time>2016-10-01T16:08:09.000Z</time>
      </trkpt>
      <trkpt lat="47.48408" lon="6.77293">
        <ele>326</ele>
        <time>2016-10-01T16:08:10.000Z</time>
      </trkpt>
      <trkpt lat="47.48411" lon="6.77297">
        <ele>326</ele>
        <time>2016-10-01T16:08:11.000Z</time>
      </trkpt>
      <trkpt lat="47.48414" lon="6.773">
        <ele>326</ele>
        <time>2016-10-01T16:08:12.000Z</time>
      </trkpt>
      <trkpt lat="47.48416" lon="6.77303">
        <ele>326</ele>
        <time>2016-10-01T16:08:13.000Z</time>
      </trkpt>
      <trkpt lat="47.48419" lon="6.77307">
        <ele>332</ele>
        <time>2016-10-01T16:08:14.000Z</time>
      </trkpt>
      <trkpt lat="47.48422" lon="6.77311">
        <ele>331</ele>
        <time>2016-10-01T16:08:15.000Z</time>
      </trkpt>
      <trkpt lat="47.48425" lon="6.77314">
        <ele>331</ele>
        <time>2016-10-01T16:08:16.000Z</time>
      </trkpt>
      <trkpt lat="47.48428" lon="6.77318">
        <ele>331</ele>
        <time>2016-10-01T16:08:17.000Z</time>
      </trkpt>
      <trkpt lat="47.48432" lon="6.77321">
        <ele>331</ele>
        <time>2016-10-01T16:08:18.000Z</time>
      </trkpt>
      <trkpt lat="47.48436" lon="6.77325">
        <ele>331</ele>
        <time>2016-10-01T16:08:19.000Z</time>
      </trkpt>
      <trkpt lat="47.48439" lon="6.77328">
        <ele>331</ele>
        <time>2016-10-01T16:08:20.000Z</time>
      </trkpt>
      <trkpt lat="47.48443" lon="6.77332">
        <ele>332</ele>
        <time>2016-10-01T16:08:21.000Z</time>
      </trkpt>
      <trkpt lat="47.48447" lon="6.77336">
        <ele>328</ele>
        <time>2016-10-01T16:08:22.000Z</time>
      </trkpt>
      <trkpt lat="47.4845" lon="6.7734">
        <ele>328</ele>
        <time>2016-10-01T16:08:23.000Z</time>
      </trkpt>
      <trkpt lat="47.48453" lon="6.77344">
        <ele>328</ele>
        <time>2016-10-01T16:08:24.000Z</time>
      </trkpt>
      <trkpt lat="47.48456" lon="6.77348">
        <ele>328</ele>
        <time>2016-10-01T16:08:25.000Z</time>
      </trkpt>
      <trkpt lat="47.48458" lon="6.77351">
        <ele>328</ele>
        <time>2016-10-01T16:08:26.000Z</time>
      </trkpt>
      <trkpt lat="47.48461" lon="6.77355">
        <ele>328</ele>
        <time>2016-10-01T16:08:27.000Z</time>
      </trkpt>
      <trkpt lat="47.48463" lon="6.77358">
        <ele>328</ele>
        <time>2016-10-01T16:08:28.000Z</time>
      </trkpt>
      <trkpt lat="47.48465" lon="6.77361">
        <ele>328</ele>
        <time>2016-10-01T16:08:29.000Z</time>
      </trkpt>
      <trkpt lat="47.48468" lon="6.77365">
        <ele>328</ele>
        <time>2016-10-01T16:08:30.000Z</time>
      </trkpt>
      <trkpt lat="47.48471" lon="6.77369">
        <ele>328</ele>
        <time>2016-10-01T16:08:31.000Z</time>
      </trkpt>
      <trkpt lat="47.48475" lon="6.77374">
        <ele>328</ele>
        <time>2016-10-01T16:08:32.000Z</time>
      </trkpt>
      <trkpt lat="47.48479" lon="6.77378">
        <ele>328</ele>
        <time>2016-10-01T16:08:33.000Z</time>
      </trkpt>
      <trkpt lat="47.48482" lon="6.77382">
        <ele>328</ele>
        <time>2016-10-01T16:08:34.000Z</time>
      </trkpt>
      <trkpt lat="47.48486" lon="6.77386">
        <ele>327</ele>
        <time>2016-10-01T16:08:35.000Z</time>
      </trkpt>
      <trkpt lat="47.48489" lon="6.7739">
        <ele>327</ele>
        <time>2016-10-01T16:08:36.000Z</time>
      </trkpt>
      <trkpt lat="47.48493" lon="6.77394">
        <ele>327</ele>
        <time>2016-10-01T16:08:37.000Z</time>
      </trkpt>
      <trkpt lat="47.48496" lon="6.77398">
        <ele>327</ele>
        <time>2016-10-01T16:08:38.000Z</time>
      </trkpt>
      <trkpt lat="47.485" lon="6.77402">
        <ele>327</ele>
        <time>2016-10-01T16:08:39.000Z</time>
      </trkpt>
      <trkpt lat="47.48503" lon="6.77406">
        <ele>330</ele>
        <time>2016-10-01T16:08:40.000Z</time>
      </trkpt>
      <trkpt lat="47.48507" lon="6.7741">
        <ele>329</ele>
        <time>2016-10-01T16:08:41.000Z</time>
      </trkpt>
      <trkpt lat="47.48511" lon="6.77414">
        <ele>330</ele>
        <time>2016-10-01T16:08:42.000Z</time>
      </trkpt>
      <trkpt lat="47.48515" lon="6.77419">
        <ele>327</ele>
        <time>2016-10-01T16:08:43.000Z</time>
      </trkpt>
      <trkpt lat="47.4852" lon="6.77423">
        <ele>327</ele>
        <time>2016-10-01T16:08:44.000Z</time>
      </trkpt>
      <trkpt lat="47.48524" lon="6.77426">
        <ele>327</ele>
        <time>2016-10-01T16:08:45.000Z</time>
      </trkpt>
      <trkpt lat="47.48528" lon="6.77429">
        <ele>327</ele>
        <time>2016-10-01T16:08:46.000Z</time>
      </trkpt>
      <trkpt lat="47.48531" lon="6.77432">
        <ele>328</ele>
        <time>2016-10-01T16:08:47.000Z</time>
      </trkpt>
      <trkpt lat="47.48535" lon="6.77435">
        <ele>328</ele>
        <time>2016-10-01T16:08:48.000Z</time>
      </trkpt>
      <trkpt lat="47.48538" lon="6.77438">
        <ele>328</ele>
        <time>2016-10-01T16:08:49.000Z</time>
      </trkpt>
      <trkpt lat="47.48541" lon="6.77442">
        <ele>328</ele>
        <time>2016-10-01T16:08:50.000Z</time>
      </trkpt>
      <trkpt lat="47.48544" lon="6.77447">
        <ele>328</ele>
        <time>2016-10-01T16:08:51.000Z</time>
      </trkpt>
      <trkpt lat="47.48547" lon="6.77451">
        <ele>328</ele>
        <time>2016-10-01T16:08:52.000Z</time>
      </trkpt>
      <trkpt lat="47.48549" lon="6.77457">
        <ele>327</ele>
        <time>2016-10-01T16:08:53.000Z</time>
      </trkpt>
      <trkpt lat="47.4855" lon="6.77462">
        <ele>327</ele>
        <time>2016-10-01T16:08:54.000Z</time>
      </trkpt>
      <trkpt lat="47.48552" lon="6.77467">
        <ele>327</ele>
        <time>2016-10-01T16:08:55.000Z</time>
      </trkpt>
      <trkpt lat="47.48554" lon="6.77471">
        <ele>327</ele>
        <time>2016-10-01T16:08:56.000Z</time>
      </trkpt>
      <trkpt lat="47.48555" lon="6.77474">
        <ele>327</ele>
        <time>2016-10-01T16:08:57.000Z</time>
      </trkpt>
      <trkpt lat="47.48558" lon="6.77476">
        <ele>327</ele>
        <time>2016-10-01T16:08:58.001Z</time>
      </trkpt>
      <trkpt lat="47.4856" lon="6.77479">
        <ele>327</ele>
        <time>2016-10-01T16:08:59.000Z</time>
      </trkpt>
      <trkpt lat="47.48563" lon="6.77483">
        <ele>326</ele>
        <time>2016-10-01T16:09:00.000Z</time>
      </trkpt>
      <trkpt lat="47.48567" lon="6.77485">
        <ele>326</ele>
        <time>2016-10-01T16:09:01.000Z</time>
      </trkpt>
      <trkpt lat="47.48571" lon="6.77489">
        <ele>326</ele>
        <time>2016-10-01T16:09:02.000Z</time>
      </trkpt>
      <trkpt lat="47.48577" lon="6.77491">
        <ele>326</ele>
        <time>2016-10-01T16:09:03.000Z</time>
      </trkpt>
      <trkpt lat="47.48597" lon="6.77494">
        <ele>331</ele>
        <time>2016-10-01T16:09:04.000Z</time>
      </trkpt>
      <trkpt lat="47.486" lon="6.77495">
        <ele>331</ele>
        <time>2016-10-01T16:09:04.999Z</time>
      </trkpt>
      <trkpt lat="47.48602" lon="6.77497">
        <ele>332</ele>
        <time>2016-10-01T16:09:06.000Z</time>
      </trkpt>
      <trkpt lat="47.48606" lon="6.775">
        <ele>332</ele>
        <time>2016-10-01T16:09:07.001Z</time>
      </trkpt>
      <trkpt lat="47.48607" lon="6.77502">
        <ele>328</ele>
        <time>2016-10-01T16:09:08.000Z</time>
      </trkpt>
      <trkpt lat="47.4861" lon="6.77506">
        <ele>329</ele>
        <time>2016-10-01T16:09:10.001Z</time>
      </trkpt>
      <trkpt lat="47.48612" lon="6.77508">
        <ele>329</ele>
        <time>2016-10-01T16:09:11.000Z</time>
      </trkpt>
      <trkpt lat="47.48613" lon="6.77511">
        <ele>329</ele>
        <time>2016-10-01T16:09:12.001Z</time>
      </trkpt>
      <trkpt lat="47.48615" lon="6.77514">
        <ele>329</ele>
        <time>2016-10-01T16:09:13.000Z</time>
      </trkpt>
      <trkpt lat="47.48617" lon="6.77517">
        <ele>329</ele>
        <time>2016-10-01T16:09:14.000Z</time>
      </trkpt>
      <trkpt lat="47.48619" lon="6.77521">
        <ele>329</ele>
        <time>2016-10-01T16:09:15.000Z</time>
      </trkpt>
      <trkpt lat="47.4862" lon="6.77525">
        <ele>329</ele>
        <time>2016-10-01T16:09:16.000Z</time>
      </trkpt>
      <trkpt lat="47.48622" lon="6.77529">
        <ele>329</ele>
        <time>2016-10-01T16:09:17.000Z</time>
      </trkpt>
      <trkpt lat="47.48623" lon="6.77532">
        <ele>329</ele>
        <time>2016-10-01T16:09:18.000Z</time>
      </trkpt>
      <trkpt lat="47.48628" lon="6.7754">
        <ele>329</ele>
        <time>2016-10-01T16:09:19.000Z</time>
      </trkpt>
      <trkpt lat="47.48629" lon="6.77544">
        <ele>329</ele>
        <time>2016-10-01T16:09:20.000Z</time>
      </trkpt>
      <trkpt lat="47.48635" lon="6.77549">
        <ele>329</ele>
        <time>2016-10-01T16:09:21.000Z</time>
      </trkpt>
      <trkpt lat="47.48638" lon="6.77552">
        <ele>329</ele>
        <time>2016-10-01T16:09:22.000Z</time>
      </trkpt>
      <trkpt lat="47.4864" lon="6.77554">
        <ele>329</ele>
        <time>2016-10-01T16:09:23.000Z</time>
      </trkpt>
      <trkpt lat="47.48644" lon="6.77559">
        <ele>329</ele>
        <time>2016-10-01T16:09:24.000Z</time>
      </trkpt>
      <trkpt lat="47.48647" lon="6.77564">
        <ele>329</ele>
        <time>2016-10-01T16:09:25.000Z</time>
      </trkpt>
      <trkpt lat="47.48659" lon="6.77583">
        <ele>330</ele>
        <time>2016-10-01T16:09:26.000Z</time>
      </trkpt>
      <trkpt lat="47.48663" lon="6.7759">
        <ele>328</ele>
        <time>2016-10-01T16:09:27.000Z</time>
      </trkpt>
      <trkpt lat="47.48666" lon="6.77596">
        <ele>326</ele>
        <time>2016-10-01T16:09:28.000Z</time>
      </trkpt>
      <trkpt lat="47.48667" lon="6.77601">
        <ele>330</ele>
        <time>2016-10-01T16:09:29.000Z</time>
      </trkpt>
      <trkpt lat="47.48669" lon="6.77605">
        <ele>329</ele>
        <time>2016-10-01T16:09:30.000Z</time>
      </trkpt>
      <trkpt lat="47.48672" lon="6.77609">
        <ele>329</ele>
        <time>2016-10-01T16:09:31.000Z</time>
      </trkpt>
      <trkpt lat="47.48674" lon="6.77612">
        <ele>329</ele>
        <time>2016-10-01T16:09:31.999Z</time>
      </trkpt>
      <trkpt lat="47.48671" lon="6.77617">
        <ele>328</ele>
        <time>2016-10-01T16:09:33.000Z</time>
      </trkpt>
      <trkpt lat="47.48671" lon="6.77619">
        <ele>328</ele>
        <time>2016-10-01T16:09:34.000Z</time>
      </trkpt>
      <trkpt lat="47.48679" lon="6.77623">
        <ele>328</ele>
        <time>2016-10-01T16:09:35.000Z</time>
      </trkpt>
      <trkpt lat="47.48681" lon="6.77626">
        <ele>328</ele>
        <time>2016-10-01T16:09:37.000Z</time>
      </trkpt>
      <trkpt lat="47.48689" lon="6.77634">
        <ele>327</ele>
        <time>2016-10-01T16:09:38.000Z</time>
      </trkpt>
      <trkpt lat="47.48693" lon="6.77637">
        <ele>327</ele>
        <time>2016-10-01T16:09:39.000Z</time>
      </trkpt>
      <trkpt lat="47.48694" lon="6.77639">
        <ele>327</ele>
        <time>2016-10-01T16:09:40.000Z</time>
      </trkpt>
      <trkpt lat="47.48698" lon="6.77643">
        <ele>327</ele>
        <time>2016-10-01T16:09:42.000Z</time>
      </trkpt>
      <trkpt lat="47.48699" lon="6.77645">
        <ele>327</ele>
        <time>2016-10-01T16:09:43.000Z</time>
      </trkpt>
      <trkpt lat="47.48699" lon="6.77646">
        <ele>327</ele>
        <time>2016-10-01T16:09:44.000Z</time>
      </trkpt>
      <trkpt lat="47.48704" lon="6.7765">
        <ele>327</ele>
        <time>2016-10-01T16:09:45.000Z</time>
      </trkpt>
      <trkpt lat="47.48708" lon="6.77653">
        <ele>328</ele>
        <time>2016-10-01T16:09:46.000Z</time>
      </trkpt>
      <trkpt lat="47.48709" lon="6.77655">
        <ele>328</ele>
        <time>2016-10-01T16:09:47.000Z</time>
      </trkpt>
      <trkpt lat="47.48715" lon="6.77657">
        <ele>328</ele>
        <time>2016-10-01T16:09:48.000Z</time>
      </trkpt>
      <trkpt lat="47.48718" lon="6.77659">
        <ele>329</ele>
        <time>2016-10-01T16:09:49.000Z</time>
      </trkpt>
      <trkpt lat="47.4872" lon="6.77659">
        <ele>329</ele>
        <time>2016-10-01T16:09:50.000Z</time>
      </trkpt>
      <trkpt lat="47.48724" lon="6.7766">
        <ele>329</ele>
        <time>2016-10-01T16:09:52.000Z</time>
      </trkpt>
      <trkpt lat="47.48726" lon="6.77661">
        <ele>329</ele>
        <time>2016-10-01T16:09:53.000Z</time>
      </trkpt>
      <trkpt lat="47.48729" lon="6.77664">
        <ele>329</ele>
        <time>2016-10-01T16:09:55.000Z</time>
      </trkpt>
      <trkpt lat="47.48731" lon="6.77666">
        <ele>330</ele>
        <time>2016-10-01T16:09:56.000Z</time>
      </trkpt>
      <trkpt lat="47.48733" lon="6.77669">
        <ele>325</ele>
        <time>2016-10-01T16:09:57.000Z</time>
      </trkpt>
      <trkpt lat="47.48734" lon="6.77672">
        <ele>325</ele>
        <time>2016-10-01T16:09:58.000Z</time>
      </trkpt>
      <trkpt lat="47.48736" lon="6.77674">
        <ele>326</ele>
        <time>2016-10-01T16:09:59.000Z</time>
      </trkpt>
      <trkpt lat="47.48738" lon="6.77677">
        <ele>326</ele>
        <time>2016-10-01T16:10:00.000Z</time>
      </trkpt>
      <trkpt lat="47.48741" lon="6.77681">
        <ele>325</ele>
        <time>2016-10-01T16:10:02.000Z</time>
      </trkpt>
      <trkpt lat="47.48742" lon="6.77682">
        <ele>325</ele>
        <time>2016-10-01T16:10:03.000Z</time>
      </trkpt>
      <trkpt lat="47.48744" lon="6.77686">
        <ele>325</ele>
        <time>2016-10-01T16:10:14.000Z</time>
      </trkpt>
      <trkpt lat="47.48745" lon="6.77688">
        <ele>324</ele>
        <time>2016-10-01T16:10:15.000Z</time>
      </trkpt>
      <trkpt lat="47.48747" lon="6.77693">
        <ele>324</ele>
        <time>2016-10-01T16:10:18.000Z</time>
      </trkpt>
      <trkpt lat="47.48748" lon="6.77695">
        <ele>323</ele>
        <time>2016-10-01T16:10:19.000Z</time>
      </trkpt>
      <trkpt lat="47.48749" lon="6.77697">
        <ele>323</ele>
        <time>2016-10-01T16:10:20.000Z</time>
      </trkpt>
      <trkpt lat="47.48751" lon="6.77699">
        <ele>328</ele>
        <time>2016-10-01T16:10:21.000Z</time>
      </trkpt>
      <trkpt lat="47.48753" lon="6.77702">
        <ele>328</ele>
        <time>2016-10-01T16:10:22.000Z</time>
      </trkpt>
      <trkpt lat="47.48755" lon="6.77705">
        <ele>327</ele>
        <time>2016-10-01T16:10:23.000Z</time>
      </trkpt>
      <trkpt lat="47.48757" lon="6.77708">
        <ele>327</ele>
        <time>2016-10-01T16:10:24.000Z</time>
      </trkpt>
      <trkpt lat="47.48759" lon="6.77711">
        <ele>327</ele>
        <time>2016-10-01T16:10:25.000Z</time>
      </trkpt>
      <trkpt lat="47.48761" lon="6.77715">
        <ele>327</ele>
        <time>2016-10-01T16:10:26.000Z</time>
      </trkpt>
      <trkpt lat="47.48763" lon="6.77718">
        <ele>326</ele>
        <time>2016-10-01T16:10:27.000Z</time>
      </trkpt>
      <trkpt lat="47.48765" lon="6.77722">
        <ele>326</ele>
        <time>2016-10-01T16:10:28.000Z</time>
      </trkpt>
      <trkpt lat="47.48767" lon="6.77726">
        <ele>326</ele>
        <time>2016-10-01T16:10:29.000Z</time>
      </trkpt>
      <trkpt lat="47.4877" lon="6.7773">
        <ele>326</ele>
        <time>2016-10-01T16:10:30.000Z</time>
      </trkpt>
      <trkpt lat="47.48772" lon="6.77734">
        <ele>326</ele>
        <time>2016-10-01T16:10:31.000Z</time>
      </trkpt>
      <trkpt lat="47.48774" lon="6.77738">
        <ele>326</ele>
        <time>2016-10-01T16:10:32.000Z</time>
      </trkpt>
      <trkpt lat="47.48776" lon="6.7774">
        <ele>326</ele>
        <time>2016-10-01T16:10:33.000Z</time>
      </trkpt>
      <trkpt lat="47.48778" lon="6.77744">
        <ele>326</ele>
        <time>2016-10-01T16:10:34.000Z</time>
      </trkpt>
      <trkpt lat="47.4878" lon="6.77748">
        <ele>326</ele>
        <time>2016-10-01T16:10:35.000Z</time>
      </trkpt>
      <trkpt lat="47.48782" lon="6.77751">
        <ele>324</ele>
        <time>2016-10-01T16:10:36.000Z</time>
      </trkpt>
      <trkpt lat="47.48785" lon="6.77755">
        <ele>325</ele>
        <time>2016-10-01T16:10:37.000Z</time>
      </trkpt>
      <trkpt lat="47.48787" lon="6.77759">
        <ele>325</ele>
        <time>2016-10-01T16:10:38.000Z</time>
      </trkpt>
      <trkpt lat="47.4879" lon="6.77762">
        <ele>325</ele>
        <time>2016-10-01T16:10:39.000Z</time>
      </trkpt>
      <trkpt lat="47.48792" lon="6.77765">
        <ele>326</ele>
        <time>2016-10-01T16:10:40.000Z</time>
      </trkpt>
      <trkpt lat="47.48794" lon="6.77768">
        <ele>326</ele>
        <time>2016-10-01T16:10:41.000Z</time>
      </trkpt>
      <trkpt lat="47.48797" lon="6.77771">
        <ele>326</ele>
        <time>2016-10-01T16:10:42.000Z</time>
      </trkpt>
      <trkpt lat="47.48799" lon="6.77774">
        <ele>326</ele>
        <time>2016-10-01T16:10:43.000Z</time>
      </trkpt>
      <trkpt lat="47.48803" lon="6.77779">
        <ele>327</ele>
        <time>2016-10-01T16:10:44.000Z</time>
      </trkpt>
      <trkpt lat="47.48806" lon="6.77783">
        <ele>327</ele>
        <time>2016-10-01T16:10:45.000Z</time>
      </trkpt>
      <trkpt lat="47.48807" lon="6.77786">
        <ele>327</ele>
        <time>2016-10-01T16:10:46.000Z</time>
      </trkpt>
      <trkpt lat="47.48808" lon="6.7779">
        <ele>327</ele>
        <time>2016-10-01T16:10:50.000Z</time>
      </trkpt>
      <trkpt lat="47.48809" lon="6.77793">
        <ele>327</ele>
        <time>2016-10-01T16:10:51.000Z</time>
      </trkpt>
      <trkpt lat="47.4881" lon="6.77795">
        <ele>327</ele>
        <time>2016-10-01T16:10:52.000Z</time>
      </trkpt>
      <trkpt lat="47.48812" lon="6.77798">
        <ele>327</ele>
        <time>2016-10-01T16:10:53.000Z</time>
      </trkpt>
      <trkpt lat="47.48814" lon="6.77805">
        <ele>327</ele>
        <time>2016-10-01T16:10:54.000Z</time>
      </trkpt>
      <trkpt lat="47.48814" lon="6.77811">
        <ele>327</ele>
        <time>2016-10-01T16:10:55.000Z</time>
      </trkpt>
      <trkpt lat="47.48814" lon="6.77814">
        <ele>327</ele>
        <time>2016-10-01T16:10:56.000Z</time>
      </trkpt>
      <trkpt lat="47.48812" lon="6.77822">
        <ele>327</ele>
        <time>2016-10-01T16:10:57.000Z</time>
      </trkpt>
      <trkpt lat="47.48812" lon="6.77827">
        <ele>327</ele>
        <time>2016-10-01T16:10:58.000Z</time>
      </trkpt>
      <trkpt lat="47.48812" lon="6.77831">
        <ele>327</ele>
        <time>2016-10-01T16:10:59.001Z</time>
      </trkpt>
      <trkpt lat="47.48815" lon="6.77833">
        <ele>328</ele>
        <time>2016-10-01T16:11:00.000Z</time>
      </trkpt>
      <trkpt lat="47.48818" lon="6.77834">
        <ele>327</ele>
        <time>2016-10-01T16:11:01.000Z</time>
      </trkpt>
      <trkpt lat="47.4882" lon="6.77836">
        <ele>328</ele>
        <time>2016-10-01T16:11:02.000Z</time>
      </trkpt>
      <trkpt lat="47.48823" lon="6.77839">
        <ele>328</ele>
        <time>2016-10-01T16:11:03.000Z</time>
      </trkpt>
      <trkpt lat="47.48824" lon="6.77843">
        <ele>328</ele>
        <time>2016-10-01T16:11:04.000Z</time>
      </trkpt>
      <trkpt lat="47.48825" lon="6.77846">
        <ele>328</ele>
        <time>2016-10-01T16:11:04.999Z</time>
      </trkpt>
      <trkpt lat="47.48825" lon="6.77852">
        <ele>327</ele>
        <time>2016-10-01T16:11:06.000Z</time>
      </trkpt>
      <trkpt lat="47.48826" lon="6.77857">
        <ele>326</ele>
        <time>2016-10-01T16:11:07.000Z</time>
      </trkpt>
      <trkpt lat="47.48826" lon="6.7786">
        <ele>326</ele>
        <time>2016-10-01T16:11:07.999Z</time>
      </trkpt>
      <trkpt lat="47.4883" lon="6.77865">
        <ele>326</ele>
        <time>2016-10-01T16:11:09.000Z</time>
      </trkpt>
      <trkpt lat="47.48833" lon="6.77869">
        <ele>325</ele>
        <time>2016-10-01T16:11:10.000Z</time>
      </trkpt>
      <trkpt lat="47.48835" lon="6.77873">
        <ele>333</ele>
        <time>2016-10-01T16:11:11.000Z</time>
      </trkpt>
      <trkpt lat="47.48839" lon="6.77879">
        <ele>332</ele>
        <time>2016-10-01T16:11:12.000Z</time>
      </trkpt>
      <trkpt lat="47.48842" lon="6.77884">
        <ele>332</ele>
        <time>2016-10-01T16:11:13.000Z</time>
      </trkpt>
      <trkpt lat="47.48845" lon="6.77888">
        <ele>332</ele>
        <time>2016-10-01T16:11:14.000Z</time>
      </trkpt>
      <trkpt lat="47.48847" lon="6.77891">
        <ele>332</ele>
        <time>2016-10-01T16:11:15.000Z</time>
      </trkpt>
      <trkpt lat="47.48848" lon="6.77894">
        <ele>332</ele>
        <time>2016-10-01T16:11:16.000Z</time>
      </trkpt>
      <trkpt lat="47.48852" lon="6.77898">
        <ele>332</ele>
        <time>2016-10-01T16:11:18.000Z</time>
      </trkpt>
      <trkpt lat="47.48854" lon="6.77901">
        <ele>332</ele>
        <time>2016-10-01T16:11:19.000Z</time>
      </trkpt>
      <trkpt lat="47.48855" lon="6.77902">
        <ele>332</ele>
        <time>2016-10-01T16:11:20.001Z</time>
      </trkpt>
      <trkpt lat="47.48858" lon="6.77906">
        <ele>332</ele>
        <time>2016-10-01T16:11:21.000Z</time>
      </trkpt>
      <trkpt lat="47.48859" lon="6.7791">
        <ele>332</ele>
        <time>2016-10-01T16:11:22.000Z</time>
      </trkpt>
      <trkpt lat="47.48861" lon="6.77914">
        <ele>332</ele>
        <time>2016-10-01T16:11:23.000Z</time>
      </trkpt>
      <trkpt lat="47.48863" lon="6.77919">
        <ele>331</ele>
        <time>2016-10-01T16:11:24.000Z</time>
      </trkpt>
      <trkpt lat="47.48865" lon="6.77923">
        <ele>331</ele>
        <time>2016-10-01T16:11:25.000Z</time>
      </trkpt>
      <trkpt lat="47.48867" lon="6.77928">
        <ele>331</ele>
        <time>2016-10-01T16:11:26.000Z</time>
      </trkpt>
      <trkpt lat="47.48868" lon="6.77932">
        <ele>331</ele>
        <time>2016-10-01T16:11:27.000Z</time>
      </trkpt>
      <trkpt lat="47.4887" lon="6.77935">
        <ele>331</ele>
        <time>2016-10-01T16:11:28.000Z</time>
      </trkpt>
      <trkpt lat="47.48871" lon="6.77938">
        <ele>331</ele>
        <time>2016-10-01T16:11:29.000Z</time>
      </trkpt>
      <trkpt lat="47.48873" lon="6.7794">
        <ele>331</ele>
        <time>2016-10-01T16:11:30.000Z</time>
      </trkpt>
      <trkpt lat="47.48874" lon="6.77944">
        <ele>331</ele>
        <time>2016-10-01T16:11:31.000Z</time>
      </trkpt>
      <trkpt lat="47.48875" lon="6.77946">
        <ele>332</ele>
        <time>2016-10-01T16:11:32.100Z</time>
      </trkpt>
      <trkpt lat="47.48878" lon="6.77951">
        <ele>332</ele>
        <time>2016-10-01T16:11:33.000Z</time>
      </trkpt>
      <trkpt lat="47.4888" lon="6.77956">
        <ele>332</ele>
        <time>2016-10-01T16:11:34.000Z</time>
      </trkpt>
      <trkpt lat="47.48882" lon="6.7796">
        <ele>332</ele>
        <time>2016-10-01T16:11:35.000Z</time>
      </trkpt>
      <trkpt lat="47.48883" lon="6.77964">
        <ele>332</ele>
        <time>2016-10-01T16:11:36.000Z</time>
      </trkpt>
      <trkpt lat="47.48885" lon="6.7797">
        <ele>332</ele>
        <time>2016-10-01T16:11:37.000Z</time>
      </trkpt>
      <trkpt lat="47.48887" lon="6.77975">
        <ele>332</ele>
        <time>2016-10-01T16:11:38.000Z</time>
      </trkpt>
      <trkpt lat="47.48888" lon="6.77981">
        <ele>332</ele>
        <time>2016-10-01T16:11:39.000Z</time>
      </trkpt>
      <trkpt lat="47.48889" lon="6.77986">
        <ele>332</ele>
        <time>2016-10-01T16:11:40.000Z</time>
      </trkpt>
      <trkpt lat="47.48889" lon="6.7799">
        <ele>333</ele>
        <time>2016-10-01T16:11:41.000Z</time>
      </trkpt>
      <trkpt lat="47.4889" lon="6.77994">
        <ele>333</ele>
        <time>2016-10-01T16:11:42.000Z</time>
      </trkpt>
      <trkpt lat="47.48892" lon="6.77997">
        <ele>333</ele>
        <time>2016-10-01T16:11:43.000Z</time>
      </trkpt>
      <trkpt lat="47.48893" lon="6.78">
        <ele>333</ele>
        <time>2016-10-01T16:11:44.000Z</time>
      </trkpt>
      <trkpt lat="47.48895" lon="6.78004">
        <ele>330</ele>
        <time>2016-10-01T16:11:45.000Z</time>
      </trkpt>
      <trkpt lat="47.48896" lon="6.7801">
        <ele>330</ele>
        <time>2016-10-01T16:11:46.000Z</time>
      </trkpt>
      <trkpt lat="47.48899" lon="6.78017">
        <ele>330</ele>
        <time>2016-10-01T16:11:47.000Z</time>
      </trkpt>
      <trkpt lat="47.48901" lon="6.78024">
        <ele>329</ele>
        <time>2016-10-01T16:11:48.000Z</time>
      </trkpt>
      <trkpt lat="47.48903" lon="6.78029">
        <ele>329</ele>
        <time>2016-10-01T16:11:49.000Z</time>
      </trkpt>
      <trkpt lat="47.48906" lon="6.78035">
        <ele>329</ele>
        <time>2016-10-01T16:11:50.000Z</time>
      </trkpt>
      <trkpt lat="47.48907" lon="6.78039">
        <ele>328</ele>
        <time>2016-10-01T16:11:51.001Z</time>
      </trkpt>
      <trkpt lat="47.48909" lon="6.78043">
        <ele>328</ele>
        <time>2016-10-01T16:11:52.000Z</time>
      </trkpt>
      <trkpt lat="47.4891" lon="6.78047">
        <ele>328</ele>
        <time>2016-10-01T16:11:53.000Z</time>
      </trkpt>
      <trkpt lat="47.48911" lon="6.78052">
        <ele>328</ele>
        <time>2016-10-01T16:11:54.000Z</time>
      </trkpt>
      <trkpt lat="47.48912" lon="6.78055">
        <ele>328</ele>
        <time>2016-10-01T16:11:55.001Z</time>
      </trkpt>
      <trkpt lat="47.48914" lon="6.7806">
        <ele>328</ele>
        <time>2016-10-01T16:11:56.000Z</time>
      </trkpt>
      <trkpt lat="47.48915" lon="6.78062">
        <ele>328</ele>
        <time>2016-10-01T16:11:57.000Z</time>
      </trkpt>
      <trkpt lat="47.48916" lon="6.78067">
        <ele>328</ele>
        <time>2016-10-01T16:11:58.001Z</time>
      </trkpt>
      <trkpt lat="47.48919" lon="6.78073">
        <ele>332</ele>
        <time>2016-10-01T16:11:59.000Z</time>
      </trkpt>
      <trkpt lat="47.48921" lon="6.78078">
        <ele>331</ele>
        <time>2016-10-01T16:12:00.000Z</time>
      </trkpt>
      <trkpt lat="47.48924" lon="6.78084">
        <ele>330</ele>
        <time>2016-10-01T16:12:01.000Z</time>
      </trkpt>
      <trkpt lat="47.48927" lon="6.78088">
        <ele>330</ele>
        <time>2016-10-01T16:12:02.000Z</time>
      </trkpt>
      <trkpt lat="47.48929" lon="6.78093">
        <ele>330</ele>
        <time>2016-10-01T16:12:03.000Z</time>
      </trkpt>
      <trkpt lat="47.48931" lon="6.78098">
        <ele>330</ele>
        <time>2016-10-01T16:12:04.000Z</time>
      </trkpt>
      <trkpt lat="47.48934" lon="6.78103">
        <ele>330</ele>
        <time>2016-10-01T16:12:05.000Z</time>
      </trkpt>
      <trkpt lat="47.48936" lon="6.78108">
        <ele>330</ele>
        <time>2016-10-01T16:12:06.000Z</time>
      </trkpt>
      <trkpt lat="47.48939" lon="6.78112">
        <ele>330</ele>
        <time>2016-10-01T16:12:07.000Z</time>
      </trkpt>
      <trkpt lat="47.48941" lon="6.78116">
        <ele>330</ele>
        <time>2016-10-01T16:12:08.000Z</time>
      </trkpt>
      <trkpt lat="47.48943" lon="6.7812">
        <ele>330</ele>
        <time>2016-10-01T16:12:09.000Z</time>
      </trkpt>
      <trkpt lat="47.48946" lon="6.78124">
        <ele>330</ele>
        <time>2016-10-01T16:12:10.000Z</time>
      </trkpt>
      <trkpt lat="47.48949" lon="6.78129">
        <ele>331</ele>
        <time>2016-10-01T16:12:11.000Z</time>
      </trkpt>
      <trkpt lat="47.48953" lon="6.78135">
        <ele>330</ele>
        <time>2016-10-01T16:12:12.000Z</time>
      </trkpt>
      <trkpt lat="47.48956" lon="6.78141">
        <ele>331</ele>
        <time>2016-10-01T16:12:13.000Z</time>
      </trkpt>
      <trkpt lat="47.48959" lon="6.78148">
        <ele>331</ele>
        <time>2016-10-01T16:12:14.000Z</time>
      </trkpt>
      <trkpt lat="47.48961" lon="6.78153">
        <ele>331</ele>
        <time>2016-10-01T16:12:15.000Z</time>
      </trkpt>
      <trkpt lat="47.48963" lon="6.78158">
        <ele>331</ele>
        <time>2016-10-01T16:12:16.000Z</time>
      </trkpt>
      <trkpt lat="47.48965" lon="6.78163">
        <ele>331</ele>
        <time>2016-10-01T16:12:17.000Z</time>
      </trkpt>
      <trkpt lat="47.48966" lon="6.78168">
        <ele>327</ele>
        <time>2016-10-01T16:12:18.000Z</time>
      </trkpt>
      <trkpt lat="47.48967" lon="6.78173">
        <ele>327</ele>
        <time>2016-10-01T16:12:19.000Z</time>
      </trkpt>
      <trkpt lat="47.48969" lon="6.78179">
        <ele>327</ele>
        <time>2016-10-01T16:12:20.000Z</time>
      </trkpt>
      <trkpt lat="47.4897" lon="6.78183">
        <ele>327</ele>
        <time>2016-10-01T16:12:21.000Z</time>
      </trkpt>
      <trkpt lat="47.48973" lon="6.78188">
        <ele>327</ele>
        <time>2016-10-01T16:12:22.000Z</time>
      </trkpt>
      <trkpt lat="47.48975" lon="6.78192">
        <ele>327</ele>
        <time>2016-10-01T16:12:23.000Z</time>
      </trkpt>
      <trkpt lat="47.48976" lon="6.78196">
        <ele>327</ele>
        <time>2016-10-01T16:12:24.000Z</time>
      </trkpt>
      <trkpt lat="47.48977" lon="6.782">
        <ele>327</ele>
        <time>2016-10-01T16:12:25.000Z</time>
      </trkpt>
      <trkpt lat="47.48978" lon="6.78206">
        <ele>326</ele>
        <time>2016-10-01T16:12:26.000Z</time>
      </trkpt>
      <trkpt lat="47.4898" lon="6.78211">
        <ele>326</ele>
        <time>2016-10-01T16:12:27.000Z</time>
      </trkpt>
      <trkpt lat="47.48983" lon="6.78216">
        <ele>326</ele>
        <time>2016-10-01T16:12:28.000Z</time>
      </trkpt>
      <trkpt lat="47.48988" lon="6.78221">
        <ele>326</ele>
        <time>2016-10-01T16:12:29.000Z</time>
      </trkpt>
      <trkpt lat="47.48991" lon="6.78226">
        <ele>326</ele>
        <time>2016-10-01T16:12:30.000Z</time>
      </trkpt>
      <trkpt lat="47.48995" lon="6.7823">
        <ele>326</ele>
        <time>2016-10-01T16:12:31.000Z</time>
      </trkpt>
      <trkpt lat="47.48999" lon="6.78234">
        <ele>327</ele>
        <time>2016-10-01T16:12:32.000Z</time>
      </trkpt>
      <trkpt lat="47.49001" lon="6.78238">
        <ele>331</ele>
        <time>2016-10-01T16:12:32.999Z</time>
      </trkpt>
      <trkpt lat="47.49005" lon="6.78243">
        <ele>331</ele>
        <time>2016-10-01T16:12:34.000Z</time>
      </trkpt>
      <trkpt lat="47.49009" lon="6.78247">
        <ele>331</ele>
        <time>2016-10-01T16:12:35.000Z</time>
      </trkpt>
      <trkpt lat="47.49012" lon="6.7825">
        <ele>331</ele>
        <time>2016-10-01T16:12:36.000Z</time>
      </trkpt>
      <trkpt lat="47.49024" lon="6.78264">
        <ele>329</ele>
        <time>2016-10-01T16:12:37.001Z</time>
      </trkpt>
      <trkpt lat="47.49028" lon="6.7827">
        <ele>329</ele>
        <time>2016-10-01T16:12:38.001Z</time>
      </trkpt>
      <trkpt lat="47.49035" lon="6.78274">
        <ele>330</ele>
        <time>2016-10-01T16:12:39.000Z</time>
      </trkpt>
      <trkpt lat="47.49039" lon="6.78279">
        <ele>330</ele>
        <time>2016-10-01T16:12:40.000Z</time>
      </trkpt>
      <trkpt lat="47.49042" lon="6.78283">
        <ele>330</ele>
        <time>2016-10-01T16:12:41.000Z</time>
      </trkpt>
      <trkpt lat="47.49043" lon="6.78286">
        <ele>330</ele>
        <time>2016-10-01T16:12:42.000Z</time>
      </trkpt>
      <trkpt lat="47.49045" lon="6.78294">
        <ele>329</ele>
        <time>2016-10-01T16:12:43.000Z</time>
      </trkpt>
      <trkpt lat="47.49048" lon="6.78298">
        <ele>329</ele>
        <time>2016-10-01T16:12:44.000Z</time>
      </trkpt>
      <trkpt lat="47.49048" lon="6.78303">
        <ele>329</ele>
        <time>2016-10-01T16:12:45.000Z</time>
      </trkpt>
      <trkpt lat="47.4905" lon="6.78309">
        <ele>329</ele>
        <time>2016-10-01T16:12:46.000Z</time>
      </trkpt>
      <trkpt lat="47.49051" lon="6.78314">
        <ele>329</ele>
        <time>2016-10-01T16:12:47.000Z</time>
      </trkpt>
      <trkpt lat="47.49052" lon="6.78319">
        <ele>329</ele>
        <time>2016-10-01T16:12:48.000Z</time>
      </trkpt>
      <trkpt lat="47.49053" lon="6.78324">
        <ele>329</ele>
        <time>2016-10-01T16:12:49.000Z</time>
      </trkpt>
      <trkpt lat="47.49055" lon="6.78329">
        <ele>329</ele>
        <time>2016-10-01T16:12:50.000Z</time>
      </trkpt>
      <trkpt lat="47.49057" lon="6.78335">
        <ele>326</ele>
        <time>2016-10-01T16:12:51.000Z</time>
      </trkpt>
      <trkpt lat="47.4906" lon="6.78341">
        <ele>326</ele>
        <time>2016-10-01T16:12:52.000Z</time>
      </trkpt>
      <trkpt lat="47.49063" lon="6.78349">
        <ele>326</ele>
        <time>2016-10-01T16:12:53.000Z</time>
      </trkpt>
      <trkpt lat="47.49066" lon="6.78357">
        <ele>325</ele>
        <time>2016-10-01T16:12:54.000Z</time>
      </trkpt>
      <trkpt lat="47.49069" lon="6.78365">
        <ele>325</ele>
        <time>2016-10-01T16:12:55.000Z</time>
      </trkpt>
      <trkpt lat="47.49072" lon="6.78373">
        <ele>325</ele>
        <time>2016-10-01T16:12:56.000Z</time>
      </trkpt>
      <trkpt lat="47.49076" lon="6.78381">
        <ele>324</ele>
        <time>2016-10-01T16:12:57.000Z</time>
      </trkpt>
      <trkpt lat="47.49079" lon="6.7839">
        <ele>324</ele>
        <time>2016-10-01T16:12:58.000Z</time>
      </trkpt>
      <trkpt lat="47.49083" lon="6.78398">
        <ele>325</ele>
        <time>2016-10-01T16:12:59.000Z</time>
      </trkpt>
      <trkpt lat="47.49086" lon="6.78406">
        <ele>329</ele>
        <time>2016-10-01T16:13:00.000Z</time>
      </trkpt>
      <trkpt lat="47.49088" lon="6.78415">
        <ele>328</ele>
        <time>2016-10-01T16:13:01.000Z</time>
      </trkpt>
      <trkpt lat="47.49091" lon="6.78423">
        <ele>328</ele>
        <time>2016-10-01T16:13:02.000Z</time>
      </trkpt>
      <trkpt lat="47.49094" lon="6.7843">
        <ele>328</ele>
        <time>2016-10-01T16:13:03.000Z</time>
      </trkpt>
      <trkpt lat="47.49102" lon="6.78444">
        <ele>329</ele>
        <time>2016-10-01T16:13:04.000Z</time>
      </trkpt>
      <trkpt lat="47.49107" lon="6.7845">
        <ele>330</ele>
        <time>2016-10-01T16:13:05.000Z</time>
      </trkpt>
      <trkpt lat="47.49114" lon="6.78451">
        <ele>330</ele>
        <time>2016-10-01T16:13:06.000Z</time>
      </trkpt>
      <trkpt lat="47.49118" lon="6.78454">
        <ele>331</ele>
        <time>2016-10-01T16:13:07.000Z</time>
      </trkpt>
      <trkpt lat="47.4912" lon="6.78461">
        <ele>330</ele>
        <time>2016-10-01T16:13:08.000Z</time>
      </trkpt>
      <trkpt lat="47.49123" lon="6.78466">
        <ele>330</ele>
        <time>2016-10-01T16:13:09.000Z</time>
      </trkpt>
      <trkpt lat="47.49126" lon="6.78471">
        <ele>331</ele>
        <time>2016-10-01T16:13:10.000Z</time>
      </trkpt>
      <trkpt lat="47.49133" lon="6.78478">
        <ele>331</ele>
        <time>2016-10-01T16:13:11.000Z</time>
      </trkpt>
      <trkpt lat="47.49145" lon="6.78484">
        <ele>332</ele>
        <time>2016-10-01T16:13:12.000Z</time>
      </trkpt>
      <trkpt lat="47.49151" lon="6.78487">
        <ele>333</ele>
        <time>2016-10-01T16:13:13.000Z</time>
      </trkpt>
      <trkpt lat="47.49157" lon="6.78492">
        <ele>333</ele>
        <time>2016-10-01T16:13:14.000Z</time>
      </trkpt>
      <trkpt lat="47.49155" lon="6.78497">
        <ele>333</ele>
        <time>2016-10-01T16:13:26.000Z</time>
      </trkpt>
      <trkpt lat="47.49154" lon="6.78498">
        <ele>333</ele>
        <time>2016-10-01T16:13:27.001Z</time>
      </trkpt>
      <trkpt lat="47.49155" lon="6.78503">
        <ele>330</ele>
        <time>2016-10-01T16:13:28.000Z</time>
      </trkpt>
      <trkpt lat="47.49155" lon="6.78507">
        <ele>330</ele>
        <time>2016-10-01T16:13:29.000Z</time>
      </trkpt>
      <trkpt lat="47.49155" lon="6.78511">
        <ele>329</ele>
        <time>2016-10-01T16:13:30.000Z</time>
      </trkpt>
      <trkpt lat="47.49156" lon="6.78515">
        <ele>329</ele>
        <time>2016-10-01T16:13:31.000Z</time>
      </trkpt>
      <trkpt lat="47.49156" lon="6.7852">
        <ele>328</ele>
        <time>2016-10-01T16:13:32.000Z</time>
      </trkpt>
      <trkpt lat="47.49156" lon="6.78524">
        <ele>327</ele>
        <time>2016-10-01T16:13:33.000Z</time>
      </trkpt>
      <trkpt lat="47.49157" lon="6.7853">
        <ele>327</ele>
        <time>2016-10-01T16:13:34.000Z</time>
      </trkpt>
      <trkpt lat="47.49158" lon="6.78535">
        <ele>326</ele>
        <time>2016-10-01T16:13:35.000Z</time>
      </trkpt>
      <trkpt lat="47.49159" lon="6.78538">
        <ele>326</ele>
        <time>2016-10-01T16:13:36.000Z</time>
      </trkpt>
      <trkpt lat="47.4916" lon="6.78542">
        <ele>326</ele>
        <time>2016-10-01T16:13:37.000Z</time>
      </trkpt>
      <trkpt lat="47.49161" lon="6.78546">
        <ele>325</ele>
        <time>2016-10-01T16:13:38.000Z</time>
      </trkpt>
      <trkpt lat="47.49163" lon="6.78551">
        <ele>325</ele>
        <time>2016-10-01T16:13:39.000Z</time>
      </trkpt>
      <trkpt lat="47.49165" lon="6.78556">
        <ele>325</ele>
        <time>2016-10-01T16:13:40.000Z</time>
      </trkpt>
      <trkpt lat="47.49168" lon="6.78561">
        <ele>332</ele>
        <time>2016-10-01T16:13:41.000Z</time>
      </trkpt>
      <trkpt lat="47.49171" lon="6.78567">
        <ele>331</ele>
        <time>2016-10-01T16:13:42.000Z</time>
      </trkpt>
      <trkpt lat="47.49173" lon="6.78573">
        <ele>330</ele>
        <time>2016-10-01T16:13:43.000Z</time>
      </trkpt>
      <trkpt lat="47.49176" lon="6.78579">
        <ele>329</ele>
        <time>2016-10-01T16:13:44.000Z</time>
      </trkpt>
      <trkpt lat="47.49179" lon="6.78586">
        <ele>327</ele>
        <time>2016-10-01T16:13:45.000Z</time>
      </trkpt>
      <trkpt lat="47.49181" lon="6.78592">
        <ele>328</ele>
        <time>2016-10-01T16:13:46.000Z</time>
      </trkpt>
      <trkpt lat="47.49183" lon="6.78598">
        <ele>328</ele>
        <time>2016-10-01T16:13:47.000Z</time>
      </trkpt>
      <trkpt lat="47.49185" lon="6.78603">
        <ele>328</ele>
        <time>2016-10-01T16:13:48.001Z</time>
      </trkpt>
      <trkpt lat="47.49187" lon="6.78608">
        <ele>328</ele>
        <time>2016-10-01T16:13:49.000Z</time>
      </trkpt>
      <trkpt lat="47.49189" lon="6.78611">
        <ele>329</ele>
        <time>2016-10-01T16:13:50.000Z</time>
      </trkpt>
      <trkpt lat="47.49192" lon="6.78614">
        <ele>329</ele>
        <time>2016-10-01T16:13:51.000Z</time>
      </trkpt>
      <trkpt lat="47.49194" lon="6.78616">
        <ele>329</ele>
        <time>2016-10-01T16:13:52.000Z</time>
      </trkpt>
      <trkpt lat="47.49198" lon="6.78619">
        <ele>329</ele>
        <time>2016-10-01T16:13:53.000Z</time>
      </trkpt>
      <trkpt lat="47.492" lon="6.7862">
        <ele>329</ele>
        <time>2016-10-01T16:13:54.002Z</time>
      </trkpt>
      <trkpt lat="47.49202" lon="6.78625">
        <ele>329</ele>
        <time>2016-10-01T16:13:55.000Z</time>
      </trkpt>
      <trkpt lat="47.49204" lon="6.78629">
        <ele>329</ele>
        <time>2016-10-01T16:13:56.000Z</time>
      </trkpt>
      <trkpt lat="47.49205" lon="6.78633">
        <ele>329</ele>
        <time>2016-10-01T16:13:57.000Z</time>
      </trkpt>
      <trkpt lat="47.49206" lon="6.78637">
        <ele>329</ele>
        <time>2016-10-01T16:13:58.000Z</time>
      </trkpt>
      <trkpt lat="47.49208" lon="6.78641">
        <ele>329</ele>
        <time>2016-10-01T16:13:59.000Z</time>
      </trkpt>
      <trkpt lat="47.49209" lon="6.78646">
        <ele>329</ele>
        <time>2016-10-01T16:14:00.000Z</time>
      </trkpt>
      <trkpt lat="47.49211" lon="6.78652">
        <ele>329</ele>
        <time>2016-10-01T16:14:01.000Z</time>
      </trkpt>
      <trkpt lat="47.49225" lon="6.78671">
        <ele>327</ele>
        <time>2016-10-01T16:14:02.000Z</time>
      </trkpt>
      <trkpt lat="47.4923" lon="6.78678">
        <ele>327</ele>
        <time>2016-10-01T16:14:03.000Z</time>
      </trkpt>
      <trkpt lat="47.49232" lon="6.78685">
        <ele>327</ele>
        <time>2016-10-01T16:14:04.000Z</time>
      </trkpt>
      <trkpt lat="47.49234" lon="6.7869">
        <ele>327</ele>
        <time>2016-10-01T16:14:05.000Z</time>
      </trkpt>
      <trkpt lat="47.49237" lon="6.78695">
        <ele>326</ele>
        <time>2016-10-01T16:14:06.000Z</time>
      </trkpt>
      <trkpt lat="47.49241" lon="6.78702">
        <ele>326</ele>
        <time>2016-10-01T16:14:07.000Z</time>
      </trkpt>
      <trkpt lat="47.49244" lon="6.78709">
        <ele>325</ele>
        <time>2016-10-01T16:14:08.000Z</time>
      </trkpt>
      <trkpt lat="47.49246" lon="6.78715">
        <ele>325</ele>
        <time>2016-10-01T16:14:09.000Z</time>
      </trkpt>
      <trkpt lat="47.4925" lon="6.7872">
        <ele>334</ele>
        <time>2016-10-01T16:14:10.000Z</time>
      </trkpt>
      <trkpt lat="47.49252" lon="6.78723">
        <ele>334</ele>
        <time>2016-10-01T16:14:12.000Z</time>
      </trkpt>
      <trkpt lat="47.49255" lon="6.78725">
        <ele>333</ele>
        <time>2016-10-01T16:14:13.000Z</time>
      </trkpt>
      <trkpt lat="47.49258" lon="6.78728">
        <ele>333</ele>
        <time>2016-10-01T16:14:15.000Z</time>
      </trkpt>
      <trkpt lat="47.49261" lon="6.7873">
        <ele>333</ele>
        <time>2016-10-01T16:14:16.000Z</time>
      </trkpt>
      <trkpt lat="47.49263" lon="6.78731">
        <ele>333</ele>
        <time>2016-10-01T16:14:17.000Z</time>
      </trkpt>
      <trkpt lat="47.49266" lon="6.78733">
        <ele>333</ele>
        <time>2016-10-01T16:14:18.000Z</time>
      </trkpt>
      <trkpt lat="47.49269" lon="6.78736">
        <ele>333</ele>
        <time>2016-10-01T16:14:19.000Z</time>
      </trkpt>
      <trkpt lat="47.49272" lon="6.78739">
        <ele>334</ele>
        <time>2016-10-01T16:14:20.000Z</time>
      </trkpt>
      <trkpt lat="47.49274" lon="6.78743">
        <ele>334</ele>
        <time>2016-10-01T16:14:21.000Z</time>
      </trkpt>
      <trkpt lat="47.49277" lon="6.78747">
        <ele>334</ele>
        <time>2016-10-01T16:14:22.000Z</time>
      </trkpt>
      <trkpt lat="47.4928" lon="6.7875">
        <ele>331</ele>
        <time>2016-10-01T16:14:23.000Z</time>
      </trkpt>
      <trkpt lat="47.49282" lon="6.78753">
        <ele>331</ele>
        <time>2016-10-01T16:14:24.000Z</time>
      </trkpt>
      <trkpt lat="47.49285" lon="6.78757">
        <ele>332</ele>
        <time>2016-10-01T16:14:27.000Z</time>
      </trkpt>
      <trkpt lat="47.49286" lon="6.78762">
        <ele>332</ele>
        <time>2016-10-01T16:14:28.000Z</time>
      </trkpt>
      <trkpt lat="47.49287" lon="6.78767">
        <ele>332</ele>
        <time>2016-10-01T16:14:29.000Z</time>
      </trkpt>
      <trkpt lat="47.49286" lon="6.78771">
        <ele>332</ele>
        <time>2016-10-01T16:14:30.000Z</time>
      </trkpt>
      <trkpt lat="47.49286" lon="6.78776">
        <ele>332</ele>
        <time>2016-10-01T16:14:31.000Z</time>
      </trkpt>
      <trkpt lat="47.49285" lon="6.78782">
        <ele>331</ele>
        <time>2016-10-01T16:14:32.000Z</time>
      </trkpt>
      <trkpt lat="47.49284" lon="6.78786">
        <ele>331</ele>
        <time>2016-10-01T16:14:33.000Z</time>
      </trkpt>
      <trkpt lat="47.49284" lon="6.78792">
        <ele>331</ele>
        <time>2016-10-01T16:14:34.001Z</time>
      </trkpt>
      <trkpt lat="47.49285" lon="6.78798">
        <ele>331</ele>
        <time>2016-10-01T16:14:35.000Z</time>
      </trkpt>
      <trkpt lat="47.49285" lon="6.78801">
        <ele>331</ele>
        <time>2016-10-01T16:14:36.000Z</time>
      </trkpt>
      <trkpt lat="47.49287" lon="6.78804">
        <ele>331</ele>
        <time>2016-10-01T16:14:38.000Z</time>
      </trkpt>
      <trkpt lat="47.4929" lon="6.78804">
        <ele>331</ele>
        <time>2016-10-01T16:14:39.000Z</time>
      </trkpt>
      <trkpt lat="47.49294" lon="6.78805">
        <ele>332</ele>
        <time>2016-10-01T16:14:45.000Z</time>
      </trkpt>
      <trkpt lat="47.49294" lon="6.78806">
        <ele>332</ele>
        <time>2016-10-01T16:14:46.000Z</time>
      </trkpt>
      <trkpt lat="47.49295" lon="6.78812">
        <ele>332</ele>
        <time>2016-10-01T16:14:56.000Z</time>
      </trkpt>
      <trkpt lat="47.49295" lon="6.78815">
        <ele>332</ele>
        <time>2016-10-01T16:14:57.000Z</time>
      </trkpt>
      <trkpt lat="47.49296" lon="6.78821">
        <ele>332</ele>
        <time>2016-10-01T16:14:59.000Z</time>
      </trkpt>
      <trkpt lat="47.49297" lon="6.78824">
        <ele>332</ele>
        <time>2016-10-01T16:15:00.000Z</time>
      </trkpt>
      <trkpt lat="47.49298" lon="6.78828">
        <ele>332</ele>
        <time>2016-10-01T16:15:01.000Z</time>
      </trkpt>
      <trkpt lat="47.49299" lon="6.78833">
        <ele>332</ele>
        <time>2016-10-01T16:15:02.000Z</time>
      </trkpt>
      <trkpt lat="47.493" lon="6.78839">
        <ele>328</ele>
        <time>2016-10-01T16:15:03.000Z</time>
      </trkpt>
      <trkpt lat="47.49301" lon="6.78846">
        <ele>328</ele>
        <time>2016-10-01T16:15:04.000Z</time>
      </trkpt>
      <trkpt lat="47.49304" lon="6.78853">
        <ele>328</ele>
        <time>2016-10-01T16:15:05.000Z</time>
      </trkpt>
      <trkpt lat="47.49306" lon="6.78859">
        <ele>328</ele>
        <time>2016-10-01T16:15:06.000Z</time>
      </trkpt>
      <trkpt lat="47.49308" lon="6.78866">
        <ele>328</ele>
        <time>2016-10-01T16:15:07.000Z</time>
      </trkpt>
      <trkpt lat="47.4931" lon="6.78871">
        <ele>328</ele>
        <time>2016-10-01T16:15:08.000Z</time>
      </trkpt>
      <trkpt lat="47.49311" lon="6.78877">
        <ele>328</ele>
        <time>2016-10-01T16:15:09.000Z</time>
      </trkpt>
      <trkpt lat="47.49312" lon="6.78884">
        <ele>327</ele>
        <time>2016-10-01T16:15:10.000Z</time>
      </trkpt>
      <trkpt lat="47.49314" lon="6.78891">
        <ele>327</ele>
        <time>2016-10-01T16:15:11.000Z</time>
      </trkpt>
      <trkpt lat="47.49317" lon="6.78899">
        <ele>328</ele>
        <time>2016-10-01T16:15:12.000Z</time>
      </trkpt>
      <trkpt lat="47.4932" lon="6.78906">
        <ele>328</ele>
        <time>2016-10-01T16:15:13.000Z</time>
      </trkpt>
      <trkpt lat="47.49324" lon="6.78913">
        <ele>329</ele>
        <time>2016-10-01T16:15:14.000Z</time>
      </trkpt>
      <trkpt lat="47.49329" lon="6.7892">
        <ele>328</ele>
        <time>2016-10-01T16:15:15.000Z</time>
      </trkpt>
      <trkpt lat="47.49334" lon="6.78927">
        <ele>331</ele>
        <time>2016-10-01T16:15:16.000Z</time>
      </trkpt>
      <trkpt lat="47.49339" lon="6.78934">
        <ele>331</ele>
        <time>2016-10-01T16:15:17.000Z</time>
      </trkpt>
      <trkpt lat="47.49343" lon="6.7894">
        <ele>331</ele>
        <time>2016-10-01T16:15:18.000Z</time>
      </trkpt>
      <trkpt lat="47.49348" lon="6.78947">
        <ele>331</ele>
        <time>2016-10-01T16:15:19.000Z</time>
      </trkpt>
      <trkpt lat="47.49352" lon="6.78954">
        <ele>331</ele>
        <time>2016-10-01T16:15:20.000Z</time>
      </trkpt>
      <trkpt lat="47.49357" lon="6.78961">
        <ele>331</ele>
        <time>2016-10-01T16:15:21.000Z</time>
      </trkpt>
      <trkpt lat="47.49361" lon="6.78968">
        <ele>331</ele>
        <time>2016-10-01T16:15:22.000Z</time>
      </trkpt>
      <trkpt lat="47.49365" lon="6.78975">
        <ele>331</ele>
        <time>2016-10-01T16:15:23.000Z</time>
      </trkpt>
      <trkpt lat="47.49369" lon="6.78982">
        <ele>331</ele>
        <time>2016-10-01T16:15:24.000Z</time>
      </trkpt>
      <trkpt lat="47.49373" lon="6.78988">
        <ele>331</ele>
        <time>2016-10-01T16:15:25.000Z</time>
      </trkpt>
      <trkpt lat="47.49376" lon="6.78994">
        <ele>331</ele>
        <time>2016-10-01T16:15:26.001Z</time>
      </trkpt>
      <trkpt lat="47.4938" lon="6.78999">
        <ele>332</ele>
        <time>2016-10-01T16:15:27.000Z</time>
      </trkpt>
      <trkpt lat="47.49385" lon="6.79005">
        <ele>327</ele>
        <time>2016-10-01T16:15:28.000Z</time>
      </trkpt>
      <trkpt lat="47.49389" lon="6.7901">
        <ele>328</ele>
        <time>2016-10-01T16:15:29.000Z</time>
      </trkpt>
      <trkpt lat="47.49393" lon="6.79016">
        <ele>328</ele>
        <time>2016-10-01T16:15:30.000Z</time>
      </trkpt>
      <trkpt lat="47.49407" lon="6.79035">
        <ele>327</ele>
        <time>2016-10-01T16:15:31.000Z</time>
      </trkpt>
      <trkpt lat="47.49412" lon="6.79043">
        <ele>327</ele>
        <time>2016-10-01T16:15:32.000Z</time>
      </trkpt>
      <trkpt lat="47.49416" lon="6.79049">
        <ele>326</ele>
        <time>2016-10-01T16:15:33.000Z</time>
      </trkpt>
      <trkpt lat="47.49422" lon="6.79051">
        <ele>330</ele>
        <time>2016-10-01T16:15:34.000Z</time>
      </trkpt>
      <trkpt lat="47.49424" lon="6.79055">
        <ele>329</ele>
        <time>2016-10-01T16:15:35.000Z</time>
      </trkpt>
      <trkpt lat="47.49426" lon="6.7906">
        <ele>329</ele>
        <time>2016-10-01T16:15:36.000Z</time>
      </trkpt>
      <trkpt lat="47.49429" lon="6.79068">
        <ele>328</ele>
        <time>2016-10-01T16:15:37.000Z</time>
      </trkpt>
      <trkpt lat="47.4943" lon="6.79075">
        <ele>328</ele>
        <time>2016-10-01T16:15:38.000Z</time>
      </trkpt>
      <trkpt lat="47.49431" lon="6.79083">
        <ele>327</ele>
        <time>2016-10-01T16:15:39.000Z</time>
      </trkpt>
      <trkpt lat="47.49433" lon="6.79092">
        <ele>324</ele>
        <time>2016-10-01T16:15:40.000Z</time>
      </trkpt>
      <trkpt lat="47.49434" lon="6.79101">
        <ele>324</ele>
        <time>2016-10-01T16:15:41.000Z</time>
      </trkpt>
      <trkpt lat="47.49435" lon="6.7911">
        <ele>324</ele>
        <time>2016-10-01T16:15:42.000Z</time>
      </trkpt>
      <trkpt lat="47.49436" lon="6.7912">
        <ele>323</ele>
        <time>2016-10-01T16:15:43.000Z</time>
      </trkpt>
      <trkpt lat="47.49436" lon="6.79128">
        <ele>323</ele>
        <time>2016-10-01T16:15:44.000Z</time>
      </trkpt>
      <trkpt lat="47.49437" lon="6.79138">
        <ele>323</ele>
        <time>2016-10-01T16:15:45.000Z</time>
      </trkpt>
      <trkpt lat="47.49439" lon="6.79147">
        <ele>323</ele>
        <time>2016-10-01T16:15:46.000Z</time>
      </trkpt>
      <trkpt lat="47.4944" lon="6.79153">
        <ele>322</ele>
        <time>2016-10-01T16:15:47.000Z</time>
      </trkpt>
      <trkpt lat="47.49443" lon="6.79159">
        <ele>322</ele>
        <time>2016-10-01T16:15:48.000Z</time>
      </trkpt>
      <trkpt lat="47.49447" lon="6.79164">
        <ele>322</ele>
        <time>2016-10-01T16:15:49.000Z</time>
      </trkpt>
      <trkpt lat="47.49453" lon="6.79169">
        <ele>321</ele>
        <time>2016-10-01T16:15:50.000Z</time>
      </trkpt>
      <trkpt lat="47.49459" lon="6.7917">
        <ele>321</ele>
        <time>2016-10-01T16:15:51.000Z</time>
      </trkpt>
      <trkpt lat="47.49465" lon="6.79172">
        <ele>321</ele>
        <time>2016-10-01T16:15:52.000Z</time>
      </trkpt>
      <trkpt lat="47.4947" lon="6.79173">
        <ele>321</ele>
        <time>2016-10-01T16:15:53.000Z</time>
      </trkpt>
      <trkpt lat="47.49475" lon="6.79176">
        <ele>321</ele>
        <time>2016-10-01T16:15:54.000Z</time>
      </trkpt>
      <trkpt lat="47.49479" lon="6.79177">
        <ele>321</ele>
        <time>2016-10-01T16:15:55.000Z</time>
      </trkpt>
      <trkpt lat="47.49483" lon="6.79179">
        <ele>321</ele>
        <time>2016-10-01T16:15:56.000Z</time>
      </trkpt>
      <trkpt lat="47.49488" lon="6.79179">
        <ele>321</ele>
        <time>2016-10-01T16:15:57.000Z</time>
      </trkpt>
      <trkpt lat="47.49492" lon="6.79178">
        <ele>321</ele>
        <time>2016-10-01T16:15:58.000Z</time>
      </trkpt>
      <trkpt lat="47.49498" lon="6.79177">
        <ele>321</ele>
        <time>2016-10-01T16:15:59.000Z</time>
      </trkpt>
      <trkpt lat="47.49502" lon="6.79176">
        <ele>322</ele>
        <time>2016-10-01T16:16:00.000Z</time>
      </trkpt>
      <trkpt lat="47.49506" lon="6.79172">
        <ele>322</ele>
        <time>2016-10-01T16:16:01.000Z</time>
      </trkpt>
      <trkpt lat="47.4951" lon="6.79168">
        <ele>322</ele>
        <time>2016-10-01T16:16:02.000Z</time>
      </trkpt>
      <trkpt lat="47.49513" lon="6.79165">
        <ele>323</ele>
        <time>2016-10-01T16:16:03.000Z</time>
      </trkpt>
      <trkpt lat="47.49516" lon="6.79162">
        <ele>324</ele>
        <time>2016-10-01T16:16:04.000Z</time>
      </trkpt>
      <trkpt lat="47.4952" lon="6.79158">
        <ele>324</ele>
        <time>2016-10-01T16:16:05.000Z</time>
      </trkpt>
      <trkpt lat="47.49524" lon="6.79154">
        <ele>325</ele>
        <time>2016-10-01T16:16:06.000Z</time>
      </trkpt>
      <trkpt lat="47.49528" lon="6.79151">
        <ele>325</ele>
        <time>2016-10-01T16:16:07.000Z</time>
      </trkpt>
      <trkpt lat="47.49532" lon="6.79148">
        <ele>326</ele>
        <time>2016-10-01T16:16:08.000Z</time>
      </trkpt>
      <trkpt lat="47.49535" lon="6.79146">
        <ele>326</ele>
        <time>2016-10-01T16:16:09.000Z</time>
      </trkpt>
      <trkpt lat="47.49537" lon="6.79144">
        <ele>326</ele>
        <time>2016-10-01T16:16:10.000Z</time>
      </trkpt>
      <trkpt lat="47.49539" lon="6.79143">
        <ele>326</ele>
        <time>2016-10-01T16:16:11.000Z</time>
      </trkpt>
      <trkpt lat="47.49543" lon="6.79142">
        <ele>326</ele>
        <time>2016-10-01T16:16:12.000Z</time>
      </trkpt>
      <trkpt lat="47.49547" lon="6.79141">
        <ele>327</ele>
        <time>2016-10-01T16:16:13.000Z</time>
      </trkpt>
      <trkpt lat="47.4955" lon="6.79141">
        <ele>327</ele>
        <time>2016-10-01T16:16:14.000Z</time>
      </trkpt>
      <trkpt lat="47.49555" lon="6.79142">
        <ele>327</ele>
        <time>2016-10-01T16:16:15.000Z</time>
      </trkpt>
      <trkpt lat="47.49558" lon="6.79142">
        <ele>327</ele>
        <time>2016-10-01T16:16:16.000Z</time>
      </trkpt>
      <trkpt lat="47.49562" lon="6.79143">
        <ele>327</ele>
        <time>2016-10-01T16:16:17.000Z</time>
      </trkpt>
      <trkpt lat="47.49565" lon="6.79144">
        <ele>327</ele>
        <time>2016-10-01T16:16:18.000Z</time>
      </trkpt>
      <trkpt lat="47.49568" lon="6.79146">
        <ele>327</ele>
        <time>2016-10-01T16:16:19.000Z</time>
      </trkpt>
      <trkpt lat="47.49571" lon="6.79147">
        <ele>327</ele>
        <time>2016-10-01T16:16:20.000Z</time>
      </trkpt>
      <trkpt lat="47.49574" lon="6.79149">
        <ele>327</ele>
        <time>2016-10-01T16:16:21.000Z</time>
      </trkpt>
      <trkpt lat="47.49577" lon="6.79152">
        <ele>327</ele>
        <time>2016-10-01T16:16:22.000Z</time>
      </trkpt>
      <trkpt lat="47.49579" lon="6.79157">
        <ele>326</ele>
        <time>2016-10-01T16:16:23.000Z</time>
      </trkpt>
      <trkpt lat="47.49581" lon="6.79161">
        <ele>326</ele>
        <time>2016-10-01T16:16:24.000Z</time>
      </trkpt>
      <trkpt lat="47.49584" lon="6.79166">
        <ele>326</ele>
        <time>2016-10-01T16:16:24.999Z</time>
      </trkpt>
      <trkpt lat="47.49585" lon="6.7917">
        <ele>327</ele>
        <time>2016-10-01T16:16:26.000Z</time>
      </trkpt>
      <trkpt lat="47.49587" lon="6.79173">
        <ele>327</ele>
        <time>2016-10-01T16:16:27.000Z</time>
      </trkpt>
      <trkpt lat="47.49589" lon="6.79176">
        <ele>328</ele>
        <time>2016-10-01T16:16:28.000Z</time>
      </trkpt>
      <trkpt lat="47.49591" lon="6.79179">
        <ele>328</ele>
        <time>2016-10-01T16:16:29.000Z</time>
      </trkpt>
      <trkpt lat="47.49594" lon="6.79182">
        <ele>328</ele>
        <time>2016-10-01T16:16:30.001Z</time>
      </trkpt>
      <trkpt lat="47.49596" lon="6.79185">
        <ele>328</ele>
        <time>2016-10-01T16:16:31.000Z</time>
      </trkpt>
      <trkpt lat="47.49598" lon="6.79188">
        <ele>329</ele>
        <time>2016-10-01T16:16:32.000Z</time>
      </trkpt>
      <trkpt lat="47.49599" lon="6.79192">
        <ele>329</ele>
        <time>2016-10-01T16:16:33.000Z</time>
      </trkpt>
      <trkpt lat="47.49601" lon="6.79196">
        <ele>329</ele>
        <time>2016-10-01T16:16:34.000Z</time>
      </trkpt>
      <trkpt lat="47.49602" lon="6.792">
        <ele>329</ele>
        <time>2016-10-01T16:16:35.000Z</time>
      </trkpt>
      <trkpt lat="47.49604" lon="6.79204">
        <ele>329</ele>
        <time>2016-10-01T16:16:36.000Z</time>
      </trkpt>
      <trkpt lat="47.49606" lon="6.79207">
        <ele>329</ele>
        <time>2016-10-01T16:16:37.000Z</time>
      </trkpt>
      <trkpt lat="47.49609" lon="6.7921">
        <ele>329</ele>
        <time>2016-10-01T16:16:38.000Z</time>
      </trkpt>
      <trkpt lat="47.49611" lon="6.79213">
        <ele>329</ele>
        <time>2016-10-01T16:16:39.000Z</time>
      </trkpt>
      <trkpt lat="47.49613" lon="6.79215">
        <ele>329</ele>
        <time>2016-10-01T16:16:40.000Z</time>
      </trkpt>
      <trkpt lat="47.49616" lon="6.79217">
        <ele>330</ele>
        <time>2016-10-01T16:16:41.000Z</time>
      </trkpt>
      <trkpt lat="47.49619" lon="6.79219">
        <ele>330</ele>
        <time>2016-10-01T16:16:42.000Z</time>
      </trkpt>
      <trkpt lat="47.49622" lon="6.79219">
        <ele>330</ele>
        <time>2016-10-01T16:16:43.000Z</time>
      </trkpt>
      <trkpt lat="47.49626" lon="6.7922">
        <ele>330</ele>
        <time>2016-10-01T16:16:44.000Z</time>
      </trkpt>
      <trkpt lat="47.49629" lon="6.7922">
        <ele>330</ele>
        <time>2016-10-01T16:16:45.000Z</time>
      </trkpt>
      <trkpt lat="47.49633" lon="6.79221">
        <ele>331</ele>
        <time>2016-10-01T16:16:46.000Z</time>
      </trkpt>
      <trkpt lat="47.49637" lon="6.79221">
        <ele>331</ele>
        <time>2016-10-01T16:16:47.000Z</time>
      </trkpt>
      <trkpt lat="47.4964" lon="6.79221">
        <ele>331</ele>
        <time>2016-10-01T16:16:48.000Z</time>
      </trkpt>
      <trkpt lat="47.49644" lon="6.7922">
        <ele>331</ele>
        <time>2016-10-01T16:16:49.000Z</time>
      </trkpt>
      <trkpt lat="47.49647" lon="6.79218">
        <ele>331</ele>
        <time>2016-10-01T16:16:50.000Z</time>
      </trkpt>
      <trkpt lat="47.4965" lon="6.79216">
        <ele>332</ele>
        <time>2016-10-01T16:16:51.000Z</time>
      </trkpt>
      <trkpt lat="47.49652" lon="6.79213">
        <ele>332</ele>
        <time>2016-10-01T16:16:52.000Z</time>
      </trkpt>
      <trkpt lat="47.49654" lon="6.79211">
        <ele>332</ele>
        <time>2016-10-01T16:16:53.000Z</time>
      </trkpt>
      <trkpt lat="47.49654" lon="6.79206">
        <ele>332</ele>
        <time>2016-10-01T16:16:59.001Z</time>
      </trkpt>
      <trkpt lat="47.49651" lon="6.79203">
        <ele>332</ele>
        <time>2016-10-01T16:17:00.000Z</time>
      </trkpt>
      <trkpt lat="47.49649" lon="6.792">
        <ele>332</ele>
        <time>2016-10-01T16:17:01.000Z</time>
      </trkpt>
      <trkpt lat="47.49648" lon="6.79195">
        <ele>332</ele>
        <time>2016-10-01T16:17:02.000Z</time>
      </trkpt>
      <trkpt lat="47.49647" lon="6.79192">
        <ele>332</ele>
        <time>2016-10-01T16:17:03.000Z</time>
      </trkpt>
      <trkpt lat="47.49645" lon="6.79188">
        <ele>332</ele>
        <time>2016-10-01T16:17:03.999Z</time>
      </trkpt>
      <trkpt lat="47.49643" lon="6.79184">
        <ele>332</ele>
        <time>2016-10-01T16:17:05.000Z</time>
      </trkpt>
      <trkpt lat="47.49642" lon="6.79181">
        <ele>332</ele>
        <time>2016-10-01T16:17:06.000Z</time>
      </trkpt>
      <trkpt lat="47.49643" lon="6.79176">
        <ele>332</ele>
        <time>2016-10-01T16:17:07.999Z</time>
      </trkpt>
      <trkpt lat="47.49643" lon="6.79171">
        <ele>333</ele>
        <time>2016-10-01T16:17:09.000Z</time>
      </trkpt>
      <trkpt lat="47.49642" lon="6.79168">
        <ele>333</ele>
        <time>2016-10-01T16:17:10.000Z</time>
      </trkpt>
      <trkpt lat="47.49641" lon="6.79166">
        <ele>335</ele>
        <time>2016-10-01T16:17:11.000Z</time>
      </trkpt>
      <trkpt lat="47.49638" lon="6.79163">
        <ele>335</ele>
        <time>2016-10-01T16:17:12.000Z</time>
      </trkpt>
      <trkpt lat="47.49635" lon="6.79161">
        <ele>334</ele>
        <time>2016-10-01T16:17:13.000Z</time>
      </trkpt>
      <trkpt lat="47.49632" lon="6.7916">
        <ele>334</ele>
        <time>2016-10-01T16:17:14.000Z</time>
      </trkpt>
      <trkpt lat="47.49627" lon="6.79155">
        <ele>334</ele>
        <time>2016-10-01T16:17:15.000Z</time>
      </trkpt>
      <trkpt lat="47.49623" lon="6.79152">
        <ele>334</ele>
        <time>2016-10-01T16:17:16.000Z</time>
      </trkpt>
      <trkpt lat="47.49621" lon="6.79148">
        <ele>334</ele>
        <time>2016-10-01T16:17:17.000Z</time>
      </trkpt>
      <trkpt lat="47.49619" lon="6.79145">
        <ele>334</ele>
        <time>2016-10-01T16:17:17.999Z</time>
      </trkpt>
      <trkpt lat="47.49617" lon="6.79139">
        <ele>334</ele>
        <time>2016-10-01T16:17:19.000Z</time>
      </trkpt>
      <trkpt lat="47.49615" lon="6.79137">
        <ele>334</ele>
        <time>2016-10-01T16:17:20.000Z</time>
      </trkpt>
      <trkpt lat="47.49613" lon="6.79135">
        <ele>334</ele>
        <time>2016-10-01T16:17:21.000Z</time>
      </trkpt>
      <trkpt lat="47.49611" lon="6.79134">
        <ele>334</ele>
        <time>2016-10-01T16:17:22.000Z</time>
      </trkpt>
      <trkpt lat="47.49608" lon="6.79133">
        <ele>333</ele>
        <time>2016-10-01T16:17:23.000Z</time>
      </trkpt>
      <trkpt lat="47.49606" lon="6.79131">
        <ele>334</ele>
        <time>2016-10-01T16:17:23.999Z</time>
      </trkpt>
      <trkpt lat="47.49604" lon="6.79128">
        <ele>334</ele>
        <time>2016-10-01T16:17:25.000Z</time>
      </trkpt>
      <trkpt lat="47.49603" lon="6.79124">
        <ele>334</ele>
        <time>2016-10-01T16:17:26.000Z</time>
      </trkpt>
      <trkpt lat="47.49603" lon="6.79121">
        <ele>334</ele>
        <time>2016-10-01T16:17:27.000Z</time>
      </trkpt>
      <trkpt lat="47.49604" lon="6.79116">
        <ele>334</ele>
        <time>2016-10-01T16:17:29.000Z</time>
      </trkpt>
      <trkpt lat="47.49605" lon="6.79111">
        <ele>334</ele>
        <time>2016-10-01T16:17:30.000Z</time>
      </trkpt>
      <trkpt lat="47.49605" lon="6.79105">
        <ele>335</ele>
        <time>2016-10-01T16:17:32.000Z</time>
      </trkpt>
      <trkpt lat="47.49605" lon="6.79103">
        <ele>335</ele>
        <time>2016-10-01T16:17:33.000Z</time>
      </trkpt>
      <trkpt lat="47.49606" lon="6.79099">
        <ele>335</ele>
        <time>2016-10-01T16:17:35.000Z</time>
      </trkpt>
      <trkpt lat="47.49607" lon="6.79097">
        <ele>335</ele>
        <time>2016-10-01T16:17:36.000Z</time>
      </trkpt>
      <trkpt lat="47.49611" lon="6.79093">
        <ele>335</ele>
        <time>2016-10-01T16:17:40.000Z</time>
      </trkpt>
      <trkpt lat="47.49612" lon="6.79092">
        <ele>335</ele>
        <time>2016-10-01T16:17:41.000Z</time>
      </trkpt>
      <trkpt lat="47.49615" lon="6.79091">
        <ele>335</ele>
        <time>2016-10-01T16:17:44.000Z</time>
      </trkpt>
      <trkpt lat="47.49616" lon="6.79091">
        <ele>335</ele>
        <time>2016-10-01T16:17:45.000Z</time>
      </trkpt>
      <trkpt lat="47.49621" lon="6.79092">
        <ele>336</ele>
        <time>2016-10-01T16:17:48.000Z</time>
      </trkpt>
      <trkpt lat="47.49622" lon="6.79093">
        <ele>336</ele>
        <time>2016-10-01T16:17:49.000Z</time>
      </trkpt>
      <trkpt lat="47.49626" lon="6.79093">
        <ele>336</ele>
        <time>2016-10-01T16:17:52.000Z</time>
      </trkpt>
      <trkpt lat="47.49628" lon="6.79094">
        <ele>336</ele>
        <time>2016-10-01T16:17:53.000Z</time>
      </trkpt>
      <trkpt lat="47.49631" lon="6.79097">
        <ele>336</ele>
        <time>2016-10-01T16:17:54.000Z</time>
      </trkpt>
      <trkpt lat="47.49634" lon="6.79101">
        <ele>336</ele>
        <time>2016-10-01T16:17:55.000Z</time>
      </trkpt>
      <trkpt lat="47.49637" lon="6.79106">
        <ele>336</ele>
        <time>2016-10-01T16:17:56.000Z</time>
      </trkpt>
      <trkpt lat="47.49639" lon="6.79111">
        <ele>336</ele>
        <time>2016-10-01T16:17:57.001Z</time>
      </trkpt>
      <trkpt lat="47.49643" lon="6.79118">
        <ele>336</ele>
        <time>2016-10-01T16:17:57.999Z</time>
      </trkpt>
      <trkpt lat="47.49646" lon="6.79123">
        <ele>336</ele>
        <time>2016-10-01T16:17:59.000Z</time>
      </trkpt>
      <trkpt lat="47.49648" lon="6.79127">
        <ele>336</ele>
        <time>2016-10-01T16:18:00.000Z</time>
      </trkpt>
      <trkpt lat="47.49651" lon="6.7913">
        <ele>336</ele>
        <time>2016-10-01T16:18:01.000Z</time>
      </trkpt>
      <trkpt lat="47.49654" lon="6.79133">
        <ele>336</ele>
        <time>2016-10-01T16:18:02.000Z</time>
      </trkpt>
      <trkpt lat="47.49657" lon="6.79136">
        <ele>336</ele>
        <time>2016-10-01T16:18:03.000Z</time>
      </trkpt>
      <trkpt lat="47.49659" lon="6.79139">
        <ele>336</ele>
        <time>2016-10-01T16:18:04.000Z</time>
      </trkpt>
      <trkpt lat="47.49662" lon="6.79143">
        <ele>336</ele>
        <time>2016-10-01T16:18:05.000Z</time>
      </trkpt>
      <trkpt lat="47.49666" lon="6.79148">
        <ele>336</ele>
        <time>2016-10-01T16:18:06.000Z</time>
      </trkpt>
      <trkpt lat="47.49669" lon="6.79152">
        <ele>339</ele>
        <time>2016-10-01T16:18:07.000Z</time>
      </trkpt>
      <trkpt lat="47.49673" lon="6.79155">
        <ele>339</ele>
        <time>2016-10-01T16:18:08.000Z</time>
      </trkpt>
      <trkpt lat="47.49676" lon="6.79158">
        <ele>339</ele>
        <time>2016-10-01T16:18:09.000Z</time>
      </trkpt>
      <trkpt lat="47.49679" lon="6.79162">
        <ele>339</ele>
        <time>2016-10-01T16:18:10.000Z</time>
      </trkpt>
      <trkpt lat="47.49682" lon="6.79165">
        <ele>339</ele>
        <time>2016-10-01T16:18:11.000Z</time>
      </trkpt>
      <trkpt lat="47.49684" lon="6.79168">
        <ele>338</ele>
        <time>2016-10-01T16:18:12.000Z</time>
      </trkpt>
      <trkpt lat="47.49686" lon="6.79171">
        <ele>338</ele>
        <time>2016-10-01T16:18:13.000Z</time>
      </trkpt>
      <trkpt lat="47.49689" lon="6.79175">
        <ele>339</ele>
        <time>2016-10-01T16:18:15.000Z</time>
      </trkpt>
      <trkpt lat="47.49691" lon="6.79176">
        <ele>339</ele>
        <time>2016-10-01T16:18:16.000Z</time>
      </trkpt>
      <trkpt lat="47.49694" lon="6.79178">
        <ele>339</ele>
        <time>2016-10-01T16:18:17.000Z</time>
      </trkpt>
      <trkpt lat="47.49697" lon="6.79177">
        <ele>339</ele>
        <time>2016-10-01T16:18:18.000Z</time>
      </trkpt>
      <trkpt lat="47.497" lon="6.79175">
        <ele>339</ele>
        <time>2016-10-01T16:18:19.000Z</time>
      </trkpt>
      <trkpt lat="47.49703" lon="6.79172">
        <ele>340</ele>
        <time>2016-10-01T16:18:20.000Z</time>
      </trkpt>
      <trkpt lat="47.49706" lon="6.79168">
        <ele>340</ele>
        <time>2016-10-01T16:18:21.000Z</time>
      </trkpt>
      <trkpt lat="47.49708" lon="6.79164">
        <ele>342</ele>
        <time>2016-10-01T16:18:22.000Z</time>
      </trkpt>
      <trkpt lat="47.49711" lon="6.79159">
        <ele>342</ele>
        <time>2016-10-01T16:18:23.000Z</time>
      </trkpt>
      <trkpt lat="47.49713" lon="6.79156">
        <ele>342</ele>
        <time>2016-10-01T16:18:24.000Z</time>
      </trkpt>
      <trkpt lat="47.49715" lon="6.79151">
        <ele>342</ele>
        <time>2016-10-01T16:18:25.000Z</time>
      </trkpt>
      <trkpt lat="47.49718" lon="6.79147">
        <ele>342</ele>
        <time>2016-10-01T16:18:26.000Z</time>
      </trkpt>
      <trkpt lat="47.49721" lon="6.79142">
        <ele>343</ele>
        <time>2016-10-01T16:18:27.000Z</time>
      </trkpt>
      <trkpt lat="47.49724" lon="6.79137">
        <ele>343</ele>
        <time>2016-10-01T16:18:28.000Z</time>
      </trkpt>
      <trkpt lat="47.49727" lon="6.79133">
        <ele>343</ele>
        <time>2016-10-01T16:18:29.000Z</time>
      </trkpt>
      <trkpt lat="47.4973" lon="6.79128">
        <ele>343</ele>
        <time>2016-10-01T16:18:30.000Z</time>
      </trkpt>
      <trkpt lat="47.49733" lon="6.79124">
        <ele>343</ele>
        <time>2016-10-01T16:18:31.000Z</time>
      </trkpt>
      <trkpt lat="47.49735" lon="6.7912">
        <ele>343</ele>
        <time>2016-10-01T16:18:32.000Z</time>
      </trkpt>
      <trkpt lat="47.49737" lon="6.79116">
        <ele>343</ele>
        <time>2016-10-01T16:18:33.000Z</time>
      </trkpt>
      <trkpt lat="47.49739" lon="6.79111">
        <ele>344</ele>
        <time>2016-10-01T16:18:34.000Z</time>
      </trkpt>
      <trkpt lat="47.49741" lon="6.79107">
        <ele>344</ele>
        <time>2016-10-01T16:18:35.000Z</time>
      </trkpt>
      <trkpt lat="47.49743" lon="6.79102">
        <ele>344</ele>
        <time>2016-10-01T16:18:36.000Z</time>
      </trkpt>
      <trkpt lat="47.49745" lon="6.79098">
        <ele>344</ele>
        <time>2016-10-01T16:18:37.000Z</time>
      </trkpt>
      <trkpt lat="47.49747" lon="6.79094">
        <ele>345</ele>
        <time>2016-10-01T16:18:38.000Z</time>
      </trkpt>
      <trkpt lat="47.4975" lon="6.7909">
        <ele>345</ele>
        <time>2016-10-01T16:18:39.000Z</time>
      </trkpt>
      <trkpt lat="47.49753" lon="6.79087">
        <ele>346</ele>
        <time>2016-10-01T16:18:40.000Z</time>
      </trkpt>
      <trkpt lat="47.49756" lon="6.79084">
        <ele>346</ele>
        <time>2016-10-01T16:18:41.000Z</time>
      </trkpt>
      <trkpt lat="47.4976" lon="6.79081">
        <ele>346</ele>
        <time>2016-10-01T16:18:42.000Z</time>
      </trkpt>
      <trkpt lat="47.49767" lon="6.79076">
        <ele>346</ele>
        <time>2016-10-01T16:18:43.000Z</time>
      </trkpt>
      <trkpt lat="47.4977" lon="6.79073">
        <ele>346</ele>
        <time>2016-10-01T16:18:44.000Z</time>
      </trkpt>
      <trkpt lat="47.49772" lon="6.7907">
        <ele>346</ele>
        <time>2016-10-01T16:18:45.000Z</time>
      </trkpt>
      <trkpt lat="47.49775" lon="6.79068">
        <ele>347</ele>
        <time>2016-10-01T16:18:46.000Z</time>
      </trkpt>
      <trkpt lat="47.49776" lon="6.79064">
        <ele>347</ele>
        <time>2016-10-01T16:18:47.000Z</time>
      </trkpt>
      <trkpt lat="47.4978" lon="6.79063">
        <ele>347</ele>
        <time>2016-10-01T16:18:49.000Z</time>
      </trkpt>
      <trkpt lat="47.49784" lon="6.79059">
        <ele>347</ele>
        <time>2016-10-01T16:18:50.000Z</time>
      </trkpt>
      <trkpt lat="47.49788" lon="6.79055">
        <ele>347</ele>
        <time>2016-10-01T16:18:51.000Z</time>
      </trkpt>
      <trkpt lat="47.49791" lon="6.79052">
        <ele>347</ele>
        <time>2016-10-01T16:18:52.000Z</time>
      </trkpt>
      <trkpt lat="47.49795" lon="6.7905">
        <ele>347</ele>
        <time>2016-10-01T16:18:53.000Z</time>
      </trkpt>
      <trkpt lat="47.49799" lon="6.79048">
        <ele>347</ele>
        <time>2016-10-01T16:18:54.000Z</time>
      </trkpt>
      <trkpt lat="47.49802" lon="6.79046">
        <ele>347</ele>
        <time>2016-10-01T16:18:55.000Z</time>
      </trkpt>
      <trkpt lat="47.49805" lon="6.79044">
        <ele>347</ele>
        <time>2016-10-01T16:18:56.000Z</time>
      </trkpt>
      <trkpt lat="47.49808" lon="6.79041">
        <ele>347</ele>
        <time>2016-10-01T16:18:57.000Z</time>
      </trkpt>
      <trkpt lat="47.49812" lon="6.79039">
        <ele>347</ele>
        <time>2016-10-01T16:18:58.000Z</time>
      </trkpt>
      <trkpt lat="47.49814" lon="6.79038">
        <ele>347</ele>
        <time>2016-10-01T16:18:59.000Z</time>
      </trkpt>
      <trkpt lat="47.49817" lon="6.79036">
        <ele>347</ele>
        <time>2016-10-01T16:19:00.000Z</time>
      </trkpt>
      <trkpt lat="47.4982" lon="6.79034">
        <ele>347</ele>
        <time>2016-10-01T16:19:01.000Z</time>
      </trkpt>
      <trkpt lat="47.49823" lon="6.79032">
        <ele>347</ele>
        <time>2016-10-01T16:19:02.000Z</time>
      </trkpt>
      <trkpt lat="47.49825" lon="6.7903">
        <ele>347</ele>
        <time>2016-10-01T16:19:03.000Z</time>
      </trkpt>
      <trkpt lat="47.49826" lon="6.79027">
        <ele>347</ele>
        <time>2016-10-01T16:19:04.000Z</time>
      </trkpt>
      <trkpt lat="47.49828" lon="6.79023">
        <ele>347</ele>
        <time>2016-10-01T16:19:05.000Z</time>
      </trkpt>
      <trkpt lat="47.49829" lon="6.79021">
        <ele>347</ele>
        <time>2016-10-01T16:19:06.001Z</time>
      </trkpt>
      <trkpt lat="47.49828" lon="6.79015">
        <ele>347</ele>
        <time>2016-10-01T16:19:08.000Z</time>
      </trkpt>
      <trkpt lat="47.49827" lon="6.79013">
        <ele>347</ele>
        <time>2016-10-01T16:19:09.000Z</time>
      </trkpt>
      <trkpt lat="47.49825" lon="6.79009">
        <ele>347</ele>
        <time>2016-10-01T16:19:11.001Z</time>
      </trkpt>
      <trkpt lat="47.49823" lon="6.79008">
        <ele>347</ele>
        <time>2016-10-01T16:19:12.000Z</time>
      </trkpt>
      <trkpt lat="47.49819" lon="6.79004">
        <ele>347</ele>
        <time>2016-10-01T16:19:25.000Z</time>
      </trkpt>
      <trkpt lat="47.49819" lon="6.79004">
        <ele>347</ele>
        <time>2016-10-01T16:19:26.000Z</time>
      </trkpt>
      <trkpt lat="47.49822" lon="6.79008">
        <ele>347</ele>
        <time>2016-10-01T16:20:08.000Z</time>
      </trkpt>
      <trkpt lat="47.49823" lon="6.7901">
        <ele>347</ele>
        <time>2016-10-01T16:20:09.001Z</time>
      </trkpt>
      <trkpt lat="47.49825" lon="6.79015">
        <ele>347</ele>
        <time>2016-10-01T16:20:11.000Z</time>
      </trkpt>
      <trkpt lat="47.49826" lon="6.79017">
        <ele>347</ele>
        <time>2016-10-01T16:20:12.000Z</time>
      </trkpt>
      <trkpt lat="47.4983" lon="6.79018">
        <ele>347</ele>
        <time>2016-10-01T16:20:14.000Z</time>
      </trkpt>
      <trkpt lat="47.49831" lon="6.7902">
        <ele>347</ele>
        <time>2016-10-01T16:20:14.999Z</time>
      </trkpt>
      <trkpt lat="47.49838" lon="6.79013">
        <ele>346</ele>
        <time>2016-10-01T16:20:16.000Z</time>
      </trkpt>
      <trkpt lat="47.49844" lon="6.79012">
        <ele>346</ele>
        <time>2016-10-01T16:20:17.000Z</time>
      </trkpt>
      <trkpt lat="47.49848" lon="6.79012">
        <ele>346</ele>
        <time>2016-10-01T16:20:18.000Z</time>
      </trkpt>
      <trkpt lat="47.49853" lon="6.7901">
        <ele>346</ele>
        <time>2016-10-01T16:20:19.000Z</time>
      </trkpt>
      <trkpt lat="47.49856" lon="6.79008">
        <ele>346</ele>
        <time>2016-10-01T16:20:20.000Z</time>
      </trkpt>
      <trkpt lat="47.4986" lon="6.79005">
        <ele>346</ele>
        <time>2016-10-01T16:20:21.000Z</time>
      </trkpt>
      <trkpt lat="47.49864" lon="6.79003">
        <ele>346</ele>
        <time>2016-10-01T16:20:22.000Z</time>
      </trkpt>
      <trkpt lat="47.49868" lon="6.79">
        <ele>346</ele>
        <time>2016-10-01T16:20:23.000Z</time>
      </trkpt>
      <trkpt lat="47.49871" lon="6.78998">
        <ele>346</ele>
        <time>2016-10-01T16:20:24.000Z</time>
      </trkpt>
      <trkpt lat="47.49875" lon="6.78996">
        <ele>346</ele>
        <time>2016-10-01T16:20:25.000Z</time>
      </trkpt>
      <trkpt lat="47.49878" lon="6.78993">
        <ele>345</ele>
        <time>2016-10-01T16:20:26.000Z</time>
      </trkpt>
      <trkpt lat="47.49882" lon="6.78991">
        <ele>345</ele>
        <time>2016-10-01T16:20:27.000Z</time>
      </trkpt>
      <trkpt lat="47.49886" lon="6.78988">
        <ele>345</ele>
        <time>2016-10-01T16:20:28.000Z</time>
      </trkpt>
      <trkpt lat="47.4989" lon="6.78984">
        <ele>345</ele>
        <time>2016-10-01T16:20:29.000Z</time>
      </trkpt>
      <trkpt lat="47.49893" lon="6.7898">
        <ele>345</ele>
        <time>2016-10-01T16:20:30.000Z</time>
      </trkpt>
      <trkpt lat="47.49897" lon="6.78977">
        <ele>345</ele>
        <time>2016-10-01T16:20:31.000Z</time>
      </trkpt>
      <trkpt lat="47.499" lon="6.78974">
        <ele>345</ele>
        <time>2016-10-01T16:20:32.000Z</time>
      </trkpt>
      <trkpt lat="47.49904" lon="6.7897">
        <ele>345</ele>
        <time>2016-10-01T16:20:33.000Z</time>
      </trkpt>
      <trkpt lat="47.49908" lon="6.78966">
        <ele>345</ele>
        <time>2016-10-01T16:20:34.000Z</time>
      </trkpt>
      <trkpt lat="47.49911" lon="6.78963">
        <ele>345</ele>
        <time>2016-10-01T16:20:35.000Z</time>
      </trkpt>
      <trkpt lat="47.49914" lon="6.78957">
        <ele>345</ele>
        <time>2016-10-01T16:20:36.000Z</time>
      </trkpt>
      <trkpt lat="47.49917" lon="6.78952">
        <ele>343</ele>
        <time>2016-10-01T16:20:37.000Z</time>
      </trkpt>
      <trkpt lat="47.4992" lon="6.78945">
        <ele>342</ele>
        <time>2016-10-01T16:20:38.000Z</time>
      </trkpt>
      <trkpt lat="47.49922" lon="6.78941">
        <ele>342</ele>
        <time>2016-10-01T16:20:39.000Z</time>
      </trkpt>
      <trkpt lat="47.49925" lon="6.78936">
        <ele>342</ele>
        <time>2016-10-01T16:20:40.000Z</time>
      </trkpt>
      <trkpt lat="47.49927" lon="6.78933">
        <ele>342</ele>
        <time>2016-10-01T16:20:41.000Z</time>
      </trkpt>
      <trkpt lat="47.49931" lon="6.78931">
        <ele>342</ele>
        <time>2016-10-01T16:20:42.000Z</time>
      </trkpt>
      <trkpt lat="47.49935" lon="6.78931">
        <ele>342</ele>
        <time>2016-10-01T16:20:42.999Z</time>
      </trkpt>
      <trkpt lat="47.49941" lon="6.78927">
        <ele>342</ele>
        <time>2016-10-01T16:20:44.000Z</time>
      </trkpt>
      <trkpt lat="47.49945" lon="6.78926">
        <ele>342</ele>
        <time>2016-10-01T16:20:45.000Z</time>
      </trkpt>
      <trkpt lat="47.49952" lon="6.78923">
        <ele>342</ele>
        <time>2016-10-01T16:20:46.000Z</time>
      </trkpt>
      <trkpt lat="47.49958" lon="6.78922">
        <ele>342</ele>
        <time>2016-10-01T16:20:47.000Z</time>
      </trkpt>
      <trkpt lat="47.49963" lon="6.7892">
        <ele>342</ele>
        <time>2016-10-01T16:20:48.000Z</time>
      </trkpt>
      <trkpt lat="47.49969" lon="6.78918">
        <ele>342</ele>
        <time>2016-10-01T16:20:49.000Z</time>
      </trkpt>
      <trkpt lat="47.49975" lon="6.78916">
        <ele>341</ele>
        <time>2016-10-01T16:20:50.000Z</time>
      </trkpt>
      <trkpt lat="47.49981" lon="6.78915">
        <ele>340</ele>
        <time>2016-10-01T16:20:51.000Z</time>
      </trkpt>
      <trkpt lat="47.49988" lon="6.78913">
        <ele>340</ele>
        <time>2016-10-01T16:20:52.000Z</time>
      </trkpt>
      <trkpt lat="47.49995" lon="6.78911">
        <ele>340</ele>
        <time>2016-10-01T16:20:53.000Z</time>
      </trkpt>
      <trkpt lat="47.50003" lon="6.78909">
        <ele>340</ele>
        <time>2016-10-01T16:20:54.000Z</time>
      </trkpt>
      <trkpt lat="47.50011" lon="6.78907">
        <ele>340</ele>
        <time>2016-10-01T16:20:55.000Z</time>
      </trkpt>
      <trkpt lat="47.50018" lon="6.78905">
        <ele>341</ele>
        <time>2016-10-01T16:20:56.000Z</time>
      </trkpt>
      <trkpt lat="47.50025" lon="6.78903">
        <ele>341</ele>
        <time>2016-10-01T16:20:57.000Z</time>
      </trkpt>
      <trkpt lat="47.50032" lon="6.78901">
        <ele>341</ele>
        <time>2016-10-01T16:20:58.000Z</time>
      </trkpt>
      <trkpt lat="47.50038" lon="6.78898">
        <ele>341</ele>
        <time>2016-10-01T16:20:59.000Z</time>
      </trkpt>
      <trkpt lat="47.50043" lon="6.78897">
        <ele>341</ele>
        <time>2016-10-01T16:21:00.000Z</time>
      </trkpt>
      <trkpt lat="47.50048" lon="6.78896">
        <ele>341</ele>
        <time>2016-10-01T16:21:01.000Z</time>
      </trkpt>
      <trkpt lat="47.50053" lon="6.78898">
        <ele>341</ele>
        <time>2016-10-01T16:21:02.000Z</time>
      </trkpt>
      <trkpt lat="47.50058" lon="6.789">
        <ele>341</ele>
        <time>2016-10-01T16:21:03.000Z</time>
      </trkpt>
      <trkpt lat="47.50064" lon="6.78902">
        <ele>341</ele>
        <time>2016-10-01T16:21:04.000Z</time>
      </trkpt>
      <trkpt lat="47.50069" lon="6.78902">
        <ele>341</ele>
        <time>2016-10-01T16:21:05.000Z</time>
      </trkpt>
      <trkpt lat="47.50073" lon="6.78902">
        <ele>342</ele>
        <time>2016-10-01T16:21:06.000Z</time>
      </trkpt>
      <trkpt lat="47.50077" lon="6.78901">
        <ele>342</ele>
        <time>2016-10-01T16:21:07.000Z</time>
      </trkpt>
      <trkpt lat="47.50082" lon="6.78901">
        <ele>342</ele>
        <time>2016-10-01T16:21:08.000Z</time>
      </trkpt>
      <trkpt lat="47.50086" lon="6.78901">
        <ele>342</ele>
        <time>2016-10-01T16:21:09.000Z</time>
      </trkpt>
      <trkpt lat="47.50088" lon="6.78901">
        <ele>342</ele>
        <time>2016-10-01T16:21:10.000Z</time>
      </trkpt>
      <trkpt lat="47.50092" lon="6.78902">
        <ele>342</ele>
        <time>2016-10-01T16:21:11.000Z</time>
      </trkpt>
      <trkpt lat="47.50094" lon="6.78903">
        <ele>342</ele>
        <time>2016-10-01T16:21:12.000Z</time>
      </trkpt>
      <trkpt lat="47.50097" lon="6.78904">
        <ele>342</ele>
        <time>2016-10-01T16:21:13.000Z</time>
      </trkpt>
      <trkpt lat="47.501" lon="6.78903">
        <ele>342</ele>
        <time>2016-10-01T16:21:14.000Z</time>
      </trkpt>
      <trkpt lat="47.50105" lon="6.78902">
        <ele>342</ele>
        <time>2016-10-01T16:21:15.000Z</time>
      </trkpt>
      <trkpt lat="47.50108" lon="6.78903">
        <ele>342</ele>
        <time>2016-10-01T16:21:16.000Z</time>
      </trkpt>
      <trkpt lat="47.50112" lon="6.78904">
        <ele>342</ele>
        <time>2016-10-01T16:21:17.000Z</time>
      </trkpt>
      <trkpt lat="47.50116" lon="6.78905">
        <ele>342</ele>
        <time>2016-10-01T16:21:18.000Z</time>
      </trkpt>
      <trkpt lat="47.50121" lon="6.78908">
        <ele>342</ele>
        <time>2016-10-01T16:21:19.000Z</time>
      </trkpt>
      <trkpt lat="47.50124" lon="6.78906">
        <ele>342</ele>
        <time>2016-10-01T16:21:20.000Z</time>
      </trkpt>
      <trkpt lat="47.50128" lon="6.78906">
        <ele>342</ele>
        <time>2016-10-01T16:21:20.999Z</time>
      </trkpt>
      <trkpt lat="47.50131" lon="6.78905">
        <ele>342</ele>
        <time>2016-10-01T16:21:22.002Z</time>
      </trkpt>
      <trkpt lat="47.50133" lon="6.78906">
        <ele>342</ele>
        <time>2016-10-01T16:21:23.000Z</time>
      </trkpt>
      <trkpt lat="47.50138" lon="6.78909">
        <ele>342</ele>
        <time>2016-10-01T16:21:24.000Z</time>
      </trkpt>
      <trkpt lat="47.5014" lon="6.78912">
        <ele>342</ele>
        <time>2016-10-01T16:21:25.000Z</time>
      </trkpt>
      <trkpt lat="47.50142" lon="6.78917">
        <ele>341</ele>
        <time>2016-10-01T16:21:26.000Z</time>
      </trkpt>
      <trkpt lat="47.50143" lon="6.78921">
        <ele>341</ele>
        <time>2016-10-01T16:21:27.000Z</time>
      </trkpt>
      <trkpt lat="47.50144" lon="6.78927">
        <ele>341</ele>
        <time>2016-10-01T16:21:28.000Z</time>
      </trkpt>
      <trkpt lat="47.50144" lon="6.78935">
        <ele>342</ele>
        <time>2016-10-01T16:21:29.000Z</time>
      </trkpt>
      <trkpt lat="47.50143" lon="6.78942">
        <ele>342</ele>
        <time>2016-10-01T16:21:30.000Z</time>
      </trkpt>
      <trkpt lat="47.50142" lon="6.78948">
        <ele>342</ele>
        <time>2016-10-01T16:21:31.000Z</time>
      </trkpt>
      <trkpt lat="47.50143" lon="6.78954">
        <ele>342</ele>
        <time>2016-10-01T16:21:32.000Z</time>
      </trkpt>
      <trkpt lat="47.50142" lon="6.78961">
        <ele>342</ele>
        <time>2016-10-01T16:21:33.000Z</time>
      </trkpt>
      <trkpt lat="47.50143" lon="6.78969">
        <ele>342</ele>
        <time>2016-10-01T16:21:34.000Z</time>
      </trkpt>
      <trkpt lat="47.50144" lon="6.78975">
        <ele>342</ele>
        <time>2016-10-01T16:21:35.000Z</time>
      </trkpt>
      <trkpt lat="47.50145" lon="6.78981">
        <ele>342</ele>
        <time>2016-10-01T16:21:36.000Z</time>
      </trkpt>
      <trkpt lat="47.50147" lon="6.78987">
        <ele>342</ele>
        <time>2016-10-01T16:21:37.000Z</time>
      </trkpt>
      <trkpt lat="47.50149" lon="6.78992">
        <ele>341</ele>
        <time>2016-10-01T16:21:38.000Z</time>
      </trkpt>
      <trkpt lat="47.50151" lon="6.78998">
        <ele>341</ele>
        <time>2016-10-01T16:21:39.000Z</time>
      </trkpt>
      <trkpt lat="47.50152" lon="6.79004">
        <ele>342</ele>
        <time>2016-10-01T16:21:40.000Z</time>
      </trkpt>
      <trkpt lat="47.50152" lon="6.79009">
        <ele>342</ele>
        <time>2016-10-01T16:21:41.000Z</time>
      </trkpt>
      <trkpt lat="47.50153" lon="6.79014">
        <ele>342</ele>
        <time>2016-10-01T16:21:42.000Z</time>
      </trkpt>
      <trkpt lat="47.50153" lon="6.79018">
        <ele>342</ele>
        <time>2016-10-01T16:21:43.000Z</time>
      </trkpt>
      <trkpt lat="47.50153" lon="6.79023">
        <ele>342</ele>
        <time>2016-10-01T16:21:43.999Z</time>
      </trkpt>
      <trkpt lat="47.50156" lon="6.79033">
        <ele>342</ele>
        <time>2016-10-01T16:21:45.000Z</time>
      </trkpt>
      <trkpt lat="47.50156" lon="6.7904">
        <ele>342</ele>
        <time>2016-10-01T16:21:46.000Z</time>
      </trkpt>
      <trkpt lat="47.50157" lon="6.79047">
        <ele>342</ele>
        <time>2016-10-01T16:21:47.000Z</time>
      </trkpt>
      <trkpt lat="47.50157" lon="6.79053">
        <ele>342</ele>
        <time>2016-10-01T16:21:48.000Z</time>
      </trkpt>
      <trkpt lat="47.50156" lon="6.79057">
        <ele>342</ele>
        <time>2016-10-01T16:21:49.000Z</time>
      </trkpt>
      <trkpt lat="47.50155" lon="6.79064">
        <ele>342</ele>
        <time>2016-10-01T16:21:50.000Z</time>
      </trkpt>
      <trkpt lat="47.50154" lon="6.79073">
        <ele>342</ele>
        <time>2016-10-01T16:21:51.000Z</time>
      </trkpt>
      <trkpt lat="47.50152" lon="6.79078">
        <ele>342</ele>
        <time>2016-10-01T16:21:52.000Z</time>
      </trkpt>
      <trkpt lat="47.50151" lon="6.79084">
        <ele>343</ele>
        <time>2016-10-01T16:21:53.000Z</time>
      </trkpt>
      <trkpt lat="47.50156" lon="6.79094">
        <ele>343</ele>
        <time>2016-10-01T16:21:54.000Z</time>
      </trkpt>
      <trkpt lat="47.50157" lon="6.79101">
        <ele>343</ele>
        <time>2016-10-01T16:21:55.000Z</time>
      </trkpt>
      <trkpt lat="47.50161" lon="6.79106">
        <ele>343</ele>
        <time>2016-10-01T16:21:56.000Z</time>
      </trkpt>
      <trkpt lat="47.50165" lon="6.79109">
        <ele>343</ele>
        <time>2016-10-01T16:21:57.000Z</time>
      </trkpt>
      <trkpt lat="47.50169" lon="6.79112">
        <ele>342</ele>
        <time>2016-10-01T16:21:58.000Z</time>
      </trkpt>
      <trkpt lat="47.50173" lon="6.79115">
        <ele>342</ele>
        <time>2016-10-01T16:21:59.000Z</time>
      </trkpt>
      <trkpt lat="47.50175" lon="6.79117">
        <ele>342</ele>
        <time>2016-10-01T16:22:00.000Z</time>
      </trkpt>
      <trkpt lat="47.50179" lon="6.79121">
        <ele>342</ele>
        <time>2016-10-01T16:22:01.000Z</time>
      </trkpt>
      <trkpt lat="47.50182" lon="6.79124">
        <ele>342</ele>
        <time>2016-10-01T16:22:02.000Z</time>
      </trkpt>
      <trkpt lat="47.50186" lon="6.79125">
        <ele>342</ele>
        <time>2016-10-01T16:22:03.000Z</time>
      </trkpt>
      <trkpt lat="47.50189" lon="6.79129">
        <ele>342</ele>
        <time>2016-10-01T16:22:04.000Z</time>
      </trkpt>
      <trkpt lat="47.50193" lon="6.79131">
        <ele>342</ele>
        <time>2016-10-01T16:22:05.000Z</time>
      </trkpt>
      <trkpt lat="47.50197" lon="6.79133">
        <ele>342</ele>
        <time>2016-10-01T16:22:06.000Z</time>
      </trkpt>
      <trkpt lat="47.502" lon="6.79136">
        <ele>342</ele>
        <time>2016-10-01T16:22:07.000Z</time>
      </trkpt>
      <trkpt lat="47.50203" lon="6.79139">
        <ele>342</ele>
        <time>2016-10-01T16:22:08.000Z</time>
      </trkpt>
      <trkpt lat="47.50206" lon="6.79143">
        <ele>342</ele>
        <time>2016-10-01T16:22:09.000Z</time>
      </trkpt>
      <trkpt lat="47.50209" lon="6.79146">
        <ele>342</ele>
        <time>2016-10-01T16:22:10.000Z</time>
      </trkpt>
      <trkpt lat="47.50212" lon="6.79149">
        <ele>341</ele>
        <time>2016-10-01T16:22:11.000Z</time>
      </trkpt>
      <trkpt lat="47.50215" lon="6.79153">
        <ele>341</ele>
        <time>2016-10-01T16:22:12.000Z</time>
      </trkpt>
      <trkpt lat="47.50218" lon="6.79155">
        <ele>341</ele>
        <time>2016-10-01T16:22:12.999Z</time>
      </trkpt>
      <trkpt lat="47.5022" lon="6.79159">
        <ele>341</ele>
        <time>2016-10-01T16:22:14.000Z</time>
      </trkpt>
      <trkpt lat="47.50223" lon="6.79162">
        <ele>341</ele>
        <time>2016-10-01T16:22:15.000Z</time>
      </trkpt>
      <trkpt lat="47.50225" lon="6.79165">
        <ele>341</ele>
        <time>2016-10-01T16:22:16.000Z</time>
      </trkpt>
      <trkpt lat="47.50229" lon="6.79169">
        <ele>342</ele>
        <time>2016-10-01T16:22:17.000Z</time>
      </trkpt>
      <trkpt lat="47.50232" lon="6.79172">
        <ele>342</ele>
        <time>2016-10-01T16:22:18.000Z</time>
      </trkpt>
      <trkpt lat="47.50236" lon="6.79176">
        <ele>342</ele>
        <time>2016-10-01T16:22:19.000Z</time>
      </trkpt>
      <trkpt lat="47.50239" lon="6.79179">
        <ele>342</ele>
        <time>2016-10-01T16:22:20.000Z</time>
      </trkpt>
      <trkpt lat="47.50242" lon="6.79181">
        <ele>342</ele>
        <time>2016-10-01T16:22:21.000Z</time>
      </trkpt>
      <trkpt lat="47.50246" lon="6.79182">
        <ele>342</ele>
        <time>2016-10-01T16:22:23.000Z</time>
      </trkpt>
      <trkpt lat="47.50247" lon="6.79183">
        <ele>342</ele>
        <time>2016-10-01T16:22:24.000Z</time>
      </trkpt>
      <trkpt lat="47.50251" lon="6.79187">
        <ele>338</ele>
        <time>2016-10-01T16:22:26.000Z</time>
      </trkpt>
      <trkpt lat="47.50253" lon="6.79191">
        <ele>338</ele>
        <time>2016-10-01T16:22:27.000Z</time>
      </trkpt>
      <trkpt lat="47.50256" lon="6.79195">
        <ele>337</ele>
        <time>2016-10-01T16:22:28.000Z</time>
      </trkpt>
      <trkpt lat="47.50258" lon="6.79199">
        <ele>337</ele>
        <time>2016-10-01T16:22:29.000Z</time>
      </trkpt>
      <trkpt lat="47.50261" lon="6.79203">
        <ele>337</ele>
        <time>2016-10-01T16:22:30.000Z</time>
      </trkpt>
      <trkpt lat="47.50263" lon="6.79207">
        <ele>337</ele>
        <time>2016-10-01T16:22:30.998Z</time>
      </trkpt>
      <trkpt lat="47.50266" lon="6.79212">
        <ele>337</ele>
        <time>2016-10-01T16:22:32.000Z</time>
      </trkpt>
      <trkpt lat="47.50269" lon="6.79217">
        <ele>337</ele>
        <time>2016-10-01T16:22:33.000Z</time>
      </trkpt>
      <trkpt lat="47.50271" lon="6.79221">
        <ele>337</ele>
        <time>2016-10-01T16:22:34.000Z</time>
      </trkpt>
      <trkpt lat="47.50274" lon="6.79224">
        <ele>337</ele>
        <time>2016-10-01T16:22:35.000Z</time>
      </trkpt>
      <trkpt lat="47.50279" lon="6.79225">
        <ele>336</ele>
        <time>2016-10-01T16:22:36.000Z</time>
      </trkpt>
      <trkpt lat="47.50281" lon="6.79228">
        <ele>336</ele>
        <time>2016-10-01T16:22:37.000Z</time>
      </trkpt>
      <trkpt lat="47.50284" lon="6.79232">
        <ele>336</ele>
        <time>2016-10-01T16:22:38.000Z</time>
      </trkpt>
      <trkpt lat="47.50286" lon="6.79237">
        <ele>336</ele>
        <time>2016-10-01T16:22:39.000Z</time>
      </trkpt>
      <trkpt lat="47.50289" lon="6.79241">
        <ele>335</ele>
        <time>2016-10-01T16:22:40.000Z</time>
      </trkpt>
      <trkpt lat="47.50291" lon="6.79246">
        <ele>335</ele>
        <time>2016-10-01T16:22:41.000Z</time>
      </trkpt>
      <trkpt lat="47.50291" lon="6.79252">
        <ele>336</ele>
        <time>2016-10-01T16:22:42.000Z</time>
      </trkpt>
      <trkpt lat="47.50292" lon="6.79258">
        <ele>336</ele>
        <time>2016-10-01T16:22:43.000Z</time>
      </trkpt>
      <trkpt lat="47.50295" lon="6.79264">
        <ele>335</ele>
        <time>2016-10-01T16:22:44.000Z</time>
      </trkpt>
      <trkpt lat="47.50298" lon="6.79269">
        <ele>335</ele>
        <time>2016-10-01T16:22:45.000Z</time>
      </trkpt>
      <trkpt lat="47.50301" lon="6.79273">
        <ele>335</ele>
        <time>2016-10-01T16:22:46.000Z</time>
      </trkpt>
      <trkpt lat="47.50305" lon="6.79281">
        <ele>335</ele>
        <time>2016-10-01T16:22:47.000Z</time>
      </trkpt>
      <trkpt lat="47.50307" lon="6.79286">
        <ele>334</ele>
        <time>2016-10-01T16:22:48.000Z</time>
      </trkpt>
      <trkpt lat="47.5031" lon="6.79292">
        <ele>334</ele>
        <time>2016-10-01T16:22:48.999Z</time>
      </trkpt>
      <trkpt lat="47.50313" lon="6.79301">
        <ele>334</ele>
        <time>2016-10-01T16:22:50.000Z</time>
      </trkpt>
      <trkpt lat="47.50316" lon="6.79308">
        <ele>334</ele>
        <time>2016-10-01T16:22:51.000Z</time>
      </trkpt>
      <trkpt lat="47.50319" lon="6.79316">
        <ele>333</ele>
        <time>2016-10-01T16:22:52.000Z</time>
      </trkpt>
      <trkpt lat="47.50323" lon="6.79324">
        <ele>332</ele>
        <time>2016-10-01T16:22:53.000Z</time>
      </trkpt>
      <trkpt lat="47.50326" lon="6.79332">
        <ele>331</ele>
        <time>2016-10-01T16:22:54.000Z</time>
      </trkpt>
      <trkpt lat="47.5033" lon="6.79339">
        <ele>331</ele>
        <time>2016-10-01T16:22:55.000Z</time>
      </trkpt>
      <trkpt lat="47.50332" lon="6.79348">
        <ele>333</ele>
        <time>2016-10-01T16:22:56.000Z</time>
      </trkpt>
      <trkpt lat="47.50335" lon="6.79355">
        <ele>327</ele>
        <time>2016-10-01T16:22:57.000Z</time>
      </trkpt>
      <trkpt lat="47.50337" lon="6.79363">
        <ele>326</ele>
        <time>2016-10-01T16:22:58.000Z</time>
      </trkpt>
      <trkpt lat="47.50339" lon="6.79372">
        <ele>327</ele>
        <time>2016-10-01T16:22:59.000Z</time>
      </trkpt>
      <trkpt lat="47.50341" lon="6.79381">
        <ele>327</ele>
        <time>2016-10-01T16:23:00.000Z</time>
      </trkpt>
      <trkpt lat="47.50345" lon="6.79388">
        <ele>327</ele>
        <time>2016-10-01T16:23:01.000Z</time>
      </trkpt>
      <trkpt lat="47.50347" lon="6.79397">
        <ele>328</ele>
        <time>2016-10-01T16:23:02.000Z</time>
      </trkpt>
      <trkpt lat="47.5035" lon="6.79406">
        <ele>329</ele>
        <time>2016-10-01T16:23:03.000Z</time>
      </trkpt>
      <trkpt lat="47.50352" lon="6.79414">
        <ele>329</ele>
        <time>2016-10-01T16:23:04.000Z</time>
      </trkpt>
      <trkpt lat="47.50355" lon="6.79422">
        <ele>330</ele>
        <time>2016-10-01T16:23:05.000Z</time>
      </trkpt>
      <trkpt lat="47.50359" lon="6.79431">
        <ele>330</ele>
        <time>2016-10-01T16:23:06.000Z</time>
      </trkpt>
      <trkpt lat="47.50362" lon="6.79438">
        <ele>329</ele>
        <time>2016-10-01T16:23:07.000Z</time>
      </trkpt>
      <trkpt lat="47.50365" lon="6.79444">
        <ele>329</ele>
        <time>2016-10-01T16:23:08.000Z</time>
      </trkpt>
      <trkpt lat="47.50369" lon="6.7945">
        <ele>329</ele>
        <time>2016-10-01T16:23:09.000Z</time>
      </trkpt>
      <trkpt lat="47.50373" lon="6.79456">
        <ele>328</ele>
        <time>2016-10-01T16:23:10.000Z</time>
      </trkpt>
      <trkpt lat="47.50377" lon="6.79459">
        <ele>328</ele>
        <time>2016-10-01T16:23:11.000Z</time>
      </trkpt>
      <trkpt lat="47.5038" lon="6.79461">
        <ele>328</ele>
        <time>2016-10-01T16:23:12.000Z</time>
      </trkpt>
      <trkpt lat="47.50384" lon="6.79464">
        <ele>327</ele>
        <time>2016-10-01T16:23:13.000Z</time>
      </trkpt>
      <trkpt lat="47.50389" lon="6.79469">
        <ele>327</ele>
        <time>2016-10-01T16:23:14.000Z</time>
      </trkpt>
      <trkpt lat="47.50394" lon="6.79474">
        <ele>326</ele>
        <time>2016-10-01T16:23:15.000Z</time>
      </trkpt>
      <trkpt lat="47.504" lon="6.7948">
        <ele>326</ele>
        <time>2016-10-01T16:23:16.000Z</time>
      </trkpt>
      <trkpt lat="47.50406" lon="6.79485">
        <ele>325</ele>
        <time>2016-10-01T16:23:17.000Z</time>
      </trkpt>
      <trkpt lat="47.50414" lon="6.79488">
        <ele>324</ele>
        <time>2016-10-01T16:23:18.000Z</time>
      </trkpt>
      <trkpt lat="47.50423" lon="6.79491">
        <ele>320</ele>
        <time>2016-10-01T16:23:19.000Z</time>
      </trkpt>
      <trkpt lat="47.50429" lon="6.79491">
        <ele>319</ele>
        <time>2016-10-01T16:23:20.000Z</time>
      </trkpt>
      <trkpt lat="47.50435" lon="6.79492">
        <ele>319</ele>
        <time>2016-10-01T16:23:21.000Z</time>
      </trkpt>
      <trkpt lat="47.50442" lon="6.79494">
        <ele>318</ele>
        <time>2016-10-01T16:23:22.000Z</time>
      </trkpt>
      <trkpt lat="47.50448" lon="6.79494">
        <ele>318</ele>
        <time>2016-10-01T16:23:23.000Z</time>
      </trkpt>
      <trkpt lat="47.50454" lon="6.79494">
        <ele>318</ele>
        <time>2016-10-01T16:23:24.000Z</time>
      </trkpt>
      <trkpt lat="47.50459" lon="6.79495">
        <ele>318</ele>
        <time>2016-10-01T16:23:25.000Z</time>
      </trkpt>
      <trkpt lat="47.50465" lon="6.79496">
        <ele>317</ele>
        <time>2016-10-01T16:23:26.000Z</time>
      </trkpt>
      <trkpt lat="47.50471" lon="6.79496">
        <ele>317</ele>
        <time>2016-10-01T16:23:27.000Z</time>
      </trkpt>
      <trkpt lat="47.50475" lon="6.79496">
        <ele>317</ele>
        <time>2016-10-01T16:23:28.000Z</time>
      </trkpt>
      <trkpt lat="47.50481" lon="6.79497">
        <ele>317</ele>
        <time>2016-10-01T16:23:29.000Z</time>
      </trkpt>
      <trkpt lat="47.50486" lon="6.79497">
        <ele>317</ele>
        <time>2016-10-01T16:23:30.000Z</time>
      </trkpt>
      <trkpt lat="47.50492" lon="6.79498">
        <ele>316</ele>
        <time>2016-10-01T16:23:31.000Z</time>
      </trkpt>
      <trkpt lat="47.50497" lon="6.79498">
        <ele>316</ele>
        <time>2016-10-01T16:23:32.000Z</time>
      </trkpt>
      <trkpt lat="47.50502" lon="6.79498">
        <ele>316</ele>
        <time>2016-10-01T16:23:33.000Z</time>
      </trkpt>
      <trkpt lat="47.50507" lon="6.79498">
        <ele>316</ele>
        <time>2016-10-01T16:23:34.000Z</time>
      </trkpt>
      <trkpt lat="47.50512" lon="6.79498">
        <ele>316</ele>
        <time>2016-10-01T16:23:35.000Z</time>
      </trkpt>
      <trkpt lat="47.50517" lon="6.79497">
        <ele>316</ele>
        <time>2016-10-01T16:23:36.000Z</time>
      </trkpt>
      <trkpt lat="47.50523" lon="6.79496">
        <ele>316</ele>
        <time>2016-10-01T16:23:37.000Z</time>
      </trkpt>
      <trkpt lat="47.50528" lon="6.79496">
        <ele>316</ele>
        <time>2016-10-01T16:23:38.000Z</time>
      </trkpt>
      <trkpt lat="47.50534" lon="6.79494">
        <ele>316</ele>
        <time>2016-10-01T16:23:39.000Z</time>
      </trkpt>
      <trkpt lat="47.50538" lon="6.79491">
        <ele>316</ele>
        <time>2016-10-01T16:23:40.000Z</time>
      </trkpt>
      <trkpt lat="47.50541" lon="6.79487">
        <ele>316</ele>
        <time>2016-10-01T16:23:41.000Z</time>
      </trkpt>
      <trkpt lat="47.50546" lon="6.79484">
        <ele>316</ele>
        <time>2016-10-01T16:23:42.000Z</time>
      </trkpt>
      <trkpt lat="47.50552" lon="6.79479">
        <ele>316</ele>
        <time>2016-10-01T16:23:43.000Z</time>
      </trkpt>
      <trkpt lat="47.50556" lon="6.79475">
        <ele>316</ele>
        <time>2016-10-01T16:23:44.000Z</time>
      </trkpt>
      <trkpt lat="47.50562" lon="6.79471">
        <ele>316</ele>
        <time>2016-10-01T16:23:45.000Z</time>
      </trkpt>
      <trkpt lat="47.50566" lon="6.79466">
        <ele>316</ele>
        <time>2016-10-01T16:23:46.000Z</time>
      </trkpt>
      <trkpt lat="47.50571" lon="6.79461">
        <ele>316</ele>
        <time>2016-10-01T16:23:47.000Z</time>
      </trkpt>
      <trkpt lat="47.50574" lon="6.79457">
        <ele>315</ele>
        <time>2016-10-01T16:23:48.000Z</time>
      </trkpt>
      <trkpt lat="47.50578" lon="6.79452">
        <ele>315</ele>
        <time>2016-10-01T16:23:49.000Z</time>
      </trkpt>
      <trkpt lat="47.50583" lon="6.79448">
        <ele>315</ele>
        <time>2016-10-01T16:23:50.000Z</time>
      </trkpt>
      <trkpt lat="47.50587" lon="6.79444">
        <ele>315</ele>
        <time>2016-10-01T16:23:51.000Z</time>
      </trkpt>
      <trkpt lat="47.5059" lon="6.79438">
        <ele>315</ele>
        <time>2016-10-01T16:23:52.000Z</time>
      </trkpt>
      <trkpt lat="47.50593" lon="6.79433">
        <ele>315</ele>
        <time>2016-10-01T16:23:52.999Z</time>
      </trkpt>
      <trkpt lat="47.50597" lon="6.79427">
        <ele>315</ele>
        <time>2016-10-01T16:23:54.001Z</time>
      </trkpt>
      <trkpt lat="47.506" lon="6.79425">
        <ele>315</ele>
        <time>2016-10-01T16:23:55.000Z</time>
      </trkpt>
      <trkpt lat="47.50604" lon="6.7942">
        <ele>315</ele>
        <time>2016-10-01T16:23:56.000Z</time>
      </trkpt>
      <trkpt lat="47.50607" lon="6.79416">
        <ele>314</ele>
        <time>2016-10-01T16:23:57.000Z</time>
      </trkpt>
      <trkpt lat="47.5061" lon="6.79413">
        <ele>314</ele>
        <time>2016-10-01T16:23:58.001Z</time>
      </trkpt>
      <trkpt lat="47.50612" lon="6.79409">
        <ele>314</ele>
        <time>2016-10-01T16:23:59.000Z</time>
      </trkpt>
      <trkpt lat="47.50614" lon="6.79407">
        <ele>314</ele>
        <time>2016-10-01T16:23:59.999Z</time>
      </trkpt>
      <trkpt lat="47.50616" lon="6.79402">
        <ele>314</ele>
        <time>2016-10-01T16:24:02.000Z</time>
      </trkpt>
      <trkpt lat="47.50616" lon="6.79401">
        <ele>314</ele>
        <time>2016-10-01T16:24:03.000Z</time>
      </trkpt>
      <trkpt lat="47.50618" lon="6.79398">
        <ele>314</ele>
        <time>2016-10-01T16:24:07.000Z</time>
      </trkpt>
      <trkpt lat="47.5062" lon="6.79396">
        <ele>314</ele>
        <time>2016-10-01T16:24:08.000Z</time>
      </trkpt>
      <trkpt lat="47.50622" lon="6.79395">
        <ele>314</ele>
        <time>2016-10-01T16:24:09.000Z</time>
      </trkpt>
      <trkpt lat="47.50624" lon="6.79395">
        <ele>314</ele>
        <time>2016-10-01T16:24:10.000Z</time>
      </trkpt>
      <trkpt lat="47.50627" lon="6.79394">
        <ele>314</ele>
        <time>2016-10-01T16:24:11.000Z</time>
      </trkpt>
      <trkpt lat="47.50631" lon="6.79392">
        <ele>314</ele>
        <time>2016-10-01T16:24:12.000Z</time>
      </trkpt>
      <trkpt lat="47.50633" lon="6.7939">
        <ele>314</ele>
        <time>2016-10-01T16:24:13.000Z</time>
      </trkpt>
      <trkpt lat="47.50636" lon="6.79388">
        <ele>314</ele>
        <time>2016-10-01T16:24:14.000Z</time>
      </trkpt>
      <trkpt lat="47.50639" lon="6.79386">
        <ele>314</ele>
        <time>2016-10-01T16:24:15.000Z</time>
      </trkpt>
      <trkpt lat="47.50641" lon="6.79385">
        <ele>314</ele>
        <time>2016-10-01T16:24:15.999Z</time>
      </trkpt>
      <trkpt lat="47.50643" lon="6.79384">
        <ele>314</ele>
        <time>2016-10-01T16:24:18.000Z</time>
      </trkpt>
      <trkpt lat="47.50645" lon="6.79383">
        <ele>314</ele>
        <time>2016-10-01T16:24:19.000Z</time>
      </trkpt>
      <trkpt lat="47.50648" lon="6.79382">
        <ele>314</ele>
        <time>2016-10-01T16:24:21.000Z</time>
      </trkpt>
      <trkpt lat="47.5065" lon="6.79382">
        <ele>314</ele>
        <time>2016-10-01T16:24:22.001Z</time>
      </trkpt>
      <trkpt lat="47.50651" lon="6.79386">
        <ele>314</ele>
        <time>2016-10-01T16:24:26.000Z</time>
      </trkpt>
      <trkpt lat="47.50653" lon="6.79388">
        <ele>314</ele>
        <time>2016-10-01T16:24:27.000Z</time>
      </trkpt>
      <trkpt lat="47.50656" lon="6.79389">
        <ele>314</ele>
        <time>2016-10-01T16:24:28.000Z</time>
      </trkpt>
      <trkpt lat="47.50659" lon="6.7939">
        <ele>314</ele>
        <time>2016-10-01T16:24:28.999Z</time>
      </trkpt>
      <trkpt lat="47.50662" lon="6.7939">
        <ele>314</ele>
        <time>2016-10-01T16:24:30.000Z</time>
      </trkpt>
      <trkpt lat="47.50665" lon="6.79388">
        <ele>314</ele>
        <time>2016-10-01T16:24:31.000Z</time>
      </trkpt>
      <trkpt lat="47.50669" lon="6.79386">
        <ele>314</ele>
        <time>2016-10-01T16:24:32.000Z</time>
      </trkpt>
      <trkpt lat="47.50676" lon="6.79375">
        <ele>314</ele>
        <time>2016-10-01T16:24:33.000Z</time>
      </trkpt>
      <trkpt lat="47.5068" lon="6.79371">
        <ele>314</ele>
        <time>2016-10-01T16:24:34.000Z</time>
      </trkpt>
      <trkpt lat="47.50684" lon="6.79369">
        <ele>314</ele>
        <time>2016-10-01T16:24:35.000Z</time>
      </trkpt>
      <trkpt lat="47.50688" lon="6.79366">
        <ele>314</ele>
        <time>2016-10-01T16:24:36.000Z</time>
      </trkpt>
      <trkpt lat="47.50692" lon="6.79363">
        <ele>314</ele>
        <time>2016-10-01T16:24:37.000Z</time>
      </trkpt>
      <trkpt lat="47.50697" lon="6.79359">
        <ele>314</ele>
        <time>2016-10-01T16:24:38.000Z</time>
      </trkpt>
      <trkpt lat="47.50703" lon="6.79355">
        <ele>314</ele>
        <time>2016-10-01T16:24:39.000Z</time>
      </trkpt>
      <trkpt lat="47.50708" lon="6.79351">
        <ele>314</ele>
        <time>2016-10-01T16:24:40.000Z</time>
      </trkpt>
      <trkpt lat="47.50713" lon="6.79347">
        <ele>314</ele>
        <time>2016-10-01T16:24:41.000Z</time>
      </trkpt>
      <trkpt lat="47.50718" lon="6.79344">
        <ele>314</ele>
        <time>2016-10-01T16:24:42.000Z</time>
      </trkpt>
      <trkpt lat="47.50723" lon="6.7934">
        <ele>314</ele>
        <time>2016-10-01T16:24:43.000Z</time>
      </trkpt>
      <trkpt lat="47.50727" lon="6.79336">
        <ele>315</ele>
        <time>2016-10-01T16:24:44.000Z</time>
      </trkpt>
      <trkpt lat="47.50732" lon="6.79331">
        <ele>314</ele>
        <time>2016-10-01T16:24:45.000Z</time>
      </trkpt>
      <trkpt lat="47.50736" lon="6.79327">
        <ele>314</ele>
        <time>2016-10-01T16:24:46.000Z</time>
      </trkpt>
      <trkpt lat="47.50739" lon="6.7932">
        <ele>314</ele>
        <time>2016-10-01T16:24:47.000Z</time>
      </trkpt>
      <trkpt lat="47.50743" lon="6.79314">
        <ele>314</ele>
        <time>2016-10-01T16:24:48.000Z</time>
      </trkpt>
      <trkpt lat="47.50746" lon="6.79307">
        <ele>314</ele>
        <time>2016-10-01T16:24:49.000Z</time>
      </trkpt>
      <trkpt lat="47.5075" lon="6.79299">
        <ele>314</ele>
        <time>2016-10-01T16:24:50.000Z</time>
      </trkpt>
      <trkpt lat="47.50753" lon="6.79291">
        <ele>314</ele>
        <time>2016-10-01T16:24:51.000Z</time>
      </trkpt>
      <trkpt lat="47.50755" lon="6.79285">
        <ele>314</ele>
        <time>2016-10-01T16:24:52.000Z</time>
      </trkpt>
      <trkpt lat="47.50757" lon="6.79281">
        <ele>314</ele>
        <time>2016-10-01T16:24:53.000Z</time>
      </trkpt>
      <trkpt lat="47.50758" lon="6.79274">
        <ele>313</ele>
        <time>2016-10-01T16:24:54.000Z</time>
      </trkpt>
      <trkpt lat="47.5076" lon="6.79267">
        <ele>313</ele>
        <time>2016-10-01T16:24:55.000Z</time>
      </trkpt>
      <trkpt lat="47.50762" lon="6.79262">
        <ele>313</ele>
        <time>2016-10-01T16:24:56.000Z</time>
      </trkpt>
      <trkpt lat="47.50764" lon="6.79257">
        <ele>313</ele>
        <time>2016-10-01T16:24:57.000Z</time>
      </trkpt>
      <trkpt lat="47.50765" lon="6.79251">
        <ele>313</ele>
        <time>2016-10-01T16:24:58.000Z</time>
      </trkpt>
      <trkpt lat="47.50765" lon="6.79247">
        <ele>313</ele>
        <time>2016-10-01T16:24:59.000Z</time>
      </trkpt>
      <trkpt lat="47.50764" lon="6.79242">
        <ele>313</ele>
        <time>2016-10-01T16:25:00.000Z</time>
      </trkpt>
      <trkpt lat="47.50764" lon="6.79235">
        <ele>313</ele>
        <time>2016-10-01T16:25:01.000Z</time>
      </trkpt>
      <trkpt lat="47.50764" lon="6.7923">
        <ele>313</ele>
        <time>2016-10-01T16:25:02.000Z</time>
      </trkpt>
      <trkpt lat="47.50764" lon="6.79225">
        <ele>313</ele>
        <time>2016-10-01T16:25:03.000Z</time>
      </trkpt>
      <trkpt lat="47.50764" lon="6.79221">
        <ele>313</ele>
        <time>2016-10-01T16:25:04.000Z</time>
      </trkpt>
      <trkpt lat="47.50766" lon="6.7921">
        <ele>314</ele>
        <time>2016-10-01T16:25:05.000Z</time>
      </trkpt>
      <trkpt lat="47.50767" lon="6.79203">
        <ele>314</ele>
        <time>2016-10-01T16:25:06.000Z</time>
      </trkpt>
      <trkpt lat="47.50768" lon="6.79195">
        <ele>314</ele>
        <time>2016-10-01T16:25:07.000Z</time>
      </trkpt>
      <trkpt lat="47.50769" lon="6.79188">
        <ele>314</ele>
        <time>2016-10-01T16:25:08.000Z</time>
      </trkpt>
      <trkpt lat="47.5077" lon="6.79181">
        <ele>314</ele>
        <time>2016-10-01T16:25:09.001Z</time>
      </trkpt>
      <trkpt lat="47.50771" lon="6.79173">
        <ele>314</ele>
        <time>2016-10-01T16:25:10.000Z</time>
      </trkpt>
      <trkpt lat="47.50772" lon="6.79165">
        <ele>314</ele>
        <time>2016-10-01T16:25:11.000Z</time>
      </trkpt>
      <trkpt lat="47.50773" lon="6.79159">
        <ele>314</ele>
        <time>2016-10-01T16:25:12.000Z</time>
      </trkpt>
      <trkpt lat="47.50774" lon="6.79153">
        <ele>314</ele>
        <time>2016-10-01T16:25:13.001Z</time>
      </trkpt>
      <trkpt lat="47.50776" lon="6.79148">
        <ele>314</ele>
        <time>2016-10-01T16:25:16.000Z</time>
      </trkpt>
      <trkpt lat="47.50778" lon="6.79143">
        <ele>314</ele>
        <time>2016-10-01T16:25:17.000Z</time>
      </trkpt>
      <trkpt lat="47.5078" lon="6.79139">
        <ele>314</ele>
        <time>2016-10-01T16:25:17.999Z</time>
      </trkpt>
      <trkpt lat="47.50779" lon="6.79124">
        <ele>314</ele>
        <time>2016-10-01T16:25:19.000Z</time>
      </trkpt>
      <trkpt lat="47.50779" lon="6.79117">
        <ele>314</ele>
        <time>2016-10-01T16:25:20.000Z</time>
      </trkpt>
      <trkpt lat="47.50778" lon="6.79107">
        <ele>314</ele>
        <time>2016-10-01T16:25:21.000Z</time>
      </trkpt>
      <trkpt lat="47.50777" lon="6.79099">
        <ele>314</ele>
        <time>2016-10-01T16:25:21.999Z</time>
      </trkpt>
      <trkpt lat="47.50778" lon="6.79094">
        <ele>314</ele>
        <time>2016-10-01T16:25:23.000Z</time>
      </trkpt>
      <trkpt lat="47.50778" lon="6.7909">
        <ele>314</ele>
        <time>2016-10-01T16:25:24.000Z</time>
      </trkpt>
      <trkpt lat="47.50776" lon="6.79085">
        <ele>314</ele>
        <time>2016-10-01T16:25:25.000Z</time>
      </trkpt>
      <trkpt lat="47.50773" lon="6.79078">
        <ele>314</ele>
        <time>2016-10-01T16:25:26.000Z</time>
      </trkpt>
      <trkpt lat="47.50772" lon="6.7907">
        <ele>314</ele>
        <time>2016-10-01T16:25:27.000Z</time>
      </trkpt>
      <trkpt lat="47.50772" lon="6.79063">
        <ele>314</ele>
        <time>2016-10-01T16:25:28.000Z</time>
      </trkpt>
      <trkpt lat="47.50772" lon="6.79055">
        <ele>315</ele>
        <time>2016-10-01T16:25:29.000Z</time>
      </trkpt>
      <trkpt lat="47.50774" lon="6.79047">
        <ele>315</ele>
        <time>2016-10-01T16:25:30.000Z</time>
      </trkpt>
      <trkpt lat="47.50776" lon="6.79041">
        <ele>315</ele>
        <time>2016-10-01T16:25:31.000Z</time>
      </trkpt>
      <trkpt lat="47.50778" lon="6.79035">
        <ele>315</ele>
        <time>2016-10-01T16:25:32.000Z</time>
      </trkpt>
      <trkpt lat="47.5078" lon="6.79029">
        <ele>315</ele>
        <time>2016-10-01T16:25:32.999Z</time>
      </trkpt>
      <trkpt lat="47.50779" lon="6.79022">
        <ele>315</ele>
        <time>2016-10-01T16:25:34.000Z</time>
      </trkpt>
      <trkpt lat="47.5078" lon="6.79017">
        <ele>315</ele>
        <time>2016-10-01T16:25:35.000Z</time>
      </trkpt>
      <trkpt lat="47.5078" lon="6.79011">
        <ele>315</ele>
        <time>2016-10-01T16:25:36.000Z</time>
      </trkpt>
      <trkpt lat="47.50781" lon="6.78999">
        <ele>316</ele>
        <time>2016-10-01T16:25:37.000Z</time>
      </trkpt>
      <trkpt lat="47.50782" lon="6.78992">
        <ele>316</ele>
        <time>2016-10-01T16:25:37.999Z</time>
      </trkpt>
      <trkpt lat="47.50784" lon="6.78986">
        <ele>316</ele>
        <time>2016-10-01T16:25:39.000Z</time>
      </trkpt>
      <trkpt lat="47.50782" lon="6.78979">
        <ele>316</ele>
        <time>2016-10-01T16:25:40.000Z</time>
      </trkpt>
      <trkpt lat="47.50783" lon="6.78971">
        <ele>316</ele>
        <time>2016-10-01T16:25:41.000Z</time>
      </trkpt>
      <trkpt lat="47.50782" lon="6.78966">
        <ele>316</ele>
        <time>2016-10-01T16:25:42.000Z</time>
      </trkpt>
      <trkpt lat="47.50783" lon="6.78962">
        <ele>316</ele>
        <time>2016-10-01T16:25:43.000Z</time>
      </trkpt>
      <trkpt lat="47.50784" lon="6.78956">
        <ele>316</ele>
        <time>2016-10-01T16:25:44.000Z</time>
      </trkpt>
      <trkpt lat="47.50785" lon="6.78949">
        <ele>316</ele>
        <time>2016-10-01T16:25:44.999Z</time>
      </trkpt>
      <trkpt lat="47.50783" lon="6.78939">
        <ele>316</ele>
        <time>2016-10-01T16:25:46.000Z</time>
      </trkpt>
      <trkpt lat="47.50783" lon="6.78935">
        <ele>316</ele>
        <time>2016-10-01T16:25:47.000Z</time>
      </trkpt>
      <trkpt lat="47.50784" lon="6.7893">
        <ele>316</ele>
        <time>2016-10-01T16:25:48.000Z</time>
      </trkpt>
      <trkpt lat="47.50784" lon="6.78926">
        <ele>316</ele>
        <time>2016-10-01T16:25:48.999Z</time>
      </trkpt>
      <trkpt lat="47.50784" lon="6.78914">
        <ele>316</ele>
        <time>2016-10-01T16:25:50.000Z</time>
      </trkpt>
      <trkpt lat="47.50789" lon="6.78898">
        <ele>316</ele>
        <time>2016-10-01T16:25:51.000Z</time>
      </trkpt>
      <trkpt lat="47.50787" lon="6.78891">
        <ele>316</ele>
        <time>2016-10-01T16:25:52.000Z</time>
      </trkpt>
      <trkpt lat="47.50787" lon="6.78885">
        <ele>316</ele>
        <time>2016-10-01T16:25:53.000Z</time>
      </trkpt>
      <trkpt lat="47.50788" lon="6.78873">
        <ele>316</ele>
        <time>2016-10-01T16:25:54.000Z</time>
      </trkpt>
      <trkpt lat="47.5079" lon="6.78862">
        <ele>315</ele>
        <time>2016-10-01T16:25:55.000Z</time>
      </trkpt>
      <trkpt lat="47.5079" lon="6.78854">
        <ele>315</ele>
        <time>2016-10-01T16:25:55.999Z</time>
      </trkpt>
      <trkpt lat="47.50791" lon="6.78844">
        <ele>315</ele>
        <time>2016-10-01T16:25:57.000Z</time>
      </trkpt>
      <trkpt lat="47.50792" lon="6.78835">
        <ele>315</ele>
        <time>2016-10-01T16:25:58.000Z</time>
      </trkpt>
      <trkpt lat="47.50792" lon="6.78826">
        <ele>315</ele>
        <time>2016-10-01T16:25:59.000Z</time>
      </trkpt>
      <trkpt lat="47.50792" lon="6.78823">
        <ele>315</ele>
        <time>2016-10-01T16:26:01.000Z</time>
      </trkpt>
      <trkpt lat="47.50791" lon="6.78819">
        <ele>315</ele>
        <time>2016-10-01T16:26:02.000Z</time>
      </trkpt>
      <trkpt lat="47.50791" lon="6.78817">
        <ele>315</ele>
        <time>2016-10-01T16:26:03.000Z</time>
      </trkpt>
      <trkpt lat="47.50792" lon="6.78811">
        <ele>315</ele>
        <time>2016-10-01T16:26:04.000Z</time>
      </trkpt>
      <trkpt lat="47.50792" lon="6.78803">
        <ele>315</ele>
        <time>2016-10-01T16:26:05.000Z</time>
      </trkpt>
      <trkpt lat="47.50795" lon="6.78797">
        <ele>315</ele>
        <time>2016-10-01T16:26:06.000Z</time>
      </trkpt>
      <trkpt lat="47.50798" lon="6.7879">
        <ele>315</ele>
        <time>2016-10-01T16:26:07.000Z</time>
      </trkpt>
      <trkpt lat="47.508" lon="6.78786">
        <ele>315</ele>
        <time>2016-10-01T16:26:08.000Z</time>
      </trkpt>
      <trkpt lat="47.508" lon="6.78776">
        <ele>315</ele>
        <time>2016-10-01T16:26:09.000Z</time>
      </trkpt>
      <trkpt lat="47.508" lon="6.78768">
        <ele>315</ele>
        <time>2016-10-01T16:26:10.000Z</time>
      </trkpt>
      <trkpt lat="47.508" lon="6.78761">
        <ele>315</ele>
        <time>2016-10-01T16:26:11.000Z</time>
      </trkpt>
      <trkpt lat="47.50801" lon="6.7875">
        <ele>315</ele>
        <time>2016-10-01T16:26:12.000Z</time>
      </trkpt>
      <trkpt lat="47.508" lon="6.78745">
        <ele>316</ele>
        <time>2016-10-01T16:26:14.000Z</time>
      </trkpt>
      <trkpt lat="47.508" lon="6.78742">
        <ele>316</ele>
        <time>2016-10-01T16:26:15.000Z</time>
      </trkpt>
      <trkpt lat="47.508" lon="6.7874">
        <ele>316</ele>
        <time>2016-10-01T16:26:15.999Z</time>
      </trkpt>
      <trkpt lat="47.50802" lon="6.78728">
        <ele>316</ele>
        <time>2016-10-01T16:26:17.000Z</time>
      </trkpt>
      <trkpt lat="47.50802" lon="6.78723">
        <ele>316</ele>
        <time>2016-10-01T16:26:18.000Z</time>
      </trkpt>
      <trkpt lat="47.50805" lon="6.78717">
        <ele>316</ele>
        <time>2016-10-01T16:26:19.000Z</time>
      </trkpt>
      <trkpt lat="47.50807" lon="6.78713">
        <ele>316</ele>
        <time>2016-10-01T16:26:20.000Z</time>
      </trkpt>
      <trkpt lat="47.5081" lon="6.78709">
        <ele>316</ele>
        <time>2016-10-01T16:26:21.000Z</time>
      </trkpt>
      <trkpt lat="47.50813" lon="6.78706">
        <ele>316</ele>
        <time>2016-10-01T16:26:22.000Z</time>
      </trkpt>
      <trkpt lat="47.50816" lon="6.78704">
        <ele>316</ele>
        <time>2016-10-01T16:26:23.000Z</time>
      </trkpt>
      <trkpt lat="47.50819" lon="6.78701">
        <ele>316</ele>
        <time>2016-10-01T16:26:25.000Z</time>
      </trkpt>
      <trkpt lat="47.50821" lon="6.78701">
        <ele>316</ele>
        <time>2016-10-01T16:26:26.000Z</time>
      </trkpt>
      <trkpt lat="47.50823" lon="6.78701">
        <ele>316</ele>
        <time>2016-10-01T16:26:27.000Z</time>
      </trkpt>
      <trkpt lat="47.50826" lon="6.78701">
        <ele>316</ele>
        <time>2016-10-01T16:26:28.000Z</time>
      </trkpt>
      <trkpt lat="47.50829" lon="6.78702">
        <ele>316</ele>
        <time>2016-10-01T16:26:29.000Z</time>
      </trkpt>
      <trkpt lat="47.50831" lon="6.78703">
        <ele>315</ele>
        <time>2016-10-01T16:26:30.000Z</time>
      </trkpt>
      <trkpt lat="47.50834" lon="6.78704">
        <ele>316</ele>
        <time>2016-10-01T16:26:31.000Z</time>
      </trkpt>
      <trkpt lat="47.50836" lon="6.78705">
        <ele>316</ele>
        <time>2016-10-01T16:26:32.000Z</time>
      </trkpt>
      <trkpt lat="47.50839" lon="6.78705">
        <ele>316</ele>
        <time>2016-10-01T16:26:33.000Z</time>
      </trkpt>
      <trkpt lat="47.50841" lon="6.78706">
        <ele>316</ele>
        <time>2016-10-01T16:26:34.000Z</time>
      </trkpt>
      <trkpt lat="47.50844" lon="6.78707">
        <ele>316</ele>
        <time>2016-10-01T16:26:35.000Z</time>
      </trkpt>
      <trkpt lat="47.50847" lon="6.78708">
        <ele>316</ele>
        <time>2016-10-01T16:26:36.000Z</time>
      </trkpt>
      <trkpt lat="47.50849" lon="6.78709">
        <ele>316</ele>
        <time>2016-10-01T16:26:37.000Z</time>
      </trkpt>
      <trkpt lat="47.50852" lon="6.7871">
        <ele>316</ele>
        <time>2016-10-01T16:26:38.000Z</time>
      </trkpt>
      <trkpt lat="47.50855" lon="6.78711">
        <ele>316</ele>
        <time>2016-10-01T16:26:40.000Z</time>
      </trkpt>
      <trkpt lat="47.50857" lon="6.78712">
        <ele>316</ele>
        <time>2016-10-01T16:26:41.000Z</time>
      </trkpt>
      <trkpt lat="47.5086" lon="6.78712">
        <ele>316</ele>
        <time>2016-10-01T16:26:42.000Z</time>
      </trkpt>
      <trkpt lat="47.50862" lon="6.78713">
        <ele>316</ele>
        <time>2016-10-01T16:26:43.000Z</time>
      </trkpt>
      <trkpt lat="47.50865" lon="6.78714">
        <ele>316</ele>
        <time>2016-10-01T16:26:44.000Z</time>
      </trkpt>
      <trkpt lat="47.50867" lon="6.78715">
        <ele>316</ele>
        <time>2016-10-01T16:26:45.000Z</time>
      </trkpt>
      <trkpt lat="47.5087" lon="6.78716">
        <ele>316</ele>
        <time>2016-10-01T16:26:46.000Z</time>
      </trkpt>
      <trkpt lat="47.50874" lon="6.78717">
        <ele>316</ele>
        <time>2016-10-01T16:26:47.000Z</time>
      </trkpt>
      <trkpt lat="47.50877" lon="6.78719">
        <ele>317</ele>
        <time>2016-10-01T16:26:48.000Z</time>
      </trkpt>
      <trkpt lat="47.50881" lon="6.78721">
        <ele>317</ele>
        <time>2016-10-01T16:26:49.000Z</time>
      </trkpt>
      <trkpt lat="47.50884" lon="6.78723">
        <ele>317</ele>
        <time>2016-10-01T16:26:50.000Z</time>
      </trkpt>
      <trkpt lat="47.50888" lon="6.78725">
        <ele>317</ele>
        <time>2016-10-01T16:26:51.001Z</time>
      </trkpt>
      <trkpt lat="47.50891" lon="6.78727">
        <ele>317</ele>
        <time>2016-10-01T16:26:51.999Z</time>
      </trkpt>
      <trkpt lat="47.50894" lon="6.78728">
        <ele>317</ele>
        <time>2016-10-01T16:26:53.000Z</time>
      </trkpt>
      <trkpt lat="47.50898" lon="6.7873">
        <ele>317</ele>
        <time>2016-10-01T16:26:54.000Z</time>
      </trkpt>
      <trkpt lat="47.509" lon="6.78731">
        <ele>317</ele>
        <time>2016-10-01T16:26:55.000Z</time>
      </trkpt>
      <trkpt lat="47.50904" lon="6.78734">
        <ele>318</ele>
        <time>2016-10-01T16:26:57.000Z</time>
      </trkpt>
      <trkpt lat="47.50905" lon="6.78735">
        <ele>318</ele>
        <time>2016-10-01T16:26:58.000Z</time>
      </trkpt>
      <trkpt lat="47.50909" lon="6.78734">
        <ele>318</ele>
        <time>2016-10-01T16:27:03.999Z</time>
      </trkpt>
      <trkpt lat="47.50909" lon="6.7873">
        <ele>318</ele>
        <time>2016-10-01T16:27:05.000Z</time>
      </trkpt>
      <trkpt lat="47.5091" lon="6.78726">
        <ele>318</ele>
        <time>2016-10-01T16:27:06.000Z</time>
      </trkpt>
      <trkpt lat="47.50911" lon="6.78723">
        <ele>317</ele>
        <time>2016-10-01T16:27:07.000Z</time>
      </trkpt>
      <trkpt lat="47.50912" lon="6.78719">
        <ele>317</ele>
        <time>2016-10-01T16:27:08.000Z</time>
      </trkpt>
      <trkpt lat="47.50912" lon="6.78715">
        <ele>317</ele>
        <time>2016-10-01T16:27:09.000Z</time>
      </trkpt>
      <trkpt lat="47.50915" lon="6.78703">
        <ele>317</ele>
        <time>2016-10-01T16:27:10.000Z</time>
      </trkpt>
      <trkpt lat="47.50916" lon="6.78695">
        <ele>317</ele>
        <time>2016-10-01T16:27:11.000Z</time>
      </trkpt>
      <trkpt lat="47.50917" lon="6.7869">
        <ele>319</ele>
        <time>2016-10-01T16:27:12.000Z</time>
      </trkpt>
      <trkpt lat="47.50918" lon="6.78684">
        <ele>319</ele>
        <time>2016-10-01T16:27:13.000Z</time>
      </trkpt>
      <trkpt lat="47.5092" lon="6.78678">
        <ele>319</ele>
        <time>2016-10-01T16:27:14.000Z</time>
      </trkpt>
      <trkpt lat="47.50921" lon="6.7867">
        <ele>318</ele>
        <time>2016-10-01T16:27:15.000Z</time>
      </trkpt>
      <trkpt lat="47.50922" lon="6.78663">
        <ele>318</ele>
        <time>2016-10-01T16:27:16.000Z</time>
      </trkpt>
      <trkpt lat="47.50924" lon="6.78655">
        <ele>318</ele>
        <time>2016-10-01T16:27:17.000Z</time>
      </trkpt>
      <trkpt lat="47.50925" lon="6.7865">
        <ele>318</ele>
        <time>2016-10-01T16:27:18.000Z</time>
      </trkpt>
      <trkpt lat="47.50927" lon="6.78643">
        <ele>318</ele>
        <time>2016-10-01T16:27:19.000Z</time>
      </trkpt>
      <trkpt lat="47.50929" lon="6.78638">
        <ele>318</ele>
        <time>2016-10-01T16:27:20.000Z</time>
      </trkpt>
      <trkpt lat="47.50929" lon="6.78632">
        <ele>318</ele>
        <time>2016-10-01T16:27:21.000Z</time>
      </trkpt>
      <trkpt lat="47.5093" lon="6.78628">
        <ele>318</ele>
        <time>2016-10-01T16:27:22.000Z</time>
      </trkpt>
      <trkpt lat="47.50931" lon="6.78622">
        <ele>318</ele>
        <time>2016-10-01T16:27:23.000Z</time>
      </trkpt>
      <trkpt lat="47.50932" lon="6.78617">
        <ele>318</ele>
        <time>2016-10-01T16:27:24.000Z</time>
      </trkpt>
      <trkpt lat="47.50933" lon="6.78612">
        <ele>318</ele>
        <time>2016-10-01T16:27:25.000Z</time>
      </trkpt>
      <trkpt lat="47.50934" lon="6.78608">
        <ele>318</ele>
        <time>2016-10-01T16:27:26.000Z</time>
      </trkpt>
      <trkpt lat="47.50935" lon="6.78603">
        <ele>318</ele>
        <time>2016-10-01T16:27:27.000Z</time>
      </trkpt>
      <trkpt lat="47.50936" lon="6.78599">
        <ele>318</ele>
        <time>2016-10-01T16:27:28.000Z</time>
      </trkpt>
      <trkpt lat="47.50942" lon="6.78596">
        <ele>318</ele>
        <time>2016-10-01T16:27:29.000Z</time>
      </trkpt>
      <trkpt lat="47.50945" lon="6.78593">
        <ele>318</ele>
        <time>2016-10-01T16:27:30.000Z</time>
      </trkpt>
      <trkpt lat="47.50948" lon="6.78589">
        <ele>318</ele>
        <time>2016-10-01T16:27:30.999Z</time>
      </trkpt>
      <trkpt lat="47.50949" lon="6.78586">
        <ele>318</ele>
        <time>2016-10-01T16:27:32.000Z</time>
      </trkpt>
      <trkpt lat="47.50946" lon="6.78581">
        <ele>317</ele>
        <time>2016-10-01T16:27:33.000Z</time>
      </trkpt>
      <trkpt lat="47.50947" lon="6.78577">
        <ele>317</ele>
        <time>2016-10-01T16:27:34.000Z</time>
      </trkpt>
      <trkpt lat="47.50947" lon="6.78573">
        <ele>317</ele>
        <time>2016-10-01T16:27:35.000Z</time>
      </trkpt>
      <trkpt lat="47.50948" lon="6.78564">
        <ele>317</ele>
        <time>2016-10-01T16:27:36.000Z</time>
      </trkpt>
      <trkpt lat="47.50949" lon="6.78557">
        <ele>317</ele>
        <time>2016-10-01T16:27:37.000Z</time>
      </trkpt>
      <trkpt lat="47.5095" lon="6.78552">
        <ele>317</ele>
        <time>2016-10-01T16:27:37.999Z</time>
      </trkpt>
      <trkpt lat="47.50952" lon="6.78547">
        <ele>317</ele>
        <time>2016-10-01T16:27:39.000Z</time>
      </trkpt>
      <trkpt lat="47.50953" lon="6.78542">
        <ele>317</ele>
        <time>2016-10-01T16:27:40.001Z</time>
      </trkpt>
      <trkpt lat="47.50954" lon="6.78537">
        <ele>317</ele>
        <time>2016-10-01T16:27:41.000Z</time>
      </trkpt>
      <trkpt lat="47.50955" lon="6.78533">
        <ele>317</ele>
        <time>2016-10-01T16:27:42.000Z</time>
      </trkpt>
      <trkpt lat="47.50956" lon="6.78528">
        <ele>317</ele>
        <time>2016-10-01T16:27:43.000Z</time>
      </trkpt>
      <trkpt lat="47.50956" lon="6.78524">
        <ele>317</ele>
        <time>2016-10-01T16:27:43.999Z</time>
      </trkpt>
      <trkpt lat="47.50958" lon="6.78519">
        <ele>317</ele>
        <time>2016-10-01T16:27:45.000Z</time>
      </trkpt>
      <trkpt lat="47.50958" lon="6.78509">
        <ele>317</ele>
        <time>2016-10-01T16:27:46.000Z</time>
      </trkpt>
      <trkpt lat="47.50959" lon="6.78501">
        <ele>317</ele>
        <time>2016-10-01T16:27:47.000Z</time>
      </trkpt>
      <trkpt lat="47.5096" lon="6.78495">
        <ele>317</ele>
        <time>2016-10-01T16:27:48.001Z</time>
      </trkpt>
      <trkpt lat="47.50961" lon="6.78485">
        <ele>317</ele>
        <time>2016-10-01T16:27:49.000Z</time>
      </trkpt>
      <trkpt lat="47.50963" lon="6.78473">
        <ele>317</ele>
        <time>2016-10-01T16:27:50.000Z</time>
      </trkpt>
      <trkpt lat="47.50963" lon="6.78464">
        <ele>317</ele>
        <time>2016-10-01T16:27:51.000Z</time>
      </trkpt>
      <trkpt lat="47.50963" lon="6.7846">
        <ele>317</ele>
        <time>2016-10-01T16:27:52.000Z</time>
      </trkpt>
      <trkpt lat="47.50964" lon="6.78453">
        <ele>317</ele>
        <time>2016-10-01T16:27:53.000Z</time>
      </trkpt>
      <trkpt lat="47.50965" lon="6.78446">
        <ele>317</ele>
        <time>2016-10-01T16:27:54.000Z</time>
      </trkpt>
      <trkpt lat="47.50966" lon="6.78437">
        <ele>317</ele>
        <time>2016-10-01T16:27:55.000Z</time>
      </trkpt>
      <trkpt lat="47.50967" lon="6.7843">
        <ele>317</ele>
        <time>2016-10-01T16:27:55.999Z</time>
      </trkpt>
      <trkpt lat="47.5097" lon="6.78428">
        <ele>317</ele>
        <time>2016-10-01T16:27:57.000Z</time>
      </trkpt>
      <trkpt lat="47.50973" lon="6.78423">
        <ele>317</ele>
        <time>2016-10-01T16:27:58.000Z</time>
      </trkpt>
      <trkpt lat="47.50973" lon="6.78418">
        <ele>317</ele>
        <time>2016-10-01T16:27:59.000Z</time>
      </trkpt>
      <trkpt lat="47.50974" lon="6.7841">
        <ele>317</ele>
        <time>2016-10-01T16:28:00.000Z</time>
      </trkpt>
      <trkpt lat="47.50975" lon="6.78402">
        <ele>317</ele>
        <time>2016-10-01T16:28:01.000Z</time>
      </trkpt>
      <trkpt lat="47.50976" lon="6.78394">
        <ele>316</ele>
        <time>2016-10-01T16:28:02.001Z</time>
      </trkpt>
      <trkpt lat="47.50977" lon="6.78386">
        <ele>316</ele>
        <time>2016-10-01T16:28:03.000Z</time>
      </trkpt>
      <trkpt lat="47.50976" lon="6.78382">
        <ele>316</ele>
        <time>2016-10-01T16:28:04.000Z</time>
      </trkpt>
      <trkpt lat="47.50976" lon="6.78376">
        <ele>316</ele>
        <time>2016-10-01T16:28:05.000Z</time>
      </trkpt>
      <trkpt lat="47.50975" lon="6.78371">
        <ele>316</ele>
        <time>2016-10-01T16:28:06.000Z</time>
      </trkpt>
      <trkpt lat="47.50976" lon="6.78364">
        <ele>316</ele>
        <time>2016-10-01T16:28:07.000Z</time>
      </trkpt>
      <trkpt lat="47.50977" lon="6.78359">
        <ele>316</ele>
        <time>2016-10-01T16:28:08.000Z</time>
      </trkpt>
      <trkpt lat="47.50977" lon="6.78353">
        <ele>316</ele>
        <time>2016-10-01T16:28:09.000Z</time>
      </trkpt>
      <trkpt lat="47.50977" lon="6.78349">
        <ele>316</ele>
        <time>2016-10-01T16:28:10.000Z</time>
      </trkpt>
      <trkpt lat="47.50978" lon="6.78343">
        <ele>316</ele>
        <time>2016-10-01T16:28:11.000Z</time>
      </trkpt>
      <trkpt lat="47.50978" lon="6.78338">
        <ele>316</ele>
        <time>2016-10-01T16:28:12.000Z</time>
      </trkpt>
      <trkpt lat="47.50979" lon="6.78333">
        <ele>316</ele>
        <time>2016-10-01T16:28:13.000Z</time>
      </trkpt>
      <trkpt lat="47.50979" lon="6.78328">
        <ele>316</ele>
        <time>2016-10-01T16:28:14.000Z</time>
      </trkpt>
      <trkpt lat="47.50979" lon="6.78319">
        <ele>316</ele>
        <time>2016-10-01T16:28:15.000Z</time>
      </trkpt>
      <trkpt lat="47.50981" lon="6.78311">
        <ele>316</ele>
        <time>2016-10-01T16:28:16.000Z</time>
      </trkpt>
      <trkpt lat="47.50982" lon="6.78304">
        <ele>316</ele>
        <time>2016-10-01T16:28:17.000Z</time>
      </trkpt>
      <trkpt lat="47.50981" lon="6.78298">
        <ele>316</ele>
        <time>2016-10-01T16:28:18.000Z</time>
      </trkpt>
      <trkpt lat="47.50981" lon="6.78292">
        <ele>316</ele>
        <time>2016-10-01T16:28:19.000Z</time>
      </trkpt>
      <trkpt lat="47.50981" lon="6.78283">
        <ele>316</ele>
        <time>2016-10-01T16:28:20.000Z</time>
      </trkpt>
      <trkpt lat="47.50981" lon="6.78276">
        <ele>316</ele>
        <time>2016-10-01T16:28:21.000Z</time>
      </trkpt>
      <trkpt lat="47.50983" lon="6.78267">
        <ele>316</ele>
        <time>2016-10-01T16:28:22.000Z</time>
      </trkpt>
      <trkpt lat="47.50984" lon="6.78258">
        <ele>316</ele>
        <time>2016-10-01T16:28:23.000Z</time>
      </trkpt>
      <trkpt lat="47.50985" lon="6.78247">
        <ele>316</ele>
        <time>2016-10-01T16:28:24.000Z</time>
      </trkpt>
      <trkpt lat="47.50986" lon="6.78239">
        <ele>316</ele>
        <time>2016-10-01T16:28:25.000Z</time>
      </trkpt>
      <trkpt lat="47.50987" lon="6.78232">
        <ele>316</ele>
        <time>2016-10-01T16:28:26.000Z</time>
      </trkpt>
      <trkpt lat="47.50986" lon="6.78225">
        <ele>316</ele>
        <time>2016-10-01T16:28:27.000Z</time>
      </trkpt>
      <trkpt lat="47.50987" lon="6.78219">
        <ele>316</ele>
        <time>2016-10-01T16:28:28.000Z</time>
      </trkpt>
      <trkpt lat="47.50987" lon="6.78212">
        <ele>316</ele>
        <time>2016-10-01T16:28:29.000Z</time>
      </trkpt>
      <trkpt lat="47.50987" lon="6.78204">
        <ele>316</ele>
        <time>2016-10-01T16:28:30.000Z</time>
      </trkpt>
      <trkpt lat="47.50987" lon="6.78195">
        <ele>316</ele>
        <time>2016-10-01T16:28:31.000Z</time>
      </trkpt>
      <trkpt lat="47.50988" lon="6.7819">
        <ele>316</ele>
        <time>2016-10-01T16:28:32.000Z</time>
      </trkpt>
      <trkpt lat="47.50987" lon="6.78183">
        <ele>316</ele>
        <time>2016-10-01T16:28:33.000Z</time>
      </trkpt>
      <trkpt lat="47.50989" lon="6.78174">
        <ele>316</ele>
        <time>2016-10-01T16:28:34.000Z</time>
      </trkpt>
      <trkpt lat="47.5099" lon="6.78165">
        <ele>316</ele>
        <time>2016-10-01T16:28:35.000Z</time>
      </trkpt>
      <trkpt lat="47.50989" lon="6.78159">
        <ele>316</ele>
        <time>2016-10-01T16:28:36.000Z</time>
      </trkpt>
      <trkpt lat="47.50988" lon="6.78156">
        <ele>316</ele>
        <time>2016-10-01T16:28:37.000Z</time>
      </trkpt>
      <trkpt lat="47.50988" lon="6.78153">
        <ele>316</ele>
        <time>2016-10-01T16:28:38.000Z</time>
      </trkpt>
      <trkpt lat="47.50987" lon="6.78149">
        <ele>316</ele>
        <time>2016-10-01T16:28:39.000Z</time>
      </trkpt>
      <trkpt lat="47.50989" lon="6.78148">
        <ele>316</ele>
        <time>2016-10-01T16:28:40.000Z</time>
      </trkpt>
      <trkpt lat="47.50998" lon="6.78151">
        <ele>316</ele>
        <time>2016-10-01T16:28:41.000Z</time>
      </trkpt>
      <trkpt lat="47.51003" lon="6.78153">
        <ele>317</ele>
        <time>2016-10-01T16:28:42.000Z</time>
      </trkpt>
      <trkpt lat="47.51008" lon="6.78152">
        <ele>317</ele>
        <time>2016-10-01T16:28:43.000Z</time>
      </trkpt>
      <trkpt lat="47.51012" lon="6.78153">
        <ele>317</ele>
        <time>2016-10-01T16:28:44.000Z</time>
      </trkpt>
      <trkpt lat="47.51017" lon="6.78155">
        <ele>318</ele>
        <time>2016-10-01T16:28:45.000Z</time>
      </trkpt>
      <trkpt lat="47.51023" lon="6.78157">
        <ele>318</ele>
        <time>2016-10-01T16:28:46.000Z</time>
      </trkpt>
      <trkpt lat="47.51027" lon="6.7816">
        <ele>318</ele>
        <time>2016-10-01T16:28:47.000Z</time>
      </trkpt>
      <trkpt lat="47.51031" lon="6.78162">
        <ele>318</ele>
        <time>2016-10-01T16:28:48.000Z</time>
      </trkpt>
      <trkpt lat="47.51033" lon="6.78163">
        <ele>318</ele>
        <time>2016-10-01T16:28:49.000Z</time>
      </trkpt>
      <trkpt lat="47.51037" lon="6.78165">
        <ele>318</ele>
        <time>2016-10-01T16:28:50.000Z</time>
      </trkpt>
      <trkpt lat="47.51041" lon="6.78165">
        <ele>319</ele>
        <time>2016-10-01T16:28:51.000Z</time>
      </trkpt>
      <trkpt lat="47.51042" lon="6.78164">
        <ele>319</ele>
        <time>2016-10-01T16:28:52.000Z</time>
      </trkpt>
      <trkpt lat="47.51046" lon="6.78163">
        <ele>319</ele>
        <time>2016-10-01T16:28:53.000Z</time>
      </trkpt>
      <trkpt lat="47.51049" lon="6.78164">
        <ele>319</ele>
        <time>2016-10-01T16:28:54.000Z</time>
      </trkpt>
      <trkpt lat="47.51053" lon="6.78163">
        <ele>319</ele>
        <time>2016-10-01T16:28:55.000Z</time>
      </trkpt>
      <trkpt lat="47.51055" lon="6.78162">
        <ele>319</ele>
        <time>2016-10-01T16:28:56.000Z</time>
      </trkpt>
      <trkpt lat="47.51057" lon="6.78161">
        <ele>319</ele>
        <time>2016-10-01T16:28:57.000Z</time>
      </trkpt>
      <trkpt lat="47.5106" lon="6.78162">
        <ele>319</ele>
        <time>2016-10-01T16:28:58.000Z</time>
      </trkpt>
      <trkpt lat="47.51064" lon="6.78162">
        <ele>320</ele>
        <time>2016-10-01T16:28:59.000Z</time>
      </trkpt>
      <trkpt lat="47.51068" lon="6.78162">
        <ele>320</ele>
        <time>2016-10-01T16:29:00.000Z</time>
      </trkpt>
      <trkpt lat="47.51072" lon="6.78163">
        <ele>320</ele>
        <time>2016-10-01T16:29:01.000Z</time>
      </trkpt>
      <trkpt lat="47.51076" lon="6.78164">
        <ele>320</ele>
        <time>2016-10-01T16:29:02.000Z</time>
      </trkpt>
      <trkpt lat="47.5108" lon="6.78165">
        <ele>321</ele>
        <time>2016-10-01T16:29:03.000Z</time>
      </trkpt>
      <trkpt lat="47.51084" lon="6.78167">
        <ele>321</ele>
        <time>2016-10-01T16:29:04.000Z</time>
      </trkpt>
      <trkpt lat="47.51087" lon="6.78169">
        <ele>322</ele>
        <time>2016-10-01T16:29:05.000Z</time>
      </trkpt>
      <trkpt lat="47.51091" lon="6.7817">
        <ele>322</ele>
        <time>2016-10-01T16:29:06.000Z</time>
      </trkpt>
      <trkpt lat="47.51094" lon="6.78171">
        <ele>323</ele>
        <time>2016-10-01T16:29:07.000Z</time>
      </trkpt>
      <trkpt lat="47.51097" lon="6.78173">
        <ele>323</ele>
        <time>2016-10-01T16:29:08.000Z</time>
      </trkpt>
      <trkpt lat="47.51101" lon="6.78174">
        <ele>323</ele>
        <time>2016-10-01T16:29:09.000Z</time>
      </trkpt>
      <trkpt lat="47.51104" lon="6.78175">
        <ele>324</ele>
        <time>2016-10-01T16:29:10.000Z</time>
      </trkpt>
      <trkpt lat="47.51107" lon="6.78176">
        <ele>324</ele>
        <time>2016-10-01T16:29:11.000Z</time>
      </trkpt>
      <trkpt lat="47.5111" lon="6.78177">
        <ele>324</ele>
        <time>2016-10-01T16:29:12.000Z</time>
      </trkpt>
      <trkpt lat="47.51112" lon="6.78178">
        <ele>324</ele>
        <time>2016-10-01T16:29:13.000Z</time>
      </trkpt>
      <trkpt lat="47.51118" lon="6.78179">
        <ele>325</ele>
        <time>2016-10-01T16:29:14.000Z</time>
      </trkpt>
      <trkpt lat="47.51121" lon="6.7818">
        <ele>325</ele>
        <time>2016-10-01T16:29:15.000Z</time>
      </trkpt>
      <trkpt lat="47.51122" lon="6.78181">
        <ele>325</ele>
        <time>2016-10-01T16:29:16.000Z</time>
      </trkpt>
      <trkpt lat="47.51126" lon="6.78184">
        <ele>325</ele>
        <time>2016-10-01T16:29:18.000Z</time>
      </trkpt>
      <trkpt lat="47.51128" lon="6.78184">
        <ele>325</ele>
        <time>2016-10-01T16:29:19.000Z</time>
      </trkpt>
      <trkpt lat="47.51131" lon="6.7818">
        <ele>326</ele>
        <time>2016-10-01T16:29:21.000Z</time>
      </trkpt>
      <trkpt lat="47.51133" lon="6.78177">
        <ele>326</ele>
        <time>2016-10-01T16:29:22.000Z</time>
      </trkpt>
      <trkpt lat="47.51136" lon="6.78174">
        <ele>326</ele>
        <time>2016-10-01T16:29:23.000Z</time>
      </trkpt>
      <trkpt lat="47.51138" lon="6.7817">
        <ele>326</ele>
        <time>2016-10-01T16:29:24.000Z</time>
      </trkpt>
      <trkpt lat="47.51141" lon="6.78165">
        <ele>326</ele>
        <time>2016-10-01T16:29:26.000Z</time>
      </trkpt>
      <trkpt lat="47.51142" lon="6.78164">
        <ele>326</ele>
        <time>2016-10-01T16:29:27.000Z</time>
      </trkpt>
      <trkpt lat="47.51144" lon="6.78161">
        <ele>326</ele>
        <time>2016-10-01T16:29:28.000Z</time>
      </trkpt>
      <trkpt lat="47.51148" lon="6.78156">
        <ele>326</ele>
        <time>2016-10-01T16:29:29.000Z</time>
      </trkpt>
      <trkpt lat="47.51151" lon="6.78152">
        <ele>326</ele>
        <time>2016-10-01T16:29:30.000Z</time>
      </trkpt>
      <trkpt lat="47.51151" lon="6.78149">
        <ele>326</ele>
        <time>2016-10-01T16:29:31.000Z</time>
      </trkpt>
      <trkpt lat="47.51153" lon="6.78146">
        <ele>326</ele>
        <time>2016-10-01T16:29:32.000Z</time>
      </trkpt>
      <trkpt lat="47.51154" lon="6.78143">
        <ele>326</ele>
        <time>2016-10-01T16:29:33.000Z</time>
      </trkpt>
      <trkpt lat="47.51155" lon="6.7814">
        <ele>326</ele>
        <time>2016-10-01T16:29:34.000Z</time>
      </trkpt>
      <trkpt lat="47.51158" lon="6.78135">
        <ele>326</ele>
        <time>2016-10-01T16:29:35.000Z</time>
      </trkpt>
      <trkpt lat="47.51159" lon="6.78132">
        <ele>326</ele>
        <time>2016-10-01T16:29:36.000Z</time>
      </trkpt>
      <trkpt lat="47.5116" lon="6.78128">
        <ele>326</ele>
        <time>2016-10-01T16:29:37.000Z</time>
      </trkpt>
      <trkpt lat="47.51162" lon="6.78124">
        <ele>326</ele>
        <time>2016-10-01T16:29:38.001Z</time>
      </trkpt>
      <trkpt lat="47.51163" lon="6.7812">
        <ele>326</ele>
        <time>2016-10-01T16:29:39.000Z</time>
      </trkpt>
      <trkpt lat="47.51165" lon="6.78114">
        <ele>326</ele>
        <time>2016-10-01T16:29:41.000Z</time>
      </trkpt>
      <trkpt lat="47.51165" lon="6.78112">
        <ele>326</ele>
        <time>2016-10-01T16:29:42.000Z</time>
      </trkpt>
      <trkpt lat="47.51167" lon="6.78107">
        <ele>331</ele>
        <time>2016-10-01T16:29:44.000Z</time>
      </trkpt>
      <trkpt lat="47.51169" lon="6.78106">
        <ele>331</ele>
        <time>2016-10-01T16:29:45.000Z</time>
      </trkpt>
      <trkpt lat="47.51171" lon="6.78104">
        <ele>331</ele>
        <time>2016-10-01T16:29:46.000Z</time>
      </trkpt>
      <trkpt lat="47.51173" lon="6.78101">
        <ele>331</ele>
        <time>2016-10-01T16:29:47.000Z</time>
      </trkpt>
      <trkpt lat="47.51175" lon="6.78098">
        <ele>331</ele>
        <time>2016-10-01T16:29:48.000Z</time>
      </trkpt>
      <trkpt lat="47.51176" lon="6.78095">
        <ele>330</ele>
        <time>2016-10-01T16:29:49.000Z</time>
      </trkpt>
      <trkpt lat="47.51177" lon="6.7809">
        <ele>330</ele>
        <time>2016-10-01T16:29:50.000Z</time>
      </trkpt>
      <trkpt lat="47.51178" lon="6.78086">
        <ele>330</ele>
        <time>2016-10-01T16:29:51.000Z</time>
      </trkpt>
      <trkpt lat="47.5118" lon="6.78082">
        <ele>329</ele>
        <time>2016-10-01T16:29:52.000Z</time>
      </trkpt>
      <trkpt lat="47.51181" lon="6.78077">
        <ele>330</ele>
        <time>2016-10-01T16:29:53.000Z</time>
      </trkpt>
      <trkpt lat="47.51182" lon="6.78073">
        <ele>330</ele>
        <time>2016-10-01T16:29:54.000Z</time>
      </trkpt>
      <trkpt lat="47.51183" lon="6.78067">
        <ele>330</ele>
        <time>2016-10-01T16:29:55.000Z</time>
      </trkpt>
      <trkpt lat="47.51184" lon="6.78062">
        <ele>330</ele>
        <time>2016-10-01T16:29:56.000Z</time>
      </trkpt>
      <trkpt lat="47.51186" lon="6.78058">
        <ele>330</ele>
        <time>2016-10-01T16:29:57.000Z</time>
      </trkpt>
      <trkpt lat="47.51187" lon="6.78053">
        <ele>330</ele>
        <time>2016-10-01T16:29:58.000Z</time>
      </trkpt>
      <trkpt lat="47.51188" lon="6.78048">
        <ele>330</ele>
        <time>2016-10-01T16:29:59.000Z</time>
      </trkpt>
      <trkpt lat="47.51192" lon="6.78037">
        <ele>330</ele>
        <time>2016-10-01T16:30:00.000Z</time>
      </trkpt>
      <trkpt lat="47.51195" lon="6.78032">
        <ele>331</ele>
        <time>2016-10-01T16:30:01.000Z</time>
      </trkpt>
      <trkpt lat="47.51195" lon="6.78029">
        <ele>330</ele>
        <time>2016-10-01T16:30:02.000Z</time>
      </trkpt>
      <trkpt lat="47.51198" lon="6.78023">
        <ele>331</ele>
        <time>2016-10-01T16:30:03.000Z</time>
      </trkpt>
      <trkpt lat="47.51201" lon="6.78019">
        <ele>331</ele>
        <time>2016-10-01T16:30:04.000Z</time>
      </trkpt>
      <trkpt lat="47.51204" lon="6.78015">
        <ele>331</ele>
        <time>2016-10-01T16:30:05.000Z</time>
      </trkpt>
      <trkpt lat="47.51205" lon="6.78009">
        <ele>331</ele>
        <time>2016-10-01T16:30:06.000Z</time>
      </trkpt>
      <trkpt lat="47.51207" lon="6.78006">
        <ele>331</ele>
        <time>2016-10-01T16:30:07.001Z</time>
      </trkpt>
      <trkpt lat="47.51208" lon="6.78002">
        <ele>331</ele>
        <time>2016-10-01T16:30:08.000Z</time>
      </trkpt>
      <trkpt lat="47.51209" lon="6.77997">
        <ele>330</ele>
        <time>2016-10-01T16:30:09.000Z</time>
      </trkpt>
      <trkpt lat="47.5121" lon="6.77994">
        <ele>330</ele>
        <time>2016-10-01T16:30:10.000Z</time>
      </trkpt>
      <trkpt lat="47.5121" lon="6.77988">
        <ele>330</ele>
        <time>2016-10-01T16:30:11.001Z</time>
      </trkpt>
      <trkpt lat="47.51212" lon="6.77984">
        <ele>330</ele>
        <time>2016-10-01T16:30:12.000Z</time>
      </trkpt>
      <trkpt lat="47.51214" lon="6.77981">
        <ele>330</ele>
        <time>2016-10-01T16:30:13.000Z</time>
      </trkpt>
      <trkpt lat="47.51215" lon="6.77977">
        <ele>330</ele>
        <time>2016-10-01T16:30:14.000Z</time>
      </trkpt>
      <trkpt lat="47.51217" lon="6.77974">
        <ele>330</ele>
        <time>2016-10-01T16:30:15.000Z</time>
      </trkpt>
      <trkpt lat="47.51218" lon="6.7797">
        <ele>330</ele>
        <time>2016-10-01T16:30:16.000Z</time>
      </trkpt>
      <trkpt lat="47.5122" lon="6.77965">
        <ele>330</ele>
        <time>2016-10-01T16:30:17.000Z</time>
      </trkpt>
      <trkpt lat="47.51221" lon="6.7796">
        <ele>330</ele>
        <time>2016-10-01T16:30:18.000Z</time>
      </trkpt>
      <trkpt lat="47.51222" lon="6.77955">
        <ele>330</ele>
        <time>2016-10-01T16:30:19.000Z</time>
      </trkpt>
      <trkpt lat="47.51222" lon="6.7795">
        <ele>330</ele>
        <time>2016-10-01T16:30:20.000Z</time>
      </trkpt>
      <trkpt lat="47.51223" lon="6.77945">
        <ele>330</ele>
        <time>2016-10-01T16:30:21.000Z</time>
      </trkpt>
      <trkpt lat="47.51223" lon="6.7794">
        <ele>330</ele>
        <time>2016-10-01T16:30:22.000Z</time>
      </trkpt>
      <trkpt lat="47.51225" lon="6.77935">
        <ele>330</ele>
        <time>2016-10-01T16:30:23.000Z</time>
      </trkpt>
      <trkpt lat="47.51226" lon="6.7793">
        <ele>330</ele>
        <time>2016-10-01T16:30:24.001Z</time>
      </trkpt>
      <trkpt lat="47.51228" lon="6.77922">
        <ele>330</ele>
        <time>2016-10-01T16:30:25.001Z</time>
      </trkpt>
      <trkpt lat="47.51229" lon="6.77916">
        <ele>329</ele>
        <time>2016-10-01T16:30:26.000Z</time>
      </trkpt>
      <trkpt lat="47.5123" lon="6.77909">
        <ele>329</ele>
        <time>2016-10-01T16:30:27.000Z</time>
      </trkpt>
      <trkpt lat="47.51231" lon="6.77902">
        <ele>329</ele>
        <time>2016-10-01T16:30:28.000Z</time>
      </trkpt>
      <trkpt lat="47.51232" lon="6.77897">
        <ele>329</ele>
        <time>2016-10-01T16:30:29.000Z</time>
      </trkpt>
      <trkpt lat="47.51232" lon="6.77893">
        <ele>329</ele>
        <time>2016-10-01T16:30:30.000Z</time>
      </trkpt>
      <trkpt lat="47.51232" lon="6.77889">
        <ele>329</ele>
        <time>2016-10-01T16:30:31.000Z</time>
      </trkpt>
      <trkpt lat="47.51232" lon="6.77885">
        <ele>329</ele>
        <time>2016-10-01T16:30:32.000Z</time>
      </trkpt>
      <trkpt lat="47.51232" lon="6.77882">
        <ele>329</ele>
        <time>2016-10-01T16:30:33.000Z</time>
      </trkpt>
      <trkpt lat="47.51233" lon="6.77877">
        <ele>329</ele>
        <time>2016-10-01T16:30:34.000Z</time>
      </trkpt>
      <trkpt lat="47.51234" lon="6.77872">
        <ele>329</ele>
        <time>2016-10-01T16:30:35.000Z</time>
      </trkpt>
      <trkpt lat="47.51235" lon="6.77867">
        <ele>329</ele>
        <time>2016-10-01T16:30:36.000Z</time>
      </trkpt>
      <trkpt lat="47.51236" lon="6.77861">
        <ele>329</ele>
        <time>2016-10-01T16:30:37.000Z</time>
      </trkpt>
      <trkpt lat="47.51237" lon="6.77855">
        <ele>329</ele>
        <time>2016-10-01T16:30:38.000Z</time>
      </trkpt>
      <trkpt lat="47.51238" lon="6.77849">
        <ele>329</ele>
        <time>2016-10-01T16:30:39.000Z</time>
      </trkpt>
      <trkpt lat="47.51238" lon="6.77843">
        <ele>329</ele>
        <time>2016-10-01T16:30:40.000Z</time>
      </trkpt>
      <trkpt lat="47.51239" lon="6.77837">
        <ele>329</ele>
        <time>2016-10-01T16:30:41.000Z</time>
      </trkpt>
      <trkpt lat="47.5124" lon="6.77832">
        <ele>329</ele>
        <time>2016-10-01T16:30:42.000Z</time>
      </trkpt>
      <trkpt lat="47.51241" lon="6.77827">
        <ele>329</ele>
        <time>2016-10-01T16:30:43.000Z</time>
      </trkpt>
      <trkpt lat="47.51241" lon="6.77822">
        <ele>329</ele>
        <time>2016-10-01T16:30:44.000Z</time>
      </trkpt>
      <trkpt lat="47.51242" lon="6.77817">
        <ele>328</ele>
        <time>2016-10-01T16:30:45.000Z</time>
      </trkpt>
      <trkpt lat="47.51243" lon="6.77812">
        <ele>328</ele>
        <time>2016-10-01T16:30:46.000Z</time>
      </trkpt>
      <trkpt lat="47.51243" lon="6.77806">
        <ele>328</ele>
        <time>2016-10-01T16:30:47.000Z</time>
      </trkpt>
      <trkpt lat="47.51244" lon="6.77801">
        <ele>328</ele>
        <time>2016-10-01T16:30:48.000Z</time>
      </trkpt>
      <trkpt lat="47.51245" lon="6.77796">
        <ele>328</ele>
        <time>2016-10-01T16:30:49.000Z</time>
      </trkpt>
      <trkpt lat="47.51246" lon="6.77791">
        <ele>328</ele>
        <time>2016-10-01T16:30:50.000Z</time>
      </trkpt>
      <trkpt lat="47.51247" lon="6.77787">
        <ele>328</ele>
        <time>2016-10-01T16:30:51.000Z</time>
      </trkpt>
      <trkpt lat="47.51249" lon="6.77783">
        <ele>328</ele>
        <time>2016-10-01T16:30:52.000Z</time>
      </trkpt>
      <trkpt lat="47.51251" lon="6.77781">
        <ele>333</ele>
        <time>2016-10-01T16:30:53.000Z</time>
      </trkpt>
      <trkpt lat="47.51253" lon="6.7778">
        <ele>333</ele>
        <time>2016-10-01T16:30:54.000Z</time>
      </trkpt>
      <trkpt lat="47.51255" lon="6.77779">
        <ele>333</ele>
        <time>2016-10-01T16:30:55.000Z</time>
      </trkpt>
      <trkpt lat="47.51258" lon="6.7778">
        <ele>334</ele>
        <time>2016-10-01T16:30:56.000Z</time>
      </trkpt>
      <trkpt lat="47.5126" lon="6.77779">
        <ele>334</ele>
        <time>2016-10-01T16:30:56.999Z</time>
      </trkpt>
      <trkpt lat="47.51264" lon="6.77781">
        <ele>334</ele>
        <time>2016-10-01T16:30:58.000Z</time>
      </trkpt>
      <trkpt lat="47.51268" lon="6.77781">
        <ele>334</ele>
        <time>2016-10-01T16:30:59.000Z</time>
      </trkpt>
      <trkpt lat="47.51271" lon="6.77781">
        <ele>335</ele>
        <time>2016-10-01T16:31:00.000Z</time>
      </trkpt>
      <trkpt lat="47.51275" lon="6.77781">
        <ele>335</ele>
        <time>2016-10-01T16:31:01.000Z</time>
      </trkpt>
      <trkpt lat="47.51279" lon="6.77781">
        <ele>335</ele>
        <time>2016-10-01T16:31:02.000Z</time>
      </trkpt>
      <trkpt lat="47.51282" lon="6.77781">
        <ele>335</ele>
        <time>2016-10-01T16:31:03.000Z</time>
      </trkpt>
      <trkpt lat="47.51285" lon="6.77781">
        <ele>336</ele>
        <time>2016-10-01T16:31:04.000Z</time>
      </trkpt>
      <trkpt lat="47.51288" lon="6.77782">
        <ele>336</ele>
        <time>2016-10-01T16:31:05.000Z</time>
      </trkpt>
      <trkpt lat="47.5129" lon="6.77781">
        <ele>336</ele>
        <time>2016-10-01T16:31:06.000Z</time>
      </trkpt>
      <trkpt lat="47.51294" lon="6.77781">
        <ele>336</ele>
        <time>2016-10-01T16:31:08.000Z</time>
      </trkpt>
      <trkpt lat="47.51296" lon="6.7778">
        <ele>337</ele>
        <time>2016-10-01T16:31:09.000Z</time>
      </trkpt>
      <trkpt lat="47.513" lon="6.77777">
        <ele>337</ele>
        <time>2016-10-01T16:31:13.000Z</time>
      </trkpt>
      <trkpt lat="47.51302" lon="6.77776">
        <ele>337</ele>
        <time>2016-10-01T16:31:14.000Z</time>
      </trkpt>
      <trkpt lat="47.51304" lon="6.77775">
        <ele>337</ele>
        <time>2016-10-01T16:31:15.000Z</time>
      </trkpt>
      <trkpt lat="47.51307" lon="6.77775">
        <ele>338</ele>
        <time>2016-10-01T16:31:16.000Z</time>
      </trkpt>
      <trkpt lat="47.51309" lon="6.77774">
        <ele>338</ele>
        <time>2016-10-01T16:31:17.000Z</time>
      </trkpt>
      <trkpt lat="47.51312" lon="6.77775">
        <ele>338</ele>
        <time>2016-10-01T16:31:18.000Z</time>
      </trkpt>
      <trkpt lat="47.51314" lon="6.77775">
        <ele>338</ele>
        <time>2016-10-01T16:31:19.000Z</time>
      </trkpt>
      <trkpt lat="47.51317" lon="6.77776">
        <ele>338</ele>
        <time>2016-10-01T16:31:20.000Z</time>
      </trkpt>
      <trkpt lat="47.51319" lon="6.77777">
        <ele>339</ele>
        <time>2016-10-01T16:31:21.000Z</time>
      </trkpt>
      <trkpt lat="47.51322" lon="6.77778">
        <ele>339</ele>
        <time>2016-10-01T16:31:22.000Z</time>
      </trkpt>
      <trkpt lat="47.51325" lon="6.77779">
        <ele>339</ele>
        <time>2016-10-01T16:31:23.000Z</time>
      </trkpt>
      <trkpt lat="47.51327" lon="6.77779">
        <ele>339</ele>
        <time>2016-10-01T16:31:24.000Z</time>
      </trkpt>
      <trkpt lat="47.51329" lon="6.77781">
        <ele>339</ele>
        <time>2016-10-01T16:31:25.000Z</time>
      </trkpt>
      <trkpt lat="47.51332" lon="6.77782">
        <ele>339</ele>
        <time>2016-10-01T16:31:26.000Z</time>
      </trkpt>
      <trkpt lat="47.51334" lon="6.77783">
        <ele>348</ele>
        <time>2016-10-01T16:31:27.000Z</time>
      </trkpt>
      <trkpt lat="47.51336" lon="6.77784">
        <ele>348</ele>
        <time>2016-10-01T16:31:28.000Z</time>
      </trkpt>
      <trkpt lat="47.51339" lon="6.77782">
        <ele>348</ele>
        <time>2016-10-01T16:31:31.000Z</time>
      </trkpt>
      <trkpt lat="47.5134" lon="6.77781">
        <ele>348</ele>
        <time>2016-10-01T16:31:32.000Z</time>
      </trkpt>
      <trkpt lat="47.51344" lon="6.77777">
        <ele>348</ele>
        <time>2016-10-01T16:31:34.000Z</time>
      </trkpt>
      <trkpt lat="47.51346" lon="6.77775">
        <ele>348</ele>
        <time>2016-10-01T16:31:35.000Z</time>
      </trkpt>
      <trkpt lat="47.51348" lon="6.77774">
        <ele>348</ele>
        <time>2016-10-01T16:31:36.000Z</time>
      </trkpt>
      <trkpt lat="47.51351" lon="6.77772">
        <ele>348</ele>
        <time>2016-10-01T16:31:37.000Z</time>
      </trkpt>
      <trkpt lat="47.51353" lon="6.77771">
        <ele>349</ele>
        <time>2016-10-01T16:31:38.000Z</time>
      </trkpt>
      <trkpt lat="47.51355" lon="6.7777">
        <ele>349</ele>
        <time>2016-10-01T16:31:39.000Z</time>
      </trkpt>
      <trkpt lat="47.51358" lon="6.77769">
        <ele>349</ele>
        <time>2016-10-01T16:31:40.000Z</time>
      </trkpt>
      <trkpt lat="47.5136" lon="6.77768">
        <ele>349</ele>
        <time>2016-10-01T16:31:41.000Z</time>
      </trkpt>
      <trkpt lat="47.51364" lon="6.77765">
        <ele>350</ele>
        <time>2016-10-01T16:31:43.000Z</time>
      </trkpt>
      <trkpt lat="47.51366" lon="6.77763">
        <ele>350</ele>
        <time>2016-10-01T16:31:44.000Z</time>
      </trkpt>
      <trkpt lat="47.51369" lon="6.77759">
        <ele>350</ele>
        <time>2016-10-01T16:31:46.000Z</time>
      </trkpt>
      <trkpt lat="47.5137" lon="6.77758">
        <ele>350</ele>
        <time>2016-10-01T16:31:47.000Z</time>
      </trkpt>
      <trkpt lat="47.51373" lon="6.77754">
        <ele>351</ele>
        <time>2016-10-01T16:31:49.000Z</time>
      </trkpt>
      <trkpt lat="47.51374" lon="6.77752">
        <ele>351</ele>
        <time>2016-10-01T16:31:50.000Z</time>
      </trkpt>
      <trkpt lat="47.51378" lon="6.77751">
        <ele>351</ele>
        <time>2016-10-01T16:31:52.000Z</time>
      </trkpt>
      <trkpt lat="47.5138" lon="6.7775">
        <ele>351</ele>
        <time>2016-10-01T16:31:53.000Z</time>
      </trkpt>
      <trkpt lat="47.51382" lon="6.7775">
        <ele>352</ele>
        <time>2016-10-01T16:31:54.000Z</time>
      </trkpt>
      <trkpt lat="47.51385" lon="6.7775">
        <ele>352</ele>
        <time>2016-10-01T16:31:55.000Z</time>
      </trkpt>
      <trkpt lat="47.51389" lon="6.77752">
        <ele>352</ele>
        <time>2016-10-01T16:31:57.000Z</time>
      </trkpt>
      <trkpt lat="47.5139" lon="6.77752">
        <ele>352</ele>
        <time>2016-10-01T16:31:58.000Z</time>
      </trkpt>
      <trkpt lat="47.51393" lon="6.77752">
        <ele>353</ele>
        <time>2016-10-01T16:32:01.000Z</time>
      </trkpt>
      <trkpt lat="47.51394" lon="6.77752">
        <ele>353</ele>
        <time>2016-10-01T16:32:02.000Z</time>
      </trkpt>
      <trkpt lat="47.51398" lon="6.7775">
        <ele>355</ele>
        <time>2016-10-01T16:32:03.000Z</time>
      </trkpt>
      <trkpt lat="47.514" lon="6.77749">
        <ele>356</ele>
        <time>2016-10-01T16:32:04.000Z</time>
      </trkpt>
      <trkpt lat="47.51404" lon="6.77747">
        <ele>356</ele>
        <time>2016-10-01T16:32:06.001Z</time>
      </trkpt>
      <trkpt lat="47.51405" lon="6.77745">
        <ele>356</ele>
        <time>2016-10-01T16:32:07.000Z</time>
      </trkpt>
      <trkpt lat="47.51407" lon="6.77744">
        <ele>356</ele>
        <time>2016-10-01T16:32:08.000Z</time>
      </trkpt>
      <trkpt lat="47.5141" lon="6.77742">
        <ele>356</ele>
        <time>2016-10-01T16:32:09.000Z</time>
      </trkpt>
      <trkpt lat="47.51412" lon="6.7774">
        <ele>356</ele>
        <time>2016-10-01T16:32:10.000Z</time>
      </trkpt>
      <trkpt lat="47.51414" lon="6.77738">
        <ele>356</ele>
        <time>2016-10-01T16:32:11.000Z</time>
      </trkpt>
      <trkpt lat="47.51418" lon="6.77736">
        <ele>361</ele>
        <time>2016-10-01T16:32:13.000Z</time>
      </trkpt>
      <trkpt lat="47.5142" lon="6.77735">
        <ele>361</ele>
        <time>2016-10-01T16:32:14.000Z</time>
      </trkpt>
      <trkpt lat="47.51423" lon="6.77736">
        <ele>361</ele>
        <time>2016-10-01T16:32:16.000Z</time>
      </trkpt>
      <trkpt lat="47.51424" lon="6.77736">
        <ele>361</ele>
        <time>2016-10-01T16:32:17.000Z</time>
      </trkpt>
      <trkpt lat="47.51428" lon="6.77735">
        <ele>362</ele>
        <time>2016-10-01T16:32:19.000Z</time>
      </trkpt>
      <trkpt lat="47.5143" lon="6.77734">
        <ele>362</ele>
        <time>2016-10-01T16:32:20.000Z</time>
      </trkpt>
      <trkpt lat="47.51433" lon="6.77732">
        <ele>363</ele>
        <time>2016-10-01T16:32:22.000Z</time>
      </trkpt>
      <trkpt lat="47.51435" lon="6.77732">
        <ele>363</ele>
        <time>2016-10-01T16:32:23.000Z</time>
      </trkpt>
      <trkpt lat="47.51438" lon="6.77732">
        <ele>363</ele>
        <time>2016-10-01T16:32:25.000Z</time>
      </trkpt>
      <trkpt lat="47.5144" lon="6.77732">
        <ele>363</ele>
        <time>2016-10-01T16:32:26.000Z</time>
      </trkpt>
      <trkpt lat="47.51444" lon="6.77731">
        <ele>364</ele>
        <time>2016-10-01T16:32:28.000Z</time>
      </trkpt>
      <trkpt lat="47.51445" lon="6.7773">
        <ele>364</ele>
        <time>2016-10-01T16:32:29.000Z</time>
      </trkpt>
      <trkpt lat="47.51449" lon="6.7773">
        <ele>364</ele>
        <time>2016-10-01T16:32:31.000Z</time>
      </trkpt>
      <trkpt lat="47.51451" lon="6.77731">
        <ele>364</ele>
        <time>2016-10-01T16:32:32.000Z</time>
      </trkpt>
      <trkpt lat="47.51454" lon="6.77733">
        <ele>365</ele>
        <time>2016-10-01T16:32:34.000Z</time>
      </trkpt>
      <trkpt lat="47.51456" lon="6.77733">
        <ele>365</ele>
        <time>2016-10-01T16:32:35.000Z</time>
      </trkpt>
      <trkpt lat="47.51459" lon="6.77731">
        <ele>365</ele>
        <time>2016-10-01T16:32:37.000Z</time>
      </trkpt>
      <trkpt lat="47.51461" lon="6.7773">
        <ele>365</ele>
        <time>2016-10-01T16:32:38.000Z</time>
      </trkpt>
      <trkpt lat="47.51465" lon="6.7773">
        <ele>365</ele>
        <time>2016-10-01T16:32:40.000Z</time>
      </trkpt>
      <trkpt lat="47.51467" lon="6.7773">
        <ele>365</ele>
        <time>2016-10-01T16:32:41.000Z</time>
      </trkpt>
      <trkpt lat="47.5147" lon="6.77731">
        <ele>366</ele>
        <time>2016-10-01T16:32:43.000Z</time>
      </trkpt>
      <trkpt lat="47.51472" lon="6.77732">
        <ele>366</ele>
        <time>2016-10-01T16:32:44.000Z</time>
      </trkpt>
      <trkpt lat="47.51475" lon="6.77734">
        <ele>366</ele>
        <time>2016-10-01T16:32:46.000Z</time>
      </trkpt>
      <trkpt lat="47.51476" lon="6.77734">
        <ele>366</ele>
        <time>2016-10-01T16:32:47.000Z</time>
      </trkpt>
      <trkpt lat="47.5148" lon="6.77733">
        <ele>366</ele>
        <time>2016-10-01T16:32:49.000Z</time>
      </trkpt>
      <trkpt lat="47.51482" lon="6.77733">
        <ele>366</ele>
        <time>2016-10-01T16:32:50.000Z</time>
      </trkpt>
      <trkpt lat="47.51486" lon="6.77732">
        <ele>366</ele>
        <time>2016-10-01T16:32:53.000Z</time>
      </trkpt>
      <trkpt lat="47.51487" lon="6.77733">
        <ele>366</ele>
        <time>2016-10-01T16:32:54.000Z</time>
      </trkpt>
      <trkpt lat="47.51491" lon="6.77734">
        <ele>366</ele>
        <time>2016-10-01T16:32:57.000Z</time>
      </trkpt>
      <trkpt lat="47.51493" lon="6.77734">
        <ele>366</ele>
        <time>2016-10-01T16:32:58.000Z</time>
      </trkpt>
      <trkpt lat="47.51496" lon="6.77734">
        <ele>366</ele>
        <time>2016-10-01T16:33:00.000Z</time>
      </trkpt>
      <trkpt lat="47.51498" lon="6.77735">
        <ele>366</ele>
        <time>2016-10-01T16:33:01.000Z</time>
      </trkpt>
      <trkpt lat="47.51502" lon="6.77734">
        <ele>369</ele>
        <time>2016-10-01T16:33:03.000Z</time>
      </trkpt>
      <trkpt lat="47.51504" lon="6.77734">
        <ele>369</ele>
        <time>2016-10-01T16:33:04.000Z</time>
      </trkpt>
      <trkpt lat="47.51508" lon="6.77733">
        <ele>370</ele>
        <time>2016-10-01T16:33:06.000Z</time>
      </trkpt>
      <trkpt lat="47.5151" lon="6.77732">
        <ele>370</ele>
        <time>2016-10-01T16:33:07.000Z</time>
      </trkpt>
      <trkpt lat="47.51513" lon="6.77731">
        <ele>370</ele>
        <time>2016-10-01T16:33:09.000Z</time>
      </trkpt>
      <trkpt lat="47.51515" lon="6.77731">
        <ele>371</ele>
        <time>2016-10-01T16:33:10.000Z</time>
      </trkpt>
      <trkpt lat="47.51518" lon="6.77731">
        <ele>371</ele>
        <time>2016-10-01T16:33:12.000Z</time>
      </trkpt>
      <trkpt lat="47.51519" lon="6.77732">
        <ele>371</ele>
        <time>2016-10-01T16:33:13.000Z</time>
      </trkpt>
      <trkpt lat="47.51523" lon="6.7773">
        <ele>371</ele>
        <time>2016-10-01T16:33:16.000Z</time>
      </trkpt>
      <trkpt lat="47.51525" lon="6.77729">
        <ele>372</ele>
        <time>2016-10-01T16:33:17.000Z</time>
      </trkpt>
      <trkpt lat="47.51528" lon="6.7773">
        <ele>372</ele>
        <time>2016-10-01T16:33:19.000Z</time>
      </trkpt>
      <trkpt lat="47.51529" lon="6.7773">
        <ele>372</ele>
        <time>2016-10-01T16:33:20.000Z</time>
      </trkpt>
      <trkpt lat="47.51533" lon="6.7773">
        <ele>372</ele>
        <time>2016-10-01T16:33:22.000Z</time>
      </trkpt>
      <trkpt lat="47.51536" lon="6.77729">
        <ele>372</ele>
        <time>2016-10-01T16:33:23.000Z</time>
      </trkpt>
      <trkpt lat="47.5154" lon="6.77728">
        <ele>373</ele>
        <time>2016-10-01T16:33:25.000Z</time>
      </trkpt>
      <trkpt lat="47.51542" lon="6.77728">
        <ele>373</ele>
        <time>2016-10-01T16:33:26.000Z</time>
      </trkpt>
      <trkpt lat="47.51546" lon="6.77727">
        <ele>373</ele>
        <time>2016-10-01T16:33:28.000Z</time>
      </trkpt>
      <trkpt lat="47.51547" lon="6.77728">
        <ele>373</ele>
        <time>2016-10-01T16:33:29.000Z</time>
      </trkpt>
      <trkpt lat="47.5155" lon="6.77729">
        <ele>374</ele>
        <time>2016-10-01T16:33:31.000Z</time>
      </trkpt>
      <trkpt lat="47.51552" lon="6.7773">
        <ele>374</ele>
        <time>2016-10-01T16:33:32.000Z</time>
      </trkpt>
      <trkpt lat="47.51556" lon="6.77732">
        <ele>374</ele>
        <time>2016-10-01T16:33:34.000Z</time>
      </trkpt>
      <trkpt lat="47.51558" lon="6.77734">
        <ele>374</ele>
        <time>2016-10-01T16:33:35.000Z</time>
      </trkpt>
      <trkpt lat="47.51564" lon="6.7773">
        <ele>374</ele>
        <time>2016-10-01T16:33:36.000Z</time>
      </trkpt>
      <trkpt lat="47.51567" lon="6.77731">
        <ele>375</ele>
        <time>2016-10-01T16:33:38.001Z</time>
      </trkpt>
      <trkpt lat="47.51568" lon="6.77731">
        <ele>375</ele>
        <time>2016-10-01T16:33:39.000Z</time>
      </trkpt>
      <trkpt lat="47.51572" lon="6.77732">
        <ele>375</ele>
        <time>2016-10-01T16:33:41.000Z</time>
      </trkpt>
      <trkpt lat="47.51574" lon="6.77732">
        <ele>375</ele>
        <time>2016-10-01T16:33:42.000Z</time>
      </trkpt>
      <trkpt lat="47.51578" lon="6.77732">
        <ele>375</ele>
        <time>2016-10-01T16:33:44.000Z</time>
      </trkpt>
      <trkpt lat="47.51579" lon="6.77733">
        <ele>375</ele>
        <time>2016-10-01T16:33:45.000Z</time>
      </trkpt>
      <trkpt lat="47.51583" lon="6.77735">
        <ele>375</ele>
        <time>2016-10-01T16:33:49.000Z</time>
      </trkpt>
      <trkpt lat="47.51584" lon="6.77736">
        <ele>378</ele>
        <time>2016-10-01T16:33:50.000Z</time>
      </trkpt>
      <trkpt lat="47.51585" lon="6.77742">
        <ele>378</ele>
        <time>2016-10-01T16:33:53.000Z</time>
      </trkpt>
      <trkpt lat="47.51586" lon="6.77743">
        <ele>377</ele>
        <time>2016-10-01T16:33:54.000Z</time>
      </trkpt>
      <trkpt lat="47.51591" lon="6.77744">
        <ele>378</ele>
        <time>2016-10-01T16:33:56.000Z</time>
      </trkpt>
      <trkpt lat="47.51593" lon="6.77744">
        <ele>378</ele>
        <time>2016-10-01T16:33:57.000Z</time>
      </trkpt>
      <trkpt lat="47.51596" lon="6.77743">
        <ele>379</ele>
        <time>2016-10-01T16:33:59.000Z</time>
      </trkpt>
      <trkpt lat="47.51598" lon="6.77743">
        <ele>379</ele>
        <time>2016-10-01T16:34:00.000Z</time>
      </trkpt>
      <trkpt lat="47.51601" lon="6.77746">
        <ele>379</ele>
        <time>2016-10-01T16:34:05.000Z</time>
      </trkpt>
      <trkpt lat="47.51602" lon="6.77747">
        <ele>379</ele>
        <time>2016-10-01T16:34:06.001Z</time>
      </trkpt>
      <trkpt lat="47.51605" lon="6.77751">
        <ele>380</ele>
        <time>2016-10-01T16:34:10.000Z</time>
      </trkpt>
      <trkpt lat="47.51605" lon="6.77753">
        <ele>380</ele>
        <time>2016-10-01T16:34:11.000Z</time>
      </trkpt>
      <trkpt lat="47.51608" lon="6.77755">
        <ele>380</ele>
        <time>2016-10-01T16:34:14.001Z</time>
      </trkpt>
      <trkpt lat="47.51611" lon="6.77755">
        <ele>380</ele>
        <time>2016-10-01T16:34:15.001Z</time>
      </trkpt>
      <trkpt lat="47.51615" lon="6.77755">
        <ele>381</ele>
        <time>2016-10-01T16:34:18.000Z</time>
      </trkpt>
      <trkpt lat="47.51615" lon="6.77755">
        <ele>381</ele>
        <time>2016-10-01T16:34:18.999Z</time>
      </trkpt>
      <trkpt lat="47.51618" lon="6.77756">
        <ele>381</ele>
        <time>2016-10-01T16:34:21.000Z</time>
      </trkpt>
      <trkpt lat="47.5162" lon="6.77757">
        <ele>381</ele>
        <time>2016-10-01T16:34:22.000Z</time>
      </trkpt>
      <trkpt lat="47.51622" lon="6.77757">
        <ele>381</ele>
        <time>2016-10-01T16:34:23.000Z</time>
      </trkpt>
      <trkpt lat="47.51624" lon="6.77758">
        <ele>381</ele>
        <time>2016-10-01T16:34:24.000Z</time>
      </trkpt>
      <trkpt lat="47.51627" lon="6.77758">
        <ele>382</ele>
        <time>2016-10-01T16:34:25.000Z</time>
      </trkpt>
      <trkpt lat="47.5163" lon="6.77759">
        <ele>382</ele>
        <time>2016-10-01T16:34:26.000Z</time>
      </trkpt>
      <trkpt lat="47.51633" lon="6.77759">
        <ele>382</ele>
        <time>2016-10-01T16:34:27.000Z</time>
      </trkpt>
      <trkpt lat="47.51635" lon="6.7776">
        <ele>382</ele>
        <time>2016-10-01T16:34:28.000Z</time>
      </trkpt>
      <trkpt lat="47.51639" lon="6.77762">
        <ele>382</ele>
        <time>2016-10-01T16:34:30.000Z</time>
      </trkpt>
      <trkpt lat="47.51641" lon="6.77763">
        <ele>382</ele>
        <time>2016-10-01T16:34:31.000Z</time>
      </trkpt>
      <trkpt lat="47.51645" lon="6.77764">
        <ele>382</ele>
        <time>2016-10-01T16:34:33.000Z</time>
      </trkpt>
      <trkpt lat="47.51647" lon="6.77764">
        <ele>382</ele>
        <time>2016-10-01T16:34:34.000Z</time>
      </trkpt>
      <trkpt lat="47.51651" lon="6.77765">
        <ele>383</ele>
        <time>2016-10-01T16:34:36.000Z</time>
      </trkpt>
      <trkpt lat="47.51653" lon="6.77765">
        <ele>383</ele>
        <time>2016-10-01T16:34:37.000Z</time>
      </trkpt>
      <trkpt lat="47.51656" lon="6.77765">
        <ele>383</ele>
        <time>2016-10-01T16:34:38.000Z</time>
      </trkpt>
      <trkpt lat="47.51658" lon="6.77765">
        <ele>383</ele>
        <time>2016-10-01T16:34:39.000Z</time>
      </trkpt>
      <trkpt lat="47.5166" lon="6.77765">
        <ele>383</ele>
        <time>2016-10-01T16:34:40.000Z</time>
      </trkpt>
      <trkpt lat="47.51663" lon="6.77766">
        <ele>383</ele>
        <time>2016-10-01T16:34:41.000Z</time>
      </trkpt>
      <trkpt lat="47.51665" lon="6.77767">
        <ele>383</ele>
        <time>2016-10-01T16:34:42.000Z</time>
      </trkpt>
      <trkpt lat="47.51667" lon="6.77768">
        <ele>385</ele>
        <time>2016-10-01T16:34:43.000Z</time>
      </trkpt>
      <trkpt lat="47.51672" lon="6.7777">
        <ele>385</ele>
        <time>2016-10-01T16:34:45.000Z</time>
      </trkpt>
      <trkpt lat="47.51674" lon="6.7777">
        <ele>385</ele>
        <time>2016-10-01T16:34:46.000Z</time>
      </trkpt>
      <trkpt lat="47.51676" lon="6.77771">
        <ele>385</ele>
        <time>2016-10-01T16:34:47.000Z</time>
      </trkpt>
      <trkpt lat="47.51679" lon="6.77771">
        <ele>385</ele>
        <time>2016-10-01T16:34:48.000Z</time>
      </trkpt>
      <trkpt lat="47.51683" lon="6.77773">
        <ele>385</ele>
        <time>2016-10-01T16:34:50.000Z</time>
      </trkpt>
      <trkpt lat="47.51684" lon="6.77774">
        <ele>385</ele>
        <time>2016-10-01T16:34:50.999Z</time>
      </trkpt>
      <trkpt lat="47.51688" lon="6.77775">
        <ele>385</ele>
        <time>2016-10-01T16:34:53.000Z</time>
      </trkpt>
      <trkpt lat="47.51691" lon="6.77774">
        <ele>385</ele>
        <time>2016-10-01T16:34:54.000Z</time>
      </trkpt>
      <trkpt lat="47.51692" lon="6.77774">
        <ele>385</ele>
        <time>2016-10-01T16:34:54.998Z</time>
      </trkpt>
      <trkpt lat="47.51695" lon="6.77773">
        <ele>386</ele>
        <time>2016-10-01T16:34:56.000Z</time>
      </trkpt>
      <trkpt lat="47.51699" lon="6.77771">
        <ele>386</ele>
        <time>2016-10-01T16:34:58.000Z</time>
      </trkpt>
      <trkpt lat="47.51701" lon="6.77769">
        <ele>386</ele>
        <time>2016-10-01T16:34:59.000Z</time>
      </trkpt>
      <trkpt lat="47.51704" lon="6.77765">
        <ele>386</ele>
        <time>2016-10-01T16:35:01.000Z</time>
      </trkpt>
      <trkpt lat="47.51705" lon="6.77762">
        <ele>386</ele>
        <time>2016-10-01T16:35:02.000Z</time>
      </trkpt>
      <trkpt lat="47.51706" lon="6.77756">
        <ele>386</ele>
        <time>2016-10-01T16:35:04.000Z</time>
      </trkpt>
      <trkpt lat="47.51706" lon="6.77753">
        <ele>386</ele>
        <time>2016-10-01T16:35:05.000Z</time>
      </trkpt>
      <trkpt lat="47.51706" lon="6.7775">
        <ele>387</ele>
        <time>2016-10-01T16:35:06.000Z</time>
      </trkpt>
      <trkpt lat="47.51706" lon="6.77746">
        <ele>387</ele>
        <time>2016-10-01T16:35:07.000Z</time>
      </trkpt>
      <trkpt lat="47.51706" lon="6.77741">
        <ele>387</ele>
        <time>2016-10-01T16:35:08.000Z</time>
      </trkpt>
      <trkpt lat="47.51706" lon="6.77738">
        <ele>387</ele>
        <time>2016-10-01T16:35:09.000Z</time>
      </trkpt>
      <trkpt lat="47.51707" lon="6.77734">
        <ele>387</ele>
        <time>2016-10-01T16:35:10.000Z</time>
      </trkpt>
      <trkpt lat="47.51707" lon="6.7773">
        <ele>387</ele>
        <time>2016-10-01T16:35:11.000Z</time>
      </trkpt>
      <trkpt lat="47.51708" lon="6.77727">
        <ele>387</ele>
        <time>2016-10-01T16:35:12.000Z</time>
      </trkpt>
      <trkpt lat="47.51708" lon="6.77723">
        <ele>387</ele>
        <time>2016-10-01T16:35:13.000Z</time>
      </trkpt>
      <trkpt lat="47.51711" lon="6.77719">
        <ele>387</ele>
        <time>2016-10-01T16:35:15.000Z</time>
      </trkpt>
      <trkpt lat="47.51713" lon="6.77717">
        <ele>387</ele>
        <time>2016-10-01T16:35:16.000Z</time>
      </trkpt>
      <trkpt lat="47.51715" lon="6.77715">
        <ele>388</ele>
        <time>2016-10-01T16:35:17.000Z</time>
      </trkpt>
      <trkpt lat="47.51716" lon="6.77711">
        <ele>388</ele>
        <time>2016-10-01T16:35:18.000Z</time>
      </trkpt>
      <trkpt lat="47.51716" lon="6.77707">
        <ele>388</ele>
        <time>2016-10-01T16:35:19.000Z</time>
      </trkpt>
      <trkpt lat="47.51716" lon="6.77703">
        <ele>388</ele>
        <time>2016-10-01T16:35:20.000Z</time>
      </trkpt>
      <trkpt lat="47.51716" lon="6.77699">
        <ele>388</ele>
        <time>2016-10-01T16:35:21.000Z</time>
      </trkpt>
      <trkpt lat="47.51716" lon="6.77696">
        <ele>388</ele>
        <time>2016-10-01T16:35:22.000Z</time>
      </trkpt>
      <trkpt lat="47.51715" lon="6.77692">
        <ele>388</ele>
        <time>2016-10-01T16:35:23.000Z</time>
      </trkpt>
      <trkpt lat="47.51715" lon="6.77688">
        <ele>388</ele>
        <time>2016-10-01T16:35:24.000Z</time>
      </trkpt>
      <trkpt lat="47.51715" lon="6.77684">
        <ele>388</ele>
        <time>2016-10-01T16:35:25.000Z</time>
      </trkpt>
      <trkpt lat="47.51715" lon="6.77681">
        <ele>388</ele>
        <time>2016-10-01T16:35:25.998Z</time>
      </trkpt>
      <trkpt lat="47.51715" lon="6.77675">
        <ele>388</ele>
        <time>2016-10-01T16:35:27.000Z</time>
      </trkpt>
      <trkpt lat="47.51715" lon="6.77671">
        <ele>388</ele>
        <time>2016-10-01T16:35:28.000Z</time>
      </trkpt>
      <trkpt lat="47.51715" lon="6.77667">
        <ele>388</ele>
        <time>2016-10-01T16:35:29.000Z</time>
      </trkpt>
      <trkpt lat="47.51715" lon="6.77664">
        <ele>390</ele>
        <time>2016-10-01T16:35:30.000Z</time>
      </trkpt>
      <trkpt lat="47.51716" lon="6.77659">
        <ele>390</ele>
        <time>2016-10-01T16:35:32.000Z</time>
      </trkpt>
      <trkpt lat="47.51716" lon="6.77656">
        <ele>390</ele>
        <time>2016-10-01T16:35:33.000Z</time>
      </trkpt>
      <trkpt lat="47.51715" lon="6.7765">
        <ele>390</ele>
        <time>2016-10-01T16:35:35.000Z</time>
      </trkpt>
      <trkpt lat="47.51715" lon="6.77647">
        <ele>390</ele>
        <time>2016-10-01T16:35:36.000Z</time>
      </trkpt>
      <trkpt lat="47.51715" lon="6.77643">
        <ele>390</ele>
        <time>2016-10-01T16:35:37.000Z</time>
      </trkpt>
      <trkpt lat="47.51714" lon="6.77638">
        <ele>390</ele>
        <time>2016-10-01T16:35:38.000Z</time>
      </trkpt>
      <trkpt lat="47.51713" lon="6.77629">
        <ele>390</ele>
        <time>2016-10-01T16:35:39.000Z</time>
      </trkpt>
      <trkpt lat="47.51712" lon="6.77624">
        <ele>390</ele>
        <time>2016-10-01T16:35:40.000Z</time>
      </trkpt>
      <trkpt lat="47.51713" lon="6.77619">
        <ele>390</ele>
        <time>2016-10-01T16:35:41.000Z</time>
      </trkpt>
      <trkpt lat="47.51713" lon="6.77614">
        <ele>390</ele>
        <time>2016-10-01T16:35:42.000Z</time>
      </trkpt>
      <trkpt lat="47.51713" lon="6.7761">
        <ele>390</ele>
        <time>2016-10-01T16:35:43.000Z</time>
      </trkpt>
      <trkpt lat="47.51714" lon="6.77605">
        <ele>390</ele>
        <time>2016-10-01T16:35:44.000Z</time>
      </trkpt>
      <trkpt lat="47.51714" lon="6.77602">
        <ele>390</ele>
        <time>2016-10-01T16:35:45.000Z</time>
      </trkpt>
      <trkpt lat="47.51713" lon="6.77599">
        <ele>390</ele>
        <time>2016-10-01T16:35:46.000Z</time>
      </trkpt>
      <trkpt lat="47.51714" lon="6.77595">
        <ele>390</ele>
        <time>2016-10-01T16:35:47.000Z</time>
      </trkpt>
      <trkpt lat="47.51716" lon="6.77589">
        <ele>390</ele>
        <time>2016-10-01T16:35:49.000Z</time>
      </trkpt>
      <trkpt lat="47.51717" lon="6.77588">
        <ele>390</ele>
        <time>2016-10-01T16:35:50.000Z</time>
      </trkpt>
      <trkpt lat="47.5172" lon="6.77586">
        <ele>390</ele>
        <time>2016-10-01T16:35:52.000Z</time>
      </trkpt>
      <trkpt lat="47.51722" lon="6.77585">
        <ele>390</ele>
        <time>2016-10-01T16:35:53.000Z</time>
      </trkpt>
      <trkpt lat="47.51723" lon="6.7758">
        <ele>391</ele>
        <time>2016-10-01T16:35:55.000Z</time>
      </trkpt>
      <trkpt lat="47.51723" lon="6.77576">
        <ele>391</ele>
        <time>2016-10-01T16:35:56.000Z</time>
      </trkpt>
      <trkpt lat="47.51722" lon="6.77571">
        <ele>390</ele>
        <time>2016-10-01T16:35:57.000Z</time>
      </trkpt>
      <trkpt lat="47.51721" lon="6.77567">
        <ele>390</ele>
        <time>2016-10-01T16:35:57.999Z</time>
      </trkpt>
      <trkpt lat="47.51719" lon="6.77561">
        <ele>390</ele>
        <time>2016-10-01T16:35:59.000Z</time>
      </trkpt>
      <trkpt lat="47.51719" lon="6.77557">
        <ele>390</ele>
        <time>2016-10-01T16:36:00.000Z</time>
      </trkpt>
      <trkpt lat="47.51719" lon="6.77552">
        <ele>390</ele>
        <time>2016-10-01T16:36:01.000Z</time>
      </trkpt>
      <trkpt lat="47.5172" lon="6.77547">
        <ele>390</ele>
        <time>2016-10-01T16:36:02.000Z</time>
      </trkpt>
      <trkpt lat="47.51721" lon="6.77542">
        <ele>390</ele>
        <time>2016-10-01T16:36:03.000Z</time>
      </trkpt>
      <trkpt lat="47.51723" lon="6.77536">
        <ele>390</ele>
        <time>2016-10-01T16:36:04.000Z</time>
      </trkpt>
      <trkpt lat="47.51724" lon="6.7753">
        <ele>390</ele>
        <time>2016-10-01T16:36:05.000Z</time>
      </trkpt>
      <trkpt lat="47.51725" lon="6.77525">
        <ele>390</ele>
        <time>2016-10-01T16:36:05.999Z</time>
      </trkpt>
      <trkpt lat="47.51726" lon="6.77518">
        <ele>390</ele>
        <time>2016-10-01T16:36:07.000Z</time>
      </trkpt>
      <trkpt lat="47.51727" lon="6.77512">
        <ele>390</ele>
        <time>2016-10-01T16:36:08.000Z</time>
      </trkpt>
      <trkpt lat="47.51728" lon="6.77506">
        <ele>390</ele>
        <time>2016-10-01T16:36:09.000Z</time>
      </trkpt>
      <trkpt lat="47.51729" lon="6.77501">
        <ele>390</ele>
        <time>2016-10-01T16:36:10.000Z</time>
      </trkpt>
      <trkpt lat="47.5173" lon="6.77495">
        <ele>389</ele>
        <time>2016-10-01T16:36:11.000Z</time>
      </trkpt>
      <trkpt lat="47.5173" lon="6.7749">
        <ele>389</ele>
        <time>2016-10-01T16:36:12.000Z</time>
      </trkpt>
      <trkpt lat="47.51731" lon="6.77485">
        <ele>389</ele>
        <time>2016-10-01T16:36:13.000Z</time>
      </trkpt>
      <trkpt lat="47.51733" lon="6.77482">
        <ele>389</ele>
        <time>2016-10-01T16:36:14.000Z</time>
      </trkpt>
      <trkpt lat="47.51737" lon="6.7748">
        <ele>389</ele>
        <time>2016-10-01T16:36:15.000Z</time>
      </trkpt>
      <trkpt lat="47.5174" lon="6.7748">
        <ele>389</ele>
        <time>2016-10-01T16:36:16.000Z</time>
      </trkpt>
      <trkpt lat="47.51744" lon="6.7748">
        <ele>389</ele>
        <time>2016-10-01T16:36:17.000Z</time>
      </trkpt>
      <trkpt lat="47.51747" lon="6.77481">
        <ele>389</ele>
        <time>2016-10-01T16:36:18.000Z</time>
      </trkpt>
      <trkpt lat="47.51751" lon="6.77482">
        <ele>389</ele>
        <time>2016-10-01T16:36:19.000Z</time>
      </trkpt>
      <trkpt lat="47.51754" lon="6.77483">
        <ele>389</ele>
        <time>2016-10-01T16:36:20.000Z</time>
      </trkpt>
      <trkpt lat="47.51757" lon="6.77484">
        <ele>389</ele>
        <time>2016-10-01T16:36:21.000Z</time>
      </trkpt>
      <trkpt lat="47.51761" lon="6.77485">
        <ele>389</ele>
        <time>2016-10-01T16:36:22.000Z</time>
      </trkpt>
      <trkpt lat="47.51764" lon="6.77485">
        <ele>389</ele>
        <time>2016-10-01T16:36:23.000Z</time>
      </trkpt>
      <trkpt lat="47.51768" lon="6.77486">
        <ele>389</ele>
        <time>2016-10-01T16:36:24.000Z</time>
      </trkpt>
      <trkpt lat="47.51771" lon="6.77486">
        <ele>389</ele>
        <time>2016-10-01T16:36:25.000Z</time>
      </trkpt>
      <trkpt lat="47.51775" lon="6.77487">
        <ele>388</ele>
        <time>2016-10-01T16:36:26.000Z</time>
      </trkpt>
      <trkpt lat="47.51779" lon="6.77488">
        <ele>388</ele>
        <time>2016-10-01T16:36:27.000Z</time>
      </trkpt>
      <trkpt lat="47.51782" lon="6.7749">
        <ele>388</ele>
        <time>2016-10-01T16:36:28.000Z</time>
      </trkpt>
      <trkpt lat="47.51786" lon="6.77492">
        <ele>388</ele>
        <time>2016-10-01T16:36:29.000Z</time>
      </trkpt>
      <trkpt lat="47.5179" lon="6.77495">
        <ele>388</ele>
        <time>2016-10-01T16:36:30.000Z</time>
      </trkpt>
      <trkpt lat="47.51793" lon="6.77497">
        <ele>388</ele>
        <time>2016-10-01T16:36:31.000Z</time>
      </trkpt>
      <trkpt lat="47.51796" lon="6.77499">
        <ele>388</ele>
        <time>2016-10-01T16:36:32.000Z</time>
      </trkpt>
      <trkpt lat="47.51799" lon="6.775">
        <ele>388</ele>
        <time>2016-10-01T16:36:33.000Z</time>
      </trkpt>
      <trkpt lat="47.51802" lon="6.77501">
        <ele>389</ele>
        <time>2016-10-01T16:36:34.000Z</time>
      </trkpt>
      <trkpt lat="47.51805" lon="6.77502">
        <ele>389</ele>
        <time>2016-10-01T16:36:35.000Z</time>
      </trkpt>
      <trkpt lat="47.51808" lon="6.775">
        <ele>389</ele>
        <time>2016-10-01T16:36:36.000Z</time>
      </trkpt>
      <trkpt lat="47.51809" lon="6.77498">
        <ele>388</ele>
        <time>2016-10-01T16:36:37.000Z</time>
      </trkpt>
      <trkpt lat="47.51811" lon="6.77496">
        <ele>388</ele>
        <time>2016-10-01T16:36:38.000Z</time>
      </trkpt>
      <trkpt lat="47.51811" lon="6.77489">
        <ele>388</ele>
        <time>2016-10-01T16:36:39.000Z</time>
      </trkpt>
      <trkpt lat="47.51808" lon="6.77484">
        <ele>388</ele>
        <time>2016-10-01T16:36:58.000Z</time>
      </trkpt>
      <trkpt lat="47.51807" lon="6.77484">
        <ele>388</ele>
        <time>2016-10-01T16:36:59.000Z</time>
      </trkpt>
      <trkpt lat="47.51809" lon="6.77487">
        <ele>388</ele>
        <time>2016-10-01T16:37:01.000Z</time>
      </trkpt>
      <trkpt lat="47.51809" lon="6.77489">
        <ele>388</ele>
        <time>2016-10-01T16:37:02.000Z</time>
      </trkpt>
      <trkpt lat="47.5181" lon="6.77494">
        <ele>388</ele>
        <time>2016-10-01T16:37:04.000Z</time>
      </trkpt>
      <trkpt lat="47.51809" lon="6.77498">
        <ele>388</ele>
        <time>2016-10-01T16:37:05.000Z</time>
      </trkpt>
      <trkpt lat="47.51807" lon="6.77501">
        <ele>389</ele>
        <time>2016-10-01T16:37:06.000Z</time>
      </trkpt>
      <trkpt lat="47.51805" lon="6.77503">
        <ele>389</ele>
        <time>2016-10-01T16:37:07.000Z</time>
      </trkpt>
      <trkpt lat="47.51801" lon="6.775">
        <ele>388</ele>
        <time>2016-10-01T16:37:14.000Z</time>
      </trkpt>
      <trkpt lat="47.51799" lon="6.77498">
        <ele>388</ele>
        <time>2016-10-01T16:37:15.000Z</time>
      </trkpt>
      <trkpt lat="47.51797" lon="6.77495">
        <ele>388</ele>
        <time>2016-10-01T16:37:17.000Z</time>
      </trkpt>
      <trkpt lat="47.51795" lon="6.77495">
        <ele>388</ele>
        <time>2016-10-01T16:37:18.000Z</time>
      </trkpt>
      <trkpt lat="47.51798" lon="6.775">
        <ele>388</ele>
        <time>2016-10-01T16:37:21.000Z</time>
      </trkpt>
      <trkpt lat="47.51801" lon="6.77498">
        <ele>388</ele>
        <time>2016-10-01T16:37:22.000Z</time>
      </trkpt>
      <trkpt lat="47.51804" lon="6.77493">
        <ele>388</ele>
        <time>2016-10-01T16:37:23.000Z</time>
      </trkpt>
      <trkpt lat="47.51807" lon="6.77487">
        <ele>388</ele>
        <time>2016-10-01T16:37:24.000Z</time>
      </trkpt>
      <trkpt lat="47.51809" lon="6.7748">
        <ele>388</ele>
        <time>2016-10-01T16:37:25.000Z</time>
      </trkpt>
      <trkpt lat="47.51809" lon="6.77474">
        <ele>388</ele>
        <time>2016-10-01T16:37:26.000Z</time>
      </trkpt>
      <trkpt lat="47.51809" lon="6.77469">
        <ele>388</ele>
        <time>2016-10-01T16:37:27.000Z</time>
      </trkpt>
      <trkpt lat="47.51807" lon="6.77475">
        <ele>388</ele>
        <time>2016-10-01T16:38:18.000Z</time>
      </trkpt>
      <trkpt lat="47.51806" lon="6.77475">
        <ele>388</ele>
        <time>2016-10-01T16:38:19.000Z</time>
      </trkpt>
      <trkpt lat="47.51805" lon="6.7748">
        <ele>388</ele>
        <time>2016-10-01T16:38:32.000Z</time>
      </trkpt>
      <trkpt lat="47.51805" lon="6.77482">
        <ele>388</ele>
        <time>2016-10-01T16:38:33.000Z</time>
      </trkpt>
      <trkpt lat="47.51804" lon="6.77477">
        <ele>388</ele>
        <time>2016-10-01T16:39:35.000Z</time>
      </trkpt>
    </trkseg>
  </trk>
</gpx>